<?xml version="1.0" encoding="UTF-8"?>
<gpx version="1.1" creator="https://www.youtrack.es" xsi:schemaLocation="http://www.topografix.com/GPX/1/1 http://www.topografix.com/GPX/1/1/gpx.xsd http://www.garmin.com/xmlschemas/GpxExtensions/v3 http://www.garmin.com/xmlschemas/GpxExtensionsv3.xsd http://www.garmin.com/xmlschemas/TrackPointExtension/v1 http://www.garmin.com/xmlschemas/TrackPointExtensionv1.xsd" xmlns:gpxtpx="http://www.garmin.com/xmlschemas/TrackPointExtension/v1" xmlns:gpxx="http://www.garmin.com/xmlschemas/GpxExtensions/v3" xmlns:xsi="http://www.w3.org/2001/XMLSchema-instance">
  <metadata>
    <link href="https://www.youtrack.es">
      <text>YouTrack.es</text>
    </link>
    <time>2026-05-08T18:52:49Z</time>
  </metadata>
  <trk>
    <src>https://www.youtrack.es</src>
    <link href="https://www.youtrack.es/ruta/1021-sabado-16-06-2018">
      <text>YouTrack.es</text>
    </link>
    <trkseg>
      <trkpt lat="38.1025100" lon="-3.6282080">
        <ele>395.6</ele>
        <time>2018-06-16T06:06:40Z</time>
      </trkpt>
      <trkpt lat="38.1025400" lon="-3.6281640">
        <ele>395.8</ele>
        <time>2018-06-16T06:06:41Z</time>
      </trkpt>
      <trkpt lat="38.1025520" lon="-3.6281440">
        <ele>395.8</ele>
        <time>2018-06-16T06:06:42Z</time>
      </trkpt>
      <trkpt lat="38.1025630" lon="-3.6281270">
        <ele>395.8</ele>
        <time>2018-06-16T06:06:43Z</time>
      </trkpt>
      <trkpt lat="38.1025740" lon="-3.6281070">
        <ele>396.0</ele>
        <time>2018-06-16T06:06:44Z</time>
      </trkpt>
      <trkpt lat="38.1025870" lon="-3.6280810">
        <ele>396.0</ele>
        <time>2018-06-16T06:06:45Z</time>
      </trkpt>
      <trkpt lat="38.1026020" lon="-3.6280480">
        <ele>396.0</ele>
        <time>2018-06-16T06:06:46Z</time>
      </trkpt>
      <trkpt lat="38.1026200" lon="-3.6280130">
        <ele>396.0</ele>
        <time>2018-06-16T06:06:47Z</time>
      </trkpt>
      <trkpt lat="38.1026570" lon="-3.6279440">
        <ele>396.0</ele>
        <time>2018-06-16T06:06:49Z</time>
      </trkpt>
      <trkpt lat="38.1026760" lon="-3.6279090">
        <ele>396.0</ele>
        <time>2018-06-16T06:06:50Z</time>
      </trkpt>
      <trkpt lat="38.1026960" lon="-3.6278740">
        <ele>396.0</ele>
        <time>2018-06-16T06:06:51Z</time>
      </trkpt>
      <trkpt lat="38.1027170" lon="-3.6278380">
        <ele>396.0</ele>
        <time>2018-06-16T06:06:52Z</time>
      </trkpt>
      <trkpt lat="38.1027380" lon="-3.6278040">
        <ele>396.2</ele>
        <time>2018-06-16T06:06:53Z</time>
      </trkpt>
      <trkpt lat="38.1027580" lon="-3.6277680">
        <ele>396.2</ele>
        <time>2018-06-16T06:06:54Z</time>
      </trkpt>
      <trkpt lat="38.1027760" lon="-3.6277280">
        <ele>396.2</ele>
        <time>2018-06-16T06:06:55Z</time>
      </trkpt>
      <trkpt lat="38.1027930" lon="-3.6276860">
        <ele>396.0</ele>
        <time>2018-06-16T06:06:56Z</time>
      </trkpt>
      <trkpt lat="38.1028100" lon="-3.6276430">
        <ele>395.8</ele>
        <time>2018-06-16T06:06:57Z</time>
      </trkpt>
      <trkpt lat="38.1028280" lon="-3.6276010">
        <ele>396.0</ele>
        <time>2018-06-16T06:06:58Z</time>
      </trkpt>
      <trkpt lat="38.1028460" lon="-3.6275590">
        <ele>396.2</ele>
        <time>2018-06-16T06:06:59Z</time>
      </trkpt>
      <trkpt lat="38.1028650" lon="-3.6275170">
        <ele>396.0</ele>
        <time>2018-06-16T06:07:00Z</time>
      </trkpt>
      <trkpt lat="38.1028830" lon="-3.6274740">
        <ele>396.0</ele>
        <time>2018-06-16T06:07:01Z</time>
      </trkpt>
      <trkpt lat="38.1029110" lon="-3.6274160">
        <ele>396.0</ele>
        <time>2018-06-16T06:07:02Z</time>
      </trkpt>
      <trkpt lat="38.1029210" lon="-3.6273950">
        <ele>396.0</ele>
        <time>2018-06-16T06:07:03Z</time>
      </trkpt>
      <trkpt lat="38.1029370" lon="-3.6273530">
        <ele>396.0</ele>
        <time>2018-06-16T06:07:04Z</time>
      </trkpt>
      <trkpt lat="38.1029540" lon="-3.6273080">
        <ele>396.0</ele>
        <time>2018-06-16T06:07:05Z</time>
      </trkpt>
      <trkpt lat="38.1029670" lon="-3.6272630">
        <ele>396.0</ele>
        <time>2018-06-16T06:07:06Z</time>
      </trkpt>
      <trkpt lat="38.1029830" lon="-3.6272190">
        <ele>396.0</ele>
        <time>2018-06-16T06:07:07Z</time>
      </trkpt>
      <trkpt lat="38.1029970" lon="-3.6271740">
        <ele>396.0</ele>
        <time>2018-06-16T06:07:08Z</time>
      </trkpt>
      <trkpt lat="38.1030100" lon="-3.6271300">
        <ele>396.0</ele>
        <time>2018-06-16T06:07:09Z</time>
      </trkpt>
      <trkpt lat="38.1030210" lon="-3.6270830">
        <ele>396.0</ele>
        <time>2018-06-16T06:07:10Z</time>
      </trkpt>
      <trkpt lat="38.1030300" lon="-3.6270370">
        <ele>395.8</ele>
        <time>2018-06-16T06:07:11Z</time>
      </trkpt>
      <trkpt lat="38.1030410" lon="-3.6269890">
        <ele>395.8</ele>
        <time>2018-06-16T06:07:12Z</time>
      </trkpt>
      <trkpt lat="38.1030560" lon="-3.6269390">
        <ele>395.8</ele>
        <time>2018-06-16T06:07:13Z</time>
      </trkpt>
      <trkpt lat="38.1030720" lon="-3.6268870">
        <ele>395.8</ele>
        <time>2018-06-16T06:07:14Z</time>
      </trkpt>
      <trkpt lat="38.1030850" lon="-3.6268390">
        <ele>395.8</ele>
        <time>2018-06-16T06:07:15Z</time>
      </trkpt>
      <trkpt lat="38.1031030" lon="-3.6267860">
        <ele>395.8</ele>
        <time>2018-06-16T06:07:17Z</time>
      </trkpt>
      <trkpt lat="38.1031180" lon="-3.6267330">
        <ele>395.8</ele>
        <time>2018-06-16T06:07:18Z</time>
      </trkpt>
      <trkpt lat="38.1031350" lon="-3.6266790">
        <ele>395.6</ele>
        <time>2018-06-16T06:07:19Z</time>
      </trkpt>
      <trkpt lat="38.1031500" lon="-3.6266260">
        <ele>395.6</ele>
        <time>2018-06-16T06:07:20Z</time>
      </trkpt>
      <trkpt lat="38.1031660" lon="-3.6265730">
        <ele>395.8</ele>
        <time>2018-06-16T06:07:21Z</time>
      </trkpt>
      <trkpt lat="38.1031820" lon="-3.6265210">
        <ele>395.8</ele>
        <time>2018-06-16T06:07:22Z</time>
      </trkpt>
      <trkpt lat="38.1032130" lon="-3.6264130">
        <ele>395.6</ele>
        <time>2018-06-16T06:07:23Z</time>
      </trkpt>
      <trkpt lat="38.1032280" lon="-3.6263600">
        <ele>398.0</ele>
        <time>2018-06-16T06:07:24Z</time>
      </trkpt>
      <trkpt lat="38.1032430" lon="-3.6263060">
        <ele>395.8</ele>
        <time>2018-06-16T06:07:25Z</time>
      </trkpt>
      <trkpt lat="38.1032580" lon="-3.6262510">
        <ele>395.6</ele>
        <time>2018-06-16T06:07:26Z</time>
      </trkpt>
      <trkpt lat="38.1032700" lon="-3.6261990">
        <ele>395.6</ele>
        <time>2018-06-16T06:07:27Z</time>
      </trkpt>
      <trkpt lat="38.1032850" lon="-3.6261440">
        <ele>395.6</ele>
        <time>2018-06-16T06:07:28Z</time>
      </trkpt>
      <trkpt lat="38.1032980" lon="-3.6260910">
        <ele>395.6</ele>
        <time>2018-06-16T06:07:29Z</time>
      </trkpt>
      <trkpt lat="38.1033130" lon="-3.6260340">
        <ele>395.6</ele>
        <time>2018-06-16T06:07:31Z</time>
      </trkpt>
      <trkpt lat="38.1033270" lon="-3.6259770">
        <ele>395.6</ele>
        <time>2018-06-16T06:07:32Z</time>
      </trkpt>
      <trkpt lat="38.1033430" lon="-3.6259230">
        <ele>395.6</ele>
        <time>2018-06-16T06:07:33Z</time>
      </trkpt>
      <trkpt lat="38.1033700" lon="-3.6258190">
        <ele>395.4</ele>
        <time>2018-06-16T06:07:34Z</time>
      </trkpt>
      <trkpt lat="38.1033890" lon="-3.6257570">
        <ele>395.6</ele>
        <time>2018-06-16T06:07:35Z</time>
      </trkpt>
      <trkpt lat="38.1034110" lon="-3.6256990">
        <ele>395.4</ele>
        <time>2018-06-16T06:07:36Z</time>
      </trkpt>
      <trkpt lat="38.1034320" lon="-3.6256420">
        <ele>395.4</ele>
        <time>2018-06-16T06:07:37Z</time>
      </trkpt>
      <trkpt lat="38.1034520" lon="-3.6255860">
        <ele>395.4</ele>
        <time>2018-06-16T06:07:38Z</time>
      </trkpt>
      <trkpt lat="38.1034710" lon="-3.6255270">
        <ele>395.4</ele>
        <time>2018-06-16T06:07:39Z</time>
      </trkpt>
      <trkpt lat="38.1034900" lon="-3.6254690">
        <ele>395.4</ele>
        <time>2018-06-16T06:07:40Z</time>
      </trkpt>
      <trkpt lat="38.1035080" lon="-3.6254100">
        <ele>395.4</ele>
        <time>2018-06-16T06:07:41Z</time>
      </trkpt>
      <trkpt lat="38.1035240" lon="-3.6253510">
        <ele>395.4</ele>
        <time>2018-06-16T06:07:42Z</time>
      </trkpt>
      <trkpt lat="38.1035380" lon="-3.6252920">
        <ele>395.4</ele>
        <time>2018-06-16T06:07:43Z</time>
      </trkpt>
      <trkpt lat="38.1035520" lon="-3.6252340">
        <ele>395.4</ele>
        <time>2018-06-16T06:07:44Z</time>
      </trkpt>
      <trkpt lat="38.1035670" lon="-3.6251760">
        <ele>395.4</ele>
        <time>2018-06-16T06:07:45Z</time>
      </trkpt>
      <trkpt lat="38.1035820" lon="-3.6251190">
        <ele>395.4</ele>
        <time>2018-06-16T06:07:46Z</time>
      </trkpt>
      <trkpt lat="38.1035980" lon="-3.6250620">
        <ele>395.4</ele>
        <time>2018-06-16T06:07:47Z</time>
      </trkpt>
      <trkpt lat="38.1036150" lon="-3.6250020">
        <ele>395.4</ele>
        <time>2018-06-16T06:07:48Z</time>
      </trkpt>
      <trkpt lat="38.1036320" lon="-3.6249450">
        <ele>395.6</ele>
        <time>2018-06-16T06:07:49Z</time>
      </trkpt>
      <trkpt lat="38.1036500" lon="-3.6248860">
        <ele>395.6</ele>
        <time>2018-06-16T06:07:50Z</time>
      </trkpt>
      <trkpt lat="38.1036670" lon="-3.6248290">
        <ele>395.6</ele>
        <time>2018-06-16T06:07:51Z</time>
      </trkpt>
      <trkpt lat="38.1036850" lon="-3.6247730">
        <ele>395.6</ele>
        <time>2018-06-16T06:07:52Z</time>
      </trkpt>
      <trkpt lat="38.1037020" lon="-3.6247160">
        <ele>395.6</ele>
        <time>2018-06-16T06:07:53Z</time>
      </trkpt>
      <trkpt lat="38.1037180" lon="-3.6246590">
        <ele>395.6</ele>
        <time>2018-06-16T06:07:54Z</time>
      </trkpt>
      <trkpt lat="38.1037340" lon="-3.6246040">
        <ele>395.6</ele>
        <time>2018-06-16T06:07:56Z</time>
      </trkpt>
      <trkpt lat="38.1037500" lon="-3.6245480">
        <ele>395.6</ele>
        <time>2018-06-16T06:07:57Z</time>
      </trkpt>
      <trkpt lat="38.1037670" lon="-3.6244900">
        <ele>395.6</ele>
        <time>2018-06-16T06:07:58Z</time>
      </trkpt>
      <trkpt lat="38.1037830" lon="-3.6244340">
        <ele>395.8</ele>
        <time>2018-06-16T06:07:59Z</time>
      </trkpt>
      <trkpt lat="38.1038150" lon="-3.6243230">
        <ele>395.8</ele>
        <time>2018-06-16T06:08:00Z</time>
      </trkpt>
      <trkpt lat="38.1038320" lon="-3.6242650">
        <ele>395.8</ele>
        <time>2018-06-16T06:08:01Z</time>
      </trkpt>
      <trkpt lat="38.1038490" lon="-3.6242070">
        <ele>395.8</ele>
        <time>2018-06-16T06:08:02Z</time>
      </trkpt>
      <trkpt lat="38.1038660" lon="-3.6241500">
        <ele>395.8</ele>
        <time>2018-06-16T06:08:03Z</time>
      </trkpt>
      <trkpt lat="38.1038830" lon="-3.6240930">
        <ele>395.8</ele>
        <time>2018-06-16T06:08:04Z</time>
      </trkpt>
      <trkpt lat="38.1038980" lon="-3.6240380">
        <ele>395.8</ele>
        <time>2018-06-16T06:08:05Z</time>
      </trkpt>
      <trkpt lat="38.1039120" lon="-3.6239840">
        <ele>395.8</ele>
        <time>2018-06-16T06:08:06Z</time>
      </trkpt>
      <trkpt lat="38.1039280" lon="-3.6239270">
        <ele>396.0</ele>
        <time>2018-06-16T06:08:07Z</time>
      </trkpt>
      <trkpt lat="38.1039420" lon="-3.6238740">
        <ele>396.0</ele>
        <time>2018-06-16T06:08:08Z</time>
      </trkpt>
      <trkpt lat="38.1039560" lon="-3.6238200">
        <ele>396.0</ele>
        <time>2018-06-16T06:08:09Z</time>
      </trkpt>
      <trkpt lat="38.1039720" lon="-3.6237660">
        <ele>396.0</ele>
        <time>2018-06-16T06:08:10Z</time>
      </trkpt>
      <trkpt lat="38.1039890" lon="-3.6237110">
        <ele>396.2</ele>
        <time>2018-06-16T06:08:11Z</time>
      </trkpt>
      <trkpt lat="38.1040080" lon="-3.6236550">
        <ele>396.2</ele>
        <time>2018-06-16T06:08:12Z</time>
      </trkpt>
      <trkpt lat="38.1040260" lon="-3.6236040">
        <ele>396.2</ele>
        <time>2018-06-16T06:08:13Z</time>
      </trkpt>
      <trkpt lat="38.1040460" lon="-3.6235490">
        <ele>396.2</ele>
        <time>2018-06-16T06:08:14Z</time>
      </trkpt>
      <trkpt lat="38.1040660" lon="-3.6234930">
        <ele>396.2</ele>
        <time>2018-06-16T06:08:15Z</time>
      </trkpt>
      <trkpt lat="38.1040860" lon="-3.6234380">
        <ele>396.2</ele>
        <time>2018-06-16T06:08:16Z</time>
      </trkpt>
      <trkpt lat="38.1041020" lon="-3.6233860">
        <ele>396.4</ele>
        <time>2018-06-16T06:08:17Z</time>
      </trkpt>
      <trkpt lat="38.1041210" lon="-3.6233340">
        <ele>396.2</ele>
        <time>2018-06-16T06:08:18Z</time>
      </trkpt>
      <trkpt lat="38.1041430" lon="-3.6232790">
        <ele>396.4</ele>
        <time>2018-06-16T06:08:19Z</time>
      </trkpt>
      <trkpt lat="38.1041640" lon="-3.6232250">
        <ele>396.4</ele>
        <time>2018-06-16T06:08:20Z</time>
      </trkpt>
      <trkpt lat="38.1041860" lon="-3.6231710">
        <ele>396.4</ele>
        <time>2018-06-16T06:08:22Z</time>
      </trkpt>
      <trkpt lat="38.1042080" lon="-3.6231160">
        <ele>396.6</ele>
        <time>2018-06-16T06:08:23Z</time>
      </trkpt>
      <trkpt lat="38.1042310" lon="-3.6230610">
        <ele>396.6</ele>
        <time>2018-06-16T06:08:24Z</time>
      </trkpt>
      <trkpt lat="38.1042520" lon="-3.6230070">
        <ele>396.6</ele>
        <time>2018-06-16T06:08:25Z</time>
      </trkpt>
      <trkpt lat="38.1042750" lon="-3.6229520">
        <ele>396.6</ele>
        <time>2018-06-16T06:08:26Z</time>
      </trkpt>
      <trkpt lat="38.1042990" lon="-3.6228950">
        <ele>396.8</ele>
        <time>2018-06-16T06:08:27Z</time>
      </trkpt>
      <trkpt lat="38.1043210" lon="-3.6228380">
        <ele>396.8</ele>
        <time>2018-06-16T06:08:28Z</time>
      </trkpt>
      <trkpt lat="38.1043420" lon="-3.6227840">
        <ele>396.8</ele>
        <time>2018-06-16T06:08:29Z</time>
      </trkpt>
      <trkpt lat="38.1043620" lon="-3.6227310">
        <ele>396.8</ele>
        <time>2018-06-16T06:08:30Z</time>
      </trkpt>
      <trkpt lat="38.1043850" lon="-3.6226770">
        <ele>397.0</ele>
        <time>2018-06-16T06:08:31Z</time>
      </trkpt>
      <trkpt lat="38.1044090" lon="-3.6226240">
        <ele>397.0</ele>
        <time>2018-06-16T06:08:32Z</time>
      </trkpt>
      <trkpt lat="38.1044300" lon="-3.6225720">
        <ele>397.0</ele>
        <time>2018-06-16T06:08:33Z</time>
      </trkpt>
      <trkpt lat="38.1044480" lon="-3.6225230">
        <ele>397.0</ele>
        <time>2018-06-16T06:08:34Z</time>
      </trkpt>
      <trkpt lat="38.1044670" lon="-3.6224690">
        <ele>397.0</ele>
        <time>2018-06-16T06:08:35Z</time>
      </trkpt>
      <trkpt lat="38.1044890" lon="-3.6224140">
        <ele>397.2</ele>
        <time>2018-06-16T06:08:36Z</time>
      </trkpt>
      <trkpt lat="38.1045110" lon="-3.6223610">
        <ele>397.2</ele>
        <time>2018-06-16T06:08:37Z</time>
      </trkpt>
      <trkpt lat="38.1045360" lon="-3.6223080">
        <ele>397.2</ele>
        <time>2018-06-16T06:08:38Z</time>
      </trkpt>
      <trkpt lat="38.1045610" lon="-3.6222560">
        <ele>397.2</ele>
        <time>2018-06-16T06:08:39Z</time>
      </trkpt>
      <trkpt lat="38.1046080" lon="-3.6221510">
        <ele>397.4</ele>
        <time>2018-06-16T06:08:40Z</time>
      </trkpt>
      <trkpt lat="38.1046300" lon="-3.6221010">
        <ele>397.4</ele>
        <time>2018-06-16T06:08:41Z</time>
      </trkpt>
      <trkpt lat="38.1046520" lon="-3.6220510">
        <ele>397.6</ele>
        <time>2018-06-16T06:08:42Z</time>
      </trkpt>
      <trkpt lat="38.1046760" lon="-3.6220010">
        <ele>397.6</ele>
        <time>2018-06-16T06:08:43Z</time>
      </trkpt>
      <trkpt lat="38.1046980" lon="-3.6219510">
        <ele>397.6</ele>
        <time>2018-06-16T06:08:44Z</time>
      </trkpt>
      <trkpt lat="38.1047220" lon="-3.6219000">
        <ele>397.8</ele>
        <time>2018-06-16T06:08:45Z</time>
      </trkpt>
      <trkpt lat="38.1047420" lon="-3.6218510">
        <ele>397.8</ele>
        <time>2018-06-16T06:08:46Z</time>
      </trkpt>
      <trkpt lat="38.1047630" lon="-3.6218010">
        <ele>397.8</ele>
        <time>2018-06-16T06:08:47Z</time>
      </trkpt>
      <trkpt lat="38.1047840" lon="-3.6217520">
        <ele>397.8</ele>
        <time>2018-06-16T06:08:48Z</time>
      </trkpt>
      <trkpt lat="38.1048010" lon="-3.6217030">
        <ele>397.8</ele>
        <time>2018-06-16T06:08:49Z</time>
      </trkpt>
      <trkpt lat="38.1048180" lon="-3.6216540">
        <ele>397.8</ele>
        <time>2018-06-16T06:08:50Z</time>
      </trkpt>
      <trkpt lat="38.1048350" lon="-3.6216050">
        <ele>398.0</ele>
        <time>2018-06-16T06:08:51Z</time>
      </trkpt>
      <trkpt lat="38.1048530" lon="-3.6215560">
        <ele>398.0</ele>
        <time>2018-06-16T06:08:52Z</time>
      </trkpt>
      <trkpt lat="38.1048720" lon="-3.6215090">
        <ele>398.0</ele>
        <time>2018-06-16T06:08:54Z</time>
      </trkpt>
      <trkpt lat="38.1048930" lon="-3.6214630">
        <ele>398.0</ele>
        <time>2018-06-16T06:08:55Z</time>
      </trkpt>
      <trkpt lat="38.1049130" lon="-3.6214170">
        <ele>398.0</ele>
        <time>2018-06-16T06:08:56Z</time>
      </trkpt>
      <trkpt lat="38.1049320" lon="-3.6213730">
        <ele>398.2</ele>
        <time>2018-06-16T06:08:57Z</time>
      </trkpt>
      <trkpt lat="38.1049500" lon="-3.6213310">
        <ele>398.2</ele>
        <time>2018-06-16T06:08:58Z</time>
      </trkpt>
      <trkpt lat="38.1049710" lon="-3.6212830">
        <ele>398.2</ele>
        <time>2018-06-16T06:08:59Z</time>
      </trkpt>
      <trkpt lat="38.1049910" lon="-3.6212390">
        <ele>398.2</ele>
        <time>2018-06-16T06:09:00Z</time>
      </trkpt>
      <trkpt lat="38.1050120" lon="-3.6211920">
        <ele>398.2</ele>
        <time>2018-06-16T06:09:01Z</time>
      </trkpt>
      <trkpt lat="38.1050650" lon="-3.6211010">
        <ele>398.0</ele>
        <time>2018-06-16T06:09:02Z</time>
      </trkpt>
      <trkpt lat="38.1050870" lon="-3.6210520">
        <ele>398.0</ele>
        <time>2018-06-16T06:09:03Z</time>
      </trkpt>
      <trkpt lat="38.1051050" lon="-3.6210070">
        <ele>398.0</ele>
        <time>2018-06-16T06:09:04Z</time>
      </trkpt>
      <trkpt lat="38.1051280" lon="-3.6209610">
        <ele>398.0</ele>
        <time>2018-06-16T06:09:05Z</time>
      </trkpt>
      <trkpt lat="38.1051510" lon="-3.6209140">
        <ele>398.0</ele>
        <time>2018-06-16T06:09:06Z</time>
      </trkpt>
      <trkpt lat="38.1051740" lon="-3.6208680">
        <ele>398.0</ele>
        <time>2018-06-16T06:09:07Z</time>
      </trkpt>
      <trkpt lat="38.1051970" lon="-3.6208220">
        <ele>398.0</ele>
        <time>2018-06-16T06:09:08Z</time>
      </trkpt>
      <trkpt lat="38.1052210" lon="-3.6207780">
        <ele>398.0</ele>
        <time>2018-06-16T06:09:09Z</time>
      </trkpt>
      <trkpt lat="38.1052460" lon="-3.6207340">
        <ele>398.0</ele>
        <time>2018-06-16T06:09:10Z</time>
      </trkpt>
      <trkpt lat="38.1052710" lon="-3.6206900">
        <ele>398.2</ele>
        <time>2018-06-16T06:09:11Z</time>
      </trkpt>
      <trkpt lat="38.1052970" lon="-3.6206480">
        <ele>398.2</ele>
        <time>2018-06-16T06:09:12Z</time>
      </trkpt>
      <trkpt lat="38.1053220" lon="-3.6206060">
        <ele>398.2</ele>
        <time>2018-06-16T06:09:13Z</time>
      </trkpt>
      <trkpt lat="38.1053480" lon="-3.6205620">
        <ele>398.2</ele>
        <time>2018-06-16T06:09:14Z</time>
      </trkpt>
      <trkpt lat="38.1053720" lon="-3.6205200">
        <ele>398.2</ele>
        <time>2018-06-16T06:09:15Z</time>
      </trkpt>
      <trkpt lat="38.1054000" lon="-3.6204770">
        <ele>398.2</ele>
        <time>2018-06-16T06:09:16Z</time>
      </trkpt>
      <trkpt lat="38.1054260" lon="-3.6204330">
        <ele>398.2</ele>
        <time>2018-06-16T06:09:17Z</time>
      </trkpt>
      <trkpt lat="38.1054520" lon="-3.6203900">
        <ele>398.4</ele>
        <time>2018-06-16T06:09:18Z</time>
      </trkpt>
      <trkpt lat="38.1054810" lon="-3.6203480">
        <ele>398.4</ele>
        <time>2018-06-16T06:09:20Z</time>
      </trkpt>
      <trkpt lat="38.1055080" lon="-3.6203070">
        <ele>398.4</ele>
        <time>2018-06-16T06:09:21Z</time>
      </trkpt>
      <trkpt lat="38.1055350" lon="-3.6202610">
        <ele>398.4</ele>
        <time>2018-06-16T06:09:22Z</time>
      </trkpt>
      <trkpt lat="38.1055600" lon="-3.6202180">
        <ele>398.4</ele>
        <time>2018-06-16T06:09:23Z</time>
      </trkpt>
      <trkpt lat="38.1055860" lon="-3.6201750">
        <ele>398.6</ele>
        <time>2018-06-16T06:09:24Z</time>
      </trkpt>
      <trkpt lat="38.1056140" lon="-3.6201330">
        <ele>398.6</ele>
        <time>2018-06-16T06:09:25Z</time>
      </trkpt>
      <trkpt lat="38.1056430" lon="-3.6200900">
        <ele>398.6</ele>
        <time>2018-06-16T06:09:26Z</time>
      </trkpt>
      <trkpt lat="38.1056720" lon="-3.6200460">
        <ele>398.6</ele>
        <time>2018-06-16T06:09:27Z</time>
      </trkpt>
      <trkpt lat="38.1057020" lon="-3.6200020">
        <ele>398.6</ele>
        <time>2018-06-16T06:09:28Z</time>
      </trkpt>
      <trkpt lat="38.1057300" lon="-3.6199580">
        <ele>398.6</ele>
        <time>2018-06-16T06:09:29Z</time>
      </trkpt>
      <trkpt lat="38.1057550" lon="-3.6199140">
        <ele>398.8</ele>
        <time>2018-06-16T06:09:30Z</time>
      </trkpt>
      <trkpt lat="38.1058080" lon="-3.6198230">
        <ele>398.8</ele>
        <time>2018-06-16T06:09:31Z</time>
      </trkpt>
      <trkpt lat="38.1058370" lon="-3.6197780">
        <ele>398.8</ele>
        <time>2018-06-16T06:09:32Z</time>
      </trkpt>
      <trkpt lat="38.1058650" lon="-3.6197330">
        <ele>398.8</ele>
        <time>2018-06-16T06:09:33Z</time>
      </trkpt>
      <trkpt lat="38.1058910" lon="-3.6196890">
        <ele>398.8</ele>
        <time>2018-06-16T06:09:34Z</time>
      </trkpt>
      <trkpt lat="38.1059190" lon="-3.6196480">
        <ele>398.8</ele>
        <time>2018-06-16T06:09:35Z</time>
      </trkpt>
      <trkpt lat="38.1059470" lon="-3.6196080">
        <ele>398.8</ele>
        <time>2018-06-16T06:09:36Z</time>
      </trkpt>
      <trkpt lat="38.1059740" lon="-3.6195690">
        <ele>398.8</ele>
        <time>2018-06-16T06:09:37Z</time>
      </trkpt>
      <trkpt lat="38.1060020" lon="-3.6195300">
        <ele>398.8</ele>
        <time>2018-06-16T06:09:38Z</time>
      </trkpt>
      <trkpt lat="38.1060280" lon="-3.6194920">
        <ele>398.8</ele>
        <time>2018-06-16T06:09:40Z</time>
      </trkpt>
      <trkpt lat="38.1060520" lon="-3.6194520">
        <ele>399.0</ele>
        <time>2018-06-16T06:09:41Z</time>
      </trkpt>
      <trkpt lat="38.1060750" lon="-3.6194130">
        <ele>398.8</ele>
        <time>2018-06-16T06:09:42Z</time>
      </trkpt>
      <trkpt lat="38.1061010" lon="-3.6193730">
        <ele>399.0</ele>
        <time>2018-06-16T06:09:43Z</time>
      </trkpt>
      <trkpt lat="38.1061250" lon="-3.6193350">
        <ele>399.0</ele>
        <time>2018-06-16T06:09:44Z</time>
      </trkpt>
      <trkpt lat="38.1061480" lon="-3.6192980">
        <ele>399.0</ele>
        <time>2018-06-16T06:09:45Z</time>
      </trkpt>
      <trkpt lat="38.1061730" lon="-3.6192650">
        <ele>399.0</ele>
        <time>2018-06-16T06:09:46Z</time>
      </trkpt>
      <trkpt lat="38.1061970" lon="-3.6192290">
        <ele>399.0</ele>
        <time>2018-06-16T06:09:47Z</time>
      </trkpt>
      <trkpt lat="38.1062230" lon="-3.6191910">
        <ele>399.0</ele>
        <time>2018-06-16T06:09:48Z</time>
      </trkpt>
      <trkpt lat="38.1062500" lon="-3.6191510">
        <ele>399.0</ele>
        <time>2018-06-16T06:09:49Z</time>
      </trkpt>
      <trkpt lat="38.1062790" lon="-3.6191090">
        <ele>399.0</ele>
        <time>2018-06-16T06:09:50Z</time>
      </trkpt>
      <trkpt lat="38.1063050" lon="-3.6190640">
        <ele>399.2</ele>
        <time>2018-06-16T06:09:51Z</time>
      </trkpt>
      <trkpt lat="38.1063330" lon="-3.6190190">
        <ele>399.2</ele>
        <time>2018-06-16T06:09:52Z</time>
      </trkpt>
      <trkpt lat="38.1063610" lon="-3.6189760">
        <ele>399.2</ele>
        <time>2018-06-16T06:09:53Z</time>
      </trkpt>
      <trkpt lat="38.1064180" lon="-3.6188870">
        <ele>399.4</ele>
        <time>2018-06-16T06:09:54Z</time>
      </trkpt>
      <trkpt lat="38.1064470" lon="-3.6188430">
        <ele>399.4</ele>
        <time>2018-06-16T06:09:55Z</time>
      </trkpt>
      <trkpt lat="38.1064750" lon="-3.6187990">
        <ele>399.4</ele>
        <time>2018-06-16T06:09:56Z</time>
      </trkpt>
      <trkpt lat="38.1065020" lon="-3.6187550">
        <ele>399.4</ele>
        <time>2018-06-16T06:09:57Z</time>
      </trkpt>
      <trkpt lat="38.1065280" lon="-3.6187120">
        <ele>399.6</ele>
        <time>2018-06-16T06:09:58Z</time>
      </trkpt>
      <trkpt lat="38.1065540" lon="-3.6186700">
        <ele>399.6</ele>
        <time>2018-06-16T06:09:59Z</time>
      </trkpt>
      <trkpt lat="38.1065760" lon="-3.6186290">
        <ele>399.6</ele>
        <time>2018-06-16T06:10:00Z</time>
      </trkpt>
      <trkpt lat="38.1065990" lon="-3.6185850">
        <ele>399.6</ele>
        <time>2018-06-16T06:10:01Z</time>
      </trkpt>
      <trkpt lat="38.1066220" lon="-3.6185400">
        <ele>399.8</ele>
        <time>2018-06-16T06:10:02Z</time>
      </trkpt>
      <trkpt lat="38.1066450" lon="-3.6184960">
        <ele>399.8</ele>
        <time>2018-06-16T06:10:03Z</time>
      </trkpt>
      <trkpt lat="38.1066680" lon="-3.6184500">
        <ele>399.8</ele>
        <time>2018-06-16T06:10:04Z</time>
      </trkpt>
      <trkpt lat="38.1066910" lon="-3.6184060">
        <ele>399.8</ele>
        <time>2018-06-16T06:10:05Z</time>
      </trkpt>
      <trkpt lat="38.1067150" lon="-3.6183600">
        <ele>399.8</ele>
        <time>2018-06-16T06:10:06Z</time>
      </trkpt>
      <trkpt lat="38.1067380" lon="-3.6183150">
        <ele>399.8</ele>
        <time>2018-06-16T06:10:07Z</time>
      </trkpt>
      <trkpt lat="38.1067610" lon="-3.6182700">
        <ele>400.0</ele>
        <time>2018-06-16T06:10:08Z</time>
      </trkpt>
      <trkpt lat="38.1067840" lon="-3.6182230">
        <ele>400.0</ele>
        <time>2018-06-16T06:10:10Z</time>
      </trkpt>
      <trkpt lat="38.1068060" lon="-3.6181770">
        <ele>400.0</ele>
        <time>2018-06-16T06:10:11Z</time>
      </trkpt>
      <trkpt lat="38.1068280" lon="-3.6181320">
        <ele>400.2</ele>
        <time>2018-06-16T06:10:12Z</time>
      </trkpt>
      <trkpt lat="38.1068510" lon="-3.6180880">
        <ele>400.2</ele>
        <time>2018-06-16T06:10:13Z</time>
      </trkpt>
      <trkpt lat="38.1068730" lon="-3.6180440">
        <ele>400.2</ele>
        <time>2018-06-16T06:10:14Z</time>
      </trkpt>
      <trkpt lat="38.1068960" lon="-3.6180000">
        <ele>400.2</ele>
        <time>2018-06-16T06:10:15Z</time>
      </trkpt>
      <trkpt lat="38.1069410" lon="-3.6179100">
        <ele>400.2</ele>
        <time>2018-06-16T06:10:16Z</time>
      </trkpt>
      <trkpt lat="38.1069640" lon="-3.6178640">
        <ele>400.4</ele>
        <time>2018-06-16T06:10:17Z</time>
      </trkpt>
      <trkpt lat="38.1069860" lon="-3.6178190">
        <ele>400.6</ele>
        <time>2018-06-16T06:10:18Z</time>
      </trkpt>
      <trkpt lat="38.1070090" lon="-3.6177750">
        <ele>400.4</ele>
        <time>2018-06-16T06:10:19Z</time>
      </trkpt>
      <trkpt lat="38.1070320" lon="-3.6177310">
        <ele>400.6</ele>
        <time>2018-06-16T06:10:20Z</time>
      </trkpt>
      <trkpt lat="38.1070560" lon="-3.6176850">
        <ele>400.6</ele>
        <time>2018-06-16T06:10:21Z</time>
      </trkpt>
      <trkpt lat="38.1070790" lon="-3.6176400">
        <ele>400.6</ele>
        <time>2018-06-16T06:10:22Z</time>
      </trkpt>
      <trkpt lat="38.1071040" lon="-3.6175930">
        <ele>400.6</ele>
        <time>2018-06-16T06:10:23Z</time>
      </trkpt>
      <trkpt lat="38.1071280" lon="-3.6175460">
        <ele>400.6</ele>
        <time>2018-06-16T06:10:24Z</time>
      </trkpt>
      <trkpt lat="38.1071530" lon="-3.6175000">
        <ele>400.6</ele>
        <time>2018-06-16T06:10:25Z</time>
      </trkpt>
      <trkpt lat="38.1071790" lon="-3.6174520">
        <ele>400.8</ele>
        <time>2018-06-16T06:10:26Z</time>
      </trkpt>
      <trkpt lat="38.1072040" lon="-3.6174030">
        <ele>400.8</ele>
        <time>2018-06-16T06:10:27Z</time>
      </trkpt>
      <trkpt lat="38.1072300" lon="-3.6173520">
        <ele>400.8</ele>
        <time>2018-06-16T06:10:28Z</time>
      </trkpt>
      <trkpt lat="38.1072550" lon="-3.6173010">
        <ele>400.8</ele>
        <time>2018-06-16T06:10:29Z</time>
      </trkpt>
      <trkpt lat="38.1072810" lon="-3.6172500">
        <ele>401.0</ele>
        <time>2018-06-16T06:10:30Z</time>
      </trkpt>
      <trkpt lat="38.1073070" lon="-3.6171990">
        <ele>401.0</ele>
        <time>2018-06-16T06:10:31Z</time>
      </trkpt>
      <trkpt lat="38.1073330" lon="-3.6171480">
        <ele>401.0</ele>
        <time>2018-06-16T06:10:32Z</time>
      </trkpt>
      <trkpt lat="38.1073580" lon="-3.6170950">
        <ele>401.0</ele>
        <time>2018-06-16T06:10:33Z</time>
      </trkpt>
      <trkpt lat="38.1073830" lon="-3.6170430">
        <ele>401.0</ele>
        <time>2018-06-16T06:10:35Z</time>
      </trkpt>
      <trkpt lat="38.1074080" lon="-3.6169890">
        <ele>401.2</ele>
        <time>2018-06-16T06:10:36Z</time>
      </trkpt>
      <trkpt lat="38.1074320" lon="-3.6169360">
        <ele>401.2</ele>
        <time>2018-06-16T06:10:37Z</time>
      </trkpt>
      <trkpt lat="38.1074560" lon="-3.6168830">
        <ele>401.2</ele>
        <time>2018-06-16T06:10:38Z</time>
      </trkpt>
      <trkpt lat="38.1074790" lon="-3.6168290">
        <ele>401.4</ele>
        <time>2018-06-16T06:10:39Z</time>
      </trkpt>
      <trkpt lat="38.1075030" lon="-3.6167740">
        <ele>401.4</ele>
        <time>2018-06-16T06:10:40Z</time>
      </trkpt>
      <trkpt lat="38.1075270" lon="-3.6167200">
        <ele>401.4</ele>
        <time>2018-06-16T06:10:41Z</time>
      </trkpt>
      <trkpt lat="38.1075520" lon="-3.6166670">
        <ele>401.4</ele>
        <time>2018-06-16T06:10:42Z</time>
      </trkpt>
      <trkpt lat="38.1075780" lon="-3.6166140">
        <ele>401.4</ele>
        <time>2018-06-16T06:10:43Z</time>
      </trkpt>
      <trkpt lat="38.1076030" lon="-3.6165610">
        <ele>401.4</ele>
        <time>2018-06-16T06:10:44Z</time>
      </trkpt>
      <trkpt lat="38.1076270" lon="-3.6165070">
        <ele>401.4</ele>
        <time>2018-06-16T06:10:45Z</time>
      </trkpt>
      <trkpt lat="38.1076510" lon="-3.6164520">
        <ele>401.6</ele>
        <time>2018-06-16T06:10:46Z</time>
      </trkpt>
      <trkpt lat="38.1076750" lon="-3.6163970">
        <ele>401.6</ele>
        <time>2018-06-16T06:10:47Z</time>
      </trkpt>
      <trkpt lat="38.1076990" lon="-3.6163420">
        <ele>401.6</ele>
        <time>2018-06-16T06:10:48Z</time>
      </trkpt>
      <trkpt lat="38.1077230" lon="-3.6162870">
        <ele>401.6</ele>
        <time>2018-06-16T06:10:49Z</time>
      </trkpt>
      <trkpt lat="38.1077440" lon="-3.6162320">
        <ele>401.6</ele>
        <time>2018-06-16T06:10:50Z</time>
      </trkpt>
      <trkpt lat="38.1077660" lon="-3.6161760">
        <ele>401.8</ele>
        <time>2018-06-16T06:10:51Z</time>
      </trkpt>
      <trkpt lat="38.1077880" lon="-3.6161190">
        <ele>401.8</ele>
        <time>2018-06-16T06:10:52Z</time>
      </trkpt>
      <trkpt lat="38.1078300" lon="-3.6160040">
        <ele>401.8</ele>
        <time>2018-06-16T06:10:53Z</time>
      </trkpt>
      <trkpt lat="38.1078500" lon="-3.6159460">
        <ele>401.8</ele>
        <time>2018-06-16T06:10:54Z</time>
      </trkpt>
      <trkpt lat="38.1078700" lon="-3.6158880">
        <ele>401.8</ele>
        <time>2018-06-16T06:10:56Z</time>
      </trkpt>
      <trkpt lat="38.1078900" lon="-3.6158280">
        <ele>401.8</ele>
        <time>2018-06-16T06:10:57Z</time>
      </trkpt>
      <trkpt lat="38.1079110" lon="-3.6157690">
        <ele>401.8</ele>
        <time>2018-06-16T06:10:58Z</time>
      </trkpt>
      <trkpt lat="38.1079300" lon="-3.6157090">
        <ele>401.8</ele>
        <time>2018-06-16T06:10:59Z</time>
      </trkpt>
      <trkpt lat="38.1079440" lon="-3.6156490">
        <ele>401.6</ele>
        <time>2018-06-16T06:11:00Z</time>
      </trkpt>
      <trkpt lat="38.1079590" lon="-3.6155900">
        <ele>401.6</ele>
        <time>2018-06-16T06:11:01Z</time>
      </trkpt>
      <trkpt lat="38.1079790" lon="-3.6155290">
        <ele>401.6</ele>
        <time>2018-06-16T06:11:02Z</time>
      </trkpt>
      <trkpt lat="38.1080020" lon="-3.6154670">
        <ele>401.6</ele>
        <time>2018-06-16T06:11:03Z</time>
      </trkpt>
      <trkpt lat="38.1080230" lon="-3.6154030">
        <ele>401.2</ele>
        <time>2018-06-16T06:11:04Z</time>
      </trkpt>
      <trkpt lat="38.1080420" lon="-3.6153370">
        <ele>401.2</ele>
        <time>2018-06-16T06:11:05Z</time>
      </trkpt>
      <trkpt lat="38.1080620" lon="-3.6152670">
        <ele>401.0</ele>
        <time>2018-06-16T06:11:06Z</time>
      </trkpt>
      <trkpt lat="38.1080850" lon="-3.6151950">
        <ele>400.8</ele>
        <time>2018-06-16T06:11:07Z</time>
      </trkpt>
      <trkpt lat="38.1081070" lon="-3.6151220">
        <ele>400.6</ele>
        <time>2018-06-16T06:11:08Z</time>
      </trkpt>
      <trkpt lat="38.1081280" lon="-3.6150480">
        <ele>400.6</ele>
        <time>2018-06-16T06:11:09Z</time>
      </trkpt>
      <trkpt lat="38.1081510" lon="-3.6149730">
        <ele>400.2</ele>
        <time>2018-06-16T06:11:10Z</time>
      </trkpt>
      <trkpt lat="38.1081720" lon="-3.6148950">
        <ele>399.8</ele>
        <time>2018-06-16T06:11:11Z</time>
      </trkpt>
      <trkpt lat="38.1082180" lon="-3.6147320">
        <ele>399.8</ele>
        <time>2018-06-16T06:11:12Z</time>
      </trkpt>
      <trkpt lat="38.1082400" lon="-3.6146490">
        <ele>399.6</ele>
        <time>2018-06-16T06:11:13Z</time>
      </trkpt>
      <trkpt lat="38.1082640" lon="-3.6145640">
        <ele>399.4</ele>
        <time>2018-06-16T06:11:14Z</time>
      </trkpt>
      <trkpt lat="38.1082890" lon="-3.6144770">
        <ele>399.2</ele>
        <time>2018-06-16T06:11:15Z</time>
      </trkpt>
      <trkpt lat="38.1083140" lon="-3.6143880">
        <ele>398.8</ele>
        <time>2018-06-16T06:11:16Z</time>
      </trkpt>
      <trkpt lat="38.1083400" lon="-3.6142980">
        <ele>398.6</ele>
        <time>2018-06-16T06:11:17Z</time>
      </trkpt>
      <trkpt lat="38.1083660" lon="-3.6142060">
        <ele>398.2</ele>
        <time>2018-06-16T06:11:18Z</time>
      </trkpt>
      <trkpt lat="38.1083920" lon="-3.6141120">
        <ele>397.8</ele>
        <time>2018-06-16T06:11:20Z</time>
      </trkpt>
      <trkpt lat="38.1084180" lon="-3.6140160">
        <ele>397.6</ele>
        <time>2018-06-16T06:11:21Z</time>
      </trkpt>
      <trkpt lat="38.1084450" lon="-3.6139190">
        <ele>397.4</ele>
        <time>2018-06-16T06:11:22Z</time>
      </trkpt>
      <trkpt lat="38.1084730" lon="-3.6138200">
        <ele>397.0</ele>
        <time>2018-06-16T06:11:23Z</time>
      </trkpt>
      <trkpt lat="38.1085000" lon="-3.6137190">
        <ele>396.4</ele>
        <time>2018-06-16T06:11:24Z</time>
      </trkpt>
      <trkpt lat="38.1085280" lon="-3.6136160">
        <ele>396.0</ele>
        <time>2018-06-16T06:11:25Z</time>
      </trkpt>
      <trkpt lat="38.1085570" lon="-3.6135120">
        <ele>395.6</ele>
        <time>2018-06-16T06:11:26Z</time>
      </trkpt>
      <trkpt lat="38.1085850" lon="-3.6134050">
        <ele>395.2</ele>
        <time>2018-06-16T06:11:27Z</time>
      </trkpt>
      <trkpt lat="38.1086130" lon="-3.6132970">
        <ele>394.8</ele>
        <time>2018-06-16T06:11:28Z</time>
      </trkpt>
      <trkpt lat="38.1086440" lon="-3.6131880">
        <ele>394.4</ele>
        <time>2018-06-16T06:11:29Z</time>
      </trkpt>
      <trkpt lat="38.1086740" lon="-3.6130760">
        <ele>394.0</ele>
        <time>2018-06-16T06:11:30Z</time>
      </trkpt>
      <trkpt lat="38.1087010" lon="-3.6129610">
        <ele>393.4</ele>
        <time>2018-06-16T06:11:31Z</time>
      </trkpt>
      <trkpt lat="38.1087300" lon="-3.6128440">
        <ele>393.2</ele>
        <time>2018-06-16T06:11:32Z</time>
      </trkpt>
      <trkpt lat="38.1087610" lon="-3.6127260">
        <ele>392.8</ele>
        <time>2018-06-16T06:11:33Z</time>
      </trkpt>
      <trkpt lat="38.1087940" lon="-3.6126060">
        <ele>392.4</ele>
        <time>2018-06-16T06:11:34Z</time>
      </trkpt>
      <trkpt lat="38.1088280" lon="-3.6124850">
        <ele>391.8</ele>
        <time>2018-06-16T06:11:35Z</time>
      </trkpt>
      <trkpt lat="38.1088620" lon="-3.6123630">
        <ele>391.6</ele>
        <time>2018-06-16T06:11:36Z</time>
      </trkpt>
      <trkpt lat="38.1088990" lon="-3.6122400">
        <ele>390.8</ele>
        <time>2018-06-16T06:11:37Z</time>
      </trkpt>
      <trkpt lat="38.1089350" lon="-3.6121160">
        <ele>390.0</ele>
        <time>2018-06-16T06:11:38Z</time>
      </trkpt>
      <trkpt lat="38.1090100" lon="-3.6118740">
        <ele>389.2</ele>
        <time>2018-06-16T06:11:39Z</time>
      </trkpt>
      <trkpt lat="38.1090450" lon="-3.6117530">
        <ele>389.0</ele>
        <time>2018-06-16T06:11:40Z</time>
      </trkpt>
      <trkpt lat="38.1090790" lon="-3.6116330">
        <ele>388.6</ele>
        <time>2018-06-16T06:11:41Z</time>
      </trkpt>
      <trkpt lat="38.1091150" lon="-3.6115150">
        <ele>388.4</ele>
        <time>2018-06-16T06:11:42Z</time>
      </trkpt>
      <trkpt lat="38.1091520" lon="-3.6113990">
        <ele>388.2</ele>
        <time>2018-06-16T06:11:43Z</time>
      </trkpt>
      <trkpt lat="38.1091910" lon="-3.6112850">
        <ele>388.0</ele>
        <time>2018-06-16T06:11:44Z</time>
      </trkpt>
      <trkpt lat="38.1092340" lon="-3.6111750">
        <ele>387.8</ele>
        <time>2018-06-16T06:11:45Z</time>
      </trkpt>
      <trkpt lat="38.1092780" lon="-3.6110720">
        <ele>387.6</ele>
        <time>2018-06-16T06:11:46Z</time>
      </trkpt>
      <trkpt lat="38.1093250" lon="-3.6109690">
        <ele>387.4</ele>
        <time>2018-06-16T06:11:47Z</time>
      </trkpt>
      <trkpt lat="38.1093730" lon="-3.6108690">
        <ele>387.4</ele>
        <time>2018-06-16T06:11:48Z</time>
      </trkpt>
      <trkpt lat="38.1094230" lon="-3.6107710">
        <ele>387.2</ele>
        <time>2018-06-16T06:11:49Z</time>
      </trkpt>
      <trkpt lat="38.1094750" lon="-3.6106760">
        <ele>387.2</ele>
        <time>2018-06-16T06:11:50Z</time>
      </trkpt>
      <trkpt lat="38.1095280" lon="-3.6105840">
        <ele>387.0</ele>
        <time>2018-06-16T06:11:51Z</time>
      </trkpt>
      <trkpt lat="38.1095830" lon="-3.6104940">
        <ele>387.0</ele>
        <time>2018-06-16T06:11:52Z</time>
      </trkpt>
      <trkpt lat="38.1096370" lon="-3.6104090">
        <ele>387.0</ele>
        <time>2018-06-16T06:11:53Z</time>
      </trkpt>
      <trkpt lat="38.1096920" lon="-3.6103240">
        <ele>387.0</ele>
        <time>2018-06-16T06:11:54Z</time>
      </trkpt>
      <trkpt lat="38.1097470" lon="-3.6102410">
        <ele>386.8</ele>
        <time>2018-06-16T06:11:55Z</time>
      </trkpt>
      <trkpt lat="38.1098020" lon="-3.6101610">
        <ele>386.8</ele>
        <time>2018-06-16T06:11:57Z</time>
      </trkpt>
      <trkpt lat="38.1098580" lon="-3.6100830">
        <ele>386.8</ele>
        <time>2018-06-16T06:11:58Z</time>
      </trkpt>
      <trkpt lat="38.1099140" lon="-3.6100070">
        <ele>386.8</ele>
        <time>2018-06-16T06:11:59Z</time>
      </trkpt>
      <trkpt lat="38.1099720" lon="-3.6099350">
        <ele>386.8</ele>
        <time>2018-06-16T06:12:00Z</time>
      </trkpt>
      <trkpt lat="38.1100330" lon="-3.6098670">
        <ele>386.8</ele>
        <time>2018-06-16T06:12:01Z</time>
      </trkpt>
      <trkpt lat="38.1100950" lon="-3.6098030">
        <ele>386.6</ele>
        <time>2018-06-16T06:12:02Z</time>
      </trkpt>
      <trkpt lat="38.1101570" lon="-3.6097410">
        <ele>386.6</ele>
        <time>2018-06-16T06:12:03Z</time>
      </trkpt>
      <trkpt lat="38.1102210" lon="-3.6096800">
        <ele>386.6</ele>
        <time>2018-06-16T06:12:04Z</time>
      </trkpt>
      <trkpt lat="38.1102850" lon="-3.6096220">
        <ele>386.6</ele>
        <time>2018-06-16T06:12:05Z</time>
      </trkpt>
      <trkpt lat="38.1103500" lon="-3.6095670">
        <ele>386.6</ele>
        <time>2018-06-16T06:12:06Z</time>
      </trkpt>
      <trkpt lat="38.1104170" lon="-3.6095150">
        <ele>386.4</ele>
        <time>2018-06-16T06:12:07Z</time>
      </trkpt>
      <trkpt lat="38.1104840" lon="-3.6094640">
        <ele>386.4</ele>
        <time>2018-06-16T06:12:08Z</time>
      </trkpt>
      <trkpt lat="38.1105520" lon="-3.6094160">
        <ele>386.4</ele>
        <time>2018-06-16T06:12:09Z</time>
      </trkpt>
      <trkpt lat="38.1106210" lon="-3.6093710">
        <ele>386.2</ele>
        <time>2018-06-16T06:12:10Z</time>
      </trkpt>
      <trkpt lat="38.1106900" lon="-3.6093270">
        <ele>386.2</ele>
        <time>2018-06-16T06:12:11Z</time>
      </trkpt>
      <trkpt lat="38.1107600" lon="-3.6092840">
        <ele>386.2</ele>
        <time>2018-06-16T06:12:12Z</time>
      </trkpt>
      <trkpt lat="38.1108300" lon="-3.6092420">
        <ele>385.8</ele>
        <time>2018-06-16T06:12:13Z</time>
      </trkpt>
      <trkpt lat="38.1109000" lon="-3.6092010">
        <ele>386.0</ele>
        <time>2018-06-16T06:12:14Z</time>
      </trkpt>
      <trkpt lat="38.1109710" lon="-3.6091620">
        <ele>386.0</ele>
        <time>2018-06-16T06:12:15Z</time>
      </trkpt>
      <trkpt lat="38.1110420" lon="-3.6091240">
        <ele>385.8</ele>
        <time>2018-06-16T06:12:16Z</time>
      </trkpt>
      <trkpt lat="38.1111140" lon="-3.6090860">
        <ele>385.8</ele>
        <time>2018-06-16T06:12:17Z</time>
      </trkpt>
      <trkpt lat="38.1111860" lon="-3.6090490">
        <ele>385.6</ele>
        <time>2018-06-16T06:12:18Z</time>
      </trkpt>
      <trkpt lat="38.1112590" lon="-3.6090110">
        <ele>385.4</ele>
        <time>2018-06-16T06:12:19Z</time>
      </trkpt>
      <trkpt lat="38.1113310" lon="-3.6089750">
        <ele>385.2</ele>
        <time>2018-06-16T06:12:20Z</time>
      </trkpt>
      <trkpt lat="38.1114030" lon="-3.6089370">
        <ele>385.2</ele>
        <time>2018-06-16T06:12:21Z</time>
      </trkpt>
      <trkpt lat="38.1114750" lon="-3.6088980">
        <ele>385.0</ele>
        <time>2018-06-16T06:12:22Z</time>
      </trkpt>
      <trkpt lat="38.1115460" lon="-3.6088570">
        <ele>385.0</ele>
        <time>2018-06-16T06:12:23Z</time>
      </trkpt>
      <trkpt lat="38.1116510" lon="-3.6087940">
        <ele>384.8</ele>
        <time>2018-06-16T06:12:24Z</time>
      </trkpt>
      <trkpt lat="38.1116850" lon="-3.6087710">
        <ele>384.8</ele>
        <time>2018-06-16T06:12:25Z</time>
      </trkpt>
      <trkpt lat="38.1117530" lon="-3.6087250">
        <ele>384.6</ele>
        <time>2018-06-16T06:12:26Z</time>
      </trkpt>
      <trkpt lat="38.1118210" lon="-3.6086780">
        <ele>384.4</ele>
        <time>2018-06-16T06:12:27Z</time>
      </trkpt>
      <trkpt lat="38.1118870" lon="-3.6086290">
        <ele>384.6</ele>
        <time>2018-06-16T06:12:28Z</time>
      </trkpt>
      <trkpt lat="38.1119520" lon="-3.6085770">
        <ele>384.6</ele>
        <time>2018-06-16T06:12:29Z</time>
      </trkpt>
      <trkpt lat="38.1120150" lon="-3.6085220">
        <ele>384.4</ele>
        <time>2018-06-16T06:12:30Z</time>
      </trkpt>
      <trkpt lat="38.1120770" lon="-3.6084660">
        <ele>384.4</ele>
        <time>2018-06-16T06:12:31Z</time>
      </trkpt>
      <trkpt lat="38.1121400" lon="-3.6084080">
        <ele>384.2</ele>
        <time>2018-06-16T06:12:32Z</time>
      </trkpt>
      <trkpt lat="38.1122010" lon="-3.6083500">
        <ele>384.0</ele>
        <time>2018-06-16T06:12:33Z</time>
      </trkpt>
      <trkpt lat="38.1123170" lon="-3.6082220">
        <ele>383.8</ele>
        <time>2018-06-16T06:12:34Z</time>
      </trkpt>
      <trkpt lat="38.1123720" lon="-3.6081560">
        <ele>383.8</ele>
        <time>2018-06-16T06:12:35Z</time>
      </trkpt>
      <trkpt lat="38.1124260" lon="-3.6080860">
        <ele>383.6</ele>
        <time>2018-06-16T06:12:36Z</time>
      </trkpt>
      <trkpt lat="38.1124780" lon="-3.6080140">
        <ele>383.4</ele>
        <time>2018-06-16T06:12:38Z</time>
      </trkpt>
      <trkpt lat="38.1125290" lon="-3.6079400">
        <ele>383.4</ele>
        <time>2018-06-16T06:12:39Z</time>
      </trkpt>
      <trkpt lat="38.1125790" lon="-3.6078660">
        <ele>383.2</ele>
        <time>2018-06-16T06:12:40Z</time>
      </trkpt>
      <trkpt lat="38.1126280" lon="-3.6077910">
        <ele>383.2</ele>
        <time>2018-06-16T06:12:41Z</time>
      </trkpt>
      <trkpt lat="38.1126730" lon="-3.6077130">
        <ele>383.0</ele>
        <time>2018-06-16T06:12:42Z</time>
      </trkpt>
      <trkpt lat="38.1127160" lon="-3.6076320">
        <ele>382.8</ele>
        <time>2018-06-16T06:12:43Z</time>
      </trkpt>
      <trkpt lat="38.1127590" lon="-3.6075510">
        <ele>383.0</ele>
        <time>2018-06-16T06:12:44Z</time>
      </trkpt>
      <trkpt lat="38.1128020" lon="-3.6074700">
        <ele>382.8</ele>
        <time>2018-06-16T06:12:45Z</time>
      </trkpt>
      <trkpt lat="38.1128460" lon="-3.6073900">
        <ele>382.8</ele>
        <time>2018-06-16T06:12:46Z</time>
      </trkpt>
      <trkpt lat="38.1128880" lon="-3.6073090">
        <ele>382.6</ele>
        <time>2018-06-16T06:12:47Z</time>
      </trkpt>
      <trkpt lat="38.1129290" lon="-3.6072280">
        <ele>382.6</ele>
        <time>2018-06-16T06:12:48Z</time>
      </trkpt>
      <trkpt lat="38.1129700" lon="-3.6071470">
        <ele>382.6</ele>
        <time>2018-06-16T06:12:49Z</time>
      </trkpt>
      <trkpt lat="38.1130120" lon="-3.6070680">
        <ele>382.6</ele>
        <time>2018-06-16T06:12:50Z</time>
      </trkpt>
      <trkpt lat="38.1130550" lon="-3.6069890">
        <ele>382.6</ele>
        <time>2018-06-16T06:12:51Z</time>
      </trkpt>
      <trkpt lat="38.1130980" lon="-3.6069110">
        <ele>382.4</ele>
        <time>2018-06-16T06:12:52Z</time>
      </trkpt>
      <trkpt lat="38.1131430" lon="-3.6068340">
        <ele>382.4</ele>
        <time>2018-06-16T06:12:53Z</time>
      </trkpt>
      <trkpt lat="38.1131900" lon="-3.6067600">
        <ele>382.4</ele>
        <time>2018-06-16T06:12:54Z</time>
      </trkpt>
      <trkpt lat="38.1132390" lon="-3.6066880">
        <ele>382.2</ele>
        <time>2018-06-16T06:12:55Z</time>
      </trkpt>
      <trkpt lat="38.1132900" lon="-3.6066170">
        <ele>382.4</ele>
        <time>2018-06-16T06:12:56Z</time>
      </trkpt>
      <trkpt lat="38.1133430" lon="-3.6065480">
        <ele>382.2</ele>
        <time>2018-06-16T06:12:57Z</time>
      </trkpt>
      <trkpt lat="38.1133980" lon="-3.6064810">
        <ele>382.0</ele>
        <time>2018-06-16T06:12:58Z</time>
      </trkpt>
      <trkpt lat="38.1134550" lon="-3.6064120">
        <ele>382.0</ele>
        <time>2018-06-16T06:12:59Z</time>
      </trkpt>
      <trkpt lat="38.1135110" lon="-3.6063440">
        <ele>381.8</ele>
        <time>2018-06-16T06:13:00Z</time>
      </trkpt>
      <trkpt lat="38.1135660" lon="-3.6062750">
        <ele>381.6</ele>
        <time>2018-06-16T06:13:01Z</time>
      </trkpt>
      <trkpt lat="38.1136220" lon="-3.6062020">
        <ele>381.6</ele>
        <time>2018-06-16T06:13:02Z</time>
      </trkpt>
      <trkpt lat="38.1136770" lon="-3.6061250">
        <ele>381.2</ele>
        <time>2018-06-16T06:13:03Z</time>
      </trkpt>
      <trkpt lat="38.1137270" lon="-3.6060450">
        <ele>381.0</ele>
        <time>2018-06-16T06:13:04Z</time>
      </trkpt>
      <trkpt lat="38.1137760" lon="-3.6059610">
        <ele>380.6</ele>
        <time>2018-06-16T06:13:05Z</time>
      </trkpt>
      <trkpt lat="38.1138220" lon="-3.6058730">
        <ele>380.4</ele>
        <time>2018-06-16T06:13:06Z</time>
      </trkpt>
      <trkpt lat="38.1138660" lon="-3.6057810">
        <ele>380.2</ele>
        <time>2018-06-16T06:13:07Z</time>
      </trkpt>
      <trkpt lat="38.1139050" lon="-3.6056860">
        <ele>380.2</ele>
        <time>2018-06-16T06:13:08Z</time>
      </trkpt>
      <trkpt lat="38.1139430" lon="-3.6055880">
        <ele>379.8</ele>
        <time>2018-06-16T06:13:09Z</time>
      </trkpt>
      <trkpt lat="38.1140180" lon="-3.6053890">
        <ele>379.4</ele>
        <time>2018-06-16T06:13:10Z</time>
      </trkpt>
      <trkpt lat="38.1140560" lon="-3.6052880">
        <ele>379.0</ele>
        <time>2018-06-16T06:13:11Z</time>
      </trkpt>
      <trkpt lat="38.1140950" lon="-3.6051860">
        <ele>378.6</ele>
        <time>2018-06-16T06:13:13Z</time>
      </trkpt>
      <trkpt lat="38.1141340" lon="-3.6050820">
        <ele>378.4</ele>
        <time>2018-06-16T06:13:14Z</time>
      </trkpt>
      <trkpt lat="38.1141740" lon="-3.6049780">
        <ele>378.2</ele>
        <time>2018-06-16T06:13:15Z</time>
      </trkpt>
      <trkpt lat="38.1142140" lon="-3.6048740">
        <ele>378.2</ele>
        <time>2018-06-16T06:13:16Z</time>
      </trkpt>
      <trkpt lat="38.1142560" lon="-3.6047650">
        <ele>377.4</ele>
        <time>2018-06-16T06:13:17Z</time>
      </trkpt>
      <trkpt lat="38.1142960" lon="-3.6046580">
        <ele>377.2</ele>
        <time>2018-06-16T06:13:18Z</time>
      </trkpt>
      <trkpt lat="38.1143360" lon="-3.6045510">
        <ele>377.0</ele>
        <time>2018-06-16T06:13:19Z</time>
      </trkpt>
      <trkpt lat="38.1143770" lon="-3.6044440">
        <ele>376.8</ele>
        <time>2018-06-16T06:13:20Z</time>
      </trkpt>
      <trkpt lat="38.1144190" lon="-3.6043370">
        <ele>376.6</ele>
        <time>2018-06-16T06:13:21Z</time>
      </trkpt>
      <trkpt lat="38.1144620" lon="-3.6042300">
        <ele>376.2</ele>
        <time>2018-06-16T06:13:22Z</time>
      </trkpt>
      <trkpt lat="38.1145070" lon="-3.6041230">
        <ele>376.2</ele>
        <time>2018-06-16T06:13:23Z</time>
      </trkpt>
      <trkpt lat="38.1145570" lon="-3.6040180">
        <ele>375.8</ele>
        <time>2018-06-16T06:13:24Z</time>
      </trkpt>
      <trkpt lat="38.1146110" lon="-3.6039160">
        <ele>375.4</ele>
        <time>2018-06-16T06:13:25Z</time>
      </trkpt>
      <trkpt lat="38.1146720" lon="-3.6038190">
        <ele>375.0</ele>
        <time>2018-06-16T06:13:26Z</time>
      </trkpt>
      <trkpt lat="38.1147390" lon="-3.6037280">
        <ele>374.8</ele>
        <time>2018-06-16T06:13:27Z</time>
      </trkpt>
      <trkpt lat="38.1148120" lon="-3.6036440">
        <ele>374.4</ele>
        <time>2018-06-16T06:13:28Z</time>
      </trkpt>
      <trkpt lat="38.1148900" lon="-3.6035680">
        <ele>374.2</ele>
        <time>2018-06-16T06:13:29Z</time>
      </trkpt>
      <trkpt lat="38.1149730" lon="-3.6035020">
        <ele>373.8</ele>
        <time>2018-06-16T06:13:30Z</time>
      </trkpt>
      <trkpt lat="38.1150600" lon="-3.6034420">
        <ele>374.0</ele>
        <time>2018-06-16T06:13:31Z</time>
      </trkpt>
      <trkpt lat="38.1151480" lon="-3.6033930">
        <ele>373.8</ele>
        <time>2018-06-16T06:13:32Z</time>
      </trkpt>
      <trkpt lat="38.1152390" lon="-3.6033510">
        <ele>374.0</ele>
        <time>2018-06-16T06:13:33Z</time>
      </trkpt>
      <trkpt lat="38.1153260" lon="-3.6033150">
        <ele>373.8</ele>
        <time>2018-06-16T06:13:34Z</time>
      </trkpt>
      <trkpt lat="38.1154150" lon="-3.6032830">
        <ele>373.8</ele>
        <time>2018-06-16T06:13:35Z</time>
      </trkpt>
      <trkpt lat="38.1155010" lon="-3.6032540">
        <ele>373.8</ele>
        <time>2018-06-16T06:13:36Z</time>
      </trkpt>
      <trkpt lat="38.1155890" lon="-3.6032300">
        <ele>373.8</ele>
        <time>2018-06-16T06:13:37Z</time>
      </trkpt>
      <trkpt lat="38.1156710" lon="-3.6032210">
        <ele>373.8</ele>
        <time>2018-06-16T06:13:38Z</time>
      </trkpt>
      <trkpt lat="38.1158170" lon="-3.6031800">
        <ele>373.8</ele>
        <time>2018-06-16T06:13:39Z</time>
      </trkpt>
      <trkpt lat="38.1158840" lon="-3.6031600">
        <ele>373.8</ele>
        <time>2018-06-16T06:13:40Z</time>
      </trkpt>
      <trkpt lat="38.1159500" lon="-3.6031390">
        <ele>374.0</ele>
        <time>2018-06-16T06:13:41Z</time>
      </trkpt>
      <trkpt lat="38.1160160" lon="-3.6031190">
        <ele>374.2</ele>
        <time>2018-06-16T06:13:42Z</time>
      </trkpt>
      <trkpt lat="38.1160970" lon="-3.6030900">
        <ele>374.4</ele>
        <time>2018-06-16T06:13:43Z</time>
      </trkpt>
      <trkpt lat="38.1161780" lon="-3.6030530">
        <ele>374.6</ele>
        <time>2018-06-16T06:13:44Z</time>
      </trkpt>
      <trkpt lat="38.1162540" lon="-3.6030150">
        <ele>375.2</ele>
        <time>2018-06-16T06:13:45Z</time>
      </trkpt>
      <trkpt lat="38.1163260" lon="-3.6029740">
        <ele>375.6</ele>
        <time>2018-06-16T06:13:46Z</time>
      </trkpt>
      <trkpt lat="38.1163990" lon="-3.6029290">
        <ele>375.8</ele>
        <time>2018-06-16T06:13:47Z</time>
      </trkpt>
      <trkpt lat="38.1164630" lon="-3.6028880">
        <ele>376.2</ele>
        <time>2018-06-16T06:13:48Z</time>
      </trkpt>
      <trkpt lat="38.1165240" lon="-3.6028440">
        <ele>376.8</ele>
        <time>2018-06-16T06:13:49Z</time>
      </trkpt>
      <trkpt lat="38.1165800" lon="-3.6028010">
        <ele>377.0</ele>
        <time>2018-06-16T06:13:50Z</time>
      </trkpt>
      <trkpt lat="38.1166370" lon="-3.6027600">
        <ele>377.2</ele>
        <time>2018-06-16T06:13:51Z</time>
      </trkpt>
      <trkpt lat="38.1166880" lon="-3.6027170">
        <ele>377.8</ele>
        <time>2018-06-16T06:13:52Z</time>
      </trkpt>
      <trkpt lat="38.1167370" lon="-3.6026750">
        <ele>378.0</ele>
        <time>2018-06-16T06:13:53Z</time>
      </trkpt>
      <trkpt lat="38.1167870" lon="-3.6026350">
        <ele>378.4</ele>
        <time>2018-06-16T06:13:54Z</time>
      </trkpt>
      <trkpt lat="38.1168340" lon="-3.6025930">
        <ele>378.6</ele>
        <time>2018-06-16T06:13:55Z</time>
      </trkpt>
      <trkpt lat="38.1168820" lon="-3.6025520">
        <ele>379.0</ele>
        <time>2018-06-16T06:13:56Z</time>
      </trkpt>
      <trkpt lat="38.1169310" lon="-3.6025110">
        <ele>379.0</ele>
        <time>2018-06-16T06:13:57Z</time>
      </trkpt>
      <trkpt lat="38.1169810" lon="-3.6024730">
        <ele>379.2</ele>
        <time>2018-06-16T06:13:58Z</time>
      </trkpt>
      <trkpt lat="38.1170310" lon="-3.6024370">
        <ele>379.4</ele>
        <time>2018-06-16T06:13:59Z</time>
      </trkpt>
      <trkpt lat="38.1170830" lon="-3.6024010">
        <ele>379.4</ele>
        <time>2018-06-16T06:14:00Z</time>
      </trkpt>
      <trkpt lat="38.1171360" lon="-3.6023670">
        <ele>379.8</ele>
        <time>2018-06-16T06:14:01Z</time>
      </trkpt>
      <trkpt lat="38.1171870" lon="-3.6023380">
        <ele>379.8</ele>
        <time>2018-06-16T06:14:02Z</time>
      </trkpt>
      <trkpt lat="38.1172380" lon="-3.6023110">
        <ele>380.2</ele>
        <time>2018-06-16T06:14:03Z</time>
      </trkpt>
      <trkpt lat="38.1172900" lon="-3.6022860">
        <ele>380.4</ele>
        <time>2018-06-16T06:14:04Z</time>
      </trkpt>
      <trkpt lat="38.1173430" lon="-3.6022670">
        <ele>380.6</ele>
        <time>2018-06-16T06:14:05Z</time>
      </trkpt>
      <trkpt lat="38.1173860" lon="-3.6022530">
        <ele>380.8</ele>
        <time>2018-06-16T06:14:06Z</time>
      </trkpt>
      <trkpt lat="38.1174160" lon="-3.6022420">
        <ele>381.2</ele>
        <time>2018-06-16T06:14:07Z</time>
      </trkpt>
      <trkpt lat="38.1174700" lon="-3.6022230">
        <ele>381.4</ele>
        <time>2018-06-16T06:14:08Z</time>
      </trkpt>
      <trkpt lat="38.1175240" lon="-3.6022090">
        <ele>381.8</ele>
        <time>2018-06-16T06:14:09Z</time>
      </trkpt>
      <trkpt lat="38.1175760" lon="-3.6021960">
        <ele>382.0</ele>
        <time>2018-06-16T06:14:10Z</time>
      </trkpt>
      <trkpt lat="38.1176270" lon="-3.6021820">
        <ele>382.4</ele>
        <time>2018-06-16T06:14:11Z</time>
      </trkpt>
      <trkpt lat="38.1176770" lon="-3.6021680">
        <ele>382.6</ele>
        <time>2018-06-16T06:14:12Z</time>
      </trkpt>
      <trkpt lat="38.1177270" lon="-3.6021520">
        <ele>382.8</ele>
        <time>2018-06-16T06:14:13Z</time>
      </trkpt>
      <trkpt lat="38.1177740" lon="-3.6021360">
        <ele>383.2</ele>
        <time>2018-06-16T06:14:14Z</time>
      </trkpt>
      <trkpt lat="38.1178190" lon="-3.6021200">
        <ele>383.2</ele>
        <time>2018-06-16T06:14:15Z</time>
      </trkpt>
      <trkpt lat="38.1178640" lon="-3.6021020">
        <ele>383.2</ele>
        <time>2018-06-16T06:14:16Z</time>
      </trkpt>
      <trkpt lat="38.1179080" lon="-3.6020810">
        <ele>383.2</ele>
        <time>2018-06-16T06:14:17Z</time>
      </trkpt>
      <trkpt lat="38.1179520" lon="-3.6020560">
        <ele>383.2</ele>
        <time>2018-06-16T06:14:18Z</time>
      </trkpt>
      <trkpt lat="38.1179940" lon="-3.6020260">
        <ele>383.2</ele>
        <time>2018-06-16T06:14:19Z</time>
      </trkpt>
      <trkpt lat="38.1180350" lon="-3.6019930">
        <ele>383.0</ele>
        <time>2018-06-16T06:14:20Z</time>
      </trkpt>
      <trkpt lat="38.1180760" lon="-3.6019570">
        <ele>383.0</ele>
        <time>2018-06-16T06:14:21Z</time>
      </trkpt>
      <trkpt lat="38.1181180" lon="-3.6019220">
        <ele>383.0</ele>
        <time>2018-06-16T06:14:22Z</time>
      </trkpt>
      <trkpt lat="38.1181620" lon="-3.6018920">
        <ele>383.0</ele>
        <time>2018-06-16T06:14:23Z</time>
      </trkpt>
      <trkpt lat="38.1182090" lon="-3.6018690">
        <ele>382.8</ele>
        <time>2018-06-16T06:14:24Z</time>
      </trkpt>
      <trkpt lat="38.1182590" lon="-3.6018540">
        <ele>382.8</ele>
        <time>2018-06-16T06:14:25Z</time>
      </trkpt>
      <trkpt lat="38.1183090" lon="-3.6018480">
        <ele>382.8</ele>
        <time>2018-06-16T06:14:26Z</time>
      </trkpt>
      <trkpt lat="38.1183600" lon="-3.6018500">
        <ele>382.8</ele>
        <time>2018-06-16T06:14:27Z</time>
      </trkpt>
      <trkpt lat="38.1184110" lon="-3.6018650">
        <ele>383.0</ele>
        <time>2018-06-16T06:14:28Z</time>
      </trkpt>
      <trkpt lat="38.1184580" lon="-3.6018850">
        <ele>383.0</ele>
        <time>2018-06-16T06:14:29Z</time>
      </trkpt>
      <trkpt lat="38.1185020" lon="-3.6019110">
        <ele>383.2</ele>
        <time>2018-06-16T06:14:30Z</time>
      </trkpt>
      <trkpt lat="38.1185450" lon="-3.6019440">
        <ele>383.2</ele>
        <time>2018-06-16T06:14:31Z</time>
      </trkpt>
      <trkpt lat="38.1185840" lon="-3.6019810">
        <ele>383.4</ele>
        <time>2018-06-16T06:14:32Z</time>
      </trkpt>
      <trkpt lat="38.1186170" lon="-3.6020220">
        <ele>383.4</ele>
        <time>2018-06-16T06:14:33Z</time>
      </trkpt>
      <trkpt lat="38.1186440" lon="-3.6020670">
        <ele>383.6</ele>
        <time>2018-06-16T06:14:34Z</time>
      </trkpt>
      <trkpt lat="38.1186690" lon="-3.6021130">
        <ele>383.6</ele>
        <time>2018-06-16T06:14:35Z</time>
      </trkpt>
      <trkpt lat="38.1186940" lon="-3.6021590">
        <ele>383.8</ele>
        <time>2018-06-16T06:14:36Z</time>
      </trkpt>
      <trkpt lat="38.1187240" lon="-3.6022000">
        <ele>384.0</ele>
        <time>2018-06-16T06:14:37Z</time>
      </trkpt>
      <trkpt lat="38.1187570" lon="-3.6022340">
        <ele>384.2</ele>
        <time>2018-06-16T06:14:38Z</time>
      </trkpt>
      <trkpt lat="38.1188120" lon="-3.6022690">
        <ele>384.4</ele>
        <time>2018-06-16T06:14:39Z</time>
      </trkpt>
      <trkpt lat="38.1188310" lon="-3.6022790">
        <ele>384.6</ele>
        <time>2018-06-16T06:14:40Z</time>
      </trkpt>
      <trkpt lat="38.1188710" lon="-3.6022910">
        <ele>385.0</ele>
        <time>2018-06-16T06:14:41Z</time>
      </trkpt>
      <trkpt lat="38.1189100" lon="-3.6022990">
        <ele>385.2</ele>
        <time>2018-06-16T06:14:42Z</time>
      </trkpt>
      <trkpt lat="38.1189470" lon="-3.6023020">
        <ele>385.4</ele>
        <time>2018-06-16T06:14:43Z</time>
      </trkpt>
      <trkpt lat="38.1189860" lon="-3.6023030">
        <ele>385.8</ele>
        <time>2018-06-16T06:14:44Z</time>
      </trkpt>
      <trkpt lat="38.1190240" lon="-3.6023030">
        <ele>385.8</ele>
        <time>2018-06-16T06:14:45Z</time>
      </trkpt>
      <trkpt lat="38.1190600" lon="-3.6023010">
        <ele>386.2</ele>
        <time>2018-06-16T06:14:46Z</time>
      </trkpt>
      <trkpt lat="38.1190950" lon="-3.6022990">
        <ele>386.4</ele>
        <time>2018-06-16T06:14:47Z</time>
      </trkpt>
      <trkpt lat="38.1191290" lon="-3.6022940">
        <ele>386.6</ele>
        <time>2018-06-16T06:14:48Z</time>
      </trkpt>
      <trkpt lat="38.1191620" lon="-3.6022850">
        <ele>386.8</ele>
        <time>2018-06-16T06:14:49Z</time>
      </trkpt>
      <trkpt lat="38.1191940" lon="-3.6022740">
        <ele>387.2</ele>
        <time>2018-06-16T06:14:50Z</time>
      </trkpt>
      <trkpt lat="38.1192250" lon="-3.6022630">
        <ele>387.4</ele>
        <time>2018-06-16T06:14:51Z</time>
      </trkpt>
      <trkpt lat="38.1192560" lon="-3.6022530">
        <ele>387.8</ele>
        <time>2018-06-16T06:14:52Z</time>
      </trkpt>
      <trkpt lat="38.1192870" lon="-3.6022410">
        <ele>388.2</ele>
        <time>2018-06-16T06:14:53Z</time>
      </trkpt>
      <trkpt lat="38.1193160" lon="-3.6022280">
        <ele>388.4</ele>
        <time>2018-06-16T06:14:54Z</time>
      </trkpt>
      <trkpt lat="38.1193460" lon="-3.6022160">
        <ele>388.6</ele>
        <time>2018-06-16T06:14:55Z</time>
      </trkpt>
      <trkpt lat="38.1193770" lon="-3.6022050">
        <ele>388.8</ele>
        <time>2018-06-16T06:14:56Z</time>
      </trkpt>
      <trkpt lat="38.1194090" lon="-3.6021950">
        <ele>389.0</ele>
        <time>2018-06-16T06:14:57Z</time>
      </trkpt>
      <trkpt lat="38.1194410" lon="-3.6021880">
        <ele>389.0</ele>
        <time>2018-06-16T06:14:58Z</time>
      </trkpt>
      <trkpt lat="38.1194750" lon="-3.6021830">
        <ele>389.2</ele>
        <time>2018-06-16T06:14:59Z</time>
      </trkpt>
      <trkpt lat="38.1195090" lon="-3.6021790">
        <ele>389.2</ele>
        <time>2018-06-16T06:15:00Z</time>
      </trkpt>
      <trkpt lat="38.1195440" lon="-3.6021770">
        <ele>389.2</ele>
        <time>2018-06-16T06:15:01Z</time>
      </trkpt>
      <trkpt lat="38.1195820" lon="-3.6021750">
        <ele>389.2</ele>
        <time>2018-06-16T06:15:02Z</time>
      </trkpt>
      <trkpt lat="38.1196190" lon="-3.6021770">
        <ele>389.2</ele>
        <time>2018-06-16T06:15:03Z</time>
      </trkpt>
      <trkpt lat="38.1196560" lon="-3.6021800">
        <ele>389.4</ele>
        <time>2018-06-16T06:15:04Z</time>
      </trkpt>
      <trkpt lat="38.1196930" lon="-3.6021840">
        <ele>389.4</ele>
        <time>2018-06-16T06:15:05Z</time>
      </trkpt>
      <trkpt lat="38.1197290" lon="-3.6021900">
        <ele>389.6</ele>
        <time>2018-06-16T06:15:06Z</time>
      </trkpt>
      <trkpt lat="38.1197650" lon="-3.6021970">
        <ele>389.6</ele>
        <time>2018-06-16T06:15:07Z</time>
      </trkpt>
      <trkpt lat="38.1198010" lon="-3.6022030">
        <ele>389.6</ele>
        <time>2018-06-16T06:15:08Z</time>
      </trkpt>
      <trkpt lat="38.1198380" lon="-3.6022080">
        <ele>389.8</ele>
        <time>2018-06-16T06:15:09Z</time>
      </trkpt>
      <trkpt lat="38.1198750" lon="-3.6022140">
        <ele>390.0</ele>
        <time>2018-06-16T06:15:10Z</time>
      </trkpt>
      <trkpt lat="38.1199120" lon="-3.6022180">
        <ele>390.2</ele>
        <time>2018-06-16T06:15:11Z</time>
      </trkpt>
      <trkpt lat="38.1199480" lon="-3.6022230">
        <ele>390.4</ele>
        <time>2018-06-16T06:15:12Z</time>
      </trkpt>
      <trkpt lat="38.1199850" lon="-3.6022290">
        <ele>390.4</ele>
        <time>2018-06-16T06:15:13Z</time>
      </trkpt>
      <trkpt lat="38.1200220" lon="-3.6022330">
        <ele>390.6</ele>
        <time>2018-06-16T06:15:14Z</time>
      </trkpt>
      <trkpt lat="38.1200600" lon="-3.6022380">
        <ele>390.8</ele>
        <time>2018-06-16T06:15:15Z</time>
      </trkpt>
      <trkpt lat="38.1200980" lon="-3.6022420">
        <ele>390.8</ele>
        <time>2018-06-16T06:15:16Z</time>
      </trkpt>
      <trkpt lat="38.1201360" lon="-3.6022460">
        <ele>391.0</ele>
        <time>2018-06-16T06:15:17Z</time>
      </trkpt>
      <trkpt lat="38.1201740" lon="-3.6022510">
        <ele>391.2</ele>
        <time>2018-06-16T06:15:18Z</time>
      </trkpt>
      <trkpt lat="38.1202120" lon="-3.6022550">
        <ele>391.2</ele>
        <time>2018-06-16T06:15:19Z</time>
      </trkpt>
      <trkpt lat="38.1202510" lon="-3.6022590">
        <ele>391.4</ele>
        <time>2018-06-16T06:15:20Z</time>
      </trkpt>
      <trkpt lat="38.1202890" lon="-3.6022630">
        <ele>391.6</ele>
        <time>2018-06-16T06:15:21Z</time>
      </trkpt>
      <trkpt lat="38.1203270" lon="-3.6022660">
        <ele>391.6</ele>
        <time>2018-06-16T06:15:22Z</time>
      </trkpt>
      <trkpt lat="38.1203660" lon="-3.6022660">
        <ele>391.8</ele>
        <time>2018-06-16T06:15:23Z</time>
      </trkpt>
      <trkpt lat="38.1204050" lon="-3.6022640">
        <ele>391.8</ele>
        <time>2018-06-16T06:15:24Z</time>
      </trkpt>
      <trkpt lat="38.1204440" lon="-3.6022590">
        <ele>392.0</ele>
        <time>2018-06-16T06:15:25Z</time>
      </trkpt>
      <trkpt lat="38.1204820" lon="-3.6022500">
        <ele>392.2</ele>
        <time>2018-06-16T06:15:26Z</time>
      </trkpt>
      <trkpt lat="38.1205190" lon="-3.6022380">
        <ele>392.4</ele>
        <time>2018-06-16T06:15:27Z</time>
      </trkpt>
      <trkpt lat="38.1205550" lon="-3.6022250">
        <ele>392.6</ele>
        <time>2018-06-16T06:15:28Z</time>
      </trkpt>
      <trkpt lat="38.1205900" lon="-3.6022070">
        <ele>392.8</ele>
        <time>2018-06-16T06:15:29Z</time>
      </trkpt>
      <trkpt lat="38.1206230" lon="-3.6021870">
        <ele>393.0</ele>
        <time>2018-06-16T06:15:30Z</time>
      </trkpt>
      <trkpt lat="38.1206530" lon="-3.6021630">
        <ele>393.2</ele>
        <time>2018-06-16T06:15:31Z</time>
      </trkpt>
      <trkpt lat="38.1206830" lon="-3.6021390">
        <ele>393.6</ele>
        <time>2018-06-16T06:15:32Z</time>
      </trkpt>
      <trkpt lat="38.1207120" lon="-3.6021150">
        <ele>393.6</ele>
        <time>2018-06-16T06:15:33Z</time>
      </trkpt>
      <trkpt lat="38.1207410" lon="-3.6020900">
        <ele>393.8</ele>
        <time>2018-06-16T06:15:34Z</time>
      </trkpt>
      <trkpt lat="38.1207690" lon="-3.6020660">
        <ele>394.0</ele>
        <time>2018-06-16T06:15:35Z</time>
      </trkpt>
      <trkpt lat="38.1207970" lon="-3.6020400">
        <ele>394.2</ele>
        <time>2018-06-16T06:15:36Z</time>
      </trkpt>
      <trkpt lat="38.1208240" lon="-3.6020130">
        <ele>394.4</ele>
        <time>2018-06-16T06:15:37Z</time>
      </trkpt>
      <trkpt lat="38.1208520" lon="-3.6019880">
        <ele>394.6</ele>
        <time>2018-06-16T06:15:38Z</time>
      </trkpt>
      <trkpt lat="38.1208790" lon="-3.6019620">
        <ele>394.6</ele>
        <time>2018-06-16T06:15:39Z</time>
      </trkpt>
      <trkpt lat="38.1209060" lon="-3.6019350">
        <ele>394.8</ele>
        <time>2018-06-16T06:15:40Z</time>
      </trkpt>
      <trkpt lat="38.1209330" lon="-3.6019080">
        <ele>395.0</ele>
        <time>2018-06-16T06:15:41Z</time>
      </trkpt>
      <trkpt lat="38.1209600" lon="-3.6018800">
        <ele>395.2</ele>
        <time>2018-06-16T06:15:42Z</time>
      </trkpt>
      <trkpt lat="38.1209860" lon="-3.6018510">
        <ele>395.4</ele>
        <time>2018-06-16T06:15:43Z</time>
      </trkpt>
      <trkpt lat="38.1210090" lon="-3.6018190">
        <ele>395.6</ele>
        <time>2018-06-16T06:15:44Z</time>
      </trkpt>
      <trkpt lat="38.1210310" lon="-3.6017850">
        <ele>395.8</ele>
        <time>2018-06-16T06:15:45Z</time>
      </trkpt>
      <trkpt lat="38.1210510" lon="-3.6017490">
        <ele>396.0</ele>
        <time>2018-06-16T06:15:46Z</time>
      </trkpt>
      <trkpt lat="38.1210690" lon="-3.6017110">
        <ele>396.2</ele>
        <time>2018-06-16T06:15:47Z</time>
      </trkpt>
      <trkpt lat="38.1210850" lon="-3.6016720">
        <ele>396.4</ele>
        <time>2018-06-16T06:15:48Z</time>
      </trkpt>
      <trkpt lat="38.1210990" lon="-3.6016310">
        <ele>396.6</ele>
        <time>2018-06-16T06:15:49Z</time>
      </trkpt>
      <trkpt lat="38.1211110" lon="-3.6015890">
        <ele>396.8</ele>
        <time>2018-06-16T06:15:50Z</time>
      </trkpt>
      <trkpt lat="38.1211220" lon="-3.6015470">
        <ele>397.0</ele>
        <time>2018-06-16T06:15:51Z</time>
      </trkpt>
      <trkpt lat="38.1211320" lon="-3.6015050">
        <ele>397.0</ele>
        <time>2018-06-16T06:15:52Z</time>
      </trkpt>
      <trkpt lat="38.1211420" lon="-3.6014630">
        <ele>397.2</ele>
        <time>2018-06-16T06:15:53Z</time>
      </trkpt>
      <trkpt lat="38.1211520" lon="-3.6014200">
        <ele>397.4</ele>
        <time>2018-06-16T06:15:54Z</time>
      </trkpt>
      <trkpt lat="38.1211630" lon="-3.6013780">
        <ele>397.6</ele>
        <time>2018-06-16T06:15:55Z</time>
      </trkpt>
      <trkpt lat="38.1211750" lon="-3.6013360">
        <ele>397.6</ele>
        <time>2018-06-16T06:15:56Z</time>
      </trkpt>
      <trkpt lat="38.1211890" lon="-3.6012960">
        <ele>397.6</ele>
        <time>2018-06-16T06:15:57Z</time>
      </trkpt>
      <trkpt lat="38.1212040" lon="-3.6012560">
        <ele>397.8</ele>
        <time>2018-06-16T06:15:58Z</time>
      </trkpt>
      <trkpt lat="38.1212220" lon="-3.6012170">
        <ele>397.8</ele>
        <time>2018-06-16T06:15:59Z</time>
      </trkpt>
      <trkpt lat="38.1212390" lon="-3.6011760">
        <ele>397.8</ele>
        <time>2018-06-16T06:16:00Z</time>
      </trkpt>
      <trkpt lat="38.1212590" lon="-3.6011360">
        <ele>397.8</ele>
        <time>2018-06-16T06:16:01Z</time>
      </trkpt>
      <trkpt lat="38.1212820" lon="-3.6010950">
        <ele>398.0</ele>
        <time>2018-06-16T06:16:02Z</time>
      </trkpt>
      <trkpt lat="38.1213060" lon="-3.6010540">
        <ele>398.0</ele>
        <time>2018-06-16T06:16:03Z</time>
      </trkpt>
      <trkpt lat="38.1213310" lon="-3.6010130">
        <ele>398.0</ele>
        <time>2018-06-16T06:16:04Z</time>
      </trkpt>
      <trkpt lat="38.1213580" lon="-3.6009720">
        <ele>398.0</ele>
        <time>2018-06-16T06:16:05Z</time>
      </trkpt>
      <trkpt lat="38.1213860" lon="-3.6009330">
        <ele>398.2</ele>
        <time>2018-06-16T06:16:06Z</time>
      </trkpt>
      <trkpt lat="38.1214150" lon="-3.6008930">
        <ele>398.2</ele>
        <time>2018-06-16T06:16:07Z</time>
      </trkpt>
      <trkpt lat="38.1214460" lon="-3.6008550">
        <ele>398.2</ele>
        <time>2018-06-16T06:16:08Z</time>
      </trkpt>
      <trkpt lat="38.1214760" lon="-3.6008160">
        <ele>398.4</ele>
        <time>2018-06-16T06:16:09Z</time>
      </trkpt>
      <trkpt lat="38.1215070" lon="-3.6007780">
        <ele>398.4</ele>
        <time>2018-06-16T06:16:10Z</time>
      </trkpt>
      <trkpt lat="38.1215390" lon="-3.6007410">
        <ele>398.6</ele>
        <time>2018-06-16T06:16:11Z</time>
      </trkpt>
      <trkpt lat="38.1215720" lon="-3.6007030">
        <ele>398.6</ele>
        <time>2018-06-16T06:16:12Z</time>
      </trkpt>
      <trkpt lat="38.1216040" lon="-3.6006650">
        <ele>398.8</ele>
        <time>2018-06-16T06:16:13Z</time>
      </trkpt>
      <trkpt lat="38.1216360" lon="-3.6006270">
        <ele>398.8</ele>
        <time>2018-06-16T06:16:14Z</time>
      </trkpt>
      <trkpt lat="38.1216680" lon="-3.6005890">
        <ele>399.0</ele>
        <time>2018-06-16T06:16:15Z</time>
      </trkpt>
      <trkpt lat="38.1217000" lon="-3.6005500">
        <ele>399.0</ele>
        <time>2018-06-16T06:16:16Z</time>
      </trkpt>
      <trkpt lat="38.1217330" lon="-3.6005120">
        <ele>399.2</ele>
        <time>2018-06-16T06:16:17Z</time>
      </trkpt>
      <trkpt lat="38.1217670" lon="-3.6004760">
        <ele>399.2</ele>
        <time>2018-06-16T06:16:18Z</time>
      </trkpt>
      <trkpt lat="38.1218010" lon="-3.6004410">
        <ele>399.2</ele>
        <time>2018-06-16T06:16:19Z</time>
      </trkpt>
      <trkpt lat="38.1218360" lon="-3.6004070">
        <ele>399.4</ele>
        <time>2018-06-16T06:16:20Z</time>
      </trkpt>
      <trkpt lat="38.1218720" lon="-3.6003740">
        <ele>399.6</ele>
        <time>2018-06-16T06:16:21Z</time>
      </trkpt>
      <trkpt lat="38.1219090" lon="-3.6003440">
        <ele>399.6</ele>
        <time>2018-06-16T06:16:22Z</time>
      </trkpt>
      <trkpt lat="38.1219480" lon="-3.6003160">
        <ele>399.6</ele>
        <time>2018-06-16T06:16:23Z</time>
      </trkpt>
      <trkpt lat="38.1219870" lon="-3.6002900">
        <ele>399.6</ele>
        <time>2018-06-16T06:16:24Z</time>
      </trkpt>
      <trkpt lat="38.1220270" lon="-3.6002670">
        <ele>400.0</ele>
        <time>2018-06-16T06:16:25Z</time>
      </trkpt>
      <trkpt lat="38.1220690" lon="-3.6002460">
        <ele>400.0</ele>
        <time>2018-06-16T06:16:26Z</time>
      </trkpt>
      <trkpt lat="38.1221100" lon="-3.6002280">
        <ele>400.0</ele>
        <time>2018-06-16T06:16:27Z</time>
      </trkpt>
      <trkpt lat="38.1221520" lon="-3.6002100">
        <ele>400.0</ele>
        <time>2018-06-16T06:16:28Z</time>
      </trkpt>
      <trkpt lat="38.1221940" lon="-3.6001920">
        <ele>400.2</ele>
        <time>2018-06-16T06:16:29Z</time>
      </trkpt>
      <trkpt lat="38.1222370" lon="-3.6001750">
        <ele>400.2</ele>
        <time>2018-06-16T06:16:30Z</time>
      </trkpt>
      <trkpt lat="38.1222790" lon="-3.6001580">
        <ele>400.4</ele>
        <time>2018-06-16T06:16:31Z</time>
      </trkpt>
      <trkpt lat="38.1223220" lon="-3.6001410">
        <ele>400.6</ele>
        <time>2018-06-16T06:16:32Z</time>
      </trkpt>
      <trkpt lat="38.1223650" lon="-3.6001250">
        <ele>400.4</ele>
        <time>2018-06-16T06:16:33Z</time>
      </trkpt>
      <trkpt lat="38.1224090" lon="-3.6001100">
        <ele>400.8</ele>
        <time>2018-06-16T06:16:34Z</time>
      </trkpt>
      <trkpt lat="38.1224530" lon="-3.6000930">
        <ele>400.8</ele>
        <time>2018-06-16T06:16:35Z</time>
      </trkpt>
      <trkpt lat="38.1224960" lon="-3.6000770">
        <ele>400.8</ele>
        <time>2018-06-16T06:16:36Z</time>
      </trkpt>
      <trkpt lat="38.1225390" lon="-3.6000590">
        <ele>401.0</ele>
        <time>2018-06-16T06:16:37Z</time>
      </trkpt>
      <trkpt lat="38.1225820" lon="-3.6000440">
        <ele>401.2</ele>
        <time>2018-06-16T06:16:38Z</time>
      </trkpt>
      <trkpt lat="38.1226260" lon="-3.6000300">
        <ele>401.4</ele>
        <time>2018-06-16T06:16:39Z</time>
      </trkpt>
      <trkpt lat="38.1226670" lon="-3.6000140">
        <ele>401.2</ele>
        <time>2018-06-16T06:16:40Z</time>
      </trkpt>
      <trkpt lat="38.1227070" lon="-3.5999950">
        <ele>401.6</ele>
        <time>2018-06-16T06:16:41Z</time>
      </trkpt>
      <trkpt lat="38.1227480" lon="-3.5999760">
        <ele>401.8</ele>
        <time>2018-06-16T06:16:42Z</time>
      </trkpt>
      <trkpt lat="38.1227870" lon="-3.5999580">
        <ele>402.0</ele>
        <time>2018-06-16T06:16:43Z</time>
      </trkpt>
      <trkpt lat="38.1228270" lon="-3.5999410">
        <ele>402.2</ele>
        <time>2018-06-16T06:16:44Z</time>
      </trkpt>
      <trkpt lat="38.1228670" lon="-3.5999260">
        <ele>402.2</ele>
        <time>2018-06-16T06:16:45Z</time>
      </trkpt>
      <trkpt lat="38.1229080" lon="-3.5999100">
        <ele>402.4</ele>
        <time>2018-06-16T06:16:46Z</time>
      </trkpt>
      <trkpt lat="38.1229480" lon="-3.5998940">
        <ele>402.8</ele>
        <time>2018-06-16T06:16:47Z</time>
      </trkpt>
      <trkpt lat="38.1229890" lon="-3.5998780">
        <ele>402.8</ele>
        <time>2018-06-16T06:16:48Z</time>
      </trkpt>
      <trkpt lat="38.1230290" lon="-3.5998630">
        <ele>403.0</ele>
        <time>2018-06-16T06:16:49Z</time>
      </trkpt>
      <trkpt lat="38.1230690" lon="-3.5998500">
        <ele>403.2</ele>
        <time>2018-06-16T06:16:50Z</time>
      </trkpt>
      <trkpt lat="38.1231100" lon="-3.5998370">
        <ele>403.2</ele>
        <time>2018-06-16T06:16:51Z</time>
      </trkpt>
      <trkpt lat="38.1231500" lon="-3.5998250">
        <ele>403.4</ele>
        <time>2018-06-16T06:16:52Z</time>
      </trkpt>
      <trkpt lat="38.1231900" lon="-3.5998150">
        <ele>403.4</ele>
        <time>2018-06-16T06:16:53Z</time>
      </trkpt>
      <trkpt lat="38.1232330" lon="-3.5998060">
        <ele>403.6</ele>
        <time>2018-06-16T06:16:54Z</time>
      </trkpt>
      <trkpt lat="38.1232740" lon="-3.5997980">
        <ele>403.6</ele>
        <time>2018-06-16T06:16:55Z</time>
      </trkpt>
      <trkpt lat="38.1233170" lon="-3.5997910">
        <ele>403.8</ele>
        <time>2018-06-16T06:16:56Z</time>
      </trkpt>
      <trkpt lat="38.1233590" lon="-3.5997860">
        <ele>404.0</ele>
        <time>2018-06-16T06:16:57Z</time>
      </trkpt>
      <trkpt lat="38.1234010" lon="-3.5997830">
        <ele>404.0</ele>
        <time>2018-06-16T06:16:58Z</time>
      </trkpt>
      <trkpt lat="38.1234430" lon="-3.5997800">
        <ele>404.0</ele>
        <time>2018-06-16T06:16:59Z</time>
      </trkpt>
      <trkpt lat="38.1234860" lon="-3.5997790">
        <ele>404.2</ele>
        <time>2018-06-16T06:17:00Z</time>
      </trkpt>
      <trkpt lat="38.1235280" lon="-3.5997790">
        <ele>404.4</ele>
        <time>2018-06-16T06:17:01Z</time>
      </trkpt>
      <trkpt lat="38.1235700" lon="-3.5997800">
        <ele>404.4</ele>
        <time>2018-06-16T06:17:02Z</time>
      </trkpt>
      <trkpt lat="38.1236120" lon="-3.5997810">
        <ele>404.6</ele>
        <time>2018-06-16T06:17:03Z</time>
      </trkpt>
      <trkpt lat="38.1236550" lon="-3.5997820">
        <ele>404.6</ele>
        <time>2018-06-16T06:17:04Z</time>
      </trkpt>
      <trkpt lat="38.1236980" lon="-3.5997830">
        <ele>404.6</ele>
        <time>2018-06-16T06:17:05Z</time>
      </trkpt>
      <trkpt lat="38.1237400" lon="-3.5997820">
        <ele>404.8</ele>
        <time>2018-06-16T06:17:06Z</time>
      </trkpt>
      <trkpt lat="38.1237820" lon="-3.5997830">
        <ele>405.0</ele>
        <time>2018-06-16T06:17:07Z</time>
      </trkpt>
      <trkpt lat="38.1238260" lon="-3.5997850">
        <ele>405.0</ele>
        <time>2018-06-16T06:17:08Z</time>
      </trkpt>
      <trkpt lat="38.1238690" lon="-3.5997880">
        <ele>405.0</ele>
        <time>2018-06-16T06:17:09Z</time>
      </trkpt>
      <trkpt lat="38.1239120" lon="-3.5997880">
        <ele>405.2</ele>
        <time>2018-06-16T06:17:10Z</time>
      </trkpt>
      <trkpt lat="38.1239550" lon="-3.5997880">
        <ele>405.2</ele>
        <time>2018-06-16T06:17:11Z</time>
      </trkpt>
      <trkpt lat="38.1239980" lon="-3.5997880">
        <ele>405.4</ele>
        <time>2018-06-16T06:17:12Z</time>
      </trkpt>
      <trkpt lat="38.1240400" lon="-3.5997880">
        <ele>405.6</ele>
        <time>2018-06-16T06:17:13Z</time>
      </trkpt>
      <trkpt lat="38.1240830" lon="-3.5997890">
        <ele>405.6</ele>
        <time>2018-06-16T06:17:14Z</time>
      </trkpt>
      <trkpt lat="38.1241260" lon="-3.5997910">
        <ele>405.8</ele>
        <time>2018-06-16T06:17:15Z</time>
      </trkpt>
      <trkpt lat="38.1241680" lon="-3.5997930">
        <ele>405.8</ele>
        <time>2018-06-16T06:17:16Z</time>
      </trkpt>
      <trkpt lat="38.1242100" lon="-3.5997940">
        <ele>406.0</ele>
        <time>2018-06-16T06:17:17Z</time>
      </trkpt>
      <trkpt lat="38.1242530" lon="-3.5997940">
        <ele>406.0</ele>
        <time>2018-06-16T06:17:18Z</time>
      </trkpt>
      <trkpt lat="38.1242960" lon="-3.5997950">
        <ele>406.2</ele>
        <time>2018-06-16T06:17:19Z</time>
      </trkpt>
      <trkpt lat="38.1243380" lon="-3.5997950">
        <ele>406.2</ele>
        <time>2018-06-16T06:17:20Z</time>
      </trkpt>
      <trkpt lat="38.1243810" lon="-3.5997960">
        <ele>406.4</ele>
        <time>2018-06-16T06:17:21Z</time>
      </trkpt>
      <trkpt lat="38.1244220" lon="-3.5997970">
        <ele>406.6</ele>
        <time>2018-06-16T06:17:22Z</time>
      </trkpt>
      <trkpt lat="38.1244640" lon="-3.5997970">
        <ele>406.6</ele>
        <time>2018-06-16T06:17:23Z</time>
      </trkpt>
      <trkpt lat="38.1245060" lon="-3.5997980">
        <ele>406.8</ele>
        <time>2018-06-16T06:17:24Z</time>
      </trkpt>
      <trkpt lat="38.1245490" lon="-3.5997990">
        <ele>406.8</ele>
        <time>2018-06-16T06:17:25Z</time>
      </trkpt>
      <trkpt lat="38.1245920" lon="-3.5998010">
        <ele>407.0</ele>
        <time>2018-06-16T06:17:26Z</time>
      </trkpt>
      <trkpt lat="38.1246340" lon="-3.5998010">
        <ele>407.0</ele>
        <time>2018-06-16T06:17:27Z</time>
      </trkpt>
      <trkpt lat="38.1246770" lon="-3.5997990">
        <ele>407.2</ele>
        <time>2018-06-16T06:17:28Z</time>
      </trkpt>
      <trkpt lat="38.1247200" lon="-3.5997990">
        <ele>407.4</ele>
        <time>2018-06-16T06:17:29Z</time>
      </trkpt>
      <trkpt lat="38.1247630" lon="-3.5997990">
        <ele>407.4</ele>
        <time>2018-06-16T06:17:30Z</time>
      </trkpt>
      <trkpt lat="38.1248050" lon="-3.5997990">
        <ele>407.6</ele>
        <time>2018-06-16T06:17:31Z</time>
      </trkpt>
      <trkpt lat="38.1248480" lon="-3.5997970">
        <ele>407.6</ele>
        <time>2018-06-16T06:17:32Z</time>
      </trkpt>
      <trkpt lat="38.1248900" lon="-3.5997940">
        <ele>407.6</ele>
        <time>2018-06-16T06:17:33Z</time>
      </trkpt>
      <trkpt lat="38.1249330" lon="-3.5997910">
        <ele>407.8</ele>
        <time>2018-06-16T06:17:34Z</time>
      </trkpt>
      <trkpt lat="38.1249770" lon="-3.5997880">
        <ele>407.6</ele>
        <time>2018-06-16T06:17:35Z</time>
      </trkpt>
      <trkpt lat="38.1250210" lon="-3.5997840">
        <ele>407.6</ele>
        <time>2018-06-16T06:17:36Z</time>
      </trkpt>
      <trkpt lat="38.1250670" lon="-3.5997770">
        <ele>407.4</ele>
        <time>2018-06-16T06:17:37Z</time>
      </trkpt>
      <trkpt lat="38.1251160" lon="-3.5997700">
        <ele>407.4</ele>
        <time>2018-06-16T06:17:38Z</time>
      </trkpt>
      <trkpt lat="38.1251680" lon="-3.5997600">
        <ele>407.0</ele>
        <time>2018-06-16T06:17:39Z</time>
      </trkpt>
      <trkpt lat="38.1252220" lon="-3.5997480">
        <ele>406.8</ele>
        <time>2018-06-16T06:17:40Z</time>
      </trkpt>
      <trkpt lat="38.1252790" lon="-3.5997330">
        <ele>406.4</ele>
        <time>2018-06-16T06:17:41Z</time>
      </trkpt>
      <trkpt lat="38.1253390" lon="-3.5997170">
        <ele>406.2</ele>
        <time>2018-06-16T06:17:42Z</time>
      </trkpt>
      <trkpt lat="38.1254020" lon="-3.5997010">
        <ele>405.8</ele>
        <time>2018-06-16T06:17:43Z</time>
      </trkpt>
      <trkpt lat="38.1254680" lon="-3.5996850">
        <ele>405.4</ele>
        <time>2018-06-16T06:17:44Z</time>
      </trkpt>
      <trkpt lat="38.1255380" lon="-3.5996700">
        <ele>405.0</ele>
        <time>2018-06-16T06:17:45Z</time>
      </trkpt>
      <trkpt lat="38.1256100" lon="-3.5996540">
        <ele>404.6</ele>
        <time>2018-06-16T06:17:46Z</time>
      </trkpt>
      <trkpt lat="38.1256830" lon="-3.5996370">
        <ele>404.4</ele>
        <time>2018-06-16T06:17:47Z</time>
      </trkpt>
      <trkpt lat="38.1257600" lon="-3.5996210">
        <ele>404.2</ele>
        <time>2018-06-16T06:17:48Z</time>
      </trkpt>
      <trkpt lat="38.1258370" lon="-3.5996040">
        <ele>403.8</ele>
        <time>2018-06-16T06:17:49Z</time>
      </trkpt>
      <trkpt lat="38.1259170" lon="-3.5995850">
        <ele>403.4</ele>
        <time>2018-06-16T06:17:50Z</time>
      </trkpt>
      <trkpt lat="38.1259980" lon="-3.5995670">
        <ele>403.2</ele>
        <time>2018-06-16T06:17:51Z</time>
      </trkpt>
      <trkpt lat="38.1260810" lon="-3.5995490">
        <ele>402.8</ele>
        <time>2018-06-16T06:17:52Z</time>
      </trkpt>
      <trkpt lat="38.1261650" lon="-3.5995300">
        <ele>402.6</ele>
        <time>2018-06-16T06:17:53Z</time>
      </trkpt>
      <trkpt lat="38.1262500" lon="-3.5995130">
        <ele>402.6</ele>
        <time>2018-06-16T06:17:54Z</time>
      </trkpt>
      <trkpt lat="38.1263360" lon="-3.5994980">
        <ele>402.2</ele>
        <time>2018-06-16T06:17:55Z</time>
      </trkpt>
      <trkpt lat="38.1264240" lon="-3.5994890">
        <ele>402.0</ele>
        <time>2018-06-16T06:17:56Z</time>
      </trkpt>
      <trkpt lat="38.1265160" lon="-3.5994860">
        <ele>401.4</ele>
        <time>2018-06-16T06:17:57Z</time>
      </trkpt>
      <trkpt lat="38.1266090" lon="-3.5994890">
        <ele>401.0</ele>
        <time>2018-06-16T06:17:58Z</time>
      </trkpt>
      <trkpt lat="38.1267040" lon="-3.5994990">
        <ele>400.4</ele>
        <time>2018-06-16T06:17:59Z</time>
      </trkpt>
      <trkpt lat="38.1268010" lon="-3.5995140">
        <ele>400.0</ele>
        <time>2018-06-16T06:18:00Z</time>
      </trkpt>
      <trkpt lat="38.1268990" lon="-3.5995310">
        <ele>399.4</ele>
        <time>2018-06-16T06:18:01Z</time>
      </trkpt>
      <trkpt lat="38.1269990" lon="-3.5995460">
        <ele>398.8</ele>
        <time>2018-06-16T06:18:02Z</time>
      </trkpt>
      <trkpt lat="38.1271000" lon="-3.5995600">
        <ele>398.4</ele>
        <time>2018-06-16T06:18:03Z</time>
      </trkpt>
      <trkpt lat="38.1272040" lon="-3.5995690">
        <ele>397.8</ele>
        <time>2018-06-16T06:18:04Z</time>
      </trkpt>
      <trkpt lat="38.1273100" lon="-3.5995680">
        <ele>397.2</ele>
        <time>2018-06-16T06:18:05Z</time>
      </trkpt>
      <trkpt lat="38.1274150" lon="-3.5995570">
        <ele>396.6</ele>
        <time>2018-06-16T06:18:06Z</time>
      </trkpt>
      <trkpt lat="38.1275210" lon="-3.5995390">
        <ele>396.2</ele>
        <time>2018-06-16T06:18:07Z</time>
      </trkpt>
      <trkpt lat="38.1276270" lon="-3.5995180">
        <ele>395.6</ele>
        <time>2018-06-16T06:18:08Z</time>
      </trkpt>
      <trkpt lat="38.1277330" lon="-3.5994940">
        <ele>395.0</ele>
        <time>2018-06-16T06:18:09Z</time>
      </trkpt>
      <trkpt lat="38.1278400" lon="-3.5994710">
        <ele>394.8</ele>
        <time>2018-06-16T06:18:10Z</time>
      </trkpt>
      <trkpt lat="38.1279470" lon="-3.5994470">
        <ele>394.2</ele>
        <time>2018-06-16T06:18:11Z</time>
      </trkpt>
      <trkpt lat="38.1280530" lon="-3.5994250">
        <ele>393.8</ele>
        <time>2018-06-16T06:18:12Z</time>
      </trkpt>
      <trkpt lat="38.1281600" lon="-3.5994050">
        <ele>393.2</ele>
        <time>2018-06-16T06:18:13Z</time>
      </trkpt>
      <trkpt lat="38.1282680" lon="-3.5993900">
        <ele>393.0</ele>
        <time>2018-06-16T06:18:14Z</time>
      </trkpt>
      <trkpt lat="38.1283780" lon="-3.5993800">
        <ele>392.2</ele>
        <time>2018-06-16T06:18:15Z</time>
      </trkpt>
      <trkpt lat="38.1284880" lon="-3.5993730">
        <ele>391.8</ele>
        <time>2018-06-16T06:18:16Z</time>
      </trkpt>
      <trkpt lat="38.1285990" lon="-3.5993650">
        <ele>391.4</ele>
        <time>2018-06-16T06:18:17Z</time>
      </trkpt>
      <trkpt lat="38.1287110" lon="-3.5993560">
        <ele>390.6</ele>
        <time>2018-06-16T06:18:18Z</time>
      </trkpt>
      <trkpt lat="38.1288240" lon="-3.5993460">
        <ele>390.0</ele>
        <time>2018-06-16T06:18:19Z</time>
      </trkpt>
      <trkpt lat="38.1289390" lon="-3.5993360">
        <ele>389.4</ele>
        <time>2018-06-16T06:18:20Z</time>
      </trkpt>
      <trkpt lat="38.1290540" lon="-3.5993260">
        <ele>388.8</ele>
        <time>2018-06-16T06:18:21Z</time>
      </trkpt>
      <trkpt lat="38.1291710" lon="-3.5993160">
        <ele>388.0</ele>
        <time>2018-06-16T06:18:22Z</time>
      </trkpt>
      <trkpt lat="38.1292890" lon="-3.5993050">
        <ele>387.4</ele>
        <time>2018-06-16T06:18:23Z</time>
      </trkpt>
      <trkpt lat="38.1294070" lon="-3.5992930">
        <ele>386.8</ele>
        <time>2018-06-16T06:18:24Z</time>
      </trkpt>
      <trkpt lat="38.1295260" lon="-3.5992810">
        <ele>386.2</ele>
        <time>2018-06-16T06:18:25Z</time>
      </trkpt>
      <trkpt lat="38.1296450" lon="-3.5992730">
        <ele>385.4</ele>
        <time>2018-06-16T06:18:26Z</time>
      </trkpt>
      <trkpt lat="38.1297650" lon="-3.5992720">
        <ele>384.8</ele>
        <time>2018-06-16T06:18:27Z</time>
      </trkpt>
      <trkpt lat="38.1298860" lon="-3.5992810">
        <ele>384.2</ele>
        <time>2018-06-16T06:18:28Z</time>
      </trkpt>
      <trkpt lat="38.1300070" lon="-3.5993010">
        <ele>383.4</ele>
        <time>2018-06-16T06:18:29Z</time>
      </trkpt>
      <trkpt lat="38.1301260" lon="-3.5993300">
        <ele>382.8</ele>
        <time>2018-06-16T06:18:30Z</time>
      </trkpt>
      <trkpt lat="38.1302440" lon="-3.5993660">
        <ele>382.2</ele>
        <time>2018-06-16T06:18:31Z</time>
      </trkpt>
      <trkpt lat="38.1303590" lon="-3.5994080">
        <ele>381.8</ele>
        <time>2018-06-16T06:18:32Z</time>
      </trkpt>
      <trkpt lat="38.1304710" lon="-3.5994570">
        <ele>381.6</ele>
        <time>2018-06-16T06:18:33Z</time>
      </trkpt>
      <trkpt lat="38.1305780" lon="-3.5995170">
        <ele>381.4</ele>
        <time>2018-06-16T06:18:34Z</time>
      </trkpt>
      <trkpt lat="38.1306790" lon="-3.5995850">
        <ele>381.2</ele>
        <time>2018-06-16T06:18:35Z</time>
      </trkpt>
      <trkpt lat="38.1307750" lon="-3.5996590">
        <ele>381.0</ele>
        <time>2018-06-16T06:18:36Z</time>
      </trkpt>
      <trkpt lat="38.1308690" lon="-3.5997320">
        <ele>380.8</ele>
        <time>2018-06-16T06:18:37Z</time>
      </trkpt>
      <trkpt lat="38.1309610" lon="-3.5998060">
        <ele>380.6</ele>
        <time>2018-06-16T06:18:38Z</time>
      </trkpt>
      <trkpt lat="38.1310510" lon="-3.5998790">
        <ele>380.4</ele>
        <time>2018-06-16T06:18:39Z</time>
      </trkpt>
      <trkpt lat="38.1311390" lon="-3.5999490">
        <ele>380.4</ele>
        <time>2018-06-16T06:18:40Z</time>
      </trkpt>
      <trkpt lat="38.1312260" lon="-3.6000180">
        <ele>380.2</ele>
        <time>2018-06-16T06:18:41Z</time>
      </trkpt>
      <trkpt lat="38.1313120" lon="-3.6000860">
        <ele>380.0</ele>
        <time>2018-06-16T06:18:42Z</time>
      </trkpt>
      <trkpt lat="38.1313970" lon="-3.6001510">
        <ele>379.6</ele>
        <time>2018-06-16T06:18:43Z</time>
      </trkpt>
      <trkpt lat="38.1314810" lon="-3.6002150">
        <ele>379.8</ele>
        <time>2018-06-16T06:18:44Z</time>
      </trkpt>
      <trkpt lat="38.1315620" lon="-3.6002790">
        <ele>379.6</ele>
        <time>2018-06-16T06:18:45Z</time>
      </trkpt>
      <trkpt lat="38.1316410" lon="-3.6003430">
        <ele>379.6</ele>
        <time>2018-06-16T06:18:46Z</time>
      </trkpt>
      <trkpt lat="38.1317190" lon="-3.6004060">
        <ele>379.6</ele>
        <time>2018-06-16T06:18:47Z</time>
      </trkpt>
      <trkpt lat="38.1317950" lon="-3.6004680">
        <ele>379.6</ele>
        <time>2018-06-16T06:18:48Z</time>
      </trkpt>
      <trkpt lat="38.1318710" lon="-3.6005280">
        <ele>379.4</ele>
        <time>2018-06-16T06:18:49Z</time>
      </trkpt>
      <trkpt lat="38.1319450" lon="-3.6005870">
        <ele>379.4</ele>
        <time>2018-06-16T06:18:50Z</time>
      </trkpt>
      <trkpt lat="38.1320180" lon="-3.6006450">
        <ele>379.4</ele>
        <time>2018-06-16T06:18:51Z</time>
      </trkpt>
      <trkpt lat="38.1320900" lon="-3.6007020">
        <ele>379.4</ele>
        <time>2018-06-16T06:18:52Z</time>
      </trkpt>
      <trkpt lat="38.1321630" lon="-3.6007580">
        <ele>379.2</ele>
        <time>2018-06-16T06:18:53Z</time>
      </trkpt>
      <trkpt lat="38.1322340" lon="-3.6008130">
        <ele>379.2</ele>
        <time>2018-06-16T06:18:54Z</time>
      </trkpt>
      <trkpt lat="38.1323060" lon="-3.6008680">
        <ele>379.0</ele>
        <time>2018-06-16T06:18:55Z</time>
      </trkpt>
      <trkpt lat="38.1323770" lon="-3.6009230">
        <ele>379.2</ele>
        <time>2018-06-16T06:18:56Z</time>
      </trkpt>
      <trkpt lat="38.1324470" lon="-3.6009780">
        <ele>379.2</ele>
        <time>2018-06-16T06:18:57Z</time>
      </trkpt>
      <trkpt lat="38.1325160" lon="-3.6010330">
        <ele>379.2</ele>
        <time>2018-06-16T06:18:58Z</time>
      </trkpt>
      <trkpt lat="38.1325840" lon="-3.6010890">
        <ele>379.2</ele>
        <time>2018-06-16T06:18:59Z</time>
      </trkpt>
      <trkpt lat="38.1326530" lon="-3.6011460">
        <ele>379.2</ele>
        <time>2018-06-16T06:19:00Z</time>
      </trkpt>
      <trkpt lat="38.1327220" lon="-3.6012010">
        <ele>379.2</ele>
        <time>2018-06-16T06:19:01Z</time>
      </trkpt>
      <trkpt lat="38.1327910" lon="-3.6012560">
        <ele>379.2</ele>
        <time>2018-06-16T06:19:02Z</time>
      </trkpt>
      <trkpt lat="38.1328600" lon="-3.6013100">
        <ele>379.2</ele>
        <time>2018-06-16T06:19:03Z</time>
      </trkpt>
      <trkpt lat="38.1329290" lon="-3.6013620">
        <ele>379.2</ele>
        <time>2018-06-16T06:19:04Z</time>
      </trkpt>
      <trkpt lat="38.1329970" lon="-3.6014130">
        <ele>379.2</ele>
        <time>2018-06-16T06:19:05Z</time>
      </trkpt>
      <trkpt lat="38.1330670" lon="-3.6014630">
        <ele>379.2</ele>
        <time>2018-06-16T06:19:06Z</time>
      </trkpt>
      <trkpt lat="38.1331370" lon="-3.6015080">
        <ele>379.2</ele>
        <time>2018-06-16T06:19:07Z</time>
      </trkpt>
      <trkpt lat="38.1332090" lon="-3.6015500">
        <ele>379.4</ele>
        <time>2018-06-16T06:19:08Z</time>
      </trkpt>
      <trkpt lat="38.1332810" lon="-3.6015850">
        <ele>379.2</ele>
        <time>2018-06-16T06:19:09Z</time>
      </trkpt>
      <trkpt lat="38.1333540" lon="-3.6016140">
        <ele>379.2</ele>
        <time>2018-06-16T06:19:10Z</time>
      </trkpt>
      <trkpt lat="38.1334280" lon="-3.6016400">
        <ele>379.2</ele>
        <time>2018-06-16T06:19:11Z</time>
      </trkpt>
      <trkpt lat="38.1335010" lon="-3.6016660">
        <ele>379.2</ele>
        <time>2018-06-16T06:19:12Z</time>
      </trkpt>
      <trkpt lat="38.1335750" lon="-3.6016920">
        <ele>379.0</ele>
        <time>2018-06-16T06:19:13Z</time>
      </trkpt>
      <trkpt lat="38.1336480" lon="-3.6017160">
        <ele>379.0</ele>
        <time>2018-06-16T06:19:14Z</time>
      </trkpt>
      <trkpt lat="38.1337220" lon="-3.6017380">
        <ele>379.0</ele>
        <time>2018-06-16T06:19:15Z</time>
      </trkpt>
      <trkpt lat="38.1337940" lon="-3.6017610">
        <ele>379.0</ele>
        <time>2018-06-16T06:19:16Z</time>
      </trkpt>
      <trkpt lat="38.1338670" lon="-3.6017860">
        <ele>379.0</ele>
        <time>2018-06-16T06:19:17Z</time>
      </trkpt>
      <trkpt lat="38.1339400" lon="-3.6018100">
        <ele>379.0</ele>
        <time>2018-06-16T06:19:18Z</time>
      </trkpt>
      <trkpt lat="38.1340130" lon="-3.6018340">
        <ele>379.0</ele>
        <time>2018-06-16T06:19:19Z</time>
      </trkpt>
      <trkpt lat="38.1340860" lon="-3.6018560">
        <ele>379.0</ele>
        <time>2018-06-16T06:19:20Z</time>
      </trkpt>
      <trkpt lat="38.1341590" lon="-3.6018780">
        <ele>379.0</ele>
        <time>2018-06-16T06:19:21Z</time>
      </trkpt>
      <trkpt lat="38.1342320" lon="-3.6019010">
        <ele>379.0</ele>
        <time>2018-06-16T06:19:22Z</time>
      </trkpt>
      <trkpt lat="38.1343040" lon="-3.6019230">
        <ele>379.0</ele>
        <time>2018-06-16T06:19:23Z</time>
      </trkpt>
      <trkpt lat="38.1343770" lon="-3.6019450">
        <ele>378.8</ele>
        <time>2018-06-16T06:19:24Z</time>
      </trkpt>
      <trkpt lat="38.1344500" lon="-3.6019650">
        <ele>378.8</ele>
        <time>2018-06-16T06:19:25Z</time>
      </trkpt>
      <trkpt lat="38.1345230" lon="-3.6019840">
        <ele>378.8</ele>
        <time>2018-06-16T06:19:26Z</time>
      </trkpt>
      <trkpt lat="38.1345960" lon="-3.6019980">
        <ele>378.8</ele>
        <time>2018-06-16T06:19:27Z</time>
      </trkpt>
      <trkpt lat="38.1346690" lon="-3.6020030">
        <ele>378.8</ele>
        <time>2018-06-16T06:19:28Z</time>
      </trkpt>
      <trkpt lat="38.1347420" lon="-3.6020000">
        <ele>378.8</ele>
        <time>2018-06-16T06:19:29Z</time>
      </trkpt>
      <trkpt lat="38.1348140" lon="-3.6019890">
        <ele>378.8</ele>
        <time>2018-06-16T06:19:30Z</time>
      </trkpt>
      <trkpt lat="38.1348860" lon="-3.6019750">
        <ele>378.8</ele>
        <time>2018-06-16T06:19:31Z</time>
      </trkpt>
      <trkpt lat="38.1349570" lon="-3.6019590">
        <ele>378.8</ele>
        <time>2018-06-16T06:19:32Z</time>
      </trkpt>
      <trkpt lat="38.1350280" lon="-3.6019430">
        <ele>378.8</ele>
        <time>2018-06-16T06:19:33Z</time>
      </trkpt>
      <trkpt lat="38.1351000" lon="-3.6019260">
        <ele>378.6</ele>
        <time>2018-06-16T06:19:34Z</time>
      </trkpt>
      <trkpt lat="38.1351720" lon="-3.6019100">
        <ele>378.6</ele>
        <time>2018-06-16T06:19:35Z</time>
      </trkpt>
      <trkpt lat="38.1352440" lon="-3.6018930">
        <ele>378.6</ele>
        <time>2018-06-16T06:19:36Z</time>
      </trkpt>
      <trkpt lat="38.1353160" lon="-3.6018760">
        <ele>378.6</ele>
        <time>2018-06-16T06:19:37Z</time>
      </trkpt>
      <trkpt lat="38.1353890" lon="-3.6018610">
        <ele>378.4</ele>
        <time>2018-06-16T06:19:38Z</time>
      </trkpt>
      <trkpt lat="38.1354620" lon="-3.6018450">
        <ele>378.4</ele>
        <time>2018-06-16T06:19:39Z</time>
      </trkpt>
      <trkpt lat="38.1355320" lon="-3.6018290">
        <ele>378.4</ele>
        <time>2018-06-16T06:19:40Z</time>
      </trkpt>
      <trkpt lat="38.1355980" lon="-3.6018090">
        <ele>378.4</ele>
        <time>2018-06-16T06:19:41Z</time>
      </trkpt>
      <trkpt lat="38.1356630" lon="-3.6017870">
        <ele>378.4</ele>
        <time>2018-06-16T06:19:42Z</time>
      </trkpt>
      <trkpt lat="38.1357330" lon="-3.6017660">
        <ele>378.4</ele>
        <time>2018-06-16T06:19:43Z</time>
      </trkpt>
      <trkpt lat="38.1358030" lon="-3.6017440">
        <ele>378.6</ele>
        <time>2018-06-16T06:19:44Z</time>
      </trkpt>
      <trkpt lat="38.1358690" lon="-3.6017120">
        <ele>378.6</ele>
        <time>2018-06-16T06:19:45Z</time>
      </trkpt>
      <trkpt lat="38.1359320" lon="-3.6016730">
        <ele>378.6</ele>
        <time>2018-06-16T06:19:46Z</time>
      </trkpt>
      <trkpt lat="38.1359920" lon="-3.6016310">
        <ele>378.8</ele>
        <time>2018-06-16T06:19:47Z</time>
      </trkpt>
      <trkpt lat="38.1360520" lon="-3.6015870">
        <ele>378.8</ele>
        <time>2018-06-16T06:19:48Z</time>
      </trkpt>
      <trkpt lat="38.1361100" lon="-3.6015430">
        <ele>378.8</ele>
        <time>2018-06-16T06:19:49Z</time>
      </trkpt>
      <trkpt lat="38.1361680" lon="-3.6014990">
        <ele>379.0</ele>
        <time>2018-06-16T06:19:50Z</time>
      </trkpt>
      <trkpt lat="38.1362240" lon="-3.6014560">
        <ele>379.2</ele>
        <time>2018-06-16T06:19:51Z</time>
      </trkpt>
      <trkpt lat="38.1362810" lon="-3.6014160">
        <ele>379.0</ele>
        <time>2018-06-16T06:19:52Z</time>
      </trkpt>
      <trkpt lat="38.1363390" lon="-3.6013780">
        <ele>379.2</ele>
        <time>2018-06-16T06:19:53Z</time>
      </trkpt>
      <trkpt lat="38.1363950" lon="-3.6013380">
        <ele>379.2</ele>
        <time>2018-06-16T06:19:54Z</time>
      </trkpt>
      <trkpt lat="38.1364530" lon="-3.6012990">
        <ele>379.2</ele>
        <time>2018-06-16T06:19:55Z</time>
      </trkpt>
      <trkpt lat="38.1365090" lon="-3.6012620">
        <ele>379.4</ele>
        <time>2018-06-16T06:19:56Z</time>
      </trkpt>
      <trkpt lat="38.1365630" lon="-3.6012240">
        <ele>379.6</ele>
        <time>2018-06-16T06:19:57Z</time>
      </trkpt>
      <trkpt lat="38.1366170" lon="-3.6011840">
        <ele>379.6</ele>
        <time>2018-06-16T06:19:58Z</time>
      </trkpt>
      <trkpt lat="38.1366700" lon="-3.6011410">
        <ele>379.6</ele>
        <time>2018-06-16T06:19:59Z</time>
      </trkpt>
      <trkpt lat="38.1367230" lon="-3.6010980">
        <ele>379.8</ele>
        <time>2018-06-16T06:20:00Z</time>
      </trkpt>
      <trkpt lat="38.1367760" lon="-3.6010580">
        <ele>379.8</ele>
        <time>2018-06-16T06:20:01Z</time>
      </trkpt>
      <trkpt lat="38.1368300" lon="-3.6010210">
        <ele>380.0</ele>
        <time>2018-06-16T06:20:02Z</time>
      </trkpt>
      <trkpt lat="38.1368850" lon="-3.6009850">
        <ele>380.0</ele>
        <time>2018-06-16T06:20:03Z</time>
      </trkpt>
      <trkpt lat="38.1369380" lon="-3.6009480">
        <ele>380.0</ele>
        <time>2018-06-16T06:20:04Z</time>
      </trkpt>
      <trkpt lat="38.1369900" lon="-3.6009090">
        <ele>380.2</ele>
        <time>2018-06-16T06:20:05Z</time>
      </trkpt>
      <trkpt lat="38.1370420" lon="-3.6008710">
        <ele>380.4</ele>
        <time>2018-06-16T06:20:06Z</time>
      </trkpt>
      <trkpt lat="38.1370940" lon="-3.6008340">
        <ele>380.4</ele>
        <time>2018-06-16T06:20:07Z</time>
      </trkpt>
      <trkpt lat="38.1371470" lon="-3.6007980">
        <ele>380.4</ele>
        <time>2018-06-16T06:20:08Z</time>
      </trkpt>
      <trkpt lat="38.1371990" lon="-3.6007620">
        <ele>380.6</ele>
        <time>2018-06-16T06:20:09Z</time>
      </trkpt>
      <trkpt lat="38.1372500" lon="-3.6007240">
        <ele>380.6</ele>
        <time>2018-06-16T06:20:10Z</time>
      </trkpt>
      <trkpt lat="38.1373020" lon="-3.6006870">
        <ele>380.6</ele>
        <time>2018-06-16T06:20:11Z</time>
      </trkpt>
      <trkpt lat="38.1373530" lon="-3.6006480">
        <ele>380.8</ele>
        <time>2018-06-16T06:20:12Z</time>
      </trkpt>
      <trkpt lat="38.1374050" lon="-3.6006130">
        <ele>380.8</ele>
        <time>2018-06-16T06:20:13Z</time>
      </trkpt>
      <trkpt lat="38.1374580" lon="-3.6005800">
        <ele>380.8</ele>
        <time>2018-06-16T06:20:14Z</time>
      </trkpt>
      <trkpt lat="38.1375090" lon="-3.6005460">
        <ele>381.0</ele>
        <time>2018-06-16T06:20:15Z</time>
      </trkpt>
      <trkpt lat="38.1375610" lon="-3.6005130">
        <ele>380.8</ele>
        <time>2018-06-16T06:20:16Z</time>
      </trkpt>
      <trkpt lat="38.1376140" lon="-3.6004790">
        <ele>380.8</ele>
        <time>2018-06-16T06:20:17Z</time>
      </trkpt>
      <trkpt lat="38.1376690" lon="-3.6004470">
        <ele>381.0</ele>
        <time>2018-06-16T06:20:18Z</time>
      </trkpt>
      <trkpt lat="38.1377220" lon="-3.6004140">
        <ele>380.8</ele>
        <time>2018-06-16T06:20:19Z</time>
      </trkpt>
      <trkpt lat="38.1377760" lon="-3.6003830">
        <ele>381.0</ele>
        <time>2018-06-16T06:20:20Z</time>
      </trkpt>
      <trkpt lat="38.1378290" lon="-3.6003520">
        <ele>381.0</ele>
        <time>2018-06-16T06:20:21Z</time>
      </trkpt>
      <trkpt lat="38.1378820" lon="-3.6003210">
        <ele>381.0</ele>
        <time>2018-06-16T06:20:22Z</time>
      </trkpt>
      <trkpt lat="38.1379340" lon="-3.6002890">
        <ele>381.0</ele>
        <time>2018-06-16T06:20:23Z</time>
      </trkpt>
      <trkpt lat="38.1379860" lon="-3.6002550">
        <ele>381.0</ele>
        <time>2018-06-16T06:20:24Z</time>
      </trkpt>
      <trkpt lat="38.1380370" lon="-3.6002200">
        <ele>381.0</ele>
        <time>2018-06-16T06:20:25Z</time>
      </trkpt>
      <trkpt lat="38.1380870" lon="-3.6001840">
        <ele>381.0</ele>
        <time>2018-06-16T06:20:26Z</time>
      </trkpt>
      <trkpt lat="38.1381380" lon="-3.6001460">
        <ele>381.2</ele>
        <time>2018-06-16T06:20:27Z</time>
      </trkpt>
      <trkpt lat="38.1381890" lon="-3.6001100">
        <ele>381.2</ele>
        <time>2018-06-16T06:20:28Z</time>
      </trkpt>
      <trkpt lat="38.1382400" lon="-3.6000760">
        <ele>381.2</ele>
        <time>2018-06-16T06:20:29Z</time>
      </trkpt>
      <trkpt lat="38.1382910" lon="-3.6000410">
        <ele>381.4</ele>
        <time>2018-06-16T06:20:30Z</time>
      </trkpt>
      <trkpt lat="38.1383420" lon="-3.6000060">
        <ele>381.4</ele>
        <time>2018-06-16T06:20:31Z</time>
      </trkpt>
      <trkpt lat="38.1383940" lon="-3.5999730">
        <ele>381.4</ele>
        <time>2018-06-16T06:20:32Z</time>
      </trkpt>
      <trkpt lat="38.1384450" lon="-3.5999380">
        <ele>381.4</ele>
        <time>2018-06-16T06:20:33Z</time>
      </trkpt>
      <trkpt lat="38.1384950" lon="-3.5999040">
        <ele>381.6</ele>
        <time>2018-06-16T06:20:34Z</time>
      </trkpt>
      <trkpt lat="38.1385460" lon="-3.5998690">
        <ele>381.6</ele>
        <time>2018-06-16T06:20:35Z</time>
      </trkpt>
      <trkpt lat="38.1385970" lon="-3.5998330">
        <ele>381.6</ele>
        <time>2018-06-16T06:20:36Z</time>
      </trkpt>
      <trkpt lat="38.1386490" lon="-3.5997990">
        <ele>381.8</ele>
        <time>2018-06-16T06:20:37Z</time>
      </trkpt>
      <trkpt lat="38.1386990" lon="-3.5997660">
        <ele>381.8</ele>
        <time>2018-06-16T06:20:38Z</time>
      </trkpt>
      <trkpt lat="38.1387490" lon="-3.5997330">
        <ele>381.8</ele>
        <time>2018-06-16T06:20:39Z</time>
      </trkpt>
      <trkpt lat="38.1388000" lon="-3.5996980">
        <ele>382.0</ele>
        <time>2018-06-16T06:20:40Z</time>
      </trkpt>
      <trkpt lat="38.1388500" lon="-3.5996610">
        <ele>382.0</ele>
        <time>2018-06-16T06:20:41Z</time>
      </trkpt>
      <trkpt lat="38.1389010" lon="-3.5996260">
        <ele>382.2</ele>
        <time>2018-06-16T06:20:42Z</time>
      </trkpt>
      <trkpt lat="38.1389520" lon="-3.5995900">
        <ele>382.2</ele>
        <time>2018-06-16T06:20:43Z</time>
      </trkpt>
      <trkpt lat="38.1390030" lon="-3.5995540">
        <ele>382.4</ele>
        <time>2018-06-16T06:20:44Z</time>
      </trkpt>
      <trkpt lat="38.1390550" lon="-3.5995200">
        <ele>382.2</ele>
        <time>2018-06-16T06:20:45Z</time>
      </trkpt>
      <trkpt lat="38.1391050" lon="-3.5994870">
        <ele>382.2</ele>
        <time>2018-06-16T06:20:46Z</time>
      </trkpt>
      <trkpt lat="38.1391550" lon="-3.5994540">
        <ele>382.4</ele>
        <time>2018-06-16T06:20:47Z</time>
      </trkpt>
      <trkpt lat="38.1392050" lon="-3.5994230">
        <ele>382.4</ele>
        <time>2018-06-16T06:20:48Z</time>
      </trkpt>
      <trkpt lat="38.1392530" lon="-3.5993920">
        <ele>382.6</ele>
        <time>2018-06-16T06:20:49Z</time>
      </trkpt>
      <trkpt lat="38.1393010" lon="-3.5993610">
        <ele>382.6</ele>
        <time>2018-06-16T06:20:50Z</time>
      </trkpt>
      <trkpt lat="38.1393490" lon="-3.5993320">
        <ele>382.8</ele>
        <time>2018-06-16T06:20:51Z</time>
      </trkpt>
      <trkpt lat="38.1393980" lon="-3.5993050">
        <ele>382.8</ele>
        <time>2018-06-16T06:20:52Z</time>
      </trkpt>
      <trkpt lat="38.1394470" lon="-3.5992810">
        <ele>382.8</ele>
        <time>2018-06-16T06:20:53Z</time>
      </trkpt>
      <trkpt lat="38.1394960" lon="-3.5992580">
        <ele>383.0</ele>
        <time>2018-06-16T06:20:54Z</time>
      </trkpt>
      <trkpt lat="38.1395440" lon="-3.5992370">
        <ele>383.2</ele>
        <time>2018-06-16T06:20:55Z</time>
      </trkpt>
      <trkpt lat="38.1395920" lon="-3.5992180">
        <ele>383.2</ele>
        <time>2018-06-16T06:20:56Z</time>
      </trkpt>
      <trkpt lat="38.1396400" lon="-3.5991980">
        <ele>383.4</ele>
        <time>2018-06-16T06:20:57Z</time>
      </trkpt>
      <trkpt lat="38.1396860" lon="-3.5991780">
        <ele>383.6</ele>
        <time>2018-06-16T06:20:58Z</time>
      </trkpt>
      <trkpt lat="38.1397280" lon="-3.5991640">
        <ele>383.8</ele>
        <time>2018-06-16T06:20:59Z</time>
      </trkpt>
      <trkpt lat="38.1397740" lon="-3.5991480">
        <ele>384.0</ele>
        <time>2018-06-16T06:21:00Z</time>
      </trkpt>
      <trkpt lat="38.1398170" lon="-3.5991360">
        <ele>384.0</ele>
        <time>2018-06-16T06:21:01Z</time>
      </trkpt>
      <trkpt lat="38.1398620" lon="-3.5991190">
        <ele>384.2</ele>
        <time>2018-06-16T06:21:02Z</time>
      </trkpt>
      <trkpt lat="38.1399080" lon="-3.5991000">
        <ele>384.4</ele>
        <time>2018-06-16T06:21:03Z</time>
      </trkpt>
      <trkpt lat="38.1399510" lon="-3.5990830">
        <ele>384.4</ele>
        <time>2018-06-16T06:21:04Z</time>
      </trkpt>
      <trkpt lat="38.1399910" lon="-3.5990670">
        <ele>384.8</ele>
        <time>2018-06-16T06:21:05Z</time>
      </trkpt>
      <trkpt lat="38.1400330" lon="-3.5990530">
        <ele>384.8</ele>
        <time>2018-06-16T06:21:06Z</time>
      </trkpt>
      <trkpt lat="38.1400770" lon="-3.5990360">
        <ele>385.0</ele>
        <time>2018-06-16T06:21:07Z</time>
      </trkpt>
      <trkpt lat="38.1401190" lon="-3.5990180">
        <ele>385.2</ele>
        <time>2018-06-16T06:21:08Z</time>
      </trkpt>
      <trkpt lat="38.1401640" lon="-3.5990000">
        <ele>385.2</ele>
        <time>2018-06-16T06:21:09Z</time>
      </trkpt>
      <trkpt lat="38.1402080" lon="-3.5989830">
        <ele>385.4</ele>
        <time>2018-06-16T06:21:10Z</time>
      </trkpt>
      <trkpt lat="38.1402510" lon="-3.5989670">
        <ele>385.6</ele>
        <time>2018-06-16T06:21:11Z</time>
      </trkpt>
      <trkpt lat="38.1403170" lon="-3.5989420">
        <ele>385.8</ele>
        <time>2018-06-16T06:21:12Z</time>
      </trkpt>
      <trkpt lat="38.1403390" lon="-3.5989330">
        <ele>385.8</ele>
        <time>2018-06-16T06:21:13Z</time>
      </trkpt>
      <trkpt lat="38.1403830" lon="-3.5989160">
        <ele>386.0</ele>
        <time>2018-06-16T06:21:14Z</time>
      </trkpt>
      <trkpt lat="38.1404240" lon="-3.5988990">
        <ele>386.2</ele>
        <time>2018-06-16T06:21:15Z</time>
      </trkpt>
      <trkpt lat="38.1404630" lon="-3.5988860">
        <ele>386.4</ele>
        <time>2018-06-16T06:21:16Z</time>
      </trkpt>
      <trkpt lat="38.1405040" lon="-3.5988710">
        <ele>386.4</ele>
        <time>2018-06-16T06:21:17Z</time>
      </trkpt>
      <trkpt lat="38.1405430" lon="-3.5988550">
        <ele>386.6</ele>
        <time>2018-06-16T06:21:18Z</time>
      </trkpt>
      <trkpt lat="38.1405810" lon="-3.5988380">
        <ele>386.8</ele>
        <time>2018-06-16T06:21:19Z</time>
      </trkpt>
      <trkpt lat="38.1406240" lon="-3.5988220">
        <ele>386.8</ele>
        <time>2018-06-16T06:21:20Z</time>
      </trkpt>
      <trkpt lat="38.1406670" lon="-3.5988080">
        <ele>387.0</ele>
        <time>2018-06-16T06:21:21Z</time>
      </trkpt>
      <trkpt lat="38.1407080" lon="-3.5987930">
        <ele>387.2</ele>
        <time>2018-06-16T06:21:22Z</time>
      </trkpt>
      <trkpt lat="38.1407500" lon="-3.5987780">
        <ele>387.4</ele>
        <time>2018-06-16T06:21:23Z</time>
      </trkpt>
      <trkpt lat="38.1408340" lon="-3.5987460">
        <ele>387.4</ele>
        <time>2018-06-16T06:21:24Z</time>
      </trkpt>
      <trkpt lat="38.1408340" lon="-3.5987460">
        <ele>387.4</ele>
        <time>2018-06-16T06:21:25Z</time>
      </trkpt>
      <trkpt lat="38.1408760" lon="-3.5987310">
        <ele>387.6</ele>
        <time>2018-06-16T06:21:26Z</time>
      </trkpt>
      <trkpt lat="38.1409170" lon="-3.5987160">
        <ele>387.8</ele>
        <time>2018-06-16T06:21:27Z</time>
      </trkpt>
      <trkpt lat="38.1409590" lon="-3.5987020">
        <ele>388.0</ele>
        <time>2018-06-16T06:21:28Z</time>
      </trkpt>
      <trkpt lat="38.1410030" lon="-3.5986870">
        <ele>388.0</ele>
        <time>2018-06-16T06:21:29Z</time>
      </trkpt>
      <trkpt lat="38.1410490" lon="-3.5986690">
        <ele>388.2</ele>
        <time>2018-06-16T06:21:30Z</time>
      </trkpt>
      <trkpt lat="38.1410920" lon="-3.5986510">
        <ele>388.2</ele>
        <time>2018-06-16T06:21:31Z</time>
      </trkpt>
      <trkpt lat="38.1411340" lon="-3.5986340">
        <ele>388.4</ele>
        <time>2018-06-16T06:21:32Z</time>
      </trkpt>
      <trkpt lat="38.1411750" lon="-3.5986160">
        <ele>388.6</ele>
        <time>2018-06-16T06:21:33Z</time>
      </trkpt>
      <trkpt lat="38.1412180" lon="-3.5985980">
        <ele>388.6</ele>
        <time>2018-06-16T06:21:34Z</time>
      </trkpt>
      <trkpt lat="38.1412630" lon="-3.5985800">
        <ele>388.8</ele>
        <time>2018-06-16T06:21:35Z</time>
      </trkpt>
      <trkpt lat="38.1413090" lon="-3.5985640">
        <ele>389.0</ele>
        <time>2018-06-16T06:21:36Z</time>
      </trkpt>
      <trkpt lat="38.1413560" lon="-3.5985480">
        <ele>389.2</ele>
        <time>2018-06-16T06:21:37Z</time>
      </trkpt>
      <trkpt lat="38.1414020" lon="-3.5985330">
        <ele>389.2</ele>
        <time>2018-06-16T06:21:38Z</time>
      </trkpt>
      <trkpt lat="38.1414460" lon="-3.5985170">
        <ele>389.4</ele>
        <time>2018-06-16T06:21:39Z</time>
      </trkpt>
      <trkpt lat="38.1414900" lon="-3.5984980">
        <ele>389.6</ele>
        <time>2018-06-16T06:21:40Z</time>
      </trkpt>
      <trkpt lat="38.1415330" lon="-3.5984810">
        <ele>389.8</ele>
        <time>2018-06-16T06:21:41Z</time>
      </trkpt>
      <trkpt lat="38.1415750" lon="-3.5984640">
        <ele>390.0</ele>
        <time>2018-06-16T06:21:42Z</time>
      </trkpt>
      <trkpt lat="38.1416140" lon="-3.5984480">
        <ele>390.0</ele>
        <time>2018-06-16T06:21:43Z</time>
      </trkpt>
      <trkpt lat="38.1416530" lon="-3.5984310">
        <ele>390.2</ele>
        <time>2018-06-16T06:21:44Z</time>
      </trkpt>
      <trkpt lat="38.1416930" lon="-3.5984160">
        <ele>390.4</ele>
        <time>2018-06-16T06:21:45Z</time>
      </trkpt>
      <trkpt lat="38.1417330" lon="-3.5984010">
        <ele>390.6</ele>
        <time>2018-06-16T06:21:46Z</time>
      </trkpt>
      <trkpt lat="38.1417750" lon="-3.5983860">
        <ele>390.6</ele>
        <time>2018-06-16T06:21:47Z</time>
      </trkpt>
      <trkpt lat="38.1418160" lon="-3.5983730">
        <ele>390.8</ele>
        <time>2018-06-16T06:21:48Z</time>
      </trkpt>
      <trkpt lat="38.1418550" lon="-3.5983590">
        <ele>391.0</ele>
        <time>2018-06-16T06:21:49Z</time>
      </trkpt>
      <trkpt lat="38.1418950" lon="-3.5983450">
        <ele>391.2</ele>
        <time>2018-06-16T06:21:50Z</time>
      </trkpt>
      <trkpt lat="38.1419340" lon="-3.5983300">
        <ele>391.4</ele>
        <time>2018-06-16T06:21:51Z</time>
      </trkpt>
      <trkpt lat="38.1419730" lon="-3.5983190">
        <ele>391.6</ele>
        <time>2018-06-16T06:21:52Z</time>
      </trkpt>
      <trkpt lat="38.1420110" lon="-3.5983060">
        <ele>391.8</ele>
        <time>2018-06-16T06:21:53Z</time>
      </trkpt>
      <trkpt lat="38.1420500" lon="-3.5982910">
        <ele>391.8</ele>
        <time>2018-06-16T06:21:54Z</time>
      </trkpt>
      <trkpt lat="38.1420900" lon="-3.5982770">
        <ele>392.0</ele>
        <time>2018-06-16T06:21:55Z</time>
      </trkpt>
      <trkpt lat="38.1421300" lon="-3.5982630">
        <ele>392.0</ele>
        <time>2018-06-16T06:21:56Z</time>
      </trkpt>
      <trkpt lat="38.1421700" lon="-3.5982480">
        <ele>392.4</ele>
        <time>2018-06-16T06:21:57Z</time>
      </trkpt>
      <trkpt lat="38.1422080" lon="-3.5982330">
        <ele>392.4</ele>
        <time>2018-06-16T06:21:58Z</time>
      </trkpt>
      <trkpt lat="38.1422470" lon="-3.5982190">
        <ele>392.8</ele>
        <time>2018-06-16T06:21:59Z</time>
      </trkpt>
      <trkpt lat="38.1422860" lon="-3.5982060">
        <ele>392.8</ele>
        <time>2018-06-16T06:22:00Z</time>
      </trkpt>
      <trkpt lat="38.1423240" lon="-3.5981930">
        <ele>393.0</ele>
        <time>2018-06-16T06:22:01Z</time>
      </trkpt>
      <trkpt lat="38.1423620" lon="-3.5981790">
        <ele>393.2</ele>
        <time>2018-06-16T06:22:02Z</time>
      </trkpt>
      <trkpt lat="38.1424020" lon="-3.5981650">
        <ele>393.4</ele>
        <time>2018-06-16T06:22:03Z</time>
      </trkpt>
      <trkpt lat="38.1424400" lon="-3.5981500">
        <ele>393.6</ele>
        <time>2018-06-16T06:22:04Z</time>
      </trkpt>
      <trkpt lat="38.1424790" lon="-3.5981360">
        <ele>393.6</ele>
        <time>2018-06-16T06:22:05Z</time>
      </trkpt>
      <trkpt lat="38.1425190" lon="-3.5981220">
        <ele>393.8</ele>
        <time>2018-06-16T06:22:06Z</time>
      </trkpt>
      <trkpt lat="38.1425590" lon="-3.5981090">
        <ele>394.0</ele>
        <time>2018-06-16T06:22:07Z</time>
      </trkpt>
      <trkpt lat="38.1425980" lon="-3.5980960">
        <ele>394.2</ele>
        <time>2018-06-16T06:22:08Z</time>
      </trkpt>
      <trkpt lat="38.1426360" lon="-3.5980830">
        <ele>394.4</ele>
        <time>2018-06-16T06:22:09Z</time>
      </trkpt>
      <trkpt lat="38.1426750" lon="-3.5980690">
        <ele>394.4</ele>
        <time>2018-06-16T06:22:10Z</time>
      </trkpt>
      <trkpt lat="38.1427140" lon="-3.5980550">
        <ele>394.6</ele>
        <time>2018-06-16T06:22:11Z</time>
      </trkpt>
      <trkpt lat="38.1427530" lon="-3.5980410">
        <ele>394.8</ele>
        <time>2018-06-16T06:22:12Z</time>
      </trkpt>
      <trkpt lat="38.1427920" lon="-3.5980280">
        <ele>395.0</ele>
        <time>2018-06-16T06:22:13Z</time>
      </trkpt>
      <trkpt lat="38.1428310" lon="-3.5980150">
        <ele>395.0</ele>
        <time>2018-06-16T06:22:14Z</time>
      </trkpt>
      <trkpt lat="38.1429060" lon="-3.5979840">
        <ele>395.2</ele>
        <time>2018-06-16T06:22:15Z</time>
      </trkpt>
      <trkpt lat="38.1429060" lon="-3.5979840">
        <ele>395.4</ele>
        <time>2018-06-16T06:22:16Z</time>
      </trkpt>
      <trkpt lat="38.1429430" lon="-3.5979700">
        <ele>395.6</ele>
        <time>2018-06-16T06:22:17Z</time>
      </trkpt>
      <trkpt lat="38.1429790" lon="-3.5979590">
        <ele>395.6</ele>
        <time>2018-06-16T06:22:18Z</time>
      </trkpt>
      <trkpt lat="38.1430140" lon="-3.5979480">
        <ele>395.8</ele>
        <time>2018-06-16T06:22:19Z</time>
      </trkpt>
      <trkpt lat="38.1430500" lon="-3.5979370">
        <ele>396.0</ele>
        <time>2018-06-16T06:22:20Z</time>
      </trkpt>
      <trkpt lat="38.1430860" lon="-3.5979210">
        <ele>396.2</ele>
        <time>2018-06-16T06:22:21Z</time>
      </trkpt>
      <trkpt lat="38.1431220" lon="-3.5979060">
        <ele>396.4</ele>
        <time>2018-06-16T06:22:22Z</time>
      </trkpt>
      <trkpt lat="38.1431580" lon="-3.5978910">
        <ele>396.4</ele>
        <time>2018-06-16T06:22:23Z</time>
      </trkpt>
      <trkpt lat="38.1431950" lon="-3.5978780">
        <ele>396.6</ele>
        <time>2018-06-16T06:22:24Z</time>
      </trkpt>
      <trkpt lat="38.1432300" lon="-3.5978680">
        <ele>396.8</ele>
        <time>2018-06-16T06:22:25Z</time>
      </trkpt>
      <trkpt lat="38.1432650" lon="-3.5978630">
        <ele>396.8</ele>
        <time>2018-06-16T06:22:26Z</time>
      </trkpt>
      <trkpt lat="38.1432950" lon="-3.5978570">
        <ele>397.0</ele>
        <time>2018-06-16T06:22:27Z</time>
      </trkpt>
      <trkpt lat="38.1433190" lon="-3.5978470">
        <ele>397.2</ele>
        <time>2018-06-16T06:22:28Z</time>
      </trkpt>
      <trkpt lat="38.1433450" lon="-3.5978380">
        <ele>397.4</ele>
        <time>2018-06-16T06:22:29Z</time>
      </trkpt>
      <trkpt lat="38.1433750" lon="-3.5978290">
        <ele>397.4</ele>
        <time>2018-06-16T06:22:30Z</time>
      </trkpt>
      <trkpt lat="38.1434020" lon="-3.5978220">
        <ele>397.6</ele>
        <time>2018-06-16T06:22:31Z</time>
      </trkpt>
      <trkpt lat="38.1434290" lon="-3.5978170">
        <ele>397.8</ele>
        <time>2018-06-16T06:22:32Z</time>
      </trkpt>
      <trkpt lat="38.1434620" lon="-3.5977970">
        <ele>397.8</ele>
        <time>2018-06-16T06:22:33Z</time>
      </trkpt>
      <trkpt lat="38.1434730" lon="-3.5977890">
        <ele>397.8</ele>
        <time>2018-06-16T06:22:34Z</time>
      </trkpt>
      <trkpt lat="38.1434980" lon="-3.5977770">
        <ele>398.0</ele>
        <time>2018-06-16T06:22:35Z</time>
      </trkpt>
      <trkpt lat="38.1435220" lon="-3.5977600">
        <ele>398.0</ele>
        <time>2018-06-16T06:22:36Z</time>
      </trkpt>
      <trkpt lat="38.1435490" lon="-3.5977390">
        <ele>398.2</ele>
        <time>2018-06-16T06:22:37Z</time>
      </trkpt>
      <trkpt lat="38.1435780" lon="-3.5977200">
        <ele>398.2</ele>
        <time>2018-06-16T06:22:38Z</time>
      </trkpt>
      <trkpt lat="38.1436050" lon="-3.5977000">
        <ele>398.4</ele>
        <time>2018-06-16T06:22:39Z</time>
      </trkpt>
      <trkpt lat="38.1436320" lon="-3.5976790">
        <ele>398.4</ele>
        <time>2018-06-16T06:22:40Z</time>
      </trkpt>
      <trkpt lat="38.1436570" lon="-3.5976580">
        <ele>398.4</ele>
        <time>2018-06-16T06:22:41Z</time>
      </trkpt>
      <trkpt lat="38.1436840" lon="-3.5976360">
        <ele>398.4</ele>
        <time>2018-06-16T06:22:42Z</time>
      </trkpt>
      <trkpt lat="38.1437100" lon="-3.5976150">
        <ele>398.4</ele>
        <time>2018-06-16T06:22:43Z</time>
      </trkpt>
      <trkpt lat="38.1437410" lon="-3.5975920">
        <ele>398.4</ele>
        <time>2018-06-16T06:22:44Z</time>
      </trkpt>
      <trkpt lat="38.1437850" lon="-3.5975530">
        <ele>398.4</ele>
        <time>2018-06-16T06:22:45Z</time>
      </trkpt>
      <trkpt lat="38.1438000" lon="-3.5975390">
        <ele>398.2</ele>
        <time>2018-06-16T06:22:46Z</time>
      </trkpt>
      <trkpt lat="38.1438330" lon="-3.5975100">
        <ele>398.2</ele>
        <time>2018-06-16T06:22:47Z</time>
      </trkpt>
      <trkpt lat="38.1438660" lon="-3.5974820">
        <ele>398.0</ele>
        <time>2018-06-16T06:22:48Z</time>
      </trkpt>
      <trkpt lat="38.1439000" lon="-3.5974510">
        <ele>398.0</ele>
        <time>2018-06-16T06:22:49Z</time>
      </trkpt>
      <trkpt lat="38.1439340" lon="-3.5974170">
        <ele>398.0</ele>
        <time>2018-06-16T06:22:50Z</time>
      </trkpt>
      <trkpt lat="38.1439710" lon="-3.5973830">
        <ele>397.8</ele>
        <time>2018-06-16T06:22:51Z</time>
      </trkpt>
      <trkpt lat="38.1440070" lon="-3.5973490">
        <ele>397.6</ele>
        <time>2018-06-16T06:22:52Z</time>
      </trkpt>
      <trkpt lat="38.1440420" lon="-3.5973140">
        <ele>397.6</ele>
        <time>2018-06-16T06:22:53Z</time>
      </trkpt>
      <trkpt lat="38.1440790" lon="-3.5972800">
        <ele>397.4</ele>
        <time>2018-06-16T06:22:54Z</time>
      </trkpt>
      <trkpt lat="38.1441150" lon="-3.5972460">
        <ele>397.4</ele>
        <time>2018-06-16T06:22:55Z</time>
      </trkpt>
      <trkpt lat="38.1441460" lon="-3.5972170">
        <ele>397.2</ele>
        <time>2018-06-16T06:22:56Z</time>
      </trkpt>
      <trkpt lat="38.1441670" lon="-3.5971940">
        <ele>397.2</ele>
        <time>2018-06-16T06:22:57Z</time>
      </trkpt>
      <trkpt lat="38.1441860" lon="-3.5971810">
        <ele>397.4</ele>
        <time>2018-06-16T06:22:58Z</time>
      </trkpt>
      <trkpt lat="38.1441950" lon="-3.5971760">
        <ele>397.4</ele>
        <time>2018-06-16T06:22:59Z</time>
      </trkpt>
      <trkpt lat="38.1442050" lon="-3.5971710">
        <ele>397.4</ele>
        <time>2018-06-16T06:23:00Z</time>
      </trkpt>
      <trkpt lat="38.1442150" lon="-3.5971660">
        <ele>397.4</ele>
        <time>2018-06-16T06:23:01Z</time>
      </trkpt>
      <trkpt lat="38.1442240" lon="-3.5971610">
        <ele>397.4</ele>
        <time>2018-06-16T06:23:02Z</time>
      </trkpt>
      <trkpt lat="38.1442340" lon="-3.5971560">
        <ele>397.2</ele>
        <time>2018-06-16T06:23:03Z</time>
      </trkpt>
      <trkpt lat="38.1442440" lon="-3.5971510">
        <ele>397.2</ele>
        <time>2018-06-16T06:23:04Z</time>
      </trkpt>
      <trkpt lat="38.1442530" lon="-3.5971460">
        <ele>397.4</ele>
        <time>2018-06-16T06:23:05Z</time>
      </trkpt>
      <trkpt lat="38.1442630" lon="-3.5971410">
        <ele>397.4</ele>
        <time>2018-06-16T06:23:06Z</time>
      </trkpt>
      <trkpt lat="38.1442720" lon="-3.5971360">
        <ele>397.4</ele>
        <time>2018-06-16T06:23:07Z</time>
      </trkpt>
      <trkpt lat="38.1442820" lon="-3.5971310">
        <ele>397.4</ele>
        <time>2018-06-16T06:23:08Z</time>
      </trkpt>
      <trkpt lat="38.1442920" lon="-3.5971260">
        <ele>397.4</ele>
        <time>2018-06-16T06:23:09Z</time>
      </trkpt>
      <trkpt lat="38.1443010" lon="-3.5971210">
        <ele>397.0</ele>
        <time>2018-06-16T06:24:03Z</time>
      </trkpt>
      <trkpt lat="38.1443110" lon="-3.5971160">
        <ele>396.8</ele>
        <time>2018-06-16T06:24:04Z</time>
      </trkpt>
      <trkpt lat="38.1443350" lon="-3.5970920">
        <ele>396.8</ele>
        <time>2018-06-16T06:24:05Z</time>
      </trkpt>
      <trkpt lat="38.1443930" lon="-3.5970330">
        <ele>396.8</ele>
        <time>2018-06-16T06:24:06Z</time>
      </trkpt>
      <trkpt lat="38.1443930" lon="-3.5970330">
        <ele>396.8</ele>
        <time>2018-06-16T06:24:07Z</time>
      </trkpt>
      <trkpt lat="38.1444540" lon="-3.5969670">
        <ele>396.8</ele>
        <time>2018-06-16T06:24:08Z</time>
      </trkpt>
      <trkpt lat="38.1444540" lon="-3.5969670">
        <ele>396.8</ele>
        <time>2018-06-16T06:24:09Z</time>
      </trkpt>
      <trkpt lat="38.1445170" lon="-3.5968910">
        <ele>396.6</ele>
        <time>2018-06-16T06:24:10Z</time>
      </trkpt>
      <trkpt lat="38.1445470" lon="-3.5968510">
        <ele>396.8</ele>
        <time>2018-06-16T06:24:11Z</time>
      </trkpt>
      <trkpt lat="38.1445470" lon="-3.5968510">
        <ele>396.8</ele>
        <time>2018-06-16T06:24:12Z</time>
      </trkpt>
      <trkpt lat="38.1445790" lon="-3.5968120">
        <ele>396.8</ele>
        <time>2018-06-16T06:24:13Z</time>
      </trkpt>
      <trkpt lat="38.1446090" lon="-3.5967720">
        <ele>396.8</ele>
        <time>2018-06-16T06:24:14Z</time>
      </trkpt>
      <trkpt lat="38.1446410" lon="-3.5967320">
        <ele>396.8</ele>
        <time>2018-06-16T06:24:15Z</time>
      </trkpt>
      <trkpt lat="38.1446720" lon="-3.5966880">
        <ele>396.6</ele>
        <time>2018-06-16T06:24:16Z</time>
      </trkpt>
      <trkpt lat="38.1447010" lon="-3.5966430">
        <ele>396.6</ele>
        <time>2018-06-16T06:24:17Z</time>
      </trkpt>
      <trkpt lat="38.1447280" lon="-3.5965960">
        <ele>396.8</ele>
        <time>2018-06-16T06:24:18Z</time>
      </trkpt>
      <trkpt lat="38.1447590" lon="-3.5965510">
        <ele>396.6</ele>
        <time>2018-06-16T06:24:19Z</time>
      </trkpt>
      <trkpt lat="38.1447890" lon="-3.5965060">
        <ele>396.8</ele>
        <time>2018-06-16T06:24:20Z</time>
      </trkpt>
      <trkpt lat="38.1448180" lon="-3.5964630">
        <ele>396.8</ele>
        <time>2018-06-16T06:24:21Z</time>
      </trkpt>
      <trkpt lat="38.1448460" lon="-3.5964190">
        <ele>396.8</ele>
        <time>2018-06-16T06:24:22Z</time>
      </trkpt>
      <trkpt lat="38.1448730" lon="-3.5963750">
        <ele>397.0</ele>
        <time>2018-06-16T06:24:23Z</time>
      </trkpt>
      <trkpt lat="38.1449010" lon="-3.5963330">
        <ele>397.0</ele>
        <time>2018-06-16T06:24:24Z</time>
      </trkpt>
      <trkpt lat="38.1449290" lon="-3.5962900">
        <ele>397.0</ele>
        <time>2018-06-16T06:24:25Z</time>
      </trkpt>
      <trkpt lat="38.1449580" lon="-3.5962480">
        <ele>397.2</ele>
        <time>2018-06-16T06:24:26Z</time>
      </trkpt>
      <trkpt lat="38.1449880" lon="-3.5962070">
        <ele>397.2</ele>
        <time>2018-06-16T06:24:27Z</time>
      </trkpt>
      <trkpt lat="38.1450140" lon="-3.5961660">
        <ele>397.4</ele>
        <time>2018-06-16T06:24:28Z</time>
      </trkpt>
      <trkpt lat="38.1450400" lon="-3.5961230">
        <ele>397.6</ele>
        <time>2018-06-16T06:24:29Z</time>
      </trkpt>
      <trkpt lat="38.1450640" lon="-3.5960810">
        <ele>397.6</ele>
        <time>2018-06-16T06:24:30Z</time>
      </trkpt>
      <trkpt lat="38.1450900" lon="-3.5960400">
        <ele>397.8</ele>
        <time>2018-06-16T06:24:31Z</time>
      </trkpt>
      <trkpt lat="38.1451170" lon="-3.5960000">
        <ele>398.0</ele>
        <time>2018-06-16T06:24:32Z</time>
      </trkpt>
      <trkpt lat="38.1451450" lon="-3.5959610">
        <ele>398.0</ele>
        <time>2018-06-16T06:24:33Z</time>
      </trkpt>
      <trkpt lat="38.1451750" lon="-3.5959260">
        <ele>398.0</ele>
        <time>2018-06-16T06:24:34Z</time>
      </trkpt>
      <trkpt lat="38.1452080" lon="-3.5958910">
        <ele>398.0</ele>
        <time>2018-06-16T06:24:35Z</time>
      </trkpt>
      <trkpt lat="38.1452420" lon="-3.5958570">
        <ele>397.8</ele>
        <time>2018-06-16T06:24:36Z</time>
      </trkpt>
      <trkpt lat="38.1452780" lon="-3.5958260">
        <ele>397.6</ele>
        <time>2018-06-16T06:24:37Z</time>
      </trkpt>
      <trkpt lat="38.1453160" lon="-3.5957950">
        <ele>397.2</ele>
        <time>2018-06-16T06:24:38Z</time>
      </trkpt>
      <trkpt lat="38.1453570" lon="-3.5957640">
        <ele>396.8</ele>
        <time>2018-06-16T06:24:39Z</time>
      </trkpt>
      <trkpt lat="38.1454530" lon="-3.5956990">
        <ele>396.4</ele>
        <time>2018-06-16T06:24:40Z</time>
      </trkpt>
      <trkpt lat="38.1455070" lon="-3.5956630">
        <ele>396.0</ele>
        <time>2018-06-16T06:24:41Z</time>
      </trkpt>
      <trkpt lat="38.1455070" lon="-3.5956630">
        <ele>396.0</ele>
        <time>2018-06-16T06:24:42Z</time>
      </trkpt>
      <trkpt lat="38.1455650" lon="-3.5956210">
        <ele>395.6</ele>
        <time>2018-06-16T06:24:43Z</time>
      </trkpt>
      <trkpt lat="38.1456270" lon="-3.5955790">
        <ele>395.2</ele>
        <time>2018-06-16T06:24:44Z</time>
      </trkpt>
      <trkpt lat="38.1456900" lon="-3.5955380">
        <ele>395.0</ele>
        <time>2018-06-16T06:24:45Z</time>
      </trkpt>
      <trkpt lat="38.1457550" lon="-3.5954950">
        <ele>394.6</ele>
        <time>2018-06-16T06:24:46Z</time>
      </trkpt>
      <trkpt lat="38.1458220" lon="-3.5954510">
        <ele>394.0</ele>
        <time>2018-06-16T06:24:47Z</time>
      </trkpt>
      <trkpt lat="38.1458920" lon="-3.5954090">
        <ele>393.8</ele>
        <time>2018-06-16T06:24:48Z</time>
      </trkpt>
      <trkpt lat="38.1459630" lon="-3.5953660">
        <ele>393.4</ele>
        <time>2018-06-16T06:24:49Z</time>
      </trkpt>
      <trkpt lat="38.1460360" lon="-3.5953220">
        <ele>393.0</ele>
        <time>2018-06-16T06:24:50Z</time>
      </trkpt>
      <trkpt lat="38.1461080" lon="-3.5952760">
        <ele>392.6</ele>
        <time>2018-06-16T06:24:51Z</time>
      </trkpt>
      <trkpt lat="38.1461820" lon="-3.5952290">
        <ele>392.0</ele>
        <time>2018-06-16T06:24:52Z</time>
      </trkpt>
      <trkpt lat="38.1462570" lon="-3.5951800">
        <ele>391.6</ele>
        <time>2018-06-16T06:24:53Z</time>
      </trkpt>
      <trkpt lat="38.1463340" lon="-3.5951310">
        <ele>391.2</ele>
        <time>2018-06-16T06:24:54Z</time>
      </trkpt>
      <trkpt lat="38.1464130" lon="-3.5950810">
        <ele>390.8</ele>
        <time>2018-06-16T06:24:55Z</time>
      </trkpt>
      <trkpt lat="38.1464920" lon="-3.5950290">
        <ele>390.2</ele>
        <time>2018-06-16T06:24:56Z</time>
      </trkpt>
      <trkpt lat="38.1465730" lon="-3.5949780">
        <ele>389.8</ele>
        <time>2018-06-16T06:24:57Z</time>
      </trkpt>
      <trkpt lat="38.1466550" lon="-3.5949260">
        <ele>389.2</ele>
        <time>2018-06-16T06:24:58Z</time>
      </trkpt>
      <trkpt lat="38.1467360" lon="-3.5948720">
        <ele>388.8</ele>
        <time>2018-06-16T06:24:59Z</time>
      </trkpt>
      <trkpt lat="38.1468170" lon="-3.5948180">
        <ele>388.6</ele>
        <time>2018-06-16T06:25:00Z</time>
      </trkpt>
      <trkpt lat="38.1468990" lon="-3.5947640">
        <ele>388.2</ele>
        <time>2018-06-16T06:25:01Z</time>
      </trkpt>
      <trkpt lat="38.1469810" lon="-3.5947130">
        <ele>387.8</ele>
        <time>2018-06-16T06:25:02Z</time>
      </trkpt>
      <trkpt lat="38.1470620" lon="-3.5946580">
        <ele>387.6</ele>
        <time>2018-06-16T06:25:03Z</time>
      </trkpt>
      <trkpt lat="38.1471430" lon="-3.5946060">
        <ele>387.4</ele>
        <time>2018-06-16T06:25:04Z</time>
      </trkpt>
      <trkpt lat="38.1473030" lon="-3.5945070">
        <ele>387.2</ele>
        <time>2018-06-16T06:25:05Z</time>
      </trkpt>
      <trkpt lat="38.1473830" lon="-3.5944610">
        <ele>387.2</ele>
        <time>2018-06-16T06:25:06Z</time>
      </trkpt>
      <trkpt lat="38.1474620" lon="-3.5944160">
        <ele>387.0</ele>
        <time>2018-06-16T06:25:07Z</time>
      </trkpt>
      <trkpt lat="38.1474620" lon="-3.5944160">
        <ele>386.8</ele>
        <time>2018-06-16T06:25:08Z</time>
      </trkpt>
      <trkpt lat="38.1475400" lon="-3.5943770">
        <ele>386.8</ele>
        <time>2018-06-16T06:25:09Z</time>
      </trkpt>
      <trkpt lat="38.1476150" lon="-3.5943460">
        <ele>386.8</ele>
        <time>2018-06-16T06:25:10Z</time>
      </trkpt>
      <trkpt lat="38.1476930" lon="-3.5943270">
        <ele>387.0</ele>
        <time>2018-06-16T06:25:11Z</time>
      </trkpt>
      <trkpt lat="38.1477680" lon="-3.5943150">
        <ele>386.8</ele>
        <time>2018-06-16T06:25:12Z</time>
      </trkpt>
      <trkpt lat="38.1478440" lon="-3.5943080">
        <ele>386.8</ele>
        <time>2018-06-16T06:25:13Z</time>
      </trkpt>
      <trkpt lat="38.1479190" lon="-3.5943040">
        <ele>387.0</ele>
        <time>2018-06-16T06:25:14Z</time>
      </trkpt>
      <trkpt lat="38.1479900" lon="-3.5943000">
        <ele>387.2</ele>
        <time>2018-06-16T06:25:15Z</time>
      </trkpt>
      <trkpt lat="38.1480590" lon="-3.5942960">
        <ele>387.2</ele>
        <time>2018-06-16T06:25:16Z</time>
      </trkpt>
      <trkpt lat="38.1481300" lon="-3.5942930">
        <ele>387.2</ele>
        <time>2018-06-16T06:25:17Z</time>
      </trkpt>
      <trkpt lat="38.1481970" lon="-3.5942890">
        <ele>387.2</ele>
        <time>2018-06-16T06:25:18Z</time>
      </trkpt>
      <trkpt lat="38.1482620" lon="-3.5942870">
        <ele>387.4</ele>
        <time>2018-06-16T06:25:19Z</time>
      </trkpt>
      <trkpt lat="38.1483270" lon="-3.5942870">
        <ele>387.6</ele>
        <time>2018-06-16T06:25:20Z</time>
      </trkpt>
      <trkpt lat="38.1484570" lon="-3.5942850">
        <ele>387.6</ele>
        <time>2018-06-16T06:25:21Z</time>
      </trkpt>
      <trkpt lat="38.1485220" lon="-3.5942840">
        <ele>387.6</ele>
        <time>2018-06-16T06:25:22Z</time>
      </trkpt>
      <trkpt lat="38.1485850" lon="-3.5942820">
        <ele>387.8</ele>
        <time>2018-06-16T06:25:23Z</time>
      </trkpt>
      <trkpt lat="38.1486490" lon="-3.5942760">
        <ele>387.8</ele>
        <time>2018-06-16T06:25:24Z</time>
      </trkpt>
      <trkpt lat="38.1487090" lon="-3.5942620">
        <ele>387.8</ele>
        <time>2018-06-16T06:25:25Z</time>
      </trkpt>
      <trkpt lat="38.1487680" lon="-3.5942470">
        <ele>387.8</ele>
        <time>2018-06-16T06:25:26Z</time>
      </trkpt>
      <trkpt lat="38.1488260" lon="-3.5942300">
        <ele>388.0</ele>
        <time>2018-06-16T06:25:27Z</time>
      </trkpt>
      <trkpt lat="38.1488830" lon="-3.5942130">
        <ele>388.0</ele>
        <time>2018-06-16T06:25:28Z</time>
      </trkpt>
      <trkpt lat="38.1489530" lon="-3.5941910">
        <ele>388.2</ele>
        <time>2018-06-16T06:25:29Z</time>
      </trkpt>
      <trkpt lat="38.1489670" lon="-3.5941860">
        <ele>388.2</ele>
        <time>2018-06-16T06:25:30Z</time>
      </trkpt>
      <trkpt lat="38.1489940" lon="-3.5941760">
        <ele>388.2</ele>
        <time>2018-06-16T06:25:31Z</time>
      </trkpt>
      <trkpt lat="38.1490490" lon="-3.5941590">
        <ele>388.4</ele>
        <time>2018-06-16T06:25:32Z</time>
      </trkpt>
      <trkpt lat="38.1491050" lon="-3.5941400">
        <ele>388.4</ele>
        <time>2018-06-16T06:25:33Z</time>
      </trkpt>
      <trkpt lat="38.1491600" lon="-3.5941210">
        <ele>388.4</ele>
        <time>2018-06-16T06:25:34Z</time>
      </trkpt>
      <trkpt lat="38.1492160" lon="-3.5941030">
        <ele>388.6</ele>
        <time>2018-06-16T06:25:35Z</time>
      </trkpt>
      <trkpt lat="38.1492730" lon="-3.5940850">
        <ele>388.6</ele>
        <time>2018-06-16T06:25:36Z</time>
      </trkpt>
      <trkpt lat="38.1493290" lon="-3.5940670">
        <ele>388.6</ele>
        <time>2018-06-16T06:25:37Z</time>
      </trkpt>
      <trkpt lat="38.1493860" lon="-3.5940470">
        <ele>388.8</ele>
        <time>2018-06-16T06:25:38Z</time>
      </trkpt>
      <trkpt lat="38.1494420" lon="-3.5940280">
        <ele>389.0</ele>
        <time>2018-06-16T06:25:39Z</time>
      </trkpt>
      <trkpt lat="38.1495470" lon="-3.5939920">
        <ele>389.0</ele>
        <time>2018-06-16T06:25:40Z</time>
      </trkpt>
      <trkpt lat="38.1495470" lon="-3.5939920">
        <ele>389.2</ele>
        <time>2018-06-16T06:25:41Z</time>
      </trkpt>
      <trkpt lat="38.1496550" lon="-3.5939570">
        <ele>389.4</ele>
        <time>2018-06-16T06:25:42Z</time>
      </trkpt>
      <trkpt lat="38.1497090" lon="-3.5939390">
        <ele>389.6</ele>
        <time>2018-06-16T06:25:43Z</time>
      </trkpt>
      <trkpt lat="38.1497580" lon="-3.5939220">
        <ele>390.0</ele>
        <time>2018-06-16T06:25:44Z</time>
      </trkpt>
      <trkpt lat="38.1498070" lon="-3.5939060">
        <ele>390.2</ele>
        <time>2018-06-16T06:25:45Z</time>
      </trkpt>
      <trkpt lat="38.1498070" lon="-3.5939060">
        <ele>390.6</ele>
        <time>2018-06-16T06:25:46Z</time>
      </trkpt>
      <trkpt lat="38.1498980" lon="-3.5938710">
        <ele>390.8</ele>
        <time>2018-06-16T06:25:47Z</time>
      </trkpt>
      <trkpt lat="38.1499430" lon="-3.5938530">
        <ele>391.0</ele>
        <time>2018-06-16T06:25:48Z</time>
      </trkpt>
      <trkpt lat="38.1499870" lon="-3.5938350">
        <ele>391.4</ele>
        <time>2018-06-16T06:25:49Z</time>
      </trkpt>
      <trkpt lat="38.1500330" lon="-3.5938190">
        <ele>391.6</ele>
        <time>2018-06-16T06:25:50Z</time>
      </trkpt>
      <trkpt lat="38.1500790" lon="-3.5938030">
        <ele>391.8</ele>
        <time>2018-06-16T06:25:51Z</time>
      </trkpt>
      <trkpt lat="38.1500790" lon="-3.5938030">
        <ele>392.0</ele>
        <time>2018-06-16T06:25:52Z</time>
      </trkpt>
      <trkpt lat="38.1501240" lon="-3.5937890">
        <ele>392.4</ele>
        <time>2018-06-16T06:25:53Z</time>
      </trkpt>
      <trkpt lat="38.1501700" lon="-3.5937750">
        <ele>392.6</ele>
        <time>2018-06-16T06:25:54Z</time>
      </trkpt>
      <trkpt lat="38.1502150" lon="-3.5937610">
        <ele>392.8</ele>
        <time>2018-06-16T06:25:55Z</time>
      </trkpt>
      <trkpt lat="38.1502590" lon="-3.5937460">
        <ele>393.0</ele>
        <time>2018-06-16T06:25:56Z</time>
      </trkpt>
      <trkpt lat="38.1503020" lon="-3.5937320">
        <ele>393.2</ele>
        <time>2018-06-16T06:25:57Z</time>
      </trkpt>
      <trkpt lat="38.1503450" lon="-3.5937150">
        <ele>393.4</ele>
        <time>2018-06-16T06:25:58Z</time>
      </trkpt>
      <trkpt lat="38.1503890" lon="-3.5936970">
        <ele>393.4</ele>
        <time>2018-06-16T06:25:59Z</time>
      </trkpt>
      <trkpt lat="38.1504320" lon="-3.5936770">
        <ele>393.6</ele>
        <time>2018-06-16T06:26:00Z</time>
      </trkpt>
      <trkpt lat="38.1504760" lon="-3.5936580">
        <ele>393.6</ele>
        <time>2018-06-16T06:26:01Z</time>
      </trkpt>
      <trkpt lat="38.1505200" lon="-3.5936370">
        <ele>393.6</ele>
        <time>2018-06-16T06:26:02Z</time>
      </trkpt>
      <trkpt lat="38.1505630" lon="-3.5936140">
        <ele>393.8</ele>
        <time>2018-06-16T06:26:03Z</time>
      </trkpt>
      <trkpt lat="38.1506500" lon="-3.5935660">
        <ele>393.8</ele>
        <time>2018-06-16T06:26:04Z</time>
      </trkpt>
      <trkpt lat="38.1506500" lon="-3.5935660">
        <ele>394.0</ele>
        <time>2018-06-16T06:26:05Z</time>
      </trkpt>
      <trkpt lat="38.1507360" lon="-3.5935110">
        <ele>394.0</ele>
        <time>2018-06-16T06:26:06Z</time>
      </trkpt>
      <trkpt lat="38.1507360" lon="-3.5935110">
        <ele>394.0</ele>
        <time>2018-06-16T06:26:07Z</time>
      </trkpt>
      <trkpt lat="38.1508230" lon="-3.5934520">
        <ele>394.2</ele>
        <time>2018-06-16T06:26:08Z</time>
      </trkpt>
      <trkpt lat="38.1508670" lon="-3.5934210">
        <ele>394.2</ele>
        <time>2018-06-16T06:26:09Z</time>
      </trkpt>
      <trkpt lat="38.1509110" lon="-3.5933920">
        <ele>394.4</ele>
        <time>2018-06-16T06:26:10Z</time>
      </trkpt>
      <trkpt lat="38.1509550" lon="-3.5933620">
        <ele>394.4</ele>
        <time>2018-06-16T06:26:11Z</time>
      </trkpt>
      <trkpt lat="38.1509990" lon="-3.5933320">
        <ele>394.6</ele>
        <time>2018-06-16T06:26:12Z</time>
      </trkpt>
      <trkpt lat="38.1510440" lon="-3.5933010">
        <ele>394.4</ele>
        <time>2018-06-16T06:26:13Z</time>
      </trkpt>
      <trkpt lat="38.1510880" lon="-3.5932690">
        <ele>394.6</ele>
        <time>2018-06-16T06:26:14Z</time>
      </trkpt>
      <trkpt lat="38.1511330" lon="-3.5932380">
        <ele>394.6</ele>
        <time>2018-06-16T06:26:15Z</time>
      </trkpt>
      <trkpt lat="38.1511770" lon="-3.5932060">
        <ele>394.8</ele>
        <time>2018-06-16T06:26:16Z</time>
      </trkpt>
      <trkpt lat="38.1512210" lon="-3.5931760">
        <ele>394.8</ele>
        <time>2018-06-16T06:26:17Z</time>
      </trkpt>
      <trkpt lat="38.1512650" lon="-3.5931450">
        <ele>395.0</ele>
        <time>2018-06-16T06:26:18Z</time>
      </trkpt>
      <trkpt lat="38.1512650" lon="-3.5931450">
        <ele>395.2</ele>
        <time>2018-06-16T06:26:19Z</time>
      </trkpt>
      <trkpt lat="38.1513090" lon="-3.5931150">
        <ele>395.2</ele>
        <time>2018-06-16T06:26:20Z</time>
      </trkpt>
      <trkpt lat="38.1513510" lon="-3.5930850">
        <ele>395.2</ele>
        <time>2018-06-16T06:26:21Z</time>
      </trkpt>
      <trkpt lat="38.1513900" lon="-3.5930550">
        <ele>395.4</ele>
        <time>2018-06-16T06:26:22Z</time>
      </trkpt>
      <trkpt lat="38.1514310" lon="-3.5930250">
        <ele>395.6</ele>
        <time>2018-06-16T06:26:23Z</time>
      </trkpt>
      <trkpt lat="38.1514690" lon="-3.5929980">
        <ele>395.6</ele>
        <time>2018-06-16T06:26:24Z</time>
      </trkpt>
      <trkpt lat="38.1515070" lon="-3.5929730">
        <ele>395.8</ele>
        <time>2018-06-16T06:26:25Z</time>
      </trkpt>
      <trkpt lat="38.1515450" lon="-3.5929440">
        <ele>396.0</ele>
        <time>2018-06-16T06:26:26Z</time>
      </trkpt>
      <trkpt lat="38.1515820" lon="-3.5929170">
        <ele>396.0</ele>
        <time>2018-06-16T06:26:27Z</time>
      </trkpt>
      <trkpt lat="38.1516210" lon="-3.5928940">
        <ele>396.2</ele>
        <time>2018-06-16T06:26:28Z</time>
      </trkpt>
      <trkpt lat="38.1516630" lon="-3.5928730">
        <ele>396.4</ele>
        <time>2018-06-16T06:26:29Z</time>
      </trkpt>
      <trkpt lat="38.1517060" lon="-3.5928530">
        <ele>396.4</ele>
        <time>2018-06-16T06:26:30Z</time>
      </trkpt>
      <trkpt lat="38.1517510" lon="-3.5928300">
        <ele>396.4</ele>
        <time>2018-06-16T06:26:31Z</time>
      </trkpt>
      <trkpt lat="38.1517930" lon="-3.5928040">
        <ele>396.6</ele>
        <time>2018-06-16T06:26:32Z</time>
      </trkpt>
      <trkpt lat="38.1518350" lon="-3.5927760">
        <ele>396.8</ele>
        <time>2018-06-16T06:26:33Z</time>
      </trkpt>
      <trkpt lat="38.1518750" lon="-3.5927460">
        <ele>396.8</ele>
        <time>2018-06-16T06:26:34Z</time>
      </trkpt>
      <trkpt lat="38.1519160" lon="-3.5927160">
        <ele>397.0</ele>
        <time>2018-06-16T06:26:35Z</time>
      </trkpt>
      <trkpt lat="38.1520000" lon="-3.5926560">
        <ele>397.0</ele>
        <time>2018-06-16T06:26:36Z</time>
      </trkpt>
      <trkpt lat="38.1520420" lon="-3.5926260">
        <ele>397.0</ele>
        <time>2018-06-16T06:26:37Z</time>
      </trkpt>
      <trkpt lat="38.1520840" lon="-3.5925960">
        <ele>397.2</ele>
        <time>2018-06-16T06:26:38Z</time>
      </trkpt>
      <trkpt lat="38.1521270" lon="-3.5925650">
        <ele>397.2</ele>
        <time>2018-06-16T06:26:39Z</time>
      </trkpt>
      <trkpt lat="38.1521690" lon="-3.5925320">
        <ele>397.4</ele>
        <time>2018-06-16T06:26:40Z</time>
      </trkpt>
      <trkpt lat="38.1521690" lon="-3.5925320">
        <ele>397.4</ele>
        <time>2018-06-16T06:26:41Z</time>
      </trkpt>
      <trkpt lat="38.1522100" lon="-3.5925000">
        <ele>397.6</ele>
        <time>2018-06-16T06:26:42Z</time>
      </trkpt>
      <trkpt lat="38.1522500" lon="-3.5924680">
        <ele>397.6</ele>
        <time>2018-06-16T06:26:43Z</time>
      </trkpt>
      <trkpt lat="38.1522930" lon="-3.5924390">
        <ele>397.6</ele>
        <time>2018-06-16T06:26:44Z</time>
      </trkpt>
      <trkpt lat="38.1523340" lon="-3.5924080">
        <ele>397.6</ele>
        <time>2018-06-16T06:26:45Z</time>
      </trkpt>
      <trkpt lat="38.1523760" lon="-3.5923750">
        <ele>397.8</ele>
        <time>2018-06-16T06:26:46Z</time>
      </trkpt>
      <trkpt lat="38.1524180" lon="-3.5923430">
        <ele>397.8</ele>
        <time>2018-06-16T06:26:47Z</time>
      </trkpt>
      <trkpt lat="38.1524600" lon="-3.5923130">
        <ele>398.0</ele>
        <time>2018-06-16T06:26:48Z</time>
      </trkpt>
      <trkpt lat="38.1525030" lon="-3.5922840">
        <ele>398.2</ele>
        <time>2018-06-16T06:26:49Z</time>
      </trkpt>
      <trkpt lat="38.1525460" lon="-3.5922550">
        <ele>398.2</ele>
        <time>2018-06-16T06:26:50Z</time>
      </trkpt>
      <trkpt lat="38.1525890" lon="-3.5922240">
        <ele>398.2</ele>
        <time>2018-06-16T06:26:51Z</time>
      </trkpt>
      <trkpt lat="38.1526310" lon="-3.5921920">
        <ele>398.4</ele>
        <time>2018-06-16T06:26:52Z</time>
      </trkpt>
      <trkpt lat="38.1526750" lon="-3.5921630">
        <ele>398.4</ele>
        <time>2018-06-16T06:26:53Z</time>
      </trkpt>
      <trkpt lat="38.1527190" lon="-3.5921360">
        <ele>398.6</ele>
        <time>2018-06-16T06:26:54Z</time>
      </trkpt>
      <trkpt lat="38.1527640" lon="-3.5921100">
        <ele>398.8</ele>
        <time>2018-06-16T06:26:55Z</time>
      </trkpt>
      <trkpt lat="38.1528080" lon="-3.5920840">
        <ele>398.8</ele>
        <time>2018-06-16T06:26:56Z</time>
      </trkpt>
      <trkpt lat="38.1528520" lon="-3.5920600">
        <ele>399.0</ele>
        <time>2018-06-16T06:26:57Z</time>
      </trkpt>
      <trkpt lat="38.1528950" lon="-3.5920360">
        <ele>399.0</ele>
        <time>2018-06-16T06:26:58Z</time>
      </trkpt>
      <trkpt lat="38.1529380" lon="-3.5920140">
        <ele>399.2</ele>
        <time>2018-06-16T06:26:59Z</time>
      </trkpt>
      <trkpt lat="38.1529810" lon="-3.5919900">
        <ele>399.2</ele>
        <time>2018-06-16T06:27:00Z</time>
      </trkpt>
      <trkpt lat="38.1530230" lon="-3.5919690">
        <ele>399.2</ele>
        <time>2018-06-16T06:27:01Z</time>
      </trkpt>
      <trkpt lat="38.1531040" lon="-3.5919310">
        <ele>399.4</ele>
        <time>2018-06-16T06:27:02Z</time>
      </trkpt>
      <trkpt lat="38.1531040" lon="-3.5919310">
        <ele>399.4</ele>
        <time>2018-06-16T06:27:03Z</time>
      </trkpt>
      <trkpt lat="38.1531870" lon="-3.5918900">
        <ele>399.4</ele>
        <time>2018-06-16T06:27:04Z</time>
      </trkpt>
      <trkpt lat="38.1531870" lon="-3.5918900">
        <ele>399.6</ele>
        <time>2018-06-16T06:27:05Z</time>
      </trkpt>
      <trkpt lat="38.1532730" lon="-3.5918540">
        <ele>399.6</ele>
        <time>2018-06-16T06:27:06Z</time>
      </trkpt>
      <trkpt lat="38.1532730" lon="-3.5918540">
        <ele>399.6</ele>
        <time>2018-06-16T06:27:07Z</time>
      </trkpt>
      <trkpt lat="38.1533620" lon="-3.5918150">
        <ele>399.6</ele>
        <time>2018-06-16T06:27:08Z</time>
      </trkpt>
      <trkpt lat="38.1534020" lon="-3.5917920">
        <ele>399.8</ele>
        <time>2018-06-16T06:27:09Z</time>
      </trkpt>
      <trkpt lat="38.1534410" lon="-3.5917730">
        <ele>399.8</ele>
        <time>2018-06-16T06:27:10Z</time>
      </trkpt>
      <trkpt lat="38.1534410" lon="-3.5917730">
        <ele>400.0</ele>
        <time>2018-06-16T06:27:11Z</time>
      </trkpt>
      <trkpt lat="38.1535280" lon="-3.5917380">
        <ele>400.0</ele>
        <time>2018-06-16T06:27:12Z</time>
      </trkpt>
      <trkpt lat="38.1535280" lon="-3.5917380">
        <ele>400.0</ele>
        <time>2018-06-16T06:27:13Z</time>
      </trkpt>
      <trkpt lat="38.1536210" lon="-3.5917070">
        <ele>400.0</ele>
        <time>2018-06-16T06:27:14Z</time>
      </trkpt>
      <trkpt lat="38.1536210" lon="-3.5917070">
        <ele>400.2</ele>
        <time>2018-06-16T06:27:15Z</time>
      </trkpt>
      <trkpt lat="38.1537110" lon="-3.5916710">
        <ele>400.2</ele>
        <time>2018-06-16T06:27:16Z</time>
      </trkpt>
      <trkpt lat="38.1537590" lon="-3.5916540">
        <ele>400.4</ele>
        <time>2018-06-16T06:27:17Z</time>
      </trkpt>
      <trkpt lat="38.1538070" lon="-3.5916370">
        <ele>400.4</ele>
        <time>2018-06-16T06:27:18Z</time>
      </trkpt>
      <trkpt lat="38.1538550" lon="-3.5916230">
        <ele>400.6</ele>
        <time>2018-06-16T06:27:19Z</time>
      </trkpt>
      <trkpt lat="38.1538550" lon="-3.5916230">
        <ele>400.6</ele>
        <time>2018-06-16T06:27:20Z</time>
      </trkpt>
      <trkpt lat="38.1539450" lon="-3.5915910">
        <ele>400.8</ele>
        <time>2018-06-16T06:27:21Z</time>
      </trkpt>
      <trkpt lat="38.1539910" lon="-3.5915750">
        <ele>400.8</ele>
        <time>2018-06-16T06:27:22Z</time>
      </trkpt>
      <trkpt lat="38.1540360" lon="-3.5915600">
        <ele>400.8</ele>
        <time>2018-06-16T06:27:23Z</time>
      </trkpt>
      <trkpt lat="38.1540810" lon="-3.5915460">
        <ele>401.0</ele>
        <time>2018-06-16T06:27:24Z</time>
      </trkpt>
      <trkpt lat="38.1541290" lon="-3.5915310">
        <ele>401.2</ele>
        <time>2018-06-16T06:27:25Z</time>
      </trkpt>
      <trkpt lat="38.1541710" lon="-3.5915160">
        <ele>401.2</ele>
        <time>2018-06-16T06:27:26Z</time>
      </trkpt>
      <trkpt lat="38.1542160" lon="-3.5915070">
        <ele>401.4</ele>
        <time>2018-06-16T06:27:27Z</time>
      </trkpt>
      <trkpt lat="38.1542620" lon="-3.5914950">
        <ele>401.4</ele>
        <time>2018-06-16T06:27:28Z</time>
      </trkpt>
      <trkpt lat="38.1543110" lon="-3.5914830">
        <ele>401.6</ele>
        <time>2018-06-16T06:27:29Z</time>
      </trkpt>
      <trkpt lat="38.1543570" lon="-3.5914750">
        <ele>401.6</ele>
        <time>2018-06-16T06:27:30Z</time>
      </trkpt>
      <trkpt lat="38.1544020" lon="-3.5914700">
        <ele>401.6</ele>
        <time>2018-06-16T06:27:31Z</time>
      </trkpt>
      <trkpt lat="38.1544460" lon="-3.5914630">
        <ele>401.8</ele>
        <time>2018-06-16T06:27:32Z</time>
      </trkpt>
      <trkpt lat="38.1544890" lon="-3.5914550">
        <ele>402.0</ele>
        <time>2018-06-16T06:27:33Z</time>
      </trkpt>
      <trkpt lat="38.1544890" lon="-3.5914550">
        <ele>402.0</ele>
        <time>2018-06-16T06:27:34Z</time>
      </trkpt>
      <trkpt lat="38.1545300" lon="-3.5914490">
        <ele>402.2</ele>
        <time>2018-06-16T06:27:35Z</time>
      </trkpt>
      <trkpt lat="38.1545680" lon="-3.5914420">
        <ele>402.4</ele>
        <time>2018-06-16T06:27:36Z</time>
      </trkpt>
      <trkpt lat="38.1546040" lon="-3.5914350">
        <ele>402.4</ele>
        <time>2018-06-16T06:27:37Z</time>
      </trkpt>
      <trkpt lat="38.1546830" lon="-3.5914160">
        <ele>402.6</ele>
        <time>2018-06-16T06:27:38Z</time>
      </trkpt>
      <trkpt lat="38.1547240" lon="-3.5914070">
        <ele>402.8</ele>
        <time>2018-06-16T06:27:39Z</time>
      </trkpt>
      <trkpt lat="38.1547680" lon="-3.5913970">
        <ele>403.0</ele>
        <time>2018-06-16T06:27:40Z</time>
      </trkpt>
      <trkpt lat="38.1548090" lon="-3.5913860">
        <ele>403.2</ele>
        <time>2018-06-16T06:27:41Z</time>
      </trkpt>
      <trkpt lat="38.1548490" lon="-3.5913760">
        <ele>403.4</ele>
        <time>2018-06-16T06:27:42Z</time>
      </trkpt>
      <trkpt lat="38.1548910" lon="-3.5913650">
        <ele>403.6</ele>
        <time>2018-06-16T06:27:43Z</time>
      </trkpt>
      <trkpt lat="38.1549320" lon="-3.5913550">
        <ele>403.6</ele>
        <time>2018-06-16T06:27:44Z</time>
      </trkpt>
      <trkpt lat="38.1549730" lon="-3.5913470">
        <ele>403.8</ele>
        <time>2018-06-16T06:27:45Z</time>
      </trkpt>
      <trkpt lat="38.1550140" lon="-3.5913370">
        <ele>404.0</ele>
        <time>2018-06-16T06:27:46Z</time>
      </trkpt>
      <trkpt lat="38.1550550" lon="-3.5913300">
        <ele>404.2</ele>
        <time>2018-06-16T06:27:47Z</time>
      </trkpt>
      <trkpt lat="38.1550950" lon="-3.5913220">
        <ele>404.4</ele>
        <time>2018-06-16T06:27:48Z</time>
      </trkpt>
      <trkpt lat="38.1551310" lon="-3.5913130">
        <ele>404.6</ele>
        <time>2018-06-16T06:27:49Z</time>
      </trkpt>
      <trkpt lat="38.1551660" lon="-3.5913050">
        <ele>404.8</ele>
        <time>2018-06-16T06:27:50Z</time>
      </trkpt>
      <trkpt lat="38.1551970" lon="-3.5912960">
        <ele>405.0</ele>
        <time>2018-06-16T06:27:51Z</time>
      </trkpt>
      <trkpt lat="38.1552290" lon="-3.5912890">
        <ele>405.2</ele>
        <time>2018-06-16T06:27:52Z</time>
      </trkpt>
      <trkpt lat="38.1552620" lon="-3.5912820">
        <ele>405.4</ele>
        <time>2018-06-16T06:27:53Z</time>
      </trkpt>
      <trkpt lat="38.1552930" lon="-3.5912740">
        <ele>405.6</ele>
        <time>2018-06-16T06:27:54Z</time>
      </trkpt>
      <trkpt lat="38.1553250" lon="-3.5912670">
        <ele>405.8</ele>
        <time>2018-06-16T06:27:55Z</time>
      </trkpt>
      <trkpt lat="38.1553250" lon="-3.5912670">
        <ele>406.0</ele>
        <time>2018-06-16T06:27:56Z</time>
      </trkpt>
      <trkpt lat="38.1553590" lon="-3.5912600">
        <ele>406.2</ele>
        <time>2018-06-16T06:27:57Z</time>
      </trkpt>
      <trkpt lat="38.1553900" lon="-3.5912520">
        <ele>406.4</ele>
        <time>2018-06-16T06:27:58Z</time>
      </trkpt>
      <trkpt lat="38.1554230" lon="-3.5912450">
        <ele>406.6</ele>
        <time>2018-06-16T06:27:59Z</time>
      </trkpt>
      <trkpt lat="38.1554580" lon="-3.5912400">
        <ele>406.8</ele>
        <time>2018-06-16T06:28:00Z</time>
      </trkpt>
      <trkpt lat="38.1554940" lon="-3.5912340">
        <ele>407.0</ele>
        <time>2018-06-16T06:28:01Z</time>
      </trkpt>
      <trkpt lat="38.1555280" lon="-3.5912280">
        <ele>407.0</ele>
        <time>2018-06-16T06:28:02Z</time>
      </trkpt>
      <trkpt lat="38.1555620" lon="-3.5912220">
        <ele>407.2</ele>
        <time>2018-06-16T06:28:03Z</time>
      </trkpt>
      <trkpt lat="38.1555970" lon="-3.5912180">
        <ele>407.2</ele>
        <time>2018-06-16T06:28:04Z</time>
      </trkpt>
      <trkpt lat="38.1556500" lon="-3.5912100">
        <ele>407.2</ele>
        <time>2018-06-16T06:28:05Z</time>
      </trkpt>
      <trkpt lat="38.1556670" lon="-3.5912060">
        <ele>407.2</ele>
        <time>2018-06-16T06:28:06Z</time>
      </trkpt>
      <trkpt lat="38.1557020" lon="-3.5912000">
        <ele>407.4</ele>
        <time>2018-06-16T06:28:07Z</time>
      </trkpt>
      <trkpt lat="38.1557680" lon="-3.5911860">
        <ele>407.4</ele>
        <time>2018-06-16T06:28:08Z</time>
      </trkpt>
      <trkpt lat="38.1558010" lon="-3.5911780">
        <ele>407.6</ele>
        <time>2018-06-16T06:28:09Z</time>
      </trkpt>
      <trkpt lat="38.1558010" lon="-3.5911780">
        <ele>407.6</ele>
        <time>2018-06-16T06:28:10Z</time>
      </trkpt>
      <trkpt lat="38.1558720" lon="-3.5911610">
        <ele>407.8</ele>
        <time>2018-06-16T06:28:11Z</time>
      </trkpt>
      <trkpt lat="38.1558720" lon="-3.5911610">
        <ele>407.8</ele>
        <time>2018-06-16T06:28:12Z</time>
      </trkpt>
      <trkpt lat="38.1559080" lon="-3.5911540">
        <ele>408.0</ele>
        <time>2018-06-16T06:28:13Z</time>
      </trkpt>
      <trkpt lat="38.1559710" lon="-3.5911480">
        <ele>408.2</ele>
        <time>2018-06-16T06:28:14Z</time>
      </trkpt>
      <trkpt lat="38.1560030" lon="-3.5911400">
        <ele>408.4</ele>
        <time>2018-06-16T06:28:15Z</time>
      </trkpt>
      <trkpt lat="38.1560370" lon="-3.5911350">
        <ele>408.4</ele>
        <time>2018-06-16T06:28:16Z</time>
      </trkpt>
      <trkpt lat="38.1560700" lon="-3.5911310">
        <ele>408.6</ele>
        <time>2018-06-16T06:28:17Z</time>
      </trkpt>
      <trkpt lat="38.1561040" lon="-3.5911260">
        <ele>408.8</ele>
        <time>2018-06-16T06:28:18Z</time>
      </trkpt>
      <trkpt lat="38.1561410" lon="-3.5911210">
        <ele>408.8</ele>
        <time>2018-06-16T06:28:19Z</time>
      </trkpt>
      <trkpt lat="38.1561750" lon="-3.5911170">
        <ele>409.0</ele>
        <time>2018-06-16T06:28:20Z</time>
      </trkpt>
      <trkpt lat="38.1562110" lon="-3.5911140">
        <ele>409.0</ele>
        <time>2018-06-16T06:28:21Z</time>
      </trkpt>
      <trkpt lat="38.1562480" lon="-3.5911090">
        <ele>409.2</ele>
        <time>2018-06-16T06:28:22Z</time>
      </trkpt>
      <trkpt lat="38.1562850" lon="-3.5911080">
        <ele>409.2</ele>
        <time>2018-06-16T06:28:23Z</time>
      </trkpt>
      <trkpt lat="38.1562850" lon="-3.5911080">
        <ele>409.0</ele>
        <time>2018-06-16T06:28:24Z</time>
      </trkpt>
      <trkpt lat="38.1563210" lon="-3.5911060">
        <ele>409.0</ele>
        <time>2018-06-16T06:28:25Z</time>
      </trkpt>
      <trkpt lat="38.1563600" lon="-3.5911070">
        <ele>408.8</ele>
        <time>2018-06-16T06:28:26Z</time>
      </trkpt>
      <trkpt lat="38.1564030" lon="-3.5911110">
        <ele>408.6</ele>
        <time>2018-06-16T06:28:27Z</time>
      </trkpt>
      <trkpt lat="38.1564500" lon="-3.5911110">
        <ele>408.6</ele>
        <time>2018-06-16T06:28:28Z</time>
      </trkpt>
      <trkpt lat="38.1565510" lon="-3.5911190">
        <ele>408.4</ele>
        <time>2018-06-16T06:28:29Z</time>
      </trkpt>
      <trkpt lat="38.1565510" lon="-3.5911190">
        <ele>408.2</ele>
        <time>2018-06-16T06:28:30Z</time>
      </trkpt>
      <trkpt lat="38.1566550" lon="-3.5911370">
        <ele>408.2</ele>
        <time>2018-06-16T06:28:31Z</time>
      </trkpt>
      <trkpt lat="38.1567080" lon="-3.5911450">
        <ele>408.2</ele>
        <time>2018-06-16T06:28:32Z</time>
      </trkpt>
      <trkpt lat="38.1567610" lon="-3.5911520">
        <ele>408.2</ele>
        <time>2018-06-16T06:28:33Z</time>
      </trkpt>
      <trkpt lat="38.1568120" lon="-3.5911550">
        <ele>408.2</ele>
        <time>2018-06-16T06:28:34Z</time>
      </trkpt>
      <trkpt lat="38.1568640" lon="-3.5911520">
        <ele>408.2</ele>
        <time>2018-06-16T06:28:35Z</time>
      </trkpt>
      <trkpt lat="38.1569180" lon="-3.5911420">
        <ele>408.2</ele>
        <time>2018-06-16T06:28:36Z</time>
      </trkpt>
      <trkpt lat="38.1569720" lon="-3.5911260">
        <ele>408.0</ele>
        <time>2018-06-16T06:28:37Z</time>
      </trkpt>
      <trkpt lat="38.1570240" lon="-3.5911050">
        <ele>408.0</ele>
        <time>2018-06-16T06:28:38Z</time>
      </trkpt>
      <trkpt lat="38.1570740" lon="-3.5910810">
        <ele>408.0</ele>
        <time>2018-06-16T06:28:39Z</time>
      </trkpt>
      <trkpt lat="38.1570740" lon="-3.5910810">
        <ele>408.2</ele>
        <time>2018-06-16T06:28:40Z</time>
      </trkpt>
      <trkpt lat="38.1571210" lon="-3.5910490">
        <ele>408.2</ele>
        <time>2018-06-16T06:28:41Z</time>
      </trkpt>
      <trkpt lat="38.1571650" lon="-3.5910120">
        <ele>408.4</ele>
        <time>2018-06-16T06:28:42Z</time>
      </trkpt>
      <trkpt lat="38.1572070" lon="-3.5909760">
        <ele>408.4</ele>
        <time>2018-06-16T06:28:43Z</time>
      </trkpt>
      <trkpt lat="38.1572490" lon="-3.5909420">
        <ele>408.6</ele>
        <time>2018-06-16T06:28:44Z</time>
      </trkpt>
      <trkpt lat="38.1572880" lon="-3.5909090">
        <ele>408.8</ele>
        <time>2018-06-16T06:28:45Z</time>
      </trkpt>
      <trkpt lat="38.1573240" lon="-3.5908770">
        <ele>409.0</ele>
        <time>2018-06-16T06:28:46Z</time>
      </trkpt>
      <trkpt lat="38.1573590" lon="-3.5908460">
        <ele>409.2</ele>
        <time>2018-06-16T06:28:47Z</time>
      </trkpt>
      <trkpt lat="38.1573910" lon="-3.5908100">
        <ele>409.4</ele>
        <time>2018-06-16T06:28:48Z</time>
      </trkpt>
      <trkpt lat="38.1574270" lon="-3.5907750">
        <ele>409.6</ele>
        <time>2018-06-16T06:28:49Z</time>
      </trkpt>
      <trkpt lat="38.1574630" lon="-3.5907430">
        <ele>409.6</ele>
        <time>2018-06-16T06:28:50Z</time>
      </trkpt>
      <trkpt lat="38.1575370" lon="-3.5906830">
        <ele>409.8</ele>
        <time>2018-06-16T06:28:51Z</time>
      </trkpt>
      <trkpt lat="38.1575740" lon="-3.5906550">
        <ele>410.0</ele>
        <time>2018-06-16T06:28:52Z</time>
      </trkpt>
      <trkpt lat="38.1576110" lon="-3.5906290">
        <ele>410.2</ele>
        <time>2018-06-16T06:28:53Z</time>
      </trkpt>
      <trkpt lat="38.1576490" lon="-3.5906050">
        <ele>410.2</ele>
        <time>2018-06-16T06:28:54Z</time>
      </trkpt>
      <trkpt lat="38.1576870" lon="-3.5905810">
        <ele>410.4</ele>
        <time>2018-06-16T06:28:55Z</time>
      </trkpt>
      <trkpt lat="38.1577260" lon="-3.5905560">
        <ele>410.4</ele>
        <time>2018-06-16T06:28:56Z</time>
      </trkpt>
      <trkpt lat="38.1577640" lon="-3.5905300">
        <ele>410.6</ele>
        <time>2018-06-16T06:28:57Z</time>
      </trkpt>
      <trkpt lat="38.1578020" lon="-3.5905060">
        <ele>410.8</ele>
        <time>2018-06-16T06:28:58Z</time>
      </trkpt>
      <trkpt lat="38.1578400" lon="-3.5904840">
        <ele>410.8</ele>
        <time>2018-06-16T06:28:59Z</time>
      </trkpt>
      <trkpt lat="38.1578770" lon="-3.5904610">
        <ele>410.8</ele>
        <time>2018-06-16T06:29:00Z</time>
      </trkpt>
      <trkpt lat="38.1579150" lon="-3.5904390">
        <ele>411.0</ele>
        <time>2018-06-16T06:29:01Z</time>
      </trkpt>
      <trkpt lat="38.1579480" lon="-3.5904180">
        <ele>411.0</ele>
        <time>2018-06-16T06:29:02Z</time>
      </trkpt>
      <trkpt lat="38.1579770" lon="-3.5904000">
        <ele>411.2</ele>
        <time>2018-06-16T06:29:03Z</time>
      </trkpt>
      <trkpt lat="38.1580100" lon="-3.5903830">
        <ele>411.2</ele>
        <time>2018-06-16T06:29:04Z</time>
      </trkpt>
      <trkpt lat="38.1580510" lon="-3.5903660">
        <ele>411.4</ele>
        <time>2018-06-16T06:29:05Z</time>
      </trkpt>
      <trkpt lat="38.1580890" lon="-3.5903490">
        <ele>411.4</ele>
        <time>2018-06-16T06:29:06Z</time>
      </trkpt>
      <trkpt lat="38.1581210" lon="-3.5903330">
        <ele>411.6</ele>
        <time>2018-06-16T06:29:07Z</time>
      </trkpt>
      <trkpt lat="38.1581760" lon="-3.5903060">
        <ele>411.8</ele>
        <time>2018-06-16T06:29:08Z</time>
      </trkpt>
      <trkpt lat="38.1581960" lon="-3.5902960">
        <ele>411.8</ele>
        <time>2018-06-16T06:29:09Z</time>
      </trkpt>
      <trkpt lat="38.1582350" lon="-3.5902770">
        <ele>412.0</ele>
        <time>2018-06-16T06:29:10Z</time>
      </trkpt>
      <trkpt lat="38.1582720" lon="-3.5902560">
        <ele>412.2</ele>
        <time>2018-06-16T06:29:11Z</time>
      </trkpt>
      <trkpt lat="38.1583100" lon="-3.5902370">
        <ele>412.4</ele>
        <time>2018-06-16T06:29:12Z</time>
      </trkpt>
      <trkpt lat="38.1583490" lon="-3.5902160">
        <ele>412.4</ele>
        <time>2018-06-16T06:29:13Z</time>
      </trkpt>
      <trkpt lat="38.1583850" lon="-3.5901920">
        <ele>412.6</ele>
        <time>2018-06-16T06:29:14Z</time>
      </trkpt>
      <trkpt lat="38.1584240" lon="-3.5901640">
        <ele>412.4</ele>
        <time>2018-06-16T06:29:15Z</time>
      </trkpt>
      <trkpt lat="38.1584620" lon="-3.5901350">
        <ele>412.4</ele>
        <time>2018-06-16T06:29:16Z</time>
      </trkpt>
      <trkpt lat="38.1585040" lon="-3.5901050">
        <ele>412.2</ele>
        <time>2018-06-16T06:29:17Z</time>
      </trkpt>
      <trkpt lat="38.1585470" lon="-3.5900760">
        <ele>412.4</ele>
        <time>2018-06-16T06:29:18Z</time>
      </trkpt>
      <trkpt lat="38.1585870" lon="-3.5900470">
        <ele>412.2</ele>
        <time>2018-06-16T06:29:19Z</time>
      </trkpt>
      <trkpt lat="38.1586300" lon="-3.5900150">
        <ele>412.2</ele>
        <time>2018-06-16T06:29:20Z</time>
      </trkpt>
      <trkpt lat="38.1586770" lon="-3.5899830">
        <ele>412.0</ele>
        <time>2018-06-16T06:29:21Z</time>
      </trkpt>
      <trkpt lat="38.1587280" lon="-3.5899490">
        <ele>411.8</ele>
        <time>2018-06-16T06:29:22Z</time>
      </trkpt>
      <trkpt lat="38.1587780" lon="-3.5899120">
        <ele>411.8</ele>
        <time>2018-06-16T06:29:23Z</time>
      </trkpt>
      <trkpt lat="38.1587780" lon="-3.5899120">
        <ele>411.6</ele>
        <time>2018-06-16T06:29:24Z</time>
      </trkpt>
      <trkpt lat="38.1588290" lon="-3.5898750">
        <ele>411.4</ele>
        <time>2018-06-16T06:29:25Z</time>
      </trkpt>
      <trkpt lat="38.1588780" lon="-3.5898350">
        <ele>411.4</ele>
        <time>2018-06-16T06:29:26Z</time>
      </trkpt>
      <trkpt lat="38.1589770" lon="-3.5897540">
        <ele>411.2</ele>
        <time>2018-06-16T06:29:27Z</time>
      </trkpt>
      <trkpt lat="38.1589770" lon="-3.5897540">
        <ele>411.0</ele>
        <time>2018-06-16T06:29:28Z</time>
      </trkpt>
      <trkpt lat="38.1590840" lon="-3.5896760">
        <ele>411.0</ele>
        <time>2018-06-16T06:29:29Z</time>
      </trkpt>
      <trkpt lat="38.1590840" lon="-3.5896760">
        <ele>410.8</ele>
        <time>2018-06-16T06:29:30Z</time>
      </trkpt>
      <trkpt lat="38.1591870" lon="-3.5896010">
        <ele>410.8</ele>
        <time>2018-06-16T06:29:31Z</time>
      </trkpt>
      <trkpt lat="38.1592360" lon="-3.5895630">
        <ele>410.6</ele>
        <time>2018-06-16T06:29:32Z</time>
      </trkpt>
      <trkpt lat="38.1592880" lon="-3.5895270">
        <ele>410.6</ele>
        <time>2018-06-16T06:29:33Z</time>
      </trkpt>
      <trkpt lat="38.1593400" lon="-3.5894880">
        <ele>410.4</ele>
        <time>2018-06-16T06:29:34Z</time>
      </trkpt>
      <trkpt lat="38.1593960" lon="-3.5894490">
        <ele>410.2</ele>
        <time>2018-06-16T06:29:35Z</time>
      </trkpt>
      <trkpt lat="38.1594530" lon="-3.5894080">
        <ele>410.0</ele>
        <time>2018-06-16T06:29:36Z</time>
      </trkpt>
      <trkpt lat="38.1595080" lon="-3.5893670">
        <ele>410.0</ele>
        <time>2018-06-16T06:29:37Z</time>
      </trkpt>
      <trkpt lat="38.1595610" lon="-3.5893280">
        <ele>409.8</ele>
        <time>2018-06-16T06:29:38Z</time>
      </trkpt>
      <trkpt lat="38.1596150" lon="-3.5892880">
        <ele>409.8</ele>
        <time>2018-06-16T06:29:39Z</time>
      </trkpt>
      <trkpt lat="38.1596670" lon="-3.5892480">
        <ele>409.6</ele>
        <time>2018-06-16T06:29:40Z</time>
      </trkpt>
      <trkpt lat="38.1597230" lon="-3.5892070">
        <ele>409.4</ele>
        <time>2018-06-16T06:29:41Z</time>
      </trkpt>
      <trkpt lat="38.1597760" lon="-3.5891660">
        <ele>409.4</ele>
        <time>2018-06-16T06:29:42Z</time>
      </trkpt>
      <trkpt lat="38.1598350" lon="-3.5891250">
        <ele>409.2</ele>
        <time>2018-06-16T06:29:43Z</time>
      </trkpt>
      <trkpt lat="38.1598910" lon="-3.5890870">
        <ele>409.2</ele>
        <time>2018-06-16T06:29:44Z</time>
      </trkpt>
      <trkpt lat="38.1599450" lon="-3.5890530">
        <ele>409.2</ele>
        <time>2018-06-16T06:29:45Z</time>
      </trkpt>
      <trkpt lat="38.1599970" lon="-3.5890360">
        <ele>409.0</ele>
        <time>2018-06-16T06:29:46Z</time>
      </trkpt>
      <trkpt lat="38.1600500" lon="-3.5890160">
        <ele>408.8</ele>
        <time>2018-06-16T06:29:47Z</time>
      </trkpt>
      <trkpt lat="38.1601060" lon="-3.5890040">
        <ele>408.6</ele>
        <time>2018-06-16T06:29:48Z</time>
      </trkpt>
      <trkpt lat="38.1601730" lon="-3.5889880">
        <ele>408.0</ele>
        <time>2018-06-16T06:29:49Z</time>
      </trkpt>
      <trkpt lat="38.1602420" lon="-3.5889800">
        <ele>407.4</ele>
        <time>2018-06-16T06:29:50Z</time>
      </trkpt>
      <trkpt lat="38.1603220" lon="-3.5889740">
        <ele>406.8</ele>
        <time>2018-06-16T06:29:51Z</time>
      </trkpt>
      <trkpt lat="38.1604090" lon="-3.5889560">
        <ele>406.2</ele>
        <time>2018-06-16T06:29:52Z</time>
      </trkpt>
      <trkpt lat="38.1604880" lon="-3.5889190">
        <ele>405.8</ele>
        <time>2018-06-16T06:29:53Z</time>
      </trkpt>
      <trkpt lat="38.1604880" lon="-3.5889190">
        <ele>405.8</ele>
        <time>2018-06-16T06:29:54Z</time>
      </trkpt>
      <trkpt lat="38.1605640" lon="-3.5888690">
        <ele>405.4</ele>
        <time>2018-06-16T06:29:55Z</time>
      </trkpt>
      <trkpt lat="38.1606270" lon="-3.5888040">
        <ele>405.2</ele>
        <time>2018-06-16T06:29:56Z</time>
      </trkpt>
      <trkpt lat="38.1606860" lon="-3.5887330">
        <ele>405.0</ele>
        <time>2018-06-16T06:29:57Z</time>
      </trkpt>
      <trkpt lat="38.1607500" lon="-3.5886620">
        <ele>405.0</ele>
        <time>2018-06-16T06:29:58Z</time>
      </trkpt>
      <trkpt lat="38.1608140" lon="-3.5886000">
        <ele>404.8</ele>
        <time>2018-06-16T06:29:59Z</time>
      </trkpt>
      <trkpt lat="38.1608820" lon="-3.5885450">
        <ele>404.8</ele>
        <time>2018-06-16T06:30:00Z</time>
      </trkpt>
      <trkpt lat="38.1610220" lon="-3.5884490">
        <ele>404.4</ele>
        <time>2018-06-16T06:30:01Z</time>
      </trkpt>
      <trkpt lat="38.1610220" lon="-3.5884490">
        <ele>404.2</ele>
        <time>2018-06-16T06:30:02Z</time>
      </trkpt>
      <trkpt lat="38.1610910" lon="-3.5884030">
        <ele>404.0</ele>
        <time>2018-06-16T06:30:03Z</time>
      </trkpt>
      <trkpt lat="38.1612220" lon="-3.5883180">
        <ele>403.6</ele>
        <time>2018-06-16T06:30:04Z</time>
      </trkpt>
      <trkpt lat="38.1612220" lon="-3.5883180">
        <ele>403.4</ele>
        <time>2018-06-16T06:30:05Z</time>
      </trkpt>
      <trkpt lat="38.1613670" lon="-3.5882350">
        <ele>403.2</ele>
        <time>2018-06-16T06:30:06Z</time>
      </trkpt>
      <trkpt lat="38.1613670" lon="-3.5882350">
        <ele>402.8</ele>
        <time>2018-06-16T06:30:07Z</time>
      </trkpt>
      <trkpt lat="38.1614950" lon="-3.5881450">
        <ele>402.8</ele>
        <time>2018-06-16T06:30:08Z</time>
      </trkpt>
      <trkpt lat="38.1614950" lon="-3.5881450">
        <ele>402.6</ele>
        <time>2018-06-16T06:30:09Z</time>
      </trkpt>
      <trkpt lat="38.1616100" lon="-3.5880600">
        <ele>402.4</ele>
        <time>2018-06-16T06:30:10Z</time>
      </trkpt>
      <trkpt lat="38.1616100" lon="-3.5880600">
        <ele>402.4</ele>
        <time>2018-06-16T06:30:11Z</time>
      </trkpt>
      <trkpt lat="38.1617230" lon="-3.5879840">
        <ele>402.6</ele>
        <time>2018-06-16T06:30:12Z</time>
      </trkpt>
      <trkpt lat="38.1617900" lon="-3.5879440">
        <ele>402.4</ele>
        <time>2018-06-16T06:30:13Z</time>
      </trkpt>
      <trkpt lat="38.1618460" lon="-3.5879060">
        <ele>402.6</ele>
        <time>2018-06-16T06:30:14Z</time>
      </trkpt>
      <trkpt lat="38.1619000" lon="-3.5878730">
        <ele>402.4</ele>
        <time>2018-06-16T06:30:15Z</time>
      </trkpt>
      <trkpt lat="38.1619480" lon="-3.5878370">
        <ele>402.4</ele>
        <time>2018-06-16T06:30:16Z</time>
      </trkpt>
      <trkpt lat="38.1619990" lon="-3.5878030">
        <ele>402.6</ele>
        <time>2018-06-16T06:30:17Z</time>
      </trkpt>
      <trkpt lat="38.1620450" lon="-3.5877710">
        <ele>402.6</ele>
        <time>2018-06-16T06:30:18Z</time>
      </trkpt>
      <trkpt lat="38.1620930" lon="-3.5877400">
        <ele>402.6</ele>
        <time>2018-06-16T06:30:19Z</time>
      </trkpt>
      <trkpt lat="38.1621460" lon="-3.5877080">
        <ele>402.6</ele>
        <time>2018-06-16T06:30:20Z</time>
      </trkpt>
      <trkpt lat="38.1621970" lon="-3.5876790">
        <ele>402.8</ele>
        <time>2018-06-16T06:30:21Z</time>
      </trkpt>
      <trkpt lat="38.1622490" lon="-3.5876470">
        <ele>402.8</ele>
        <time>2018-06-16T06:30:22Z</time>
      </trkpt>
      <trkpt lat="38.1623000" lon="-3.5876170">
        <ele>402.8</ele>
        <time>2018-06-16T06:30:23Z</time>
      </trkpt>
      <trkpt lat="38.1623520" lon="-3.5875920">
        <ele>403.0</ele>
        <time>2018-06-16T06:30:24Z</time>
      </trkpt>
      <trkpt lat="38.1624040" lon="-3.5875720">
        <ele>403.0</ele>
        <time>2018-06-16T06:30:25Z</time>
      </trkpt>
      <trkpt lat="38.1624640" lon="-3.5875560">
        <ele>403.2</ele>
        <time>2018-06-16T06:30:26Z</time>
      </trkpt>
      <trkpt lat="38.1625220" lon="-3.5875410">
        <ele>403.2</ele>
        <time>2018-06-16T06:30:27Z</time>
      </trkpt>
      <trkpt lat="38.1625220" lon="-3.5875410">
        <ele>403.4</ele>
        <time>2018-06-16T06:30:28Z</time>
      </trkpt>
      <trkpt lat="38.1625680" lon="-3.5875280">
        <ele>403.4</ele>
        <time>2018-06-16T06:30:29Z</time>
      </trkpt>
      <trkpt lat="38.1626510" lon="-3.5874960">
        <ele>403.6</ele>
        <time>2018-06-16T06:30:30Z</time>
      </trkpt>
      <trkpt lat="38.1626510" lon="-3.5874960">
        <ele>403.8</ele>
        <time>2018-06-16T06:30:31Z</time>
      </trkpt>
      <trkpt lat="38.1627000" lon="-3.5874870">
        <ele>403.8</ele>
        <time>2018-06-16T06:30:32Z</time>
      </trkpt>
      <trkpt lat="38.1627960" lon="-3.5874700">
        <ele>404.0</ele>
        <time>2018-06-16T06:30:33Z</time>
      </trkpt>
      <trkpt lat="38.1627960" lon="-3.5874700">
        <ele>404.0</ele>
        <time>2018-06-16T06:30:34Z</time>
      </trkpt>
      <trkpt lat="38.1628960" lon="-3.5874580">
        <ele>404.2</ele>
        <time>2018-06-16T06:30:35Z</time>
      </trkpt>
      <trkpt lat="38.1629420" lon="-3.5874550">
        <ele>404.4</ele>
        <time>2018-06-16T06:30:36Z</time>
      </trkpt>
      <trkpt lat="38.1629990" lon="-3.5874510">
        <ele>404.6</ele>
        <time>2018-06-16T06:30:37Z</time>
      </trkpt>
      <trkpt lat="38.1630590" lon="-3.5874410">
        <ele>404.8</ele>
        <time>2018-06-16T06:30:38Z</time>
      </trkpt>
      <trkpt lat="38.1631150" lon="-3.5874370">
        <ele>405.0</ele>
        <time>2018-06-16T06:30:39Z</time>
      </trkpt>
      <trkpt lat="38.1631590" lon="-3.5874320">
        <ele>405.2</ele>
        <time>2018-06-16T06:30:40Z</time>
      </trkpt>
      <trkpt lat="38.1632130" lon="-3.5874260">
        <ele>405.2</ele>
        <time>2018-06-16T06:30:41Z</time>
      </trkpt>
      <trkpt lat="38.1632670" lon="-3.5874210">
        <ele>405.4</ele>
        <time>2018-06-16T06:30:42Z</time>
      </trkpt>
      <trkpt lat="38.1633180" lon="-3.5874170">
        <ele>405.6</ele>
        <time>2018-06-16T06:30:43Z</time>
      </trkpt>
      <trkpt lat="38.1633630" lon="-3.5874120">
        <ele>405.8</ele>
        <time>2018-06-16T06:30:44Z</time>
      </trkpt>
      <trkpt lat="38.1634020" lon="-3.5874060">
        <ele>406.0</ele>
        <time>2018-06-16T06:30:45Z</time>
      </trkpt>
      <trkpt lat="38.1634420" lon="-3.5874020">
        <ele>406.2</ele>
        <time>2018-06-16T06:30:46Z</time>
      </trkpt>
      <trkpt lat="38.1634850" lon="-3.5874000">
        <ele>406.4</ele>
        <time>2018-06-16T06:30:47Z</time>
      </trkpt>
      <trkpt lat="38.1635260" lon="-3.5874030">
        <ele>406.6</ele>
        <time>2018-06-16T06:30:48Z</time>
      </trkpt>
      <trkpt lat="38.1635670" lon="-3.5874100">
        <ele>406.6</ele>
        <time>2018-06-16T06:30:49Z</time>
      </trkpt>
      <trkpt lat="38.1636080" lon="-3.5874160">
        <ele>406.8</ele>
        <time>2018-06-16T06:30:50Z</time>
      </trkpt>
      <trkpt lat="38.1636490" lon="-3.5874230">
        <ele>406.8</ele>
        <time>2018-06-16T06:30:51Z</time>
      </trkpt>
      <trkpt lat="38.1636490" lon="-3.5874230">
        <ele>407.0</ele>
        <time>2018-06-16T06:30:52Z</time>
      </trkpt>
      <trkpt lat="38.1637260" lon="-3.5874420">
        <ele>407.2</ele>
        <time>2018-06-16T06:30:53Z</time>
      </trkpt>
      <trkpt lat="38.1637260" lon="-3.5874420">
        <ele>407.4</ele>
        <time>2018-06-16T06:30:54Z</time>
      </trkpt>
      <trkpt lat="38.1638010" lon="-3.5874650">
        <ele>407.6</ele>
        <time>2018-06-16T06:30:55Z</time>
      </trkpt>
      <trkpt lat="38.1638010" lon="-3.5874650">
        <ele>407.8</ele>
        <time>2018-06-16T06:30:56Z</time>
      </trkpt>
      <trkpt lat="38.1638730" lon="-3.5874810">
        <ele>408.0</ele>
        <time>2018-06-16T06:30:57Z</time>
      </trkpt>
      <trkpt lat="38.1639080" lon="-3.5874960">
        <ele>408.2</ele>
        <time>2018-06-16T06:30:58Z</time>
      </trkpt>
      <trkpt lat="38.1639430" lon="-3.5875150">
        <ele>408.4</ele>
        <time>2018-06-16T06:30:59Z</time>
      </trkpt>
      <trkpt lat="38.1639780" lon="-3.5875330">
        <ele>408.6</ele>
        <time>2018-06-16T06:31:00Z</time>
      </trkpt>
      <trkpt lat="38.1640120" lon="-3.5875510">
        <ele>408.8</ele>
        <time>2018-06-16T06:31:01Z</time>
      </trkpt>
      <trkpt lat="38.1640450" lon="-3.5875660">
        <ele>408.8</ele>
        <time>2018-06-16T06:31:02Z</time>
      </trkpt>
      <trkpt lat="38.1640770" lon="-3.5875810">
        <ele>409.0</ele>
        <time>2018-06-16T06:31:03Z</time>
      </trkpt>
      <trkpt lat="38.1641100" lon="-3.5875970">
        <ele>409.2</ele>
        <time>2018-06-16T06:31:04Z</time>
      </trkpt>
      <trkpt lat="38.1641410" lon="-3.5876110">
        <ele>409.4</ele>
        <time>2018-06-16T06:31:05Z</time>
      </trkpt>
      <trkpt lat="38.1641720" lon="-3.5876260">
        <ele>409.6</ele>
        <time>2018-06-16T06:31:06Z</time>
      </trkpt>
      <trkpt lat="38.1642040" lon="-3.5876410">
        <ele>409.8</ele>
        <time>2018-06-16T06:31:07Z</time>
      </trkpt>
      <trkpt lat="38.1642340" lon="-3.5876560">
        <ele>410.2</ele>
        <time>2018-06-16T06:31:08Z</time>
      </trkpt>
      <trkpt lat="38.1642650" lon="-3.5876710">
        <ele>410.4</ele>
        <time>2018-06-16T06:31:09Z</time>
      </trkpt>
      <trkpt lat="38.1642970" lon="-3.5876850">
        <ele>410.6</ele>
        <time>2018-06-16T06:31:10Z</time>
      </trkpt>
      <trkpt lat="38.1643270" lon="-3.5876950">
        <ele>410.8</ele>
        <time>2018-06-16T06:31:11Z</time>
      </trkpt>
      <trkpt lat="38.1643570" lon="-3.5877060">
        <ele>411.0</ele>
        <time>2018-06-16T06:31:12Z</time>
      </trkpt>
      <trkpt lat="38.1643870" lon="-3.5877230">
        <ele>411.2</ele>
        <time>2018-06-16T06:31:13Z</time>
      </trkpt>
      <trkpt lat="38.1644170" lon="-3.5877360">
        <ele>411.6</ele>
        <time>2018-06-16T06:31:14Z</time>
      </trkpt>
      <trkpt lat="38.1644490" lon="-3.5877500">
        <ele>411.8</ele>
        <time>2018-06-16T06:31:15Z</time>
      </trkpt>
      <trkpt lat="38.1644800" lon="-3.5877600">
        <ele>412.0</ele>
        <time>2018-06-16T06:31:16Z</time>
      </trkpt>
      <trkpt lat="38.1644800" lon="-3.5877600">
        <ele>412.2</ele>
        <time>2018-06-16T06:31:17Z</time>
      </trkpt>
      <trkpt lat="38.1645400" lon="-3.5877860">
        <ele>412.4</ele>
        <time>2018-06-16T06:31:18Z</time>
      </trkpt>
      <trkpt lat="38.1645730" lon="-3.5878000">
        <ele>412.6</ele>
        <time>2018-06-16T06:31:19Z</time>
      </trkpt>
      <trkpt lat="38.1646050" lon="-3.5878140">
        <ele>412.6</ele>
        <time>2018-06-16T06:31:20Z</time>
      </trkpt>
      <trkpt lat="38.1646360" lon="-3.5878230">
        <ele>412.8</ele>
        <time>2018-06-16T06:31:21Z</time>
      </trkpt>
      <trkpt lat="38.1646680" lon="-3.5878300">
        <ele>413.0</ele>
        <time>2018-06-16T06:31:22Z</time>
      </trkpt>
      <trkpt lat="38.1646990" lon="-3.5878310">
        <ele>413.2</ele>
        <time>2018-06-16T06:31:23Z</time>
      </trkpt>
      <trkpt lat="38.1647320" lon="-3.5878320">
        <ele>413.2</ele>
        <time>2018-06-16T06:31:24Z</time>
      </trkpt>
      <trkpt lat="38.1647630" lon="-3.5878310">
        <ele>413.4</ele>
        <time>2018-06-16T06:31:25Z</time>
      </trkpt>
      <trkpt lat="38.1647950" lon="-3.5878320">
        <ele>413.4</ele>
        <time>2018-06-16T06:31:26Z</time>
      </trkpt>
      <trkpt lat="38.1648280" lon="-3.5878350">
        <ele>413.6</ele>
        <time>2018-06-16T06:31:27Z</time>
      </trkpt>
      <trkpt lat="38.1648610" lon="-3.5878370">
        <ele>413.8</ele>
        <time>2018-06-16T06:31:28Z</time>
      </trkpt>
      <trkpt lat="38.1648920" lon="-3.5878360">
        <ele>414.0</ele>
        <time>2018-06-16T06:31:29Z</time>
      </trkpt>
      <trkpt lat="38.1649240" lon="-3.5878310">
        <ele>414.0</ele>
        <time>2018-06-16T06:31:30Z</time>
      </trkpt>
      <trkpt lat="38.1649560" lon="-3.5878270">
        <ele>414.0</ele>
        <time>2018-06-16T06:31:31Z</time>
      </trkpt>
      <trkpt lat="38.1649890" lon="-3.5878230">
        <ele>414.2</ele>
        <time>2018-06-16T06:31:32Z</time>
      </trkpt>
      <trkpt lat="38.1650200" lon="-3.5878180">
        <ele>414.2</ele>
        <time>2018-06-16T06:31:33Z</time>
      </trkpt>
      <trkpt lat="38.1650530" lon="-3.5878120">
        <ele>414.2</ele>
        <time>2018-06-16T06:31:34Z</time>
      </trkpt>
      <trkpt lat="38.1650850" lon="-3.5878060">
        <ele>414.4</ele>
        <time>2018-06-16T06:31:35Z</time>
      </trkpt>
      <trkpt lat="38.1651180" lon="-3.5878000">
        <ele>414.6</ele>
        <time>2018-06-16T06:31:36Z</time>
      </trkpt>
      <trkpt lat="38.1651180" lon="-3.5878000">
        <ele>414.8</ele>
        <time>2018-06-16T06:31:37Z</time>
      </trkpt>
      <trkpt lat="38.1651890" lon="-3.5877890">
        <ele>414.8</ele>
        <time>2018-06-16T06:31:38Z</time>
      </trkpt>
      <trkpt lat="38.1652230" lon="-3.5877830">
        <ele>415.0</ele>
        <time>2018-06-16T06:31:39Z</time>
      </trkpt>
      <trkpt lat="38.1652560" lon="-3.5877740">
        <ele>415.2</ele>
        <time>2018-06-16T06:31:40Z</time>
      </trkpt>
      <trkpt lat="38.1652890" lon="-3.5877650">
        <ele>415.2</ele>
        <time>2018-06-16T06:31:41Z</time>
      </trkpt>
      <trkpt lat="38.1653210" lon="-3.5877580">
        <ele>415.4</ele>
        <time>2018-06-16T06:31:42Z</time>
      </trkpt>
      <trkpt lat="38.1653540" lon="-3.5877540">
        <ele>415.6</ele>
        <time>2018-06-16T06:31:43Z</time>
      </trkpt>
      <trkpt lat="38.1653880" lon="-3.5877490">
        <ele>415.8</ele>
        <time>2018-06-16T06:31:44Z</time>
      </trkpt>
      <trkpt lat="38.1654220" lon="-3.5877420">
        <ele>416.0</ele>
        <time>2018-06-16T06:31:45Z</time>
      </trkpt>
      <trkpt lat="38.1654570" lon="-3.5877350">
        <ele>416.2</ele>
        <time>2018-06-16T06:31:46Z</time>
      </trkpt>
      <trkpt lat="38.1654900" lon="-3.5877290">
        <ele>416.2</ele>
        <time>2018-06-16T06:31:47Z</time>
      </trkpt>
      <trkpt lat="38.1655230" lon="-3.5877210">
        <ele>416.6</ele>
        <time>2018-06-16T06:31:48Z</time>
      </trkpt>
      <trkpt lat="38.1655530" lon="-3.5877130">
        <ele>416.6</ele>
        <time>2018-06-16T06:31:49Z</time>
      </trkpt>
      <trkpt lat="38.1655850" lon="-3.5877050">
        <ele>416.8</ele>
        <time>2018-06-16T06:31:50Z</time>
      </trkpt>
      <trkpt lat="38.1656160" lon="-3.5876960">
        <ele>416.8</ele>
        <time>2018-06-16T06:31:51Z</time>
      </trkpt>
      <trkpt lat="38.1656470" lon="-3.5876860">
        <ele>417.0</ele>
        <time>2018-06-16T06:31:52Z</time>
      </trkpt>
      <trkpt lat="38.1656760" lon="-3.5876770">
        <ele>417.0</ele>
        <time>2018-06-16T06:31:53Z</time>
      </trkpt>
      <trkpt lat="38.1657050" lon="-3.5876670">
        <ele>417.2</ele>
        <time>2018-06-16T06:31:54Z</time>
      </trkpt>
      <trkpt lat="38.1657350" lon="-3.5876550">
        <ele>417.4</ele>
        <time>2018-06-16T06:31:55Z</time>
      </trkpt>
      <trkpt lat="38.1657650" lon="-3.5876440">
        <ele>417.4</ele>
        <time>2018-06-16T06:31:56Z</time>
      </trkpt>
      <trkpt lat="38.1657940" lon="-3.5876280">
        <ele>417.6</ele>
        <time>2018-06-16T06:31:57Z</time>
      </trkpt>
      <trkpt lat="38.1658220" lon="-3.5876170">
        <ele>417.6</ele>
        <time>2018-06-16T06:31:58Z</time>
      </trkpt>
      <trkpt lat="38.1658540" lon="-3.5876060">
        <ele>417.8</ele>
        <time>2018-06-16T06:31:59Z</time>
      </trkpt>
      <trkpt lat="38.1658820" lon="-3.5875930">
        <ele>417.8</ele>
        <time>2018-06-16T06:32:00Z</time>
      </trkpt>
      <trkpt lat="38.1659110" lon="-3.5875810">
        <ele>418.0</ele>
        <time>2018-06-16T06:32:01Z</time>
      </trkpt>
      <trkpt lat="38.1659410" lon="-3.5875670">
        <ele>418.0</ele>
        <time>2018-06-16T06:32:02Z</time>
      </trkpt>
      <trkpt lat="38.1659710" lon="-3.5875520">
        <ele>418.2</ele>
        <time>2018-06-16T06:32:03Z</time>
      </trkpt>
      <trkpt lat="38.1660030" lon="-3.5875370">
        <ele>418.2</ele>
        <time>2018-06-16T06:32:04Z</time>
      </trkpt>
      <trkpt lat="38.1660350" lon="-3.5875240">
        <ele>418.4</ele>
        <time>2018-06-16T06:32:05Z</time>
      </trkpt>
      <trkpt lat="38.1660650" lon="-3.5875110">
        <ele>418.4</ele>
        <time>2018-06-16T06:32:06Z</time>
      </trkpt>
      <trkpt lat="38.1660930" lon="-3.5874980">
        <ele>418.6</ele>
        <time>2018-06-16T06:32:07Z</time>
      </trkpt>
      <trkpt lat="38.1661280" lon="-3.5874860">
        <ele>418.8</ele>
        <time>2018-06-16T06:32:08Z</time>
      </trkpt>
      <trkpt lat="38.1661740" lon="-3.5874640">
        <ele>418.8</ele>
        <time>2018-06-16T06:32:09Z</time>
      </trkpt>
      <trkpt lat="38.1661870" lon="-3.5874550">
        <ele>419.0</ele>
        <time>2018-06-16T06:32:10Z</time>
      </trkpt>
      <trkpt lat="38.1662160" lon="-3.5874380">
        <ele>419.0</ele>
        <time>2018-06-16T06:32:11Z</time>
      </trkpt>
      <trkpt lat="38.1662520" lon="-3.5874250">
        <ele>419.2</ele>
        <time>2018-06-16T06:32:12Z</time>
      </trkpt>
      <trkpt lat="38.1662810" lon="-3.5874130">
        <ele>419.4</ele>
        <time>2018-06-16T06:32:13Z</time>
      </trkpt>
      <trkpt lat="38.1663110" lon="-3.5874040">
        <ele>419.4</ele>
        <time>2018-06-16T06:32:14Z</time>
      </trkpt>
      <trkpt lat="38.1663400" lon="-3.5873930">
        <ele>419.6</ele>
        <time>2018-06-16T06:32:15Z</time>
      </trkpt>
      <trkpt lat="38.1663730" lon="-3.5873790">
        <ele>419.6</ele>
        <time>2018-06-16T06:32:16Z</time>
      </trkpt>
      <trkpt lat="38.1664080" lon="-3.5873660">
        <ele>419.8</ele>
        <time>2018-06-16T06:32:17Z</time>
      </trkpt>
      <trkpt lat="38.1664400" lon="-3.5873540">
        <ele>420.0</ele>
        <time>2018-06-16T06:32:18Z</time>
      </trkpt>
      <trkpt lat="38.1664760" lon="-3.5873430">
        <ele>420.2</ele>
        <time>2018-06-16T06:32:19Z</time>
      </trkpt>
      <trkpt lat="38.1665080" lon="-3.5873320">
        <ele>420.4</ele>
        <time>2018-06-16T06:32:20Z</time>
      </trkpt>
      <trkpt lat="38.1665360" lon="-3.5873170">
        <ele>420.6</ele>
        <time>2018-06-16T06:32:21Z</time>
      </trkpt>
      <trkpt lat="38.1665590" lon="-3.5873020">
        <ele>420.8</ele>
        <time>2018-06-16T06:32:22Z</time>
      </trkpt>
      <trkpt lat="38.1665850" lon="-3.5872900">
        <ele>421.0</ele>
        <time>2018-06-16T06:32:23Z</time>
      </trkpt>
      <trkpt lat="38.1666230" lon="-3.5872790">
        <ele>421.2</ele>
        <time>2018-06-16T06:32:24Z</time>
      </trkpt>
      <trkpt lat="38.1666530" lon="-3.5872680">
        <ele>421.4</ele>
        <time>2018-06-16T06:32:25Z</time>
      </trkpt>
      <trkpt lat="38.1666860" lon="-3.5872550">
        <ele>421.6</ele>
        <time>2018-06-16T06:32:26Z</time>
      </trkpt>
      <trkpt lat="38.1667170" lon="-3.5872420">
        <ele>421.8</ele>
        <time>2018-06-16T06:32:27Z</time>
      </trkpt>
      <trkpt lat="38.1667440" lon="-3.5872290">
        <ele>422.0</ele>
        <time>2018-06-16T06:32:28Z</time>
      </trkpt>
      <trkpt lat="38.1667690" lon="-3.5872170">
        <ele>422.2</ele>
        <time>2018-06-16T06:32:29Z</time>
      </trkpt>
      <trkpt lat="38.1667950" lon="-3.5872030">
        <ele>422.4</ele>
        <time>2018-06-16T06:32:30Z</time>
      </trkpt>
      <trkpt lat="38.1668220" lon="-3.5871880">
        <ele>422.6</ele>
        <time>2018-06-16T06:32:31Z</time>
      </trkpt>
      <trkpt lat="38.1668480" lon="-3.5871730">
        <ele>423.0</ele>
        <time>2018-06-16T06:32:32Z</time>
      </trkpt>
      <trkpt lat="38.1668720" lon="-3.5871570">
        <ele>423.2</ele>
        <time>2018-06-16T06:32:33Z</time>
      </trkpt>
      <trkpt lat="38.1668980" lon="-3.5871370">
        <ele>423.2</ele>
        <time>2018-06-16T06:32:34Z</time>
      </trkpt>
      <trkpt lat="38.1669230" lon="-3.5871180">
        <ele>423.4</ele>
        <time>2018-06-16T06:32:35Z</time>
      </trkpt>
      <trkpt lat="38.1669460" lon="-3.5870990">
        <ele>423.8</ele>
        <time>2018-06-16T06:32:36Z</time>
      </trkpt>
      <trkpt lat="38.1669680" lon="-3.5870790">
        <ele>424.0</ele>
        <time>2018-06-16T06:32:37Z</time>
      </trkpt>
      <trkpt lat="38.1669890" lon="-3.5870580">
        <ele>424.0</ele>
        <time>2018-06-16T06:32:38Z</time>
      </trkpt>
      <trkpt lat="38.1670080" lon="-3.5870350">
        <ele>424.2</ele>
        <time>2018-06-16T06:32:39Z</time>
      </trkpt>
      <trkpt lat="38.1670260" lon="-3.5870110">
        <ele>424.4</ele>
        <time>2018-06-16T06:32:40Z</time>
      </trkpt>
      <trkpt lat="38.1670440" lon="-3.5869870">
        <ele>424.6</ele>
        <time>2018-06-16T06:32:41Z</time>
      </trkpt>
      <trkpt lat="38.1670600" lon="-3.5869630">
        <ele>424.8</ele>
        <time>2018-06-16T06:32:42Z</time>
      </trkpt>
      <trkpt lat="38.1670740" lon="-3.5869370">
        <ele>425.0</ele>
        <time>2018-06-16T06:32:43Z</time>
      </trkpt>
      <trkpt lat="38.1670870" lon="-3.5869110">
        <ele>425.2</ele>
        <time>2018-06-16T06:32:44Z</time>
      </trkpt>
      <trkpt lat="38.1670970" lon="-3.5868850">
        <ele>425.4</ele>
        <time>2018-06-16T06:32:45Z</time>
      </trkpt>
      <trkpt lat="38.1671050" lon="-3.5868570">
        <ele>425.6</ele>
        <time>2018-06-16T06:32:46Z</time>
      </trkpt>
      <trkpt lat="38.1671140" lon="-3.5868300">
        <ele>425.8</ele>
        <time>2018-06-16T06:32:47Z</time>
      </trkpt>
      <trkpt lat="38.1671210" lon="-3.5868010">
        <ele>426.0</ele>
        <time>2018-06-16T06:32:48Z</time>
      </trkpt>
      <trkpt lat="38.1671280" lon="-3.5867720">
        <ele>426.2</ele>
        <time>2018-06-16T06:32:49Z</time>
      </trkpt>
      <trkpt lat="38.1671350" lon="-3.5867430">
        <ele>426.4</ele>
        <time>2018-06-16T06:32:50Z</time>
      </trkpt>
      <trkpt lat="38.1671410" lon="-3.5867130">
        <ele>426.6</ele>
        <time>2018-06-16T06:32:51Z</time>
      </trkpt>
      <trkpt lat="38.1671480" lon="-3.5866840">
        <ele>426.8</ele>
        <time>2018-06-16T06:32:52Z</time>
      </trkpt>
      <trkpt lat="38.1671560" lon="-3.5866540">
        <ele>427.0</ele>
        <time>2018-06-16T06:32:53Z</time>
      </trkpt>
      <trkpt lat="38.1671620" lon="-3.5866240">
        <ele>427.2</ele>
        <time>2018-06-16T06:32:54Z</time>
      </trkpt>
      <trkpt lat="38.1671660" lon="-3.5865940">
        <ele>427.4</ele>
        <time>2018-06-16T06:32:55Z</time>
      </trkpt>
      <trkpt lat="38.1671690" lon="-3.5865630">
        <ele>427.6</ele>
        <time>2018-06-16T06:32:56Z</time>
      </trkpt>
      <trkpt lat="38.1671740" lon="-3.5865320">
        <ele>427.8</ele>
        <time>2018-06-16T06:32:57Z</time>
      </trkpt>
      <trkpt lat="38.1671800" lon="-3.5865020">
        <ele>428.0</ele>
        <time>2018-06-16T06:32:58Z</time>
      </trkpt>
      <trkpt lat="38.1671870" lon="-3.5864720">
        <ele>428.2</ele>
        <time>2018-06-16T06:32:59Z</time>
      </trkpt>
      <trkpt lat="38.1671960" lon="-3.5864420">
        <ele>428.4</ele>
        <time>2018-06-16T06:33:00Z</time>
      </trkpt>
      <trkpt lat="38.1672140" lon="-3.5863990">
        <ele>428.4</ele>
        <time>2018-06-16T06:33:01Z</time>
      </trkpt>
      <trkpt lat="38.1672200" lon="-3.5863840">
        <ele>428.6</ele>
        <time>2018-06-16T06:33:02Z</time>
      </trkpt>
      <trkpt lat="38.1672320" lon="-3.5863580">
        <ele>428.8</ele>
        <time>2018-06-16T06:33:03Z</time>
      </trkpt>
      <trkpt lat="38.1672460" lon="-3.5863300">
        <ele>428.8</ele>
        <time>2018-06-16T06:33:04Z</time>
      </trkpt>
      <trkpt lat="38.1672460" lon="-3.5863300">
        <ele>428.8</ele>
        <time>2018-06-16T06:33:05Z</time>
      </trkpt>
      <trkpt lat="38.1672710" lon="-3.5862740">
        <ele>429.2</ele>
        <time>2018-06-16T06:33:06Z</time>
      </trkpt>
      <trkpt lat="38.1672830" lon="-3.5862460">
        <ele>429.2</ele>
        <time>2018-06-16T06:33:07Z</time>
      </trkpt>
      <trkpt lat="38.1672960" lon="-3.5862180">
        <ele>429.4</ele>
        <time>2018-06-16T06:33:08Z</time>
      </trkpt>
      <trkpt lat="38.1673060" lon="-3.5861910">
        <ele>429.6</ele>
        <time>2018-06-16T06:33:09Z</time>
      </trkpt>
      <trkpt lat="38.1673160" lon="-3.5861610">
        <ele>429.8</ele>
        <time>2018-06-16T06:33:10Z</time>
      </trkpt>
      <trkpt lat="38.1673260" lon="-3.5861310">
        <ele>430.0</ele>
        <time>2018-06-16T06:33:11Z</time>
      </trkpt>
      <trkpt lat="38.1673330" lon="-3.5860990">
        <ele>430.2</ele>
        <time>2018-06-16T06:33:12Z</time>
      </trkpt>
      <trkpt lat="38.1673420" lon="-3.5860700">
        <ele>430.4</ele>
        <time>2018-06-16T06:33:13Z</time>
      </trkpt>
      <trkpt lat="38.1673500" lon="-3.5860380">
        <ele>430.6</ele>
        <time>2018-06-16T06:33:14Z</time>
      </trkpt>
      <trkpt lat="38.1673570" lon="-3.5860060">
        <ele>430.6</ele>
        <time>2018-06-16T06:33:15Z</time>
      </trkpt>
      <trkpt lat="38.1673640" lon="-3.5859770">
        <ele>430.8</ele>
        <time>2018-06-16T06:33:16Z</time>
      </trkpt>
      <trkpt lat="38.1673680" lon="-3.5859460">
        <ele>431.2</ele>
        <time>2018-06-16T06:33:17Z</time>
      </trkpt>
      <trkpt lat="38.1673700" lon="-3.5859150">
        <ele>431.2</ele>
        <time>2018-06-16T06:33:18Z</time>
      </trkpt>
      <trkpt lat="38.1673710" lon="-3.5858840">
        <ele>431.4</ele>
        <time>2018-06-16T06:33:19Z</time>
      </trkpt>
      <trkpt lat="38.1673710" lon="-3.5858530">
        <ele>431.4</ele>
        <time>2018-06-16T06:33:20Z</time>
      </trkpt>
      <trkpt lat="38.1673710" lon="-3.5858220">
        <ele>431.6</ele>
        <time>2018-06-16T06:33:21Z</time>
      </trkpt>
      <trkpt lat="38.1673700" lon="-3.5857920">
        <ele>431.8</ele>
        <time>2018-06-16T06:33:22Z</time>
      </trkpt>
      <trkpt lat="38.1673690" lon="-3.5857670">
        <ele>432.0</ele>
        <time>2018-06-16T06:33:23Z</time>
      </trkpt>
      <trkpt lat="38.1673700" lon="-3.5857380">
        <ele>432.2</ele>
        <time>2018-06-16T06:33:24Z</time>
      </trkpt>
      <trkpt lat="38.1673700" lon="-3.5857080">
        <ele>432.4</ele>
        <time>2018-06-16T06:33:25Z</time>
      </trkpt>
      <trkpt lat="38.1673690" lon="-3.5856800">
        <ele>432.6</ele>
        <time>2018-06-16T06:33:26Z</time>
      </trkpt>
      <trkpt lat="38.1673660" lon="-3.5856540">
        <ele>432.8</ele>
        <time>2018-06-16T06:33:27Z</time>
      </trkpt>
      <trkpt lat="38.1673640" lon="-3.5856260">
        <ele>433.2</ele>
        <time>2018-06-16T06:33:28Z</time>
      </trkpt>
      <trkpt lat="38.1673610" lon="-3.5855990">
        <ele>433.2</ele>
        <time>2018-06-16T06:33:29Z</time>
      </trkpt>
      <trkpt lat="38.1673600" lon="-3.5855560">
        <ele>433.6</ele>
        <time>2018-06-16T06:33:30Z</time>
      </trkpt>
      <trkpt lat="38.1673600" lon="-3.5855410">
        <ele>433.8</ele>
        <time>2018-06-16T06:33:31Z</time>
      </trkpt>
      <trkpt lat="38.1673610" lon="-3.5855100">
        <ele>434.0</ele>
        <time>2018-06-16T06:33:32Z</time>
      </trkpt>
      <trkpt lat="38.1673640" lon="-3.5854780">
        <ele>434.4</ele>
        <time>2018-06-16T06:33:33Z</time>
      </trkpt>
      <trkpt lat="38.1673690" lon="-3.5854450">
        <ele>434.6</ele>
        <time>2018-06-16T06:33:34Z</time>
      </trkpt>
      <trkpt lat="38.1673720" lon="-3.5854150">
        <ele>434.8</ele>
        <time>2018-06-16T06:33:35Z</time>
      </trkpt>
      <trkpt lat="38.1673750" lon="-3.5853850">
        <ele>435.2</ele>
        <time>2018-06-16T06:33:36Z</time>
      </trkpt>
      <trkpt lat="38.1673820" lon="-3.5853500">
        <ele>435.4</ele>
        <time>2018-06-16T06:33:37Z</time>
      </trkpt>
      <trkpt lat="38.1673920" lon="-3.5853230">
        <ele>435.6</ele>
        <time>2018-06-16T06:33:38Z</time>
      </trkpt>
      <trkpt lat="38.1674040" lon="-3.5852970">
        <ele>435.8</ele>
        <time>2018-06-16T06:33:39Z</time>
      </trkpt>
      <trkpt lat="38.1674160" lon="-3.5852710">
        <ele>436.0</ele>
        <time>2018-06-16T06:33:40Z</time>
      </trkpt>
      <trkpt lat="38.1674290" lon="-3.5852440">
        <ele>436.2</ele>
        <time>2018-06-16T06:33:41Z</time>
      </trkpt>
      <trkpt lat="38.1674430" lon="-3.5852200">
        <ele>436.6</ele>
        <time>2018-06-16T06:33:42Z</time>
      </trkpt>
      <trkpt lat="38.1674600" lon="-3.5851970">
        <ele>436.8</ele>
        <time>2018-06-16T06:33:43Z</time>
      </trkpt>
      <trkpt lat="38.1674810" lon="-3.5851790">
        <ele>437.0</ele>
        <time>2018-06-16T06:33:44Z</time>
      </trkpt>
      <trkpt lat="38.1675020" lon="-3.5851610">
        <ele>437.2</ele>
        <time>2018-06-16T06:33:45Z</time>
      </trkpt>
      <trkpt lat="38.1675240" lon="-3.5851470">
        <ele>437.4</ele>
        <time>2018-06-16T06:33:46Z</time>
      </trkpt>
      <trkpt lat="38.1675460" lon="-3.5851350">
        <ele>437.4</ele>
        <time>2018-06-16T06:33:47Z</time>
      </trkpt>
      <trkpt lat="38.1675700" lon="-3.5851250">
        <ele>437.6</ele>
        <time>2018-06-16T06:33:48Z</time>
      </trkpt>
      <trkpt lat="38.1675940" lon="-3.5851170">
        <ele>437.8</ele>
        <time>2018-06-16T06:33:49Z</time>
      </trkpt>
      <trkpt lat="38.1676170" lon="-3.5851090">
        <ele>437.8</ele>
        <time>2018-06-16T06:33:50Z</time>
      </trkpt>
      <trkpt lat="38.1676410" lon="-3.5851010">
        <ele>438.0</ele>
        <time>2018-06-16T06:33:51Z</time>
      </trkpt>
      <trkpt lat="38.1676650" lon="-3.5850950">
        <ele>438.0</ele>
        <time>2018-06-16T06:33:52Z</time>
      </trkpt>
      <trkpt lat="38.1676910" lon="-3.5850910">
        <ele>438.2</ele>
        <time>2018-06-16T06:33:53Z</time>
      </trkpt>
      <trkpt lat="38.1677160" lon="-3.5850880">
        <ele>438.4</ele>
        <time>2018-06-16T06:33:54Z</time>
      </trkpt>
      <trkpt lat="38.1677410" lon="-3.5850860">
        <ele>438.4</ele>
        <time>2018-06-16T06:33:55Z</time>
      </trkpt>
      <trkpt lat="38.1677650" lon="-3.5850840">
        <ele>438.6</ele>
        <time>2018-06-16T06:33:56Z</time>
      </trkpt>
      <trkpt lat="38.1677900" lon="-3.5850810">
        <ele>438.6</ele>
        <time>2018-06-16T06:33:57Z</time>
      </trkpt>
      <trkpt lat="38.1678140" lon="-3.5850770">
        <ele>438.8</ele>
        <time>2018-06-16T06:33:58Z</time>
      </trkpt>
      <trkpt lat="38.1678400" lon="-3.5850750">
        <ele>438.8</ele>
        <time>2018-06-16T06:33:59Z</time>
      </trkpt>
      <trkpt lat="38.1678650" lon="-3.5850720">
        <ele>439.0</ele>
        <time>2018-06-16T06:34:00Z</time>
      </trkpt>
      <trkpt lat="38.1678910" lon="-3.5850680">
        <ele>439.0</ele>
        <time>2018-06-16T06:34:01Z</time>
      </trkpt>
      <trkpt lat="38.1679150" lon="-3.5850640">
        <ele>439.2</ele>
        <time>2018-06-16T06:34:02Z</time>
      </trkpt>
      <trkpt lat="38.1679390" lon="-3.5850610">
        <ele>439.4</ele>
        <time>2018-06-16T06:34:03Z</time>
      </trkpt>
      <trkpt lat="38.1679630" lon="-3.5850590">
        <ele>439.6</ele>
        <time>2018-06-16T06:34:04Z</time>
      </trkpt>
      <trkpt lat="38.1679870" lon="-3.5850550">
        <ele>439.8</ele>
        <time>2018-06-16T06:34:05Z</time>
      </trkpt>
      <trkpt lat="38.1680100" lon="-3.5850490">
        <ele>440.0</ele>
        <time>2018-06-16T06:34:06Z</time>
      </trkpt>
      <trkpt lat="38.1680340" lon="-3.5850430">
        <ele>440.2</ele>
        <time>2018-06-16T06:34:07Z</time>
      </trkpt>
      <trkpt lat="38.1680580" lon="-3.5850390">
        <ele>440.4</ele>
        <time>2018-06-16T06:34:08Z</time>
      </trkpt>
      <trkpt lat="38.1680810" lon="-3.5850340">
        <ele>440.8</ele>
        <time>2018-06-16T06:34:09Z</time>
      </trkpt>
      <trkpt lat="38.1681040" lon="-3.5850280">
        <ele>441.0</ele>
        <time>2018-06-16T06:34:10Z</time>
      </trkpt>
      <trkpt lat="38.1681280" lon="-3.5850240">
        <ele>441.2</ele>
        <time>2018-06-16T06:34:11Z</time>
      </trkpt>
      <trkpt lat="38.1681520" lon="-3.5850200">
        <ele>441.4</ele>
        <time>2018-06-16T06:34:12Z</time>
      </trkpt>
      <trkpt lat="38.1681880" lon="-3.5850190">
        <ele>441.8</ele>
        <time>2018-06-16T06:34:13Z</time>
      </trkpt>
      <trkpt lat="38.1681990" lon="-3.5850190">
        <ele>442.0</ele>
        <time>2018-06-16T06:34:14Z</time>
      </trkpt>
      <trkpt lat="38.1682350" lon="-3.5850210">
        <ele>442.2</ele>
        <time>2018-06-16T06:34:15Z</time>
      </trkpt>
      <trkpt lat="38.1682460" lon="-3.5850220">
        <ele>442.6</ele>
        <time>2018-06-16T06:34:16Z</time>
      </trkpt>
      <trkpt lat="38.1682680" lon="-3.5850250">
        <ele>442.8</ele>
        <time>2018-06-16T06:34:17Z</time>
      </trkpt>
      <trkpt lat="38.1682910" lon="-3.5850290">
        <ele>443.0</ele>
        <time>2018-06-16T06:34:18Z</time>
      </trkpt>
      <trkpt lat="38.1683130" lon="-3.5850350">
        <ele>443.4</ele>
        <time>2018-06-16T06:34:19Z</time>
      </trkpt>
      <trkpt lat="38.1683340" lon="-3.5850420">
        <ele>443.6</ele>
        <time>2018-06-16T06:34:20Z</time>
      </trkpt>
      <trkpt lat="38.1683570" lon="-3.5850500">
        <ele>443.8</ele>
        <time>2018-06-16T06:34:21Z</time>
      </trkpt>
      <trkpt lat="38.1683790" lon="-3.5850600">
        <ele>444.0</ele>
        <time>2018-06-16T06:34:22Z</time>
      </trkpt>
      <trkpt lat="38.1684000" lon="-3.5850720">
        <ele>444.2</ele>
        <time>2018-06-16T06:34:23Z</time>
      </trkpt>
      <trkpt lat="38.1684230" lon="-3.5850860">
        <ele>444.4</ele>
        <time>2018-06-16T06:34:24Z</time>
      </trkpt>
      <trkpt lat="38.1684450" lon="-3.5851000">
        <ele>444.6</ele>
        <time>2018-06-16T06:34:25Z</time>
      </trkpt>
      <trkpt lat="38.1684670" lon="-3.5851140">
        <ele>444.6</ele>
        <time>2018-06-16T06:34:26Z</time>
      </trkpt>
      <trkpt lat="38.1684890" lon="-3.5851300">
        <ele>444.8</ele>
        <time>2018-06-16T06:34:27Z</time>
      </trkpt>
      <trkpt lat="38.1685100" lon="-3.5851480">
        <ele>444.8</ele>
        <time>2018-06-16T06:34:28Z</time>
      </trkpt>
      <trkpt lat="38.1685300" lon="-3.5851670">
        <ele>445.0</ele>
        <time>2018-06-16T06:34:29Z</time>
      </trkpt>
      <trkpt lat="38.1685590" lon="-3.5851970">
        <ele>445.0</ele>
        <time>2018-06-16T06:34:30Z</time>
      </trkpt>
      <trkpt lat="38.1685680" lon="-3.5852070">
        <ele>445.2</ele>
        <time>2018-06-16T06:34:31Z</time>
      </trkpt>
      <trkpt lat="38.1685870" lon="-3.5852270">
        <ele>445.4</ele>
        <time>2018-06-16T06:34:32Z</time>
      </trkpt>
      <trkpt lat="38.1686050" lon="-3.5852450">
        <ele>445.4</ele>
        <time>2018-06-16T06:34:33Z</time>
      </trkpt>
      <trkpt lat="38.1686240" lon="-3.5852650">
        <ele>445.6</ele>
        <time>2018-06-16T06:34:34Z</time>
      </trkpt>
      <trkpt lat="38.1686400" lon="-3.5852860">
        <ele>445.6</ele>
        <time>2018-06-16T06:34:35Z</time>
      </trkpt>
      <trkpt lat="38.1686570" lon="-3.5853080">
        <ele>445.6</ele>
        <time>2018-06-16T06:34:36Z</time>
      </trkpt>
      <trkpt lat="38.1686730" lon="-3.5853310">
        <ele>445.8</ele>
        <time>2018-06-16T06:34:37Z</time>
      </trkpt>
      <trkpt lat="38.1686870" lon="-3.5853500">
        <ele>445.8</ele>
        <time>2018-06-16T06:34:38Z</time>
      </trkpt>
      <trkpt lat="38.1687000" lon="-3.5853750">
        <ele>445.6</ele>
        <time>2018-06-16T06:34:39Z</time>
      </trkpt>
      <trkpt lat="38.1687140" lon="-3.5854030">
        <ele>445.6</ele>
        <time>2018-06-16T06:34:40Z</time>
      </trkpt>
      <trkpt lat="38.1687310" lon="-3.5854320">
        <ele>445.6</ele>
        <time>2018-06-16T06:34:41Z</time>
      </trkpt>
      <trkpt lat="38.1687510" lon="-3.5854630">
        <ele>445.6</ele>
        <time>2018-06-16T06:34:42Z</time>
      </trkpt>
      <trkpt lat="38.1687700" lon="-3.5854970">
        <ele>445.6</ele>
        <time>2018-06-16T06:34:43Z</time>
      </trkpt>
      <trkpt lat="38.1687880" lon="-3.5855300">
        <ele>445.8</ele>
        <time>2018-06-16T06:34:44Z</time>
      </trkpt>
      <trkpt lat="38.1688090" lon="-3.5855640">
        <ele>445.8</ele>
        <time>2018-06-16T06:34:45Z</time>
      </trkpt>
      <trkpt lat="38.1688300" lon="-3.5855980">
        <ele>445.8</ele>
        <time>2018-06-16T06:34:46Z</time>
      </trkpt>
      <trkpt lat="38.1688490" lon="-3.5856320">
        <ele>445.8</ele>
        <time>2018-06-16T06:34:47Z</time>
      </trkpt>
      <trkpt lat="38.1688680" lon="-3.5856680">
        <ele>445.8</ele>
        <time>2018-06-16T06:34:48Z</time>
      </trkpt>
      <trkpt lat="38.1688880" lon="-3.5856980">
        <ele>446.0</ele>
        <time>2018-06-16T06:34:49Z</time>
      </trkpt>
      <trkpt lat="38.1689080" lon="-3.5857270">
        <ele>446.2</ele>
        <time>2018-06-16T06:34:50Z</time>
      </trkpt>
      <trkpt lat="38.1689260" lon="-3.5857550">
        <ele>446.4</ele>
        <time>2018-06-16T06:34:51Z</time>
      </trkpt>
      <trkpt lat="38.1689440" lon="-3.5857890">
        <ele>446.6</ele>
        <time>2018-06-16T06:34:52Z</time>
      </trkpt>
      <trkpt lat="38.1689630" lon="-3.5858190">
        <ele>446.8</ele>
        <time>2018-06-16T06:34:53Z</time>
      </trkpt>
      <trkpt lat="38.1689810" lon="-3.5858470">
        <ele>447.0</ele>
        <time>2018-06-16T06:34:54Z</time>
      </trkpt>
      <trkpt lat="38.1689970" lon="-3.5858720">
        <ele>447.2</ele>
        <time>2018-06-16T06:34:55Z</time>
      </trkpt>
      <trkpt lat="38.1690120" lon="-3.5859000">
        <ele>447.2</ele>
        <time>2018-06-16T06:34:56Z</time>
      </trkpt>
      <trkpt lat="38.1690270" lon="-3.5859250">
        <ele>447.4</ele>
        <time>2018-06-16T06:34:57Z</time>
      </trkpt>
      <trkpt lat="38.1690420" lon="-3.5859530">
        <ele>447.4</ele>
        <time>2018-06-16T06:34:58Z</time>
      </trkpt>
      <trkpt lat="38.1690600" lon="-3.5859890">
        <ele>447.6</ele>
        <time>2018-06-16T06:34:59Z</time>
      </trkpt>
      <trkpt lat="38.1690780" lon="-3.5860220">
        <ele>447.8</ele>
        <time>2018-06-16T06:35:00Z</time>
      </trkpt>
      <trkpt lat="38.1690960" lon="-3.5860550">
        <ele>447.8</ele>
        <time>2018-06-16T06:35:01Z</time>
      </trkpt>
      <trkpt lat="38.1691130" lon="-3.5860860">
        <ele>448.0</ele>
        <time>2018-06-16T06:35:02Z</time>
      </trkpt>
      <trkpt lat="38.1691320" lon="-3.5861160">
        <ele>448.2</ele>
        <time>2018-06-16T06:35:03Z</time>
      </trkpt>
      <trkpt lat="38.1691530" lon="-3.5861460">
        <ele>448.2</ele>
        <time>2018-06-16T06:35:04Z</time>
      </trkpt>
      <trkpt lat="38.1691740" lon="-3.5861780">
        <ele>448.4</ele>
        <time>2018-06-16T06:35:05Z</time>
      </trkpt>
      <trkpt lat="38.1691970" lon="-3.5862060">
        <ele>448.4</ele>
        <time>2018-06-16T06:35:06Z</time>
      </trkpt>
      <trkpt lat="38.1692200" lon="-3.5862400">
        <ele>448.6</ele>
        <time>2018-06-16T06:35:07Z</time>
      </trkpt>
      <trkpt lat="38.1692440" lon="-3.5862700">
        <ele>448.6</ele>
        <time>2018-06-16T06:35:08Z</time>
      </trkpt>
      <trkpt lat="38.1692710" lon="-3.5862940">
        <ele>448.8</ele>
        <time>2018-06-16T06:35:09Z</time>
      </trkpt>
      <trkpt lat="38.1692980" lon="-3.5863180">
        <ele>448.8</ele>
        <time>2018-06-16T06:35:10Z</time>
      </trkpt>
      <trkpt lat="38.1693240" lon="-3.5863400">
        <ele>449.0</ele>
        <time>2018-06-16T06:35:11Z</time>
      </trkpt>
      <trkpt lat="38.1693520" lon="-3.5863580">
        <ele>449.2</ele>
        <time>2018-06-16T06:35:12Z</time>
      </trkpt>
      <trkpt lat="38.1693830" lon="-3.5863730">
        <ele>449.2</ele>
        <time>2018-06-16T06:35:13Z</time>
      </trkpt>
      <trkpt lat="38.1694160" lon="-3.5863860">
        <ele>449.4</ele>
        <time>2018-06-16T06:35:14Z</time>
      </trkpt>
      <trkpt lat="38.1694490" lon="-3.5863980">
        <ele>449.4</ele>
        <time>2018-06-16T06:35:15Z</time>
      </trkpt>
      <trkpt lat="38.1694840" lon="-3.5864080">
        <ele>449.6</ele>
        <time>2018-06-16T06:35:16Z</time>
      </trkpt>
      <trkpt lat="38.1695190" lon="-3.5864160">
        <ele>449.6</ele>
        <time>2018-06-16T06:35:17Z</time>
      </trkpt>
      <trkpt lat="38.1695540" lon="-3.5864210">
        <ele>449.6</ele>
        <time>2018-06-16T06:35:18Z</time>
      </trkpt>
      <trkpt lat="38.1695880" lon="-3.5864250">
        <ele>449.6</ele>
        <time>2018-06-16T06:35:19Z</time>
      </trkpt>
      <trkpt lat="38.1696240" lon="-3.5864320">
        <ele>449.6</ele>
        <time>2018-06-16T06:35:20Z</time>
      </trkpt>
      <trkpt lat="38.1696620" lon="-3.5864410">
        <ele>449.6</ele>
        <time>2018-06-16T06:35:21Z</time>
      </trkpt>
      <trkpt lat="38.1697000" lon="-3.5864480">
        <ele>449.6</ele>
        <time>2018-06-16T06:35:22Z</time>
      </trkpt>
      <trkpt lat="38.1697400" lon="-3.5864480">
        <ele>449.6</ele>
        <time>2018-06-16T06:35:23Z</time>
      </trkpt>
      <trkpt lat="38.1697780" lon="-3.5864490">
        <ele>449.6</ele>
        <time>2018-06-16T06:35:24Z</time>
      </trkpt>
      <trkpt lat="38.1698170" lon="-3.5864510">
        <ele>449.6</ele>
        <time>2018-06-16T06:35:25Z</time>
      </trkpt>
      <trkpt lat="38.1698570" lon="-3.5864490">
        <ele>449.6</ele>
        <time>2018-06-16T06:35:26Z</time>
      </trkpt>
      <trkpt lat="38.1698990" lon="-3.5864460">
        <ele>449.6</ele>
        <time>2018-06-16T06:35:27Z</time>
      </trkpt>
      <trkpt lat="38.1699390" lon="-3.5864400">
        <ele>449.8</ele>
        <time>2018-06-16T06:35:28Z</time>
      </trkpt>
      <trkpt lat="38.1699760" lon="-3.5864300">
        <ele>449.8</ele>
        <time>2018-06-16T06:35:29Z</time>
      </trkpt>
      <trkpt lat="38.1700150" lon="-3.5864210">
        <ele>449.8</ele>
        <time>2018-06-16T06:35:30Z</time>
      </trkpt>
      <trkpt lat="38.1700530" lon="-3.5864100">
        <ele>450.0</ele>
        <time>2018-06-16T06:35:31Z</time>
      </trkpt>
      <trkpt lat="38.1700880" lon="-3.5863960">
        <ele>450.0</ele>
        <time>2018-06-16T06:35:32Z</time>
      </trkpt>
      <trkpt lat="38.1701240" lon="-3.5863820">
        <ele>450.0</ele>
        <time>2018-06-16T06:35:33Z</time>
      </trkpt>
      <trkpt lat="38.1701620" lon="-3.5863680">
        <ele>450.2</ele>
        <time>2018-06-16T06:35:34Z</time>
      </trkpt>
      <trkpt lat="38.1701990" lon="-3.5863550">
        <ele>450.2</ele>
        <time>2018-06-16T06:35:35Z</time>
      </trkpt>
      <trkpt lat="38.1702350" lon="-3.5863430">
        <ele>450.2</ele>
        <time>2018-06-16T06:35:36Z</time>
      </trkpt>
      <trkpt lat="38.1702680" lon="-3.5863320">
        <ele>450.4</ele>
        <time>2018-06-16T06:35:37Z</time>
      </trkpt>
      <trkpt lat="38.1703070" lon="-3.5863200">
        <ele>450.4</ele>
        <time>2018-06-16T06:35:38Z</time>
      </trkpt>
      <trkpt lat="38.1703440" lon="-3.5863060">
        <ele>450.6</ele>
        <time>2018-06-16T06:35:39Z</time>
      </trkpt>
      <trkpt lat="38.1703830" lon="-3.5862940">
        <ele>450.6</ele>
        <time>2018-06-16T06:35:40Z</time>
      </trkpt>
      <trkpt lat="38.1704210" lon="-3.5862820">
        <ele>450.8</ele>
        <time>2018-06-16T06:35:41Z</time>
      </trkpt>
      <trkpt lat="38.1704590" lon="-3.5862690">
        <ele>451.0</ele>
        <time>2018-06-16T06:35:42Z</time>
      </trkpt>
      <trkpt lat="38.1704970" lon="-3.5862560">
        <ele>451.2</ele>
        <time>2018-06-16T06:35:43Z</time>
      </trkpt>
      <trkpt lat="38.1705340" lon="-3.5862440">
        <ele>451.2</ele>
        <time>2018-06-16T06:35:44Z</time>
      </trkpt>
      <trkpt lat="38.1705720" lon="-3.5862340">
        <ele>451.4</ele>
        <time>2018-06-16T06:35:45Z</time>
      </trkpt>
      <trkpt lat="38.1706080" lon="-3.5862210">
        <ele>451.6</ele>
        <time>2018-06-16T06:35:46Z</time>
      </trkpt>
      <trkpt lat="38.1706440" lon="-3.5862060">
        <ele>451.8</ele>
        <time>2018-06-16T06:35:47Z</time>
      </trkpt>
      <trkpt lat="38.1706790" lon="-3.5861950">
        <ele>452.0</ele>
        <time>2018-06-16T06:35:48Z</time>
      </trkpt>
      <trkpt lat="38.1707120" lon="-3.5861860">
        <ele>452.2</ele>
        <time>2018-06-16T06:35:49Z</time>
      </trkpt>
      <trkpt lat="38.1707470" lon="-3.5861780">
        <ele>452.4</ele>
        <time>2018-06-16T06:35:50Z</time>
      </trkpt>
      <trkpt lat="38.1707800" lon="-3.5861650">
        <ele>452.6</ele>
        <time>2018-06-16T06:35:51Z</time>
      </trkpt>
      <trkpt lat="38.1708120" lon="-3.5861510">
        <ele>452.8</ele>
        <time>2018-06-16T06:35:52Z</time>
      </trkpt>
      <trkpt lat="38.1708460" lon="-3.5861410">
        <ele>453.0</ele>
        <time>2018-06-16T06:35:53Z</time>
      </trkpt>
      <trkpt lat="38.1708790" lon="-3.5861280">
        <ele>453.2</ele>
        <time>2018-06-16T06:35:54Z</time>
      </trkpt>
      <trkpt lat="38.1709120" lon="-3.5861170">
        <ele>453.4</ele>
        <time>2018-06-16T06:35:55Z</time>
      </trkpt>
      <trkpt lat="38.1709440" lon="-3.5861060">
        <ele>453.6</ele>
        <time>2018-06-16T06:35:56Z</time>
      </trkpt>
      <trkpt lat="38.1709760" lon="-3.5860940">
        <ele>453.8</ele>
        <time>2018-06-16T06:35:57Z</time>
      </trkpt>
      <trkpt lat="38.1710050" lon="-3.5860810">
        <ele>454.0</ele>
        <time>2018-06-16T06:35:58Z</time>
      </trkpt>
      <trkpt lat="38.1710360" lon="-3.5860690">
        <ele>454.2</ele>
        <time>2018-06-16T06:35:59Z</time>
      </trkpt>
      <trkpt lat="38.1710670" lon="-3.5860570">
        <ele>454.6</ele>
        <time>2018-06-16T06:36:00Z</time>
      </trkpt>
      <trkpt lat="38.1710980" lon="-3.5860440">
        <ele>454.6</ele>
        <time>2018-06-16T06:36:01Z</time>
      </trkpt>
      <trkpt lat="38.1711330" lon="-3.5860350">
        <ele>455.0</ele>
        <time>2018-06-16T06:36:02Z</time>
      </trkpt>
      <trkpt lat="38.1711640" lon="-3.5860250">
        <ele>455.2</ele>
        <time>2018-06-16T06:36:03Z</time>
      </trkpt>
      <trkpt lat="38.1711960" lon="-3.5860150">
        <ele>455.6</ele>
        <time>2018-06-16T06:36:04Z</time>
      </trkpt>
      <trkpt lat="38.1712280" lon="-3.5860050">
        <ele>455.6</ele>
        <time>2018-06-16T06:36:05Z</time>
      </trkpt>
      <trkpt lat="38.1712600" lon="-3.5859940">
        <ele>455.8</ele>
        <time>2018-06-16T06:36:06Z</time>
      </trkpt>
      <trkpt lat="38.1712930" lon="-3.5859850">
        <ele>456.0</ele>
        <time>2018-06-16T06:36:07Z</time>
      </trkpt>
      <trkpt lat="38.1713260" lon="-3.5859750">
        <ele>456.2</ele>
        <time>2018-06-16T06:36:08Z</time>
      </trkpt>
      <trkpt lat="38.1713580" lon="-3.5859630">
        <ele>456.4</ele>
        <time>2018-06-16T06:36:09Z</time>
      </trkpt>
      <trkpt lat="38.1713900" lon="-3.5859510">
        <ele>456.6</ele>
        <time>2018-06-16T06:36:10Z</time>
      </trkpt>
      <trkpt lat="38.1714220" lon="-3.5859380">
        <ele>456.8</ele>
        <time>2018-06-16T06:36:11Z</time>
      </trkpt>
      <trkpt lat="38.1714540" lon="-3.5859250">
        <ele>456.8</ele>
        <time>2018-06-16T06:36:12Z</time>
      </trkpt>
      <trkpt lat="38.1714860" lon="-3.5859120">
        <ele>457.0</ele>
        <time>2018-06-16T06:36:13Z</time>
      </trkpt>
      <trkpt lat="38.1715140" lon="-3.5858950">
        <ele>457.2</ele>
        <time>2018-06-16T06:36:14Z</time>
      </trkpt>
      <trkpt lat="38.1715610" lon="-3.5858760">
        <ele>457.4</ele>
        <time>2018-06-16T06:36:15Z</time>
      </trkpt>
      <trkpt lat="38.1715770" lon="-3.5858710">
        <ele>457.6</ele>
        <time>2018-06-16T06:36:16Z</time>
      </trkpt>
      <trkpt lat="38.1716110" lon="-3.5858600">
        <ele>457.6</ele>
        <time>2018-06-16T06:36:17Z</time>
      </trkpt>
      <trkpt lat="38.1716450" lon="-3.5858490">
        <ele>457.8</ele>
        <time>2018-06-16T06:36:18Z</time>
      </trkpt>
      <trkpt lat="38.1716780" lon="-3.5858360">
        <ele>458.0</ele>
        <time>2018-06-16T06:36:19Z</time>
      </trkpt>
      <trkpt lat="38.1717110" lon="-3.5858290">
        <ele>458.0</ele>
        <time>2018-06-16T06:36:20Z</time>
      </trkpt>
      <trkpt lat="38.1717420" lon="-3.5858200">
        <ele>458.4</ele>
        <time>2018-06-16T06:36:21Z</time>
      </trkpt>
      <trkpt lat="38.1717750" lon="-3.5858100">
        <ele>458.4</ele>
        <time>2018-06-16T06:36:22Z</time>
      </trkpt>
      <trkpt lat="38.1718070" lon="-3.5858000">
        <ele>458.6</ele>
        <time>2018-06-16T06:36:23Z</time>
      </trkpt>
      <trkpt lat="38.1718370" lon="-3.5857880">
        <ele>458.8</ele>
        <time>2018-06-16T06:36:24Z</time>
      </trkpt>
      <trkpt lat="38.1718690" lon="-3.5857750">
        <ele>459.0</ele>
        <time>2018-06-16T06:36:25Z</time>
      </trkpt>
      <trkpt lat="38.1718980" lon="-3.5857630">
        <ele>459.2</ele>
        <time>2018-06-16T06:36:26Z</time>
      </trkpt>
      <trkpt lat="38.1719270" lon="-3.5857510">
        <ele>459.2</ele>
        <time>2018-06-16T06:36:27Z</time>
      </trkpt>
      <trkpt lat="38.1719600" lon="-3.5857420">
        <ele>459.4</ele>
        <time>2018-06-16T06:36:28Z</time>
      </trkpt>
      <trkpt lat="38.1719930" lon="-3.5857320">
        <ele>459.6</ele>
        <time>2018-06-16T06:36:29Z</time>
      </trkpt>
      <trkpt lat="38.1720270" lon="-3.5857210">
        <ele>459.6</ele>
        <time>2018-06-16T06:36:30Z</time>
      </trkpt>
      <trkpt lat="38.1720620" lon="-3.5857100">
        <ele>459.8</ele>
        <time>2018-06-16T06:36:31Z</time>
      </trkpt>
      <trkpt lat="38.1720970" lon="-3.5857000">
        <ele>459.8</ele>
        <time>2018-06-16T06:36:32Z</time>
      </trkpt>
      <trkpt lat="38.1721330" lon="-3.5856900">
        <ele>460.0</ele>
        <time>2018-06-16T06:36:33Z</time>
      </trkpt>
      <trkpt lat="38.1721670" lon="-3.5856790">
        <ele>460.0</ele>
        <time>2018-06-16T06:36:34Z</time>
      </trkpt>
      <trkpt lat="38.1722030" lon="-3.5856680">
        <ele>460.2</ele>
        <time>2018-06-16T06:36:35Z</time>
      </trkpt>
      <trkpt lat="38.1722380" lon="-3.5856590">
        <ele>460.2</ele>
        <time>2018-06-16T06:36:36Z</time>
      </trkpt>
      <trkpt lat="38.1722740" lon="-3.5856530">
        <ele>460.4</ele>
        <time>2018-06-16T06:36:37Z</time>
      </trkpt>
      <trkpt lat="38.1723100" lon="-3.5856460">
        <ele>460.4</ele>
        <time>2018-06-16T06:36:38Z</time>
      </trkpt>
      <trkpt lat="38.1723460" lon="-3.5856370">
        <ele>460.6</ele>
        <time>2018-06-16T06:36:39Z</time>
      </trkpt>
      <trkpt lat="38.1723810" lon="-3.5856280">
        <ele>460.8</ele>
        <time>2018-06-16T06:36:40Z</time>
      </trkpt>
      <trkpt lat="38.1724170" lon="-3.5856200">
        <ele>460.8</ele>
        <time>2018-06-16T06:36:41Z</time>
      </trkpt>
      <trkpt lat="38.1724520" lon="-3.5856120">
        <ele>461.0</ele>
        <time>2018-06-16T06:36:42Z</time>
      </trkpt>
      <trkpt lat="38.1724880" lon="-3.5856050">
        <ele>461.0</ele>
        <time>2018-06-16T06:36:43Z</time>
      </trkpt>
      <trkpt lat="38.1725230" lon="-3.5855990">
        <ele>461.2</ele>
        <time>2018-06-16T06:36:44Z</time>
      </trkpt>
      <trkpt lat="38.1725580" lon="-3.5855940">
        <ele>461.2</ele>
        <time>2018-06-16T06:36:45Z</time>
      </trkpt>
      <trkpt lat="38.1725920" lon="-3.5855880">
        <ele>461.4</ele>
        <time>2018-06-16T06:36:46Z</time>
      </trkpt>
      <trkpt lat="38.1726260" lon="-3.5855800">
        <ele>461.6</ele>
        <time>2018-06-16T06:36:47Z</time>
      </trkpt>
      <trkpt lat="38.1726590" lon="-3.5855720">
        <ele>461.8</ele>
        <time>2018-06-16T06:36:48Z</time>
      </trkpt>
      <trkpt lat="38.1726920" lon="-3.5855670">
        <ele>462.0</ele>
        <time>2018-06-16T06:36:49Z</time>
      </trkpt>
      <trkpt lat="38.1727260" lon="-3.5855590">
        <ele>462.0</ele>
        <time>2018-06-16T06:36:50Z</time>
      </trkpt>
      <trkpt lat="38.1727580" lon="-3.5855520">
        <ele>462.2</ele>
        <time>2018-06-16T06:36:51Z</time>
      </trkpt>
      <trkpt lat="38.1727900" lon="-3.5855450">
        <ele>462.4</ele>
        <time>2018-06-16T06:36:52Z</time>
      </trkpt>
      <trkpt lat="38.1728240" lon="-3.5855380">
        <ele>462.6</ele>
        <time>2018-06-16T06:36:53Z</time>
      </trkpt>
      <trkpt lat="38.1728570" lon="-3.5855330">
        <ele>462.8</ele>
        <time>2018-06-16T06:36:54Z</time>
      </trkpt>
      <trkpt lat="38.1728920" lon="-3.5855280">
        <ele>462.8</ele>
        <time>2018-06-16T06:36:55Z</time>
      </trkpt>
      <trkpt lat="38.1729250" lon="-3.5855230">
        <ele>463.0</ele>
        <time>2018-06-16T06:36:56Z</time>
      </trkpt>
      <trkpt lat="38.1729560" lon="-3.5855150">
        <ele>463.2</ele>
        <time>2018-06-16T06:36:57Z</time>
      </trkpt>
      <trkpt lat="38.1729870" lon="-3.5855050">
        <ele>463.4</ele>
        <time>2018-06-16T06:36:58Z</time>
      </trkpt>
      <trkpt lat="38.1730210" lon="-3.5854940">
        <ele>463.4</ele>
        <time>2018-06-16T06:36:59Z</time>
      </trkpt>
      <trkpt lat="38.1730570" lon="-3.5854860">
        <ele>463.6</ele>
        <time>2018-06-16T06:37:00Z</time>
      </trkpt>
      <trkpt lat="38.1730920" lon="-3.5854790">
        <ele>463.6</ele>
        <time>2018-06-16T06:37:01Z</time>
      </trkpt>
      <trkpt lat="38.1731280" lon="-3.5854740">
        <ele>463.8</ele>
        <time>2018-06-16T06:37:02Z</time>
      </trkpt>
      <trkpt lat="38.1731630" lon="-3.5854670">
        <ele>464.0</ele>
        <time>2018-06-16T06:37:03Z</time>
      </trkpt>
      <trkpt lat="38.1731980" lon="-3.5854580">
        <ele>464.2</ele>
        <time>2018-06-16T06:37:04Z</time>
      </trkpt>
      <trkpt lat="38.1732320" lon="-3.5854510">
        <ele>464.4</ele>
        <time>2018-06-16T06:37:05Z</time>
      </trkpt>
      <trkpt lat="38.1732630" lon="-3.5854430">
        <ele>464.6</ele>
        <time>2018-06-16T06:37:06Z</time>
      </trkpt>
      <trkpt lat="38.1732990" lon="-3.5854420">
        <ele>464.8</ele>
        <time>2018-06-16T06:37:07Z</time>
      </trkpt>
      <trkpt lat="38.1733320" lon="-3.5854430">
        <ele>465.0</ele>
        <time>2018-06-16T06:37:08Z</time>
      </trkpt>
      <trkpt lat="38.1733650" lon="-3.5854500">
        <ele>465.0</ele>
        <time>2018-06-16T06:37:09Z</time>
      </trkpt>
      <trkpt lat="38.1734000" lon="-3.5854590">
        <ele>465.2</ele>
        <time>2018-06-16T06:37:10Z</time>
      </trkpt>
      <trkpt lat="38.1734350" lon="-3.5854740">
        <ele>465.4</ele>
        <time>2018-06-16T06:37:11Z</time>
      </trkpt>
      <trkpt lat="38.1734700" lon="-3.5854880">
        <ele>465.4</ele>
        <time>2018-06-16T06:37:12Z</time>
      </trkpt>
      <trkpt lat="38.1735040" lon="-3.5855040">
        <ele>465.4</ele>
        <time>2018-06-16T06:37:13Z</time>
      </trkpt>
      <trkpt lat="38.1735360" lon="-3.5855250">
        <ele>465.6</ele>
        <time>2018-06-16T06:37:14Z</time>
      </trkpt>
      <trkpt lat="38.1735660" lon="-3.5855470">
        <ele>465.6</ele>
        <time>2018-06-16T06:37:15Z</time>
      </trkpt>
      <trkpt lat="38.1735970" lon="-3.5855710">
        <ele>465.6</ele>
        <time>2018-06-16T06:37:16Z</time>
      </trkpt>
      <trkpt lat="38.1736240" lon="-3.5855960">
        <ele>465.8</ele>
        <time>2018-06-16T06:37:17Z</time>
      </trkpt>
      <trkpt lat="38.1736510" lon="-3.5856230">
        <ele>465.8</ele>
        <time>2018-06-16T06:37:18Z</time>
      </trkpt>
      <trkpt lat="38.1736800" lon="-3.5856500">
        <ele>466.0</ele>
        <time>2018-06-16T06:37:19Z</time>
      </trkpt>
      <trkpt lat="38.1737090" lon="-3.5856740">
        <ele>466.0</ele>
        <time>2018-06-16T06:37:20Z</time>
      </trkpt>
      <trkpt lat="38.1737390" lon="-3.5856970">
        <ele>466.0</ele>
        <time>2018-06-16T06:37:21Z</time>
      </trkpt>
      <trkpt lat="38.1737690" lon="-3.5857210">
        <ele>466.2</ele>
        <time>2018-06-16T06:37:22Z</time>
      </trkpt>
      <trkpt lat="38.1738000" lon="-3.5857440">
        <ele>466.2</ele>
        <time>2018-06-16T06:37:23Z</time>
      </trkpt>
      <trkpt lat="38.1738320" lon="-3.5857690">
        <ele>466.4</ele>
        <time>2018-06-16T06:37:24Z</time>
      </trkpt>
      <trkpt lat="38.1738620" lon="-3.5857930">
        <ele>466.4</ele>
        <time>2018-06-16T06:37:25Z</time>
      </trkpt>
      <trkpt lat="38.1738920" lon="-3.5858170">
        <ele>466.6</ele>
        <time>2018-06-16T06:37:26Z</time>
      </trkpt>
      <trkpt lat="38.1739230" lon="-3.5858420">
        <ele>466.6</ele>
        <time>2018-06-16T06:37:27Z</time>
      </trkpt>
      <trkpt lat="38.1739550" lon="-3.5858660">
        <ele>466.6</ele>
        <time>2018-06-16T06:37:28Z</time>
      </trkpt>
      <trkpt lat="38.1739860" lon="-3.5858920">
        <ele>466.8</ele>
        <time>2018-06-16T06:37:29Z</time>
      </trkpt>
      <trkpt lat="38.1740180" lon="-3.5859190">
        <ele>466.8</ele>
        <time>2018-06-16T06:37:30Z</time>
      </trkpt>
      <trkpt lat="38.1740490" lon="-3.5859420">
        <ele>467.0</ele>
        <time>2018-06-16T06:37:31Z</time>
      </trkpt>
      <trkpt lat="38.1740800" lon="-3.5859670">
        <ele>467.0</ele>
        <time>2018-06-16T06:37:32Z</time>
      </trkpt>
      <trkpt lat="38.1741110" lon="-3.5859930">
        <ele>467.0</ele>
        <time>2018-06-16T06:37:33Z</time>
      </trkpt>
      <trkpt lat="38.1741430" lon="-3.5860190">
        <ele>467.2</ele>
        <time>2018-06-16T06:37:34Z</time>
      </trkpt>
      <trkpt lat="38.1741750" lon="-3.5860440">
        <ele>467.2</ele>
        <time>2018-06-16T06:37:35Z</time>
      </trkpt>
      <trkpt lat="38.1742060" lon="-3.5860710">
        <ele>467.4</ele>
        <time>2018-06-16T06:37:36Z</time>
      </trkpt>
      <trkpt lat="38.1742370" lon="-3.5860990">
        <ele>467.4</ele>
        <time>2018-06-16T06:37:37Z</time>
      </trkpt>
      <trkpt lat="38.1742700" lon="-3.5861240">
        <ele>467.6</ele>
        <time>2018-06-16T06:37:38Z</time>
      </trkpt>
      <trkpt lat="38.1743050" lon="-3.5861480">
        <ele>467.6</ele>
        <time>2018-06-16T06:37:39Z</time>
      </trkpt>
      <trkpt lat="38.1743380" lon="-3.5861750">
        <ele>467.8</ele>
        <time>2018-06-16T06:37:40Z</time>
      </trkpt>
      <trkpt lat="38.1743720" lon="-3.5862020">
        <ele>468.0</ele>
        <time>2018-06-16T06:37:41Z</time>
      </trkpt>
      <trkpt lat="38.1744040" lon="-3.5862300">
        <ele>468.0</ele>
        <time>2018-06-16T06:37:42Z</time>
      </trkpt>
      <trkpt lat="38.1744370" lon="-3.5862540">
        <ele>468.2</ele>
        <time>2018-06-16T06:37:43Z</time>
      </trkpt>
      <trkpt lat="38.1744690" lon="-3.5862760">
        <ele>468.2</ele>
        <time>2018-06-16T06:37:44Z</time>
      </trkpt>
      <trkpt lat="38.1745020" lon="-3.5862970">
        <ele>468.4</ele>
        <time>2018-06-16T06:37:45Z</time>
      </trkpt>
      <trkpt lat="38.1745360" lon="-3.5863160">
        <ele>468.2</ele>
        <time>2018-06-16T06:37:46Z</time>
      </trkpt>
      <trkpt lat="38.1745710" lon="-3.5863330">
        <ele>468.2</ele>
        <time>2018-06-16T06:37:47Z</time>
      </trkpt>
      <trkpt lat="38.1746090" lon="-3.5863490">
        <ele>468.2</ele>
        <time>2018-06-16T06:37:48Z</time>
      </trkpt>
      <trkpt lat="38.1746490" lon="-3.5863640">
        <ele>468.0</ele>
        <time>2018-06-16T06:37:49Z</time>
      </trkpt>
      <trkpt lat="38.1746880" lon="-3.5863830">
        <ele>468.0</ele>
        <time>2018-06-16T06:37:50Z</time>
      </trkpt>
      <trkpt lat="38.1747270" lon="-3.5864000">
        <ele>468.0</ele>
        <time>2018-06-16T06:37:51Z</time>
      </trkpt>
      <trkpt lat="38.1747700" lon="-3.5864200">
        <ele>467.8</ele>
        <time>2018-06-16T06:37:52Z</time>
      </trkpt>
      <trkpt lat="38.1748130" lon="-3.5864390">
        <ele>467.8</ele>
        <time>2018-06-16T06:37:53Z</time>
      </trkpt>
      <trkpt lat="38.1748560" lon="-3.5864590">
        <ele>467.8</ele>
        <time>2018-06-16T06:37:54Z</time>
      </trkpt>
      <trkpt lat="38.1749010" lon="-3.5864790">
        <ele>467.6</ele>
        <time>2018-06-16T06:37:55Z</time>
      </trkpt>
      <trkpt lat="38.1749470" lon="-3.5864960">
        <ele>467.6</ele>
        <time>2018-06-16T06:37:56Z</time>
      </trkpt>
      <trkpt lat="38.1749910" lon="-3.5865180">
        <ele>467.4</ele>
        <time>2018-06-16T06:37:57Z</time>
      </trkpt>
      <trkpt lat="38.1750350" lon="-3.5865410">
        <ele>467.4</ele>
        <time>2018-06-16T06:37:58Z</time>
      </trkpt>
      <trkpt lat="38.1750820" lon="-3.5865610">
        <ele>467.2</ele>
        <time>2018-06-16T06:37:59Z</time>
      </trkpt>
      <trkpt lat="38.1751290" lon="-3.5865820">
        <ele>467.2</ele>
        <time>2018-06-16T06:38:00Z</time>
      </trkpt>
      <trkpt lat="38.1751770" lon="-3.5866040">
        <ele>467.2</ele>
        <time>2018-06-16T06:38:01Z</time>
      </trkpt>
      <trkpt lat="38.1752260" lon="-3.5866260">
        <ele>467.2</ele>
        <time>2018-06-16T06:38:02Z</time>
      </trkpt>
      <trkpt lat="38.1752750" lon="-3.5866480">
        <ele>467.2</ele>
        <time>2018-06-16T06:38:03Z</time>
      </trkpt>
      <trkpt lat="38.1753220" lon="-3.5866690">
        <ele>467.2</ele>
        <time>2018-06-16T06:38:04Z</time>
      </trkpt>
      <trkpt lat="38.1753690" lon="-3.5866950">
        <ele>467.2</ele>
        <time>2018-06-16T06:38:05Z</time>
      </trkpt>
      <trkpt lat="38.1754170" lon="-3.5867180">
        <ele>467.2</ele>
        <time>2018-06-16T06:38:06Z</time>
      </trkpt>
      <trkpt lat="38.1754660" lon="-3.5867400">
        <ele>467.4</ele>
        <time>2018-06-16T06:38:07Z</time>
      </trkpt>
      <trkpt lat="38.1755140" lon="-3.5867630">
        <ele>467.4</ele>
        <time>2018-06-16T06:38:08Z</time>
      </trkpt>
      <trkpt lat="38.1755630" lon="-3.5867810">
        <ele>467.4</ele>
        <time>2018-06-16T06:38:09Z</time>
      </trkpt>
      <trkpt lat="38.1756110" lon="-3.5868030">
        <ele>467.4</ele>
        <time>2018-06-16T06:38:10Z</time>
      </trkpt>
      <trkpt lat="38.1756600" lon="-3.5868240">
        <ele>467.4</ele>
        <time>2018-06-16T06:38:11Z</time>
      </trkpt>
      <trkpt lat="38.1757080" lon="-3.5868450">
        <ele>467.4</ele>
        <time>2018-06-16T06:38:12Z</time>
      </trkpt>
      <trkpt lat="38.1757560" lon="-3.5868690">
        <ele>467.6</ele>
        <time>2018-06-16T06:38:13Z</time>
      </trkpt>
      <trkpt lat="38.1757990" lon="-3.5868930">
        <ele>467.6</ele>
        <time>2018-06-16T06:38:14Z</time>
      </trkpt>
      <trkpt lat="38.1758450" lon="-3.5869170">
        <ele>467.8</ele>
        <time>2018-06-16T06:38:15Z</time>
      </trkpt>
      <trkpt lat="38.1758930" lon="-3.5869390">
        <ele>467.8</ele>
        <time>2018-06-16T06:38:16Z</time>
      </trkpt>
      <trkpt lat="38.1759420" lon="-3.5869550">
        <ele>467.8</ele>
        <time>2018-06-16T06:38:17Z</time>
      </trkpt>
      <trkpt lat="38.1759880" lon="-3.5869740">
        <ele>468.0</ele>
        <time>2018-06-16T06:38:18Z</time>
      </trkpt>
      <trkpt lat="38.1760370" lon="-3.5869940">
        <ele>468.0</ele>
        <time>2018-06-16T06:38:19Z</time>
      </trkpt>
      <trkpt lat="38.1760890" lon="-3.5870140">
        <ele>468.2</ele>
        <time>2018-06-16T06:38:20Z</time>
      </trkpt>
      <trkpt lat="38.1761400" lon="-3.5870310">
        <ele>468.4</ele>
        <time>2018-06-16T06:38:21Z</time>
      </trkpt>
      <trkpt lat="38.1761900" lon="-3.5870500">
        <ele>468.6</ele>
        <time>2018-06-16T06:38:22Z</time>
      </trkpt>
      <trkpt lat="38.1762400" lon="-3.5870700">
        <ele>468.6</ele>
        <time>2018-06-16T06:38:23Z</time>
      </trkpt>
      <trkpt lat="38.1763200" lon="-3.5871060">
        <ele>468.6</ele>
        <time>2018-06-16T06:38:24Z</time>
      </trkpt>
      <trkpt lat="38.1763520" lon="-3.5871200">
        <ele>468.8</ele>
        <time>2018-06-16T06:38:25Z</time>
      </trkpt>
      <trkpt lat="38.1763840" lon="-3.5871340">
        <ele>469.0</ele>
        <time>2018-06-16T06:38:26Z</time>
      </trkpt>
      <trkpt lat="38.1764320" lon="-3.5871540">
        <ele>469.0</ele>
        <time>2018-06-16T06:38:27Z</time>
      </trkpt>
      <trkpt lat="38.1764790" lon="-3.5871740">
        <ele>469.0</ele>
        <time>2018-06-16T06:38:28Z</time>
      </trkpt>
      <trkpt lat="38.1765210" lon="-3.5871990">
        <ele>469.8</ele>
        <time>2018-06-16T06:38:29Z</time>
      </trkpt>
      <trkpt lat="38.1765640" lon="-3.5872270">
        <ele>469.4</ele>
        <time>2018-06-16T06:38:30Z</time>
      </trkpt>
      <trkpt lat="38.1766070" lon="-3.5872540">
        <ele>469.8</ele>
        <time>2018-06-16T06:38:31Z</time>
      </trkpt>
      <trkpt lat="38.1766500" lon="-3.5872760">
        <ele>470.0</ele>
        <time>2018-06-16T06:38:32Z</time>
      </trkpt>
      <trkpt lat="38.1766950" lon="-3.5872960">
        <ele>470.0</ele>
        <time>2018-06-16T06:38:33Z</time>
      </trkpt>
      <trkpt lat="38.1767400" lon="-3.5873170">
        <ele>470.0</ele>
        <time>2018-06-16T06:38:34Z</time>
      </trkpt>
      <trkpt lat="38.1767860" lon="-3.5873360">
        <ele>470.2</ele>
        <time>2018-06-16T06:38:35Z</time>
      </trkpt>
      <trkpt lat="38.1768310" lon="-3.5873560">
        <ele>470.2</ele>
        <time>2018-06-16T06:38:36Z</time>
      </trkpt>
      <trkpt lat="38.1768760" lon="-3.5873740">
        <ele>470.4</ele>
        <time>2018-06-16T06:38:37Z</time>
      </trkpt>
      <trkpt lat="38.1769220" lon="-3.5873950">
        <ele>470.6</ele>
        <time>2018-06-16T06:38:38Z</time>
      </trkpt>
      <trkpt lat="38.1769660" lon="-3.5874170">
        <ele>470.6</ele>
        <time>2018-06-16T06:38:39Z</time>
      </trkpt>
      <trkpt lat="38.1770110" lon="-3.5874370">
        <ele>470.8</ele>
        <time>2018-06-16T06:38:40Z</time>
      </trkpt>
      <trkpt lat="38.1770550" lon="-3.5874570">
        <ele>471.0</ele>
        <time>2018-06-16T06:38:41Z</time>
      </trkpt>
      <trkpt lat="38.1771000" lon="-3.5874770">
        <ele>471.0</ele>
        <time>2018-06-16T06:38:42Z</time>
      </trkpt>
      <trkpt lat="38.1771430" lon="-3.5874990">
        <ele>471.2</ele>
        <time>2018-06-16T06:38:43Z</time>
      </trkpt>
      <trkpt lat="38.1771860" lon="-3.5875210">
        <ele>471.4</ele>
        <time>2018-06-16T06:38:44Z</time>
      </trkpt>
      <trkpt lat="38.1772300" lon="-3.5875420">
        <ele>471.6</ele>
        <time>2018-06-16T06:38:45Z</time>
      </trkpt>
      <trkpt lat="38.1772740" lon="-3.5875590">
        <ele>471.6</ele>
        <time>2018-06-16T06:38:46Z</time>
      </trkpt>
      <trkpt lat="38.1773180" lon="-3.5875770">
        <ele>471.8</ele>
        <time>2018-06-16T06:38:47Z</time>
      </trkpt>
      <trkpt lat="38.1773620" lon="-3.5875940">
        <ele>472.0</ele>
        <time>2018-06-16T06:38:48Z</time>
      </trkpt>
      <trkpt lat="38.1774030" lon="-3.5876100">
        <ele>472.2</ele>
        <time>2018-06-16T06:38:49Z</time>
      </trkpt>
      <trkpt lat="38.1774440" lon="-3.5876300">
        <ele>472.2</ele>
        <time>2018-06-16T06:38:50Z</time>
      </trkpt>
      <trkpt lat="38.1774840" lon="-3.5876500">
        <ele>472.4</ele>
        <time>2018-06-16T06:38:51Z</time>
      </trkpt>
      <trkpt lat="38.1775250" lon="-3.5876710">
        <ele>472.6</ele>
        <time>2018-06-16T06:38:52Z</time>
      </trkpt>
      <trkpt lat="38.1775660" lon="-3.5876940">
        <ele>472.6</ele>
        <time>2018-06-16T06:38:53Z</time>
      </trkpt>
      <trkpt lat="38.1776060" lon="-3.5877190">
        <ele>472.8</ele>
        <time>2018-06-16T06:38:54Z</time>
      </trkpt>
      <trkpt lat="38.1776460" lon="-3.5877440">
        <ele>472.8</ele>
        <time>2018-06-16T06:38:55Z</time>
      </trkpt>
      <trkpt lat="38.1776850" lon="-3.5877680">
        <ele>472.8</ele>
        <time>2018-06-16T06:38:56Z</time>
      </trkpt>
      <trkpt lat="38.1777280" lon="-3.5877900">
        <ele>472.8</ele>
        <time>2018-06-16T06:38:57Z</time>
      </trkpt>
      <trkpt lat="38.1777710" lon="-3.5878150">
        <ele>472.8</ele>
        <time>2018-06-16T06:38:58Z</time>
      </trkpt>
      <trkpt lat="38.1778150" lon="-3.5878440">
        <ele>472.6</ele>
        <time>2018-06-16T06:38:59Z</time>
      </trkpt>
      <trkpt lat="38.1778590" lon="-3.5878750">
        <ele>472.6</ele>
        <time>2018-06-16T06:39:00Z</time>
      </trkpt>
      <trkpt lat="38.1779050" lon="-3.5879040">
        <ele>472.6</ele>
        <time>2018-06-16T06:39:01Z</time>
      </trkpt>
      <trkpt lat="38.1779490" lon="-3.5879300">
        <ele>472.6</ele>
        <time>2018-06-16T06:39:02Z</time>
      </trkpt>
      <trkpt lat="38.1779930" lon="-3.5879550">
        <ele>472.6</ele>
        <time>2018-06-16T06:39:03Z</time>
      </trkpt>
      <trkpt lat="38.1780380" lon="-3.5879840">
        <ele>472.4</ele>
        <time>2018-06-16T06:39:04Z</time>
      </trkpt>
      <trkpt lat="38.1780830" lon="-3.5880140">
        <ele>472.4</ele>
        <time>2018-06-16T06:39:05Z</time>
      </trkpt>
      <trkpt lat="38.1781260" lon="-3.5880430">
        <ele>472.4</ele>
        <time>2018-06-16T06:39:06Z</time>
      </trkpt>
      <trkpt lat="38.1781680" lon="-3.5880700">
        <ele>472.6</ele>
        <time>2018-06-16T06:39:07Z</time>
      </trkpt>
      <trkpt lat="38.1782100" lon="-3.5880940">
        <ele>472.4</ele>
        <time>2018-06-16T06:39:08Z</time>
      </trkpt>
      <trkpt lat="38.1782550" lon="-3.5881210">
        <ele>472.6</ele>
        <time>2018-06-16T06:39:09Z</time>
      </trkpt>
      <trkpt lat="38.1782970" lon="-3.5881510">
        <ele>472.4</ele>
        <time>2018-06-16T06:39:10Z</time>
      </trkpt>
      <trkpt lat="38.1783390" lon="-3.5881770">
        <ele>472.4</ele>
        <time>2018-06-16T06:39:11Z</time>
      </trkpt>
      <trkpt lat="38.1783840" lon="-3.5882060">
        <ele>472.4</ele>
        <time>2018-06-16T06:39:12Z</time>
      </trkpt>
      <trkpt lat="38.1784280" lon="-3.5882300">
        <ele>472.4</ele>
        <time>2018-06-16T06:39:13Z</time>
      </trkpt>
      <trkpt lat="38.1784740" lon="-3.5882580">
        <ele>472.4</ele>
        <time>2018-06-16T06:39:14Z</time>
      </trkpt>
      <trkpt lat="38.1785180" lon="-3.5882870">
        <ele>472.2</ele>
        <time>2018-06-16T06:39:15Z</time>
      </trkpt>
      <trkpt lat="38.1785660" lon="-3.5883180">
        <ele>472.2</ele>
        <time>2018-06-16T06:39:16Z</time>
      </trkpt>
      <trkpt lat="38.1786120" lon="-3.5883450">
        <ele>472.0</ele>
        <time>2018-06-16T06:39:17Z</time>
      </trkpt>
      <trkpt lat="38.1786590" lon="-3.5883770">
        <ele>472.0</ele>
        <time>2018-06-16T06:39:18Z</time>
      </trkpt>
      <trkpt lat="38.1787060" lon="-3.5884060">
        <ele>471.8</ele>
        <time>2018-06-16T06:39:19Z</time>
      </trkpt>
      <trkpt lat="38.1787530" lon="-3.5884370">
        <ele>471.8</ele>
        <time>2018-06-16T06:39:20Z</time>
      </trkpt>
      <trkpt lat="38.1787980" lon="-3.5884670">
        <ele>471.8</ele>
        <time>2018-06-16T06:39:21Z</time>
      </trkpt>
      <trkpt lat="38.1788410" lon="-3.5884990">
        <ele>472.0</ele>
        <time>2018-06-16T06:39:22Z</time>
      </trkpt>
      <trkpt lat="38.1788840" lon="-3.5885290">
        <ele>472.0</ele>
        <time>2018-06-16T06:39:23Z</time>
      </trkpt>
      <trkpt lat="38.1789280" lon="-3.5885550">
        <ele>472.2</ele>
        <time>2018-06-16T06:39:24Z</time>
      </trkpt>
      <trkpt lat="38.1789700" lon="-3.5885780">
        <ele>472.6</ele>
        <time>2018-06-16T06:39:25Z</time>
      </trkpt>
      <trkpt lat="38.1790090" lon="-3.5885980">
        <ele>473.0</ele>
        <time>2018-06-16T06:39:26Z</time>
      </trkpt>
      <trkpt lat="38.1790470" lon="-3.5886190">
        <ele>473.4</ele>
        <time>2018-06-16T06:39:27Z</time>
      </trkpt>
      <trkpt lat="38.1790810" lon="-3.5886410">
        <ele>473.6</ele>
        <time>2018-06-16T06:39:28Z</time>
      </trkpt>
      <trkpt lat="38.1791160" lon="-3.5886620">
        <ele>474.0</ele>
        <time>2018-06-16T06:39:29Z</time>
      </trkpt>
      <trkpt lat="38.1791500" lon="-3.5886760">
        <ele>474.2</ele>
        <time>2018-06-16T06:39:30Z</time>
      </trkpt>
      <trkpt lat="38.1791820" lon="-3.5886900">
        <ele>474.6</ele>
        <time>2018-06-16T06:39:31Z</time>
      </trkpt>
      <trkpt lat="38.1792110" lon="-3.5887000">
        <ele>474.8</ele>
        <time>2018-06-16T06:39:32Z</time>
      </trkpt>
      <trkpt lat="38.1792410" lon="-3.5887070">
        <ele>475.0</ele>
        <time>2018-06-16T06:39:33Z</time>
      </trkpt>
      <trkpt lat="38.1792730" lon="-3.5887130">
        <ele>475.2</ele>
        <time>2018-06-16T06:39:34Z</time>
      </trkpt>
      <trkpt lat="38.1793040" lon="-3.5887150">
        <ele>475.4</ele>
        <time>2018-06-16T06:39:35Z</time>
      </trkpt>
      <trkpt lat="38.1793340" lon="-3.5887150">
        <ele>475.8</ele>
        <time>2018-06-16T06:39:36Z</time>
      </trkpt>
      <trkpt lat="38.1793650" lon="-3.5887130">
        <ele>476.0</ele>
        <time>2018-06-16T06:39:37Z</time>
      </trkpt>
      <trkpt lat="38.1793950" lon="-3.5887070">
        <ele>476.2</ele>
        <time>2018-06-16T06:39:38Z</time>
      </trkpt>
      <trkpt lat="38.1794220" lon="-3.5887000">
        <ele>476.4</ele>
        <time>2018-06-16T06:39:39Z</time>
      </trkpt>
      <trkpt lat="38.1794480" lon="-3.5886930">
        <ele>476.6</ele>
        <time>2018-06-16T06:39:40Z</time>
      </trkpt>
      <trkpt lat="38.1794770" lon="-3.5886860">
        <ele>477.0</ele>
        <time>2018-06-16T06:39:41Z</time>
      </trkpt>
      <trkpt lat="38.1795040" lon="-3.5886770">
        <ele>477.2</ele>
        <time>2018-06-16T06:39:42Z</time>
      </trkpt>
      <trkpt lat="38.1795270" lon="-3.5886660">
        <ele>477.4</ele>
        <time>2018-06-16T06:39:43Z</time>
      </trkpt>
      <trkpt lat="38.1795520" lon="-3.5886560">
        <ele>477.6</ele>
        <time>2018-06-16T06:39:44Z</time>
      </trkpt>
      <trkpt lat="38.1795750" lon="-3.5886470">
        <ele>477.8</ele>
        <time>2018-06-16T06:39:45Z</time>
      </trkpt>
      <trkpt lat="38.1796030" lon="-3.5886380">
        <ele>478.0</ele>
        <time>2018-06-16T06:39:46Z</time>
      </trkpt>
      <trkpt lat="38.1796450" lon="-3.5886270">
        <ele>478.2</ele>
        <time>2018-06-16T06:39:47Z</time>
      </trkpt>
      <trkpt lat="38.1796580" lon="-3.5886220">
        <ele>478.4</ele>
        <time>2018-06-16T06:39:48Z</time>
      </trkpt>
      <trkpt lat="38.1796860" lon="-3.5886100">
        <ele>478.2</ele>
        <time>2018-06-16T06:39:49Z</time>
      </trkpt>
      <trkpt lat="38.1797120" lon="-3.5885970">
        <ele>478.2</ele>
        <time>2018-06-16T06:39:50Z</time>
      </trkpt>
      <trkpt lat="38.1797430" lon="-3.5885860">
        <ele>478.0</ele>
        <time>2018-06-16T06:39:51Z</time>
      </trkpt>
      <trkpt lat="38.1797760" lon="-3.5885760">
        <ele>477.8</ele>
        <time>2018-06-16T06:39:52Z</time>
      </trkpt>
      <trkpt lat="38.1798160" lon="-3.5885630">
        <ele>477.4</ele>
        <time>2018-06-16T06:39:53Z</time>
      </trkpt>
      <trkpt lat="38.1798630" lon="-3.5885550">
        <ele>477.2</ele>
        <time>2018-06-16T06:39:54Z</time>
      </trkpt>
      <trkpt lat="38.1799160" lon="-3.5885500">
        <ele>477.0</ele>
        <time>2018-06-16T06:39:55Z</time>
      </trkpt>
      <trkpt lat="38.1799680" lon="-3.5885480">
        <ele>476.8</ele>
        <time>2018-06-16T06:39:56Z</time>
      </trkpt>
      <trkpt lat="38.1800200" lon="-3.5885490">
        <ele>476.8</ele>
        <time>2018-06-16T06:39:57Z</time>
      </trkpt>
      <trkpt lat="38.1800730" lon="-3.5885550">
        <ele>476.8</ele>
        <time>2018-06-16T06:39:58Z</time>
      </trkpt>
      <trkpt lat="38.1801230" lon="-3.5885620">
        <ele>477.0</ele>
        <time>2018-06-16T06:39:59Z</time>
      </trkpt>
      <trkpt lat="38.1801660" lon="-3.5885740">
        <ele>477.4</ele>
        <time>2018-06-16T06:40:00Z</time>
      </trkpt>
      <trkpt lat="38.1802080" lon="-3.5885840">
        <ele>477.4</ele>
        <time>2018-06-16T06:40:01Z</time>
      </trkpt>
      <trkpt lat="38.1802480" lon="-3.5885920">
        <ele>477.6</ele>
        <time>2018-06-16T06:40:02Z</time>
      </trkpt>
      <trkpt lat="38.1802870" lon="-3.5886000">
        <ele>477.8</ele>
        <time>2018-06-16T06:40:03Z</time>
      </trkpt>
      <trkpt lat="38.1803250" lon="-3.5886120">
        <ele>478.0</ele>
        <time>2018-06-16T06:40:04Z</time>
      </trkpt>
      <trkpt lat="38.1803620" lon="-3.5886240">
        <ele>478.2</ele>
        <time>2018-06-16T06:40:05Z</time>
      </trkpt>
      <trkpt lat="38.1803990" lon="-3.5886360">
        <ele>478.6</ele>
        <time>2018-06-16T06:40:06Z</time>
      </trkpt>
      <trkpt lat="38.1804340" lon="-3.5886480">
        <ele>478.8</ele>
        <time>2018-06-16T06:40:07Z</time>
      </trkpt>
      <trkpt lat="38.1804680" lon="-3.5886590">
        <ele>479.0</ele>
        <time>2018-06-16T06:40:08Z</time>
      </trkpt>
      <trkpt lat="38.1805020" lon="-3.5886680">
        <ele>479.2</ele>
        <time>2018-06-16T06:40:09Z</time>
      </trkpt>
      <trkpt lat="38.1805340" lon="-3.5886770">
        <ele>479.4</ele>
        <time>2018-06-16T06:40:10Z</time>
      </trkpt>
      <trkpt lat="38.1805660" lon="-3.5886850">
        <ele>479.6</ele>
        <time>2018-06-16T06:40:11Z</time>
      </trkpt>
      <trkpt lat="38.1805970" lon="-3.5886930">
        <ele>479.8</ele>
        <time>2018-06-16T06:40:12Z</time>
      </trkpt>
      <trkpt lat="38.1806280" lon="-3.5886990">
        <ele>480.0</ele>
        <time>2018-06-16T06:40:13Z</time>
      </trkpt>
      <trkpt lat="38.1806600" lon="-3.5887000">
        <ele>480.2</ele>
        <time>2018-06-16T06:40:14Z</time>
      </trkpt>
      <trkpt lat="38.1806910" lon="-3.5887000">
        <ele>480.4</ele>
        <time>2018-06-16T06:40:15Z</time>
      </trkpt>
      <trkpt lat="38.1807230" lon="-3.5886990">
        <ele>480.6</ele>
        <time>2018-06-16T06:40:16Z</time>
      </trkpt>
      <trkpt lat="38.1807540" lon="-3.5886950">
        <ele>480.8</ele>
        <time>2018-06-16T06:40:17Z</time>
      </trkpt>
      <trkpt lat="38.1807850" lon="-3.5886890">
        <ele>481.0</ele>
        <time>2018-06-16T06:40:18Z</time>
      </trkpt>
      <trkpt lat="38.1808160" lon="-3.5886800">
        <ele>481.0</ele>
        <time>2018-06-16T06:40:19Z</time>
      </trkpt>
      <trkpt lat="38.1808460" lon="-3.5886650">
        <ele>481.0</ele>
        <time>2018-06-16T06:40:20Z</time>
      </trkpt>
      <trkpt lat="38.1808790" lon="-3.5886510">
        <ele>481.2</ele>
        <time>2018-06-16T06:40:21Z</time>
      </trkpt>
      <trkpt lat="38.1809110" lon="-3.5886370">
        <ele>481.4</ele>
        <time>2018-06-16T06:40:22Z</time>
      </trkpt>
      <trkpt lat="38.1809420" lon="-3.5886210">
        <ele>481.4</ele>
        <time>2018-06-16T06:40:23Z</time>
      </trkpt>
      <trkpt lat="38.1809730" lon="-3.5886080">
        <ele>481.4</ele>
        <time>2018-06-16T06:40:24Z</time>
      </trkpt>
      <trkpt lat="38.1810040" lon="-3.5886040">
        <ele>481.6</ele>
        <time>2018-06-16T06:40:25Z</time>
      </trkpt>
      <trkpt lat="38.1810340" lon="-3.5885970">
        <ele>481.6</ele>
        <time>2018-06-16T06:40:26Z</time>
      </trkpt>
      <trkpt lat="38.1810680" lon="-3.5885890">
        <ele>481.8</ele>
        <time>2018-06-16T06:40:27Z</time>
      </trkpt>
      <trkpt lat="38.1811020" lon="-3.5885870">
        <ele>481.8</ele>
        <time>2018-06-16T06:40:28Z</time>
      </trkpt>
      <trkpt lat="38.1811360" lon="-3.5885870">
        <ele>482.0</ele>
        <time>2018-06-16T06:40:29Z</time>
      </trkpt>
      <trkpt lat="38.1811710" lon="-3.5885900">
        <ele>482.2</ele>
        <time>2018-06-16T06:40:30Z</time>
      </trkpt>
      <trkpt lat="38.1812040" lon="-3.5885970">
        <ele>482.4</ele>
        <time>2018-06-16T06:40:31Z</time>
      </trkpt>
      <trkpt lat="38.1812360" lon="-3.5886050">
        <ele>482.6</ele>
        <time>2018-06-16T06:40:32Z</time>
      </trkpt>
      <trkpt lat="38.1812680" lon="-3.5886180">
        <ele>482.8</ele>
        <time>2018-06-16T06:40:33Z</time>
      </trkpt>
      <trkpt lat="38.1812980" lon="-3.5886320">
        <ele>483.2</ele>
        <time>2018-06-16T06:40:34Z</time>
      </trkpt>
      <trkpt lat="38.1813260" lon="-3.5886450">
        <ele>483.4</ele>
        <time>2018-06-16T06:40:35Z</time>
      </trkpt>
      <trkpt lat="38.1813520" lon="-3.5886560">
        <ele>483.4</ele>
        <time>2018-06-16T06:40:36Z</time>
      </trkpt>
      <trkpt lat="38.1813790" lon="-3.5886710">
        <ele>483.8</ele>
        <time>2018-06-16T06:40:37Z</time>
      </trkpt>
      <trkpt lat="38.1814070" lon="-3.5886850">
        <ele>484.0</ele>
        <time>2018-06-16T06:40:38Z</time>
      </trkpt>
      <trkpt lat="38.1814350" lon="-3.5886970">
        <ele>484.2</ele>
        <time>2018-06-16T06:40:39Z</time>
      </trkpt>
      <trkpt lat="38.1814650" lon="-3.5887080">
        <ele>484.4</ele>
        <time>2018-06-16T06:40:40Z</time>
      </trkpt>
      <trkpt lat="38.1814930" lon="-3.5887170">
        <ele>484.4</ele>
        <time>2018-06-16T06:40:41Z</time>
      </trkpt>
      <trkpt lat="38.1815210" lon="-3.5887270">
        <ele>484.6</ele>
        <time>2018-06-16T06:40:42Z</time>
      </trkpt>
      <trkpt lat="38.1815490" lon="-3.5887360">
        <ele>484.8</ele>
        <time>2018-06-16T06:40:43Z</time>
      </trkpt>
      <trkpt lat="38.1815780" lon="-3.5887420">
        <ele>484.8</ele>
        <time>2018-06-16T06:40:44Z</time>
      </trkpt>
      <trkpt lat="38.1816070" lon="-3.5887480">
        <ele>485.0</ele>
        <time>2018-06-16T06:40:45Z</time>
      </trkpt>
      <trkpt lat="38.1816350" lon="-3.5887540">
        <ele>485.2</ele>
        <time>2018-06-16T06:40:46Z</time>
      </trkpt>
      <trkpt lat="38.1816640" lon="-3.5887590">
        <ele>485.4</ele>
        <time>2018-06-16T06:40:47Z</time>
      </trkpt>
      <trkpt lat="38.1816920" lon="-3.5887640">
        <ele>485.6</ele>
        <time>2018-06-16T06:40:48Z</time>
      </trkpt>
      <trkpt lat="38.1817210" lon="-3.5887680">
        <ele>485.8</ele>
        <time>2018-06-16T06:40:49Z</time>
      </trkpt>
      <trkpt lat="38.1817500" lon="-3.5887730">
        <ele>486.0</ele>
        <time>2018-06-16T06:40:50Z</time>
      </trkpt>
      <trkpt lat="38.1817780" lon="-3.5887770">
        <ele>486.2</ele>
        <time>2018-06-16T06:40:51Z</time>
      </trkpt>
      <trkpt lat="38.1818070" lon="-3.5887810">
        <ele>486.4</ele>
        <time>2018-06-16T06:40:52Z</time>
      </trkpt>
      <trkpt lat="38.1818360" lon="-3.5887870">
        <ele>486.4</ele>
        <time>2018-06-16T06:40:53Z</time>
      </trkpt>
      <trkpt lat="38.1818650" lon="-3.5887900">
        <ele>486.6</ele>
        <time>2018-06-16T06:40:54Z</time>
      </trkpt>
      <trkpt lat="38.1818950" lon="-3.5887940">
        <ele>486.8</ele>
        <time>2018-06-16T06:40:55Z</time>
      </trkpt>
      <trkpt lat="38.1819230" lon="-3.5887980">
        <ele>487.0</ele>
        <time>2018-06-16T06:40:56Z</time>
      </trkpt>
      <trkpt lat="38.1819520" lon="-3.5888020">
        <ele>487.0</ele>
        <time>2018-06-16T06:40:57Z</time>
      </trkpt>
      <trkpt lat="38.1819820" lon="-3.5888040">
        <ele>487.2</ele>
        <time>2018-06-16T06:40:58Z</time>
      </trkpt>
      <trkpt lat="38.1820110" lon="-3.5888060">
        <ele>487.4</ele>
        <time>2018-06-16T06:40:59Z</time>
      </trkpt>
      <trkpt lat="38.1820400" lon="-3.5888100">
        <ele>487.6</ele>
        <time>2018-06-16T06:41:00Z</time>
      </trkpt>
      <trkpt lat="38.1820690" lon="-3.5888140">
        <ele>487.8</ele>
        <time>2018-06-16T06:41:01Z</time>
      </trkpt>
      <trkpt lat="38.1820980" lon="-3.5888170">
        <ele>488.0</ele>
        <time>2018-06-16T06:41:02Z</time>
      </trkpt>
      <trkpt lat="38.1821400" lon="-3.5888170">
        <ele>488.2</ele>
        <time>2018-06-16T06:41:03Z</time>
      </trkpt>
      <trkpt lat="38.1821530" lon="-3.5888170">
        <ele>488.4</ele>
        <time>2018-06-16T06:41:04Z</time>
      </trkpt>
      <trkpt lat="38.1821810" lon="-3.5888190">
        <ele>488.6</ele>
        <time>2018-06-16T06:41:05Z</time>
      </trkpt>
      <trkpt lat="38.1822080" lon="-3.5888190">
        <ele>488.8</ele>
        <time>2018-06-16T06:41:06Z</time>
      </trkpt>
      <trkpt lat="38.1822330" lon="-3.5888190">
        <ele>489.0</ele>
        <time>2018-06-16T06:41:07Z</time>
      </trkpt>
      <trkpt lat="38.1822620" lon="-3.5888200">
        <ele>489.2</ele>
        <time>2018-06-16T06:41:08Z</time>
      </trkpt>
      <trkpt lat="38.1822930" lon="-3.5888200">
        <ele>489.4</ele>
        <time>2018-06-16T06:41:09Z</time>
      </trkpt>
      <trkpt lat="38.1823220" lon="-3.5888200">
        <ele>489.6</ele>
        <time>2018-06-16T06:41:10Z</time>
      </trkpt>
      <trkpt lat="38.1823510" lon="-3.5888210">
        <ele>489.8</ele>
        <time>2018-06-16T06:41:11Z</time>
      </trkpt>
      <trkpt lat="38.1823790" lon="-3.5888230">
        <ele>489.8</ele>
        <time>2018-06-16T06:41:12Z</time>
      </trkpt>
      <trkpt lat="38.1824040" lon="-3.5888260">
        <ele>490.0</ele>
        <time>2018-06-16T06:41:13Z</time>
      </trkpt>
      <trkpt lat="38.1824290" lon="-3.5888310">
        <ele>490.2</ele>
        <time>2018-06-16T06:41:14Z</time>
      </trkpt>
      <trkpt lat="38.1824570" lon="-3.5888350">
        <ele>490.4</ele>
        <time>2018-06-16T06:41:15Z</time>
      </trkpt>
      <trkpt lat="38.1824880" lon="-3.5888350">
        <ele>490.6</ele>
        <time>2018-06-16T06:41:16Z</time>
      </trkpt>
      <trkpt lat="38.1825170" lon="-3.5888330">
        <ele>490.8</ele>
        <time>2018-06-16T06:41:17Z</time>
      </trkpt>
      <trkpt lat="38.1825470" lon="-3.5888320">
        <ele>491.0</ele>
        <time>2018-06-16T06:41:18Z</time>
      </trkpt>
      <trkpt lat="38.1825780" lon="-3.5888340">
        <ele>491.2</ele>
        <time>2018-06-16T06:41:19Z</time>
      </trkpt>
      <trkpt lat="38.1826080" lon="-3.5888340">
        <ele>491.4</ele>
        <time>2018-06-16T06:41:20Z</time>
      </trkpt>
      <trkpt lat="38.1826390" lon="-3.5888360">
        <ele>491.6</ele>
        <time>2018-06-16T06:41:21Z</time>
      </trkpt>
      <trkpt lat="38.1826690" lon="-3.5888370">
        <ele>491.8</ele>
        <time>2018-06-16T06:41:22Z</time>
      </trkpt>
      <trkpt lat="38.1827000" lon="-3.5888390">
        <ele>491.8</ele>
        <time>2018-06-16T06:41:23Z</time>
      </trkpt>
      <trkpt lat="38.1827310" lon="-3.5888400">
        <ele>492.0</ele>
        <time>2018-06-16T06:41:24Z</time>
      </trkpt>
      <trkpt lat="38.1827620" lon="-3.5888410">
        <ele>492.2</ele>
        <time>2018-06-16T06:41:25Z</time>
      </trkpt>
      <trkpt lat="38.1827920" lon="-3.5888400">
        <ele>492.4</ele>
        <time>2018-06-16T06:41:26Z</time>
      </trkpt>
      <trkpt lat="38.1828220" lon="-3.5888410">
        <ele>492.6</ele>
        <time>2018-06-16T06:41:27Z</time>
      </trkpt>
      <trkpt lat="38.1828510" lon="-3.5888420">
        <ele>492.8</ele>
        <time>2018-06-16T06:41:28Z</time>
      </trkpt>
      <trkpt lat="38.1828800" lon="-3.5888440">
        <ele>493.0</ele>
        <time>2018-06-16T06:41:29Z</time>
      </trkpt>
      <trkpt lat="38.1829080" lon="-3.5888470">
        <ele>493.2</ele>
        <time>2018-06-16T06:41:30Z</time>
      </trkpt>
      <trkpt lat="38.1829350" lon="-3.5888560">
        <ele>493.2</ele>
        <time>2018-06-16T06:41:31Z</time>
      </trkpt>
      <trkpt lat="38.1829620" lon="-3.5888640">
        <ele>493.4</ele>
        <time>2018-06-16T06:41:32Z</time>
      </trkpt>
      <trkpt lat="38.1829900" lon="-3.5888690">
        <ele>493.4</ele>
        <time>2018-06-16T06:41:33Z</time>
      </trkpt>
      <trkpt lat="38.1830180" lon="-3.5888750">
        <ele>493.4</ele>
        <time>2018-06-16T06:41:34Z</time>
      </trkpt>
      <trkpt lat="38.1830490" lon="-3.5888830">
        <ele>493.4</ele>
        <time>2018-06-16T06:41:35Z</time>
      </trkpt>
      <trkpt lat="38.1830820" lon="-3.5888920">
        <ele>493.4</ele>
        <time>2018-06-16T06:41:36Z</time>
      </trkpt>
      <trkpt lat="38.1831160" lon="-3.5889000">
        <ele>493.2</ele>
        <time>2018-06-16T06:41:37Z</time>
      </trkpt>
      <trkpt lat="38.1831510" lon="-3.5889100">
        <ele>493.0</ele>
        <time>2018-06-16T06:41:38Z</time>
      </trkpt>
      <trkpt lat="38.1831890" lon="-3.5889230">
        <ele>493.0</ele>
        <time>2018-06-16T06:41:39Z</time>
      </trkpt>
      <trkpt lat="38.1832290" lon="-3.5889340">
        <ele>492.8</ele>
        <time>2018-06-16T06:41:40Z</time>
      </trkpt>
      <trkpt lat="38.1832720" lon="-3.5889450">
        <ele>492.6</ele>
        <time>2018-06-16T06:41:41Z</time>
      </trkpt>
      <trkpt lat="38.1833170" lon="-3.5889580">
        <ele>492.2</ele>
        <time>2018-06-16T06:41:42Z</time>
      </trkpt>
      <trkpt lat="38.1833640" lon="-3.5889720">
        <ele>492.2</ele>
        <time>2018-06-16T06:41:43Z</time>
      </trkpt>
      <trkpt lat="38.1834150" lon="-3.5889870">
        <ele>491.8</ele>
        <time>2018-06-16T06:41:44Z</time>
      </trkpt>
      <trkpt lat="38.1834670" lon="-3.5889990">
        <ele>491.8</ele>
        <time>2018-06-16T06:41:45Z</time>
      </trkpt>
      <trkpt lat="38.1835220" lon="-3.5890120">
        <ele>491.4</ele>
        <time>2018-06-16T06:41:46Z</time>
      </trkpt>
      <trkpt lat="38.1835770" lon="-3.5890250">
        <ele>491.2</ele>
        <time>2018-06-16T06:41:47Z</time>
      </trkpt>
      <trkpt lat="38.1836340" lon="-3.5890390">
        <ele>491.0</ele>
        <time>2018-06-16T06:41:48Z</time>
      </trkpt>
      <trkpt lat="38.1836930" lon="-3.5890520">
        <ele>490.8</ele>
        <time>2018-06-16T06:41:49Z</time>
      </trkpt>
      <trkpt lat="38.1837530" lon="-3.5890620">
        <ele>490.4</ele>
        <time>2018-06-16T06:41:50Z</time>
      </trkpt>
      <trkpt lat="38.1838150" lon="-3.5890670">
        <ele>490.2</ele>
        <time>2018-06-16T06:41:51Z</time>
      </trkpt>
      <trkpt lat="38.1838790" lon="-3.5890700">
        <ele>490.0</ele>
        <time>2018-06-16T06:41:52Z</time>
      </trkpt>
      <trkpt lat="38.1839430" lon="-3.5890690">
        <ele>489.8</ele>
        <time>2018-06-16T06:41:53Z</time>
      </trkpt>
      <trkpt lat="38.1840080" lon="-3.5890650">
        <ele>489.6</ele>
        <time>2018-06-16T06:41:54Z</time>
      </trkpt>
      <trkpt lat="38.1840740" lon="-3.5890590">
        <ele>489.4</ele>
        <time>2018-06-16T06:41:55Z</time>
      </trkpt>
      <trkpt lat="38.1841410" lon="-3.5890520">
        <ele>489.0</ele>
        <time>2018-06-16T06:41:56Z</time>
      </trkpt>
      <trkpt lat="38.1842070" lon="-3.5890420">
        <ele>488.8</ele>
        <time>2018-06-16T06:41:57Z</time>
      </trkpt>
      <trkpt lat="38.1842710" lon="-3.5890330">
        <ele>488.8</ele>
        <time>2018-06-16T06:41:58Z</time>
      </trkpt>
      <trkpt lat="38.1843340" lon="-3.5890250">
        <ele>488.8</ele>
        <time>2018-06-16T06:41:59Z</time>
      </trkpt>
      <trkpt lat="38.1843950" lon="-3.5890180">
        <ele>488.8</ele>
        <time>2018-06-16T06:42:00Z</time>
      </trkpt>
      <trkpt lat="38.1844530" lon="-3.5890120">
        <ele>489.0</ele>
        <time>2018-06-16T06:42:01Z</time>
      </trkpt>
      <trkpt lat="38.1845090" lon="-3.5890060">
        <ele>489.0</ele>
        <time>2018-06-16T06:42:02Z</time>
      </trkpt>
      <trkpt lat="38.1845640" lon="-3.5890000">
        <ele>489.2</ele>
        <time>2018-06-16T06:42:03Z</time>
      </trkpt>
      <trkpt lat="38.1846170" lon="-3.5889950">
        <ele>489.4</ele>
        <time>2018-06-16T06:42:04Z</time>
      </trkpt>
      <trkpt lat="38.1846680" lon="-3.5889900">
        <ele>489.4</ele>
        <time>2018-06-16T06:42:05Z</time>
      </trkpt>
      <trkpt lat="38.1847190" lon="-3.5889850">
        <ele>489.6</ele>
        <time>2018-06-16T06:42:06Z</time>
      </trkpt>
      <trkpt lat="38.1847680" lon="-3.5889800">
        <ele>489.6</ele>
        <time>2018-06-16T06:42:07Z</time>
      </trkpt>
      <trkpt lat="38.1848180" lon="-3.5889790">
        <ele>489.6</ele>
        <time>2018-06-16T06:42:08Z</time>
      </trkpt>
      <trkpt lat="38.1848710" lon="-3.5889730">
        <ele>489.6</ele>
        <time>2018-06-16T06:42:09Z</time>
      </trkpt>
      <trkpt lat="38.1849240" lon="-3.5889670">
        <ele>489.6</ele>
        <time>2018-06-16T06:42:10Z</time>
      </trkpt>
      <trkpt lat="38.1849770" lon="-3.5889600">
        <ele>489.8</ele>
        <time>2018-06-16T06:42:11Z</time>
      </trkpt>
      <trkpt lat="38.1850290" lon="-3.5889530">
        <ele>489.8</ele>
        <time>2018-06-16T06:42:12Z</time>
      </trkpt>
      <trkpt lat="38.1850800" lon="-3.5889450">
        <ele>489.8</ele>
        <time>2018-06-16T06:42:13Z</time>
      </trkpt>
      <trkpt lat="38.1851330" lon="-3.5889380">
        <ele>489.8</ele>
        <time>2018-06-16T06:42:14Z</time>
      </trkpt>
      <trkpt lat="38.1851860" lon="-3.5889300">
        <ele>489.8</ele>
        <time>2018-06-16T06:42:15Z</time>
      </trkpt>
      <trkpt lat="38.1852390" lon="-3.5889230">
        <ele>489.8</ele>
        <time>2018-06-16T06:42:16Z</time>
      </trkpt>
      <trkpt lat="38.1852940" lon="-3.5889170">
        <ele>489.6</ele>
        <time>2018-06-16T06:42:17Z</time>
      </trkpt>
      <trkpt lat="38.1853500" lon="-3.5889100">
        <ele>489.6</ele>
        <time>2018-06-16T06:42:18Z</time>
      </trkpt>
      <trkpt lat="38.1854060" lon="-3.5889050">
        <ele>489.4</ele>
        <time>2018-06-16T06:42:19Z</time>
      </trkpt>
      <trkpt lat="38.1854630" lon="-3.5888980">
        <ele>489.0</ele>
        <time>2018-06-16T06:42:20Z</time>
      </trkpt>
      <trkpt lat="38.1855210" lon="-3.5888910">
        <ele>489.0</ele>
        <time>2018-06-16T06:42:21Z</time>
      </trkpt>
      <trkpt lat="38.1855800" lon="-3.5888840">
        <ele>488.8</ele>
        <time>2018-06-16T06:42:22Z</time>
      </trkpt>
      <trkpt lat="38.1856380" lon="-3.5888770">
        <ele>488.6</ele>
        <time>2018-06-16T06:42:23Z</time>
      </trkpt>
      <trkpt lat="38.1856960" lon="-3.5888700">
        <ele>488.4</ele>
        <time>2018-06-16T06:42:24Z</time>
      </trkpt>
      <trkpt lat="38.1857550" lon="-3.5888630">
        <ele>488.4</ele>
        <time>2018-06-16T06:42:25Z</time>
      </trkpt>
      <trkpt lat="38.1858140" lon="-3.5888570">
        <ele>488.0</ele>
        <time>2018-06-16T06:42:26Z</time>
      </trkpt>
      <trkpt lat="38.1858750" lon="-3.5888500">
        <ele>487.8</ele>
        <time>2018-06-16T06:42:27Z</time>
      </trkpt>
      <trkpt lat="38.1859360" lon="-3.5888430">
        <ele>487.6</ele>
        <time>2018-06-16T06:42:28Z</time>
      </trkpt>
      <trkpt lat="38.1859980" lon="-3.5888350">
        <ele>487.4</ele>
        <time>2018-06-16T06:42:29Z</time>
      </trkpt>
      <trkpt lat="38.1860600" lon="-3.5888290">
        <ele>487.0</ele>
        <time>2018-06-16T06:42:30Z</time>
      </trkpt>
      <trkpt lat="38.1861220" lon="-3.5888220">
        <ele>487.0</ele>
        <time>2018-06-16T06:42:31Z</time>
      </trkpt>
      <trkpt lat="38.1861840" lon="-3.5888160">
        <ele>486.6</ele>
        <time>2018-06-16T06:42:32Z</time>
      </trkpt>
      <trkpt lat="38.1862450" lon="-3.5888120">
        <ele>486.4</ele>
        <time>2018-06-16T06:42:33Z</time>
      </trkpt>
      <trkpt lat="38.1863050" lon="-3.5888100">
        <ele>486.4</ele>
        <time>2018-06-16T06:42:34Z</time>
      </trkpt>
      <trkpt lat="38.1863660" lon="-3.5888140">
        <ele>486.2</ele>
        <time>2018-06-16T06:42:35Z</time>
      </trkpt>
      <trkpt lat="38.1864280" lon="-3.5888270">
        <ele>485.8</ele>
        <time>2018-06-16T06:42:36Z</time>
      </trkpt>
      <trkpt lat="38.1864870" lon="-3.5888520">
        <ele>485.6</ele>
        <time>2018-06-16T06:42:37Z</time>
      </trkpt>
      <trkpt lat="38.1865440" lon="-3.5888870">
        <ele>485.4</ele>
        <time>2018-06-16T06:42:38Z</time>
      </trkpt>
      <trkpt lat="38.1866000" lon="-3.5889280">
        <ele>484.8</ele>
        <time>2018-06-16T06:42:39Z</time>
      </trkpt>
      <trkpt lat="38.1866560" lon="-3.5889720">
        <ele>484.4</ele>
        <time>2018-06-16T06:42:40Z</time>
      </trkpt>
      <trkpt lat="38.1867150" lon="-3.5890210">
        <ele>484.0</ele>
        <time>2018-06-16T06:42:41Z</time>
      </trkpt>
      <trkpt lat="38.1867760" lon="-3.5890690">
        <ele>483.6</ele>
        <time>2018-06-16T06:42:42Z</time>
      </trkpt>
      <trkpt lat="38.1868370" lon="-3.5891200">
        <ele>483.2</ele>
        <time>2018-06-16T06:42:43Z</time>
      </trkpt>
      <trkpt lat="38.1868990" lon="-3.5891680">
        <ele>482.6</ele>
        <time>2018-06-16T06:42:44Z</time>
      </trkpt>
      <trkpt lat="38.1869640" lon="-3.5892170">
        <ele>482.2</ele>
        <time>2018-06-16T06:42:45Z</time>
      </trkpt>
      <trkpt lat="38.1870300" lon="-3.5892700">
        <ele>481.6</ele>
        <time>2018-06-16T06:42:46Z</time>
      </trkpt>
      <trkpt lat="38.1870980" lon="-3.5893240">
        <ele>481.2</ele>
        <time>2018-06-16T06:42:47Z</time>
      </trkpt>
      <trkpt lat="38.1871680" lon="-3.5893790">
        <ele>480.6</ele>
        <time>2018-06-16T06:42:48Z</time>
      </trkpt>
      <trkpt lat="38.1872380" lon="-3.5894380">
        <ele>480.2</ele>
        <time>2018-06-16T06:42:49Z</time>
      </trkpt>
      <trkpt lat="38.1873100" lon="-3.5894960">
        <ele>479.8</ele>
        <time>2018-06-16T06:42:50Z</time>
      </trkpt>
      <trkpt lat="38.1873840" lon="-3.5895540">
        <ele>479.4</ele>
        <time>2018-06-16T06:42:51Z</time>
      </trkpt>
      <trkpt lat="38.1874570" lon="-3.5896140">
        <ele>478.8</ele>
        <time>2018-06-16T06:42:52Z</time>
      </trkpt>
      <trkpt lat="38.1875310" lon="-3.5896750">
        <ele>478.4</ele>
        <time>2018-06-16T06:42:53Z</time>
      </trkpt>
      <trkpt lat="38.1876060" lon="-3.5897350">
        <ele>478.2</ele>
        <time>2018-06-16T06:42:54Z</time>
      </trkpt>
      <trkpt lat="38.1876790" lon="-3.5897940">
        <ele>478.0</ele>
        <time>2018-06-16T06:42:55Z</time>
      </trkpt>
      <trkpt lat="38.1877500" lon="-3.5898510">
        <ele>478.0</ele>
        <time>2018-06-16T06:42:56Z</time>
      </trkpt>
      <trkpt lat="38.1878170" lon="-3.5899070">
        <ele>478.0</ele>
        <time>2018-06-16T06:42:57Z</time>
      </trkpt>
      <trkpt lat="38.1878810" lon="-3.5899620">
        <ele>478.4</ele>
        <time>2018-06-16T06:42:58Z</time>
      </trkpt>
      <trkpt lat="38.1879420" lon="-3.5900140">
        <ele>478.4</ele>
        <time>2018-06-16T06:42:59Z</time>
      </trkpt>
      <trkpt lat="38.1880020" lon="-3.5900620">
        <ele>478.6</ele>
        <time>2018-06-16T06:43:00Z</time>
      </trkpt>
      <trkpt lat="38.1880580" lon="-3.5901080">
        <ele>478.8</ele>
        <time>2018-06-16T06:43:01Z</time>
      </trkpt>
      <trkpt lat="38.1881100" lon="-3.5901500">
        <ele>479.0</ele>
        <time>2018-06-16T06:43:02Z</time>
      </trkpt>
      <trkpt lat="38.1881570" lon="-3.5901920">
        <ele>479.4</ele>
        <time>2018-06-16T06:43:03Z</time>
      </trkpt>
      <trkpt lat="38.1882030" lon="-3.5902300">
        <ele>479.6</ele>
        <time>2018-06-16T06:43:04Z</time>
      </trkpt>
      <trkpt lat="38.1882490" lon="-3.5902680">
        <ele>480.0</ele>
        <time>2018-06-16T06:43:05Z</time>
      </trkpt>
      <trkpt lat="38.1882950" lon="-3.5903060">
        <ele>480.2</ele>
        <time>2018-06-16T06:43:06Z</time>
      </trkpt>
      <trkpt lat="38.1883400" lon="-3.5903430">
        <ele>480.4</ele>
        <time>2018-06-16T06:43:07Z</time>
      </trkpt>
      <trkpt lat="38.1883850" lon="-3.5903780">
        <ele>480.6</ele>
        <time>2018-06-16T06:43:08Z</time>
      </trkpt>
      <trkpt lat="38.1884300" lon="-3.5904120">
        <ele>481.0</ele>
        <time>2018-06-16T06:43:09Z</time>
      </trkpt>
      <trkpt lat="38.1884740" lon="-3.5904440">
        <ele>481.2</ele>
        <time>2018-06-16T06:43:10Z</time>
      </trkpt>
      <trkpt lat="38.1885160" lon="-3.5904760">
        <ele>481.4</ele>
        <time>2018-06-16T06:43:11Z</time>
      </trkpt>
      <trkpt lat="38.1885580" lon="-3.5905110">
        <ele>481.6</ele>
        <time>2018-06-16T06:43:12Z</time>
      </trkpt>
      <trkpt lat="38.1886000" lon="-3.5905430">
        <ele>481.8</ele>
        <time>2018-06-16T06:43:13Z</time>
      </trkpt>
      <trkpt lat="38.1886410" lon="-3.5905770">
        <ele>482.0</ele>
        <time>2018-06-16T06:43:14Z</time>
      </trkpt>
      <trkpt lat="38.1886810" lon="-3.5906100">
        <ele>482.2</ele>
        <time>2018-06-16T06:43:15Z</time>
      </trkpt>
      <trkpt lat="38.1887210" lon="-3.5906400">
        <ele>482.6</ele>
        <time>2018-06-16T06:43:16Z</time>
      </trkpt>
      <trkpt lat="38.1887600" lon="-3.5906720">
        <ele>482.8</ele>
        <time>2018-06-16T06:43:17Z</time>
      </trkpt>
      <trkpt lat="38.1887960" lon="-3.5907060">
        <ele>483.0</ele>
        <time>2018-06-16T06:43:18Z</time>
      </trkpt>
      <trkpt lat="38.1888320" lon="-3.5907440">
        <ele>483.2</ele>
        <time>2018-06-16T06:43:19Z</time>
      </trkpt>
      <trkpt lat="38.1888640" lon="-3.5907850">
        <ele>483.4</ele>
        <time>2018-06-16T06:43:20Z</time>
      </trkpt>
      <trkpt lat="38.1888940" lon="-3.5908300">
        <ele>483.4</ele>
        <time>2018-06-16T06:43:21Z</time>
      </trkpt>
      <trkpt lat="38.1889220" lon="-3.5908780">
        <ele>483.4</ele>
        <time>2018-06-16T06:43:22Z</time>
      </trkpt>
      <trkpt lat="38.1889490" lon="-3.5909280">
        <ele>483.2</ele>
        <time>2018-06-16T06:43:23Z</time>
      </trkpt>
      <trkpt lat="38.1889750" lon="-3.5909830">
        <ele>483.2</ele>
        <time>2018-06-16T06:43:24Z</time>
      </trkpt>
      <trkpt lat="38.1889940" lon="-3.5910430">
        <ele>483.0</ele>
        <time>2018-06-16T06:43:25Z</time>
      </trkpt>
      <trkpt lat="38.1890090" lon="-3.5911080">
        <ele>483.0</ele>
        <time>2018-06-16T06:43:26Z</time>
      </trkpt>
      <trkpt lat="38.1890220" lon="-3.5911770">
        <ele>482.8</ele>
        <time>2018-06-16T06:43:27Z</time>
      </trkpt>
      <trkpt lat="38.1890330" lon="-3.5912460">
        <ele>482.6</ele>
        <time>2018-06-16T06:43:28Z</time>
      </trkpt>
      <trkpt lat="38.1890470" lon="-3.5913150">
        <ele>482.6</ele>
        <time>2018-06-16T06:43:29Z</time>
      </trkpt>
      <trkpt lat="38.1890620" lon="-3.5913850">
        <ele>482.4</ele>
        <time>2018-06-16T06:43:30Z</time>
      </trkpt>
      <trkpt lat="38.1890770" lon="-3.5914540">
        <ele>482.2</ele>
        <time>2018-06-16T06:43:31Z</time>
      </trkpt>
      <trkpt lat="38.1890910" lon="-3.5915250">
        <ele>482.0</ele>
        <time>2018-06-16T06:43:32Z</time>
      </trkpt>
      <trkpt lat="38.1891060" lon="-3.5915960">
        <ele>481.8</ele>
        <time>2018-06-16T06:43:33Z</time>
      </trkpt>
      <trkpt lat="38.1891220" lon="-3.5916680">
        <ele>481.6</ele>
        <time>2018-06-16T06:43:34Z</time>
      </trkpt>
      <trkpt lat="38.1891370" lon="-3.5917420">
        <ele>481.4</ele>
        <time>2018-06-16T06:43:35Z</time>
      </trkpt>
      <trkpt lat="38.1891520" lon="-3.5918170">
        <ele>481.2</ele>
        <time>2018-06-16T06:43:36Z</time>
      </trkpt>
      <trkpt lat="38.1891660" lon="-3.5918930">
        <ele>481.2</ele>
        <time>2018-06-16T06:43:37Z</time>
      </trkpt>
      <trkpt lat="38.1891830" lon="-3.5919690">
        <ele>481.0</ele>
        <time>2018-06-16T06:43:38Z</time>
      </trkpt>
      <trkpt lat="38.1891970" lon="-3.5920470">
        <ele>480.8</ele>
        <time>2018-06-16T06:43:39Z</time>
      </trkpt>
      <trkpt lat="38.1892100" lon="-3.5921250">
        <ele>480.6</ele>
        <time>2018-06-16T06:43:40Z</time>
      </trkpt>
      <trkpt lat="38.1892220" lon="-3.5922030">
        <ele>480.4</ele>
        <time>2018-06-16T06:43:41Z</time>
      </trkpt>
      <trkpt lat="38.1892370" lon="-3.5922810">
        <ele>480.2</ele>
        <time>2018-06-16T06:43:42Z</time>
      </trkpt>
      <trkpt lat="38.1892540" lon="-3.5923560">
        <ele>480.2</ele>
        <time>2018-06-16T06:43:43Z</time>
      </trkpt>
      <trkpt lat="38.1892760" lon="-3.5924280">
        <ele>480.2</ele>
        <time>2018-06-16T06:43:44Z</time>
      </trkpt>
      <trkpt lat="38.1893040" lon="-3.5924940">
        <ele>480.0</ele>
        <time>2018-06-16T06:43:45Z</time>
      </trkpt>
      <trkpt lat="38.1893410" lon="-3.5925510">
        <ele>479.6</ele>
        <time>2018-06-16T06:43:46Z</time>
      </trkpt>
      <trkpt lat="38.1893860" lon="-3.5925970">
        <ele>479.4</ele>
        <time>2018-06-16T06:43:47Z</time>
      </trkpt>
      <trkpt lat="38.1894390" lon="-3.5926300">
        <ele>479.0</ele>
        <time>2018-06-16T06:43:48Z</time>
      </trkpt>
      <trkpt lat="38.1894950" lon="-3.5926550">
        <ele>478.4</ele>
        <time>2018-06-16T06:43:49Z</time>
      </trkpt>
      <trkpt lat="38.1895490" lon="-3.5926770">
        <ele>478.0</ele>
        <time>2018-06-16T06:43:50Z</time>
      </trkpt>
      <trkpt lat="38.1895990" lon="-3.5926950">
        <ele>477.6</ele>
        <time>2018-06-16T06:43:51Z</time>
      </trkpt>
      <trkpt lat="38.1896480" lon="-3.5927150">
        <ele>477.2</ele>
        <time>2018-06-16T06:43:52Z</time>
      </trkpt>
      <trkpt lat="38.1897000" lon="-3.5927380">
        <ele>476.8</ele>
        <time>2018-06-16T06:43:53Z</time>
      </trkpt>
      <trkpt lat="38.1897480" lon="-3.5927700">
        <ele>476.4</ele>
        <time>2018-06-16T06:43:54Z</time>
      </trkpt>
      <trkpt lat="38.1897930" lon="-3.5928160">
        <ele>475.8</ele>
        <time>2018-06-16T06:43:55Z</time>
      </trkpt>
      <trkpt lat="38.1898350" lon="-3.5928750">
        <ele>475.4</ele>
        <time>2018-06-16T06:43:56Z</time>
      </trkpt>
      <trkpt lat="38.1898700" lon="-3.5929420">
        <ele>475.0</ele>
        <time>2018-06-16T06:43:57Z</time>
      </trkpt>
      <trkpt lat="38.1899000" lon="-3.5930150">
        <ele>474.4</ele>
        <time>2018-06-16T06:43:58Z</time>
      </trkpt>
      <trkpt lat="38.1899310" lon="-3.5930880">
        <ele>474.0</ele>
        <time>2018-06-16T06:43:59Z</time>
      </trkpt>
      <trkpt lat="38.1899620" lon="-3.5931620">
        <ele>473.6</ele>
        <time>2018-06-16T06:44:00Z</time>
      </trkpt>
      <trkpt lat="38.1899950" lon="-3.5932370">
        <ele>473.0</ele>
        <time>2018-06-16T06:44:01Z</time>
      </trkpt>
      <trkpt lat="38.1900300" lon="-3.5933100">
        <ele>472.8</ele>
        <time>2018-06-16T06:44:02Z</time>
      </trkpt>
      <trkpt lat="38.1900660" lon="-3.5933830">
        <ele>472.4</ele>
        <time>2018-06-16T06:44:03Z</time>
      </trkpt>
      <trkpt lat="38.1901000" lon="-3.5934580">
        <ele>472.0</ele>
        <time>2018-06-16T06:44:04Z</time>
      </trkpt>
      <trkpt lat="38.1901340" lon="-3.5935350">
        <ele>471.4</ele>
        <time>2018-06-16T06:44:05Z</time>
      </trkpt>
      <trkpt lat="38.1901680" lon="-3.5936120">
        <ele>470.8</ele>
        <time>2018-06-16T06:44:06Z</time>
      </trkpt>
      <trkpt lat="38.1902020" lon="-3.5936880">
        <ele>470.4</ele>
        <time>2018-06-16T06:44:07Z</time>
      </trkpt>
      <trkpt lat="38.1902350" lon="-3.5937620">
        <ele>469.8</ele>
        <time>2018-06-16T06:44:08Z</time>
      </trkpt>
      <trkpt lat="38.1902710" lon="-3.5938380">
        <ele>469.6</ele>
        <time>2018-06-16T06:44:09Z</time>
      </trkpt>
      <trkpt lat="38.1903110" lon="-3.5939110">
        <ele>469.0</ele>
        <time>2018-06-16T06:44:10Z</time>
      </trkpt>
      <trkpt lat="38.1903570" lon="-3.5939800">
        <ele>468.4</ele>
        <time>2018-06-16T06:44:11Z</time>
      </trkpt>
      <trkpt lat="38.1904040" lon="-3.5940410">
        <ele>468.0</ele>
        <time>2018-06-16T06:44:12Z</time>
      </trkpt>
      <trkpt lat="38.1904550" lon="-3.5940960">
        <ele>467.6</ele>
        <time>2018-06-16T06:44:13Z</time>
      </trkpt>
      <trkpt lat="38.1905090" lon="-3.5941470">
        <ele>467.0</ele>
        <time>2018-06-16T06:44:14Z</time>
      </trkpt>
      <trkpt lat="38.1905600" lon="-3.5941950">
        <ele>466.4</ele>
        <time>2018-06-16T06:44:15Z</time>
      </trkpt>
      <trkpt lat="38.1906090" lon="-3.5942450">
        <ele>466.0</ele>
        <time>2018-06-16T06:44:16Z</time>
      </trkpt>
      <trkpt lat="38.1906590" lon="-3.5942910">
        <ele>465.4</ele>
        <time>2018-06-16T06:44:17Z</time>
      </trkpt>
      <trkpt lat="38.1907120" lon="-3.5943290">
        <ele>465.0</ele>
        <time>2018-06-16T06:44:18Z</time>
      </trkpt>
      <trkpt lat="38.1907700" lon="-3.5943530">
        <ele>464.4</ele>
        <time>2018-06-16T06:44:19Z</time>
      </trkpt>
      <trkpt lat="38.1908290" lon="-3.5943580">
        <ele>463.8</ele>
        <time>2018-06-16T06:44:20Z</time>
      </trkpt>
      <trkpt lat="38.1908890" lon="-3.5943510">
        <ele>463.4</ele>
        <time>2018-06-16T06:44:21Z</time>
      </trkpt>
      <trkpt lat="38.1909500" lon="-3.5943390">
        <ele>463.0</ele>
        <time>2018-06-16T06:44:22Z</time>
      </trkpt>
      <trkpt lat="38.1910110" lon="-3.5943260">
        <ele>462.4</ele>
        <time>2018-06-16T06:44:23Z</time>
      </trkpt>
      <trkpt lat="38.1910750" lon="-3.5943140">
        <ele>462.0</ele>
        <time>2018-06-16T06:44:24Z</time>
      </trkpt>
      <trkpt lat="38.1911430" lon="-3.5943040">
        <ele>461.4</ele>
        <time>2018-06-16T06:44:25Z</time>
      </trkpt>
      <trkpt lat="38.1912120" lon="-3.5942900">
        <ele>460.6</ele>
        <time>2018-06-16T06:44:26Z</time>
      </trkpt>
      <trkpt lat="38.1912810" lon="-3.5942770">
        <ele>460.0</ele>
        <time>2018-06-16T06:44:27Z</time>
      </trkpt>
      <trkpt lat="38.1913530" lon="-3.5942630">
        <ele>459.8</ele>
        <time>2018-06-16T06:44:28Z</time>
      </trkpt>
      <trkpt lat="38.1914260" lon="-3.5942500">
        <ele>459.2</ele>
        <time>2018-06-16T06:44:29Z</time>
      </trkpt>
      <trkpt lat="38.1915000" lon="-3.5942360">
        <ele>458.8</ele>
        <time>2018-06-16T06:44:30Z</time>
      </trkpt>
      <trkpt lat="38.1915730" lon="-3.5942230">
        <ele>458.8</ele>
        <time>2018-06-16T06:44:31Z</time>
      </trkpt>
      <trkpt lat="38.1916450" lon="-3.5942130">
        <ele>458.4</ele>
        <time>2018-06-16T06:44:32Z</time>
      </trkpt>
      <trkpt lat="38.1917160" lon="-3.5942030">
        <ele>458.0</ele>
        <time>2018-06-16T06:44:33Z</time>
      </trkpt>
      <trkpt lat="38.1917880" lon="-3.5941900">
        <ele>457.8</ele>
        <time>2018-06-16T06:44:34Z</time>
      </trkpt>
      <trkpt lat="38.1918610" lon="-3.5941760">
        <ele>457.6</ele>
        <time>2018-06-16T06:44:35Z</time>
      </trkpt>
      <trkpt lat="38.1919350" lon="-3.5941630">
        <ele>457.2</ele>
        <time>2018-06-16T06:44:36Z</time>
      </trkpt>
      <trkpt lat="38.1920080" lon="-3.5941490">
        <ele>457.0</ele>
        <time>2018-06-16T06:44:37Z</time>
      </trkpt>
      <trkpt lat="38.1920800" lon="-3.5941340">
        <ele>457.0</ele>
        <time>2018-06-16T06:44:38Z</time>
      </trkpt>
      <trkpt lat="38.1921500" lon="-3.5941210">
        <ele>457.0</ele>
        <time>2018-06-16T06:44:39Z</time>
      </trkpt>
      <trkpt lat="38.1922160" lon="-3.5941070">
        <ele>457.2</ele>
        <time>2018-06-16T06:44:40Z</time>
      </trkpt>
      <trkpt lat="38.1922770" lon="-3.5940960">
        <ele>457.6</ele>
        <time>2018-06-16T06:44:41Z</time>
      </trkpt>
      <trkpt lat="38.1923320" lon="-3.5940880">
        <ele>458.0</ele>
        <time>2018-06-16T06:44:42Z</time>
      </trkpt>
      <trkpt lat="38.1924070" lon="-3.5940820">
        <ele>458.0</ele>
        <time>2018-06-16T06:44:43Z</time>
      </trkpt>
      <trkpt lat="38.1924300" lon="-3.5940820">
        <ele>458.0</ele>
        <time>2018-06-16T06:44:44Z</time>
      </trkpt>
      <trkpt lat="38.1924770" lon="-3.5940820">
        <ele>458.0</ele>
        <time>2018-06-16T06:44:45Z</time>
      </trkpt>
      <trkpt lat="38.1925260" lon="-3.5940910">
        <ele>458.0</ele>
        <time>2018-06-16T06:44:46Z</time>
      </trkpt>
      <trkpt lat="38.1925770" lon="-3.5941030">
        <ele>457.6</ele>
        <time>2018-06-16T06:44:47Z</time>
      </trkpt>
      <trkpt lat="38.1926290" lon="-3.5941190">
        <ele>457.4</ele>
        <time>2018-06-16T06:44:48Z</time>
      </trkpt>
      <trkpt lat="38.1926860" lon="-3.5941360">
        <ele>457.2</ele>
        <time>2018-06-16T06:44:49Z</time>
      </trkpt>
      <trkpt lat="38.1927420" lon="-3.5941560">
        <ele>456.8</ele>
        <time>2018-06-16T06:44:50Z</time>
      </trkpt>
      <trkpt lat="38.1928000" lon="-3.5941760">
        <ele>456.4</ele>
        <time>2018-06-16T06:44:51Z</time>
      </trkpt>
      <trkpt lat="38.1928590" lon="-3.5941930">
        <ele>456.4</ele>
        <time>2018-06-16T06:44:52Z</time>
      </trkpt>
      <trkpt lat="38.1929170" lon="-3.5942070">
        <ele>456.2</ele>
        <time>2018-06-16T06:44:53Z</time>
      </trkpt>
      <trkpt lat="38.1929760" lon="-3.5942230">
        <ele>456.0</ele>
        <time>2018-06-16T06:44:54Z</time>
      </trkpt>
      <trkpt lat="38.1930360" lon="-3.5942390">
        <ele>455.8</ele>
        <time>2018-06-16T06:44:55Z</time>
      </trkpt>
      <trkpt lat="38.1930960" lon="-3.5942580">
        <ele>455.6</ele>
        <time>2018-06-16T06:44:56Z</time>
      </trkpt>
      <trkpt lat="38.1931570" lon="-3.5942750">
        <ele>455.4</ele>
        <time>2018-06-16T06:44:57Z</time>
      </trkpt>
      <trkpt lat="38.1932190" lon="-3.5942930">
        <ele>455.2</ele>
        <time>2018-06-16T06:44:58Z</time>
      </trkpt>
      <trkpt lat="38.1932800" lon="-3.5943110">
        <ele>455.0</ele>
        <time>2018-06-16T06:44:59Z</time>
      </trkpt>
      <trkpt lat="38.1933380" lon="-3.5943320">
        <ele>454.6</ele>
        <time>2018-06-16T06:45:00Z</time>
      </trkpt>
      <trkpt lat="38.1934000" lon="-3.5943510">
        <ele>454.4</ele>
        <time>2018-06-16T06:45:01Z</time>
      </trkpt>
      <trkpt lat="38.1934610" lon="-3.5943670">
        <ele>454.2</ele>
        <time>2018-06-16T06:45:02Z</time>
      </trkpt>
      <trkpt lat="38.1935220" lon="-3.5943820">
        <ele>454.0</ele>
        <time>2018-06-16T06:45:03Z</time>
      </trkpt>
      <trkpt lat="38.1935800" lon="-3.5943970">
        <ele>453.8</ele>
        <time>2018-06-16T06:45:04Z</time>
      </trkpt>
      <trkpt lat="38.1936360" lon="-3.5944150">
        <ele>453.6</ele>
        <time>2018-06-16T06:45:05Z</time>
      </trkpt>
      <trkpt lat="38.1936910" lon="-3.5944360">
        <ele>453.4</ele>
        <time>2018-06-16T06:45:06Z</time>
      </trkpt>
      <trkpt lat="38.1937460" lon="-3.5944620">
        <ele>453.4</ele>
        <time>2018-06-16T06:45:07Z</time>
      </trkpt>
      <trkpt lat="38.1937990" lon="-3.5944960">
        <ele>453.2</ele>
        <time>2018-06-16T06:45:08Z</time>
      </trkpt>
      <trkpt lat="38.1938490" lon="-3.5945360">
        <ele>453.0</ele>
        <time>2018-06-16T06:45:09Z</time>
      </trkpt>
      <trkpt lat="38.1938990" lon="-3.5945780">
        <ele>452.8</ele>
        <time>2018-06-16T06:45:10Z</time>
      </trkpt>
      <trkpt lat="38.1939510" lon="-3.5946180">
        <ele>452.6</ele>
        <time>2018-06-16T06:45:11Z</time>
      </trkpt>
      <trkpt lat="38.1940040" lon="-3.5946590">
        <ele>452.6</ele>
        <time>2018-06-16T06:45:12Z</time>
      </trkpt>
      <trkpt lat="38.1940570" lon="-3.5947000">
        <ele>452.6</ele>
        <time>2018-06-16T06:45:13Z</time>
      </trkpt>
      <trkpt lat="38.1941130" lon="-3.5947380">
        <ele>452.4</ele>
        <time>2018-06-16T06:45:14Z</time>
      </trkpt>
      <trkpt lat="38.1941690" lon="-3.5947780">
        <ele>452.0</ele>
        <time>2018-06-16T06:45:15Z</time>
      </trkpt>
      <trkpt lat="38.1942270" lon="-3.5948180">
        <ele>451.8</ele>
        <time>2018-06-16T06:45:16Z</time>
      </trkpt>
      <trkpt lat="38.1942860" lon="-3.5948570">
        <ele>451.6</ele>
        <time>2018-06-16T06:45:17Z</time>
      </trkpt>
      <trkpt lat="38.1943480" lon="-3.5948910">
        <ele>451.2</ele>
        <time>2018-06-16T06:45:18Z</time>
      </trkpt>
      <trkpt lat="38.1944110" lon="-3.5949200">
        <ele>451.0</ele>
        <time>2018-06-16T06:45:19Z</time>
      </trkpt>
      <trkpt lat="38.1944760" lon="-3.5949440">
        <ele>450.8</ele>
        <time>2018-06-16T06:45:20Z</time>
      </trkpt>
      <trkpt lat="38.1945410" lon="-3.5949650">
        <ele>450.8</ele>
        <time>2018-06-16T06:45:21Z</time>
      </trkpt>
      <trkpt lat="38.1946080" lon="-3.5949810">
        <ele>450.6</ele>
        <time>2018-06-16T06:45:22Z</time>
      </trkpt>
      <trkpt lat="38.1946770" lon="-3.5949950">
        <ele>450.4</ele>
        <time>2018-06-16T06:45:23Z</time>
      </trkpt>
      <trkpt lat="38.1947440" lon="-3.5950030">
        <ele>450.2</ele>
        <time>2018-06-16T06:45:24Z</time>
      </trkpt>
      <trkpt lat="38.1948120" lon="-3.5950060">
        <ele>450.0</ele>
        <time>2018-06-16T06:45:25Z</time>
      </trkpt>
      <trkpt lat="38.1948790" lon="-3.5950100">
        <ele>450.0</ele>
        <time>2018-06-16T06:45:26Z</time>
      </trkpt>
      <trkpt lat="38.1949440" lon="-3.5950140">
        <ele>450.0</ele>
        <time>2018-06-16T06:45:27Z</time>
      </trkpt>
      <trkpt lat="38.1950050" lon="-3.5950180">
        <ele>450.2</ele>
        <time>2018-06-16T06:45:28Z</time>
      </trkpt>
      <trkpt lat="38.1950640" lon="-3.5950220">
        <ele>450.2</ele>
        <time>2018-06-16T06:45:29Z</time>
      </trkpt>
      <trkpt lat="38.1951180" lon="-3.5950250">
        <ele>450.4</ele>
        <time>2018-06-16T06:45:30Z</time>
      </trkpt>
      <trkpt lat="38.1951710" lon="-3.5950280">
        <ele>450.6</ele>
        <time>2018-06-16T06:45:31Z</time>
      </trkpt>
      <trkpt lat="38.1952230" lon="-3.5950280">
        <ele>451.0</ele>
        <time>2018-06-16T06:45:32Z</time>
      </trkpt>
      <trkpt lat="38.1952720" lon="-3.5950230">
        <ele>451.4</ele>
        <time>2018-06-16T06:45:33Z</time>
      </trkpt>
      <trkpt lat="38.1953180" lon="-3.5950160">
        <ele>451.8</ele>
        <time>2018-06-16T06:45:34Z</time>
      </trkpt>
      <trkpt lat="38.1953620" lon="-3.5950040">
        <ele>452.0</ele>
        <time>2018-06-16T06:45:35Z</time>
      </trkpt>
      <trkpt lat="38.1954030" lon="-3.5949890">
        <ele>452.4</ele>
        <time>2018-06-16T06:45:36Z</time>
      </trkpt>
      <trkpt lat="38.1954420" lon="-3.5949710">
        <ele>452.8</ele>
        <time>2018-06-16T06:45:37Z</time>
      </trkpt>
      <trkpt lat="38.1954790" lon="-3.5949490">
        <ele>453.2</ele>
        <time>2018-06-16T06:45:38Z</time>
      </trkpt>
      <trkpt lat="38.1955150" lon="-3.5949250">
        <ele>453.4</ele>
        <time>2018-06-16T06:45:39Z</time>
      </trkpt>
      <trkpt lat="38.1955490" lon="-3.5948980">
        <ele>453.8</ele>
        <time>2018-06-16T06:45:40Z</time>
      </trkpt>
      <trkpt lat="38.1955800" lon="-3.5948700">
        <ele>454.2</ele>
        <time>2018-06-16T06:45:41Z</time>
      </trkpt>
      <trkpt lat="38.1956080" lon="-3.5948380">
        <ele>454.4</ele>
        <time>2018-06-16T06:45:42Z</time>
      </trkpt>
      <trkpt lat="38.1956370" lon="-3.5948090">
        <ele>454.8</ele>
        <time>2018-06-16T06:45:43Z</time>
      </trkpt>
      <trkpt lat="38.1956650" lon="-3.5947800">
        <ele>455.0</ele>
        <time>2018-06-16T06:45:44Z</time>
      </trkpt>
      <trkpt lat="38.1956960" lon="-3.5947530">
        <ele>455.4</ele>
        <time>2018-06-16T06:45:45Z</time>
      </trkpt>
      <trkpt lat="38.1957260" lon="-3.5947260">
        <ele>455.6</ele>
        <time>2018-06-16T06:45:46Z</time>
      </trkpt>
      <trkpt lat="38.1957540" lon="-3.5946970">
        <ele>455.8</ele>
        <time>2018-06-16T06:45:47Z</time>
      </trkpt>
      <trkpt lat="38.1957840" lon="-3.5946670">
        <ele>456.0</ele>
        <time>2018-06-16T06:45:48Z</time>
      </trkpt>
      <trkpt lat="38.1958130" lon="-3.5946390">
        <ele>456.2</ele>
        <time>2018-06-16T06:45:49Z</time>
      </trkpt>
      <trkpt lat="38.1958420" lon="-3.5946120">
        <ele>456.6</ele>
        <time>2018-06-16T06:45:50Z</time>
      </trkpt>
      <trkpt lat="38.1958710" lon="-3.5945840">
        <ele>456.8</ele>
        <time>2018-06-16T06:45:51Z</time>
      </trkpt>
      <trkpt lat="38.1959000" lon="-3.5945580">
        <ele>457.0</ele>
        <time>2018-06-16T06:45:52Z</time>
      </trkpt>
      <trkpt lat="38.1959300" lon="-3.5945340">
        <ele>457.2</ele>
        <time>2018-06-16T06:45:53Z</time>
      </trkpt>
      <trkpt lat="38.1959590" lon="-3.5945120">
        <ele>457.6</ele>
        <time>2018-06-16T06:45:54Z</time>
      </trkpt>
      <trkpt lat="38.1959900" lon="-3.5944940">
        <ele>457.8</ele>
        <time>2018-06-16T06:45:55Z</time>
      </trkpt>
      <trkpt lat="38.1960210" lon="-3.5944790">
        <ele>458.0</ele>
        <time>2018-06-16T06:45:56Z</time>
      </trkpt>
      <trkpt lat="38.1960530" lon="-3.5944690">
        <ele>458.4</ele>
        <time>2018-06-16T06:45:57Z</time>
      </trkpt>
      <trkpt lat="38.1960860" lon="-3.5944650">
        <ele>458.8</ele>
        <time>2018-06-16T06:45:58Z</time>
      </trkpt>
      <trkpt lat="38.1961190" lon="-3.5944690">
        <ele>458.8</ele>
        <time>2018-06-16T06:45:59Z</time>
      </trkpt>
      <trkpt lat="38.1961510" lon="-3.5944760">
        <ele>459.2</ele>
        <time>2018-06-16T06:46:00Z</time>
      </trkpt>
      <trkpt lat="38.1961810" lon="-3.5944890">
        <ele>459.4</ele>
        <time>2018-06-16T06:46:01Z</time>
      </trkpt>
      <trkpt lat="38.1962100" lon="-3.5945040">
        <ele>459.6</ele>
        <time>2018-06-16T06:46:02Z</time>
      </trkpt>
      <trkpt lat="38.1962540" lon="-3.5945320">
        <ele>459.8</ele>
        <time>2018-06-16T06:46:03Z</time>
      </trkpt>
      <trkpt lat="38.1962680" lon="-3.5945430">
        <ele>460.2</ele>
        <time>2018-06-16T06:46:04Z</time>
      </trkpt>
      <trkpt lat="38.1962910" lon="-3.5945710">
        <ele>460.4</ele>
        <time>2018-06-16T06:46:05Z</time>
      </trkpt>
      <trkpt lat="38.1963120" lon="-3.5946010">
        <ele>460.6</ele>
        <time>2018-06-16T06:46:06Z</time>
      </trkpt>
      <trkpt lat="38.1963330" lon="-3.5946330">
        <ele>461.0</ele>
        <time>2018-06-16T06:46:07Z</time>
      </trkpt>
      <trkpt lat="38.1963510" lon="-3.5946690">
        <ele>461.2</ele>
        <time>2018-06-16T06:46:08Z</time>
      </trkpt>
      <trkpt lat="38.1963690" lon="-3.5947040">
        <ele>461.4</ele>
        <time>2018-06-16T06:46:09Z</time>
      </trkpt>
      <trkpt lat="38.1963870" lon="-3.5947390">
        <ele>461.6</ele>
        <time>2018-06-16T06:46:10Z</time>
      </trkpt>
      <trkpt lat="38.1964080" lon="-3.5947710">
        <ele>461.8</ele>
        <time>2018-06-16T06:46:11Z</time>
      </trkpt>
      <trkpt lat="38.1964300" lon="-3.5948020">
        <ele>462.0</ele>
        <time>2018-06-16T06:46:12Z</time>
      </trkpt>
      <trkpt lat="38.1964530" lon="-3.5948320">
        <ele>462.2</ele>
        <time>2018-06-16T06:46:13Z</time>
      </trkpt>
      <trkpt lat="38.1964770" lon="-3.5948590">
        <ele>462.4</ele>
        <time>2018-06-16T06:46:14Z</time>
      </trkpt>
      <trkpt lat="38.1965050" lon="-3.5948850">
        <ele>462.4</ele>
        <time>2018-06-16T06:46:15Z</time>
      </trkpt>
      <trkpt lat="38.1965340" lon="-3.5949080">
        <ele>462.6</ele>
        <time>2018-06-16T06:46:16Z</time>
      </trkpt>
      <trkpt lat="38.1965640" lon="-3.5949270">
        <ele>462.6</ele>
        <time>2018-06-16T06:46:17Z</time>
      </trkpt>
      <trkpt lat="38.1965960" lon="-3.5949440">
        <ele>462.8</ele>
        <time>2018-06-16T06:46:18Z</time>
      </trkpt>
      <trkpt lat="38.1966280" lon="-3.5949580">
        <ele>463.0</ele>
        <time>2018-06-16T06:46:19Z</time>
      </trkpt>
      <trkpt lat="38.1966610" lon="-3.5949710">
        <ele>463.0</ele>
        <time>2018-06-16T06:46:20Z</time>
      </trkpt>
      <trkpt lat="38.1966930" lon="-3.5949830">
        <ele>463.4</ele>
        <time>2018-06-16T06:46:21Z</time>
      </trkpt>
      <trkpt lat="38.1967250" lon="-3.5949950">
        <ele>463.6</ele>
        <time>2018-06-16T06:46:22Z</time>
      </trkpt>
      <trkpt lat="38.1967560" lon="-3.5950080">
        <ele>463.8</ele>
        <time>2018-06-16T06:46:23Z</time>
      </trkpt>
      <trkpt lat="38.1967870" lon="-3.5950210">
        <ele>464.0</ele>
        <time>2018-06-16T06:46:24Z</time>
      </trkpt>
      <trkpt lat="38.1968190" lon="-3.5950340">
        <ele>464.2</ele>
        <time>2018-06-16T06:46:25Z</time>
      </trkpt>
      <trkpt lat="38.1968510" lon="-3.5950470">
        <ele>464.4</ele>
        <time>2018-06-16T06:46:26Z</time>
      </trkpt>
      <trkpt lat="38.1968840" lon="-3.5950600">
        <ele>464.6</ele>
        <time>2018-06-16T06:46:27Z</time>
      </trkpt>
      <trkpt lat="38.1969160" lon="-3.5950730">
        <ele>465.0</ele>
        <time>2018-06-16T06:46:28Z</time>
      </trkpt>
      <trkpt lat="38.1969480" lon="-3.5950850">
        <ele>465.2</ele>
        <time>2018-06-16T06:46:29Z</time>
      </trkpt>
      <trkpt lat="38.1969790" lon="-3.5950990">
        <ele>465.4</ele>
        <time>2018-06-16T06:46:30Z</time>
      </trkpt>
      <trkpt lat="38.1970100" lon="-3.5951160">
        <ele>465.6</ele>
        <time>2018-06-16T06:46:31Z</time>
      </trkpt>
      <trkpt lat="38.1970410" lon="-3.5951310">
        <ele>465.8</ele>
        <time>2018-06-16T06:46:32Z</time>
      </trkpt>
      <trkpt lat="38.1970730" lon="-3.5951460">
        <ele>466.0</ele>
        <time>2018-06-16T06:46:33Z</time>
      </trkpt>
      <trkpt lat="38.1971040" lon="-3.5951590">
        <ele>466.4</ele>
        <time>2018-06-16T06:46:34Z</time>
      </trkpt>
      <trkpt lat="38.1971350" lon="-3.5951740">
        <ele>466.6</ele>
        <time>2018-06-16T06:46:35Z</time>
      </trkpt>
      <trkpt lat="38.1971660" lon="-3.5951870">
        <ele>467.0</ele>
        <time>2018-06-16T06:46:36Z</time>
      </trkpt>
      <trkpt lat="38.1971970" lon="-3.5952010">
        <ele>467.2</ele>
        <time>2018-06-16T06:46:37Z</time>
      </trkpt>
      <trkpt lat="38.1972290" lon="-3.5952150">
        <ele>467.4</ele>
        <time>2018-06-16T06:46:38Z</time>
      </trkpt>
      <trkpt lat="38.1972600" lon="-3.5952300">
        <ele>467.6</ele>
        <time>2018-06-16T06:46:39Z</time>
      </trkpt>
      <trkpt lat="38.1972920" lon="-3.5952440">
        <ele>468.0</ele>
        <time>2018-06-16T06:46:40Z</time>
      </trkpt>
      <trkpt lat="38.1973240" lon="-3.5952590">
        <ele>468.2</ele>
        <time>2018-06-16T06:46:41Z</time>
      </trkpt>
      <trkpt lat="38.1973550" lon="-3.5952720">
        <ele>468.4</ele>
        <time>2018-06-16T06:46:42Z</time>
      </trkpt>
      <trkpt lat="38.1973870" lon="-3.5952850">
        <ele>468.6</ele>
        <time>2018-06-16T06:46:43Z</time>
      </trkpt>
      <trkpt lat="38.1974190" lon="-3.5953000">
        <ele>468.8</ele>
        <time>2018-06-16T06:46:44Z</time>
      </trkpt>
      <trkpt lat="38.1974510" lon="-3.5953150">
        <ele>469.0</ele>
        <time>2018-06-16T06:46:45Z</time>
      </trkpt>
      <trkpt lat="38.1974830" lon="-3.5953290">
        <ele>469.2</ele>
        <time>2018-06-16T06:46:46Z</time>
      </trkpt>
      <trkpt lat="38.1975140" lon="-3.5953420">
        <ele>469.4</ele>
        <time>2018-06-16T06:46:47Z</time>
      </trkpt>
      <trkpt lat="38.1975610" lon="-3.5953630">
        <ele>469.6</ele>
        <time>2018-06-16T06:46:48Z</time>
      </trkpt>
      <trkpt lat="38.1975770" lon="-3.5953710">
        <ele>469.6</ele>
        <time>2018-06-16T06:46:49Z</time>
      </trkpt>
      <trkpt lat="38.1976090" lon="-3.5953850">
        <ele>469.8</ele>
        <time>2018-06-16T06:46:50Z</time>
      </trkpt>
      <trkpt lat="38.1976410" lon="-3.5953970">
        <ele>469.8</ele>
        <time>2018-06-16T06:46:51Z</time>
      </trkpt>
      <trkpt lat="38.1976910" lon="-3.5954180">
        <ele>469.8</ele>
        <time>2018-06-16T06:46:52Z</time>
      </trkpt>
      <trkpt lat="38.1977070" lon="-3.5954260">
        <ele>469.8</ele>
        <time>2018-06-16T06:46:53Z</time>
      </trkpt>
      <trkpt lat="38.1977420" lon="-3.5954410">
        <ele>470.0</ele>
        <time>2018-06-16T06:46:54Z</time>
      </trkpt>
      <trkpt lat="38.1977780" lon="-3.5954570">
        <ele>470.0</ele>
        <time>2018-06-16T06:46:55Z</time>
      </trkpt>
      <trkpt lat="38.1978130" lon="-3.5954720">
        <ele>470.0</ele>
        <time>2018-06-16T06:46:56Z</time>
      </trkpt>
      <trkpt lat="38.1978480" lon="-3.5954890">
        <ele>470.0</ele>
        <time>2018-06-16T06:46:57Z</time>
      </trkpt>
      <trkpt lat="38.1978860" lon="-3.5955050">
        <ele>470.0</ele>
        <time>2018-06-16T06:46:58Z</time>
      </trkpt>
      <trkpt lat="38.1979250" lon="-3.5955200">
        <ele>470.0</ele>
        <time>2018-06-16T06:46:59Z</time>
      </trkpt>
      <trkpt lat="38.1979640" lon="-3.5955360">
        <ele>470.0</ele>
        <time>2018-06-16T06:47:00Z</time>
      </trkpt>
      <trkpt lat="38.1980040" lon="-3.5955530">
        <ele>470.0</ele>
        <time>2018-06-16T06:47:01Z</time>
      </trkpt>
      <trkpt lat="38.1980450" lon="-3.5955680">
        <ele>470.0</ele>
        <time>2018-06-16T06:47:02Z</time>
      </trkpt>
      <trkpt lat="38.1980850" lon="-3.5955850">
        <ele>470.0</ele>
        <time>2018-06-16T06:47:03Z</time>
      </trkpt>
      <trkpt lat="38.1981250" lon="-3.5956020">
        <ele>470.2</ele>
        <time>2018-06-16T06:47:04Z</time>
      </trkpt>
      <trkpt lat="38.1981650" lon="-3.5956180">
        <ele>470.2</ele>
        <time>2018-06-16T06:47:05Z</time>
      </trkpt>
      <trkpt lat="38.1982050" lon="-3.5956340">
        <ele>470.2</ele>
        <time>2018-06-16T06:47:06Z</time>
      </trkpt>
      <trkpt lat="38.1982470" lon="-3.5956500">
        <ele>470.2</ele>
        <time>2018-06-16T06:47:07Z</time>
      </trkpt>
      <trkpt lat="38.1982880" lon="-3.5956660">
        <ele>470.2</ele>
        <time>2018-06-16T06:47:08Z</time>
      </trkpt>
      <trkpt lat="38.1983290" lon="-3.5956830">
        <ele>470.2</ele>
        <time>2018-06-16T06:47:09Z</time>
      </trkpt>
      <trkpt lat="38.1983710" lon="-3.5957010">
        <ele>470.2</ele>
        <time>2018-06-16T06:47:10Z</time>
      </trkpt>
      <trkpt lat="38.1984110" lon="-3.5957220">
        <ele>470.2</ele>
        <time>2018-06-16T06:47:11Z</time>
      </trkpt>
      <trkpt lat="38.1984520" lon="-3.5957420">
        <ele>470.2</ele>
        <time>2018-06-16T06:47:12Z</time>
      </trkpt>
      <trkpt lat="38.1984960" lon="-3.5957590">
        <ele>470.2</ele>
        <time>2018-06-16T06:47:13Z</time>
      </trkpt>
      <trkpt lat="38.1985390" lon="-3.5957740">
        <ele>470.2</ele>
        <time>2018-06-16T06:47:14Z</time>
      </trkpt>
      <trkpt lat="38.1985820" lon="-3.5957910">
        <ele>470.2</ele>
        <time>2018-06-16T06:47:15Z</time>
      </trkpt>
      <trkpt lat="38.1986270" lon="-3.5958110">
        <ele>470.2</ele>
        <time>2018-06-16T06:47:16Z</time>
      </trkpt>
      <trkpt lat="38.1986710" lon="-3.5958310">
        <ele>470.2</ele>
        <time>2018-06-16T06:47:17Z</time>
      </trkpt>
      <trkpt lat="38.1987150" lon="-3.5958530">
        <ele>470.4</ele>
        <time>2018-06-16T06:47:18Z</time>
      </trkpt>
      <trkpt lat="38.1987610" lon="-3.5958720">
        <ele>470.4</ele>
        <time>2018-06-16T06:47:19Z</time>
      </trkpt>
      <trkpt lat="38.1988070" lon="-3.5958910">
        <ele>470.2</ele>
        <time>2018-06-16T06:47:20Z</time>
      </trkpt>
      <trkpt lat="38.1988530" lon="-3.5959120">
        <ele>470.4</ele>
        <time>2018-06-16T06:47:21Z</time>
      </trkpt>
      <trkpt lat="38.1988970" lon="-3.5959320">
        <ele>470.2</ele>
        <time>2018-06-16T06:47:22Z</time>
      </trkpt>
      <trkpt lat="38.1989420" lon="-3.5959520">
        <ele>470.4</ele>
        <time>2018-06-16T06:47:23Z</time>
      </trkpt>
      <trkpt lat="38.1989880" lon="-3.5959710">
        <ele>470.4</ele>
        <time>2018-06-16T06:47:24Z</time>
      </trkpt>
      <trkpt lat="38.1990350" lon="-3.5959900">
        <ele>470.4</ele>
        <time>2018-06-16T06:47:25Z</time>
      </trkpt>
      <trkpt lat="38.1990830" lon="-3.5960070">
        <ele>470.4</ele>
        <time>2018-06-16T06:47:26Z</time>
      </trkpt>
      <trkpt lat="38.1991310" lon="-3.5960210">
        <ele>470.6</ele>
        <time>2018-06-16T06:47:27Z</time>
      </trkpt>
      <trkpt lat="38.1992020" lon="-3.5960390">
        <ele>470.6</ele>
        <time>2018-06-16T06:47:28Z</time>
      </trkpt>
      <trkpt lat="38.1992260" lon="-3.5960440">
        <ele>470.6</ele>
        <time>2018-06-16T06:47:29Z</time>
      </trkpt>
      <trkpt lat="38.1992740" lon="-3.5960500">
        <ele>470.8</ele>
        <time>2018-06-16T06:47:30Z</time>
      </trkpt>
      <trkpt lat="38.1993230" lon="-3.5960560">
        <ele>470.6</ele>
        <time>2018-06-16T06:47:31Z</time>
      </trkpt>
      <trkpt lat="38.1993710" lon="-3.5960610">
        <ele>470.8</ele>
        <time>2018-06-16T06:47:32Z</time>
      </trkpt>
      <trkpt lat="38.1994190" lon="-3.5960630">
        <ele>470.8</ele>
        <time>2018-06-16T06:47:33Z</time>
      </trkpt>
      <trkpt lat="38.1994680" lon="-3.5960650">
        <ele>470.8</ele>
        <time>2018-06-16T06:47:34Z</time>
      </trkpt>
      <trkpt lat="38.1995160" lon="-3.5960680">
        <ele>471.0</ele>
        <time>2018-06-16T06:47:35Z</time>
      </trkpt>
      <trkpt lat="38.1995630" lon="-3.5960700">
        <ele>471.0</ele>
        <time>2018-06-16T06:47:36Z</time>
      </trkpt>
      <trkpt lat="38.1996110" lon="-3.5960720">
        <ele>471.0</ele>
        <time>2018-06-16T06:47:37Z</time>
      </trkpt>
      <trkpt lat="38.1996610" lon="-3.5960770">
        <ele>471.0</ele>
        <time>2018-06-16T06:47:38Z</time>
      </trkpt>
      <trkpt lat="38.1997100" lon="-3.5960820">
        <ele>471.0</ele>
        <time>2018-06-16T06:47:39Z</time>
      </trkpt>
      <trkpt lat="38.1997600" lon="-3.5960870">
        <ele>471.0</ele>
        <time>2018-06-16T06:47:40Z</time>
      </trkpt>
      <trkpt lat="38.1998120" lon="-3.5960900">
        <ele>471.0</ele>
        <time>2018-06-16T06:47:41Z</time>
      </trkpt>
      <trkpt lat="38.1998640" lon="-3.5960930">
        <ele>471.0</ele>
        <time>2018-06-16T06:47:42Z</time>
      </trkpt>
      <trkpt lat="38.1999160" lon="-3.5960980">
        <ele>470.8</ele>
        <time>2018-06-16T06:47:43Z</time>
      </trkpt>
      <trkpt lat="38.1999710" lon="-3.5961040">
        <ele>470.8</ele>
        <time>2018-06-16T06:47:44Z</time>
      </trkpt>
      <trkpt lat="38.2000250" lon="-3.5961100">
        <ele>470.6</ele>
        <time>2018-06-16T06:47:45Z</time>
      </trkpt>
      <trkpt lat="38.2000790" lon="-3.5961170">
        <ele>470.4</ele>
        <time>2018-06-16T06:47:46Z</time>
      </trkpt>
      <trkpt lat="38.2001350" lon="-3.5961240">
        <ele>470.2</ele>
        <time>2018-06-16T06:47:47Z</time>
      </trkpt>
      <trkpt lat="38.2001930" lon="-3.5961330">
        <ele>470.0</ele>
        <time>2018-06-16T06:47:48Z</time>
      </trkpt>
      <trkpt lat="38.2002520" lon="-3.5961450">
        <ele>469.8</ele>
        <time>2018-06-16T06:47:49Z</time>
      </trkpt>
      <trkpt lat="38.2003140" lon="-3.5961550">
        <ele>469.6</ele>
        <time>2018-06-16T06:47:50Z</time>
      </trkpt>
      <trkpt lat="38.2003780" lon="-3.5961660">
        <ele>469.4</ele>
        <time>2018-06-16T06:47:51Z</time>
      </trkpt>
      <trkpt lat="38.2004430" lon="-3.5961760">
        <ele>469.2</ele>
        <time>2018-06-16T06:47:52Z</time>
      </trkpt>
      <trkpt lat="38.2005100" lon="-3.5961840">
        <ele>468.8</ele>
        <time>2018-06-16T06:47:53Z</time>
      </trkpt>
      <trkpt lat="38.2005770" lon="-3.5961890">
        <ele>468.6</ele>
        <time>2018-06-16T06:47:54Z</time>
      </trkpt>
      <trkpt lat="38.2006450" lon="-3.5961920">
        <ele>468.2</ele>
        <time>2018-06-16T06:47:55Z</time>
      </trkpt>
      <trkpt lat="38.2007160" lon="-3.5961900">
        <ele>468.0</ele>
        <time>2018-06-16T06:47:56Z</time>
      </trkpt>
      <trkpt lat="38.2007870" lon="-3.5961840">
        <ele>467.8</ele>
        <time>2018-06-16T06:47:57Z</time>
      </trkpt>
      <trkpt lat="38.2008590" lon="-3.5961750">
        <ele>467.2</ele>
        <time>2018-06-16T06:47:58Z</time>
      </trkpt>
      <trkpt lat="38.2009720" lon="-3.5961610">
        <ele>467.0</ele>
        <time>2018-06-16T06:47:59Z</time>
      </trkpt>
      <trkpt lat="38.2010090" lon="-3.5961560">
        <ele>466.6</ele>
        <time>2018-06-16T06:48:00Z</time>
      </trkpt>
      <trkpt lat="38.2010830" lon="-3.5961470">
        <ele>466.4</ele>
        <time>2018-06-16T06:48:01Z</time>
      </trkpt>
      <trkpt lat="38.2011580" lon="-3.5961360">
        <ele>466.2</ele>
        <time>2018-06-16T06:48:02Z</time>
      </trkpt>
      <trkpt lat="38.2012330" lon="-3.5961270">
        <ele>465.8</ele>
        <time>2018-06-16T06:48:03Z</time>
      </trkpt>
      <trkpt lat="38.2013080" lon="-3.5961170">
        <ele>465.6</ele>
        <time>2018-06-16T06:48:04Z</time>
      </trkpt>
      <trkpt lat="38.2013810" lon="-3.5961070">
        <ele>465.6</ele>
        <time>2018-06-16T06:48:05Z</time>
      </trkpt>
      <trkpt lat="38.2014530" lon="-3.5960970">
        <ele>465.4</ele>
        <time>2018-06-16T06:48:06Z</time>
      </trkpt>
      <trkpt lat="38.2015250" lon="-3.5960850">
        <ele>465.4</ele>
        <time>2018-06-16T06:48:07Z</time>
      </trkpt>
      <trkpt lat="38.2015970" lon="-3.5960700">
        <ele>465.0</ele>
        <time>2018-06-16T06:48:08Z</time>
      </trkpt>
      <trkpt lat="38.2016670" lon="-3.5960480">
        <ele>464.8</ele>
        <time>2018-06-16T06:48:09Z</time>
      </trkpt>
      <trkpt lat="38.2017380" lon="-3.5960190">
        <ele>464.4</ele>
        <time>2018-06-16T06:48:10Z</time>
      </trkpt>
      <trkpt lat="38.2018080" lon="-3.5959840">
        <ele>464.0</ele>
        <time>2018-06-16T06:48:11Z</time>
      </trkpt>
      <trkpt lat="38.2018760" lon="-3.5959440">
        <ele>464.0</ele>
        <time>2018-06-16T06:48:12Z</time>
      </trkpt>
      <trkpt lat="38.2019420" lon="-3.5958970">
        <ele>463.8</ele>
        <time>2018-06-16T06:48:13Z</time>
      </trkpt>
      <trkpt lat="38.2020050" lon="-3.5958460">
        <ele>463.6</ele>
        <time>2018-06-16T06:48:14Z</time>
      </trkpt>
      <trkpt lat="38.2020670" lon="-3.5957920">
        <ele>463.2</ele>
        <time>2018-06-16T06:48:15Z</time>
      </trkpt>
      <trkpt lat="38.2021290" lon="-3.5957370">
        <ele>463.0</ele>
        <time>2018-06-16T06:48:16Z</time>
      </trkpt>
      <trkpt lat="38.2021900" lon="-3.5956790">
        <ele>462.6</ele>
        <time>2018-06-16T06:48:17Z</time>
      </trkpt>
      <trkpt lat="38.2022530" lon="-3.5956220">
        <ele>462.4</ele>
        <time>2018-06-16T06:48:18Z</time>
      </trkpt>
      <trkpt lat="38.2023160" lon="-3.5955660">
        <ele>462.2</ele>
        <time>2018-06-16T06:48:19Z</time>
      </trkpt>
      <trkpt lat="38.2023800" lon="-3.5955120">
        <ele>462.0</ele>
        <time>2018-06-16T06:48:20Z</time>
      </trkpt>
      <trkpt lat="38.2024440" lon="-3.5954600">
        <ele>462.0</ele>
        <time>2018-06-16T06:48:21Z</time>
      </trkpt>
      <trkpt lat="38.2025070" lon="-3.5954090">
        <ele>462.0</ele>
        <time>2018-06-16T06:48:22Z</time>
      </trkpt>
      <trkpt lat="38.2025660" lon="-3.5953600">
        <ele>461.8</ele>
        <time>2018-06-16T06:48:23Z</time>
      </trkpt>
      <trkpt lat="38.2026290" lon="-3.5953180">
        <ele>461.8</ele>
        <time>2018-06-16T06:48:24Z</time>
      </trkpt>
      <trkpt lat="38.2026920" lon="-3.5952800">
        <ele>461.6</ele>
        <time>2018-06-16T06:48:25Z</time>
      </trkpt>
      <trkpt lat="38.2027500" lon="-3.5952420">
        <ele>461.8</ele>
        <time>2018-06-16T06:48:26Z</time>
      </trkpt>
      <trkpt lat="38.2028100" lon="-3.5952060">
        <ele>461.8</ele>
        <time>2018-06-16T06:48:27Z</time>
      </trkpt>
      <trkpt lat="38.2028700" lon="-3.5951710">
        <ele>461.6</ele>
        <time>2018-06-16T06:48:28Z</time>
      </trkpt>
      <trkpt lat="38.2029290" lon="-3.5951390">
        <ele>461.6</ele>
        <time>2018-06-16T06:48:29Z</time>
      </trkpt>
      <trkpt lat="38.2029880" lon="-3.5951070">
        <ele>461.8</ele>
        <time>2018-06-16T06:48:30Z</time>
      </trkpt>
      <trkpt lat="38.2030460" lon="-3.5950750">
        <ele>461.8</ele>
        <time>2018-06-16T06:48:31Z</time>
      </trkpt>
      <trkpt lat="38.2031020" lon="-3.5950420">
        <ele>461.8</ele>
        <time>2018-06-16T06:48:32Z</time>
      </trkpt>
      <trkpt lat="38.2031570" lon="-3.5950090">
        <ele>461.8</ele>
        <time>2018-06-16T06:48:33Z</time>
      </trkpt>
      <trkpt lat="38.2032130" lon="-3.5949760">
        <ele>462.0</ele>
        <time>2018-06-16T06:48:34Z</time>
      </trkpt>
      <trkpt lat="38.2032660" lon="-3.5949410">
        <ele>462.0</ele>
        <time>2018-06-16T06:48:35Z</time>
      </trkpt>
      <trkpt lat="38.2033210" lon="-3.5949080">
        <ele>462.2</ele>
        <time>2018-06-16T06:48:36Z</time>
      </trkpt>
      <trkpt lat="38.2033710" lon="-3.5948760">
        <ele>462.2</ele>
        <time>2018-06-16T06:48:37Z</time>
      </trkpt>
      <trkpt lat="38.2034220" lon="-3.5948420">
        <ele>462.4</ele>
        <time>2018-06-16T06:48:38Z</time>
      </trkpt>
      <trkpt lat="38.2034730" lon="-3.5948070">
        <ele>462.6</ele>
        <time>2018-06-16T06:48:39Z</time>
      </trkpt>
      <trkpt lat="38.2035230" lon="-3.5947740">
        <ele>463.0</ele>
        <time>2018-06-16T06:48:40Z</time>
      </trkpt>
      <trkpt lat="38.2035720" lon="-3.5947410">
        <ele>463.2</ele>
        <time>2018-06-16T06:48:41Z</time>
      </trkpt>
      <trkpt lat="38.2036220" lon="-3.5947090">
        <ele>463.2</ele>
        <time>2018-06-16T06:48:42Z</time>
      </trkpt>
      <trkpt lat="38.2036730" lon="-3.5946790">
        <ele>463.2</ele>
        <time>2018-06-16T06:48:43Z</time>
      </trkpt>
      <trkpt lat="38.2037260" lon="-3.5946510">
        <ele>463.4</ele>
        <time>2018-06-16T06:48:44Z</time>
      </trkpt>
      <trkpt lat="38.2037790" lon="-3.5946220">
        <ele>463.4</ele>
        <time>2018-06-16T06:48:45Z</time>
      </trkpt>
      <trkpt lat="38.2038330" lon="-3.5945950">
        <ele>463.6</ele>
        <time>2018-06-16T06:48:46Z</time>
      </trkpt>
      <trkpt lat="38.2038850" lon="-3.5945740">
        <ele>463.8</ele>
        <time>2018-06-16T06:48:47Z</time>
      </trkpt>
      <trkpt lat="38.2039380" lon="-3.5945570">
        <ele>464.0</ele>
        <time>2018-06-16T06:48:48Z</time>
      </trkpt>
      <trkpt lat="38.2039880" lon="-3.5945440">
        <ele>464.0</ele>
        <time>2018-06-16T06:48:49Z</time>
      </trkpt>
      <trkpt lat="38.2040420" lon="-3.5945340">
        <ele>464.0</ele>
        <time>2018-06-16T06:48:50Z</time>
      </trkpt>
      <trkpt lat="38.2040940" lon="-3.5945260">
        <ele>464.2</ele>
        <time>2018-06-16T06:48:51Z</time>
      </trkpt>
      <trkpt lat="38.2041470" lon="-3.5945150">
        <ele>464.2</ele>
        <time>2018-06-16T06:48:52Z</time>
      </trkpt>
      <trkpt lat="38.2042000" lon="-3.5945040">
        <ele>464.4</ele>
        <time>2018-06-16T06:48:53Z</time>
      </trkpt>
      <trkpt lat="38.2042550" lon="-3.5944920">
        <ele>464.4</ele>
        <time>2018-06-16T06:48:54Z</time>
      </trkpt>
      <trkpt lat="38.2043080" lon="-3.5944810">
        <ele>464.4</ele>
        <time>2018-06-16T06:48:55Z</time>
      </trkpt>
      <trkpt lat="38.2043600" lon="-3.5944680">
        <ele>464.6</ele>
        <time>2018-06-16T06:48:56Z</time>
      </trkpt>
      <trkpt lat="38.2044100" lon="-3.5944580">
        <ele>464.6</ele>
        <time>2018-06-16T06:48:57Z</time>
      </trkpt>
      <trkpt lat="38.2044620" lon="-3.5944490">
        <ele>464.4</ele>
        <time>2018-06-16T06:48:58Z</time>
      </trkpt>
      <trkpt lat="38.2045160" lon="-3.5944430">
        <ele>464.4</ele>
        <time>2018-06-16T06:48:59Z</time>
      </trkpt>
      <trkpt lat="38.2045700" lon="-3.5944390">
        <ele>464.2</ele>
        <time>2018-06-16T06:49:00Z</time>
      </trkpt>
      <trkpt lat="38.2046250" lon="-3.5944370">
        <ele>464.0</ele>
        <time>2018-06-16T06:49:01Z</time>
      </trkpt>
      <trkpt lat="38.2046790" lon="-3.5944320">
        <ele>464.0</ele>
        <time>2018-06-16T06:49:02Z</time>
      </trkpt>
      <trkpt lat="38.2047340" lon="-3.5944280">
        <ele>463.8</ele>
        <time>2018-06-16T06:49:03Z</time>
      </trkpt>
      <trkpt lat="38.2047920" lon="-3.5944240">
        <ele>463.8</ele>
        <time>2018-06-16T06:49:04Z</time>
      </trkpt>
      <trkpt lat="38.2048480" lon="-3.5944200">
        <ele>463.6</ele>
        <time>2018-06-16T06:49:05Z</time>
      </trkpt>
      <trkpt lat="38.2049040" lon="-3.5944170">
        <ele>463.4</ele>
        <time>2018-06-16T06:49:06Z</time>
      </trkpt>
      <trkpt lat="38.2049610" lon="-3.5944130">
        <ele>463.4</ele>
        <time>2018-06-16T06:49:07Z</time>
      </trkpt>
      <trkpt lat="38.2050190" lon="-3.5944130">
        <ele>463.4</ele>
        <time>2018-06-16T06:49:08Z</time>
      </trkpt>
      <trkpt lat="38.2050770" lon="-3.5944120">
        <ele>463.2</ele>
        <time>2018-06-16T06:49:09Z</time>
      </trkpt>
      <trkpt lat="38.2051340" lon="-3.5944070">
        <ele>463.0</ele>
        <time>2018-06-16T06:49:10Z</time>
      </trkpt>
      <trkpt lat="38.2051930" lon="-3.5944050">
        <ele>463.0</ele>
        <time>2018-06-16T06:49:11Z</time>
      </trkpt>
      <trkpt lat="38.2052540" lon="-3.5944040">
        <ele>462.8</ele>
        <time>2018-06-16T06:49:12Z</time>
      </trkpt>
      <trkpt lat="38.2053140" lon="-3.5944040">
        <ele>462.8</ele>
        <time>2018-06-16T06:49:13Z</time>
      </trkpt>
      <trkpt lat="38.2053730" lon="-3.5944040">
        <ele>462.8</ele>
        <time>2018-06-16T06:49:14Z</time>
      </trkpt>
      <trkpt lat="38.2054310" lon="-3.5944040">
        <ele>462.8</ele>
        <time>2018-06-16T06:49:15Z</time>
      </trkpt>
      <trkpt lat="38.2054890" lon="-3.5944050">
        <ele>462.6</ele>
        <time>2018-06-16T06:49:16Z</time>
      </trkpt>
      <trkpt lat="38.2055460" lon="-3.5944110">
        <ele>462.6</ele>
        <time>2018-06-16T06:49:17Z</time>
      </trkpt>
      <trkpt lat="38.2056030" lon="-3.5944210">
        <ele>462.2</ele>
        <time>2018-06-16T06:49:18Z</time>
      </trkpt>
      <trkpt lat="38.2056600" lon="-3.5944350">
        <ele>462.2</ele>
        <time>2018-06-16T06:49:19Z</time>
      </trkpt>
      <trkpt lat="38.2057180" lon="-3.5944480">
        <ele>462.2</ele>
        <time>2018-06-16T06:49:20Z</time>
      </trkpt>
      <trkpt lat="38.2057770" lon="-3.5944610">
        <ele>461.8</ele>
        <time>2018-06-16T06:49:21Z</time>
      </trkpt>
      <trkpt lat="38.2058370" lon="-3.5944750">
        <ele>461.6</ele>
        <time>2018-06-16T06:49:22Z</time>
      </trkpt>
      <trkpt lat="38.2058980" lon="-3.5944910">
        <ele>461.4</ele>
        <time>2018-06-16T06:49:23Z</time>
      </trkpt>
      <trkpt lat="38.2059580" lon="-3.5945080">
        <ele>461.2</ele>
        <time>2018-06-16T06:49:24Z</time>
      </trkpt>
      <trkpt lat="38.2060190" lon="-3.5945270">
        <ele>461.0</ele>
        <time>2018-06-16T06:49:25Z</time>
      </trkpt>
      <trkpt lat="38.2060800" lon="-3.5945450">
        <ele>461.0</ele>
        <time>2018-06-16T06:49:26Z</time>
      </trkpt>
      <trkpt lat="38.2061420" lon="-3.5945610">
        <ele>460.8</ele>
        <time>2018-06-16T06:49:27Z</time>
      </trkpt>
      <trkpt lat="38.2062040" lon="-3.5945750">
        <ele>460.6</ele>
        <time>2018-06-16T06:49:28Z</time>
      </trkpt>
      <trkpt lat="38.2062670" lon="-3.5945900">
        <ele>460.4</ele>
        <time>2018-06-16T06:49:29Z</time>
      </trkpt>
      <trkpt lat="38.2063300" lon="-3.5946050">
        <ele>460.2</ele>
        <time>2018-06-16T06:49:30Z</time>
      </trkpt>
      <trkpt lat="38.2063950" lon="-3.5946190">
        <ele>460.0</ele>
        <time>2018-06-16T06:49:31Z</time>
      </trkpt>
      <trkpt lat="38.2064600" lon="-3.5946300">
        <ele>460.0</ele>
        <time>2018-06-16T06:49:32Z</time>
      </trkpt>
      <trkpt lat="38.2065260" lon="-3.5946410">
        <ele>459.6</ele>
        <time>2018-06-16T06:49:33Z</time>
      </trkpt>
      <trkpt lat="38.2065910" lon="-3.5946480">
        <ele>459.4</ele>
        <time>2018-06-16T06:49:34Z</time>
      </trkpt>
      <trkpt lat="38.2066560" lon="-3.5946530">
        <ele>459.4</ele>
        <time>2018-06-16T06:49:35Z</time>
      </trkpt>
      <trkpt lat="38.2067220" lon="-3.5946580">
        <ele>459.2</ele>
        <time>2018-06-16T06:49:36Z</time>
      </trkpt>
      <trkpt lat="38.2067890" lon="-3.5946630">
        <ele>459.0</ele>
        <time>2018-06-16T06:49:37Z</time>
      </trkpt>
      <trkpt lat="38.2068540" lon="-3.5946660">
        <ele>458.8</ele>
        <time>2018-06-16T06:49:38Z</time>
      </trkpt>
      <trkpt lat="38.2069190" lon="-3.5946690">
        <ele>458.8</ele>
        <time>2018-06-16T06:49:39Z</time>
      </trkpt>
      <trkpt lat="38.2069830" lon="-3.5946710">
        <ele>458.6</ele>
        <time>2018-06-16T06:49:40Z</time>
      </trkpt>
      <trkpt lat="38.2070460" lon="-3.5946710">
        <ele>458.6</ele>
        <time>2018-06-16T06:49:41Z</time>
      </trkpt>
      <trkpt lat="38.2071070" lon="-3.5946700">
        <ele>458.6</ele>
        <time>2018-06-16T06:49:42Z</time>
      </trkpt>
      <trkpt lat="38.2071680" lon="-3.5946660">
        <ele>458.6</ele>
        <time>2018-06-16T06:49:43Z</time>
      </trkpt>
      <trkpt lat="38.2072290" lon="-3.5946650">
        <ele>458.4</ele>
        <time>2018-06-16T06:49:44Z</time>
      </trkpt>
      <trkpt lat="38.2072900" lon="-3.5946650">
        <ele>458.4</ele>
        <time>2018-06-16T06:49:45Z</time>
      </trkpt>
      <trkpt lat="38.2073520" lon="-3.5946650">
        <ele>458.6</ele>
        <time>2018-06-16T06:49:46Z</time>
      </trkpt>
      <trkpt lat="38.2074140" lon="-3.5946650">
        <ele>458.4</ele>
        <time>2018-06-16T06:49:47Z</time>
      </trkpt>
      <trkpt lat="38.2074770" lon="-3.5946660">
        <ele>458.4</ele>
        <time>2018-06-16T06:49:48Z</time>
      </trkpt>
      <trkpt lat="38.2075390" lon="-3.5946650">
        <ele>458.4</ele>
        <time>2018-06-16T06:49:49Z</time>
      </trkpt>
      <trkpt lat="38.2076020" lon="-3.5946670">
        <ele>458.4</ele>
        <time>2018-06-16T06:49:50Z</time>
      </trkpt>
      <trkpt lat="38.2076620" lon="-3.5946670">
        <ele>458.2</ele>
        <time>2018-06-16T06:49:51Z</time>
      </trkpt>
      <trkpt lat="38.2077230" lon="-3.5946640">
        <ele>458.2</ele>
        <time>2018-06-16T06:49:52Z</time>
      </trkpt>
      <trkpt lat="38.2077860" lon="-3.5946650">
        <ele>458.2</ele>
        <time>2018-06-16T06:49:53Z</time>
      </trkpt>
      <trkpt lat="38.2078490" lon="-3.5946670">
        <ele>458.2</ele>
        <time>2018-06-16T06:49:54Z</time>
      </trkpt>
      <trkpt lat="38.2079120" lon="-3.5946690">
        <ele>458.0</ele>
        <time>2018-06-16T06:49:55Z</time>
      </trkpt>
      <trkpt lat="38.2079740" lon="-3.5946680">
        <ele>458.0</ele>
        <time>2018-06-16T06:49:56Z</time>
      </trkpt>
      <trkpt lat="38.2080370" lon="-3.5946690">
        <ele>458.0</ele>
        <time>2018-06-16T06:49:57Z</time>
      </trkpt>
      <trkpt lat="38.2081010" lon="-3.5946670">
        <ele>458.0</ele>
        <time>2018-06-16T06:49:58Z</time>
      </trkpt>
      <trkpt lat="38.2081640" lon="-3.5946640">
        <ele>458.0</ele>
        <time>2018-06-16T06:49:59Z</time>
      </trkpt>
      <trkpt lat="38.2082280" lon="-3.5946630">
        <ele>458.0</ele>
        <time>2018-06-16T06:50:00Z</time>
      </trkpt>
      <trkpt lat="38.2082910" lon="-3.5946620">
        <ele>458.0</ele>
        <time>2018-06-16T06:50:01Z</time>
      </trkpt>
      <trkpt lat="38.2083540" lon="-3.5946580">
        <ele>458.0</ele>
        <time>2018-06-16T06:50:02Z</time>
      </trkpt>
      <trkpt lat="38.2084170" lon="-3.5946520">
        <ele>458.0</ele>
        <time>2018-06-16T06:50:03Z</time>
      </trkpt>
      <trkpt lat="38.2084800" lon="-3.5946460">
        <ele>457.8</ele>
        <time>2018-06-16T06:50:04Z</time>
      </trkpt>
      <trkpt lat="38.2085420" lon="-3.5946450">
        <ele>457.8</ele>
        <time>2018-06-16T06:50:05Z</time>
      </trkpt>
      <trkpt lat="38.2086040" lon="-3.5946450">
        <ele>457.8</ele>
        <time>2018-06-16T06:50:06Z</time>
      </trkpt>
      <trkpt lat="38.2086660" lon="-3.5946430">
        <ele>457.8</ele>
        <time>2018-06-16T06:50:07Z</time>
      </trkpt>
      <trkpt lat="38.2087280" lon="-3.5946400">
        <ele>457.8</ele>
        <time>2018-06-16T06:50:08Z</time>
      </trkpt>
      <trkpt lat="38.2087880" lon="-3.5946340">
        <ele>457.8</ele>
        <time>2018-06-16T06:50:09Z</time>
      </trkpt>
      <trkpt lat="38.2088450" lon="-3.5946270">
        <ele>458.0</ele>
        <time>2018-06-16T06:50:10Z</time>
      </trkpt>
      <trkpt lat="38.2089020" lon="-3.5946200">
        <ele>457.8</ele>
        <time>2018-06-16T06:50:11Z</time>
      </trkpt>
      <trkpt lat="38.2089560" lon="-3.5946100">
        <ele>457.8</ele>
        <time>2018-06-16T06:50:12Z</time>
      </trkpt>
      <trkpt lat="38.2090080" lon="-3.5945960">
        <ele>458.0</ele>
        <time>2018-06-16T06:50:13Z</time>
      </trkpt>
      <trkpt lat="38.2090560" lon="-3.5945790">
        <ele>458.0</ele>
        <time>2018-06-16T06:50:14Z</time>
      </trkpt>
      <trkpt lat="38.2091040" lon="-3.5945590">
        <ele>458.0</ele>
        <time>2018-06-16T06:50:15Z</time>
      </trkpt>
      <trkpt lat="38.2091500" lon="-3.5945380">
        <ele>458.0</ele>
        <time>2018-06-16T06:50:16Z</time>
      </trkpt>
      <trkpt lat="38.2091970" lon="-3.5945180">
        <ele>457.8</ele>
        <time>2018-06-16T06:50:17Z</time>
      </trkpt>
      <trkpt lat="38.2092440" lon="-3.5944980">
        <ele>457.8</ele>
        <time>2018-06-16T06:50:18Z</time>
      </trkpt>
      <trkpt lat="38.2092900" lon="-3.5944770">
        <ele>457.6</ele>
        <time>2018-06-16T06:50:19Z</time>
      </trkpt>
      <trkpt lat="38.2093370" lon="-3.5944540">
        <ele>457.4</ele>
        <time>2018-06-16T06:50:20Z</time>
      </trkpt>
      <trkpt lat="38.2093840" lon="-3.5944320">
        <ele>457.4</ele>
        <time>2018-06-16T06:50:21Z</time>
      </trkpt>
      <trkpt lat="38.2094310" lon="-3.5944100">
        <ele>457.4</ele>
        <time>2018-06-16T06:50:22Z</time>
      </trkpt>
      <trkpt lat="38.2094770" lon="-3.5943860">
        <ele>457.2</ele>
        <time>2018-06-16T06:50:23Z</time>
      </trkpt>
      <trkpt lat="38.2095490" lon="-3.5943520">
        <ele>457.2</ele>
        <time>2018-06-16T06:50:24Z</time>
      </trkpt>
      <trkpt lat="38.2095730" lon="-3.5943420">
        <ele>457.0</ele>
        <time>2018-06-16T06:50:25Z</time>
      </trkpt>
      <trkpt lat="38.2096220" lon="-3.5943220">
        <ele>456.8</ele>
        <time>2018-06-16T06:50:26Z</time>
      </trkpt>
      <trkpt lat="38.2096700" lon="-3.5943020">
        <ele>456.8</ele>
        <time>2018-06-16T06:50:27Z</time>
      </trkpt>
      <trkpt lat="38.2097180" lon="-3.5942840">
        <ele>456.8</ele>
        <time>2018-06-16T06:50:28Z</time>
      </trkpt>
      <trkpt lat="38.2097670" lon="-3.5942680">
        <ele>457.0</ele>
        <time>2018-06-16T06:50:29Z</time>
      </trkpt>
      <trkpt lat="38.2098150" lon="-3.5942550">
        <ele>456.8</ele>
        <time>2018-06-16T06:50:30Z</time>
      </trkpt>
      <trkpt lat="38.2098640" lon="-3.5942430">
        <ele>456.6</ele>
        <time>2018-06-16T06:50:31Z</time>
      </trkpt>
      <trkpt lat="38.2099430" lon="-3.5942280">
        <ele>456.6</ele>
        <time>2018-06-16T06:50:32Z</time>
      </trkpt>
      <trkpt lat="38.2099690" lon="-3.5942240">
        <ele>456.4</ele>
        <time>2018-06-16T06:50:33Z</time>
      </trkpt>
      <trkpt lat="38.2100210" lon="-3.5942150">
        <ele>456.4</ele>
        <time>2018-06-16T06:50:34Z</time>
      </trkpt>
      <trkpt lat="38.2100760" lon="-3.5942070">
        <ele>456.4</ele>
        <time>2018-06-16T06:50:35Z</time>
      </trkpt>
      <trkpt lat="38.2101290" lon="-3.5941950">
        <ele>456.2</ele>
        <time>2018-06-16T06:50:36Z</time>
      </trkpt>
      <trkpt lat="38.2101820" lon="-3.5941820">
        <ele>456.2</ele>
        <time>2018-06-16T06:50:37Z</time>
      </trkpt>
      <trkpt lat="38.2102340" lon="-3.5941750">
        <ele>456.2</ele>
        <time>2018-06-16T06:50:38Z</time>
      </trkpt>
      <trkpt lat="38.2102860" lon="-3.5941690">
        <ele>456.2</ele>
        <time>2018-06-16T06:50:39Z</time>
      </trkpt>
      <trkpt lat="38.2103340" lon="-3.5941610">
        <ele>456.2</ele>
        <time>2018-06-16T06:50:40Z</time>
      </trkpt>
      <trkpt lat="38.2103850" lon="-3.5941560">
        <ele>456.2</ele>
        <time>2018-06-16T06:50:41Z</time>
      </trkpt>
      <trkpt lat="38.2104310" lon="-3.5941520">
        <ele>456.2</ele>
        <time>2018-06-16T06:50:42Z</time>
      </trkpt>
      <trkpt lat="38.2104780" lon="-3.5941480">
        <ele>456.0</ele>
        <time>2018-06-16T06:50:43Z</time>
      </trkpt>
      <trkpt lat="38.2105270" lon="-3.5941430">
        <ele>456.0</ele>
        <time>2018-06-16T06:50:44Z</time>
      </trkpt>
      <trkpt lat="38.2105740" lon="-3.5941340">
        <ele>456.0</ele>
        <time>2018-06-16T06:50:45Z</time>
      </trkpt>
      <trkpt lat="38.2106210" lon="-3.5941240">
        <ele>456.0</ele>
        <time>2018-06-16T06:50:46Z</time>
      </trkpt>
      <trkpt lat="38.2106680" lon="-3.5941150">
        <ele>456.0</ele>
        <time>2018-06-16T06:50:47Z</time>
      </trkpt>
      <trkpt lat="38.2107170" lon="-3.5941110">
        <ele>456.0</ele>
        <time>2018-06-16T06:50:48Z</time>
      </trkpt>
      <trkpt lat="38.2107910" lon="-3.5941060">
        <ele>456.0</ele>
        <time>2018-06-16T06:50:49Z</time>
      </trkpt>
      <trkpt lat="38.2108160" lon="-3.5941030">
        <ele>456.0</ele>
        <time>2018-06-16T06:50:50Z</time>
      </trkpt>
      <trkpt lat="38.2108660" lon="-3.5940920">
        <ele>455.8</ele>
        <time>2018-06-16T06:50:51Z</time>
      </trkpt>
      <trkpt lat="38.2109150" lon="-3.5940800">
        <ele>455.8</ele>
        <time>2018-06-16T06:50:52Z</time>
      </trkpt>
      <trkpt lat="38.2109630" lon="-3.5940660">
        <ele>455.8</ele>
        <time>2018-06-16T06:50:53Z</time>
      </trkpt>
      <trkpt lat="38.2110120" lon="-3.5940530">
        <ele>455.8</ele>
        <time>2018-06-16T06:50:54Z</time>
      </trkpt>
      <trkpt lat="38.2110610" lon="-3.5940430">
        <ele>456.0</ele>
        <time>2018-06-16T06:50:55Z</time>
      </trkpt>
      <trkpt lat="38.2111110" lon="-3.5940320">
        <ele>455.8</ele>
        <time>2018-06-16T06:50:56Z</time>
      </trkpt>
      <trkpt lat="38.2111620" lon="-3.5940220">
        <ele>455.8</ele>
        <time>2018-06-16T06:50:57Z</time>
      </trkpt>
      <trkpt lat="38.2112120" lon="-3.5940090">
        <ele>455.8</ele>
        <time>2018-06-16T06:50:58Z</time>
      </trkpt>
      <trkpt lat="38.2112610" lon="-3.5939900">
        <ele>455.6</ele>
        <time>2018-06-16T06:50:59Z</time>
      </trkpt>
      <trkpt lat="38.2113110" lon="-3.5939650">
        <ele>455.8</ele>
        <time>2018-06-16T06:51:00Z</time>
      </trkpt>
      <trkpt lat="38.2113600" lon="-3.5939450">
        <ele>455.6</ele>
        <time>2018-06-16T06:51:01Z</time>
      </trkpt>
      <trkpt lat="38.2114120" lon="-3.5939320">
        <ele>455.6</ele>
        <time>2018-06-16T06:51:02Z</time>
      </trkpt>
      <trkpt lat="38.2114640" lon="-3.5939170">
        <ele>455.6</ele>
        <time>2018-06-16T06:51:03Z</time>
      </trkpt>
      <trkpt lat="38.2115130" lon="-3.5938980">
        <ele>455.4</ele>
        <time>2018-06-16T06:51:04Z</time>
      </trkpt>
      <trkpt lat="38.2115620" lon="-3.5938800">
        <ele>455.4</ele>
        <time>2018-06-16T06:51:05Z</time>
      </trkpt>
      <trkpt lat="38.2116100" lon="-3.5938650">
        <ele>455.4</ele>
        <time>2018-06-16T06:51:06Z</time>
      </trkpt>
      <trkpt lat="38.2116560" lon="-3.5938470">
        <ele>455.4</ele>
        <time>2018-06-16T06:51:07Z</time>
      </trkpt>
      <trkpt lat="38.2117030" lon="-3.5938270">
        <ele>455.4</ele>
        <time>2018-06-16T06:51:08Z</time>
      </trkpt>
      <trkpt lat="38.2117550" lon="-3.5938060">
        <ele>455.4</ele>
        <time>2018-06-16T06:51:09Z</time>
      </trkpt>
      <trkpt lat="38.2118030" lon="-3.5937860">
        <ele>455.4</ele>
        <time>2018-06-16T06:51:10Z</time>
      </trkpt>
      <trkpt lat="38.2118520" lon="-3.5937700">
        <ele>455.4</ele>
        <time>2018-06-16T06:51:11Z</time>
      </trkpt>
      <trkpt lat="38.2119000" lon="-3.5937520">
        <ele>455.6</ele>
        <time>2018-06-16T06:51:12Z</time>
      </trkpt>
      <trkpt lat="38.2119490" lon="-3.5937340">
        <ele>455.6</ele>
        <time>2018-06-16T06:51:13Z</time>
      </trkpt>
      <trkpt lat="38.2119970" lon="-3.5937170">
        <ele>455.8</ele>
        <time>2018-06-16T06:51:14Z</time>
      </trkpt>
      <trkpt lat="38.2120440" lon="-3.5937010">
        <ele>455.8</ele>
        <time>2018-06-16T06:51:15Z</time>
      </trkpt>
      <trkpt lat="38.2120910" lon="-3.5936830">
        <ele>456.0</ele>
        <time>2018-06-16T06:51:16Z</time>
      </trkpt>
      <trkpt lat="38.2121380" lon="-3.5936670">
        <ele>456.0</ele>
        <time>2018-06-16T06:51:17Z</time>
      </trkpt>
      <trkpt lat="38.2121850" lon="-3.5936490">
        <ele>456.2</ele>
        <time>2018-06-16T06:51:18Z</time>
      </trkpt>
      <trkpt lat="38.2122330" lon="-3.5936330">
        <ele>456.2</ele>
        <time>2018-06-16T06:51:19Z</time>
      </trkpt>
      <trkpt lat="38.2122780" lon="-3.5936180">
        <ele>456.2</ele>
        <time>2018-06-16T06:51:20Z</time>
      </trkpt>
      <trkpt lat="38.2123210" lon="-3.5936030">
        <ele>456.4</ele>
        <time>2018-06-16T06:51:21Z</time>
      </trkpt>
      <trkpt lat="38.2123620" lon="-3.5935880">
        <ele>456.4</ele>
        <time>2018-06-16T06:51:22Z</time>
      </trkpt>
      <trkpt lat="38.2124030" lon="-3.5935730">
        <ele>456.2</ele>
        <time>2018-06-16T06:51:23Z</time>
      </trkpt>
      <trkpt lat="38.2124450" lon="-3.5935590">
        <ele>456.2</ele>
        <time>2018-06-16T06:51:24Z</time>
      </trkpt>
      <trkpt lat="38.2125070" lon="-3.5935430">
        <ele>456.2</ele>
        <time>2018-06-16T06:51:25Z</time>
      </trkpt>
      <trkpt lat="38.2125260" lon="-3.5935370">
        <ele>456.2</ele>
        <time>2018-06-16T06:51:26Z</time>
      </trkpt>
      <trkpt lat="38.2125690" lon="-3.5935310">
        <ele>456.2</ele>
        <time>2018-06-16T06:51:27Z</time>
      </trkpt>
      <trkpt lat="38.2126150" lon="-3.5935300">
        <ele>456.2</ele>
        <time>2018-06-16T06:51:28Z</time>
      </trkpt>
      <trkpt lat="38.2126550" lon="-3.5935290">
        <ele>456.0</ele>
        <time>2018-06-16T06:51:29Z</time>
      </trkpt>
      <trkpt lat="38.2126970" lon="-3.5935320">
        <ele>456.2</ele>
        <time>2018-06-16T06:51:30Z</time>
      </trkpt>
      <trkpt lat="38.2127370" lon="-3.5935330">
        <ele>456.0</ele>
        <time>2018-06-16T06:51:31Z</time>
      </trkpt>
      <trkpt lat="38.2127780" lon="-3.5935410">
        <ele>456.0</ele>
        <time>2018-06-16T06:51:32Z</time>
      </trkpt>
      <trkpt lat="38.2128180" lon="-3.5935450">
        <ele>456.0</ele>
        <time>2018-06-16T06:51:33Z</time>
      </trkpt>
      <trkpt lat="38.2128600" lon="-3.5935440">
        <ele>456.0</ele>
        <time>2018-06-16T06:51:34Z</time>
      </trkpt>
      <trkpt lat="38.2129030" lon="-3.5935430">
        <ele>456.0</ele>
        <time>2018-06-16T06:51:35Z</time>
      </trkpt>
      <trkpt lat="38.2129460" lon="-3.5935410">
        <ele>456.0</ele>
        <time>2018-06-16T06:51:36Z</time>
      </trkpt>
      <trkpt lat="38.2129890" lon="-3.5935440">
        <ele>456.0</ele>
        <time>2018-06-16T06:51:37Z</time>
      </trkpt>
      <trkpt lat="38.2130330" lon="-3.5935490">
        <ele>456.2</ele>
        <time>2018-06-16T06:51:38Z</time>
      </trkpt>
      <trkpt lat="38.2130770" lon="-3.5935530">
        <ele>456.2</ele>
        <time>2018-06-16T06:51:39Z</time>
      </trkpt>
      <trkpt lat="38.2131210" lon="-3.5935570">
        <ele>456.2</ele>
        <time>2018-06-16T06:51:40Z</time>
      </trkpt>
      <trkpt lat="38.2131650" lon="-3.5935630">
        <ele>456.4</ele>
        <time>2018-06-16T06:51:41Z</time>
      </trkpt>
      <trkpt lat="38.2132090" lon="-3.5935740">
        <ele>456.4</ele>
        <time>2018-06-16T06:51:42Z</time>
      </trkpt>
      <trkpt lat="38.2132540" lon="-3.5935800">
        <ele>456.6</ele>
        <time>2018-06-16T06:51:43Z</time>
      </trkpt>
      <trkpt lat="38.2132990" lon="-3.5935860">
        <ele>456.8</ele>
        <time>2018-06-16T06:51:44Z</time>
      </trkpt>
      <trkpt lat="38.2133420" lon="-3.5935900">
        <ele>457.0</ele>
        <time>2018-06-16T06:51:45Z</time>
      </trkpt>
      <trkpt lat="38.2133840" lon="-3.5935950">
        <ele>457.2</ele>
        <time>2018-06-16T06:51:46Z</time>
      </trkpt>
      <trkpt lat="38.2134260" lon="-3.5936010">
        <ele>457.2</ele>
        <time>2018-06-16T06:51:47Z</time>
      </trkpt>
      <trkpt lat="38.2134670" lon="-3.5936070">
        <ele>457.4</ele>
        <time>2018-06-16T06:51:48Z</time>
      </trkpt>
      <trkpt lat="38.2135080" lon="-3.5936140">
        <ele>457.6</ele>
        <time>2018-06-16T06:51:49Z</time>
      </trkpt>
      <trkpt lat="38.2135500" lon="-3.5936200">
        <ele>457.6</ele>
        <time>2018-06-16T06:51:50Z</time>
      </trkpt>
      <trkpt lat="38.2135910" lon="-3.5936240">
        <ele>457.8</ele>
        <time>2018-06-16T06:51:51Z</time>
      </trkpt>
      <trkpt lat="38.2136320" lon="-3.5936260">
        <ele>457.8</ele>
        <time>2018-06-16T06:51:52Z</time>
      </trkpt>
      <trkpt lat="38.2136730" lon="-3.5936310">
        <ele>458.0</ele>
        <time>2018-06-16T06:51:53Z</time>
      </trkpt>
      <trkpt lat="38.2137150" lon="-3.5936350">
        <ele>458.0</ele>
        <time>2018-06-16T06:51:54Z</time>
      </trkpt>
      <trkpt lat="38.2137570" lon="-3.5936390">
        <ele>458.2</ele>
        <time>2018-06-16T06:51:55Z</time>
      </trkpt>
      <trkpt lat="38.2137990" lon="-3.5936440">
        <ele>458.2</ele>
        <time>2018-06-16T06:51:56Z</time>
      </trkpt>
      <trkpt lat="38.2138420" lon="-3.5936500">
        <ele>458.2</ele>
        <time>2018-06-16T06:51:57Z</time>
      </trkpt>
      <trkpt lat="38.2138850" lon="-3.5936540">
        <ele>458.2</ele>
        <time>2018-06-16T06:51:58Z</time>
      </trkpt>
      <trkpt lat="38.2139280" lon="-3.5936590">
        <ele>458.2</ele>
        <time>2018-06-16T06:51:59Z</time>
      </trkpt>
      <trkpt lat="38.2139720" lon="-3.5936630">
        <ele>458.2</ele>
        <time>2018-06-16T06:52:00Z</time>
      </trkpt>
      <trkpt lat="38.2140170" lon="-3.5936680">
        <ele>458.0</ele>
        <time>2018-06-16T06:52:01Z</time>
      </trkpt>
      <trkpt lat="38.2140610" lon="-3.5936720">
        <ele>458.4</ele>
        <time>2018-06-16T06:52:02Z</time>
      </trkpt>
      <trkpt lat="38.2141060" lon="-3.5936780">
        <ele>458.0</ele>
        <time>2018-06-16T06:52:03Z</time>
      </trkpt>
      <trkpt lat="38.2141520" lon="-3.5936850">
        <ele>458.0</ele>
        <time>2018-06-16T06:52:04Z</time>
      </trkpt>
      <trkpt lat="38.2141980" lon="-3.5936910">
        <ele>458.2</ele>
        <time>2018-06-16T06:52:05Z</time>
      </trkpt>
      <trkpt lat="38.2142420" lon="-3.5936990">
        <ele>458.0</ele>
        <time>2018-06-16T06:52:06Z</time>
      </trkpt>
      <trkpt lat="38.2142870" lon="-3.5937040">
        <ele>458.2</ele>
        <time>2018-06-16T06:52:07Z</time>
      </trkpt>
      <trkpt lat="38.2143310" lon="-3.5937110">
        <ele>458.2</ele>
        <time>2018-06-16T06:52:08Z</time>
      </trkpt>
      <trkpt lat="38.2143740" lon="-3.5937150">
        <ele>458.2</ele>
        <time>2018-06-16T06:52:09Z</time>
      </trkpt>
      <trkpt lat="38.2144170" lon="-3.5937180">
        <ele>458.2</ele>
        <time>2018-06-16T06:52:10Z</time>
      </trkpt>
      <trkpt lat="38.2144610" lon="-3.5937230">
        <ele>458.2</ele>
        <time>2018-06-16T06:52:11Z</time>
      </trkpt>
      <trkpt lat="38.2145050" lon="-3.5937280">
        <ele>458.2</ele>
        <time>2018-06-16T06:52:12Z</time>
      </trkpt>
      <trkpt lat="38.2145490" lon="-3.5937320">
        <ele>458.2</ele>
        <time>2018-06-16T06:52:13Z</time>
      </trkpt>
      <trkpt lat="38.2145940" lon="-3.5937370">
        <ele>458.2</ele>
        <time>2018-06-16T06:52:14Z</time>
      </trkpt>
      <trkpt lat="38.2146390" lon="-3.5937430">
        <ele>458.2</ele>
        <time>2018-06-16T06:52:15Z</time>
      </trkpt>
      <trkpt lat="38.2146850" lon="-3.5937510">
        <ele>458.0</ele>
        <time>2018-06-16T06:52:16Z</time>
      </trkpt>
      <trkpt lat="38.2147310" lon="-3.5937570">
        <ele>458.0</ele>
        <time>2018-06-16T06:52:17Z</time>
      </trkpt>
      <trkpt lat="38.2147770" lon="-3.5937620">
        <ele>457.8</ele>
        <time>2018-06-16T06:52:18Z</time>
      </trkpt>
      <trkpt lat="38.2148250" lon="-3.5937680">
        <ele>457.8</ele>
        <time>2018-06-16T06:52:19Z</time>
      </trkpt>
      <trkpt lat="38.2148720" lon="-3.5937730">
        <ele>457.8</ele>
        <time>2018-06-16T06:52:20Z</time>
      </trkpt>
      <trkpt lat="38.2149180" lon="-3.5937770">
        <ele>457.8</ele>
        <time>2018-06-16T06:52:21Z</time>
      </trkpt>
      <trkpt lat="38.2149650" lon="-3.5937820">
        <ele>457.6</ele>
        <time>2018-06-16T06:52:22Z</time>
      </trkpt>
      <trkpt lat="38.2150110" lon="-3.5937870">
        <ele>457.6</ele>
        <time>2018-06-16T06:52:23Z</time>
      </trkpt>
      <trkpt lat="38.2150570" lon="-3.5937930">
        <ele>457.4</ele>
        <time>2018-06-16T06:52:24Z</time>
      </trkpt>
      <trkpt lat="38.2151020" lon="-3.5937980">
        <ele>457.4</ele>
        <time>2018-06-16T06:52:25Z</time>
      </trkpt>
      <trkpt lat="38.2151470" lon="-3.5938030">
        <ele>457.4</ele>
        <time>2018-06-16T06:52:26Z</time>
      </trkpt>
      <trkpt lat="38.2151940" lon="-3.5938080">
        <ele>457.6</ele>
        <time>2018-06-16T06:52:27Z</time>
      </trkpt>
      <trkpt lat="38.2152410" lon="-3.5938130">
        <ele>457.6</ele>
        <time>2018-06-16T06:52:28Z</time>
      </trkpt>
      <trkpt lat="38.2152880" lon="-3.5938170">
        <ele>457.6</ele>
        <time>2018-06-16T06:52:29Z</time>
      </trkpt>
      <trkpt lat="38.2153350" lon="-3.5938200">
        <ele>457.4</ele>
        <time>2018-06-16T06:52:30Z</time>
      </trkpt>
      <trkpt lat="38.2153830" lon="-3.5938240">
        <ele>457.6</ele>
        <time>2018-06-16T06:52:31Z</time>
      </trkpt>
      <trkpt lat="38.2154300" lon="-3.5938300">
        <ele>457.4</ele>
        <time>2018-06-16T06:52:32Z</time>
      </trkpt>
      <trkpt lat="38.2154780" lon="-3.5938350">
        <ele>457.6</ele>
        <time>2018-06-16T06:52:33Z</time>
      </trkpt>
      <trkpt lat="38.2155260" lon="-3.5938410">
        <ele>457.6</ele>
        <time>2018-06-16T06:52:34Z</time>
      </trkpt>
      <trkpt lat="38.2155740" lon="-3.5938490">
        <ele>457.6</ele>
        <time>2018-06-16T06:52:35Z</time>
      </trkpt>
      <trkpt lat="38.2156220" lon="-3.5938560">
        <ele>457.6</ele>
        <time>2018-06-16T06:52:36Z</time>
      </trkpt>
      <trkpt lat="38.2156720" lon="-3.5938590">
        <ele>457.6</ele>
        <time>2018-06-16T06:52:37Z</time>
      </trkpt>
      <trkpt lat="38.2157220" lon="-3.5938620">
        <ele>457.6</ele>
        <time>2018-06-16T06:52:38Z</time>
      </trkpt>
      <trkpt lat="38.2157710" lon="-3.5938690">
        <ele>457.6</ele>
        <time>2018-06-16T06:52:39Z</time>
      </trkpt>
      <trkpt lat="38.2158210" lon="-3.5938770">
        <ele>457.6</ele>
        <time>2018-06-16T06:52:40Z</time>
      </trkpt>
      <trkpt lat="38.2158710" lon="-3.5938820">
        <ele>457.4</ele>
        <time>2018-06-16T06:52:41Z</time>
      </trkpt>
      <trkpt lat="38.2159220" lon="-3.5938860">
        <ele>457.4</ele>
        <time>2018-06-16T06:52:42Z</time>
      </trkpt>
      <trkpt lat="38.2159750" lon="-3.5938930">
        <ele>457.2</ele>
        <time>2018-06-16T06:52:43Z</time>
      </trkpt>
      <trkpt lat="38.2160300" lon="-3.5939000">
        <ele>457.0</ele>
        <time>2018-06-16T06:52:44Z</time>
      </trkpt>
      <trkpt lat="38.2160870" lon="-3.5939070">
        <ele>456.6</ele>
        <time>2018-06-16T06:52:45Z</time>
      </trkpt>
      <trkpt lat="38.2161450" lon="-3.5939160">
        <ele>456.4</ele>
        <time>2018-06-16T06:52:46Z</time>
      </trkpt>
      <trkpt lat="38.2162050" lon="-3.5939260">
        <ele>456.2</ele>
        <time>2018-06-16T06:52:47Z</time>
      </trkpt>
      <trkpt lat="38.2162660" lon="-3.5939350">
        <ele>455.8</ele>
        <time>2018-06-16T06:52:48Z</time>
      </trkpt>
      <trkpt lat="38.2163310" lon="-3.5939410">
        <ele>455.6</ele>
        <time>2018-06-16T06:52:49Z</time>
      </trkpt>
      <trkpt lat="38.2163940" lon="-3.5939390">
        <ele>455.4</ele>
        <time>2018-06-16T06:52:50Z</time>
      </trkpt>
      <trkpt lat="38.2164570" lon="-3.5939330">
        <ele>455.0</ele>
        <time>2018-06-16T06:52:51Z</time>
      </trkpt>
      <trkpt lat="38.2165230" lon="-3.5939230">
        <ele>454.8</ele>
        <time>2018-06-16T06:52:52Z</time>
      </trkpt>
      <trkpt lat="38.2165800" lon="-3.5938970">
        <ele>454.6</ele>
        <time>2018-06-16T06:52:53Z</time>
      </trkpt>
      <trkpt lat="38.2166410" lon="-3.5938670">
        <ele>454.4</ele>
        <time>2018-06-16T06:52:54Z</time>
      </trkpt>
      <trkpt lat="38.2167020" lon="-3.5938340">
        <ele>454.4</ele>
        <time>2018-06-16T06:52:55Z</time>
      </trkpt>
      <trkpt lat="38.2167600" lon="-3.5937980">
        <ele>454.4</ele>
        <time>2018-06-16T06:52:56Z</time>
      </trkpt>
      <trkpt lat="38.2168140" lon="-3.5937630">
        <ele>454.4</ele>
        <time>2018-06-16T06:52:57Z</time>
      </trkpt>
      <trkpt lat="38.2168640" lon="-3.5937260">
        <ele>454.4</ele>
        <time>2018-06-16T06:52:58Z</time>
      </trkpt>
      <trkpt lat="38.2169110" lon="-3.5936890">
        <ele>454.6</ele>
        <time>2018-06-16T06:52:59Z</time>
      </trkpt>
      <trkpt lat="38.2169560" lon="-3.5936540">
        <ele>454.8</ele>
        <time>2018-06-16T06:53:00Z</time>
      </trkpt>
      <trkpt lat="38.2170000" lon="-3.5936240">
        <ele>455.2</ele>
        <time>2018-06-16T06:53:01Z</time>
      </trkpt>
      <trkpt lat="38.2170420" lon="-3.5935940">
        <ele>455.4</ele>
        <time>2018-06-16T06:53:02Z</time>
      </trkpt>
      <trkpt lat="38.2170840" lon="-3.5935660">
        <ele>455.6</ele>
        <time>2018-06-16T06:53:03Z</time>
      </trkpt>
      <trkpt lat="38.2171230" lon="-3.5935390">
        <ele>455.8</ele>
        <time>2018-06-16T06:53:04Z</time>
      </trkpt>
      <trkpt lat="38.2171610" lon="-3.5935130">
        <ele>456.0</ele>
        <time>2018-06-16T06:53:05Z</time>
      </trkpt>
      <trkpt lat="38.2172010" lon="-3.5934890">
        <ele>456.2</ele>
        <time>2018-06-16T06:53:06Z</time>
      </trkpt>
      <trkpt lat="38.2172400" lon="-3.5934660">
        <ele>456.4</ele>
        <time>2018-06-16T06:53:07Z</time>
      </trkpt>
      <trkpt lat="38.2172760" lon="-3.5934440">
        <ele>456.6</ele>
        <time>2018-06-16T06:53:08Z</time>
      </trkpt>
      <trkpt lat="38.2173120" lon="-3.5934240">
        <ele>457.0</ele>
        <time>2018-06-16T06:53:09Z</time>
      </trkpt>
      <trkpt lat="38.2173480" lon="-3.5934090">
        <ele>457.2</ele>
        <time>2018-06-16T06:53:10Z</time>
      </trkpt>
      <trkpt lat="38.2173840" lon="-3.5933970">
        <ele>457.2</ele>
        <time>2018-06-16T06:53:11Z</time>
      </trkpt>
      <trkpt lat="38.2174180" lon="-3.5933860">
        <ele>457.2</ele>
        <time>2018-06-16T06:53:12Z</time>
      </trkpt>
      <trkpt lat="38.2174500" lon="-3.5933750">
        <ele>457.2</ele>
        <time>2018-06-16T06:53:13Z</time>
      </trkpt>
      <trkpt lat="38.2174890" lon="-3.5933670">
        <ele>457.0</ele>
        <time>2018-06-16T06:53:14Z</time>
      </trkpt>
      <trkpt lat="38.2175310" lon="-3.5933570">
        <ele>456.8</ele>
        <time>2018-06-16T06:53:15Z</time>
      </trkpt>
      <trkpt lat="38.2175760" lon="-3.5933440">
        <ele>456.6</ele>
        <time>2018-06-16T06:53:16Z</time>
      </trkpt>
      <trkpt lat="38.2176250" lon="-3.5933290">
        <ele>456.2</ele>
        <time>2018-06-16T06:53:17Z</time>
      </trkpt>
      <trkpt lat="38.2176790" lon="-3.5933150">
        <ele>455.8</ele>
        <time>2018-06-16T06:53:18Z</time>
      </trkpt>
      <trkpt lat="38.2177370" lon="-3.5933020">
        <ele>455.4</ele>
        <time>2018-06-16T06:53:19Z</time>
      </trkpt>
      <trkpt lat="38.2178010" lon="-3.5932920">
        <ele>455.0</ele>
        <time>2018-06-16T06:53:20Z</time>
      </trkpt>
      <trkpt lat="38.2178690" lon="-3.5932850">
        <ele>454.8</ele>
        <time>2018-06-16T06:53:21Z</time>
      </trkpt>
      <trkpt lat="38.2179410" lon="-3.5932770">
        <ele>454.4</ele>
        <time>2018-06-16T06:53:22Z</time>
      </trkpt>
      <trkpt lat="38.2180120" lon="-3.5932650">
        <ele>454.0</ele>
        <time>2018-06-16T06:53:23Z</time>
      </trkpt>
      <trkpt lat="38.2180830" lon="-3.5932520">
        <ele>453.8</ele>
        <time>2018-06-16T06:53:24Z</time>
      </trkpt>
      <trkpt lat="38.2181530" lon="-3.5932390">
        <ele>453.6</ele>
        <time>2018-06-16T06:53:25Z</time>
      </trkpt>
      <trkpt lat="38.2182240" lon="-3.5932250">
        <ele>453.4</ele>
        <time>2018-06-16T06:53:26Z</time>
      </trkpt>
      <trkpt lat="38.2182960" lon="-3.5932110">
        <ele>453.2</ele>
        <time>2018-06-16T06:53:27Z</time>
      </trkpt>
      <trkpt lat="38.2183690" lon="-3.5931990">
        <ele>452.8</ele>
        <time>2018-06-16T06:53:28Z</time>
      </trkpt>
      <trkpt lat="38.2184420" lon="-3.5931870">
        <ele>452.6</ele>
        <time>2018-06-16T06:53:29Z</time>
      </trkpt>
      <trkpt lat="38.2185150" lon="-3.5931730">
        <ele>452.4</ele>
        <time>2018-06-16T06:53:30Z</time>
      </trkpt>
      <trkpt lat="38.2185860" lon="-3.5931560">
        <ele>452.2</ele>
        <time>2018-06-16T06:53:31Z</time>
      </trkpt>
      <trkpt lat="38.2186570" lon="-3.5931390">
        <ele>452.2</ele>
        <time>2018-06-16T06:53:32Z</time>
      </trkpt>
      <trkpt lat="38.2187260" lon="-3.5931230">
        <ele>452.2</ele>
        <time>2018-06-16T06:53:33Z</time>
      </trkpt>
      <trkpt lat="38.2187950" lon="-3.5931120">
        <ele>452.2</ele>
        <time>2018-06-16T06:53:34Z</time>
      </trkpt>
      <trkpt lat="38.2188620" lon="-3.5931030">
        <ele>452.2</ele>
        <time>2018-06-16T06:53:35Z</time>
      </trkpt>
      <trkpt lat="38.2189260" lon="-3.5930900">
        <ele>452.4</ele>
        <time>2018-06-16T06:53:36Z</time>
      </trkpt>
      <trkpt lat="38.2189870" lon="-3.5930770">
        <ele>452.4</ele>
        <time>2018-06-16T06:53:37Z</time>
      </trkpt>
      <trkpt lat="38.2190450" lon="-3.5930670">
        <ele>452.6</ele>
        <time>2018-06-16T06:53:38Z</time>
      </trkpt>
      <trkpt lat="38.2190990" lon="-3.5930580">
        <ele>452.8</ele>
        <time>2018-06-16T06:53:39Z</time>
      </trkpt>
      <trkpt lat="38.2191500" lon="-3.5930460">
        <ele>453.2</ele>
        <time>2018-06-16T06:53:40Z</time>
      </trkpt>
      <trkpt lat="38.2191960" lon="-3.5930340">
        <ele>453.4</ele>
        <time>2018-06-16T06:53:41Z</time>
      </trkpt>
      <trkpt lat="38.2192390" lon="-3.5930240">
        <ele>453.6</ele>
        <time>2018-06-16T06:53:42Z</time>
      </trkpt>
      <trkpt lat="38.2192810" lon="-3.5930150">
        <ele>453.8</ele>
        <time>2018-06-16T06:53:43Z</time>
      </trkpt>
      <trkpt lat="38.2193220" lon="-3.5930070">
        <ele>454.0</ele>
        <time>2018-06-16T06:53:44Z</time>
      </trkpt>
      <trkpt lat="38.2193620" lon="-3.5929970">
        <ele>454.2</ele>
        <time>2018-06-16T06:53:45Z</time>
      </trkpt>
      <trkpt lat="38.2194000" lon="-3.5929890">
        <ele>454.4</ele>
        <time>2018-06-16T06:53:46Z</time>
      </trkpt>
      <trkpt lat="38.2194390" lon="-3.5929800">
        <ele>454.6</ele>
        <time>2018-06-16T06:53:47Z</time>
      </trkpt>
      <trkpt lat="38.2194780" lon="-3.5929700">
        <ele>454.8</ele>
        <time>2018-06-16T06:53:48Z</time>
      </trkpt>
      <trkpt lat="38.2195180" lon="-3.5929610">
        <ele>455.0</ele>
        <time>2018-06-16T06:53:49Z</time>
      </trkpt>
      <trkpt lat="38.2195570" lon="-3.5929490">
        <ele>455.2</ele>
        <time>2018-06-16T06:53:50Z</time>
      </trkpt>
      <trkpt lat="38.2195910" lon="-3.5929340">
        <ele>455.6</ele>
        <time>2018-06-16T06:53:51Z</time>
      </trkpt>
      <trkpt lat="38.2196240" lon="-3.5929180">
        <ele>455.6</ele>
        <time>2018-06-16T06:53:52Z</time>
      </trkpt>
      <trkpt lat="38.2196550" lon="-3.5928990">
        <ele>456.0</ele>
        <time>2018-06-16T06:53:53Z</time>
      </trkpt>
      <trkpt lat="38.2196840" lon="-3.5928780">
        <ele>456.2</ele>
        <time>2018-06-16T06:53:54Z</time>
      </trkpt>
      <trkpt lat="38.2197130" lon="-3.5928540">
        <ele>456.4</ele>
        <time>2018-06-16T06:53:55Z</time>
      </trkpt>
      <trkpt lat="38.2197410" lon="-3.5928300">
        <ele>456.6</ele>
        <time>2018-06-16T06:53:56Z</time>
      </trkpt>
      <trkpt lat="38.2197700" lon="-3.5928060">
        <ele>456.8</ele>
        <time>2018-06-16T06:53:57Z</time>
      </trkpt>
      <trkpt lat="38.2198000" lon="-3.5927810">
        <ele>457.0</ele>
        <time>2018-06-16T06:53:58Z</time>
      </trkpt>
      <trkpt lat="38.2198300" lon="-3.5927570">
        <ele>457.0</ele>
        <time>2018-06-16T06:53:59Z</time>
      </trkpt>
      <trkpt lat="38.2198610" lon="-3.5927330">
        <ele>457.2</ele>
        <time>2018-06-16T06:54:00Z</time>
      </trkpt>
      <trkpt lat="38.2198910" lon="-3.5927080">
        <ele>457.4</ele>
        <time>2018-06-16T06:54:01Z</time>
      </trkpt>
      <trkpt lat="38.2199220" lon="-3.5926830">
        <ele>457.4</ele>
        <time>2018-06-16T06:54:02Z</time>
      </trkpt>
      <trkpt lat="38.2199530" lon="-3.5926560">
        <ele>457.6</ele>
        <time>2018-06-16T06:54:03Z</time>
      </trkpt>
      <trkpt lat="38.2199830" lon="-3.5926290">
        <ele>457.8</ele>
        <time>2018-06-16T06:54:04Z</time>
      </trkpt>
      <trkpt lat="38.2200140" lon="-3.5926030">
        <ele>458.0</ele>
        <time>2018-06-16T06:54:05Z</time>
      </trkpt>
      <trkpt lat="38.2200460" lon="-3.5925780">
        <ele>458.2</ele>
        <time>2018-06-16T06:54:06Z</time>
      </trkpt>
      <trkpt lat="38.2200770" lon="-3.5925510">
        <ele>458.2</ele>
        <time>2018-06-16T06:54:07Z</time>
      </trkpt>
      <trkpt lat="38.2201090" lon="-3.5925230">
        <ele>458.4</ele>
        <time>2018-06-16T06:54:08Z</time>
      </trkpt>
      <trkpt lat="38.2201400" lon="-3.5924960">
        <ele>458.4</ele>
        <time>2018-06-16T06:54:09Z</time>
      </trkpt>
      <trkpt lat="38.2201720" lon="-3.5924700">
        <ele>458.6</ele>
        <time>2018-06-16T06:54:10Z</time>
      </trkpt>
      <trkpt lat="38.2202040" lon="-3.5924440">
        <ele>458.6</ele>
        <time>2018-06-16T06:54:11Z</time>
      </trkpt>
      <trkpt lat="38.2202360" lon="-3.5924170">
        <ele>458.6</ele>
        <time>2018-06-16T06:54:12Z</time>
      </trkpt>
      <trkpt lat="38.2202670" lon="-3.5923910">
        <ele>458.6</ele>
        <time>2018-06-16T06:54:13Z</time>
      </trkpt>
      <trkpt lat="38.2202990" lon="-3.5923660">
        <ele>459.0</ele>
        <time>2018-06-16T06:54:14Z</time>
      </trkpt>
      <trkpt lat="38.2203310" lon="-3.5923420">
        <ele>459.0</ele>
        <time>2018-06-16T06:54:15Z</time>
      </trkpt>
      <trkpt lat="38.2203640" lon="-3.5923220">
        <ele>459.0</ele>
        <time>2018-06-16T06:54:16Z</time>
      </trkpt>
      <trkpt lat="38.2203990" lon="-3.5923030">
        <ele>459.0</ele>
        <time>2018-06-16T06:54:17Z</time>
      </trkpt>
      <trkpt lat="38.2204350" lon="-3.5922820">
        <ele>459.0</ele>
        <time>2018-06-16T06:54:18Z</time>
      </trkpt>
      <trkpt lat="38.2204720" lon="-3.5922620">
        <ele>459.2</ele>
        <time>2018-06-16T06:54:19Z</time>
      </trkpt>
      <trkpt lat="38.2205080" lon="-3.5922420">
        <ele>459.2</ele>
        <time>2018-06-16T06:54:20Z</time>
      </trkpt>
      <trkpt lat="38.2205440" lon="-3.5922240">
        <ele>459.2</ele>
        <time>2018-06-16T06:54:21Z</time>
      </trkpt>
      <trkpt lat="38.2205820" lon="-3.5922060">
        <ele>459.4</ele>
        <time>2018-06-16T06:54:22Z</time>
      </trkpt>
      <trkpt lat="38.2206180" lon="-3.5921880">
        <ele>459.6</ele>
        <time>2018-06-16T06:54:23Z</time>
      </trkpt>
      <trkpt lat="38.2206540" lon="-3.5921700">
        <ele>459.6</ele>
        <time>2018-06-16T06:54:24Z</time>
      </trkpt>
      <trkpt lat="38.2206880" lon="-3.5921500">
        <ele>459.6</ele>
        <time>2018-06-16T06:54:25Z</time>
      </trkpt>
      <trkpt lat="38.2207230" lon="-3.5921310">
        <ele>459.8</ele>
        <time>2018-06-16T06:54:26Z</time>
      </trkpt>
      <trkpt lat="38.2207590" lon="-3.5921140">
        <ele>459.8</ele>
        <time>2018-06-16T06:54:27Z</time>
      </trkpt>
      <trkpt lat="38.2207930" lon="-3.5920950">
        <ele>460.0</ele>
        <time>2018-06-16T06:54:28Z</time>
      </trkpt>
      <trkpt lat="38.2208270" lon="-3.5920780">
        <ele>460.0</ele>
        <time>2018-06-16T06:54:29Z</time>
      </trkpt>
      <trkpt lat="38.2208620" lon="-3.5920610">
        <ele>460.2</ele>
        <time>2018-06-16T06:54:30Z</time>
      </trkpt>
      <trkpt lat="38.2208970" lon="-3.5920440">
        <ele>460.2</ele>
        <time>2018-06-16T06:54:31Z</time>
      </trkpt>
      <trkpt lat="38.2209310" lon="-3.5920280">
        <ele>460.4</ele>
        <time>2018-06-16T06:54:32Z</time>
      </trkpt>
      <trkpt lat="38.2209630" lon="-3.5920110">
        <ele>460.4</ele>
        <time>2018-06-16T06:54:33Z</time>
      </trkpt>
      <trkpt lat="38.2209970" lon="-3.5919930">
        <ele>460.4</ele>
        <time>2018-06-16T06:54:34Z</time>
      </trkpt>
      <trkpt lat="38.2210310" lon="-3.5919760">
        <ele>460.6</ele>
        <time>2018-06-16T06:54:35Z</time>
      </trkpt>
      <trkpt lat="38.2210670" lon="-3.5919580">
        <ele>460.8</ele>
        <time>2018-06-16T06:54:36Z</time>
      </trkpt>
      <trkpt lat="38.2211010" lon="-3.5919380">
        <ele>460.8</ele>
        <time>2018-06-16T06:54:37Z</time>
      </trkpt>
      <trkpt lat="38.2211340" lon="-3.5919200">
        <ele>461.0</ele>
        <time>2018-06-16T06:54:38Z</time>
      </trkpt>
      <trkpt lat="38.2211670" lon="-3.5919000">
        <ele>461.2</ele>
        <time>2018-06-16T06:54:39Z</time>
      </trkpt>
      <trkpt lat="38.2212020" lon="-3.5918830">
        <ele>461.4</ele>
        <time>2018-06-16T06:54:40Z</time>
      </trkpt>
      <trkpt lat="38.2212360" lon="-3.5918680">
        <ele>461.4</ele>
        <time>2018-06-16T06:54:41Z</time>
      </trkpt>
      <trkpt lat="38.2212680" lon="-3.5918500">
        <ele>461.6</ele>
        <time>2018-06-16T06:54:42Z</time>
      </trkpt>
      <trkpt lat="38.2213000" lon="-3.5918290">
        <ele>461.8</ele>
        <time>2018-06-16T06:54:43Z</time>
      </trkpt>
      <trkpt lat="38.2213300" lon="-3.5918060">
        <ele>462.0</ele>
        <time>2018-06-16T06:54:44Z</time>
      </trkpt>
      <trkpt lat="38.2213610" lon="-3.5917840">
        <ele>462.0</ele>
        <time>2018-06-16T06:54:45Z</time>
      </trkpt>
      <trkpt lat="38.2213920" lon="-3.5917650">
        <ele>462.2</ele>
        <time>2018-06-16T06:54:46Z</time>
      </trkpt>
      <trkpt lat="38.2214240" lon="-3.5917460">
        <ele>462.2</ele>
        <time>2018-06-16T06:54:47Z</time>
      </trkpt>
      <trkpt lat="38.2214550" lon="-3.5917270">
        <ele>462.4</ele>
        <time>2018-06-16T06:54:48Z</time>
      </trkpt>
      <trkpt lat="38.2214860" lon="-3.5917070">
        <ele>462.6</ele>
        <time>2018-06-16T06:54:49Z</time>
      </trkpt>
      <trkpt lat="38.2215160" lon="-3.5916840">
        <ele>462.6</ele>
        <time>2018-06-16T06:54:50Z</time>
      </trkpt>
      <trkpt lat="38.2215460" lon="-3.5916610">
        <ele>462.8</ele>
        <time>2018-06-16T06:54:51Z</time>
      </trkpt>
      <trkpt lat="38.2215760" lon="-3.5916390">
        <ele>462.8</ele>
        <time>2018-06-16T06:54:52Z</time>
      </trkpt>
      <trkpt lat="38.2216050" lon="-3.5916170">
        <ele>463.0</ele>
        <time>2018-06-16T06:54:53Z</time>
      </trkpt>
      <trkpt lat="38.2216350" lon="-3.5915950">
        <ele>463.0</ele>
        <time>2018-06-16T06:54:54Z</time>
      </trkpt>
      <trkpt lat="38.2216640" lon="-3.5915720">
        <ele>463.2</ele>
        <time>2018-06-16T06:54:55Z</time>
      </trkpt>
      <trkpt lat="38.2216950" lon="-3.5915490">
        <ele>463.2</ele>
        <time>2018-06-16T06:54:56Z</time>
      </trkpt>
      <trkpt lat="38.2217230" lon="-3.5915180">
        <ele>463.4</ele>
        <time>2018-06-16T06:54:57Z</time>
      </trkpt>
      <trkpt lat="38.2217500" lon="-3.5914930">
        <ele>463.6</ele>
        <time>2018-06-16T06:54:58Z</time>
      </trkpt>
      <trkpt lat="38.2217770" lon="-3.5914720">
        <ele>463.6</ele>
        <time>2018-06-16T06:54:59Z</time>
      </trkpt>
      <trkpt lat="38.2218040" lon="-3.5914520">
        <ele>463.6</ele>
        <time>2018-06-16T06:55:00Z</time>
      </trkpt>
      <trkpt lat="38.2218280" lon="-3.5914320">
        <ele>463.8</ele>
        <time>2018-06-16T06:55:01Z</time>
      </trkpt>
      <trkpt lat="38.2218500" lon="-3.5914140">
        <ele>463.8</ele>
        <time>2018-06-16T06:55:02Z</time>
      </trkpt>
      <trkpt lat="38.2218720" lon="-3.5913980">
        <ele>464.0</ele>
        <time>2018-06-16T06:55:03Z</time>
      </trkpt>
      <trkpt lat="38.2218940" lon="-3.5913840">
        <ele>464.0</ele>
        <time>2018-06-16T06:55:04Z</time>
      </trkpt>
      <trkpt lat="38.2219190" lon="-3.5913680">
        <ele>464.0</ele>
        <time>2018-06-16T06:55:05Z</time>
      </trkpt>
      <trkpt lat="38.2219430" lon="-3.5913470">
        <ele>464.0</ele>
        <time>2018-06-16T06:55:06Z</time>
      </trkpt>
      <trkpt lat="38.2219670" lon="-3.5913270">
        <ele>464.0</ele>
        <time>2018-06-16T06:55:07Z</time>
      </trkpt>
      <trkpt lat="38.2219900" lon="-3.5913070">
        <ele>464.2</ele>
        <time>2018-06-16T06:55:08Z</time>
      </trkpt>
      <trkpt lat="38.2220210" lon="-3.5912750">
        <ele>464.2</ele>
        <time>2018-06-16T06:55:09Z</time>
      </trkpt>
      <trkpt lat="38.2220300" lon="-3.5912640">
        <ele>464.2</ele>
        <time>2018-06-16T06:55:10Z</time>
      </trkpt>
      <trkpt lat="38.2220550" lon="-3.5912370">
        <ele>464.4</ele>
        <time>2018-06-16T06:55:11Z</time>
      </trkpt>
      <trkpt lat="38.2220620" lon="-3.5912280">
        <ele>464.4</ele>
        <time>2018-06-16T06:55:12Z</time>
      </trkpt>
      <trkpt lat="38.2220730" lon="-3.5912140">
        <ele>464.4</ele>
        <time>2018-06-16T06:55:13Z</time>
      </trkpt>
      <trkpt lat="38.2220810" lon="-3.5912060">
        <ele>464.4</ele>
        <time>2018-06-16T06:55:14Z</time>
      </trkpt>
      <trkpt lat="38.2220840" lon="-3.5912060">
        <ele>464.6</ele>
        <time>2018-06-16T06:55:15Z</time>
      </trkpt>
      <trkpt lat="38.2220850" lon="-3.5912060">
        <ele>464.6</ele>
        <time>2018-06-16T06:55:16Z</time>
      </trkpt>
      <trkpt lat="38.2220850" lon="-3.5912040">
        <ele>464.6</ele>
        <time>2018-06-16T06:55:17Z</time>
      </trkpt>
      <trkpt lat="38.2220890" lon="-3.5912060">
        <ele>464.6</ele>
        <time>2018-06-16T06:55:18Z</time>
      </trkpt>
      <trkpt lat="38.2220910" lon="-3.5912070">
        <ele>464.6</ele>
        <time>2018-06-16T06:55:19Z</time>
      </trkpt>
      <trkpt lat="38.2220930" lon="-3.5912080">
        <ele>464.4</ele>
        <time>2018-06-16T06:55:20Z</time>
      </trkpt>
      <trkpt lat="38.2220930" lon="-3.5912090">
        <ele>464.4</ele>
        <time>2018-06-16T06:55:21Z</time>
      </trkpt>
      <trkpt lat="38.2220950" lon="-3.5912090">
        <ele>464.4</ele>
        <time>2018-06-16T06:55:22Z</time>
      </trkpt>
      <trkpt lat="38.2220960" lon="-3.5912100">
        <ele>464.4</ele>
        <time>2018-06-16T06:55:23Z</time>
      </trkpt>
      <trkpt lat="38.2220960" lon="-3.5912100">
        <ele>464.4</ele>
        <time>2018-06-16T06:55:24Z</time>
      </trkpt>
      <trkpt lat="38.2220970" lon="-3.5912100">
        <ele>464.4</ele>
        <time>2018-06-16T06:55:25Z</time>
      </trkpt>
      <trkpt lat="38.2220970" lon="-3.5912110">
        <ele>464.4</ele>
        <time>2018-06-16T06:55:26Z</time>
      </trkpt>
      <trkpt lat="38.2220980" lon="-3.5912110">
        <ele>464.4</ele>
        <time>2018-06-16T06:55:27Z</time>
      </trkpt>
      <trkpt lat="38.2221530" lon="-3.5911900">
        <ele>464.4</ele>
        <time>2018-06-16T06:58:19Z</time>
      </trkpt>
      <trkpt lat="38.2221640" lon="-3.5911850">
        <ele>464.4</ele>
        <time>2018-06-16T06:58:20Z</time>
      </trkpt>
      <trkpt lat="38.2221760" lon="-3.5911740">
        <ele>464.6</ele>
        <time>2018-06-16T06:58:21Z</time>
      </trkpt>
      <trkpt lat="38.2221880" lon="-3.5911640">
        <ele>464.6</ele>
        <time>2018-06-16T06:58:22Z</time>
      </trkpt>
      <trkpt lat="38.2222030" lon="-3.5911530">
        <ele>464.6</ele>
        <time>2018-06-16T06:58:23Z</time>
      </trkpt>
      <trkpt lat="38.2222220" lon="-3.5911440">
        <ele>464.6</ele>
        <time>2018-06-16T06:58:24Z</time>
      </trkpt>
      <trkpt lat="38.2222430" lon="-3.5911320">
        <ele>464.6</ele>
        <time>2018-06-16T06:58:25Z</time>
      </trkpt>
      <trkpt lat="38.2222630" lon="-3.5911180">
        <ele>464.6</ele>
        <time>2018-06-16T06:58:26Z</time>
      </trkpt>
      <trkpt lat="38.2222820" lon="-3.5911040">
        <ele>464.8</ele>
        <time>2018-06-16T06:58:27Z</time>
      </trkpt>
      <trkpt lat="38.2223020" lon="-3.5910900">
        <ele>464.8</ele>
        <time>2018-06-16T06:58:28Z</time>
      </trkpt>
      <trkpt lat="38.2223240" lon="-3.5910750">
        <ele>464.8</ele>
        <time>2018-06-16T06:58:29Z</time>
      </trkpt>
      <trkpt lat="38.2223460" lon="-3.5910600">
        <ele>464.8</ele>
        <time>2018-06-16T06:58:30Z</time>
      </trkpt>
      <trkpt lat="38.2223690" lon="-3.5910420">
        <ele>464.8</ele>
        <time>2018-06-16T06:58:31Z</time>
      </trkpt>
      <trkpt lat="38.2223930" lon="-3.5910240">
        <ele>464.8</ele>
        <time>2018-06-16T06:58:32Z</time>
      </trkpt>
      <trkpt lat="38.2224170" lon="-3.5910050">
        <ele>465.0</ele>
        <time>2018-06-16T06:58:33Z</time>
      </trkpt>
      <trkpt lat="38.2224410" lon="-3.5909880">
        <ele>465.0</ele>
        <time>2018-06-16T06:58:34Z</time>
      </trkpt>
      <trkpt lat="38.2224670" lon="-3.5909690">
        <ele>465.0</ele>
        <time>2018-06-16T06:58:35Z</time>
      </trkpt>
      <trkpt lat="38.2224920" lon="-3.5909490">
        <ele>465.0</ele>
        <time>2018-06-16T06:58:36Z</time>
      </trkpt>
      <trkpt lat="38.2225170" lon="-3.5909270">
        <ele>465.2</ele>
        <time>2018-06-16T06:58:37Z</time>
      </trkpt>
      <trkpt lat="38.2225360" lon="-3.5909030">
        <ele>465.2</ele>
        <time>2018-06-16T06:58:38Z</time>
      </trkpt>
      <trkpt lat="38.2225570" lon="-3.5908780">
        <ele>465.2</ele>
        <time>2018-06-16T06:58:39Z</time>
      </trkpt>
      <trkpt lat="38.2225810" lon="-3.5908580">
        <ele>465.2</ele>
        <time>2018-06-16T06:58:40Z</time>
      </trkpt>
      <trkpt lat="38.2226040" lon="-3.5908410">
        <ele>465.4</ele>
        <time>2018-06-16T06:58:41Z</time>
      </trkpt>
      <trkpt lat="38.2226270" lon="-3.5908230">
        <ele>465.4</ele>
        <time>2018-06-16T06:58:42Z</time>
      </trkpt>
      <trkpt lat="38.2226520" lon="-3.5908070">
        <ele>465.4</ele>
        <time>2018-06-16T06:58:43Z</time>
      </trkpt>
      <trkpt lat="38.2226760" lon="-3.5907900">
        <ele>465.4</ele>
        <time>2018-06-16T06:58:44Z</time>
      </trkpt>
      <trkpt lat="38.2227000" lon="-3.5907730">
        <ele>465.4</ele>
        <time>2018-06-16T06:58:45Z</time>
      </trkpt>
      <trkpt lat="38.2227240" lon="-3.5907560">
        <ele>465.4</ele>
        <time>2018-06-16T06:58:46Z</time>
      </trkpt>
      <trkpt lat="38.2227470" lon="-3.5907420">
        <ele>465.6</ele>
        <time>2018-06-16T06:58:47Z</time>
      </trkpt>
      <trkpt lat="38.2227690" lon="-3.5907260">
        <ele>465.6</ele>
        <time>2018-06-16T06:58:48Z</time>
      </trkpt>
      <trkpt lat="38.2227900" lon="-3.5907120">
        <ele>465.6</ele>
        <time>2018-06-16T06:58:49Z</time>
      </trkpt>
      <trkpt lat="38.2228090" lon="-3.5907010">
        <ele>465.6</ele>
        <time>2018-06-16T06:58:50Z</time>
      </trkpt>
      <trkpt lat="38.2228290" lon="-3.5906920">
        <ele>465.6</ele>
        <time>2018-06-16T06:58:51Z</time>
      </trkpt>
      <trkpt lat="38.2228500" lon="-3.5906810">
        <ele>465.6</ele>
        <time>2018-06-16T06:58:52Z</time>
      </trkpt>
      <trkpt lat="38.2228750" lon="-3.5906720">
        <ele>465.6</ele>
        <time>2018-06-16T06:58:53Z</time>
      </trkpt>
      <trkpt lat="38.2228990" lon="-3.5906620">
        <ele>465.6</ele>
        <time>2018-06-16T06:58:54Z</time>
      </trkpt>
      <trkpt lat="38.2229230" lon="-3.5906500">
        <ele>465.6</ele>
        <time>2018-06-16T06:58:55Z</time>
      </trkpt>
      <trkpt lat="38.2229480" lon="-3.5906360">
        <ele>465.6</ele>
        <time>2018-06-16T06:58:56Z</time>
      </trkpt>
      <trkpt lat="38.2229730" lon="-3.5906210">
        <ele>465.6</ele>
        <time>2018-06-16T06:58:57Z</time>
      </trkpt>
      <trkpt lat="38.2230030" lon="-3.5906060">
        <ele>465.6</ele>
        <time>2018-06-16T06:58:58Z</time>
      </trkpt>
      <trkpt lat="38.2230330" lon="-3.5905920">
        <ele>465.6</ele>
        <time>2018-06-16T06:58:59Z</time>
      </trkpt>
      <trkpt lat="38.2230640" lon="-3.5905750">
        <ele>465.6</ele>
        <time>2018-06-16T06:59:00Z</time>
      </trkpt>
      <trkpt lat="38.2230950" lon="-3.5905580">
        <ele>465.6</ele>
        <time>2018-06-16T06:59:01Z</time>
      </trkpt>
      <trkpt lat="38.2231260" lon="-3.5905400">
        <ele>465.6</ele>
        <time>2018-06-16T06:59:02Z</time>
      </trkpt>
      <trkpt lat="38.2231560" lon="-3.5905200">
        <ele>465.6</ele>
        <time>2018-06-16T06:59:03Z</time>
      </trkpt>
      <trkpt lat="38.2231870" lon="-3.5905010">
        <ele>465.8</ele>
        <time>2018-06-16T06:59:04Z</time>
      </trkpt>
      <trkpt lat="38.2232180" lon="-3.5904800">
        <ele>465.8</ele>
        <time>2018-06-16T06:59:05Z</time>
      </trkpt>
      <trkpt lat="38.2232490" lon="-3.5904590">
        <ele>465.8</ele>
        <time>2018-06-16T06:59:06Z</time>
      </trkpt>
      <trkpt lat="38.2232800" lon="-3.5904380">
        <ele>466.0</ele>
        <time>2018-06-16T06:59:07Z</time>
      </trkpt>
      <trkpt lat="38.2233140" lon="-3.5904170">
        <ele>465.8</ele>
        <time>2018-06-16T06:59:08Z</time>
      </trkpt>
      <trkpt lat="38.2233470" lon="-3.5903950">
        <ele>466.0</ele>
        <time>2018-06-16T06:59:09Z</time>
      </trkpt>
      <trkpt lat="38.2233800" lon="-3.5903750">
        <ele>466.0</ele>
        <time>2018-06-16T06:59:10Z</time>
      </trkpt>
      <trkpt lat="38.2234140" lon="-3.5903550">
        <ele>466.0</ele>
        <time>2018-06-16T06:59:11Z</time>
      </trkpt>
      <trkpt lat="38.2234470" lon="-3.5903340">
        <ele>466.0</ele>
        <time>2018-06-16T06:59:12Z</time>
      </trkpt>
      <trkpt lat="38.2234810" lon="-3.5903130">
        <ele>466.0</ele>
        <time>2018-06-16T06:59:13Z</time>
      </trkpt>
      <trkpt lat="38.2235150" lon="-3.5902920">
        <ele>466.0</ele>
        <time>2018-06-16T06:59:14Z</time>
      </trkpt>
      <trkpt lat="38.2235500" lon="-3.5902710">
        <ele>466.2</ele>
        <time>2018-06-16T06:59:15Z</time>
      </trkpt>
      <trkpt lat="38.2235870" lon="-3.5902490">
        <ele>466.0</ele>
        <time>2018-06-16T06:59:16Z</time>
      </trkpt>
      <trkpt lat="38.2236240" lon="-3.5902270">
        <ele>466.2</ele>
        <time>2018-06-16T06:59:17Z</time>
      </trkpt>
      <trkpt lat="38.2236620" lon="-3.5902050">
        <ele>466.2</ele>
        <time>2018-06-16T06:59:18Z</time>
      </trkpt>
      <trkpt lat="38.2237000" lon="-3.5901830">
        <ele>466.2</ele>
        <time>2018-06-16T06:59:19Z</time>
      </trkpt>
      <trkpt lat="38.2237380" lon="-3.5901610">
        <ele>466.2</ele>
        <time>2018-06-16T06:59:20Z</time>
      </trkpt>
      <trkpt lat="38.2237750" lon="-3.5901390">
        <ele>466.2</ele>
        <time>2018-06-16T06:59:21Z</time>
      </trkpt>
      <trkpt lat="38.2238140" lon="-3.5901170">
        <ele>466.4</ele>
        <time>2018-06-16T06:59:22Z</time>
      </trkpt>
      <trkpt lat="38.2238510" lon="-3.5900940">
        <ele>466.4</ele>
        <time>2018-06-16T06:59:23Z</time>
      </trkpt>
      <trkpt lat="38.2238880" lon="-3.5900720">
        <ele>466.4</ele>
        <time>2018-06-16T06:59:24Z</time>
      </trkpt>
      <trkpt lat="38.2239260" lon="-3.5900490">
        <ele>466.6</ele>
        <time>2018-06-16T06:59:25Z</time>
      </trkpt>
      <trkpt lat="38.2239630" lon="-3.5900240">
        <ele>466.6</ele>
        <time>2018-06-16T06:59:26Z</time>
      </trkpt>
      <trkpt lat="38.2240000" lon="-3.5900010">
        <ele>466.6</ele>
        <time>2018-06-16T06:59:27Z</time>
      </trkpt>
      <trkpt lat="38.2240370" lon="-3.5899780">
        <ele>466.8</ele>
        <time>2018-06-16T06:59:28Z</time>
      </trkpt>
      <trkpt lat="38.2240730" lon="-3.5899560">
        <ele>466.8</ele>
        <time>2018-06-16T06:59:29Z</time>
      </trkpt>
      <trkpt lat="38.2241100" lon="-3.5899340">
        <ele>466.8</ele>
        <time>2018-06-16T06:59:30Z</time>
      </trkpt>
      <trkpt lat="38.2241470" lon="-3.5899110">
        <ele>466.8</ele>
        <time>2018-06-16T06:59:31Z</time>
      </trkpt>
      <trkpt lat="38.2241850" lon="-3.5898880">
        <ele>466.8</ele>
        <time>2018-06-16T06:59:32Z</time>
      </trkpt>
      <trkpt lat="38.2242220" lon="-3.5898660">
        <ele>467.0</ele>
        <time>2018-06-16T06:59:33Z</time>
      </trkpt>
      <trkpt lat="38.2242600" lon="-3.5898450">
        <ele>467.0</ele>
        <time>2018-06-16T06:59:34Z</time>
      </trkpt>
      <trkpt lat="38.2242970" lon="-3.5898230">
        <ele>467.0</ele>
        <time>2018-06-16T06:59:35Z</time>
      </trkpt>
      <trkpt lat="38.2243340" lon="-3.5898010">
        <ele>467.2</ele>
        <time>2018-06-16T06:59:36Z</time>
      </trkpt>
      <trkpt lat="38.2243720" lon="-3.5897790">
        <ele>467.2</ele>
        <time>2018-06-16T06:59:37Z</time>
      </trkpt>
      <trkpt lat="38.2244090" lon="-3.5897560">
        <ele>467.2</ele>
        <time>2018-06-16T06:59:38Z</time>
      </trkpt>
      <trkpt lat="38.2244460" lon="-3.5897330">
        <ele>467.2</ele>
        <time>2018-06-16T06:59:39Z</time>
      </trkpt>
      <trkpt lat="38.2244840" lon="-3.5897120">
        <ele>467.2</ele>
        <time>2018-06-16T06:59:40Z</time>
      </trkpt>
      <trkpt lat="38.2245220" lon="-3.5896920">
        <ele>467.2</ele>
        <time>2018-06-16T06:59:41Z</time>
      </trkpt>
      <trkpt lat="38.2245620" lon="-3.5896730">
        <ele>467.2</ele>
        <time>2018-06-16T06:59:42Z</time>
      </trkpt>
      <trkpt lat="38.2246000" lon="-3.5896520">
        <ele>467.2</ele>
        <time>2018-06-16T06:59:43Z</time>
      </trkpt>
      <trkpt lat="38.2246390" lon="-3.5896310">
        <ele>467.2</ele>
        <time>2018-06-16T06:59:44Z</time>
      </trkpt>
      <trkpt lat="38.2246770" lon="-3.5896100">
        <ele>467.2</ele>
        <time>2018-06-16T06:59:45Z</time>
      </trkpt>
      <trkpt lat="38.2247170" lon="-3.5895910">
        <ele>467.2</ele>
        <time>2018-06-16T06:59:46Z</time>
      </trkpt>
      <trkpt lat="38.2247550" lon="-3.5895690">
        <ele>467.4</ele>
        <time>2018-06-16T06:59:47Z</time>
      </trkpt>
      <trkpt lat="38.2247900" lon="-3.5895450">
        <ele>467.4</ele>
        <time>2018-06-16T06:59:48Z</time>
      </trkpt>
      <trkpt lat="38.2248250" lon="-3.5895220">
        <ele>467.4</ele>
        <time>2018-06-16T06:59:49Z</time>
      </trkpt>
      <trkpt lat="38.2248630" lon="-3.5894990">
        <ele>467.4</ele>
        <time>2018-06-16T06:59:50Z</time>
      </trkpt>
      <trkpt lat="38.2249050" lon="-3.5894770">
        <ele>467.4</ele>
        <time>2018-06-16T06:59:51Z</time>
      </trkpt>
      <trkpt lat="38.2249500" lon="-3.5894540">
        <ele>467.2</ele>
        <time>2018-06-16T06:59:52Z</time>
      </trkpt>
      <trkpt lat="38.2249960" lon="-3.5894330">
        <ele>467.0</ele>
        <time>2018-06-16T06:59:53Z</time>
      </trkpt>
      <trkpt lat="38.2250450" lon="-3.5894110">
        <ele>466.8</ele>
        <time>2018-06-16T06:59:54Z</time>
      </trkpt>
      <trkpt lat="38.2250960" lon="-3.5893890">
        <ele>466.6</ele>
        <time>2018-06-16T06:59:55Z</time>
      </trkpt>
      <trkpt lat="38.2251470" lon="-3.5893670">
        <ele>466.6</ele>
        <time>2018-06-16T06:59:56Z</time>
      </trkpt>
      <trkpt lat="38.2251990" lon="-3.5893460">
        <ele>466.4</ele>
        <time>2018-06-16T06:59:57Z</time>
      </trkpt>
      <trkpt lat="38.2252520" lon="-3.5893250">
        <ele>466.4</ele>
        <time>2018-06-16T06:59:58Z</time>
      </trkpt>
      <trkpt lat="38.2253060" lon="-3.5893040">
        <ele>466.2</ele>
        <time>2018-06-16T06:59:59Z</time>
      </trkpt>
      <trkpt lat="38.2253630" lon="-3.5892820">
        <ele>466.0</ele>
        <time>2018-06-16T07:00:00Z</time>
      </trkpt>
      <trkpt lat="38.2254210" lon="-3.5892590">
        <ele>465.8</ele>
        <time>2018-06-16T07:00:01Z</time>
      </trkpt>
      <trkpt lat="38.2254800" lon="-3.5892350">
        <ele>465.6</ele>
        <time>2018-06-16T07:00:02Z</time>
      </trkpt>
      <trkpt lat="38.2255420" lon="-3.5892100">
        <ele>465.2</ele>
        <time>2018-06-16T07:00:03Z</time>
      </trkpt>
      <trkpt lat="38.2256050" lon="-3.5891850">
        <ele>465.0</ele>
        <time>2018-06-16T07:00:04Z</time>
      </trkpt>
      <trkpt lat="38.2256710" lon="-3.5891570">
        <ele>464.8</ele>
        <time>2018-06-16T07:00:05Z</time>
      </trkpt>
      <trkpt lat="38.2257350" lon="-3.5891250">
        <ele>464.6</ele>
        <time>2018-06-16T07:00:06Z</time>
      </trkpt>
      <trkpt lat="38.2257950" lon="-3.5890920">
        <ele>464.6</ele>
        <time>2018-06-16T07:00:07Z</time>
      </trkpt>
      <trkpt lat="38.2258500" lon="-3.5890590">
        <ele>464.6</ele>
        <time>2018-06-16T07:00:08Z</time>
      </trkpt>
      <trkpt lat="38.2259010" lon="-3.5890230">
        <ele>464.6</ele>
        <time>2018-06-16T07:00:09Z</time>
      </trkpt>
      <trkpt lat="38.2259480" lon="-3.5889840">
        <ele>465.0</ele>
        <time>2018-06-16T07:00:10Z</time>
      </trkpt>
      <trkpt lat="38.2259940" lon="-3.5889440">
        <ele>465.2</ele>
        <time>2018-06-16T07:00:11Z</time>
      </trkpt>
      <trkpt lat="38.2260410" lon="-3.5889040">
        <ele>465.2</ele>
        <time>2018-06-16T07:00:12Z</time>
      </trkpt>
      <trkpt lat="38.2260860" lon="-3.5888640">
        <ele>465.4</ele>
        <time>2018-06-16T07:00:13Z</time>
      </trkpt>
      <trkpt lat="38.2261300" lon="-3.5888230">
        <ele>465.6</ele>
        <time>2018-06-16T07:00:14Z</time>
      </trkpt>
      <trkpt lat="38.2261700" lon="-3.5887850">
        <ele>465.6</ele>
        <time>2018-06-16T07:00:15Z</time>
      </trkpt>
      <trkpt lat="38.2262090" lon="-3.5887490">
        <ele>465.8</ele>
        <time>2018-06-16T07:00:16Z</time>
      </trkpt>
      <trkpt lat="38.2262470" lon="-3.5887160">
        <ele>465.8</ele>
        <time>2018-06-16T07:00:17Z</time>
      </trkpt>
      <trkpt lat="38.2262870" lon="-3.5886860">
        <ele>466.0</ele>
        <time>2018-06-16T07:00:18Z</time>
      </trkpt>
      <trkpt lat="38.2263270" lon="-3.5886580">
        <ele>466.0</ele>
        <time>2018-06-16T07:00:19Z</time>
      </trkpt>
      <trkpt lat="38.2263680" lon="-3.5886320">
        <ele>465.8</ele>
        <time>2018-06-16T07:00:20Z</time>
      </trkpt>
      <trkpt lat="38.2264130" lon="-3.5886070">
        <ele>465.6</ele>
        <time>2018-06-16T07:00:21Z</time>
      </trkpt>
      <trkpt lat="38.2264610" lon="-3.5885860">
        <ele>465.2</ele>
        <time>2018-06-16T07:00:22Z</time>
      </trkpt>
      <trkpt lat="38.2265120" lon="-3.5885640">
        <ele>465.0</ele>
        <time>2018-06-16T07:00:23Z</time>
      </trkpt>
      <trkpt lat="38.2265680" lon="-3.5885430">
        <ele>464.6</ele>
        <time>2018-06-16T07:00:24Z</time>
      </trkpt>
      <trkpt lat="38.2266260" lon="-3.5885210">
        <ele>464.2</ele>
        <time>2018-06-16T07:00:25Z</time>
      </trkpt>
      <trkpt lat="38.2266900" lon="-3.5884980">
        <ele>463.8</ele>
        <time>2018-06-16T07:00:26Z</time>
      </trkpt>
      <trkpt lat="38.2267550" lon="-3.5884710">
        <ele>463.4</ele>
        <time>2018-06-16T07:00:27Z</time>
      </trkpt>
      <trkpt lat="38.2268230" lon="-3.5884440">
        <ele>463.0</ele>
        <time>2018-06-16T07:00:28Z</time>
      </trkpt>
      <trkpt lat="38.2268920" lon="-3.5884170">
        <ele>462.4</ele>
        <time>2018-06-16T07:00:29Z</time>
      </trkpt>
      <trkpt lat="38.2269650" lon="-3.5883890">
        <ele>462.2</ele>
        <time>2018-06-16T07:00:30Z</time>
      </trkpt>
      <trkpt lat="38.2270400" lon="-3.5883620">
        <ele>461.8</ele>
        <time>2018-06-16T07:00:31Z</time>
      </trkpt>
      <trkpt lat="38.2271150" lon="-3.5883370">
        <ele>461.6</ele>
        <time>2018-06-16T07:00:32Z</time>
      </trkpt>
      <trkpt lat="38.2271910" lon="-3.5883150">
        <ele>461.4</ele>
        <time>2018-06-16T07:00:33Z</time>
      </trkpt>
      <trkpt lat="38.2272680" lon="-3.5882970">
        <ele>460.8</ele>
        <time>2018-06-16T07:00:34Z</time>
      </trkpt>
      <trkpt lat="38.2273440" lon="-3.5882840">
        <ele>461.0</ele>
        <time>2018-06-16T07:00:35Z</time>
      </trkpt>
      <trkpt lat="38.2274220" lon="-3.5882740">
        <ele>460.8</ele>
        <time>2018-06-16T07:00:36Z</time>
      </trkpt>
      <trkpt lat="38.2275010" lon="-3.5882680">
        <ele>461.0</ele>
        <time>2018-06-16T07:00:37Z</time>
      </trkpt>
      <trkpt lat="38.2275750" lon="-3.5882600">
        <ele>461.0</ele>
        <time>2018-06-16T07:00:38Z</time>
      </trkpt>
      <trkpt lat="38.2276460" lon="-3.5882460">
        <ele>461.2</ele>
        <time>2018-06-16T07:00:39Z</time>
      </trkpt>
      <trkpt lat="38.2277120" lon="-3.5882210">
        <ele>461.4</ele>
        <time>2018-06-16T07:00:40Z</time>
      </trkpt>
      <trkpt lat="38.2277710" lon="-3.5881790">
        <ele>461.2</ele>
        <time>2018-06-16T07:00:41Z</time>
      </trkpt>
      <trkpt lat="38.2278220" lon="-3.5881250">
        <ele>461.4</ele>
        <time>2018-06-16T07:00:42Z</time>
      </trkpt>
      <trkpt lat="38.2278700" lon="-3.5880680">
        <ele>461.4</ele>
        <time>2018-06-16T07:00:43Z</time>
      </trkpt>
      <trkpt lat="38.2279170" lon="-3.5880150">
        <ele>461.6</ele>
        <time>2018-06-16T07:00:44Z</time>
      </trkpt>
      <trkpt lat="38.2279660" lon="-3.5879680">
        <ele>461.6</ele>
        <time>2018-06-16T07:00:45Z</time>
      </trkpt>
      <trkpt lat="38.2280150" lon="-3.5879250">
        <ele>462.0</ele>
        <time>2018-06-16T07:00:46Z</time>
      </trkpt>
      <trkpt lat="38.2280620" lon="-3.5878840">
        <ele>462.0</ele>
        <time>2018-06-16T07:00:47Z</time>
      </trkpt>
      <trkpt lat="38.2281090" lon="-3.5878460">
        <ele>462.4</ele>
        <time>2018-06-16T07:00:48Z</time>
      </trkpt>
      <trkpt lat="38.2281520" lon="-3.5878110">
        <ele>462.8</ele>
        <time>2018-06-16T07:00:49Z</time>
      </trkpt>
      <trkpt lat="38.2281940" lon="-3.5877770">
        <ele>463.0</ele>
        <time>2018-06-16T07:00:50Z</time>
      </trkpt>
      <trkpt lat="38.2282350" lon="-3.5877430">
        <ele>463.4</ele>
        <time>2018-06-16T07:00:51Z</time>
      </trkpt>
      <trkpt lat="38.2282740" lon="-3.5877090">
        <ele>463.6</ele>
        <time>2018-06-16T07:00:52Z</time>
      </trkpt>
      <trkpt lat="38.2283110" lon="-3.5876760">
        <ele>464.0</ele>
        <time>2018-06-16T07:00:53Z</time>
      </trkpt>
      <trkpt lat="38.2283470" lon="-3.5876430">
        <ele>464.2</ele>
        <time>2018-06-16T07:00:54Z</time>
      </trkpt>
      <trkpt lat="38.2283840" lon="-3.5876120">
        <ele>464.4</ele>
        <time>2018-06-16T07:00:55Z</time>
      </trkpt>
      <trkpt lat="38.2284200" lon="-3.5875810">
        <ele>464.6</ele>
        <time>2018-06-16T07:00:56Z</time>
      </trkpt>
      <trkpt lat="38.2284540" lon="-3.5875490">
        <ele>465.0</ele>
        <time>2018-06-16T07:00:57Z</time>
      </trkpt>
      <trkpt lat="38.2284880" lon="-3.5875170">
        <ele>465.2</ele>
        <time>2018-06-16T07:00:58Z</time>
      </trkpt>
      <trkpt lat="38.2285220" lon="-3.5874870">
        <ele>465.4</ele>
        <time>2018-06-16T07:00:59Z</time>
      </trkpt>
      <trkpt lat="38.2285560" lon="-3.5874570">
        <ele>465.6</ele>
        <time>2018-06-16T07:01:00Z</time>
      </trkpt>
      <trkpt lat="38.2285930" lon="-3.5874280">
        <ele>466.0</ele>
        <time>2018-06-16T07:01:01Z</time>
      </trkpt>
      <trkpt lat="38.2286280" lon="-3.5874000">
        <ele>466.0</ele>
        <time>2018-06-16T07:01:02Z</time>
      </trkpt>
      <trkpt lat="38.2286630" lon="-3.5873720">
        <ele>466.2</ele>
        <time>2018-06-16T07:01:03Z</time>
      </trkpt>
      <trkpt lat="38.2286970" lon="-3.5873420">
        <ele>466.4</ele>
        <time>2018-06-16T07:01:04Z</time>
      </trkpt>
      <trkpt lat="38.2287310" lon="-3.5873110">
        <ele>466.6</ele>
        <time>2018-06-16T07:01:05Z</time>
      </trkpt>
      <trkpt lat="38.2287600" lon="-3.5872780">
        <ele>466.6</ele>
        <time>2018-06-16T07:01:06Z</time>
      </trkpt>
      <trkpt lat="38.2287880" lon="-3.5872440">
        <ele>466.8</ele>
        <time>2018-06-16T07:01:07Z</time>
      </trkpt>
      <trkpt lat="38.2288130" lon="-3.5872070">
        <ele>467.0</ele>
        <time>2018-06-16T07:01:08Z</time>
      </trkpt>
      <trkpt lat="38.2288370" lon="-3.5871680">
        <ele>467.0</ele>
        <time>2018-06-16T07:01:09Z</time>
      </trkpt>
      <trkpt lat="38.2288590" lon="-3.5871280">
        <ele>467.2</ele>
        <time>2018-06-16T07:01:10Z</time>
      </trkpt>
      <trkpt lat="38.2288800" lon="-3.5870870">
        <ele>467.2</ele>
        <time>2018-06-16T07:01:11Z</time>
      </trkpt>
      <trkpt lat="38.2289000" lon="-3.5870450">
        <ele>467.0</ele>
        <time>2018-06-16T07:01:12Z</time>
      </trkpt>
      <trkpt lat="38.2289200" lon="-3.5870010">
        <ele>467.0</ele>
        <time>2018-06-16T07:01:13Z</time>
      </trkpt>
      <trkpt lat="38.2289430" lon="-3.5869560">
        <ele>466.8</ele>
        <time>2018-06-16T07:01:14Z</time>
      </trkpt>
      <trkpt lat="38.2289690" lon="-3.5869090">
        <ele>466.6</ele>
        <time>2018-06-16T07:01:15Z</time>
      </trkpt>
      <trkpt lat="38.2289980" lon="-3.5868610">
        <ele>466.4</ele>
        <time>2018-06-16T07:01:16Z</time>
      </trkpt>
      <trkpt lat="38.2290300" lon="-3.5868130">
        <ele>466.2</ele>
        <time>2018-06-16T07:01:17Z</time>
      </trkpt>
      <trkpt lat="38.2290680" lon="-3.5867640">
        <ele>466.0</ele>
        <time>2018-06-16T07:01:18Z</time>
      </trkpt>
      <trkpt lat="38.2291080" lon="-3.5867160">
        <ele>465.8</ele>
        <time>2018-06-16T07:01:19Z</time>
      </trkpt>
      <trkpt lat="38.2291500" lon="-3.5866670">
        <ele>465.6</ele>
        <time>2018-06-16T07:01:20Z</time>
      </trkpt>
      <trkpt lat="38.2291950" lon="-3.5866200">
        <ele>465.4</ele>
        <time>2018-06-16T07:01:21Z</time>
      </trkpt>
      <trkpt lat="38.2292420" lon="-3.5865730">
        <ele>465.2</ele>
        <time>2018-06-16T07:01:22Z</time>
      </trkpt>
      <trkpt lat="38.2292880" lon="-3.5865260">
        <ele>465.2</ele>
        <time>2018-06-16T07:01:23Z</time>
      </trkpt>
      <trkpt lat="38.2293350" lon="-3.5864810">
        <ele>465.2</ele>
        <time>2018-06-16T07:01:24Z</time>
      </trkpt>
      <trkpt lat="38.2293840" lon="-3.5864370">
        <ele>465.2</ele>
        <time>2018-06-16T07:01:25Z</time>
      </trkpt>
      <trkpt lat="38.2294340" lon="-3.5863930">
        <ele>465.0</ele>
        <time>2018-06-16T07:01:26Z</time>
      </trkpt>
      <trkpt lat="38.2294840" lon="-3.5863490">
        <ele>465.0</ele>
        <time>2018-06-16T07:01:27Z</time>
      </trkpt>
      <trkpt lat="38.2295340" lon="-3.5863040">
        <ele>465.0</ele>
        <time>2018-06-16T07:01:28Z</time>
      </trkpt>
      <trkpt lat="38.2295820" lon="-3.5862600">
        <ele>465.0</ele>
        <time>2018-06-16T07:01:29Z</time>
      </trkpt>
      <trkpt lat="38.2296300" lon="-3.5862170">
        <ele>464.8</ele>
        <time>2018-06-16T07:01:30Z</time>
      </trkpt>
      <trkpt lat="38.2296780" lon="-3.5861740">
        <ele>465.0</ele>
        <time>2018-06-16T07:01:31Z</time>
      </trkpt>
      <trkpt lat="38.2297240" lon="-3.5861310">
        <ele>465.0</ele>
        <time>2018-06-16T07:01:32Z</time>
      </trkpt>
      <trkpt lat="38.2297690" lon="-3.5860870">
        <ele>465.0</ele>
        <time>2018-06-16T07:01:33Z</time>
      </trkpt>
      <trkpt lat="38.2298140" lon="-3.5860440">
        <ele>465.2</ele>
        <time>2018-06-16T07:01:34Z</time>
      </trkpt>
      <trkpt lat="38.2298590" lon="-3.5860030">
        <ele>465.4</ele>
        <time>2018-06-16T07:01:35Z</time>
      </trkpt>
      <trkpt lat="38.2299040" lon="-3.5859630">
        <ele>465.6</ele>
        <time>2018-06-16T07:01:36Z</time>
      </trkpt>
      <trkpt lat="38.2299470" lon="-3.5859240">
        <ele>465.8</ele>
        <time>2018-06-16T07:01:37Z</time>
      </trkpt>
      <trkpt lat="38.2299880" lon="-3.5858850">
        <ele>466.0</ele>
        <time>2018-06-16T07:01:38Z</time>
      </trkpt>
      <trkpt lat="38.2300290" lon="-3.5858470">
        <ele>466.2</ele>
        <time>2018-06-16T07:01:39Z</time>
      </trkpt>
      <trkpt lat="38.2300700" lon="-3.5858110">
        <ele>466.4</ele>
        <time>2018-06-16T07:01:40Z</time>
      </trkpt>
      <trkpt lat="38.2301080" lon="-3.5857750">
        <ele>466.6</ele>
        <time>2018-06-16T07:01:41Z</time>
      </trkpt>
      <trkpt lat="38.2301460" lon="-3.5857380">
        <ele>466.8</ele>
        <time>2018-06-16T07:01:42Z</time>
      </trkpt>
      <trkpt lat="38.2301830" lon="-3.5857020">
        <ele>466.8</ele>
        <time>2018-06-16T07:01:43Z</time>
      </trkpt>
      <trkpt lat="38.2302210" lon="-3.5856690">
        <ele>467.0</ele>
        <time>2018-06-16T07:01:44Z</time>
      </trkpt>
      <trkpt lat="38.2302590" lon="-3.5856360">
        <ele>467.0</ele>
        <time>2018-06-16T07:01:45Z</time>
      </trkpt>
      <trkpt lat="38.2302990" lon="-3.5856060">
        <ele>467.2</ele>
        <time>2018-06-16T07:01:46Z</time>
      </trkpt>
      <trkpt lat="38.2303380" lon="-3.5855770">
        <ele>467.2</ele>
        <time>2018-06-16T07:01:47Z</time>
      </trkpt>
      <trkpt lat="38.2303760" lon="-3.5855490">
        <ele>467.2</ele>
        <time>2018-06-16T07:01:48Z</time>
      </trkpt>
      <trkpt lat="38.2304140" lon="-3.5855240">
        <ele>467.2</ele>
        <time>2018-06-16T07:01:49Z</time>
      </trkpt>
      <trkpt lat="38.2304540" lon="-3.5855000">
        <ele>467.2</ele>
        <time>2018-06-16T07:01:50Z</time>
      </trkpt>
      <trkpt lat="38.2304960" lon="-3.5854780">
        <ele>467.2</ele>
        <time>2018-06-16T07:01:51Z</time>
      </trkpt>
      <trkpt lat="38.2305390" lon="-3.5854550">
        <ele>467.0</ele>
        <time>2018-06-16T07:01:52Z</time>
      </trkpt>
      <trkpt lat="38.2305830" lon="-3.5854310">
        <ele>466.8</ele>
        <time>2018-06-16T07:01:53Z</time>
      </trkpt>
      <trkpt lat="38.2306330" lon="-3.5854080">
        <ele>466.8</ele>
        <time>2018-06-16T07:01:54Z</time>
      </trkpt>
      <trkpt lat="38.2306810" lon="-3.5853820">
        <ele>466.6</ele>
        <time>2018-06-16T07:01:55Z</time>
      </trkpt>
      <trkpt lat="38.2307310" lon="-3.5853550">
        <ele>466.4</ele>
        <time>2018-06-16T07:01:56Z</time>
      </trkpt>
      <trkpt lat="38.2307810" lon="-3.5853290">
        <ele>466.4</ele>
        <time>2018-06-16T07:01:57Z</time>
      </trkpt>
      <trkpt lat="38.2308320" lon="-3.5853040">
        <ele>466.2</ele>
        <time>2018-06-16T07:01:58Z</time>
      </trkpt>
      <trkpt lat="38.2308850" lon="-3.5852770">
        <ele>466.2</ele>
        <time>2018-06-16T07:01:59Z</time>
      </trkpt>
      <trkpt lat="38.2309380" lon="-3.5852480">
        <ele>466.0</ele>
        <time>2018-06-16T07:02:00Z</time>
      </trkpt>
      <trkpt lat="38.2309910" lon="-3.5852180">
        <ele>466.0</ele>
        <time>2018-06-16T07:02:01Z</time>
      </trkpt>
      <trkpt lat="38.2310450" lon="-3.5851910">
        <ele>466.0</ele>
        <time>2018-06-16T07:02:02Z</time>
      </trkpt>
      <trkpt lat="38.2311000" lon="-3.5851660">
        <ele>466.0</ele>
        <time>2018-06-16T07:02:03Z</time>
      </trkpt>
      <trkpt lat="38.2311520" lon="-3.5851400">
        <ele>466.0</ele>
        <time>2018-06-16T07:02:04Z</time>
      </trkpt>
      <trkpt lat="38.2312050" lon="-3.5851150">
        <ele>466.0</ele>
        <time>2018-06-16T07:02:05Z</time>
      </trkpt>
      <trkpt lat="38.2312570" lon="-3.5850910">
        <ele>466.0</ele>
        <time>2018-06-16T07:02:06Z</time>
      </trkpt>
      <trkpt lat="38.2313100" lon="-3.5850690">
        <ele>466.0</ele>
        <time>2018-06-16T07:02:07Z</time>
      </trkpt>
      <trkpt lat="38.2313660" lon="-3.5850470">
        <ele>466.0</ele>
        <time>2018-06-16T07:02:08Z</time>
      </trkpt>
      <trkpt lat="38.2314220" lon="-3.5850280">
        <ele>465.8</ele>
        <time>2018-06-16T07:02:09Z</time>
      </trkpt>
      <trkpt lat="38.2314780" lon="-3.5850110">
        <ele>465.8</ele>
        <time>2018-06-16T07:02:10Z</time>
      </trkpt>
      <trkpt lat="38.2315340" lon="-3.5849940">
        <ele>465.8</ele>
        <time>2018-06-16T07:02:11Z</time>
      </trkpt>
      <trkpt lat="38.2315890" lon="-3.5849770">
        <ele>465.8</ele>
        <time>2018-06-16T07:02:12Z</time>
      </trkpt>
      <trkpt lat="38.2316440" lon="-3.5849580">
        <ele>465.8</ele>
        <time>2018-06-16T07:02:13Z</time>
      </trkpt>
      <trkpt lat="38.2316990" lon="-3.5849390">
        <ele>465.8</ele>
        <time>2018-06-16T07:02:14Z</time>
      </trkpt>
      <trkpt lat="38.2317540" lon="-3.5849240">
        <ele>465.8</ele>
        <time>2018-06-16T07:02:15Z</time>
      </trkpt>
      <trkpt lat="38.2318080" lon="-3.5849080">
        <ele>465.8</ele>
        <time>2018-06-16T07:02:16Z</time>
      </trkpt>
      <trkpt lat="38.2318610" lon="-3.5848920">
        <ele>465.8</ele>
        <time>2018-06-16T07:02:17Z</time>
      </trkpt>
      <trkpt lat="38.2319140" lon="-3.5848780">
        <ele>465.8</ele>
        <time>2018-06-16T07:02:18Z</time>
      </trkpt>
      <trkpt lat="38.2319660" lon="-3.5848630">
        <ele>465.8</ele>
        <time>2018-06-16T07:02:19Z</time>
      </trkpt>
      <trkpt lat="38.2320170" lon="-3.5848460">
        <ele>465.8</ele>
        <time>2018-06-16T07:02:20Z</time>
      </trkpt>
      <trkpt lat="38.2320680" lon="-3.5848300">
        <ele>465.6</ele>
        <time>2018-06-16T07:02:21Z</time>
      </trkpt>
      <trkpt lat="38.2321190" lon="-3.5848130">
        <ele>465.6</ele>
        <time>2018-06-16T07:02:22Z</time>
      </trkpt>
      <trkpt lat="38.2321710" lon="-3.5847960">
        <ele>465.8</ele>
        <time>2018-06-16T07:02:23Z</time>
      </trkpt>
      <trkpt lat="38.2322220" lon="-3.5847800">
        <ele>465.6</ele>
        <time>2018-06-16T07:02:24Z</time>
      </trkpt>
      <trkpt lat="38.2322720" lon="-3.5847630">
        <ele>465.8</ele>
        <time>2018-06-16T07:02:25Z</time>
      </trkpt>
      <trkpt lat="38.2323210" lon="-3.5847460">
        <ele>465.8</ele>
        <time>2018-06-16T07:02:26Z</time>
      </trkpt>
      <trkpt lat="38.2323700" lon="-3.5847310">
        <ele>465.6</ele>
        <time>2018-06-16T07:02:27Z</time>
      </trkpt>
      <trkpt lat="38.2324190" lon="-3.5847160">
        <ele>465.8</ele>
        <time>2018-06-16T07:02:28Z</time>
      </trkpt>
      <trkpt lat="38.2324690" lon="-3.5847010">
        <ele>465.8</ele>
        <time>2018-06-16T07:02:29Z</time>
      </trkpt>
      <trkpt lat="38.2325180" lon="-3.5846830">
        <ele>465.8</ele>
        <time>2018-06-16T07:02:30Z</time>
      </trkpt>
      <trkpt lat="38.2325690" lon="-3.5846650">
        <ele>465.8</ele>
        <time>2018-06-16T07:02:31Z</time>
      </trkpt>
      <trkpt lat="38.2326210" lon="-3.5846480">
        <ele>465.8</ele>
        <time>2018-06-16T07:02:32Z</time>
      </trkpt>
      <trkpt lat="38.2326750" lon="-3.5846340">
        <ele>465.8</ele>
        <time>2018-06-16T07:02:33Z</time>
      </trkpt>
      <trkpt lat="38.2327270" lon="-3.5846180">
        <ele>465.8</ele>
        <time>2018-06-16T07:02:34Z</time>
      </trkpt>
      <trkpt lat="38.2327780" lon="-3.5846000">
        <ele>465.8</ele>
        <time>2018-06-16T07:02:35Z</time>
      </trkpt>
      <trkpt lat="38.2328300" lon="-3.5845830">
        <ele>466.0</ele>
        <time>2018-06-16T07:02:36Z</time>
      </trkpt>
      <trkpt lat="38.2328810" lon="-3.5845690">
        <ele>466.0</ele>
        <time>2018-06-16T07:02:37Z</time>
      </trkpt>
      <trkpt lat="38.2329300" lon="-3.5845530">
        <ele>466.2</ele>
        <time>2018-06-16T07:02:38Z</time>
      </trkpt>
      <trkpt lat="38.2329800" lon="-3.5845370">
        <ele>466.2</ele>
        <time>2018-06-16T07:02:39Z</time>
      </trkpt>
      <trkpt lat="38.2330290" lon="-3.5845200">
        <ele>466.2</ele>
        <time>2018-06-16T07:02:40Z</time>
      </trkpt>
      <trkpt lat="38.2330800" lon="-3.5845040">
        <ele>466.2</ele>
        <time>2018-06-16T07:02:41Z</time>
      </trkpt>
      <trkpt lat="38.2331300" lon="-3.5844870">
        <ele>466.2</ele>
        <time>2018-06-16T07:02:42Z</time>
      </trkpt>
      <trkpt lat="38.2331810" lon="-3.5844720">
        <ele>466.4</ele>
        <time>2018-06-16T07:02:43Z</time>
      </trkpt>
      <trkpt lat="38.2332300" lon="-3.5844560">
        <ele>466.4</ele>
        <time>2018-06-16T07:02:44Z</time>
      </trkpt>
      <trkpt lat="38.2332810" lon="-3.5844390">
        <ele>466.4</ele>
        <time>2018-06-16T07:02:45Z</time>
      </trkpt>
      <trkpt lat="38.2333310" lon="-3.5844200">
        <ele>466.6</ele>
        <time>2018-06-16T07:02:46Z</time>
      </trkpt>
      <trkpt lat="38.2333810" lon="-3.5844030">
        <ele>466.6</ele>
        <time>2018-06-16T07:02:47Z</time>
      </trkpt>
      <trkpt lat="38.2334300" lon="-3.5843850">
        <ele>466.8</ele>
        <time>2018-06-16T07:02:48Z</time>
      </trkpt>
      <trkpt lat="38.2334800" lon="-3.5843680">
        <ele>466.8</ele>
        <time>2018-06-16T07:02:49Z</time>
      </trkpt>
      <trkpt lat="38.2335280" lon="-3.5843500">
        <ele>467.0</ele>
        <time>2018-06-16T07:02:50Z</time>
      </trkpt>
      <trkpt lat="38.2335760" lon="-3.5843330">
        <ele>467.0</ele>
        <time>2018-06-16T07:02:51Z</time>
      </trkpt>
      <trkpt lat="38.2336240" lon="-3.5843170">
        <ele>467.0</ele>
        <time>2018-06-16T07:02:52Z</time>
      </trkpt>
      <trkpt lat="38.2336700" lon="-3.5843020">
        <ele>467.0</ele>
        <time>2018-06-16T07:02:53Z</time>
      </trkpt>
      <trkpt lat="38.2337130" lon="-3.5842860">
        <ele>467.2</ele>
        <time>2018-06-16T07:02:54Z</time>
      </trkpt>
      <trkpt lat="38.2337570" lon="-3.5842680">
        <ele>467.2</ele>
        <time>2018-06-16T07:02:55Z</time>
      </trkpt>
      <trkpt lat="38.2338010" lon="-3.5842510">
        <ele>467.4</ele>
        <time>2018-06-16T07:02:56Z</time>
      </trkpt>
      <trkpt lat="38.2338460" lon="-3.5842340">
        <ele>467.4</ele>
        <time>2018-06-16T07:02:57Z</time>
      </trkpt>
      <trkpt lat="38.2338910" lon="-3.5842170">
        <ele>467.6</ele>
        <time>2018-06-16T07:02:58Z</time>
      </trkpt>
      <trkpt lat="38.2339360" lon="-3.5842000">
        <ele>467.4</ele>
        <time>2018-06-16T07:02:59Z</time>
      </trkpt>
      <trkpt lat="38.2339810" lon="-3.5841810">
        <ele>467.6</ele>
        <time>2018-06-16T07:03:00Z</time>
      </trkpt>
      <trkpt lat="38.2340270" lon="-3.5841630">
        <ele>467.6</ele>
        <time>2018-06-16T07:03:01Z</time>
      </trkpt>
      <trkpt lat="38.2340750" lon="-3.5841460">
        <ele>467.6</ele>
        <time>2018-06-16T07:03:02Z</time>
      </trkpt>
      <trkpt lat="38.2341220" lon="-3.5841270">
        <ele>467.6</ele>
        <time>2018-06-16T07:03:03Z</time>
      </trkpt>
      <trkpt lat="38.2341690" lon="-3.5841090">
        <ele>467.8</ele>
        <time>2018-06-16T07:03:04Z</time>
      </trkpt>
      <trkpt lat="38.2342160" lon="-3.5840910">
        <ele>467.8</ele>
        <time>2018-06-16T07:03:05Z</time>
      </trkpt>
      <trkpt lat="38.2342630" lon="-3.5840730">
        <ele>467.8</ele>
        <time>2018-06-16T07:03:06Z</time>
      </trkpt>
      <trkpt lat="38.2343110" lon="-3.5840540">
        <ele>467.8</ele>
        <time>2018-06-16T07:03:07Z</time>
      </trkpt>
      <trkpt lat="38.2343590" lon="-3.5840370">
        <ele>468.0</ele>
        <time>2018-06-16T07:03:08Z</time>
      </trkpt>
      <trkpt lat="38.2344060" lon="-3.5840180">
        <ele>468.2</ele>
        <time>2018-06-16T07:03:09Z</time>
      </trkpt>
      <trkpt lat="38.2344520" lon="-3.5839990">
        <ele>468.2</ele>
        <time>2018-06-16T07:03:10Z</time>
      </trkpt>
      <trkpt lat="38.2345000" lon="-3.5839810">
        <ele>468.2</ele>
        <time>2018-06-16T07:03:11Z</time>
      </trkpt>
      <trkpt lat="38.2345470" lon="-3.5839610">
        <ele>468.2</ele>
        <time>2018-06-16T07:03:12Z</time>
      </trkpt>
      <trkpt lat="38.2345920" lon="-3.5839400">
        <ele>468.4</ele>
        <time>2018-06-16T07:03:13Z</time>
      </trkpt>
      <trkpt lat="38.2346370" lon="-3.5839170">
        <ele>468.6</ele>
        <time>2018-06-16T07:03:14Z</time>
      </trkpt>
      <trkpt lat="38.2346820" lon="-3.5838940">
        <ele>468.6</ele>
        <time>2018-06-16T07:03:15Z</time>
      </trkpt>
      <trkpt lat="38.2347250" lon="-3.5838690">
        <ele>468.8</ele>
        <time>2018-06-16T07:03:16Z</time>
      </trkpt>
      <trkpt lat="38.2347680" lon="-3.5838430">
        <ele>468.8</ele>
        <time>2018-06-16T07:03:17Z</time>
      </trkpt>
      <trkpt lat="38.2348110" lon="-3.5838160">
        <ele>469.0</ele>
        <time>2018-06-16T07:03:18Z</time>
      </trkpt>
      <trkpt lat="38.2348520" lon="-3.5837890">
        <ele>469.0</ele>
        <time>2018-06-16T07:03:19Z</time>
      </trkpt>
      <trkpt lat="38.2348960" lon="-3.5837620">
        <ele>469.2</ele>
        <time>2018-06-16T07:03:20Z</time>
      </trkpt>
      <trkpt lat="38.2349390" lon="-3.5837340">
        <ele>469.2</ele>
        <time>2018-06-16T07:03:21Z</time>
      </trkpt>
      <trkpt lat="38.2349810" lon="-3.5837070">
        <ele>469.4</ele>
        <time>2018-06-16T07:03:22Z</time>
      </trkpt>
      <trkpt lat="38.2350240" lon="-3.5836790">
        <ele>469.4</ele>
        <time>2018-06-16T07:03:23Z</time>
      </trkpt>
      <trkpt lat="38.2350660" lon="-3.5836520">
        <ele>469.6</ele>
        <time>2018-06-16T07:03:24Z</time>
      </trkpt>
      <trkpt lat="38.2351080" lon="-3.5836250">
        <ele>469.8</ele>
        <time>2018-06-16T07:03:25Z</time>
      </trkpt>
      <trkpt lat="38.2351500" lon="-3.5835970">
        <ele>469.8</ele>
        <time>2018-06-16T07:03:26Z</time>
      </trkpt>
      <trkpt lat="38.2351920" lon="-3.5835690">
        <ele>469.8</ele>
        <time>2018-06-16T07:03:27Z</time>
      </trkpt>
      <trkpt lat="38.2352330" lon="-3.5835420">
        <ele>470.0</ele>
        <time>2018-06-16T07:03:28Z</time>
      </trkpt>
      <trkpt lat="38.2352730" lon="-3.5835160">
        <ele>470.2</ele>
        <time>2018-06-16T07:03:29Z</time>
      </trkpt>
      <trkpt lat="38.2353120" lon="-3.5834890">
        <ele>470.2</ele>
        <time>2018-06-16T07:03:30Z</time>
      </trkpt>
      <trkpt lat="38.2353520" lon="-3.5834620">
        <ele>470.2</ele>
        <time>2018-06-16T07:03:31Z</time>
      </trkpt>
      <trkpt lat="38.2353920" lon="-3.5834360">
        <ele>470.4</ele>
        <time>2018-06-16T07:03:32Z</time>
      </trkpt>
      <trkpt lat="38.2354310" lon="-3.5834100">
        <ele>470.6</ele>
        <time>2018-06-16T07:03:33Z</time>
      </trkpt>
      <trkpt lat="38.2354710" lon="-3.5833850">
        <ele>470.6</ele>
        <time>2018-06-16T07:03:34Z</time>
      </trkpt>
      <trkpt lat="38.2355100" lon="-3.5833580">
        <ele>470.8</ele>
        <time>2018-06-16T07:03:35Z</time>
      </trkpt>
      <trkpt lat="38.2355500" lon="-3.5833310">
        <ele>470.8</ele>
        <time>2018-06-16T07:03:36Z</time>
      </trkpt>
      <trkpt lat="38.2355890" lon="-3.5833030">
        <ele>470.8</ele>
        <time>2018-06-16T07:03:37Z</time>
      </trkpt>
      <trkpt lat="38.2356290" lon="-3.5832750">
        <ele>471.0</ele>
        <time>2018-06-16T07:03:38Z</time>
      </trkpt>
      <trkpt lat="38.2356700" lon="-3.5832480">
        <ele>471.0</ele>
        <time>2018-06-16T07:03:39Z</time>
      </trkpt>
      <trkpt lat="38.2357090" lon="-3.5832190">
        <ele>471.2</ele>
        <time>2018-06-16T07:03:40Z</time>
      </trkpt>
      <trkpt lat="38.2357490" lon="-3.5831920">
        <ele>471.2</ele>
        <time>2018-06-16T07:03:41Z</time>
      </trkpt>
      <trkpt lat="38.2357900" lon="-3.5831660">
        <ele>471.2</ele>
        <time>2018-06-16T07:03:42Z</time>
      </trkpt>
      <trkpt lat="38.2358300" lon="-3.5831400">
        <ele>471.4</ele>
        <time>2018-06-16T07:03:43Z</time>
      </trkpt>
      <trkpt lat="38.2358680" lon="-3.5831140">
        <ele>471.4</ele>
        <time>2018-06-16T07:03:44Z</time>
      </trkpt>
      <trkpt lat="38.2359050" lon="-3.5830870">
        <ele>471.6</ele>
        <time>2018-06-16T07:03:45Z</time>
      </trkpt>
      <trkpt lat="38.2359420" lon="-3.5830600">
        <ele>471.6</ele>
        <time>2018-06-16T07:03:46Z</time>
      </trkpt>
      <trkpt lat="38.2359790" lon="-3.5830340">
        <ele>471.8</ele>
        <time>2018-06-16T07:03:47Z</time>
      </trkpt>
      <trkpt lat="38.2360160" lon="-3.5830080">
        <ele>471.8</ele>
        <time>2018-06-16T07:03:48Z</time>
      </trkpt>
      <trkpt lat="38.2360530" lon="-3.5829830">
        <ele>472.0</ele>
        <time>2018-06-16T07:03:49Z</time>
      </trkpt>
      <trkpt lat="38.2360890" lon="-3.5829580">
        <ele>472.2</ele>
        <time>2018-06-16T07:03:50Z</time>
      </trkpt>
      <trkpt lat="38.2361250" lon="-3.5829340">
        <ele>472.2</ele>
        <time>2018-06-16T07:03:51Z</time>
      </trkpt>
      <trkpt lat="38.2361610" lon="-3.5829100">
        <ele>472.4</ele>
        <time>2018-06-16T07:03:52Z</time>
      </trkpt>
      <trkpt lat="38.2361990" lon="-3.5828870">
        <ele>472.6</ele>
        <time>2018-06-16T07:03:53Z</time>
      </trkpt>
      <trkpt lat="38.2362360" lon="-3.5828650">
        <ele>472.6</ele>
        <time>2018-06-16T07:03:54Z</time>
      </trkpt>
      <trkpt lat="38.2362720" lon="-3.5828450">
        <ele>472.8</ele>
        <time>2018-06-16T07:03:55Z</time>
      </trkpt>
      <trkpt lat="38.2363080" lon="-3.5828270">
        <ele>472.8</ele>
        <time>2018-06-16T07:03:56Z</time>
      </trkpt>
      <trkpt lat="38.2363450" lon="-3.5828080">
        <ele>473.0</ele>
        <time>2018-06-16T07:03:57Z</time>
      </trkpt>
      <trkpt lat="38.2363820" lon="-3.5827920">
        <ele>473.2</ele>
        <time>2018-06-16T07:03:58Z</time>
      </trkpt>
      <trkpt lat="38.2364190" lon="-3.5827760">
        <ele>473.2</ele>
        <time>2018-06-16T07:03:59Z</time>
      </trkpt>
      <trkpt lat="38.2364570" lon="-3.5827590">
        <ele>473.4</ele>
        <time>2018-06-16T07:04:00Z</time>
      </trkpt>
      <trkpt lat="38.2364950" lon="-3.5827450">
        <ele>473.6</ele>
        <time>2018-06-16T07:04:01Z</time>
      </trkpt>
      <trkpt lat="38.2365330" lon="-3.5827330">
        <ele>473.6</ele>
        <time>2018-06-16T07:04:02Z</time>
      </trkpt>
      <trkpt lat="38.2365720" lon="-3.5827190">
        <ele>473.8</ele>
        <time>2018-06-16T07:04:03Z</time>
      </trkpt>
      <trkpt lat="38.2366100" lon="-3.5827060">
        <ele>474.0</ele>
        <time>2018-06-16T07:04:04Z</time>
      </trkpt>
      <trkpt lat="38.2366490" lon="-3.5826950">
        <ele>474.0</ele>
        <time>2018-06-16T07:04:05Z</time>
      </trkpt>
      <trkpt lat="38.2366870" lon="-3.5826840">
        <ele>474.2</ele>
        <time>2018-06-16T07:04:06Z</time>
      </trkpt>
      <trkpt lat="38.2367230" lon="-3.5826740">
        <ele>474.4</ele>
        <time>2018-06-16T07:04:07Z</time>
      </trkpt>
      <trkpt lat="38.2367600" lon="-3.5826640">
        <ele>474.4</ele>
        <time>2018-06-16T07:04:08Z</time>
      </trkpt>
      <trkpt lat="38.2367960" lon="-3.5826520">
        <ele>474.6</ele>
        <time>2018-06-16T07:04:09Z</time>
      </trkpt>
      <trkpt lat="38.2368340" lon="-3.5826380">
        <ele>474.6</ele>
        <time>2018-06-16T07:04:10Z</time>
      </trkpt>
      <trkpt lat="38.2368730" lon="-3.5826230">
        <ele>474.8</ele>
        <time>2018-06-16T07:04:11Z</time>
      </trkpt>
      <trkpt lat="38.2369110" lon="-3.5826080">
        <ele>474.8</ele>
        <time>2018-06-16T07:04:12Z</time>
      </trkpt>
      <trkpt lat="38.2369490" lon="-3.5825950">
        <ele>475.0</ele>
        <time>2018-06-16T07:04:13Z</time>
      </trkpt>
      <trkpt lat="38.2369860" lon="-3.5825820">
        <ele>475.0</ele>
        <time>2018-06-16T07:04:14Z</time>
      </trkpt>
      <trkpt lat="38.2370240" lon="-3.5825690">
        <ele>475.2</ele>
        <time>2018-06-16T07:04:15Z</time>
      </trkpt>
      <trkpt lat="38.2370620" lon="-3.5825570">
        <ele>475.4</ele>
        <time>2018-06-16T07:04:16Z</time>
      </trkpt>
      <trkpt lat="38.2370990" lon="-3.5825450">
        <ele>475.4</ele>
        <time>2018-06-16T07:04:17Z</time>
      </trkpt>
      <trkpt lat="38.2371370" lon="-3.5825330">
        <ele>475.6</ele>
        <time>2018-06-16T07:04:18Z</time>
      </trkpt>
      <trkpt lat="38.2371750" lon="-3.5825190">
        <ele>475.6</ele>
        <time>2018-06-16T07:04:19Z</time>
      </trkpt>
      <trkpt lat="38.2372130" lon="-3.5825060">
        <ele>475.8</ele>
        <time>2018-06-16T07:04:20Z</time>
      </trkpt>
      <trkpt lat="38.2372500" lon="-3.5824930">
        <ele>475.8</ele>
        <time>2018-06-16T07:04:21Z</time>
      </trkpt>
      <trkpt lat="38.2372870" lon="-3.5824800">
        <ele>476.0</ele>
        <time>2018-06-16T07:04:22Z</time>
      </trkpt>
      <trkpt lat="38.2373240" lon="-3.5824690">
        <ele>476.2</ele>
        <time>2018-06-16T07:04:23Z</time>
      </trkpt>
      <trkpt lat="38.2373590" lon="-3.5824580">
        <ele>476.4</ele>
        <time>2018-06-16T07:04:24Z</time>
      </trkpt>
      <trkpt lat="38.2373940" lon="-3.5824470">
        <ele>476.4</ele>
        <time>2018-06-16T07:04:25Z</time>
      </trkpt>
      <trkpt lat="38.2374290" lon="-3.5824340">
        <ele>476.6</ele>
        <time>2018-06-16T07:04:26Z</time>
      </trkpt>
      <trkpt lat="38.2374640" lon="-3.5824220">
        <ele>476.6</ele>
        <time>2018-06-16T07:04:27Z</time>
      </trkpt>
      <trkpt lat="38.2374980" lon="-3.5824100">
        <ele>476.8</ele>
        <time>2018-06-16T07:04:28Z</time>
      </trkpt>
      <trkpt lat="38.2375320" lon="-3.5823990">
        <ele>476.8</ele>
        <time>2018-06-16T07:04:29Z</time>
      </trkpt>
      <trkpt lat="38.2375660" lon="-3.5823880">
        <ele>477.2</ele>
        <time>2018-06-16T07:04:30Z</time>
      </trkpt>
      <trkpt lat="38.2376020" lon="-3.5823750">
        <ele>477.2</ele>
        <time>2018-06-16T07:04:31Z</time>
      </trkpt>
      <trkpt lat="38.2376370" lon="-3.5823630">
        <ele>477.4</ele>
        <time>2018-06-16T07:04:32Z</time>
      </trkpt>
      <trkpt lat="38.2376720" lon="-3.5823510">
        <ele>477.6</ele>
        <time>2018-06-16T07:04:33Z</time>
      </trkpt>
      <trkpt lat="38.2377080" lon="-3.5823370">
        <ele>477.6</ele>
        <time>2018-06-16T07:04:34Z</time>
      </trkpt>
      <trkpt lat="38.2377440" lon="-3.5823250">
        <ele>477.6</ele>
        <time>2018-06-16T07:04:35Z</time>
      </trkpt>
      <trkpt lat="38.2377790" lon="-3.5823140">
        <ele>477.8</ele>
        <time>2018-06-16T07:04:36Z</time>
      </trkpt>
      <trkpt lat="38.2378160" lon="-3.5823030">
        <ele>478.0</ele>
        <time>2018-06-16T07:04:37Z</time>
      </trkpt>
      <trkpt lat="38.2378520" lon="-3.5822900">
        <ele>478.0</ele>
        <time>2018-06-16T07:04:38Z</time>
      </trkpt>
      <trkpt lat="38.2378880" lon="-3.5822780">
        <ele>478.2</ele>
        <time>2018-06-16T07:04:39Z</time>
      </trkpt>
      <trkpt lat="38.2379230" lon="-3.5822660">
        <ele>478.4</ele>
        <time>2018-06-16T07:04:40Z</time>
      </trkpt>
      <trkpt lat="38.2379580" lon="-3.5822530">
        <ele>478.4</ele>
        <time>2018-06-16T07:04:41Z</time>
      </trkpt>
      <trkpt lat="38.2379920" lon="-3.5822410">
        <ele>478.6</ele>
        <time>2018-06-16T07:04:42Z</time>
      </trkpt>
      <trkpt lat="38.2380280" lon="-3.5822280">
        <ele>478.8</ele>
        <time>2018-06-16T07:04:43Z</time>
      </trkpt>
      <trkpt lat="38.2380640" lon="-3.5822160">
        <ele>478.8</ele>
        <time>2018-06-16T07:04:44Z</time>
      </trkpt>
      <trkpt lat="38.2380990" lon="-3.5822050">
        <ele>479.0</ele>
        <time>2018-06-16T07:04:45Z</time>
      </trkpt>
      <trkpt lat="38.2381340" lon="-3.5821920">
        <ele>479.2</ele>
        <time>2018-06-16T07:04:46Z</time>
      </trkpt>
      <trkpt lat="38.2381680" lon="-3.5821810">
        <ele>479.4</ele>
        <time>2018-06-16T07:04:47Z</time>
      </trkpt>
      <trkpt lat="38.2382020" lon="-3.5821690">
        <ele>479.4</ele>
        <time>2018-06-16T07:04:48Z</time>
      </trkpt>
      <trkpt lat="38.2382370" lon="-3.5821590">
        <ele>479.6</ele>
        <time>2018-06-16T07:04:49Z</time>
      </trkpt>
      <trkpt lat="38.2382720" lon="-3.5821470">
        <ele>479.6</ele>
        <time>2018-06-16T07:04:50Z</time>
      </trkpt>
      <trkpt lat="38.2383060" lon="-3.5821370">
        <ele>479.8</ele>
        <time>2018-06-16T07:04:51Z</time>
      </trkpt>
      <trkpt lat="38.2383380" lon="-3.5821260">
        <ele>480.0</ele>
        <time>2018-06-16T07:04:52Z</time>
      </trkpt>
      <trkpt lat="38.2383690" lon="-3.5821160">
        <ele>480.2</ele>
        <time>2018-06-16T07:04:53Z</time>
      </trkpt>
      <trkpt lat="38.2384000" lon="-3.5821080">
        <ele>480.4</ele>
        <time>2018-06-16T07:04:54Z</time>
      </trkpt>
      <trkpt lat="38.2384300" lon="-3.5821000">
        <ele>480.6</ele>
        <time>2018-06-16T07:04:55Z</time>
      </trkpt>
      <trkpt lat="38.2384580" lon="-3.5820910">
        <ele>480.8</ele>
        <time>2018-06-16T07:04:56Z</time>
      </trkpt>
      <trkpt lat="38.2384850" lon="-3.5820830">
        <ele>481.0</ele>
        <time>2018-06-16T07:04:57Z</time>
      </trkpt>
      <trkpt lat="38.2385140" lon="-3.5820740">
        <ele>481.2</ele>
        <time>2018-06-16T07:04:58Z</time>
      </trkpt>
      <trkpt lat="38.2385420" lon="-3.5820630">
        <ele>481.4</ele>
        <time>2018-06-16T07:04:59Z</time>
      </trkpt>
      <trkpt lat="38.2385720" lon="-3.5820510">
        <ele>481.6</ele>
        <time>2018-06-16T07:05:00Z</time>
      </trkpt>
      <trkpt lat="38.2386030" lon="-3.5820380">
        <ele>481.8</ele>
        <time>2018-06-16T07:05:01Z</time>
      </trkpt>
      <trkpt lat="38.2386330" lon="-3.5820270">
        <ele>482.0</ele>
        <time>2018-06-16T07:05:02Z</time>
      </trkpt>
      <trkpt lat="38.2386650" lon="-3.5820160">
        <ele>482.4</ele>
        <time>2018-06-16T07:05:03Z</time>
      </trkpt>
      <trkpt lat="38.2386980" lon="-3.5820060">
        <ele>482.6</ele>
        <time>2018-06-16T07:05:04Z</time>
      </trkpt>
      <trkpt lat="38.2387320" lon="-3.5819940">
        <ele>482.6</ele>
        <time>2018-06-16T07:05:05Z</time>
      </trkpt>
      <trkpt lat="38.2387650" lon="-3.5819820">
        <ele>483.0</ele>
        <time>2018-06-16T07:05:06Z</time>
      </trkpt>
      <trkpt lat="38.2387970" lon="-3.5819710">
        <ele>483.2</ele>
        <time>2018-06-16T07:05:07Z</time>
      </trkpt>
      <trkpt lat="38.2388300" lon="-3.5819600">
        <ele>483.4</ele>
        <time>2018-06-16T07:05:08Z</time>
      </trkpt>
      <trkpt lat="38.2388610" lon="-3.5819490">
        <ele>483.4</ele>
        <time>2018-06-16T07:05:09Z</time>
      </trkpt>
      <trkpt lat="38.2388930" lon="-3.5819380">
        <ele>483.8</ele>
        <time>2018-06-16T07:05:10Z</time>
      </trkpt>
      <trkpt lat="38.2389250" lon="-3.5819270">
        <ele>484.0</ele>
        <time>2018-06-16T07:05:11Z</time>
      </trkpt>
      <trkpt lat="38.2389580" lon="-3.5819150">
        <ele>484.2</ele>
        <time>2018-06-16T07:05:12Z</time>
      </trkpt>
      <trkpt lat="38.2389890" lon="-3.5819040">
        <ele>484.4</ele>
        <time>2018-06-16T07:05:13Z</time>
      </trkpt>
      <trkpt lat="38.2390180" lon="-3.5818910">
        <ele>484.6</ele>
        <time>2018-06-16T07:05:14Z</time>
      </trkpt>
      <trkpt lat="38.2390490" lon="-3.5818770">
        <ele>484.8</ele>
        <time>2018-06-16T07:05:15Z</time>
      </trkpt>
      <trkpt lat="38.2390800" lon="-3.5818650">
        <ele>485.0</ele>
        <time>2018-06-16T07:05:16Z</time>
      </trkpt>
      <trkpt lat="38.2391120" lon="-3.5818530">
        <ele>485.2</ele>
        <time>2018-06-16T07:05:17Z</time>
      </trkpt>
      <trkpt lat="38.2391430" lon="-3.5818410">
        <ele>485.4</ele>
        <time>2018-06-16T07:05:18Z</time>
      </trkpt>
      <trkpt lat="38.2391740" lon="-3.5818300">
        <ele>485.6</ele>
        <time>2018-06-16T07:05:19Z</time>
      </trkpt>
      <trkpt lat="38.2392050" lon="-3.5818200">
        <ele>485.8</ele>
        <time>2018-06-16T07:05:20Z</time>
      </trkpt>
      <trkpt lat="38.2392360" lon="-3.5818110">
        <ele>486.0</ele>
        <time>2018-06-16T07:05:21Z</time>
      </trkpt>
      <trkpt lat="38.2392680" lon="-3.5818030">
        <ele>486.2</ele>
        <time>2018-06-16T07:05:22Z</time>
      </trkpt>
      <trkpt lat="38.2392990" lon="-3.5817960">
        <ele>486.4</ele>
        <time>2018-06-16T07:05:23Z</time>
      </trkpt>
      <trkpt lat="38.2393300" lon="-3.5817900">
        <ele>486.6</ele>
        <time>2018-06-16T07:05:24Z</time>
      </trkpt>
      <trkpt lat="38.2393590" lon="-3.5817840">
        <ele>486.8</ele>
        <time>2018-06-16T07:05:25Z</time>
      </trkpt>
      <trkpt lat="38.2394050" lon="-3.5817740">
        <ele>487.2</ele>
        <time>2018-06-16T07:05:26Z</time>
      </trkpt>
      <trkpt lat="38.2394200" lon="-3.5817700">
        <ele>487.4</ele>
        <time>2018-06-16T07:05:27Z</time>
      </trkpt>
      <trkpt lat="38.2394510" lon="-3.5817600">
        <ele>487.6</ele>
        <time>2018-06-16T07:05:28Z</time>
      </trkpt>
      <trkpt lat="38.2394840" lon="-3.5817510">
        <ele>487.8</ele>
        <time>2018-06-16T07:05:29Z</time>
      </trkpt>
      <trkpt lat="38.2395150" lon="-3.5817390">
        <ele>488.0</ele>
        <time>2018-06-16T07:05:30Z</time>
      </trkpt>
      <trkpt lat="38.2395450" lon="-3.5817260">
        <ele>488.2</ele>
        <time>2018-06-16T07:05:31Z</time>
      </trkpt>
      <trkpt lat="38.2395720" lon="-3.5817100">
        <ele>488.4</ele>
        <time>2018-06-16T07:05:32Z</time>
      </trkpt>
      <trkpt lat="38.2396010" lon="-3.5816970">
        <ele>488.6</ele>
        <time>2018-06-16T07:05:33Z</time>
      </trkpt>
      <trkpt lat="38.2396280" lon="-3.5816850">
        <ele>489.0</ele>
        <time>2018-06-16T07:05:34Z</time>
      </trkpt>
      <trkpt lat="38.2396540" lon="-3.5816740">
        <ele>489.2</ele>
        <time>2018-06-16T07:05:35Z</time>
      </trkpt>
      <trkpt lat="38.2396810" lon="-3.5816670">
        <ele>489.4</ele>
        <time>2018-06-16T07:05:36Z</time>
      </trkpt>
      <trkpt lat="38.2397070" lon="-3.5816580">
        <ele>489.6</ele>
        <time>2018-06-16T07:05:37Z</time>
      </trkpt>
      <trkpt lat="38.2397330" lon="-3.5816490">
        <ele>489.8</ele>
        <time>2018-06-16T07:05:38Z</time>
      </trkpt>
      <trkpt lat="38.2397590" lon="-3.5816440">
        <ele>489.8</ele>
        <time>2018-06-16T07:05:39Z</time>
      </trkpt>
      <trkpt lat="38.2397860" lon="-3.5816370">
        <ele>490.0</ele>
        <time>2018-06-16T07:05:40Z</time>
      </trkpt>
      <trkpt lat="38.2398090" lon="-3.5816240">
        <ele>490.2</ele>
        <time>2018-06-16T07:05:41Z</time>
      </trkpt>
      <trkpt lat="38.2398340" lon="-3.5816130">
        <ele>490.4</ele>
        <time>2018-06-16T07:05:42Z</time>
      </trkpt>
      <trkpt lat="38.2398600" lon="-3.5816030">
        <ele>490.6</ele>
        <time>2018-06-16T07:05:43Z</time>
      </trkpt>
      <trkpt lat="38.2398870" lon="-3.5815980">
        <ele>490.8</ele>
        <time>2018-06-16T07:05:44Z</time>
      </trkpt>
      <trkpt lat="38.2399140" lon="-3.5815940">
        <ele>491.0</ele>
        <time>2018-06-16T07:05:45Z</time>
      </trkpt>
      <trkpt lat="38.2399420" lon="-3.5815880">
        <ele>491.2</ele>
        <time>2018-06-16T07:05:46Z</time>
      </trkpt>
      <trkpt lat="38.2399710" lon="-3.5815780">
        <ele>491.4</ele>
        <time>2018-06-16T07:05:47Z</time>
      </trkpt>
      <trkpt lat="38.2400020" lon="-3.5815640">
        <ele>491.4</ele>
        <time>2018-06-16T07:05:48Z</time>
      </trkpt>
      <trkpt lat="38.2400300" lon="-3.5815480">
        <ele>491.6</ele>
        <time>2018-06-16T07:05:49Z</time>
      </trkpt>
      <trkpt lat="38.2400610" lon="-3.5815350">
        <ele>491.6</ele>
        <time>2018-06-16T07:05:50Z</time>
      </trkpt>
      <trkpt lat="38.2400900" lon="-3.5815250">
        <ele>491.8</ele>
        <time>2018-06-16T07:05:51Z</time>
      </trkpt>
      <trkpt lat="38.2401180" lon="-3.5815150">
        <ele>492.0</ele>
        <time>2018-06-16T07:05:52Z</time>
      </trkpt>
      <trkpt lat="38.2401450" lon="-3.5815070">
        <ele>492.0</ele>
        <time>2018-06-16T07:05:53Z</time>
      </trkpt>
      <trkpt lat="38.2401710" lon="-3.5814970">
        <ele>492.2</ele>
        <time>2018-06-16T07:05:54Z</time>
      </trkpt>
      <trkpt lat="38.2401980" lon="-3.5814880">
        <ele>492.2</ele>
        <time>2018-06-16T07:05:55Z</time>
      </trkpt>
      <trkpt lat="38.2402240" lon="-3.5814780">
        <ele>492.4</ele>
        <time>2018-06-16T07:05:56Z</time>
      </trkpt>
      <trkpt lat="38.2402510" lon="-3.5814700">
        <ele>492.6</ele>
        <time>2018-06-16T07:05:57Z</time>
      </trkpt>
      <trkpt lat="38.2402780" lon="-3.5814610">
        <ele>492.6</ele>
        <time>2018-06-16T07:05:58Z</time>
      </trkpt>
      <trkpt lat="38.2403060" lon="-3.5814530">
        <ele>492.6</ele>
        <time>2018-06-16T07:05:59Z</time>
      </trkpt>
      <trkpt lat="38.2403350" lon="-3.5814410">
        <ele>492.8</ele>
        <time>2018-06-16T07:06:00Z</time>
      </trkpt>
      <trkpt lat="38.2403610" lon="-3.5814260">
        <ele>492.8</ele>
        <time>2018-06-16T07:06:01Z</time>
      </trkpt>
      <trkpt lat="38.2403840" lon="-3.5814080">
        <ele>493.0</ele>
        <time>2018-06-16T07:06:02Z</time>
      </trkpt>
      <trkpt lat="38.2404030" lon="-3.5813910">
        <ele>493.2</ele>
        <time>2018-06-16T07:06:03Z</time>
      </trkpt>
      <trkpt lat="38.2404250" lon="-3.5813750">
        <ele>493.2</ele>
        <time>2018-06-16T07:06:04Z</time>
      </trkpt>
      <trkpt lat="38.2404430" lon="-3.5813570">
        <ele>493.2</ele>
        <time>2018-06-16T07:06:05Z</time>
      </trkpt>
      <trkpt lat="38.2404580" lon="-3.5813390">
        <ele>493.2</ele>
        <time>2018-06-16T07:06:06Z</time>
      </trkpt>
      <trkpt lat="38.2404820" lon="-3.5813200">
        <ele>493.4</ele>
        <time>2018-06-16T07:06:07Z</time>
      </trkpt>
      <trkpt lat="38.2405050" lon="-3.5812980">
        <ele>493.4</ele>
        <time>2018-06-16T07:06:08Z</time>
      </trkpt>
      <trkpt lat="38.2405210" lon="-3.5812730">
        <ele>493.4</ele>
        <time>2018-06-16T07:06:09Z</time>
      </trkpt>
      <trkpt lat="38.2405420" lon="-3.5812490">
        <ele>493.4</ele>
        <time>2018-06-16T07:06:10Z</time>
      </trkpt>
      <trkpt lat="38.2405610" lon="-3.5812210">
        <ele>493.6</ele>
        <time>2018-06-16T07:06:11Z</time>
      </trkpt>
      <trkpt lat="38.2405770" lon="-3.5811900">
        <ele>493.6</ele>
        <time>2018-06-16T07:06:12Z</time>
      </trkpt>
      <trkpt lat="38.2405930" lon="-3.5811570">
        <ele>493.6</ele>
        <time>2018-06-16T07:06:13Z</time>
      </trkpt>
      <trkpt lat="38.2406110" lon="-3.5811250">
        <ele>493.6</ele>
        <time>2018-06-16T07:06:14Z</time>
      </trkpt>
      <trkpt lat="38.2406280" lon="-3.5810920">
        <ele>493.6</ele>
        <time>2018-06-16T07:06:15Z</time>
      </trkpt>
      <trkpt lat="38.2406460" lon="-3.5810570">
        <ele>493.8</ele>
        <time>2018-06-16T07:06:16Z</time>
      </trkpt>
      <trkpt lat="38.2406620" lon="-3.5810240">
        <ele>493.8</ele>
        <time>2018-06-16T07:06:17Z</time>
      </trkpt>
      <trkpt lat="38.2406800" lon="-3.5809910">
        <ele>494.0</ele>
        <time>2018-06-16T07:06:18Z</time>
      </trkpt>
      <trkpt lat="38.2406980" lon="-3.5809600">
        <ele>494.0</ele>
        <time>2018-06-16T07:06:19Z</time>
      </trkpt>
      <trkpt lat="38.2407140" lon="-3.5809290">
        <ele>494.0</ele>
        <time>2018-06-16T07:06:20Z</time>
      </trkpt>
      <trkpt lat="38.2407300" lon="-3.5808950">
        <ele>494.2</ele>
        <time>2018-06-16T07:06:21Z</time>
      </trkpt>
      <trkpt lat="38.2407460" lon="-3.5808650">
        <ele>494.4</ele>
        <time>2018-06-16T07:06:22Z</time>
      </trkpt>
      <trkpt lat="38.2407620" lon="-3.5808350">
        <ele>494.4</ele>
        <time>2018-06-16T07:06:23Z</time>
      </trkpt>
      <trkpt lat="38.2407750" lon="-3.5808050">
        <ele>494.6</ele>
        <time>2018-06-16T07:06:24Z</time>
      </trkpt>
      <trkpt lat="38.2407880" lon="-3.5807750">
        <ele>494.6</ele>
        <time>2018-06-16T07:06:25Z</time>
      </trkpt>
      <trkpt lat="38.2408000" lon="-3.5807480">
        <ele>494.8</ele>
        <time>2018-06-16T07:06:26Z</time>
      </trkpt>
      <trkpt lat="38.2408120" lon="-3.5807210">
        <ele>494.8</ele>
        <time>2018-06-16T07:06:27Z</time>
      </trkpt>
      <trkpt lat="38.2408210" lon="-3.5806950">
        <ele>494.8</ele>
        <time>2018-06-16T07:06:28Z</time>
      </trkpt>
      <trkpt lat="38.2408340" lon="-3.5806680">
        <ele>495.0</ele>
        <time>2018-06-16T07:06:29Z</time>
      </trkpt>
      <trkpt lat="38.2408480" lon="-3.5806400">
        <ele>495.2</ele>
        <time>2018-06-16T07:06:30Z</time>
      </trkpt>
      <trkpt lat="38.2408610" lon="-3.5806060">
        <ele>495.4</ele>
        <time>2018-06-16T07:06:31Z</time>
      </trkpt>
      <trkpt lat="38.2408740" lon="-3.5805820">
        <ele>495.4</ele>
        <time>2018-06-16T07:06:32Z</time>
      </trkpt>
      <trkpt lat="38.2408880" lon="-3.5805590">
        <ele>495.6</ele>
        <time>2018-06-16T07:06:33Z</time>
      </trkpt>
      <trkpt lat="38.2409020" lon="-3.5805320">
        <ele>495.8</ele>
        <time>2018-06-16T07:06:34Z</time>
      </trkpt>
      <trkpt lat="38.2409160" lon="-3.5805040">
        <ele>496.0</ele>
        <time>2018-06-16T07:06:35Z</time>
      </trkpt>
      <trkpt lat="38.2409290" lon="-3.5804860">
        <ele>496.2</ele>
        <time>2018-06-16T07:06:36Z</time>
      </trkpt>
      <trkpt lat="38.2409420" lon="-3.5804630">
        <ele>496.2</ele>
        <time>2018-06-16T07:06:37Z</time>
      </trkpt>
      <trkpt lat="38.2409580" lon="-3.5804330">
        <ele>496.4</ele>
        <time>2018-06-16T07:06:38Z</time>
      </trkpt>
      <trkpt lat="38.2409720" lon="-3.5804030">
        <ele>496.6</ele>
        <time>2018-06-16T07:06:39Z</time>
      </trkpt>
      <trkpt lat="38.2409880" lon="-3.5803760">
        <ele>496.8</ele>
        <time>2018-06-16T07:06:40Z</time>
      </trkpt>
      <trkpt lat="38.2410030" lon="-3.5803480">
        <ele>497.0</ele>
        <time>2018-06-16T07:06:41Z</time>
      </trkpt>
      <trkpt lat="38.2410200" lon="-3.5803140">
        <ele>497.2</ele>
        <time>2018-06-16T07:06:42Z</time>
      </trkpt>
      <trkpt lat="38.2410390" lon="-3.5802790">
        <ele>497.2</ele>
        <time>2018-06-16T07:06:43Z</time>
      </trkpt>
      <trkpt lat="38.2410520" lon="-3.5802420">
        <ele>497.6</ele>
        <time>2018-06-16T07:06:44Z</time>
      </trkpt>
      <trkpt lat="38.2410660" lon="-3.5802010">
        <ele>497.8</ele>
        <time>2018-06-16T07:06:45Z</time>
      </trkpt>
      <trkpt lat="38.2410820" lon="-3.5801600">
        <ele>498.0</ele>
        <time>2018-06-16T07:06:46Z</time>
      </trkpt>
      <trkpt lat="38.2410960" lon="-3.5801210">
        <ele>498.2</ele>
        <time>2018-06-16T07:06:47Z</time>
      </trkpt>
      <trkpt lat="38.2411100" lon="-3.5800840">
        <ele>498.4</ele>
        <time>2018-06-16T07:06:48Z</time>
      </trkpt>
      <trkpt lat="38.2411240" lon="-3.5800560">
        <ele>498.6</ele>
        <time>2018-06-16T07:06:49Z</time>
      </trkpt>
      <trkpt lat="38.2411400" lon="-3.5800220">
        <ele>498.6</ele>
        <time>2018-06-16T07:06:50Z</time>
      </trkpt>
      <trkpt lat="38.2411550" lon="-3.5799910">
        <ele>498.8</ele>
        <time>2018-06-16T07:06:51Z</time>
      </trkpt>
      <trkpt lat="38.2411700" lon="-3.5799620">
        <ele>498.8</ele>
        <time>2018-06-16T07:06:52Z</time>
      </trkpt>
      <trkpt lat="38.2411830" lon="-3.5799310">
        <ele>498.8</ele>
        <time>2018-06-16T07:06:53Z</time>
      </trkpt>
      <trkpt lat="38.2411970" lon="-3.5798980">
        <ele>498.8</ele>
        <time>2018-06-16T07:06:54Z</time>
      </trkpt>
      <trkpt lat="38.2412120" lon="-3.5798610">
        <ele>499.0</ele>
        <time>2018-06-16T07:06:55Z</time>
      </trkpt>
      <trkpt lat="38.2412270" lon="-3.5798240">
        <ele>499.0</ele>
        <time>2018-06-16T07:06:56Z</time>
      </trkpt>
      <trkpt lat="38.2412420" lon="-3.5797830">
        <ele>499.0</ele>
        <time>2018-06-16T07:06:57Z</time>
      </trkpt>
      <trkpt lat="38.2412550" lon="-3.5797430">
        <ele>499.0</ele>
        <time>2018-06-16T07:06:58Z</time>
      </trkpt>
      <trkpt lat="38.2412680" lon="-3.5797000">
        <ele>499.0</ele>
        <time>2018-06-16T07:06:59Z</time>
      </trkpt>
      <trkpt lat="38.2412790" lon="-3.5796560">
        <ele>499.0</ele>
        <time>2018-06-16T07:07:00Z</time>
      </trkpt>
      <trkpt lat="38.2412960" lon="-3.5796090">
        <ele>499.0</ele>
        <time>2018-06-16T07:07:01Z</time>
      </trkpt>
      <trkpt lat="38.2413120" lon="-3.5795610">
        <ele>498.8</ele>
        <time>2018-06-16T07:07:02Z</time>
      </trkpt>
      <trkpt lat="38.2413320" lon="-3.5795070">
        <ele>498.4</ele>
        <time>2018-06-16T07:07:03Z</time>
      </trkpt>
      <trkpt lat="38.2413560" lon="-3.5794490">
        <ele>497.8</ele>
        <time>2018-06-16T07:07:04Z</time>
      </trkpt>
      <trkpt lat="38.2413830" lon="-3.5793870">
        <ele>497.4</ele>
        <time>2018-06-16T07:07:05Z</time>
      </trkpt>
      <trkpt lat="38.2414130" lon="-3.5793310">
        <ele>497.0</ele>
        <time>2018-06-16T07:07:06Z</time>
      </trkpt>
      <trkpt lat="38.2414430" lon="-3.5792890">
        <ele>496.6</ele>
        <time>2018-06-16T07:07:07Z</time>
      </trkpt>
      <trkpt lat="38.2414780" lon="-3.5792650">
        <ele>496.4</ele>
        <time>2018-06-16T07:07:08Z</time>
      </trkpt>
      <trkpt lat="38.2415180" lon="-3.5792540">
        <ele>496.0</ele>
        <time>2018-06-16T07:07:09Z</time>
      </trkpt>
      <trkpt lat="38.2415660" lon="-3.5792490">
        <ele>495.8</ele>
        <time>2018-06-16T07:07:10Z</time>
      </trkpt>
      <trkpt lat="38.2416170" lon="-3.5792520">
        <ele>495.4</ele>
        <time>2018-06-16T07:07:11Z</time>
      </trkpt>
      <trkpt lat="38.2416660" lon="-3.5792440">
        <ele>495.2</ele>
        <time>2018-06-16T07:07:12Z</time>
      </trkpt>
      <trkpt lat="38.2417200" lon="-3.5792440">
        <ele>495.2</ele>
        <time>2018-06-16T07:07:13Z</time>
      </trkpt>
      <trkpt lat="38.2417750" lon="-3.5792400">
        <ele>495.0</ele>
        <time>2018-06-16T07:07:14Z</time>
      </trkpt>
      <trkpt lat="38.2418310" lon="-3.5792410">
        <ele>494.8</ele>
        <time>2018-06-16T07:07:15Z</time>
      </trkpt>
      <trkpt lat="38.2418900" lon="-3.5792400">
        <ele>494.4</ele>
        <time>2018-06-16T07:07:16Z</time>
      </trkpt>
      <trkpt lat="38.2419510" lon="-3.5792400">
        <ele>494.2</ele>
        <time>2018-06-16T07:07:17Z</time>
      </trkpt>
      <trkpt lat="38.2420130" lon="-3.5792430">
        <ele>494.0</ele>
        <time>2018-06-16T07:07:18Z</time>
      </trkpt>
      <trkpt lat="38.2420740" lon="-3.5792430">
        <ele>493.6</ele>
        <time>2018-06-16T07:07:19Z</time>
      </trkpt>
      <trkpt lat="38.2421380" lon="-3.5792400">
        <ele>493.4</ele>
        <time>2018-06-16T07:07:20Z</time>
      </trkpt>
      <trkpt lat="38.2422080" lon="-3.5792380">
        <ele>492.8</ele>
        <time>2018-06-16T07:07:21Z</time>
      </trkpt>
      <trkpt lat="38.2423170" lon="-3.5792340">
        <ele>492.6</ele>
        <time>2018-06-16T07:07:22Z</time>
      </trkpt>
      <trkpt lat="38.2423540" lon="-3.5792320">
        <ele>492.4</ele>
        <time>2018-06-16T07:07:23Z</time>
      </trkpt>
      <trkpt lat="38.2424280" lon="-3.5792280">
        <ele>492.0</ele>
        <time>2018-06-16T07:07:24Z</time>
      </trkpt>
      <trkpt lat="38.2425050" lon="-3.5792240">
        <ele>491.6</ele>
        <time>2018-06-16T07:07:25Z</time>
      </trkpt>
      <trkpt lat="38.2425810" lon="-3.5792200">
        <ele>491.4</ele>
        <time>2018-06-16T07:07:26Z</time>
      </trkpt>
      <trkpt lat="38.2426600" lon="-3.5792190">
        <ele>491.2</ele>
        <time>2018-06-16T07:07:27Z</time>
      </trkpt>
      <trkpt lat="38.2427400" lon="-3.5792170">
        <ele>491.2</ele>
        <time>2018-06-16T07:07:28Z</time>
      </trkpt>
      <trkpt lat="38.2428210" lon="-3.5792140">
        <ele>490.8</ele>
        <time>2018-06-16T07:07:29Z</time>
      </trkpt>
      <trkpt lat="38.2429040" lon="-3.5792130">
        <ele>490.4</ele>
        <time>2018-06-16T07:07:30Z</time>
      </trkpt>
      <trkpt lat="38.2429880" lon="-3.5792130">
        <ele>490.0</ele>
        <time>2018-06-16T07:07:31Z</time>
      </trkpt>
      <trkpt lat="38.2430730" lon="-3.5792130">
        <ele>489.6</ele>
        <time>2018-06-16T07:07:32Z</time>
      </trkpt>
      <trkpt lat="38.2431600" lon="-3.5792130">
        <ele>489.0</ele>
        <time>2018-06-16T07:07:33Z</time>
      </trkpt>
      <trkpt lat="38.2432500" lon="-3.5792150">
        <ele>488.6</ele>
        <time>2018-06-16T07:07:34Z</time>
      </trkpt>
      <trkpt lat="38.2433410" lon="-3.5792210">
        <ele>488.2</ele>
        <time>2018-06-16T07:07:35Z</time>
      </trkpt>
      <trkpt lat="38.2434330" lon="-3.5792340">
        <ele>487.8</ele>
        <time>2018-06-16T07:07:36Z</time>
      </trkpt>
      <trkpt lat="38.2435270" lon="-3.5792540">
        <ele>487.6</ele>
        <time>2018-06-16T07:07:37Z</time>
      </trkpt>
      <trkpt lat="38.2436200" lon="-3.5792800">
        <ele>487.2</ele>
        <time>2018-06-16T07:07:38Z</time>
      </trkpt>
      <trkpt lat="38.2437160" lon="-3.5793130">
        <ele>486.8</ele>
        <time>2018-06-16T07:07:39Z</time>
      </trkpt>
      <trkpt lat="38.2438110" lon="-3.5793510">
        <ele>486.2</ele>
        <time>2018-06-16T07:07:40Z</time>
      </trkpt>
      <trkpt lat="38.2439070" lon="-3.5793930">
        <ele>485.8</ele>
        <time>2018-06-16T07:07:41Z</time>
      </trkpt>
      <trkpt lat="38.2440020" lon="-3.5794360">
        <ele>485.4</ele>
        <time>2018-06-16T07:07:42Z</time>
      </trkpt>
      <trkpt lat="38.2440970" lon="-3.5794780">
        <ele>485.4</ele>
        <time>2018-06-16T07:07:43Z</time>
      </trkpt>
      <trkpt lat="38.2441930" lon="-3.5795130">
        <ele>485.4</ele>
        <time>2018-06-16T07:07:44Z</time>
      </trkpt>
      <trkpt lat="38.2442900" lon="-3.5795430">
        <ele>485.6</ele>
        <time>2018-06-16T07:07:45Z</time>
      </trkpt>
      <trkpt lat="38.2443860" lon="-3.5795690">
        <ele>485.6</ele>
        <time>2018-06-16T07:07:46Z</time>
      </trkpt>
      <trkpt lat="38.2444820" lon="-3.5795870">
        <ele>485.8</ele>
        <time>2018-06-16T07:07:47Z</time>
      </trkpt>
      <trkpt lat="38.2445760" lon="-3.5795970">
        <ele>485.8</ele>
        <time>2018-06-16T07:07:48Z</time>
      </trkpt>
      <trkpt lat="38.2446680" lon="-3.5795990">
        <ele>486.0</ele>
        <time>2018-06-16T07:07:49Z</time>
      </trkpt>
      <trkpt lat="38.2447580" lon="-3.5796010">
        <ele>485.8</ele>
        <time>2018-06-16T07:07:50Z</time>
      </trkpt>
      <trkpt lat="38.2448450" lon="-3.5795990">
        <ele>485.8</ele>
        <time>2018-06-16T07:07:51Z</time>
      </trkpt>
      <trkpt lat="38.2449310" lon="-3.5795980">
        <ele>485.8</ele>
        <time>2018-06-16T07:07:52Z</time>
      </trkpt>
      <trkpt lat="38.2450150" lon="-3.5795990">
        <ele>486.0</ele>
        <time>2018-06-16T07:07:53Z</time>
      </trkpt>
      <trkpt lat="38.2450960" lon="-3.5795970">
        <ele>486.0</ele>
        <time>2018-06-16T07:07:54Z</time>
      </trkpt>
      <trkpt lat="38.2451760" lon="-3.5795950">
        <ele>486.2</ele>
        <time>2018-06-16T07:07:55Z</time>
      </trkpt>
      <trkpt lat="38.2452550" lon="-3.5795910">
        <ele>486.4</ele>
        <time>2018-06-16T07:07:56Z</time>
      </trkpt>
      <trkpt lat="38.2453310" lon="-3.5795830">
        <ele>486.8</ele>
        <time>2018-06-16T07:07:57Z</time>
      </trkpt>
      <trkpt lat="38.2454040" lon="-3.5795690">
        <ele>487.2</ele>
        <time>2018-06-16T07:07:58Z</time>
      </trkpt>
      <trkpt lat="38.2454750" lon="-3.5795540">
        <ele>487.6</ele>
        <time>2018-06-16T07:07:59Z</time>
      </trkpt>
      <trkpt lat="38.2455440" lon="-3.5795370">
        <ele>488.0</ele>
        <time>2018-06-16T07:08:00Z</time>
      </trkpt>
      <trkpt lat="38.2456110" lon="-3.5795200">
        <ele>488.4</ele>
        <time>2018-06-16T07:08:01Z</time>
      </trkpt>
      <trkpt lat="38.2456770" lon="-3.5795020">
        <ele>488.8</ele>
        <time>2018-06-16T07:08:02Z</time>
      </trkpt>
      <trkpt lat="38.2457410" lon="-3.5794830">
        <ele>489.2</ele>
        <time>2018-06-16T07:08:03Z</time>
      </trkpt>
      <trkpt lat="38.2458060" lon="-3.5794690">
        <ele>489.6</ele>
        <time>2018-06-16T07:08:04Z</time>
      </trkpt>
      <trkpt lat="38.2458690" lon="-3.5794580">
        <ele>490.2</ele>
        <time>2018-06-16T07:08:05Z</time>
      </trkpt>
      <trkpt lat="38.2459320" lon="-3.5794490">
        <ele>490.6</ele>
        <time>2018-06-16T07:08:06Z</time>
      </trkpt>
      <trkpt lat="38.2459950" lon="-3.5794390">
        <ele>491.0</ele>
        <time>2018-06-16T07:08:07Z</time>
      </trkpt>
      <trkpt lat="38.2460550" lon="-3.5794250">
        <ele>491.4</ele>
        <time>2018-06-16T07:08:08Z</time>
      </trkpt>
      <trkpt lat="38.2461140" lon="-3.5794070">
        <ele>492.0</ele>
        <time>2018-06-16T07:08:09Z</time>
      </trkpt>
      <trkpt lat="38.2461720" lon="-3.5793880">
        <ele>492.0</ele>
        <time>2018-06-16T07:08:10Z</time>
      </trkpt>
      <trkpt lat="38.2462280" lon="-3.5793710">
        <ele>492.4</ele>
        <time>2018-06-16T07:08:11Z</time>
      </trkpt>
      <trkpt lat="38.2462800" lon="-3.5793540">
        <ele>492.8</ele>
        <time>2018-06-16T07:08:12Z</time>
      </trkpt>
      <trkpt lat="38.2463320" lon="-3.5793400">
        <ele>493.2</ele>
        <time>2018-06-16T07:08:13Z</time>
      </trkpt>
      <trkpt lat="38.2463810" lon="-3.5793300">
        <ele>493.6</ele>
        <time>2018-06-16T07:08:14Z</time>
      </trkpt>
      <trkpt lat="38.2464290" lon="-3.5793230">
        <ele>494.0</ele>
        <time>2018-06-16T07:08:15Z</time>
      </trkpt>
      <trkpt lat="38.2464780" lon="-3.5793170">
        <ele>494.4</ele>
        <time>2018-06-16T07:08:16Z</time>
      </trkpt>
      <trkpt lat="38.2465260" lon="-3.5793160">
        <ele>494.6</ele>
        <time>2018-06-16T07:08:17Z</time>
      </trkpt>
      <trkpt lat="38.2465710" lon="-3.5793170">
        <ele>494.8</ele>
        <time>2018-06-16T07:08:18Z</time>
      </trkpt>
      <trkpt lat="38.2466180" lon="-3.5793110">
        <ele>495.2</ele>
        <time>2018-06-16T07:08:19Z</time>
      </trkpt>
      <trkpt lat="38.2466680" lon="-3.5792980">
        <ele>495.4</ele>
        <time>2018-06-16T07:08:20Z</time>
      </trkpt>
      <trkpt lat="38.2467170" lon="-3.5792800">
        <ele>495.6</ele>
        <time>2018-06-16T07:08:21Z</time>
      </trkpt>
      <trkpt lat="38.2467640" lon="-3.5792610">
        <ele>496.0</ele>
        <time>2018-06-16T07:08:22Z</time>
      </trkpt>
      <trkpt lat="38.2468090" lon="-3.5792430">
        <ele>496.4</ele>
        <time>2018-06-16T07:08:23Z</time>
      </trkpt>
      <trkpt lat="38.2468540" lon="-3.5792300">
        <ele>496.6</ele>
        <time>2018-06-16T07:08:24Z</time>
      </trkpt>
      <trkpt lat="38.2468990" lon="-3.5792230">
        <ele>496.8</ele>
        <time>2018-06-16T07:08:25Z</time>
      </trkpt>
      <trkpt lat="38.2469420" lon="-3.5792180">
        <ele>497.2</ele>
        <time>2018-06-16T07:08:26Z</time>
      </trkpt>
      <trkpt lat="38.2469850" lon="-3.5792170">
        <ele>497.2</ele>
        <time>2018-06-16T07:08:27Z</time>
      </trkpt>
      <trkpt lat="38.2470280" lon="-3.5792160">
        <ele>497.4</ele>
        <time>2018-06-16T07:08:28Z</time>
      </trkpt>
      <trkpt lat="38.2470720" lon="-3.5792150">
        <ele>497.4</ele>
        <time>2018-06-16T07:08:29Z</time>
      </trkpt>
      <trkpt lat="38.2471170" lon="-3.5792150">
        <ele>497.4</ele>
        <time>2018-06-16T07:08:30Z</time>
      </trkpt>
      <trkpt lat="38.2471640" lon="-3.5792180">
        <ele>497.2</ele>
        <time>2018-06-16T07:08:31Z</time>
      </trkpt>
      <trkpt lat="38.2472130" lon="-3.5792230">
        <ele>497.0</ele>
        <time>2018-06-16T07:08:32Z</time>
      </trkpt>
      <trkpt lat="38.2472630" lon="-3.5792290">
        <ele>496.8</ele>
        <time>2018-06-16T07:08:33Z</time>
      </trkpt>
      <trkpt lat="38.2473160" lon="-3.5792330">
        <ele>496.6</ele>
        <time>2018-06-16T07:08:34Z</time>
      </trkpt>
      <trkpt lat="38.2473730" lon="-3.5792340">
        <ele>496.4</ele>
        <time>2018-06-16T07:08:35Z</time>
      </trkpt>
      <trkpt lat="38.2474330" lon="-3.5792340">
        <ele>496.2</ele>
        <time>2018-06-16T07:08:36Z</time>
      </trkpt>
      <trkpt lat="38.2474970" lon="-3.5792280">
        <ele>495.8</ele>
        <time>2018-06-16T07:08:37Z</time>
      </trkpt>
      <trkpt lat="38.2475640" lon="-3.5792160">
        <ele>495.6</ele>
        <time>2018-06-16T07:08:38Z</time>
      </trkpt>
      <trkpt lat="38.2476310" lon="-3.5791950">
        <ele>495.2</ele>
        <time>2018-06-16T07:08:39Z</time>
      </trkpt>
      <trkpt lat="38.2476970" lon="-3.5791650">
        <ele>494.8</ele>
        <time>2018-06-16T07:08:40Z</time>
      </trkpt>
      <trkpt lat="38.2477650" lon="-3.5791270">
        <ele>494.6</ele>
        <time>2018-06-16T07:08:41Z</time>
      </trkpt>
      <trkpt lat="38.2478290" lon="-3.5790790">
        <ele>494.4</ele>
        <time>2018-06-16T07:08:42Z</time>
      </trkpt>
      <trkpt lat="38.2478910" lon="-3.5790260">
        <ele>494.2</ele>
        <time>2018-06-16T07:08:43Z</time>
      </trkpt>
      <trkpt lat="38.2479500" lon="-3.5789690">
        <ele>494.2</ele>
        <time>2018-06-16T07:08:44Z</time>
      </trkpt>
      <trkpt lat="38.2480090" lon="-3.5789120">
        <ele>494.4</ele>
        <time>2018-06-16T07:08:45Z</time>
      </trkpt>
      <trkpt lat="38.2480660" lon="-3.5788560">
        <ele>494.6</ele>
        <time>2018-06-16T07:08:46Z</time>
      </trkpt>
      <trkpt lat="38.2481200" lon="-3.5788000">
        <ele>494.8</ele>
        <time>2018-06-16T07:08:47Z</time>
      </trkpt>
      <trkpt lat="38.2481710" lon="-3.5787470">
        <ele>495.0</ele>
        <time>2018-06-16T07:08:48Z</time>
      </trkpt>
      <trkpt lat="38.2482210" lon="-3.5786970">
        <ele>495.4</ele>
        <time>2018-06-16T07:08:49Z</time>
      </trkpt>
      <trkpt lat="38.2482660" lon="-3.5786480">
        <ele>495.8</ele>
        <time>2018-06-16T07:08:50Z</time>
      </trkpt>
      <trkpt lat="38.2483100" lon="-3.5786030">
        <ele>496.0</ele>
        <time>2018-06-16T07:08:51Z</time>
      </trkpt>
      <trkpt lat="38.2483560" lon="-3.5785660">
        <ele>496.4</ele>
        <time>2018-06-16T07:08:52Z</time>
      </trkpt>
      <trkpt lat="38.2484010" lon="-3.5785330">
        <ele>496.6</ele>
        <time>2018-06-16T07:08:53Z</time>
      </trkpt>
      <trkpt lat="38.2484430" lon="-3.5784990">
        <ele>497.0</ele>
        <time>2018-06-16T07:08:54Z</time>
      </trkpt>
      <trkpt lat="38.2484860" lon="-3.5784620">
        <ele>497.2</ele>
        <time>2018-06-16T07:08:55Z</time>
      </trkpt>
      <trkpt lat="38.2485240" lon="-3.5784230">
        <ele>497.6</ele>
        <time>2018-06-16T07:08:56Z</time>
      </trkpt>
      <trkpt lat="38.2485630" lon="-3.5783850">
        <ele>497.8</ele>
        <time>2018-06-16T07:08:57Z</time>
      </trkpt>
      <trkpt lat="38.2486040" lon="-3.5783490">
        <ele>498.2</ele>
        <time>2018-06-16T07:08:58Z</time>
      </trkpt>
      <trkpt lat="38.2486440" lon="-3.5783150">
        <ele>498.4</ele>
        <time>2018-06-16T07:08:59Z</time>
      </trkpt>
      <trkpt lat="38.2486860" lon="-3.5782800">
        <ele>498.4</ele>
        <time>2018-06-16T07:09:00Z</time>
      </trkpt>
      <trkpt lat="38.2487270" lon="-3.5782420">
        <ele>498.6</ele>
        <time>2018-06-16T07:09:01Z</time>
      </trkpt>
      <trkpt lat="38.2487720" lon="-3.5782030">
        <ele>498.6</ele>
        <time>2018-06-16T07:09:02Z</time>
      </trkpt>
      <trkpt lat="38.2488170" lon="-3.5781660">
        <ele>498.8</ele>
        <time>2018-06-16T07:09:03Z</time>
      </trkpt>
      <trkpt lat="38.2488640" lon="-3.5781290">
        <ele>498.6</ele>
        <time>2018-06-16T07:09:04Z</time>
      </trkpt>
      <trkpt lat="38.2489110" lon="-3.5780910">
        <ele>498.6</ele>
        <time>2018-06-16T07:09:05Z</time>
      </trkpt>
      <trkpt lat="38.2489560" lon="-3.5780530">
        <ele>498.6</ele>
        <time>2018-06-16T07:09:06Z</time>
      </trkpt>
      <trkpt lat="38.2490030" lon="-3.5780150">
        <ele>498.6</ele>
        <time>2018-06-16T07:09:07Z</time>
      </trkpt>
      <trkpt lat="38.2490490" lon="-3.5779770">
        <ele>498.6</ele>
        <time>2018-06-16T07:09:08Z</time>
      </trkpt>
      <trkpt lat="38.2490980" lon="-3.5779400">
        <ele>498.6</ele>
        <time>2018-06-16T07:09:09Z</time>
      </trkpt>
      <trkpt lat="38.2491430" lon="-3.5779060">
        <ele>498.6</ele>
        <time>2018-06-16T07:09:10Z</time>
      </trkpt>
      <trkpt lat="38.2491880" lon="-3.5778730">
        <ele>498.4</ele>
        <time>2018-06-16T07:09:11Z</time>
      </trkpt>
      <trkpt lat="38.2492360" lon="-3.5778440">
        <ele>498.4</ele>
        <time>2018-06-16T07:09:12Z</time>
      </trkpt>
      <trkpt lat="38.2492810" lon="-3.5778190">
        <ele>498.2</ele>
        <time>2018-06-16T07:09:13Z</time>
      </trkpt>
      <trkpt lat="38.2493350" lon="-3.5778010">
        <ele>498.0</ele>
        <time>2018-06-16T07:09:14Z</time>
      </trkpt>
      <trkpt lat="38.2493940" lon="-3.5777900">
        <ele>497.6</ele>
        <time>2018-06-16T07:09:15Z</time>
      </trkpt>
      <trkpt lat="38.2494550" lon="-3.5777850">
        <ele>497.4</ele>
        <time>2018-06-16T07:09:16Z</time>
      </trkpt>
      <trkpt lat="38.2495220" lon="-3.5777850">
        <ele>497.2</ele>
        <time>2018-06-16T07:09:17Z</time>
      </trkpt>
      <trkpt lat="38.2495910" lon="-3.5777840">
        <ele>496.8</ele>
        <time>2018-06-16T07:09:18Z</time>
      </trkpt>
      <trkpt lat="38.2496610" lon="-3.5777820">
        <ele>496.6</ele>
        <time>2018-06-16T07:09:19Z</time>
      </trkpt>
      <trkpt lat="38.2497320" lon="-3.5777810">
        <ele>496.4</ele>
        <time>2018-06-16T07:09:20Z</time>
      </trkpt>
      <trkpt lat="38.2498410" lon="-3.5777800">
        <ele>496.0</ele>
        <time>2018-06-16T07:09:21Z</time>
      </trkpt>
      <trkpt lat="38.2498760" lon="-3.5777810">
        <ele>496.0</ele>
        <time>2018-06-16T07:09:22Z</time>
      </trkpt>
      <trkpt lat="38.2499460" lon="-3.5777830">
        <ele>496.0</ele>
        <time>2018-06-16T07:09:23Z</time>
      </trkpt>
      <trkpt lat="38.2500180" lon="-3.5777860">
        <ele>495.6</ele>
        <time>2018-06-16T07:09:24Z</time>
      </trkpt>
      <trkpt lat="38.2500900" lon="-3.5777870">
        <ele>495.6</ele>
        <time>2018-06-16T07:09:25Z</time>
      </trkpt>
      <trkpt lat="38.2501610" lon="-3.5777860">
        <ele>495.4</ele>
        <time>2018-06-16T07:09:26Z</time>
      </trkpt>
      <trkpt lat="38.2502320" lon="-3.5777830">
        <ele>495.4</ele>
        <time>2018-06-16T07:09:27Z</time>
      </trkpt>
      <trkpt lat="38.2503030" lon="-3.5777770">
        <ele>495.4</ele>
        <time>2018-06-16T07:09:28Z</time>
      </trkpt>
      <trkpt lat="38.2503730" lon="-3.5777700">
        <ele>495.4</ele>
        <time>2018-06-16T07:09:29Z</time>
      </trkpt>
      <trkpt lat="38.2504420" lon="-3.5777610">
        <ele>495.4</ele>
        <time>2018-06-16T07:09:30Z</time>
      </trkpt>
      <trkpt lat="38.2505470" lon="-3.5777390">
        <ele>495.6</ele>
        <time>2018-06-16T07:09:31Z</time>
      </trkpt>
      <trkpt lat="38.2505860" lon="-3.5777290">
        <ele>495.8</ele>
        <time>2018-06-16T07:09:32Z</time>
      </trkpt>
      <trkpt lat="38.2506250" lon="-3.5777200">
        <ele>496.0</ele>
        <time>2018-06-16T07:09:33Z</time>
      </trkpt>
      <trkpt lat="38.2506790" lon="-3.5777050">
        <ele>496.4</ele>
        <time>2018-06-16T07:09:34Z</time>
      </trkpt>
      <trkpt lat="38.2507300" lon="-3.5776910">
        <ele>496.6</ele>
        <time>2018-06-16T07:09:35Z</time>
      </trkpt>
      <trkpt lat="38.2507820" lon="-3.5776760">
        <ele>497.0</ele>
        <time>2018-06-16T07:09:36Z</time>
      </trkpt>
      <trkpt lat="38.2508340" lon="-3.5776620">
        <ele>497.2</ele>
        <time>2018-06-16T07:09:37Z</time>
      </trkpt>
      <trkpt lat="38.2508850" lon="-3.5776490">
        <ele>497.2</ele>
        <time>2018-06-16T07:09:38Z</time>
      </trkpt>
      <trkpt lat="38.2509360" lon="-3.5776360">
        <ele>497.6</ele>
        <time>2018-06-16T07:09:39Z</time>
      </trkpt>
      <trkpt lat="38.2509860" lon="-3.5776220">
        <ele>497.8</ele>
        <time>2018-06-16T07:09:40Z</time>
      </trkpt>
      <trkpt lat="38.2510370" lon="-3.5776080">
        <ele>497.8</ele>
        <time>2018-06-16T07:09:41Z</time>
      </trkpt>
      <trkpt lat="38.2510880" lon="-3.5775950">
        <ele>498.0</ele>
        <time>2018-06-16T07:09:42Z</time>
      </trkpt>
      <trkpt lat="38.2511370" lon="-3.5775820">
        <ele>498.2</ele>
        <time>2018-06-16T07:09:43Z</time>
      </trkpt>
      <trkpt lat="38.2511840" lon="-3.5775690">
        <ele>498.4</ele>
        <time>2018-06-16T07:09:44Z</time>
      </trkpt>
      <trkpt lat="38.2512340" lon="-3.5775560">
        <ele>498.6</ele>
        <time>2018-06-16T07:09:45Z</time>
      </trkpt>
      <trkpt lat="38.2512840" lon="-3.5775430">
        <ele>499.0</ele>
        <time>2018-06-16T07:09:46Z</time>
      </trkpt>
      <trkpt lat="38.2513320" lon="-3.5775300">
        <ele>499.0</ele>
        <time>2018-06-16T07:09:47Z</time>
      </trkpt>
      <trkpt lat="38.2513790" lon="-3.5775170">
        <ele>499.0</ele>
        <time>2018-06-16T07:09:48Z</time>
      </trkpt>
      <trkpt lat="38.2514260" lon="-3.5775030">
        <ele>499.2</ele>
        <time>2018-06-16T07:09:49Z</time>
      </trkpt>
      <trkpt lat="38.2514750" lon="-3.5774910">
        <ele>499.4</ele>
        <time>2018-06-16T07:09:50Z</time>
      </trkpt>
      <trkpt lat="38.2515220" lon="-3.5774790">
        <ele>499.6</ele>
        <time>2018-06-16T07:09:51Z</time>
      </trkpt>
      <trkpt lat="38.2515690" lon="-3.5774670">
        <ele>499.8</ele>
        <time>2018-06-16T07:09:52Z</time>
      </trkpt>
      <trkpt lat="38.2516160" lon="-3.5774560">
        <ele>500.0</ele>
        <time>2018-06-16T07:09:53Z</time>
      </trkpt>
      <trkpt lat="38.2516650" lon="-3.5774480">
        <ele>500.2</ele>
        <time>2018-06-16T07:09:54Z</time>
      </trkpt>
      <trkpt lat="38.2517150" lon="-3.5774400">
        <ele>500.4</ele>
        <time>2018-06-16T07:09:55Z</time>
      </trkpt>
      <trkpt lat="38.2517650" lon="-3.5774310">
        <ele>500.6</ele>
        <time>2018-06-16T07:09:56Z</time>
      </trkpt>
      <trkpt lat="38.2518150" lon="-3.5774240">
        <ele>500.6</ele>
        <time>2018-06-16T07:09:57Z</time>
      </trkpt>
      <trkpt lat="38.2518670" lon="-3.5774200">
        <ele>500.8</ele>
        <time>2018-06-16T07:09:58Z</time>
      </trkpt>
      <trkpt lat="38.2519180" lon="-3.5774170">
        <ele>501.2</ele>
        <time>2018-06-16T07:09:59Z</time>
      </trkpt>
      <trkpt lat="38.2519660" lon="-3.5774190">
        <ele>501.4</ele>
        <time>2018-06-16T07:10:00Z</time>
      </trkpt>
      <trkpt lat="38.2520140" lon="-3.5774240">
        <ele>501.8</ele>
        <time>2018-06-16T07:10:01Z</time>
      </trkpt>
      <trkpt lat="38.2520600" lon="-3.5774300">
        <ele>501.8</ele>
        <time>2018-06-16T07:10:02Z</time>
      </trkpt>
      <trkpt lat="38.2521100" lon="-3.5774390">
        <ele>502.0</ele>
        <time>2018-06-16T07:10:03Z</time>
      </trkpt>
      <trkpt lat="38.2521590" lon="-3.5774490">
        <ele>502.4</ele>
        <time>2018-06-16T07:10:04Z</time>
      </trkpt>
      <trkpt lat="38.2522060" lon="-3.5774620">
        <ele>502.8</ele>
        <time>2018-06-16T07:10:05Z</time>
      </trkpt>
      <trkpt lat="38.2522530" lon="-3.5774750">
        <ele>503.0</ele>
        <time>2018-06-16T07:10:06Z</time>
      </trkpt>
      <trkpt lat="38.2523010" lon="-3.5774880">
        <ele>503.0</ele>
        <time>2018-06-16T07:10:07Z</time>
      </trkpt>
      <trkpt lat="38.2523490" lon="-3.5775010">
        <ele>503.4</ele>
        <time>2018-06-16T07:10:08Z</time>
      </trkpt>
      <trkpt lat="38.2523960" lon="-3.5775140">
        <ele>503.6</ele>
        <time>2018-06-16T07:10:09Z</time>
      </trkpt>
      <trkpt lat="38.2524420" lon="-3.5775260">
        <ele>503.8</ele>
        <time>2018-06-16T07:10:10Z</time>
      </trkpt>
      <trkpt lat="38.2524890" lon="-3.5775410">
        <ele>504.0</ele>
        <time>2018-06-16T07:10:11Z</time>
      </trkpt>
      <trkpt lat="38.2525370" lon="-3.5775540">
        <ele>504.4</ele>
        <time>2018-06-16T07:10:12Z</time>
      </trkpt>
      <trkpt lat="38.2525810" lon="-3.5775650">
        <ele>504.6</ele>
        <time>2018-06-16T07:10:13Z</time>
      </trkpt>
      <trkpt lat="38.2526260" lon="-3.5775750">
        <ele>504.8</ele>
        <time>2018-06-16T07:10:14Z</time>
      </trkpt>
      <trkpt lat="38.2526710" lon="-3.5775870">
        <ele>505.0</ele>
        <time>2018-06-16T07:10:15Z</time>
      </trkpt>
      <trkpt lat="38.2527180" lon="-3.5775980">
        <ele>504.8</ele>
        <time>2018-06-16T07:10:16Z</time>
      </trkpt>
      <trkpt lat="38.2527660" lon="-3.5776100">
        <ele>505.0</ele>
        <time>2018-06-16T07:10:17Z</time>
      </trkpt>
      <trkpt lat="38.2528150" lon="-3.5776230">
        <ele>505.0</ele>
        <time>2018-06-16T07:10:18Z</time>
      </trkpt>
      <trkpt lat="38.2528640" lon="-3.5776360">
        <ele>505.0</ele>
        <time>2018-06-16T07:10:19Z</time>
      </trkpt>
      <trkpt lat="38.2529130" lon="-3.5776480">
        <ele>505.2</ele>
        <time>2018-06-16T07:10:20Z</time>
      </trkpt>
      <trkpt lat="38.2529630" lon="-3.5776620">
        <ele>505.2</ele>
        <time>2018-06-16T07:10:21Z</time>
      </trkpt>
      <trkpt lat="38.2530140" lon="-3.5776740">
        <ele>505.2</ele>
        <time>2018-06-16T07:10:22Z</time>
      </trkpt>
      <trkpt lat="38.2530650" lon="-3.5776820">
        <ele>505.2</ele>
        <time>2018-06-16T07:10:23Z</time>
      </trkpt>
      <trkpt lat="38.2531170" lon="-3.5776820">
        <ele>505.4</ele>
        <time>2018-06-16T07:10:24Z</time>
      </trkpt>
      <trkpt lat="38.2531690" lon="-3.5776750">
        <ele>505.4</ele>
        <time>2018-06-16T07:10:25Z</time>
      </trkpt>
      <trkpt lat="38.2532180" lon="-3.5776550">
        <ele>505.4</ele>
        <time>2018-06-16T07:10:26Z</time>
      </trkpt>
      <trkpt lat="38.2532640" lon="-3.5776230">
        <ele>505.2</ele>
        <time>2018-06-16T07:10:27Z</time>
      </trkpt>
      <trkpt lat="38.2533060" lon="-3.5775840">
        <ele>505.4</ele>
        <time>2018-06-16T07:10:28Z</time>
      </trkpt>
      <trkpt lat="38.2533400" lon="-3.5775400">
        <ele>505.4</ele>
        <time>2018-06-16T07:10:29Z</time>
      </trkpt>
      <trkpt lat="38.2533690" lon="-3.5774880">
        <ele>505.6</ele>
        <time>2018-06-16T07:10:30Z</time>
      </trkpt>
      <trkpt lat="38.2533910" lon="-3.5774330">
        <ele>505.6</ele>
        <time>2018-06-16T07:10:31Z</time>
      </trkpt>
      <trkpt lat="38.2534130" lon="-3.5773770">
        <ele>505.8</ele>
        <time>2018-06-16T07:10:32Z</time>
      </trkpt>
      <trkpt lat="38.2534340" lon="-3.5773200">
        <ele>505.8</ele>
        <time>2018-06-16T07:10:33Z</time>
      </trkpt>
      <trkpt lat="38.2534550" lon="-3.5772640">
        <ele>505.8</ele>
        <time>2018-06-16T07:10:34Z</time>
      </trkpt>
      <trkpt lat="38.2534750" lon="-3.5772070">
        <ele>505.8</ele>
        <time>2018-06-16T07:10:35Z</time>
      </trkpt>
      <trkpt lat="38.2534970" lon="-3.5771500">
        <ele>505.6</ele>
        <time>2018-06-16T07:10:36Z</time>
      </trkpt>
      <trkpt lat="38.2535190" lon="-3.5770930">
        <ele>505.6</ele>
        <time>2018-06-16T07:10:37Z</time>
      </trkpt>
      <trkpt lat="38.2535400" lon="-3.5770330">
        <ele>505.6</ele>
        <time>2018-06-16T07:10:38Z</time>
      </trkpt>
      <trkpt lat="38.2535610" lon="-3.5769700">
        <ele>505.4</ele>
        <time>2018-06-16T07:10:39Z</time>
      </trkpt>
      <trkpt lat="38.2535820" lon="-3.5769070">
        <ele>505.2</ele>
        <time>2018-06-16T07:10:40Z</time>
      </trkpt>
      <trkpt lat="38.2536050" lon="-3.5768410">
        <ele>505.2</ele>
        <time>2018-06-16T07:10:41Z</time>
      </trkpt>
      <trkpt lat="38.2536280" lon="-3.5767760">
        <ele>505.2</ele>
        <time>2018-06-16T07:10:42Z</time>
      </trkpt>
      <trkpt lat="38.2536510" lon="-3.5767100">
        <ele>505.2</ele>
        <time>2018-06-16T07:10:43Z</time>
      </trkpt>
      <trkpt lat="38.2536710" lon="-3.5766430">
        <ele>505.2</ele>
        <time>2018-06-16T07:10:44Z</time>
      </trkpt>
      <trkpt lat="38.2536920" lon="-3.5765760">
        <ele>505.0</ele>
        <time>2018-06-16T07:10:45Z</time>
      </trkpt>
      <trkpt lat="38.2537140" lon="-3.5765100">
        <ele>505.0</ele>
        <time>2018-06-16T07:10:46Z</time>
      </trkpt>
      <trkpt lat="38.2537380" lon="-3.5764450">
        <ele>505.0</ele>
        <time>2018-06-16T07:10:47Z</time>
      </trkpt>
      <trkpt lat="38.2537670" lon="-3.5763830">
        <ele>504.8</ele>
        <time>2018-06-16T07:10:48Z</time>
      </trkpt>
      <trkpt lat="38.2538030" lon="-3.5763280">
        <ele>504.8</ele>
        <time>2018-06-16T07:10:49Z</time>
      </trkpt>
      <trkpt lat="38.2538460" lon="-3.5762840">
        <ele>504.8</ele>
        <time>2018-06-16T07:10:50Z</time>
      </trkpt>
      <trkpt lat="38.2538970" lon="-3.5762510">
        <ele>504.6</ele>
        <time>2018-06-16T07:10:51Z</time>
      </trkpt>
      <trkpt lat="38.2539520" lon="-3.5762280">
        <ele>504.4</ele>
        <time>2018-06-16T07:10:52Z</time>
      </trkpt>
      <trkpt lat="38.2540110" lon="-3.5762140">
        <ele>504.2</ele>
        <time>2018-06-16T07:10:53Z</time>
      </trkpt>
      <trkpt lat="38.2540710" lon="-3.5762020">
        <ele>504.0</ele>
        <time>2018-06-16T07:10:54Z</time>
      </trkpt>
      <trkpt lat="38.2541320" lon="-3.5761910">
        <ele>503.8</ele>
        <time>2018-06-16T07:10:55Z</time>
      </trkpt>
      <trkpt lat="38.2541920" lon="-3.5761780">
        <ele>503.6</ele>
        <time>2018-06-16T07:10:56Z</time>
      </trkpt>
      <trkpt lat="38.2542500" lon="-3.5761620">
        <ele>503.4</ele>
        <time>2018-06-16T07:10:57Z</time>
      </trkpt>
      <trkpt lat="38.2543070" lon="-3.5761400">
        <ele>503.2</ele>
        <time>2018-06-16T07:10:58Z</time>
      </trkpt>
      <trkpt lat="38.2543630" lon="-3.5761070">
        <ele>502.8</ele>
        <time>2018-06-16T07:10:59Z</time>
      </trkpt>
      <trkpt lat="38.2544140" lon="-3.5760660">
        <ele>503.0</ele>
        <time>2018-06-16T07:11:00Z</time>
      </trkpt>
      <trkpt lat="38.2544620" lon="-3.5760170">
        <ele>502.6</ele>
        <time>2018-06-16T07:11:01Z</time>
      </trkpt>
      <trkpt lat="38.2545060" lon="-3.5759620">
        <ele>502.6</ele>
        <time>2018-06-16T07:11:02Z</time>
      </trkpt>
      <trkpt lat="38.2545460" lon="-3.5759050">
        <ele>502.6</ele>
        <time>2018-06-16T07:11:03Z</time>
      </trkpt>
      <trkpt lat="38.2545910" lon="-3.5758520">
        <ele>502.4</ele>
        <time>2018-06-16T07:11:04Z</time>
      </trkpt>
      <trkpt lat="38.2546460" lon="-3.5758070">
        <ele>502.2</ele>
        <time>2018-06-16T07:11:05Z</time>
      </trkpt>
      <trkpt lat="38.2547010" lon="-3.5757680">
        <ele>501.8</ele>
        <time>2018-06-16T07:11:06Z</time>
      </trkpt>
      <trkpt lat="38.2547610" lon="-3.5757310">
        <ele>501.6</ele>
        <time>2018-06-16T07:11:07Z</time>
      </trkpt>
      <trkpt lat="38.2548230" lon="-3.5756930">
        <ele>501.4</ele>
        <time>2018-06-16T07:11:08Z</time>
      </trkpt>
      <trkpt lat="38.2548840" lon="-3.5756560">
        <ele>501.2</ele>
        <time>2018-06-16T07:11:09Z</time>
      </trkpt>
      <trkpt lat="38.2549440" lon="-3.5756180">
        <ele>501.0</ele>
        <time>2018-06-16T07:11:10Z</time>
      </trkpt>
      <trkpt lat="38.2550060" lon="-3.5755810">
        <ele>501.0</ele>
        <time>2018-06-16T07:11:11Z</time>
      </trkpt>
      <trkpt lat="38.2550680" lon="-3.5755450">
        <ele>501.0</ele>
        <time>2018-06-16T07:11:12Z</time>
      </trkpt>
      <trkpt lat="38.2551290" lon="-3.5755090">
        <ele>500.8</ele>
        <time>2018-06-16T07:11:13Z</time>
      </trkpt>
      <trkpt lat="38.2552240" lon="-3.5754560">
        <ele>500.6</ele>
        <time>2018-06-16T07:11:14Z</time>
      </trkpt>
      <trkpt lat="38.2552550" lon="-3.5754380">
        <ele>500.4</ele>
        <time>2018-06-16T07:11:15Z</time>
      </trkpt>
      <trkpt lat="38.2553170" lon="-3.5754020">
        <ele>500.2</ele>
        <time>2018-06-16T07:11:16Z</time>
      </trkpt>
      <trkpt lat="38.2553800" lon="-3.5753640">
        <ele>500.0</ele>
        <time>2018-06-16T07:11:17Z</time>
      </trkpt>
      <trkpt lat="38.2554450" lon="-3.5753270">
        <ele>499.8</ele>
        <time>2018-06-16T07:11:18Z</time>
      </trkpt>
      <trkpt lat="38.2555460" lon="-3.5752720">
        <ele>499.6</ele>
        <time>2018-06-16T07:11:19Z</time>
      </trkpt>
      <trkpt lat="38.2555790" lon="-3.5752520">
        <ele>499.6</ele>
        <time>2018-06-16T07:11:20Z</time>
      </trkpt>
      <trkpt lat="38.2556440" lon="-3.5752110">
        <ele>499.2</ele>
        <time>2018-06-16T07:11:21Z</time>
      </trkpt>
      <trkpt lat="38.2557110" lon="-3.5751710">
        <ele>499.0</ele>
        <time>2018-06-16T07:11:22Z</time>
      </trkpt>
      <trkpt lat="38.2557790" lon="-3.5751350">
        <ele>498.8</ele>
        <time>2018-06-16T07:11:23Z</time>
      </trkpt>
      <trkpt lat="38.2558460" lon="-3.5751050">
        <ele>498.4</ele>
        <time>2018-06-16T07:11:24Z</time>
      </trkpt>
      <trkpt lat="38.2559110" lon="-3.5750780">
        <ele>498.0</ele>
        <time>2018-06-16T07:11:25Z</time>
      </trkpt>
      <trkpt lat="38.2559730" lon="-3.5750540">
        <ele>497.6</ele>
        <time>2018-06-16T07:11:26Z</time>
      </trkpt>
      <trkpt lat="38.2560330" lon="-3.5750390">
        <ele>497.0</ele>
        <time>2018-06-16T07:11:27Z</time>
      </trkpt>
      <trkpt lat="38.2560910" lon="-3.5750320">
        <ele>496.6</ele>
        <time>2018-06-16T07:11:28Z</time>
      </trkpt>
      <trkpt lat="38.2561430" lon="-3.5750280">
        <ele>496.4</ele>
        <time>2018-06-16T07:11:29Z</time>
      </trkpt>
      <trkpt lat="38.2561900" lon="-3.5750250">
        <ele>496.2</ele>
        <time>2018-06-16T07:11:30Z</time>
      </trkpt>
      <trkpt lat="38.2562300" lon="-3.5750250">
        <ele>496.0</ele>
        <time>2018-06-16T07:11:31Z</time>
      </trkpt>
      <trkpt lat="38.2562640" lon="-3.5750270">
        <ele>496.0</ele>
        <time>2018-06-16T07:11:32Z</time>
      </trkpt>
      <trkpt lat="38.2562890" lon="-3.5750310">
        <ele>495.8</ele>
        <time>2018-06-16T07:11:33Z</time>
      </trkpt>
      <trkpt lat="38.2563070" lon="-3.5750410">
        <ele>495.8</ele>
        <time>2018-06-16T07:11:34Z</time>
      </trkpt>
      <trkpt lat="38.2563180" lon="-3.5750510">
        <ele>495.8</ele>
        <time>2018-06-16T07:11:35Z</time>
      </trkpt>
      <trkpt lat="38.2563220" lon="-3.5750530">
        <ele>495.8</ele>
        <time>2018-06-16T07:11:36Z</time>
      </trkpt>
      <trkpt lat="38.2563250" lon="-3.5750540">
        <ele>495.8</ele>
        <time>2018-06-16T07:11:37Z</time>
      </trkpt>
      <trkpt lat="38.2563280" lon="-3.5750540">
        <ele>495.8</ele>
        <time>2018-06-16T07:11:38Z</time>
      </trkpt>
      <trkpt lat="38.2563310" lon="-3.5750540">
        <ele>495.8</ele>
        <time>2018-06-16T07:11:39Z</time>
      </trkpt>
      <trkpt lat="38.2563330" lon="-3.5750540">
        <ele>495.8</ele>
        <time>2018-06-16T07:11:40Z</time>
      </trkpt>
      <trkpt lat="38.2563360" lon="-3.5750540">
        <ele>495.8</ele>
        <time>2018-06-16T07:11:41Z</time>
      </trkpt>
      <trkpt lat="38.2563370" lon="-3.5750540">
        <ele>495.8</ele>
        <time>2018-06-16T07:11:42Z</time>
      </trkpt>
      <trkpt lat="38.2563380" lon="-3.5750540">
        <ele>495.8</ele>
        <time>2018-06-16T07:11:43Z</time>
      </trkpt>
      <trkpt lat="38.2563380" lon="-3.5750540">
        <ele>495.8</ele>
        <time>2018-06-16T07:11:44Z</time>
      </trkpt>
      <trkpt lat="38.2563380" lon="-3.5750540">
        <ele>495.8</ele>
        <time>2018-06-16T07:11:45Z</time>
      </trkpt>
      <trkpt lat="38.2563390" lon="-3.5750540">
        <ele>495.8</ele>
        <time>2018-06-16T07:11:46Z</time>
      </trkpt>
      <trkpt lat="38.2563390" lon="-3.5750540">
        <ele>495.8</ele>
        <time>2018-06-16T07:11:47Z</time>
      </trkpt>
      <trkpt lat="38.2563400" lon="-3.5750540">
        <ele>495.8</ele>
        <time>2018-06-16T07:11:48Z</time>
      </trkpt>
      <trkpt lat="38.2563410" lon="-3.5750540">
        <ele>495.8</ele>
        <time>2018-06-16T07:11:49Z</time>
      </trkpt>
      <trkpt lat="38.2564220" lon="-3.5751070">
        <ele>495.4</ele>
        <time>2018-06-16T07:12:07Z</time>
      </trkpt>
      <trkpt lat="38.2564390" lon="-3.5751470">
        <ele>495.2</ele>
        <time>2018-06-16T07:12:08Z</time>
      </trkpt>
      <trkpt lat="38.2564520" lon="-3.5751970">
        <ele>495.0</ele>
        <time>2018-06-16T07:12:09Z</time>
      </trkpt>
      <trkpt lat="38.2564610" lon="-3.5752540">
        <ele>495.0</ele>
        <time>2018-06-16T07:12:10Z</time>
      </trkpt>
      <trkpt lat="38.2564670" lon="-3.5753140">
        <ele>495.0</ele>
        <time>2018-06-16T07:12:11Z</time>
      </trkpt>
      <trkpt lat="38.2564730" lon="-3.5753780">
        <ele>495.0</ele>
        <time>2018-06-16T07:12:12Z</time>
      </trkpt>
      <trkpt lat="38.2564810" lon="-3.5754440">
        <ele>495.0</ele>
        <time>2018-06-16T07:12:13Z</time>
      </trkpt>
      <trkpt lat="38.2564900" lon="-3.5755120">
        <ele>495.0</ele>
        <time>2018-06-16T07:12:14Z</time>
      </trkpt>
      <trkpt lat="38.2564990" lon="-3.5755800">
        <ele>495.0</ele>
        <time>2018-06-16T07:12:15Z</time>
      </trkpt>
      <trkpt lat="38.2565070" lon="-3.5756500">
        <ele>494.8</ele>
        <time>2018-06-16T07:12:16Z</time>
      </trkpt>
      <trkpt lat="38.2565170" lon="-3.5757200">
        <ele>495.0</ele>
        <time>2018-06-16T07:12:17Z</time>
      </trkpt>
      <trkpt lat="38.2565290" lon="-3.5757920">
        <ele>495.0</ele>
        <time>2018-06-16T07:12:18Z</time>
      </trkpt>
      <trkpt lat="38.2565390" lon="-3.5758650">
        <ele>494.8</ele>
        <time>2018-06-16T07:12:19Z</time>
      </trkpt>
      <trkpt lat="38.2565490" lon="-3.5759390">
        <ele>494.8</ele>
        <time>2018-06-16T07:12:20Z</time>
      </trkpt>
      <trkpt lat="38.2565590" lon="-3.5760130">
        <ele>494.8</ele>
        <time>2018-06-16T07:12:21Z</time>
      </trkpt>
      <trkpt lat="38.2565680" lon="-3.5760870">
        <ele>494.8</ele>
        <time>2018-06-16T07:12:22Z</time>
      </trkpt>
      <trkpt lat="38.2565780" lon="-3.5761610">
        <ele>494.8</ele>
        <time>2018-06-16T07:12:23Z</time>
      </trkpt>
      <trkpt lat="38.2565900" lon="-3.5762350">
        <ele>494.8</ele>
        <time>2018-06-16T07:12:24Z</time>
      </trkpt>
      <trkpt lat="38.2566010" lon="-3.5763100">
        <ele>494.8</ele>
        <time>2018-06-16T07:12:25Z</time>
      </trkpt>
      <trkpt lat="38.2566110" lon="-3.5763860">
        <ele>495.0</ele>
        <time>2018-06-16T07:12:26Z</time>
      </trkpt>
      <trkpt lat="38.2566230" lon="-3.5764610">
        <ele>495.0</ele>
        <time>2018-06-16T07:12:27Z</time>
      </trkpt>
      <trkpt lat="38.2566370" lon="-3.5765370">
        <ele>495.0</ele>
        <time>2018-06-16T07:12:28Z</time>
      </trkpt>
      <trkpt lat="38.2566520" lon="-3.5766140">
        <ele>494.8</ele>
        <time>2018-06-16T07:12:29Z</time>
      </trkpt>
      <trkpt lat="38.2566690" lon="-3.5766920">
        <ele>494.8</ele>
        <time>2018-06-16T07:12:30Z</time>
      </trkpt>
      <trkpt lat="38.2566870" lon="-3.5767700">
        <ele>494.6</ele>
        <time>2018-06-16T07:12:31Z</time>
      </trkpt>
      <trkpt lat="38.2567070" lon="-3.5768500">
        <ele>494.8</ele>
        <time>2018-06-16T07:12:32Z</time>
      </trkpt>
      <trkpt lat="38.2567270" lon="-3.5769300">
        <ele>494.6</ele>
        <time>2018-06-16T07:12:33Z</time>
      </trkpt>
      <trkpt lat="38.2567480" lon="-3.5770100">
        <ele>494.4</ele>
        <time>2018-06-16T07:12:34Z</time>
      </trkpt>
      <trkpt lat="38.2567700" lon="-3.5770910">
        <ele>494.2</ele>
        <time>2018-06-16T07:12:35Z</time>
      </trkpt>
      <trkpt lat="38.2567940" lon="-3.5771720">
        <ele>494.2</ele>
        <time>2018-06-16T07:12:36Z</time>
      </trkpt>
      <trkpt lat="38.2568190" lon="-3.5772530">
        <ele>494.0</ele>
        <time>2018-06-16T07:12:37Z</time>
      </trkpt>
      <trkpt lat="38.2568450" lon="-3.5773360">
        <ele>494.0</ele>
        <time>2018-06-16T07:12:38Z</time>
      </trkpt>
      <trkpt lat="38.2568720" lon="-3.5774190">
        <ele>494.0</ele>
        <time>2018-06-16T07:12:39Z</time>
      </trkpt>
      <trkpt lat="38.2569010" lon="-3.5775040">
        <ele>493.6</ele>
        <time>2018-06-16T07:12:40Z</time>
      </trkpt>
      <trkpt lat="38.2569300" lon="-3.5775880">
        <ele>494.6</ele>
        <time>2018-06-16T07:12:41Z</time>
      </trkpt>
      <trkpt lat="38.2569610" lon="-3.5776730">
        <ele>493.4</ele>
        <time>2018-06-16T07:12:42Z</time>
      </trkpt>
      <trkpt lat="38.2569910" lon="-3.5777610">
        <ele>493.6</ele>
        <time>2018-06-16T07:12:43Z</time>
      </trkpt>
      <trkpt lat="38.2570240" lon="-3.5778470">
        <ele>493.6</ele>
        <time>2018-06-16T07:12:44Z</time>
      </trkpt>
      <trkpt lat="38.2570570" lon="-3.5779330">
        <ele>493.0</ele>
        <time>2018-06-16T07:12:45Z</time>
      </trkpt>
      <trkpt lat="38.2570900" lon="-3.5780200">
        <ele>493.0</ele>
        <time>2018-06-16T07:12:46Z</time>
      </trkpt>
      <trkpt lat="38.2571230" lon="-3.5781080">
        <ele>492.4</ele>
        <time>2018-06-16T07:12:47Z</time>
      </trkpt>
      <trkpt lat="38.2571560" lon="-3.5781980">
        <ele>492.2</ele>
        <time>2018-06-16T07:12:48Z</time>
      </trkpt>
      <trkpt lat="38.2571920" lon="-3.5782890">
        <ele>492.0</ele>
        <time>2018-06-16T07:12:49Z</time>
      </trkpt>
      <trkpt lat="38.2572320" lon="-3.5783800">
        <ele>491.6</ele>
        <time>2018-06-16T07:12:50Z</time>
      </trkpt>
      <trkpt lat="38.2572730" lon="-3.5784730">
        <ele>491.4</ele>
        <time>2018-06-16T07:12:51Z</time>
      </trkpt>
      <trkpt lat="38.2573160" lon="-3.5785660">
        <ele>491.0</ele>
        <time>2018-06-16T07:12:52Z</time>
      </trkpt>
      <trkpt lat="38.2573610" lon="-3.5786610">
        <ele>490.8</ele>
        <time>2018-06-16T07:12:53Z</time>
      </trkpt>
      <trkpt lat="38.2574070" lon="-3.5787580">
        <ele>490.2</ele>
        <time>2018-06-16T07:12:54Z</time>
      </trkpt>
      <trkpt lat="38.2574540" lon="-3.5788570">
        <ele>490.0</ele>
        <time>2018-06-16T07:12:55Z</time>
      </trkpt>
      <trkpt lat="38.2574990" lon="-3.5789600">
        <ele>489.4</ele>
        <time>2018-06-16T07:12:56Z</time>
      </trkpt>
      <trkpt lat="38.2575470" lon="-3.5790620">
        <ele>489.2</ele>
        <time>2018-06-16T07:12:57Z</time>
      </trkpt>
      <trkpt lat="38.2575980" lon="-3.5791670">
        <ele>488.6</ele>
        <time>2018-06-16T07:12:58Z</time>
      </trkpt>
      <trkpt lat="38.2576480" lon="-3.5792760">
        <ele>488.2</ele>
        <time>2018-06-16T07:12:59Z</time>
      </trkpt>
      <trkpt lat="38.2577000" lon="-3.5793860">
        <ele>487.8</ele>
        <time>2018-06-16T07:13:00Z</time>
      </trkpt>
      <trkpt lat="38.2577530" lon="-3.5794990">
        <ele>487.4</ele>
        <time>2018-06-16T07:13:01Z</time>
      </trkpt>
      <trkpt lat="38.2578080" lon="-3.5796130">
        <ele>487.0</ele>
        <time>2018-06-16T07:13:02Z</time>
      </trkpt>
      <trkpt lat="38.2578640" lon="-3.5797310">
        <ele>486.4</ele>
        <time>2018-06-16T07:13:03Z</time>
      </trkpt>
      <trkpt lat="38.2579180" lon="-3.5798540">
        <ele>485.8</ele>
        <time>2018-06-16T07:13:04Z</time>
      </trkpt>
      <trkpt lat="38.2579720" lon="-3.5799800">
        <ele>485.2</ele>
        <time>2018-06-16T07:13:05Z</time>
      </trkpt>
      <trkpt lat="38.2580290" lon="-3.5801070">
        <ele>484.0</ele>
        <time>2018-06-16T07:13:06Z</time>
      </trkpt>
      <trkpt lat="38.2580880" lon="-3.5802360">
        <ele>483.6</ele>
        <time>2018-06-16T07:13:07Z</time>
      </trkpt>
      <trkpt lat="38.2581490" lon="-3.5803660">
        <ele>482.4</ele>
        <time>2018-06-16T07:13:08Z</time>
      </trkpt>
      <trkpt lat="38.2582130" lon="-3.5805000">
        <ele>481.6</ele>
        <time>2018-06-16T07:13:09Z</time>
      </trkpt>
      <trkpt lat="38.2582760" lon="-3.5806350">
        <ele>480.8</ele>
        <time>2018-06-16T07:13:10Z</time>
      </trkpt>
      <trkpt lat="38.2583400" lon="-3.5807730">
        <ele>480.2</ele>
        <time>2018-06-16T07:13:11Z</time>
      </trkpt>
      <trkpt lat="38.2584060" lon="-3.5809150">
        <ele>479.6</ele>
        <time>2018-06-16T07:13:12Z</time>
      </trkpt>
      <trkpt lat="38.2584730" lon="-3.5810590">
        <ele>479.2</ele>
        <time>2018-06-16T07:13:13Z</time>
      </trkpt>
      <trkpt lat="38.2585430" lon="-3.5812040">
        <ele>478.8</ele>
        <time>2018-06-16T07:13:14Z</time>
      </trkpt>
      <trkpt lat="38.2586130" lon="-3.5813480">
        <ele>478.0</ele>
        <time>2018-06-16T07:13:15Z</time>
      </trkpt>
      <trkpt lat="38.2586840" lon="-3.5814920">
        <ele>477.2</ele>
        <time>2018-06-16T07:13:16Z</time>
      </trkpt>
      <trkpt lat="38.2587550" lon="-3.5816350">
        <ele>477.2</ele>
        <time>2018-06-16T07:13:17Z</time>
      </trkpt>
      <trkpt lat="38.2588250" lon="-3.5817770">
        <ele>476.6</ele>
        <time>2018-06-16T07:13:18Z</time>
      </trkpt>
      <trkpt lat="38.2588940" lon="-3.5819180">
        <ele>476.4</ele>
        <time>2018-06-16T07:13:19Z</time>
      </trkpt>
      <trkpt lat="38.2589610" lon="-3.5820600">
        <ele>475.8</ele>
        <time>2018-06-16T07:13:20Z</time>
      </trkpt>
      <trkpt lat="38.2590270" lon="-3.5822000">
        <ele>475.6</ele>
        <time>2018-06-16T07:13:21Z</time>
      </trkpt>
      <trkpt lat="38.2590910" lon="-3.5823390">
        <ele>475.2</ele>
        <time>2018-06-16T07:13:22Z</time>
      </trkpt>
      <trkpt lat="38.2591540" lon="-3.5824740">
        <ele>475.2</ele>
        <time>2018-06-16T07:13:23Z</time>
      </trkpt>
      <trkpt lat="38.2592180" lon="-3.5826080">
        <ele>475.2</ele>
        <time>2018-06-16T07:13:24Z</time>
      </trkpt>
      <trkpt lat="38.2592800" lon="-3.5827360">
        <ele>475.0</ele>
        <time>2018-06-16T07:13:25Z</time>
      </trkpt>
      <trkpt lat="38.2593420" lon="-3.5828650">
        <ele>475.0</ele>
        <time>2018-06-16T07:13:26Z</time>
      </trkpt>
      <trkpt lat="38.2594030" lon="-3.5829880">
        <ele>474.6</ele>
        <time>2018-06-16T07:13:27Z</time>
      </trkpt>
      <trkpt lat="38.2594650" lon="-3.5831060">
        <ele>475.2</ele>
        <time>2018-06-16T07:13:28Z</time>
      </trkpt>
      <trkpt lat="38.2595260" lon="-3.5832200">
        <ele>475.6</ele>
        <time>2018-06-16T07:13:29Z</time>
      </trkpt>
      <trkpt lat="38.2595860" lon="-3.5833300">
        <ele>475.8</ele>
        <time>2018-06-16T07:13:30Z</time>
      </trkpt>
      <trkpt lat="38.2596470" lon="-3.5834380">
        <ele>475.8</ele>
        <time>2018-06-16T07:13:31Z</time>
      </trkpt>
      <trkpt lat="38.2597060" lon="-3.5835430">
        <ele>475.8</ele>
        <time>2018-06-16T07:13:32Z</time>
      </trkpt>
      <trkpt lat="38.2597620" lon="-3.5836480">
        <ele>476.0</ele>
        <time>2018-06-16T07:13:33Z</time>
      </trkpt>
      <trkpt lat="38.2598180" lon="-3.5837520">
        <ele>476.0</ele>
        <time>2018-06-16T07:13:34Z</time>
      </trkpt>
      <trkpt lat="38.2598720" lon="-3.5838530">
        <ele>476.4</ele>
        <time>2018-06-16T07:13:35Z</time>
      </trkpt>
      <trkpt lat="38.2599280" lon="-3.5839520">
        <ele>476.8</ele>
        <time>2018-06-16T07:13:36Z</time>
      </trkpt>
      <trkpt lat="38.2599850" lon="-3.5840450">
        <ele>477.0</ele>
        <time>2018-06-16T07:13:37Z</time>
      </trkpt>
      <trkpt lat="38.2600420" lon="-3.5841330">
        <ele>477.4</ele>
        <time>2018-06-16T07:13:38Z</time>
      </trkpt>
      <trkpt lat="38.2601010" lon="-3.5842160">
        <ele>477.4</ele>
        <time>2018-06-16T07:13:39Z</time>
      </trkpt>
      <trkpt lat="38.2601600" lon="-3.5842940">
        <ele>477.8</ele>
        <time>2018-06-16T07:13:40Z</time>
      </trkpt>
      <trkpt lat="38.2602160" lon="-3.5843680">
        <ele>478.0</ele>
        <time>2018-06-16T07:13:41Z</time>
      </trkpt>
      <trkpt lat="38.2602680" lon="-3.5844440">
        <ele>478.2</ele>
        <time>2018-06-16T07:13:42Z</time>
      </trkpt>
      <trkpt lat="38.2603190" lon="-3.5845170">
        <ele>478.6</ele>
        <time>2018-06-16T07:13:43Z</time>
      </trkpt>
      <trkpt lat="38.2603680" lon="-3.5845880">
        <ele>478.8</ele>
        <time>2018-06-16T07:13:44Z</time>
      </trkpt>
      <trkpt lat="38.2604150" lon="-3.5846550">
        <ele>479.0</ele>
        <time>2018-06-16T07:13:45Z</time>
      </trkpt>
      <trkpt lat="38.2604630" lon="-3.5847200">
        <ele>479.2</ele>
        <time>2018-06-16T07:13:46Z</time>
      </trkpt>
      <trkpt lat="38.2605110" lon="-3.5847820">
        <ele>479.2</ele>
        <time>2018-06-16T07:13:47Z</time>
      </trkpt>
      <trkpt lat="38.2605580" lon="-3.5848420">
        <ele>479.6</ele>
        <time>2018-06-16T07:13:48Z</time>
      </trkpt>
      <trkpt lat="38.2606050" lon="-3.5849000">
        <ele>479.8</ele>
        <time>2018-06-16T07:13:49Z</time>
      </trkpt>
      <trkpt lat="38.2606510" lon="-3.5849570">
        <ele>479.8</ele>
        <time>2018-06-16T07:13:50Z</time>
      </trkpt>
      <trkpt lat="38.2606950" lon="-3.5850120">
        <ele>480.0</ele>
        <time>2018-06-16T07:13:51Z</time>
      </trkpt>
      <trkpt lat="38.2607390" lon="-3.5850650">
        <ele>480.4</ele>
        <time>2018-06-16T07:13:52Z</time>
      </trkpt>
      <trkpt lat="38.2607810" lon="-3.5851140">
        <ele>480.4</ele>
        <time>2018-06-16T07:13:53Z</time>
      </trkpt>
      <trkpt lat="38.2608240" lon="-3.5851600">
        <ele>480.4</ele>
        <time>2018-06-16T07:13:54Z</time>
      </trkpt>
      <trkpt lat="38.2608660" lon="-3.5852040">
        <ele>480.6</ele>
        <time>2018-06-16T07:13:55Z</time>
      </trkpt>
      <trkpt lat="38.2609070" lon="-3.5852480">
        <ele>480.6</ele>
        <time>2018-06-16T07:13:56Z</time>
      </trkpt>
      <trkpt lat="38.2609450" lon="-3.5852890">
        <ele>481.0</ele>
        <time>2018-06-16T07:13:57Z</time>
      </trkpt>
      <trkpt lat="38.2609830" lon="-3.5853260">
        <ele>481.2</ele>
        <time>2018-06-16T07:13:58Z</time>
      </trkpt>
      <trkpt lat="38.2610180" lon="-3.5853600">
        <ele>481.2</ele>
        <time>2018-06-16T07:13:59Z</time>
      </trkpt>
      <trkpt lat="38.2610530" lon="-3.5853940">
        <ele>481.4</ele>
        <time>2018-06-16T07:14:00Z</time>
      </trkpt>
      <trkpt lat="38.2610870" lon="-3.5854310">
        <ele>481.4</ele>
        <time>2018-06-16T07:14:01Z</time>
      </trkpt>
      <trkpt lat="38.2611210" lon="-3.5854650">
        <ele>481.6</ele>
        <time>2018-06-16T07:14:02Z</time>
      </trkpt>
      <trkpt lat="38.2611530" lon="-3.5854980">
        <ele>481.8</ele>
        <time>2018-06-16T07:14:03Z</time>
      </trkpt>
      <trkpt lat="38.2611870" lon="-3.5855290">
        <ele>482.0</ele>
        <time>2018-06-16T07:14:04Z</time>
      </trkpt>
      <trkpt lat="38.2612210" lon="-3.5855590">
        <ele>482.0</ele>
        <time>2018-06-16T07:14:05Z</time>
      </trkpt>
      <trkpt lat="38.2612550" lon="-3.5855920">
        <ele>482.2</ele>
        <time>2018-06-16T07:14:06Z</time>
      </trkpt>
      <trkpt lat="38.2612910" lon="-3.5856240">
        <ele>482.4</ele>
        <time>2018-06-16T07:14:07Z</time>
      </trkpt>
      <trkpt lat="38.2613270" lon="-3.5856550">
        <ele>482.4</ele>
        <time>2018-06-16T07:14:08Z</time>
      </trkpt>
      <trkpt lat="38.2613630" lon="-3.5856850">
        <ele>482.4</ele>
        <time>2018-06-16T07:14:09Z</time>
      </trkpt>
      <trkpt lat="38.2613980" lon="-3.5857150">
        <ele>482.6</ele>
        <time>2018-06-16T07:14:10Z</time>
      </trkpt>
      <trkpt lat="38.2614340" lon="-3.5857450">
        <ele>482.8</ele>
        <time>2018-06-16T07:14:11Z</time>
      </trkpt>
      <trkpt lat="38.2614700" lon="-3.5857730">
        <ele>482.8</ele>
        <time>2018-06-16T07:14:12Z</time>
      </trkpt>
      <trkpt lat="38.2615060" lon="-3.5858010">
        <ele>482.8</ele>
        <time>2018-06-16T07:14:13Z</time>
      </trkpt>
      <trkpt lat="38.2615420" lon="-3.5858280">
        <ele>483.2</ele>
        <time>2018-06-16T07:14:14Z</time>
      </trkpt>
      <trkpt lat="38.2615790" lon="-3.5858550">
        <ele>483.2</ele>
        <time>2018-06-16T07:14:15Z</time>
      </trkpt>
      <trkpt lat="38.2616150" lon="-3.5858820">
        <ele>483.4</ele>
        <time>2018-06-16T07:14:16Z</time>
      </trkpt>
      <trkpt lat="38.2616510" lon="-3.5859090">
        <ele>483.4</ele>
        <time>2018-06-16T07:14:17Z</time>
      </trkpt>
      <trkpt lat="38.2616890" lon="-3.5859370">
        <ele>483.6</ele>
        <time>2018-06-16T07:14:18Z</time>
      </trkpt>
      <trkpt lat="38.2617270" lon="-3.5859620">
        <ele>483.6</ele>
        <time>2018-06-16T07:14:19Z</time>
      </trkpt>
      <trkpt lat="38.2617650" lon="-3.5859890">
        <ele>483.8</ele>
        <time>2018-06-16T07:14:20Z</time>
      </trkpt>
      <trkpt lat="38.2618020" lon="-3.5860130">
        <ele>484.0</ele>
        <time>2018-06-16T07:14:21Z</time>
      </trkpt>
      <trkpt lat="38.2618400" lon="-3.5860360">
        <ele>484.0</ele>
        <time>2018-06-16T07:14:22Z</time>
      </trkpt>
      <trkpt lat="38.2618790" lon="-3.5860590">
        <ele>484.2</ele>
        <time>2018-06-16T07:14:23Z</time>
      </trkpt>
      <trkpt lat="38.2619170" lon="-3.5860840">
        <ele>484.4</ele>
        <time>2018-06-16T07:14:24Z</time>
      </trkpt>
      <trkpt lat="38.2619560" lon="-3.5861080">
        <ele>484.4</ele>
        <time>2018-06-16T07:14:25Z</time>
      </trkpt>
      <trkpt lat="38.2619930" lon="-3.5861270">
        <ele>484.4</ele>
        <time>2018-06-16T07:14:26Z</time>
      </trkpt>
      <trkpt lat="38.2620330" lon="-3.5861470">
        <ele>484.6</ele>
        <time>2018-06-16T07:14:27Z</time>
      </trkpt>
      <trkpt lat="38.2620720" lon="-3.5861670">
        <ele>484.6</ele>
        <time>2018-06-16T07:14:28Z</time>
      </trkpt>
      <trkpt lat="38.2621110" lon="-3.5861890">
        <ele>484.8</ele>
        <time>2018-06-16T07:14:29Z</time>
      </trkpt>
      <trkpt lat="38.2621510" lon="-3.5862090">
        <ele>485.0</ele>
        <time>2018-06-16T07:14:30Z</time>
      </trkpt>
      <trkpt lat="38.2621900" lon="-3.5862290">
        <ele>485.0</ele>
        <time>2018-06-16T07:14:31Z</time>
      </trkpt>
      <trkpt lat="38.2622310" lon="-3.5862490">
        <ele>485.2</ele>
        <time>2018-06-16T07:14:32Z</time>
      </trkpt>
      <trkpt lat="38.2622710" lon="-3.5862670">
        <ele>485.2</ele>
        <time>2018-06-16T07:14:33Z</time>
      </trkpt>
      <trkpt lat="38.2623120" lon="-3.5862850">
        <ele>485.2</ele>
        <time>2018-06-16T07:14:34Z</time>
      </trkpt>
      <trkpt lat="38.2623520" lon="-3.5863010">
        <ele>485.4</ele>
        <time>2018-06-16T07:14:35Z</time>
      </trkpt>
      <trkpt lat="38.2623910" lon="-3.5863170">
        <ele>485.4</ele>
        <time>2018-06-16T07:14:36Z</time>
      </trkpt>
      <trkpt lat="38.2624300" lon="-3.5863320">
        <ele>485.6</ele>
        <time>2018-06-16T07:14:37Z</time>
      </trkpt>
      <trkpt lat="38.2624670" lon="-3.5863520">
        <ele>485.8</ele>
        <time>2018-06-16T07:14:38Z</time>
      </trkpt>
      <trkpt lat="38.2625040" lon="-3.5863710">
        <ele>486.0</ele>
        <time>2018-06-16T07:14:39Z</time>
      </trkpt>
      <trkpt lat="38.2625400" lon="-3.5863940">
        <ele>486.0</ele>
        <time>2018-06-16T07:14:40Z</time>
      </trkpt>
      <trkpt lat="38.2625760" lon="-3.5864180">
        <ele>486.0</ele>
        <time>2018-06-16T07:14:41Z</time>
      </trkpt>
      <trkpt lat="38.2626140" lon="-3.5864400">
        <ele>486.2</ele>
        <time>2018-06-16T07:14:42Z</time>
      </trkpt>
      <trkpt lat="38.2626530" lon="-3.5864610">
        <ele>486.4</ele>
        <time>2018-06-16T07:14:43Z</time>
      </trkpt>
      <trkpt lat="38.2626900" lon="-3.5864840">
        <ele>486.6</ele>
        <time>2018-06-16T07:14:44Z</time>
      </trkpt>
      <trkpt lat="38.2627270" lon="-3.5865020">
        <ele>486.8</ele>
        <time>2018-06-16T07:14:45Z</time>
      </trkpt>
      <trkpt lat="38.2627650" lon="-3.5865180">
        <ele>486.8</ele>
        <time>2018-06-16T07:14:46Z</time>
      </trkpt>
      <trkpt lat="38.2628040" lon="-3.5865340">
        <ele>487.0</ele>
        <time>2018-06-16T07:14:47Z</time>
      </trkpt>
      <trkpt lat="38.2628430" lon="-3.5865510">
        <ele>487.2</ele>
        <time>2018-06-16T07:14:48Z</time>
      </trkpt>
      <trkpt lat="38.2628820" lon="-3.5865680">
        <ele>487.2</ele>
        <time>2018-06-16T07:14:49Z</time>
      </trkpt>
      <trkpt lat="38.2629210" lon="-3.5865840">
        <ele>487.2</ele>
        <time>2018-06-16T07:14:50Z</time>
      </trkpt>
      <trkpt lat="38.2629590" lon="-3.5865990">
        <ele>487.6</ele>
        <time>2018-06-16T07:14:51Z</time>
      </trkpt>
      <trkpt lat="38.2629990" lon="-3.5866140">
        <ele>487.6</ele>
        <time>2018-06-16T07:14:52Z</time>
      </trkpt>
      <trkpt lat="38.2630390" lon="-3.5866260">
        <ele>487.6</ele>
        <time>2018-06-16T07:14:53Z</time>
      </trkpt>
      <trkpt lat="38.2630790" lon="-3.5866370">
        <ele>487.8</ele>
        <time>2018-06-16T07:14:54Z</time>
      </trkpt>
      <trkpt lat="38.2631190" lon="-3.5866480">
        <ele>488.0</ele>
        <time>2018-06-16T07:14:55Z</time>
      </trkpt>
      <trkpt lat="38.2631580" lon="-3.5866580">
        <ele>488.0</ele>
        <time>2018-06-16T07:14:56Z</time>
      </trkpt>
      <trkpt lat="38.2631970" lon="-3.5866700">
        <ele>488.2</ele>
        <time>2018-06-16T07:14:57Z</time>
      </trkpt>
      <trkpt lat="38.2632350" lon="-3.5866830">
        <ele>488.2</ele>
        <time>2018-06-16T07:14:58Z</time>
      </trkpt>
      <trkpt lat="38.2632720" lon="-3.5866930">
        <ele>488.4</ele>
        <time>2018-06-16T07:14:59Z</time>
      </trkpt>
      <trkpt lat="38.2633100" lon="-3.5867010">
        <ele>488.6</ele>
        <time>2018-06-16T07:15:00Z</time>
      </trkpt>
      <trkpt lat="38.2633490" lon="-3.5867100">
        <ele>488.6</ele>
        <time>2018-06-16T07:15:01Z</time>
      </trkpt>
      <trkpt lat="38.2633880" lon="-3.5867190">
        <ele>488.8</ele>
        <time>2018-06-16T07:15:02Z</time>
      </trkpt>
      <trkpt lat="38.2634270" lon="-3.5867310">
        <ele>488.8</ele>
        <time>2018-06-16T07:15:03Z</time>
      </trkpt>
      <trkpt lat="38.2634640" lon="-3.5867500">
        <ele>489.0</ele>
        <time>2018-06-16T07:15:04Z</time>
      </trkpt>
      <trkpt lat="38.2634940" lon="-3.5867810">
        <ele>489.2</ele>
        <time>2018-06-16T07:15:05Z</time>
      </trkpt>
      <trkpt lat="38.2635130" lon="-3.5868230">
        <ele>489.4</ele>
        <time>2018-06-16T07:15:06Z</time>
      </trkpt>
      <trkpt lat="38.2635170" lon="-3.5868700">
        <ele>489.6</ele>
        <time>2018-06-16T07:15:07Z</time>
      </trkpt>
      <trkpt lat="38.2635140" lon="-3.5869180">
        <ele>489.6</ele>
        <time>2018-06-16T07:15:08Z</time>
      </trkpt>
      <trkpt lat="38.2635100" lon="-3.5869680">
        <ele>489.6</ele>
        <time>2018-06-16T07:15:09Z</time>
      </trkpt>
      <trkpt lat="38.2635050" lon="-3.5870190">
        <ele>489.4</ele>
        <time>2018-06-16T07:15:10Z</time>
      </trkpt>
      <trkpt lat="38.2635030" lon="-3.5870720">
        <ele>489.2</ele>
        <time>2018-06-16T07:15:11Z</time>
      </trkpt>
      <trkpt lat="38.2635010" lon="-3.5871270">
        <ele>489.2</ele>
        <time>2018-06-16T07:15:12Z</time>
      </trkpt>
      <trkpt lat="38.2634980" lon="-3.5871840">
        <ele>489.2</ele>
        <time>2018-06-16T07:15:13Z</time>
      </trkpt>
      <trkpt lat="38.2634940" lon="-3.5872410">
        <ele>489.2</ele>
        <time>2018-06-16T07:15:14Z</time>
      </trkpt>
      <trkpt lat="38.2634860" lon="-3.5873000">
        <ele>489.2</ele>
        <time>2018-06-16T07:15:15Z</time>
      </trkpt>
      <trkpt lat="38.2634800" lon="-3.5873580">
        <ele>489.0</ele>
        <time>2018-06-16T07:15:16Z</time>
      </trkpt>
      <trkpt lat="38.2634720" lon="-3.5874180">
        <ele>489.0</ele>
        <time>2018-06-16T07:15:17Z</time>
      </trkpt>
      <trkpt lat="38.2634650" lon="-3.5874780">
        <ele>489.0</ele>
        <time>2018-06-16T07:15:18Z</time>
      </trkpt>
      <trkpt lat="38.2634580" lon="-3.5875390">
        <ele>489.0</ele>
        <time>2018-06-16T07:15:19Z</time>
      </trkpt>
      <trkpt lat="38.2634510" lon="-3.5876000">
        <ele>489.0</ele>
        <time>2018-06-16T07:15:20Z</time>
      </trkpt>
      <trkpt lat="38.2634450" lon="-3.5876600">
        <ele>489.0</ele>
        <time>2018-06-16T07:15:21Z</time>
      </trkpt>
      <trkpt lat="38.2634380" lon="-3.5877190">
        <ele>489.0</ele>
        <time>2018-06-16T07:15:22Z</time>
      </trkpt>
      <trkpt lat="38.2634310" lon="-3.5877780">
        <ele>489.0</ele>
        <time>2018-06-16T07:15:23Z</time>
      </trkpt>
      <trkpt lat="38.2634240" lon="-3.5878360">
        <ele>489.2</ele>
        <time>2018-06-16T07:15:24Z</time>
      </trkpt>
      <trkpt lat="38.2634190" lon="-3.5878930">
        <ele>489.2</ele>
        <time>2018-06-16T07:15:25Z</time>
      </trkpt>
      <trkpt lat="38.2634140" lon="-3.5879500">
        <ele>489.2</ele>
        <time>2018-06-16T07:15:26Z</time>
      </trkpt>
      <trkpt lat="38.2634100" lon="-3.5880060">
        <ele>489.4</ele>
        <time>2018-06-16T07:15:27Z</time>
      </trkpt>
      <trkpt lat="38.2634070" lon="-3.5880610">
        <ele>489.6</ele>
        <time>2018-06-16T07:15:28Z</time>
      </trkpt>
      <trkpt lat="38.2634050" lon="-3.5881160">
        <ele>489.6</ele>
        <time>2018-06-16T07:15:29Z</time>
      </trkpt>
      <trkpt lat="38.2634010" lon="-3.5881670">
        <ele>489.8</ele>
        <time>2018-06-16T07:15:30Z</time>
      </trkpt>
      <trkpt lat="38.2634000" lon="-3.5882180">
        <ele>490.0</ele>
        <time>2018-06-16T07:15:31Z</time>
      </trkpt>
      <trkpt lat="38.2634050" lon="-3.5882600">
        <ele>490.2</ele>
        <time>2018-06-16T07:15:32Z</time>
      </trkpt>
      <trkpt lat="38.2634060" lon="-3.5883070">
        <ele>490.4</ele>
        <time>2018-06-16T07:15:33Z</time>
      </trkpt>
      <trkpt lat="38.2634050" lon="-3.5883540">
        <ele>490.6</ele>
        <time>2018-06-16T07:15:34Z</time>
      </trkpt>
      <trkpt lat="38.2634060" lon="-3.5884020">
        <ele>491.0</ele>
        <time>2018-06-16T07:15:35Z</time>
      </trkpt>
      <trkpt lat="38.2634050" lon="-3.5884500">
        <ele>491.0</ele>
        <time>2018-06-16T07:15:36Z</time>
      </trkpt>
      <trkpt lat="38.2634060" lon="-3.5884970">
        <ele>491.0</ele>
        <time>2018-06-16T07:15:37Z</time>
      </trkpt>
      <trkpt lat="38.2634080" lon="-3.5885440">
        <ele>491.2</ele>
        <time>2018-06-16T07:15:38Z</time>
      </trkpt>
      <trkpt lat="38.2634070" lon="-3.5885860">
        <ele>491.4</ele>
        <time>2018-06-16T07:15:39Z</time>
      </trkpt>
      <trkpt lat="38.2634090" lon="-3.5886320">
        <ele>491.8</ele>
        <time>2018-06-16T07:15:40Z</time>
      </trkpt>
      <trkpt lat="38.2634130" lon="-3.5886780">
        <ele>492.0</ele>
        <time>2018-06-16T07:15:41Z</time>
      </trkpt>
      <trkpt lat="38.2634170" lon="-3.5887240">
        <ele>492.2</ele>
        <time>2018-06-16T07:15:42Z</time>
      </trkpt>
      <trkpt lat="38.2634220" lon="-3.5887700">
        <ele>492.6</ele>
        <time>2018-06-16T07:15:43Z</time>
      </trkpt>
      <trkpt lat="38.2634260" lon="-3.5888170">
        <ele>492.8</ele>
        <time>2018-06-16T07:15:44Z</time>
      </trkpt>
      <trkpt lat="38.2634310" lon="-3.5888620">
        <ele>493.0</ele>
        <time>2018-06-16T07:15:45Z</time>
      </trkpt>
      <trkpt lat="38.2634380" lon="-3.5889060">
        <ele>493.2</ele>
        <time>2018-06-16T07:15:46Z</time>
      </trkpt>
      <trkpt lat="38.2634450" lon="-3.5889500">
        <ele>493.4</ele>
        <time>2018-06-16T07:15:47Z</time>
      </trkpt>
      <trkpt lat="38.2634510" lon="-3.5889930">
        <ele>493.8</ele>
        <time>2018-06-16T07:15:48Z</time>
      </trkpt>
      <trkpt lat="38.2634590" lon="-3.5890350">
        <ele>494.0</ele>
        <time>2018-06-16T07:15:49Z</time>
      </trkpt>
      <trkpt lat="38.2634670" lon="-3.5890770">
        <ele>494.2</ele>
        <time>2018-06-16T07:15:50Z</time>
      </trkpt>
      <trkpt lat="38.2634750" lon="-3.5891200">
        <ele>494.4</ele>
        <time>2018-06-16T07:15:51Z</time>
      </trkpt>
      <trkpt lat="38.2634830" lon="-3.5891620">
        <ele>494.8</ele>
        <time>2018-06-16T07:15:52Z</time>
      </trkpt>
      <trkpt lat="38.2634910" lon="-3.5892050">
        <ele>495.0</ele>
        <time>2018-06-16T07:15:53Z</time>
      </trkpt>
      <trkpt lat="38.2635000" lon="-3.5892470">
        <ele>495.2</ele>
        <time>2018-06-16T07:15:54Z</time>
      </trkpt>
      <trkpt lat="38.2635090" lon="-3.5892880">
        <ele>495.4</ele>
        <time>2018-06-16T07:15:55Z</time>
      </trkpt>
      <trkpt lat="38.2635190" lon="-3.5893290">
        <ele>495.6</ele>
        <time>2018-06-16T07:15:56Z</time>
      </trkpt>
      <trkpt lat="38.2635290" lon="-3.5893700">
        <ele>496.0</ele>
        <time>2018-06-16T07:15:57Z</time>
      </trkpt>
      <trkpt lat="38.2635400" lon="-3.5894100">
        <ele>496.2</ele>
        <time>2018-06-16T07:15:58Z</time>
      </trkpt>
      <trkpt lat="38.2635530" lon="-3.5894490">
        <ele>496.4</ele>
        <time>2018-06-16T07:15:59Z</time>
      </trkpt>
      <trkpt lat="38.2635660" lon="-3.5894900">
        <ele>496.6</ele>
        <time>2018-06-16T07:16:00Z</time>
      </trkpt>
      <trkpt lat="38.2635790" lon="-3.5895300">
        <ele>497.0</ele>
        <time>2018-06-16T07:16:01Z</time>
      </trkpt>
      <trkpt lat="38.2635910" lon="-3.5895710">
        <ele>497.2</ele>
        <time>2018-06-16T07:16:02Z</time>
      </trkpt>
      <trkpt lat="38.2636060" lon="-3.5896100">
        <ele>497.4</ele>
        <time>2018-06-16T07:16:03Z</time>
      </trkpt>
      <trkpt lat="38.2636180" lon="-3.5896500">
        <ele>497.6</ele>
        <time>2018-06-16T07:16:04Z</time>
      </trkpt>
      <trkpt lat="38.2636320" lon="-3.5896900">
        <ele>497.8</ele>
        <time>2018-06-16T07:16:05Z</time>
      </trkpt>
      <trkpt lat="38.2636450" lon="-3.5897280">
        <ele>498.2</ele>
        <time>2018-06-16T07:16:06Z</time>
      </trkpt>
      <trkpt lat="38.2636590" lon="-3.5897660">
        <ele>498.4</ele>
        <time>2018-06-16T07:16:07Z</time>
      </trkpt>
      <trkpt lat="38.2636740" lon="-3.5898040">
        <ele>498.8</ele>
        <time>2018-06-16T07:16:08Z</time>
      </trkpt>
      <trkpt lat="38.2636890" lon="-3.5898420">
        <ele>499.0</ele>
        <time>2018-06-16T07:16:09Z</time>
      </trkpt>
      <trkpt lat="38.2637060" lon="-3.5898790">
        <ele>499.2</ele>
        <time>2018-06-16T07:16:10Z</time>
      </trkpt>
      <trkpt lat="38.2637220" lon="-3.5899160">
        <ele>499.4</ele>
        <time>2018-06-16T07:16:11Z</time>
      </trkpt>
      <trkpt lat="38.2637370" lon="-3.5899520">
        <ele>499.8</ele>
        <time>2018-06-16T07:16:12Z</time>
      </trkpt>
      <trkpt lat="38.2637540" lon="-3.5899880">
        <ele>499.8</ele>
        <time>2018-06-16T07:16:13Z</time>
      </trkpt>
      <trkpt lat="38.2637700" lon="-3.5900210">
        <ele>500.2</ele>
        <time>2018-06-16T07:16:14Z</time>
      </trkpt>
      <trkpt lat="38.2637870" lon="-3.5900510">
        <ele>500.4</ele>
        <time>2018-06-16T07:16:15Z</time>
      </trkpt>
      <trkpt lat="38.2638030" lon="-3.5900810">
        <ele>500.6</ele>
        <time>2018-06-16T07:16:16Z</time>
      </trkpt>
      <trkpt lat="38.2638190" lon="-3.5901120">
        <ele>500.8</ele>
        <time>2018-06-16T07:16:17Z</time>
      </trkpt>
      <trkpt lat="38.2638370" lon="-3.5901470">
        <ele>501.0</ele>
        <time>2018-06-16T07:16:18Z</time>
      </trkpt>
      <trkpt lat="38.2638540" lon="-3.5901800">
        <ele>501.4</ele>
        <time>2018-06-16T07:16:19Z</time>
      </trkpt>
      <trkpt lat="38.2638730" lon="-3.5902130">
        <ele>501.6</ele>
        <time>2018-06-16T07:16:20Z</time>
      </trkpt>
      <trkpt lat="38.2638910" lon="-3.5902450">
        <ele>501.8</ele>
        <time>2018-06-16T07:16:21Z</time>
      </trkpt>
      <trkpt lat="38.2639080" lon="-3.5902770">
        <ele>502.0</ele>
        <time>2018-06-16T07:16:22Z</time>
      </trkpt>
      <trkpt lat="38.2639260" lon="-3.5903080">
        <ele>502.2</ele>
        <time>2018-06-16T07:16:23Z</time>
      </trkpt>
      <trkpt lat="38.2639430" lon="-3.5903360">
        <ele>502.4</ele>
        <time>2018-06-16T07:16:24Z</time>
      </trkpt>
      <trkpt lat="38.2639610" lon="-3.5903670">
        <ele>502.6</ele>
        <time>2018-06-16T07:16:25Z</time>
      </trkpt>
      <trkpt lat="38.2639780" lon="-3.5903980">
        <ele>502.8</ele>
        <time>2018-06-16T07:16:26Z</time>
      </trkpt>
      <trkpt lat="38.2639970" lon="-3.5904290">
        <ele>503.0</ele>
        <time>2018-06-16T07:16:27Z</time>
      </trkpt>
      <trkpt lat="38.2640160" lon="-3.5904600">
        <ele>503.2</ele>
        <time>2018-06-16T07:16:28Z</time>
      </trkpt>
      <trkpt lat="38.2640330" lon="-3.5904920">
        <ele>503.6</ele>
        <time>2018-06-16T07:16:29Z</time>
      </trkpt>
      <trkpt lat="38.2640510" lon="-3.5905230">
        <ele>504.0</ele>
        <time>2018-06-16T07:16:30Z</time>
      </trkpt>
      <trkpt lat="38.2640690" lon="-3.5905550">
        <ele>504.0</ele>
        <time>2018-06-16T07:16:31Z</time>
      </trkpt>
      <trkpt lat="38.2640870" lon="-3.5905860">
        <ele>504.2</ele>
        <time>2018-06-16T07:16:32Z</time>
      </trkpt>
      <trkpt lat="38.2641060" lon="-3.5906160">
        <ele>504.4</ele>
        <time>2018-06-16T07:16:33Z</time>
      </trkpt>
      <trkpt lat="38.2641250" lon="-3.5906460">
        <ele>504.8</ele>
        <time>2018-06-16T07:16:34Z</time>
      </trkpt>
      <trkpt lat="38.2641420" lon="-3.5906780">
        <ele>504.8</ele>
        <time>2018-06-16T07:16:35Z</time>
      </trkpt>
      <trkpt lat="38.2641600" lon="-3.5907110">
        <ele>505.0</ele>
        <time>2018-06-16T07:16:36Z</time>
      </trkpt>
      <trkpt lat="38.2641790" lon="-3.5907420">
        <ele>505.4</ele>
        <time>2018-06-16T07:16:37Z</time>
      </trkpt>
      <trkpt lat="38.2641980" lon="-3.5907710">
        <ele>505.6</ele>
        <time>2018-06-16T07:16:38Z</time>
      </trkpt>
      <trkpt lat="38.2642170" lon="-3.5908010">
        <ele>505.8</ele>
        <time>2018-06-16T07:16:39Z</time>
      </trkpt>
      <trkpt lat="38.2642370" lon="-3.5908310">
        <ele>506.0</ele>
        <time>2018-06-16T07:16:40Z</time>
      </trkpt>
      <trkpt lat="38.2642570" lon="-3.5908610">
        <ele>506.2</ele>
        <time>2018-06-16T07:16:41Z</time>
      </trkpt>
      <trkpt lat="38.2642760" lon="-3.5908900">
        <ele>506.4</ele>
        <time>2018-06-16T07:16:42Z</time>
      </trkpt>
      <trkpt lat="38.2642950" lon="-3.5909220">
        <ele>506.6</ele>
        <time>2018-06-16T07:16:43Z</time>
      </trkpt>
      <trkpt lat="38.2643150" lon="-3.5909530">
        <ele>506.8</ele>
        <time>2018-06-16T07:16:44Z</time>
      </trkpt>
      <trkpt lat="38.2643350" lon="-3.5909850">
        <ele>506.8</ele>
        <time>2018-06-16T07:16:45Z</time>
      </trkpt>
      <trkpt lat="38.2643550" lon="-3.5910170">
        <ele>507.0</ele>
        <time>2018-06-16T07:16:46Z</time>
      </trkpt>
      <trkpt lat="38.2643750" lon="-3.5910490">
        <ele>507.2</ele>
        <time>2018-06-16T07:16:47Z</time>
      </trkpt>
      <trkpt lat="38.2643930" lon="-3.5910800">
        <ele>507.4</ele>
        <time>2018-06-16T07:16:48Z</time>
      </trkpt>
      <trkpt lat="38.2644120" lon="-3.5911120">
        <ele>507.4</ele>
        <time>2018-06-16T07:16:49Z</time>
      </trkpt>
      <trkpt lat="38.2644310" lon="-3.5911430">
        <ele>507.6</ele>
        <time>2018-06-16T07:16:50Z</time>
      </trkpt>
      <trkpt lat="38.2644520" lon="-3.5911740">
        <ele>507.8</ele>
        <time>2018-06-16T07:16:51Z</time>
      </trkpt>
      <trkpt lat="38.2644720" lon="-3.5912060">
        <ele>507.8</ele>
        <time>2018-06-16T07:16:52Z</time>
      </trkpt>
      <trkpt lat="38.2644920" lon="-3.5912390">
        <ele>507.8</ele>
        <time>2018-06-16T07:16:53Z</time>
      </trkpt>
      <trkpt lat="38.2645120" lon="-3.5912740">
        <ele>508.0</ele>
        <time>2018-06-16T07:16:54Z</time>
      </trkpt>
      <trkpt lat="38.2645310" lon="-3.5913100">
        <ele>508.0</ele>
        <time>2018-06-16T07:16:55Z</time>
      </trkpt>
      <trkpt lat="38.2645600" lon="-3.5913660">
        <ele>508.2</ele>
        <time>2018-06-16T07:16:56Z</time>
      </trkpt>
      <trkpt lat="38.2645690" lon="-3.5913850">
        <ele>508.0</ele>
        <time>2018-06-16T07:16:57Z</time>
      </trkpt>
      <trkpt lat="38.2645870" lon="-3.5914240">
        <ele>508.2</ele>
        <time>2018-06-16T07:16:58Z</time>
      </trkpt>
      <trkpt lat="38.2646050" lon="-3.5914640">
        <ele>508.4</ele>
        <time>2018-06-16T07:16:59Z</time>
      </trkpt>
      <trkpt lat="38.2646250" lon="-3.5915050">
        <ele>508.2</ele>
        <time>2018-06-16T07:17:00Z</time>
      </trkpt>
      <trkpt lat="38.2646440" lon="-3.5915460">
        <ele>508.2</ele>
        <time>2018-06-16T07:17:01Z</time>
      </trkpt>
      <trkpt lat="38.2646630" lon="-3.5915900">
        <ele>508.2</ele>
        <time>2018-06-16T07:17:02Z</time>
      </trkpt>
      <trkpt lat="38.2646820" lon="-3.5916340">
        <ele>500.2</ele>
        <time>2018-06-16T07:17:04Z</time>
      </trkpt>
      <trkpt lat="38.2646820" lon="-3.5916340">
        <ele>508.6</ele>
        <time>2018-06-16T07:17:05Z</time>
      </trkpt>
      <trkpt lat="38.2647390" lon="-3.5917720">
        <ele>508.2</ele>
        <time>2018-06-16T07:17:06Z</time>
      </trkpt>
      <trkpt lat="38.2647390" lon="-3.5917720">
        <ele>508.2</ele>
        <time>2018-06-16T07:17:07Z</time>
      </trkpt>
      <trkpt lat="38.2647730" lon="-3.5918710">
        <ele>508.2</ele>
        <time>2018-06-16T07:17:08Z</time>
      </trkpt>
      <trkpt lat="38.2647730" lon="-3.5918710">
        <ele>508.2</ele>
        <time>2018-06-16T07:17:09Z</time>
      </trkpt>
      <trkpt lat="38.2647730" lon="-3.5918710">
        <ele>508.2</ele>
        <time>2018-06-16T07:17:10Z</time>
      </trkpt>
      <trkpt lat="38.2647730" lon="-3.5918710">
        <ele>508.2</ele>
        <time>2018-06-16T07:17:11Z</time>
      </trkpt>
      <trkpt lat="38.2647730" lon="-3.5918710">
        <ele>508.2</ele>
        <time>2018-06-16T07:17:12Z</time>
      </trkpt>
      <trkpt lat="38.2647730" lon="-3.5918710">
        <ele>508.2</ele>
        <time>2018-06-16T07:17:13Z</time>
      </trkpt>
      <trkpt lat="38.2647730" lon="-3.5918710">
        <ele>508.2</ele>
        <time>2018-06-16T07:17:14Z</time>
      </trkpt>
      <trkpt lat="38.2647730" lon="-3.5918710">
        <ele>508.2</ele>
        <time>2018-06-16T07:17:15Z</time>
      </trkpt>
      <trkpt lat="38.2647730" lon="-3.5918710">
        <ele>508.0</ele>
        <time>2018-06-16T07:17:16Z</time>
      </trkpt>
      <trkpt lat="38.2647730" lon="-3.5918710">
        <ele>508.2</ele>
        <time>2018-06-16T07:17:17Z</time>
      </trkpt>
      <trkpt lat="38.2647730" lon="-3.5918710">
        <ele>508.0</ele>
        <time>2018-06-16T07:17:18Z</time>
      </trkpt>
      <trkpt lat="38.2647730" lon="-3.5918710">
        <ele>508.0</ele>
        <time>2018-06-16T07:17:19Z</time>
      </trkpt>
      <trkpt lat="38.2647730" lon="-3.5918710">
        <ele>508.2</ele>
        <time>2018-06-16T07:17:20Z</time>
      </trkpt>
      <trkpt lat="38.2647730" lon="-3.5918710">
        <ele>508.0</ele>
        <time>2018-06-16T07:17:21Z</time>
      </trkpt>
      <trkpt lat="38.2647730" lon="-3.5918710">
        <ele>508.0</ele>
        <time>2018-06-16T07:17:22Z</time>
      </trkpt>
      <trkpt lat="38.2647730" lon="-3.5918710">
        <ele>508.0</ele>
        <time>2018-06-16T07:17:23Z</time>
      </trkpt>
      <trkpt lat="38.2647730" lon="-3.5918710">
        <ele>508.0</ele>
        <time>2018-06-16T07:17:24Z</time>
      </trkpt>
      <trkpt lat="38.2647730" lon="-3.5918710">
        <ele>508.0</ele>
        <time>2018-06-16T07:17:25Z</time>
      </trkpt>
      <trkpt lat="38.2647730" lon="-3.5918710">
        <ele>508.2</ele>
        <time>2018-06-16T07:17:26Z</time>
      </trkpt>
      <trkpt lat="38.2650620" lon="-3.5929370">
        <ele>508.0</ele>
        <time>2018-06-16T07:17:27Z</time>
      </trkpt>
      <trkpt lat="38.2650620" lon="-3.5929370">
        <ele>508.0</ele>
        <time>2018-06-16T07:17:28Z</time>
      </trkpt>
      <trkpt lat="38.2650620" lon="-3.5929370">
        <ele>508.0</ele>
        <time>2018-06-16T07:17:29Z</time>
      </trkpt>
      <trkpt lat="38.2650620" lon="-3.5929370">
        <ele>508.0</ele>
        <time>2018-06-16T07:17:30Z</time>
      </trkpt>
      <trkpt lat="38.2650620" lon="-3.5929370">
        <ele>508.0</ele>
        <time>2018-06-16T07:17:31Z</time>
      </trkpt>
      <trkpt lat="38.2650620" lon="-3.5929370">
        <ele>508.0</ele>
        <time>2018-06-16T07:17:32Z</time>
      </trkpt>
      <trkpt lat="38.2650620" lon="-3.5929370">
        <ele>508.0</ele>
        <time>2018-06-16T07:17:33Z</time>
      </trkpt>
      <trkpt lat="38.2651710" lon="-3.5933680">
        <ele>508.0</ele>
        <time>2018-06-16T07:17:34Z</time>
      </trkpt>
      <trkpt lat="38.2651710" lon="-3.5933680">
        <ele>508.0</ele>
        <time>2018-06-16T07:17:35Z</time>
      </trkpt>
      <trkpt lat="38.2651710" lon="-3.5933680">
        <ele>508.0</ele>
        <time>2018-06-16T07:17:36Z</time>
      </trkpt>
      <trkpt lat="38.2652180" lon="-3.5935540">
        <ele>507.8</ele>
        <time>2018-06-16T07:17:37Z</time>
      </trkpt>
      <trkpt lat="38.2652180" lon="-3.5935540">
        <ele>508.0</ele>
        <time>2018-06-16T07:17:38Z</time>
      </trkpt>
      <trkpt lat="38.2652180" lon="-3.5935540">
        <ele>508.2</ele>
        <time>2018-06-16T07:17:39Z</time>
      </trkpt>
      <trkpt lat="38.2652180" lon="-3.5935540">
        <ele>508.0</ele>
        <time>2018-06-16T07:17:40Z</time>
      </trkpt>
      <trkpt lat="38.2652180" lon="-3.5935540">
        <ele>508.0</ele>
        <time>2018-06-16T07:17:41Z</time>
      </trkpt>
      <trkpt lat="38.2652180" lon="-3.5935540">
        <ele>508.2</ele>
        <time>2018-06-16T07:17:42Z</time>
      </trkpt>
      <trkpt lat="38.2652180" lon="-3.5935540">
        <ele>508.0</ele>
        <time>2018-06-16T07:17:43Z</time>
      </trkpt>
      <trkpt lat="38.2652180" lon="-3.5935540">
        <ele>508.0</ele>
        <time>2018-06-16T07:17:44Z</time>
      </trkpt>
      <trkpt lat="38.2652180" lon="-3.5935540">
        <ele>508.2</ele>
        <time>2018-06-16T07:17:45Z</time>
      </trkpt>
      <trkpt lat="38.2652180" lon="-3.5935540">
        <ele>508.4</ele>
        <time>2018-06-16T07:17:46Z</time>
      </trkpt>
      <trkpt lat="38.2652180" lon="-3.5935540">
        <ele>508.2</ele>
        <time>2018-06-16T07:17:47Z</time>
      </trkpt>
      <trkpt lat="38.2653650" lon="-3.5941890">
        <ele>508.0</ele>
        <time>2018-06-16T07:17:48Z</time>
      </trkpt>
      <trkpt lat="38.2653950" lon="-3.5943210">
        <ele>508.2</ele>
        <time>2018-06-16T07:17:49Z</time>
      </trkpt>
      <trkpt lat="38.2653950" lon="-3.5943210">
        <ele>508.2</ele>
        <time>2018-06-16T07:17:50Z</time>
      </trkpt>
      <trkpt lat="38.2653950" lon="-3.5943210">
        <ele>508.2</ele>
        <time>2018-06-16T07:17:51Z</time>
      </trkpt>
      <trkpt lat="38.2653950" lon="-3.5943210">
        <ele>508.2</ele>
        <time>2018-06-16T07:17:52Z</time>
      </trkpt>
      <trkpt lat="38.2653950" lon="-3.5943210">
        <ele>508.2</ele>
        <time>2018-06-16T07:17:53Z</time>
      </trkpt>
      <trkpt lat="38.2653950" lon="-3.5943210">
        <ele>508.2</ele>
        <time>2018-06-16T07:17:54Z</time>
      </trkpt>
      <trkpt lat="38.2653950" lon="-3.5943210">
        <ele>508.2</ele>
        <time>2018-06-16T07:17:55Z</time>
      </trkpt>
      <trkpt lat="38.2653950" lon="-3.5943210">
        <ele>508.2</ele>
        <time>2018-06-16T07:17:56Z</time>
      </trkpt>
      <trkpt lat="38.2653950" lon="-3.5943210">
        <ele>508.2</ele>
        <time>2018-06-16T07:17:57Z</time>
      </trkpt>
      <trkpt lat="38.2653950" lon="-3.5943210">
        <ele>508.4</ele>
        <time>2018-06-16T07:17:58Z</time>
      </trkpt>
      <trkpt lat="38.2653950" lon="-3.5943210">
        <ele>508.4</ele>
        <time>2018-06-16T07:17:59Z</time>
      </trkpt>
      <trkpt lat="38.2653950" lon="-3.5943210">
        <ele>508.4</ele>
        <time>2018-06-16T07:18:00Z</time>
      </trkpt>
      <trkpt lat="38.2653950" lon="-3.5943210">
        <ele>508.2</ele>
        <time>2018-06-16T07:18:01Z</time>
      </trkpt>
      <trkpt lat="38.2653950" lon="-3.5943210">
        <ele>508.2</ele>
        <time>2018-06-16T07:18:02Z</time>
      </trkpt>
      <trkpt lat="38.2656240" lon="-3.5952970">
        <ele>508.4</ele>
        <time>2018-06-16T07:18:03Z</time>
      </trkpt>
      <trkpt lat="38.2656240" lon="-3.5952970">
        <ele>508.4</ele>
        <time>2018-06-16T07:18:04Z</time>
      </trkpt>
      <trkpt lat="38.2656240" lon="-3.5952970">
        <ele>508.4</ele>
        <time>2018-06-16T07:18:05Z</time>
      </trkpt>
      <trkpt lat="38.2656240" lon="-3.5952970">
        <ele>508.4</ele>
        <time>2018-06-16T07:18:06Z</time>
      </trkpt>
      <trkpt lat="38.2656840" lon="-3.5955850">
        <ele>508.4</ele>
        <time>2018-06-16T07:18:07Z</time>
      </trkpt>
      <trkpt lat="38.2656840" lon="-3.5955850">
        <ele>508.4</ele>
        <time>2018-06-16T07:18:08Z</time>
      </trkpt>
      <trkpt lat="38.2656840" lon="-3.5955850">
        <ele>508.6</ele>
        <time>2018-06-16T07:18:09Z</time>
      </trkpt>
      <trkpt lat="38.2656840" lon="-3.5955850">
        <ele>508.6</ele>
        <time>2018-06-16T07:18:10Z</time>
      </trkpt>
      <trkpt lat="38.2657450" lon="-3.5958750">
        <ele>508.6</ele>
        <time>2018-06-16T07:18:11Z</time>
      </trkpt>
      <trkpt lat="38.2657450" lon="-3.5958750">
        <ele>508.6</ele>
        <time>2018-06-16T07:18:12Z</time>
      </trkpt>
      <trkpt lat="38.2657450" lon="-3.5958750">
        <ele>508.4</ele>
        <time>2018-06-16T07:18:13Z</time>
      </trkpt>
      <trkpt lat="38.2657450" lon="-3.5958750">
        <ele>508.4</ele>
        <time>2018-06-16T07:18:14Z</time>
      </trkpt>
      <trkpt lat="38.2658040" lon="-3.5961700">
        <ele>508.4</ele>
        <time>2018-06-16T07:18:15Z</time>
      </trkpt>
      <trkpt lat="38.2658180" lon="-3.5962450">
        <ele>508.6</ele>
        <time>2018-06-16T07:18:16Z</time>
      </trkpt>
      <trkpt lat="38.2658180" lon="-3.5962450">
        <ele>508.4</ele>
        <time>2018-06-16T07:18:17Z</time>
      </trkpt>
      <trkpt lat="38.2658180" lon="-3.5962450">
        <ele>508.4</ele>
        <time>2018-06-16T07:18:18Z</time>
      </trkpt>
      <trkpt lat="38.2658660" lon="-3.5964700">
        <ele>508.4</ele>
        <time>2018-06-16T07:18:19Z</time>
      </trkpt>
      <trkpt lat="38.2658830" lon="-3.5965460">
        <ele>508.4</ele>
        <time>2018-06-16T07:18:20Z</time>
      </trkpt>
      <trkpt lat="38.2658830" lon="-3.5965460">
        <ele>508.4</ele>
        <time>2018-06-16T07:18:21Z</time>
      </trkpt>
      <trkpt lat="38.2658830" lon="-3.5965460">
        <ele>508.4</ele>
        <time>2018-06-16T07:18:22Z</time>
      </trkpt>
      <trkpt lat="38.2659310" lon="-3.5967720">
        <ele>508.4</ele>
        <time>2018-06-16T07:18:23Z</time>
      </trkpt>
      <trkpt lat="38.2659470" lon="-3.5968460">
        <ele>508.4</ele>
        <time>2018-06-16T07:18:24Z</time>
      </trkpt>
      <trkpt lat="38.2659470" lon="-3.5968460">
        <ele>508.4</ele>
        <time>2018-06-16T07:18:25Z</time>
      </trkpt>
      <trkpt lat="38.2659470" lon="-3.5968460">
        <ele>508.4</ele>
        <time>2018-06-16T07:18:26Z</time>
      </trkpt>
      <trkpt lat="38.2659470" lon="-3.5968460">
        <ele>508.4</ele>
        <time>2018-06-16T07:18:27Z</time>
      </trkpt>
      <trkpt lat="38.2660160" lon="-3.5971410">
        <ele>508.4</ele>
        <time>2018-06-16T07:18:28Z</time>
      </trkpt>
      <trkpt lat="38.2660370" lon="-3.5972140">
        <ele>508.4</ele>
        <time>2018-06-16T07:18:29Z</time>
      </trkpt>
      <trkpt lat="38.2660370" lon="-3.5972140">
        <ele>508.4</ele>
        <time>2018-06-16T07:18:30Z</time>
      </trkpt>
      <trkpt lat="38.2660370" lon="-3.5972140">
        <ele>508.4</ele>
        <time>2018-06-16T07:18:31Z</time>
      </trkpt>
      <trkpt lat="38.2661010" lon="-3.5974310">
        <ele>508.4</ele>
        <time>2018-06-16T07:18:32Z</time>
      </trkpt>
      <trkpt lat="38.2661230" lon="-3.5975030">
        <ele>508.4</ele>
        <time>2018-06-16T07:18:33Z</time>
      </trkpt>
      <trkpt lat="38.2661450" lon="-3.5975740">
        <ele>508.4</ele>
        <time>2018-06-16T07:18:34Z</time>
      </trkpt>
      <trkpt lat="38.2661450" lon="-3.5975740">
        <ele>508.4</ele>
        <time>2018-06-16T07:18:35Z</time>
      </trkpt>
      <trkpt lat="38.2661940" lon="-3.5977130">
        <ele>508.4</ele>
        <time>2018-06-16T07:18:36Z</time>
      </trkpt>
      <trkpt lat="38.2662200" lon="-3.5977830">
        <ele>508.2</ele>
        <time>2018-06-16T07:18:37Z</time>
      </trkpt>
      <trkpt lat="38.2662460" lon="-3.5978530">
        <ele>508.2</ele>
        <time>2018-06-16T07:18:38Z</time>
      </trkpt>
      <trkpt lat="38.2662460" lon="-3.5978530">
        <ele>508.0</ele>
        <time>2018-06-16T07:18:39Z</time>
      </trkpt>
      <trkpt lat="38.2663010" lon="-3.5979940">
        <ele>508.0</ele>
        <time>2018-06-16T07:18:40Z</time>
      </trkpt>
      <trkpt lat="38.2663300" lon="-3.5980660">
        <ele>507.8</ele>
        <time>2018-06-16T07:18:41Z</time>
      </trkpt>
      <trkpt lat="38.2663600" lon="-3.5981390">
        <ele>507.8</ele>
        <time>2018-06-16T07:18:42Z</time>
      </trkpt>
      <trkpt lat="38.2663600" lon="-3.5981390">
        <ele>507.6</ele>
        <time>2018-06-16T07:18:43Z</time>
      </trkpt>
      <trkpt lat="38.2663600" lon="-3.5981390">
        <ele>507.4</ele>
        <time>2018-06-16T07:18:44Z</time>
      </trkpt>
      <trkpt lat="38.2664540" lon="-3.5983650">
        <ele>507.2</ele>
        <time>2018-06-16T07:18:45Z</time>
      </trkpt>
      <trkpt lat="38.2664870" lon="-3.5984440">
        <ele>506.8</ele>
        <time>2018-06-16T07:18:46Z</time>
      </trkpt>
      <trkpt lat="38.2665210" lon="-3.5985240">
        <ele>506.4</ele>
        <time>2018-06-16T07:18:47Z</time>
      </trkpt>
      <trkpt lat="38.2665210" lon="-3.5985240">
        <ele>506.0</ele>
        <time>2018-06-16T07:18:48Z</time>
      </trkpt>
      <trkpt lat="38.2665920" lon="-3.5986890">
        <ele>505.8</ele>
        <time>2018-06-16T07:18:49Z</time>
      </trkpt>
      <trkpt lat="38.2666260" lon="-3.5987790">
        <ele>505.4</ele>
        <time>2018-06-16T07:18:50Z</time>
      </trkpt>
      <trkpt lat="38.2666600" lon="-3.5988710">
        <ele>505.0</ele>
        <time>2018-06-16T07:18:51Z</time>
      </trkpt>
      <trkpt lat="38.2666600" lon="-3.5988710">
        <ele>504.8</ele>
        <time>2018-06-16T07:18:52Z</time>
      </trkpt>
      <trkpt lat="38.2667230" lon="-3.5990550">
        <ele>504.4</ele>
        <time>2018-06-16T07:18:53Z</time>
      </trkpt>
      <trkpt lat="38.2667520" lon="-3.5991490">
        <ele>504.0</ele>
        <time>2018-06-16T07:18:54Z</time>
      </trkpt>
      <trkpt lat="38.2667810" lon="-3.5992450">
        <ele>503.8</ele>
        <time>2018-06-16T07:18:55Z</time>
      </trkpt>
      <trkpt lat="38.2668080" lon="-3.5993420">
        <ele>503.6</ele>
        <time>2018-06-16T07:18:56Z</time>
      </trkpt>
      <trkpt lat="38.2668310" lon="-3.5994400">
        <ele>503.6</ele>
        <time>2018-06-16T07:18:57Z</time>
      </trkpt>
      <trkpt lat="38.2668310" lon="-3.5994400">
        <ele>503.6</ele>
        <time>2018-06-16T07:18:58Z</time>
      </trkpt>
      <trkpt lat="38.2668690" lon="-3.5996320">
        <ele>503.6</ele>
        <time>2018-06-16T07:18:59Z</time>
      </trkpt>
      <trkpt lat="38.2668840" lon="-3.5997290">
        <ele>503.6</ele>
        <time>2018-06-16T07:19:00Z</time>
      </trkpt>
      <trkpt lat="38.2668970" lon="-3.5998230">
        <ele>503.8</ele>
        <time>2018-06-16T07:19:01Z</time>
      </trkpt>
      <trkpt lat="38.2669060" lon="-3.5999130">
        <ele>503.8</ele>
        <time>2018-06-16T07:19:02Z</time>
      </trkpt>
      <trkpt lat="38.2669120" lon="-3.6000010">
        <ele>503.8</ele>
        <time>2018-06-16T07:19:03Z</time>
      </trkpt>
      <trkpt lat="38.2669160" lon="-3.6000830">
        <ele>504.0</ele>
        <time>2018-06-16T07:19:04Z</time>
      </trkpt>
      <trkpt lat="38.2669170" lon="-3.6001620">
        <ele>504.4</ele>
        <time>2018-06-16T07:19:05Z</time>
      </trkpt>
      <trkpt lat="38.2669160" lon="-3.6002390">
        <ele>504.4</ele>
        <time>2018-06-16T07:19:06Z</time>
      </trkpt>
      <trkpt lat="38.2669130" lon="-3.6003120">
        <ele>504.4</ele>
        <time>2018-06-16T07:19:07Z</time>
      </trkpt>
      <trkpt lat="38.2669070" lon="-3.6003840">
        <ele>504.6</ele>
        <time>2018-06-16T07:19:08Z</time>
      </trkpt>
      <trkpt lat="38.2668990" lon="-3.6004520">
        <ele>505.0</ele>
        <time>2018-06-16T07:19:09Z</time>
      </trkpt>
      <trkpt lat="38.2668990" lon="-3.6004520">
        <ele>505.2</ele>
        <time>2018-06-16T07:19:10Z</time>
      </trkpt>
      <trkpt lat="38.2668820" lon="-3.6005810">
        <ele>505.6</ele>
        <time>2018-06-16T07:19:11Z</time>
      </trkpt>
      <trkpt lat="38.2668720" lon="-3.6006420">
        <ele>505.8</ele>
        <time>2018-06-16T07:19:12Z</time>
      </trkpt>
      <trkpt lat="38.2668620" lon="-3.6007000">
        <ele>506.2</ele>
        <time>2018-06-16T07:19:13Z</time>
      </trkpt>
      <trkpt lat="38.2668520" lon="-3.6007550">
        <ele>506.4</ele>
        <time>2018-06-16T07:19:14Z</time>
      </trkpt>
      <trkpt lat="38.2668360" lon="-3.6008320">
        <ele>506.6</ele>
        <time>2018-06-16T07:19:15Z</time>
      </trkpt>
      <trkpt lat="38.2668300" lon="-3.6008560">
        <ele>507.0</ele>
        <time>2018-06-16T07:19:16Z</time>
      </trkpt>
      <trkpt lat="38.2668190" lon="-3.6009030">
        <ele>507.2</ele>
        <time>2018-06-16T07:19:17Z</time>
      </trkpt>
      <trkpt lat="38.2668070" lon="-3.6009480">
        <ele>507.6</ele>
        <time>2018-06-16T07:19:18Z</time>
      </trkpt>
      <trkpt lat="38.2667930" lon="-3.6009910">
        <ele>507.8</ele>
        <time>2018-06-16T07:19:19Z</time>
      </trkpt>
      <trkpt lat="38.2667790" lon="-3.6010300">
        <ele>508.2</ele>
        <time>2018-06-16T07:19:20Z</time>
      </trkpt>
      <trkpt lat="38.2667640" lon="-3.6010700">
        <ele>508.4</ele>
        <time>2018-06-16T07:19:21Z</time>
      </trkpt>
      <trkpt lat="38.2667510" lon="-3.6011090">
        <ele>508.8</ele>
        <time>2018-06-16T07:19:22Z</time>
      </trkpt>
      <trkpt lat="38.2667370" lon="-3.6011470">
        <ele>509.0</ele>
        <time>2018-06-16T07:19:23Z</time>
      </trkpt>
      <trkpt lat="38.2667220" lon="-3.6011840">
        <ele>509.2</ele>
        <time>2018-06-16T07:19:24Z</time>
      </trkpt>
      <trkpt lat="38.2667060" lon="-3.6012180">
        <ele>509.4</ele>
        <time>2018-06-16T07:19:25Z</time>
      </trkpt>
      <trkpt lat="38.2666920" lon="-3.6012510">
        <ele>509.8</ele>
        <time>2018-06-16T07:19:26Z</time>
      </trkpt>
      <trkpt lat="38.2666760" lon="-3.6012810">
        <ele>510.0</ele>
        <time>2018-06-16T07:19:27Z</time>
      </trkpt>
      <trkpt lat="38.2666560" lon="-3.6013270">
        <ele>510.2</ele>
        <time>2018-06-16T07:19:28Z</time>
      </trkpt>
      <trkpt lat="38.2666490" lon="-3.6013420">
        <ele>510.4</ele>
        <time>2018-06-16T07:19:29Z</time>
      </trkpt>
      <trkpt lat="38.2666350" lon="-3.6013720">
        <ele>510.6</ele>
        <time>2018-06-16T07:19:30Z</time>
      </trkpt>
      <trkpt lat="38.2666230" lon="-3.6013970">
        <ele>511.0</ele>
        <time>2018-06-16T07:19:31Z</time>
      </trkpt>
      <trkpt lat="38.2666090" lon="-3.6014230">
        <ele>511.2</ele>
        <time>2018-06-16T07:19:32Z</time>
      </trkpt>
      <trkpt lat="38.2665960" lon="-3.6014480">
        <ele>511.4</ele>
        <time>2018-06-16T07:19:33Z</time>
      </trkpt>
      <trkpt lat="38.2665790" lon="-3.6014730">
        <ele>511.6</ele>
        <time>2018-06-16T07:19:34Z</time>
      </trkpt>
      <trkpt lat="38.2665590" lon="-3.6015000">
        <ele>512.0</ele>
        <time>2018-06-16T07:19:35Z</time>
      </trkpt>
      <trkpt lat="38.2665590" lon="-3.6015000">
        <ele>512.2</ele>
        <time>2018-06-16T07:19:36Z</time>
      </trkpt>
      <trkpt lat="38.2665250" lon="-3.6015570">
        <ele>512.4</ele>
        <time>2018-06-16T07:19:37Z</time>
      </trkpt>
      <trkpt lat="38.2665080" lon="-3.6015870">
        <ele>512.6</ele>
        <time>2018-06-16T07:19:38Z</time>
      </trkpt>
      <trkpt lat="38.2664890" lon="-3.6016110">
        <ele>513.0</ele>
        <time>2018-06-16T07:19:39Z</time>
      </trkpt>
      <trkpt lat="38.2664700" lon="-3.6016390">
        <ele>513.0</ele>
        <time>2018-06-16T07:19:40Z</time>
      </trkpt>
      <trkpt lat="38.2664500" lon="-3.6016660">
        <ele>513.2</ele>
        <time>2018-06-16T07:19:41Z</time>
      </trkpt>
      <trkpt lat="38.2664320" lon="-3.6016930">
        <ele>513.4</ele>
        <time>2018-06-16T07:19:42Z</time>
      </trkpt>
      <trkpt lat="38.2664150" lon="-3.6017190">
        <ele>513.6</ele>
        <time>2018-06-16T07:19:43Z</time>
      </trkpt>
      <trkpt lat="38.2663960" lon="-3.6017440">
        <ele>514.0</ele>
        <time>2018-06-16T07:19:44Z</time>
      </trkpt>
      <trkpt lat="38.2663770" lon="-3.6017710">
        <ele>514.2</ele>
        <time>2018-06-16T07:19:45Z</time>
      </trkpt>
      <trkpt lat="38.2663580" lon="-3.6017970">
        <ele>514.4</ele>
        <time>2018-06-16T07:19:46Z</time>
      </trkpt>
      <trkpt lat="38.2663400" lon="-3.6018240">
        <ele>514.6</ele>
        <time>2018-06-16T07:19:47Z</time>
      </trkpt>
      <trkpt lat="38.2663230" lon="-3.6018510">
        <ele>514.8</ele>
        <time>2018-06-16T07:19:48Z</time>
      </trkpt>
      <trkpt lat="38.2663050" lon="-3.6018780">
        <ele>515.0</ele>
        <time>2018-06-16T07:19:49Z</time>
      </trkpt>
      <trkpt lat="38.2662850" lon="-3.6019020">
        <ele>515.4</ele>
        <time>2018-06-16T07:19:50Z</time>
      </trkpt>
      <trkpt lat="38.2662650" lon="-3.6019260">
        <ele>515.4</ele>
        <time>2018-06-16T07:19:51Z</time>
      </trkpt>
      <trkpt lat="38.2662480" lon="-3.6019540">
        <ele>515.8</ele>
        <time>2018-06-16T07:19:52Z</time>
      </trkpt>
      <trkpt lat="38.2662280" lon="-3.6019800">
        <ele>516.0</ele>
        <time>2018-06-16T07:19:53Z</time>
      </trkpt>
      <trkpt lat="38.2662050" lon="-3.6020050">
        <ele>516.4</ele>
        <time>2018-06-16T07:19:54Z</time>
      </trkpt>
      <trkpt lat="38.2661850" lon="-3.6020280">
        <ele>516.4</ele>
        <time>2018-06-16T07:19:55Z</time>
      </trkpt>
      <trkpt lat="38.2661660" lon="-3.6020530">
        <ele>516.6</ele>
        <time>2018-06-16T07:19:56Z</time>
      </trkpt>
      <trkpt lat="38.2661470" lon="-3.6020780">
        <ele>516.8</ele>
        <time>2018-06-16T07:19:57Z</time>
      </trkpt>
      <trkpt lat="38.2661270" lon="-3.6021010">
        <ele>517.2</ele>
        <time>2018-06-16T07:19:58Z</time>
      </trkpt>
      <trkpt lat="38.2661090" lon="-3.6021220">
        <ele>517.4</ele>
        <time>2018-06-16T07:19:59Z</time>
      </trkpt>
      <trkpt lat="38.2660890" lon="-3.6021430">
        <ele>517.6</ele>
        <time>2018-06-16T07:20:00Z</time>
      </trkpt>
      <trkpt lat="38.2660700" lon="-3.6021630">
        <ele>517.8</ele>
        <time>2018-06-16T07:20:01Z</time>
      </trkpt>
      <trkpt lat="38.2660490" lon="-3.6021810">
        <ele>518.0</ele>
        <time>2018-06-16T07:20:02Z</time>
      </trkpt>
      <trkpt lat="38.2660280" lon="-3.6022000">
        <ele>518.2</ele>
        <time>2018-06-16T07:20:03Z</time>
      </trkpt>
      <trkpt lat="38.2660100" lon="-3.6022210">
        <ele>518.4</ele>
        <time>2018-06-16T07:20:04Z</time>
      </trkpt>
      <trkpt lat="38.2659940" lon="-3.6022440">
        <ele>518.4</ele>
        <time>2018-06-16T07:20:05Z</time>
      </trkpt>
      <trkpt lat="38.2659780" lon="-3.6022670">
        <ele>518.6</ele>
        <time>2018-06-16T07:20:06Z</time>
      </trkpt>
      <trkpt lat="38.2659610" lon="-3.6022870">
        <ele>518.8</ele>
        <time>2018-06-16T07:20:07Z</time>
      </trkpt>
      <trkpt lat="38.2659420" lon="-3.6023080">
        <ele>519.0</ele>
        <time>2018-06-16T07:20:08Z</time>
      </trkpt>
      <trkpt lat="38.2659240" lon="-3.6023290">
        <ele>519.2</ele>
        <time>2018-06-16T07:20:09Z</time>
      </trkpt>
      <trkpt lat="38.2659050" lon="-3.6023500">
        <ele>519.2</ele>
        <time>2018-06-16T07:20:10Z</time>
      </trkpt>
      <trkpt lat="38.2658860" lon="-3.6023710">
        <ele>519.4</ele>
        <time>2018-06-16T07:20:11Z</time>
      </trkpt>
      <trkpt lat="38.2658680" lon="-3.6023910">
        <ele>519.6</ele>
        <time>2018-06-16T07:20:12Z</time>
      </trkpt>
      <trkpt lat="38.2658510" lon="-3.6024110">
        <ele>519.8</ele>
        <time>2018-06-16T07:20:13Z</time>
      </trkpt>
      <trkpt lat="38.2658330" lon="-3.6024310">
        <ele>520.0</ele>
        <time>2018-06-16T07:20:14Z</time>
      </trkpt>
      <trkpt lat="38.2658150" lon="-3.6024510">
        <ele>520.4</ele>
        <time>2018-06-16T07:20:15Z</time>
      </trkpt>
      <trkpt lat="38.2657990" lon="-3.6024730">
        <ele>520.4</ele>
        <time>2018-06-16T07:20:16Z</time>
      </trkpt>
      <trkpt lat="38.2657820" lon="-3.6024950">
        <ele>520.8</ele>
        <time>2018-06-16T07:20:17Z</time>
      </trkpt>
      <trkpt lat="38.2657650" lon="-3.6025160">
        <ele>521.0</ele>
        <time>2018-06-16T07:20:18Z</time>
      </trkpt>
      <trkpt lat="38.2657480" lon="-3.6025370">
        <ele>521.2</ele>
        <time>2018-06-16T07:20:19Z</time>
      </trkpt>
      <trkpt lat="38.2657320" lon="-3.6025600">
        <ele>521.2</ele>
        <time>2018-06-16T07:20:20Z</time>
      </trkpt>
      <trkpt lat="38.2657150" lon="-3.6025820">
        <ele>521.4</ele>
        <time>2018-06-16T07:20:21Z</time>
      </trkpt>
      <trkpt lat="38.2656980" lon="-3.6026040">
        <ele>521.6</ele>
        <time>2018-06-16T07:20:22Z</time>
      </trkpt>
      <trkpt lat="38.2656820" lon="-3.6026270">
        <ele>522.0</ele>
        <time>2018-06-16T07:20:23Z</time>
      </trkpt>
      <trkpt lat="38.2656660" lon="-3.6026490">
        <ele>522.2</ele>
        <time>2018-06-16T07:20:24Z</time>
      </trkpt>
      <trkpt lat="38.2656490" lon="-3.6026720">
        <ele>522.4</ele>
        <time>2018-06-16T07:20:25Z</time>
      </trkpt>
      <trkpt lat="38.2656330" lon="-3.6026960">
        <ele>522.6</ele>
        <time>2018-06-16T07:20:26Z</time>
      </trkpt>
      <trkpt lat="38.2656170" lon="-3.6027200">
        <ele>522.8</ele>
        <time>2018-06-16T07:20:27Z</time>
      </trkpt>
      <trkpt lat="38.2656000" lon="-3.6027430">
        <ele>523.0</ele>
        <time>2018-06-16T07:20:28Z</time>
      </trkpt>
      <trkpt lat="38.2655850" lon="-3.6027670">
        <ele>523.2</ele>
        <time>2018-06-16T07:20:29Z</time>
      </trkpt>
      <trkpt lat="38.2655710" lon="-3.6027920">
        <ele>523.4</ele>
        <time>2018-06-16T07:20:30Z</time>
      </trkpt>
      <trkpt lat="38.2655560" lon="-3.6028170">
        <ele>523.6</ele>
        <time>2018-06-16T07:20:31Z</time>
      </trkpt>
      <trkpt lat="38.2655410" lon="-3.6028400">
        <ele>523.8</ele>
        <time>2018-06-16T07:20:32Z</time>
      </trkpt>
      <trkpt lat="38.2655270" lon="-3.6028650">
        <ele>524.0</ele>
        <time>2018-06-16T07:20:33Z</time>
      </trkpt>
      <trkpt lat="38.2655140" lon="-3.6028890">
        <ele>524.2</ele>
        <time>2018-06-16T07:20:34Z</time>
      </trkpt>
      <trkpt lat="38.2655020" lon="-3.6029140">
        <ele>524.4</ele>
        <time>2018-06-16T07:20:35Z</time>
      </trkpt>
      <trkpt lat="38.2654910" lon="-3.6029400">
        <ele>524.6</ele>
        <time>2018-06-16T07:20:36Z</time>
      </trkpt>
      <trkpt lat="38.2654740" lon="-3.6029810">
        <ele>524.8</ele>
        <time>2018-06-16T07:20:37Z</time>
      </trkpt>
      <trkpt lat="38.2654680" lon="-3.6029940">
        <ele>525.0</ele>
        <time>2018-06-16T07:20:38Z</time>
      </trkpt>
      <trkpt lat="38.2654590" lon="-3.6030220">
        <ele>525.2</ele>
        <time>2018-06-16T07:20:39Z</time>
      </trkpt>
      <trkpt lat="38.2654450" lon="-3.6030640">
        <ele>525.4</ele>
        <time>2018-06-16T07:20:40Z</time>
      </trkpt>
      <trkpt lat="38.2654400" lon="-3.6030780">
        <ele>525.6</ele>
        <time>2018-06-16T07:20:41Z</time>
      </trkpt>
      <trkpt lat="38.2654310" lon="-3.6031050">
        <ele>525.8</ele>
        <time>2018-06-16T07:20:42Z</time>
      </trkpt>
      <trkpt lat="38.2654180" lon="-3.6031470">
        <ele>526.0</ele>
        <time>2018-06-16T07:20:43Z</time>
      </trkpt>
      <trkpt lat="38.2654130" lon="-3.6031610">
        <ele>526.2</ele>
        <time>2018-06-16T07:20:44Z</time>
      </trkpt>
      <trkpt lat="38.2654060" lon="-3.6031900">
        <ele>526.4</ele>
        <time>2018-06-16T07:20:45Z</time>
      </trkpt>
      <trkpt lat="38.2653990" lon="-3.6032180">
        <ele>526.6</ele>
        <time>2018-06-16T07:20:46Z</time>
      </trkpt>
      <trkpt lat="38.2653930" lon="-3.6032480">
        <ele>526.8</ele>
        <time>2018-06-16T07:20:47Z</time>
      </trkpt>
      <trkpt lat="38.2653850" lon="-3.6032760">
        <ele>527.0</ele>
        <time>2018-06-16T07:20:48Z</time>
      </trkpt>
      <trkpt lat="38.2653800" lon="-3.6033030">
        <ele>527.2</ele>
        <time>2018-06-16T07:20:49Z</time>
      </trkpt>
      <trkpt lat="38.2653740" lon="-3.6033330">
        <ele>527.4</ele>
        <time>2018-06-16T07:20:50Z</time>
      </trkpt>
      <trkpt lat="38.2653700" lon="-3.6033620">
        <ele>527.8</ele>
        <time>2018-06-16T07:20:51Z</time>
      </trkpt>
      <trkpt lat="38.2653710" lon="-3.6034070">
        <ele>528.0</ele>
        <time>2018-06-16T07:20:52Z</time>
      </trkpt>
      <trkpt lat="38.2653710" lon="-3.6034230">
        <ele>528.2</ele>
        <time>2018-06-16T07:20:53Z</time>
      </trkpt>
      <trkpt lat="38.2653720" lon="-3.6034540">
        <ele>528.2</ele>
        <time>2018-06-16T07:20:54Z</time>
      </trkpt>
      <trkpt lat="38.2653710" lon="-3.6034850">
        <ele>528.4</ele>
        <time>2018-06-16T07:20:55Z</time>
      </trkpt>
      <trkpt lat="38.2653700" lon="-3.6035160">
        <ele>528.6</ele>
        <time>2018-06-16T07:20:56Z</time>
      </trkpt>
      <trkpt lat="38.2653720" lon="-3.6035470">
        <ele>528.8</ele>
        <time>2018-06-16T07:20:57Z</time>
      </trkpt>
      <trkpt lat="38.2653740" lon="-3.6035780">
        <ele>529.0</ele>
        <time>2018-06-16T07:20:58Z</time>
      </trkpt>
      <trkpt lat="38.2653780" lon="-3.6036090">
        <ele>529.4</ele>
        <time>2018-06-16T07:20:59Z</time>
      </trkpt>
      <trkpt lat="38.2653830" lon="-3.6036710">
        <ele>533.4</ele>
        <time>2018-06-16T07:21:02Z</time>
      </trkpt>
      <trkpt lat="38.2653870" lon="-3.6037020">
        <ele>530.0</ele>
        <time>2018-06-16T07:21:03Z</time>
      </trkpt>
      <trkpt lat="38.2653920" lon="-3.6037330">
        <ele>529.8</ele>
        <time>2018-06-16T07:21:04Z</time>
      </trkpt>
      <trkpt lat="38.2654020" lon="-3.6037950">
        <ele>530.4</ele>
        <time>2018-06-16T07:21:05Z</time>
      </trkpt>
      <trkpt lat="38.2654140" lon="-3.6038410">
        <ele>530.4</ele>
        <time>2018-06-16T07:21:06Z</time>
      </trkpt>
      <trkpt lat="38.2654180" lon="-3.6038570">
        <ele>530.6</ele>
        <time>2018-06-16T07:21:07Z</time>
      </trkpt>
      <trkpt lat="38.2654320" lon="-3.6039020">
        <ele>530.8</ele>
        <time>2018-06-16T07:21:08Z</time>
      </trkpt>
      <trkpt lat="38.2654370" lon="-3.6039170">
        <ele>530.8</ele>
        <time>2018-06-16T07:21:09Z</time>
      </trkpt>
      <trkpt lat="38.2654490" lon="-3.6039470">
        <ele>536.6</ele>
        <time>2018-06-16T07:21:11Z</time>
      </trkpt>
      <trkpt lat="38.2654720" lon="-3.6040070">
        <ele>525.4</ele>
        <time>2018-06-16T07:21:12Z</time>
      </trkpt>
      <trkpt lat="38.2654840" lon="-3.6040360">
        <ele>533.2</ele>
        <time>2018-06-16T07:21:14Z</time>
      </trkpt>
      <trkpt lat="38.2654960" lon="-3.6040650">
        <ele>531.6</ele>
        <time>2018-06-16T07:21:15Z</time>
      </trkpt>
      <trkpt lat="38.2655090" lon="-3.6040950">
        <ele>531.6</ele>
        <time>2018-06-16T07:21:16Z</time>
      </trkpt>
      <trkpt lat="38.2655230" lon="-3.6041240">
        <ele>531.6</ele>
        <time>2018-06-16T07:21:17Z</time>
      </trkpt>
      <trkpt lat="38.2655380" lon="-3.6041540">
        <ele>531.8</ele>
        <time>2018-06-16T07:21:18Z</time>
      </trkpt>
      <trkpt lat="38.2655540" lon="-3.6041840">
        <ele>532.0</ele>
        <time>2018-06-16T07:21:19Z</time>
      </trkpt>
      <trkpt lat="38.2655700" lon="-3.6042130">
        <ele>532.0</ele>
        <time>2018-06-16T07:21:20Z</time>
      </trkpt>
      <trkpt lat="38.2655890" lon="-3.6042390">
        <ele>532.0</ele>
        <time>2018-06-16T07:21:21Z</time>
      </trkpt>
      <trkpt lat="38.2656070" lon="-3.6042680">
        <ele>532.0</ele>
        <time>2018-06-16T07:21:22Z</time>
      </trkpt>
      <trkpt lat="38.2656270" lon="-3.6042970">
        <ele>532.0</ele>
        <time>2018-06-16T07:21:23Z</time>
      </trkpt>
      <trkpt lat="38.2656480" lon="-3.6043270">
        <ele>532.0</ele>
        <time>2018-06-16T07:21:24Z</time>
      </trkpt>
      <trkpt lat="38.2656700" lon="-3.6043570">
        <ele>532.2</ele>
        <time>2018-06-16T07:21:25Z</time>
      </trkpt>
      <trkpt lat="38.2656940" lon="-3.6043880">
        <ele>532.2</ele>
        <time>2018-06-16T07:21:26Z</time>
      </trkpt>
      <trkpt lat="38.2657190" lon="-3.6044180">
        <ele>532.2</ele>
        <time>2018-06-16T07:21:27Z</time>
      </trkpt>
      <trkpt lat="38.2657470" lon="-3.6044470">
        <ele>532.2</ele>
        <time>2018-06-16T07:21:28Z</time>
      </trkpt>
      <trkpt lat="38.2657770" lon="-3.6044760">
        <ele>532.4</ele>
        <time>2018-06-16T07:21:29Z</time>
      </trkpt>
      <trkpt lat="38.2658090" lon="-3.6045040">
        <ele>532.4</ele>
        <time>2018-06-16T07:21:30Z</time>
      </trkpt>
      <trkpt lat="38.2658400" lon="-3.6045340">
        <ele>532.4</ele>
        <time>2018-06-16T07:21:31Z</time>
      </trkpt>
      <trkpt lat="38.2659080" lon="-3.6045920">
        <ele>532.4</ele>
        <time>2018-06-16T07:21:32Z</time>
      </trkpt>
      <trkpt lat="38.2659440" lon="-3.6046190">
        <ele>532.4</ele>
        <time>2018-06-16T07:21:33Z</time>
      </trkpt>
      <trkpt lat="38.2659810" lon="-3.6046480">
        <ele>532.6</ele>
        <time>2018-06-16T07:21:34Z</time>
      </trkpt>
      <trkpt lat="38.2660180" lon="-3.6046760">
        <ele>532.4</ele>
        <time>2018-06-16T07:21:35Z</time>
      </trkpt>
      <trkpt lat="38.2660560" lon="-3.6047050">
        <ele>532.6</ele>
        <time>2018-06-16T07:21:36Z</time>
      </trkpt>
      <trkpt lat="38.2660950" lon="-3.6047350">
        <ele>532.6</ele>
        <time>2018-06-16T07:21:37Z</time>
      </trkpt>
      <trkpt lat="38.2661340" lon="-3.6047630">
        <ele>532.6</ele>
        <time>2018-06-16T07:21:38Z</time>
      </trkpt>
      <trkpt lat="38.2661740" lon="-3.6047910">
        <ele>532.6</ele>
        <time>2018-06-16T07:21:39Z</time>
      </trkpt>
      <trkpt lat="38.2662150" lon="-3.6048200">
        <ele>532.6</ele>
        <time>2018-06-16T07:21:40Z</time>
      </trkpt>
      <trkpt lat="38.2662560" lon="-3.6048500">
        <ele>532.6</ele>
        <time>2018-06-16T07:21:42Z</time>
      </trkpt>
      <trkpt lat="38.2662980" lon="-3.6048800">
        <ele>532.6</ele>
        <time>2018-06-16T07:21:43Z</time>
      </trkpt>
      <trkpt lat="38.2663410" lon="-3.6049090">
        <ele>532.6</ele>
        <time>2018-06-16T07:21:44Z</time>
      </trkpt>
      <trkpt lat="38.2663840" lon="-3.6049400">
        <ele>532.6</ele>
        <time>2018-06-16T07:21:45Z</time>
      </trkpt>
      <trkpt lat="38.2664270" lon="-3.6049700">
        <ele>532.6</ele>
        <time>2018-06-16T07:21:46Z</time>
      </trkpt>
      <trkpt lat="38.2664690" lon="-3.6049990">
        <ele>532.6</ele>
        <time>2018-06-16T07:21:47Z</time>
      </trkpt>
      <trkpt lat="38.2665130" lon="-3.6050290">
        <ele>532.6</ele>
        <time>2018-06-16T07:21:48Z</time>
      </trkpt>
      <trkpt lat="38.2665560" lon="-3.6050620">
        <ele>532.8</ele>
        <time>2018-06-16T07:21:49Z</time>
      </trkpt>
      <trkpt lat="38.2665990" lon="-3.6050930">
        <ele>532.8</ele>
        <time>2018-06-16T07:21:50Z</time>
      </trkpt>
      <trkpt lat="38.2666430" lon="-3.6051240">
        <ele>532.8</ele>
        <time>2018-06-16T07:21:51Z</time>
      </trkpt>
      <trkpt lat="38.2666870" lon="-3.6051550">
        <ele>532.8</ele>
        <time>2018-06-16T07:21:52Z</time>
      </trkpt>
      <trkpt lat="38.2667300" lon="-3.6051840">
        <ele>533.0</ele>
        <time>2018-06-16T07:21:53Z</time>
      </trkpt>
      <trkpt lat="38.2667730" lon="-3.6052130">
        <ele>533.0</ele>
        <time>2018-06-16T07:21:54Z</time>
      </trkpt>
      <trkpt lat="38.2668150" lon="-3.6052430">
        <ele>533.0</ele>
        <time>2018-06-16T07:21:55Z</time>
      </trkpt>
      <trkpt lat="38.2668560" lon="-3.6052730">
        <ele>533.0</ele>
        <time>2018-06-16T07:21:56Z</time>
      </trkpt>
      <trkpt lat="38.2668950" lon="-3.6053020">
        <ele>533.0</ele>
        <time>2018-06-16T07:21:57Z</time>
      </trkpt>
      <trkpt lat="38.2669350" lon="-3.6053260">
        <ele>533.0</ele>
        <time>2018-06-16T07:21:58Z</time>
      </trkpt>
      <trkpt lat="38.2670180" lon="-3.6053780">
        <ele>533.0</ele>
        <time>2018-06-16T07:21:59Z</time>
      </trkpt>
      <trkpt lat="38.2670590" lon="-3.6054090">
        <ele>533.0</ele>
        <time>2018-06-16T07:22:00Z</time>
      </trkpt>
      <trkpt lat="38.2671010" lon="-3.6054400">
        <ele>533.0</ele>
        <time>2018-06-16T07:22:01Z</time>
      </trkpt>
      <trkpt lat="38.2671430" lon="-3.6054710">
        <ele>533.2</ele>
        <time>2018-06-16T07:22:02Z</time>
      </trkpt>
      <trkpt lat="38.2671860" lon="-3.6055030">
        <ele>533.2</ele>
        <time>2018-06-16T07:22:04Z</time>
      </trkpt>
      <trkpt lat="38.2672290" lon="-3.6055340">
        <ele>533.2</ele>
        <time>2018-06-16T07:22:05Z</time>
      </trkpt>
      <trkpt lat="38.2672720" lon="-3.6055650">
        <ele>533.2</ele>
        <time>2018-06-16T07:22:06Z</time>
      </trkpt>
      <trkpt lat="38.2673370" lon="-3.6056130">
        <ele>533.2</ele>
        <time>2018-06-16T07:22:07Z</time>
      </trkpt>
      <trkpt lat="38.2673580" lon="-3.6056290">
        <ele>533.4</ele>
        <time>2018-06-16T07:22:08Z</time>
      </trkpt>
      <trkpt lat="38.2673990" lon="-3.6056580">
        <ele>533.4</ele>
        <time>2018-06-16T07:22:09Z</time>
      </trkpt>
      <trkpt lat="38.2674420" lon="-3.6056870">
        <ele>533.4</ele>
        <time>2018-06-16T07:22:10Z</time>
      </trkpt>
      <trkpt lat="38.2674850" lon="-3.6057160">
        <ele>533.4</ele>
        <time>2018-06-16T07:22:11Z</time>
      </trkpt>
      <trkpt lat="38.2675290" lon="-3.6057480">
        <ele>533.6</ele>
        <time>2018-06-16T07:22:12Z</time>
      </trkpt>
      <trkpt lat="38.2675720" lon="-3.6057810">
        <ele>533.6</ele>
        <time>2018-06-16T07:22:13Z</time>
      </trkpt>
      <trkpt lat="38.2676150" lon="-3.6058130">
        <ele>533.6</ele>
        <time>2018-06-16T07:22:14Z</time>
      </trkpt>
      <trkpt lat="38.2676570" lon="-3.6058440">
        <ele>533.6</ele>
        <time>2018-06-16T07:22:15Z</time>
      </trkpt>
      <trkpt lat="38.2677000" lon="-3.6058760">
        <ele>533.8</ele>
        <time>2018-06-16T07:22:16Z</time>
      </trkpt>
      <trkpt lat="38.2677430" lon="-3.6059080">
        <ele>533.8</ele>
        <time>2018-06-16T07:22:17Z</time>
      </trkpt>
      <trkpt lat="38.2677830" lon="-3.6059390">
        <ele>534.0</ele>
        <time>2018-06-16T07:22:18Z</time>
      </trkpt>
      <trkpt lat="38.2678240" lon="-3.6059670">
        <ele>534.2</ele>
        <time>2018-06-16T07:22:19Z</time>
      </trkpt>
      <trkpt lat="38.2678630" lon="-3.6059950">
        <ele>534.2</ele>
        <time>2018-06-16T07:22:20Z</time>
      </trkpt>
      <trkpt lat="38.2679010" lon="-3.6060210">
        <ele>534.6</ele>
        <time>2018-06-16T07:22:21Z</time>
      </trkpt>
      <trkpt lat="38.2679370" lon="-3.6060450">
        <ele>534.8</ele>
        <time>2018-06-16T07:22:22Z</time>
      </trkpt>
      <trkpt lat="38.2680040" lon="-3.6060900">
        <ele>535.4</ele>
        <time>2018-06-16T07:22:23Z</time>
      </trkpt>
      <trkpt lat="38.2680360" lon="-3.6061120">
        <ele>535.6</ele>
        <time>2018-06-16T07:22:24Z</time>
      </trkpt>
      <trkpt lat="38.2680670" lon="-3.6061330">
        <ele>536.2</ele>
        <time>2018-06-16T07:22:25Z</time>
      </trkpt>
      <trkpt lat="38.2680970" lon="-3.6061540">
        <ele>536.2</ele>
        <time>2018-06-16T07:22:26Z</time>
      </trkpt>
      <trkpt lat="38.2681240" lon="-3.6061760">
        <ele>536.6</ele>
        <time>2018-06-16T07:22:27Z</time>
      </trkpt>
      <trkpt lat="38.2681520" lon="-3.6061930">
        <ele>537.0</ele>
        <time>2018-06-16T07:22:29Z</time>
      </trkpt>
      <trkpt lat="38.2681790" lon="-3.6062120">
        <ele>537.4</ele>
        <time>2018-06-16T07:22:30Z</time>
      </trkpt>
      <trkpt lat="38.2682060" lon="-3.6062290">
        <ele>537.8</ele>
        <time>2018-06-16T07:22:31Z</time>
      </trkpt>
      <trkpt lat="38.2682330" lon="-3.6062440">
        <ele>538.0</ele>
        <time>2018-06-16T07:22:32Z</time>
      </trkpt>
      <trkpt lat="38.2682610" lon="-3.6062610">
        <ele>538.4</ele>
        <time>2018-06-16T07:22:33Z</time>
      </trkpt>
      <trkpt lat="38.2682900" lon="-3.6062790">
        <ele>538.6</ele>
        <time>2018-06-16T07:22:34Z</time>
      </trkpt>
      <trkpt lat="38.2683170" lon="-3.6062970">
        <ele>539.0</ele>
        <time>2018-06-16T07:22:35Z</time>
      </trkpt>
      <trkpt lat="38.2683450" lon="-3.6063130">
        <ele>539.2</ele>
        <time>2018-06-16T07:22:36Z</time>
      </trkpt>
      <trkpt lat="38.2683750" lon="-3.6063270">
        <ele>539.4</ele>
        <time>2018-06-16T07:22:37Z</time>
      </trkpt>
      <trkpt lat="38.2684070" lon="-3.6063420">
        <ele>539.6</ele>
        <time>2018-06-16T07:22:38Z</time>
      </trkpt>
      <trkpt lat="38.2684390" lon="-3.6063590">
        <ele>539.8</ele>
        <time>2018-06-16T07:22:39Z</time>
      </trkpt>
      <trkpt lat="38.2684890" lon="-3.6063800">
        <ele>540.0</ele>
        <time>2018-06-16T07:22:40Z</time>
      </trkpt>
      <trkpt lat="38.2685060" lon="-3.6063860">
        <ele>540.2</ele>
        <time>2018-06-16T07:22:41Z</time>
      </trkpt>
      <trkpt lat="38.2685380" lon="-3.6063910">
        <ele>540.4</ele>
        <time>2018-06-16T07:22:42Z</time>
      </trkpt>
      <trkpt lat="38.2685910" lon="-3.6063970">
        <ele>540.6</ele>
        <time>2018-06-16T07:22:43Z</time>
      </trkpt>
      <trkpt lat="38.2686080" lon="-3.6063990">
        <ele>540.6</ele>
        <time>2018-06-16T07:22:44Z</time>
      </trkpt>
      <trkpt lat="38.2686420" lon="-3.6064010">
        <ele>540.8</ele>
        <time>2018-06-16T07:22:45Z</time>
      </trkpt>
      <trkpt lat="38.2686760" lon="-3.6064010">
        <ele>540.8</ele>
        <time>2018-06-16T07:22:46Z</time>
      </trkpt>
      <trkpt lat="38.2687090" lon="-3.6064070">
        <ele>541.0</ele>
        <time>2018-06-16T07:22:47Z</time>
      </trkpt>
      <trkpt lat="38.2687400" lon="-3.6064190">
        <ele>541.2</ele>
        <time>2018-06-16T07:22:48Z</time>
      </trkpt>
      <trkpt lat="38.2687690" lon="-3.6064360">
        <ele>541.4</ele>
        <time>2018-06-16T07:22:49Z</time>
      </trkpt>
      <trkpt lat="38.2687950" lon="-3.6064590">
        <ele>541.6</ele>
        <time>2018-06-16T07:22:50Z</time>
      </trkpt>
      <trkpt lat="38.2688160" lon="-3.6064840">
        <ele>541.8</ele>
        <time>2018-06-16T07:22:51Z</time>
      </trkpt>
      <trkpt lat="38.2688340" lon="-3.6065100">
        <ele>541.8</ele>
        <time>2018-06-16T07:22:52Z</time>
      </trkpt>
      <trkpt lat="38.2688490" lon="-3.6065410">
        <ele>542.0</ele>
        <time>2018-06-16T07:22:53Z</time>
      </trkpt>
      <trkpt lat="38.2688570" lon="-3.6065780">
        <ele>542.0</ele>
        <time>2018-06-16T07:22:54Z</time>
      </trkpt>
      <trkpt lat="38.2688590" lon="-3.6066190">
        <ele>542.2</ele>
        <time>2018-06-16T07:22:55Z</time>
      </trkpt>
      <trkpt lat="38.2688590" lon="-3.6066620">
        <ele>542.2</ele>
        <time>2018-06-16T07:22:56Z</time>
      </trkpt>
      <trkpt lat="38.2688530" lon="-3.6067060">
        <ele>542.0</ele>
        <time>2018-06-16T07:22:57Z</time>
      </trkpt>
      <trkpt lat="38.2688400" lon="-3.6067470">
        <ele>542.0</ele>
        <time>2018-06-16T07:22:58Z</time>
      </trkpt>
      <trkpt lat="38.2688180" lon="-3.6067830">
        <ele>542.0</ele>
        <time>2018-06-16T07:22:59Z</time>
      </trkpt>
      <trkpt lat="38.2687910" lon="-3.6068130">
        <ele>542.0</ele>
        <time>2018-06-16T07:23:00Z</time>
      </trkpt>
      <trkpt lat="38.2687560" lon="-3.6068330">
        <ele>541.8</ele>
        <time>2018-06-16T07:23:01Z</time>
      </trkpt>
      <trkpt lat="38.2687150" lon="-3.6068420">
        <ele>541.8</ele>
        <time>2018-06-16T07:23:02Z</time>
      </trkpt>
      <trkpt lat="38.2686710" lon="-3.6068370">
        <ele>541.6</ele>
        <time>2018-06-16T07:23:03Z</time>
      </trkpt>
      <trkpt lat="38.2686250" lon="-3.6068240">
        <ele>541.2</ele>
        <time>2018-06-16T07:23:04Z</time>
      </trkpt>
      <trkpt lat="38.2685750" lon="-3.6068100">
        <ele>541.2</ele>
        <time>2018-06-16T07:23:05Z</time>
      </trkpt>
      <trkpt lat="38.2685220" lon="-3.6068000">
        <ele>540.6</ele>
        <time>2018-06-16T07:23:06Z</time>
      </trkpt>
      <trkpt lat="38.2684670" lon="-3.6068030">
        <ele>540.6</ele>
        <time>2018-06-16T07:23:07Z</time>
      </trkpt>
      <trkpt lat="38.2684150" lon="-3.6068230">
        <ele>540.8</ele>
        <time>2018-06-16T07:23:08Z</time>
      </trkpt>
      <trkpt lat="38.2683690" lon="-3.6068530">
        <ele>541.0</ele>
        <time>2018-06-16T07:23:09Z</time>
      </trkpt>
      <trkpt lat="38.2683300" lon="-3.6068890">
        <ele>541.2</ele>
        <time>2018-06-16T07:23:10Z</time>
      </trkpt>
      <trkpt lat="38.2682960" lon="-3.6069280">
        <ele>541.4</ele>
        <time>2018-06-16T07:23:11Z</time>
      </trkpt>
      <trkpt lat="38.2682630" lon="-3.6069700">
        <ele>541.6</ele>
        <time>2018-06-16T07:23:12Z</time>
      </trkpt>
      <trkpt lat="38.2682330" lon="-3.6070130">
        <ele>541.6</ele>
        <time>2018-06-16T07:23:13Z</time>
      </trkpt>
      <trkpt lat="38.2682070" lon="-3.6070590">
        <ele>541.8</ele>
        <time>2018-06-16T07:23:14Z</time>
      </trkpt>
      <trkpt lat="38.2681850" lon="-3.6071060">
        <ele>541.8</ele>
        <time>2018-06-16T07:23:15Z</time>
      </trkpt>
      <trkpt lat="38.2681680" lon="-3.6071540">
        <ele>542.2</ele>
        <time>2018-06-16T07:23:16Z</time>
      </trkpt>
      <trkpt lat="38.2681520" lon="-3.6072020">
        <ele>542.2</ele>
        <time>2018-06-16T07:23:17Z</time>
      </trkpt>
      <trkpt lat="38.2681360" lon="-3.6072510">
        <ele>542.2</ele>
        <time>2018-06-16T07:23:18Z</time>
      </trkpt>
      <trkpt lat="38.2681210" lon="-3.6073000">
        <ele>542.4</ele>
        <time>2018-06-16T07:23:19Z</time>
      </trkpt>
      <trkpt lat="38.2681080" lon="-3.6073490">
        <ele>542.6</ele>
        <time>2018-06-16T07:23:20Z</time>
      </trkpt>
      <trkpt lat="38.2680990" lon="-3.6073980">
        <ele>542.8</ele>
        <time>2018-06-16T07:23:21Z</time>
      </trkpt>
      <trkpt lat="38.2680930" lon="-3.6074480">
        <ele>542.8</ele>
        <time>2018-06-16T07:23:22Z</time>
      </trkpt>
      <trkpt lat="38.2680880" lon="-3.6074990">
        <ele>543.0</ele>
        <time>2018-06-16T07:23:23Z</time>
      </trkpt>
      <trkpt lat="38.2680860" lon="-3.6075490">
        <ele>543.0</ele>
        <time>2018-06-16T07:23:24Z</time>
      </trkpt>
      <trkpt lat="38.2680860" lon="-3.6075980">
        <ele>543.2</ele>
        <time>2018-06-16T07:23:25Z</time>
      </trkpt>
      <trkpt lat="38.2680890" lon="-3.6076470">
        <ele>543.2</ele>
        <time>2018-06-16T07:23:26Z</time>
      </trkpt>
      <trkpt lat="38.2680940" lon="-3.6076950">
        <ele>543.2</ele>
        <time>2018-06-16T07:23:27Z</time>
      </trkpt>
      <trkpt lat="38.2680990" lon="-3.6077430">
        <ele>543.4</ele>
        <time>2018-06-16T07:23:28Z</time>
      </trkpt>
      <trkpt lat="38.2681030" lon="-3.6077910">
        <ele>543.4</ele>
        <time>2018-06-16T07:23:29Z</time>
      </trkpt>
      <trkpt lat="38.2681060" lon="-3.6078410">
        <ele>543.6</ele>
        <time>2018-06-16T07:23:30Z</time>
      </trkpt>
      <trkpt lat="38.2681080" lon="-3.6078900">
        <ele>543.8</ele>
        <time>2018-06-16T07:23:31Z</time>
      </trkpt>
      <trkpt lat="38.2681060" lon="-3.6079400">
        <ele>544.0</ele>
        <time>2018-06-16T07:23:32Z</time>
      </trkpt>
      <trkpt lat="38.2681050" lon="-3.6079890">
        <ele>544.0</ele>
        <time>2018-06-16T07:23:33Z</time>
      </trkpt>
      <trkpt lat="38.2681020" lon="-3.6080380">
        <ele>544.2</ele>
        <time>2018-06-16T07:23:34Z</time>
      </trkpt>
      <trkpt lat="38.2680960" lon="-3.6080880">
        <ele>544.2</ele>
        <time>2018-06-16T07:23:35Z</time>
      </trkpt>
      <trkpt lat="38.2680880" lon="-3.6081370">
        <ele>544.4</ele>
        <time>2018-06-16T07:23:36Z</time>
      </trkpt>
      <trkpt lat="38.2680770" lon="-3.6081860">
        <ele>544.6</ele>
        <time>2018-06-16T07:23:37Z</time>
      </trkpt>
      <trkpt lat="38.2680650" lon="-3.6082340">
        <ele>544.6</ele>
        <time>2018-06-16T07:23:38Z</time>
      </trkpt>
      <trkpt lat="38.2680520" lon="-3.6082820">
        <ele>544.8</ele>
        <time>2018-06-16T07:23:39Z</time>
      </trkpt>
      <trkpt lat="38.2680390" lon="-3.6083310">
        <ele>544.8</ele>
        <time>2018-06-16T07:23:40Z</time>
      </trkpt>
      <trkpt lat="38.2680260" lon="-3.6083790">
        <ele>545.0</ele>
        <time>2018-06-16T07:23:41Z</time>
      </trkpt>
      <trkpt lat="38.2680110" lon="-3.6084270">
        <ele>545.2</ele>
        <time>2018-06-16T07:23:42Z</time>
      </trkpt>
      <trkpt lat="38.2679950" lon="-3.6084730">
        <ele>545.4</ele>
        <time>2018-06-16T07:23:43Z</time>
      </trkpt>
      <trkpt lat="38.2679780" lon="-3.6085190">
        <ele>545.4</ele>
        <time>2018-06-16T07:23:44Z</time>
      </trkpt>
      <trkpt lat="38.2679530" lon="-3.6085890">
        <ele>545.6</ele>
        <time>2018-06-16T07:23:45Z</time>
      </trkpt>
      <trkpt lat="38.2679450" lon="-3.6086120">
        <ele>545.8</ele>
        <time>2018-06-16T07:23:46Z</time>
      </trkpt>
      <trkpt lat="38.2679290" lon="-3.6086590">
        <ele>546.0</ele>
        <time>2018-06-16T07:23:47Z</time>
      </trkpt>
      <trkpt lat="38.2679130" lon="-3.6087060">
        <ele>546.0</ele>
        <time>2018-06-16T07:23:48Z</time>
      </trkpt>
      <trkpt lat="38.2678960" lon="-3.6087530">
        <ele>546.0</ele>
        <time>2018-06-16T07:23:49Z</time>
      </trkpt>
      <trkpt lat="38.2678800" lon="-3.6087990">
        <ele>546.2</ele>
        <time>2018-06-16T07:23:50Z</time>
      </trkpt>
      <trkpt lat="38.2678640" lon="-3.6088460">
        <ele>546.4</ele>
        <time>2018-06-16T07:23:51Z</time>
      </trkpt>
      <trkpt lat="38.2678490" lon="-3.6088920">
        <ele>546.4</ele>
        <time>2018-06-16T07:23:52Z</time>
      </trkpt>
      <trkpt lat="38.2678320" lon="-3.6089390">
        <ele>546.6</ele>
        <time>2018-06-16T07:23:53Z</time>
      </trkpt>
      <trkpt lat="38.2678150" lon="-3.6089860">
        <ele>546.8</ele>
        <time>2018-06-16T07:23:54Z</time>
      </trkpt>
      <trkpt lat="38.2677990" lon="-3.6090320">
        <ele>547.0</ele>
        <time>2018-06-16T07:23:55Z</time>
      </trkpt>
      <trkpt lat="38.2677840" lon="-3.6090790">
        <ele>547.4</ele>
        <time>2018-06-16T07:23:56Z</time>
      </trkpt>
      <trkpt lat="38.2677690" lon="-3.6091260">
        <ele>547.4</ele>
        <time>2018-06-16T07:23:57Z</time>
      </trkpt>
      <trkpt lat="38.2677520" lon="-3.6091740">
        <ele>547.4</ele>
        <time>2018-06-16T07:23:58Z</time>
      </trkpt>
      <trkpt lat="38.2677360" lon="-3.6092220">
        <ele>547.4</ele>
        <time>2018-06-16T07:23:59Z</time>
      </trkpt>
      <trkpt lat="38.2677190" lon="-3.6092690">
        <ele>547.6</ele>
        <time>2018-06-16T07:24:00Z</time>
      </trkpt>
      <trkpt lat="38.2677040" lon="-3.6093180">
        <ele>547.8</ele>
        <time>2018-06-16T07:24:01Z</time>
      </trkpt>
      <trkpt lat="38.2676880" lon="-3.6093660">
        <ele>548.0</ele>
        <time>2018-06-16T07:24:02Z</time>
      </trkpt>
      <trkpt lat="38.2676720" lon="-3.6094120">
        <ele>548.2</ele>
        <time>2018-06-16T07:24:03Z</time>
      </trkpt>
      <trkpt lat="38.2676560" lon="-3.6094600">
        <ele>548.4</ele>
        <time>2018-06-16T07:24:04Z</time>
      </trkpt>
      <trkpt lat="38.2676410" lon="-3.6095080">
        <ele>548.6</ele>
        <time>2018-06-16T07:24:05Z</time>
      </trkpt>
      <trkpt lat="38.2676240" lon="-3.6095550">
        <ele>548.8</ele>
        <time>2018-06-16T07:24:06Z</time>
      </trkpt>
      <trkpt lat="38.2676070" lon="-3.6096020">
        <ele>549.2</ele>
        <time>2018-06-16T07:24:07Z</time>
      </trkpt>
      <trkpt lat="38.2675890" lon="-3.6096480">
        <ele>549.2</ele>
        <time>2018-06-16T07:24:08Z</time>
      </trkpt>
      <trkpt lat="38.2675740" lon="-3.6096950">
        <ele>549.4</ele>
        <time>2018-06-16T07:24:09Z</time>
      </trkpt>
      <trkpt lat="38.2675570" lon="-3.6097420">
        <ele>549.6</ele>
        <time>2018-06-16T07:24:10Z</time>
      </trkpt>
      <trkpt lat="38.2675400" lon="-3.6097880">
        <ele>549.6</ele>
        <time>2018-06-16T07:24:11Z</time>
      </trkpt>
      <trkpt lat="38.2675140" lon="-3.6098540">
        <ele>549.8</ele>
        <time>2018-06-16T07:24:12Z</time>
      </trkpt>
      <trkpt lat="38.2675050" lon="-3.6098760">
        <ele>550.0</ele>
        <time>2018-06-16T07:24:13Z</time>
      </trkpt>
      <trkpt lat="38.2674890" lon="-3.6099190">
        <ele>550.2</ele>
        <time>2018-06-16T07:24:14Z</time>
      </trkpt>
      <trkpt lat="38.2674740" lon="-3.6099610">
        <ele>550.4</ele>
        <time>2018-06-16T07:24:15Z</time>
      </trkpt>
      <trkpt lat="38.2674600" lon="-3.6100000">
        <ele>550.6</ele>
        <time>2018-06-16T07:24:16Z</time>
      </trkpt>
      <trkpt lat="38.2674460" lon="-3.6100380">
        <ele>550.4</ele>
        <time>2018-06-16T07:24:17Z</time>
      </trkpt>
      <trkpt lat="38.2674270" lon="-3.6101010">
        <ele>550.6</ele>
        <time>2018-06-16T07:24:18Z</time>
      </trkpt>
      <trkpt lat="38.2674200" lon="-3.6101230">
        <ele>550.6</ele>
        <time>2018-06-16T07:24:19Z</time>
      </trkpt>
      <trkpt lat="38.2673990" lon="-3.6101940">
        <ele>550.8</ele>
        <time>2018-06-16T07:24:20Z</time>
      </trkpt>
      <trkpt lat="38.2673920" lon="-3.6102170">
        <ele>551.0</ele>
        <time>2018-06-16T07:24:21Z</time>
      </trkpt>
      <trkpt lat="38.2673770" lon="-3.6102650">
        <ele>551.0</ele>
        <time>2018-06-16T07:24:22Z</time>
      </trkpt>
      <trkpt lat="38.2673580" lon="-3.6103150">
        <ele>551.2</ele>
        <time>2018-06-16T07:24:23Z</time>
      </trkpt>
      <trkpt lat="38.2673400" lon="-3.6103640">
        <ele>551.0</ele>
        <time>2018-06-16T07:24:24Z</time>
      </trkpt>
      <trkpt lat="38.2673210" lon="-3.6104110">
        <ele>551.2</ele>
        <time>2018-06-16T07:24:25Z</time>
      </trkpt>
      <trkpt lat="38.2673010" lon="-3.6104590">
        <ele>551.2</ele>
        <time>2018-06-16T07:24:26Z</time>
      </trkpt>
      <trkpt lat="38.2672850" lon="-3.6105080">
        <ele>551.2</ele>
        <time>2018-06-16T07:24:27Z</time>
      </trkpt>
      <trkpt lat="38.2672680" lon="-3.6105580">
        <ele>551.2</ele>
        <time>2018-06-16T07:24:28Z</time>
      </trkpt>
      <trkpt lat="38.2672500" lon="-3.6106080">
        <ele>551.2</ele>
        <time>2018-06-16T07:24:29Z</time>
      </trkpt>
      <trkpt lat="38.2672310" lon="-3.6106600">
        <ele>551.2</ele>
        <time>2018-06-16T07:24:30Z</time>
      </trkpt>
      <trkpt lat="38.2672130" lon="-3.6107120">
        <ele>551.2</ele>
        <time>2018-06-16T07:24:31Z</time>
      </trkpt>
      <trkpt lat="38.2671950" lon="-3.6107660">
        <ele>551.2</ele>
        <time>2018-06-16T07:24:32Z</time>
      </trkpt>
      <trkpt lat="38.2671760" lon="-3.6108200">
        <ele>551.2</ele>
        <time>2018-06-16T07:24:33Z</time>
      </trkpt>
      <trkpt lat="38.2671570" lon="-3.6108740">
        <ele>551.2</ele>
        <time>2018-06-16T07:24:34Z</time>
      </trkpt>
      <trkpt lat="38.2671380" lon="-3.6109280">
        <ele>551.0</ele>
        <time>2018-06-16T07:24:35Z</time>
      </trkpt>
      <trkpt lat="38.2671180" lon="-3.6109850">
        <ele>551.2</ele>
        <time>2018-06-16T07:24:36Z</time>
      </trkpt>
      <trkpt lat="38.2670980" lon="-3.6110410">
        <ele>551.2</ele>
        <time>2018-06-16T07:24:37Z</time>
      </trkpt>
      <trkpt lat="38.2670680" lon="-3.6111250">
        <ele>551.0</ele>
        <time>2018-06-16T07:24:38Z</time>
      </trkpt>
      <trkpt lat="38.2670570" lon="-3.6111530">
        <ele>551.2</ele>
        <time>2018-06-16T07:24:39Z</time>
      </trkpt>
      <trkpt lat="38.2670370" lon="-3.6112110">
        <ele>551.2</ele>
        <time>2018-06-16T07:24:40Z</time>
      </trkpt>
      <trkpt lat="38.2670180" lon="-3.6112690">
        <ele>551.0</ele>
        <time>2018-06-16T07:24:41Z</time>
      </trkpt>
      <trkpt lat="38.2669970" lon="-3.6113260">
        <ele>551.0</ele>
        <time>2018-06-16T07:24:42Z</time>
      </trkpt>
      <trkpt lat="38.2669760" lon="-3.6113830">
        <ele>551.2</ele>
        <time>2018-06-16T07:24:43Z</time>
      </trkpt>
      <trkpt lat="38.2669550" lon="-3.6114390">
        <ele>551.0</ele>
        <time>2018-06-16T07:24:44Z</time>
      </trkpt>
      <trkpt lat="38.2669330" lon="-3.6114970">
        <ele>551.0</ele>
        <time>2018-06-16T07:24:45Z</time>
      </trkpt>
      <trkpt lat="38.2669120" lon="-3.6115550">
        <ele>550.8</ele>
        <time>2018-06-16T07:24:46Z</time>
      </trkpt>
      <trkpt lat="38.2668930" lon="-3.6116120">
        <ele>551.0</ele>
        <time>2018-06-16T07:24:47Z</time>
      </trkpt>
      <trkpt lat="38.2668720" lon="-3.6116690">
        <ele>550.8</ele>
        <time>2018-06-16T07:24:48Z</time>
      </trkpt>
      <trkpt lat="38.2668510" lon="-3.6117280">
        <ele>550.8</ele>
        <time>2018-06-16T07:24:49Z</time>
      </trkpt>
      <trkpt lat="38.2668310" lon="-3.6117870">
        <ele>550.8</ele>
        <time>2018-06-16T07:24:50Z</time>
      </trkpt>
      <trkpt lat="38.2668100" lon="-3.6118470">
        <ele>550.6</ele>
        <time>2018-06-16T07:24:51Z</time>
      </trkpt>
      <trkpt lat="38.2667900" lon="-3.6119080">
        <ele>550.8</ele>
        <time>2018-06-16T07:24:52Z</time>
      </trkpt>
      <trkpt lat="38.2667690" lon="-3.6119680">
        <ele>550.6</ele>
        <time>2018-06-16T07:24:53Z</time>
      </trkpt>
      <trkpt lat="38.2667480" lon="-3.6120290">
        <ele>550.6</ele>
        <time>2018-06-16T07:24:54Z</time>
      </trkpt>
      <trkpt lat="38.2667270" lon="-3.6120920">
        <ele>550.4</ele>
        <time>2018-06-16T07:24:55Z</time>
      </trkpt>
      <trkpt lat="38.2667050" lon="-3.6121550">
        <ele>550.4</ele>
        <time>2018-06-16T07:24:56Z</time>
      </trkpt>
      <trkpt lat="38.2666830" lon="-3.6122190">
        <ele>550.2</ele>
        <time>2018-06-16T07:24:57Z</time>
      </trkpt>
      <trkpt lat="38.2666600" lon="-3.6122840">
        <ele>550.2</ele>
        <time>2018-06-16T07:24:58Z</time>
      </trkpt>
      <trkpt lat="38.2666380" lon="-3.6123500">
        <ele>550.2</ele>
        <time>2018-06-16T07:24:59Z</time>
      </trkpt>
      <trkpt lat="38.2666170" lon="-3.6124170">
        <ele>550.0</ele>
        <time>2018-06-16T07:25:00Z</time>
      </trkpt>
      <trkpt lat="38.2665940" lon="-3.6124840">
        <ele>550.0</ele>
        <time>2018-06-16T07:25:01Z</time>
      </trkpt>
      <trkpt lat="38.2665670" lon="-3.6125540">
        <ele>549.8</ele>
        <time>2018-06-16T07:25:02Z</time>
      </trkpt>
      <trkpt lat="38.2665420" lon="-3.6126220">
        <ele>549.6</ele>
        <time>2018-06-16T07:25:03Z</time>
      </trkpt>
      <trkpt lat="38.2665170" lon="-3.6126900">
        <ele>549.6</ele>
        <time>2018-06-16T07:25:04Z</time>
      </trkpt>
      <trkpt lat="38.2664930" lon="-3.6127580">
        <ele>549.6</ele>
        <time>2018-06-16T07:25:05Z</time>
      </trkpt>
      <trkpt lat="38.2664700" lon="-3.6128280">
        <ele>549.4</ele>
        <time>2018-06-16T07:25:06Z</time>
      </trkpt>
      <trkpt lat="38.2664460" lon="-3.6128990">
        <ele>549.4</ele>
        <time>2018-06-16T07:25:07Z</time>
      </trkpt>
      <trkpt lat="38.2664220" lon="-3.6129690">
        <ele>549.2</ele>
        <time>2018-06-16T07:25:08Z</time>
      </trkpt>
      <trkpt lat="38.2663970" lon="-3.6130390">
        <ele>549.0</ele>
        <time>2018-06-16T07:25:09Z</time>
      </trkpt>
      <trkpt lat="38.2663730" lon="-3.6131080">
        <ele>549.0</ele>
        <time>2018-06-16T07:25:10Z</time>
      </trkpt>
      <trkpt lat="38.2663490" lon="-3.6131760">
        <ele>548.8</ele>
        <time>2018-06-16T07:25:11Z</time>
      </trkpt>
      <trkpt lat="38.2663250" lon="-3.6132430">
        <ele>548.8</ele>
        <time>2018-06-16T07:25:12Z</time>
      </trkpt>
      <trkpt lat="38.2663020" lon="-3.6133090">
        <ele>548.6</ele>
        <time>2018-06-16T07:25:13Z</time>
      </trkpt>
      <trkpt lat="38.2662790" lon="-3.6133750">
        <ele>548.6</ele>
        <time>2018-06-16T07:25:14Z</time>
      </trkpt>
      <trkpt lat="38.2662580" lon="-3.6134410">
        <ele>548.6</ele>
        <time>2018-06-16T07:25:15Z</time>
      </trkpt>
      <trkpt lat="38.2662360" lon="-3.6135060">
        <ele>548.6</ele>
        <time>2018-06-16T07:25:16Z</time>
      </trkpt>
      <trkpt lat="38.2662130" lon="-3.6135700">
        <ele>548.4</ele>
        <time>2018-06-16T07:25:17Z</time>
      </trkpt>
      <trkpt lat="38.2661900" lon="-3.6136340">
        <ele>548.2</ele>
        <time>2018-06-16T07:25:18Z</time>
      </trkpt>
      <trkpt lat="38.2661670" lon="-3.6136970">
        <ele>548.2</ele>
        <time>2018-06-16T07:25:19Z</time>
      </trkpt>
      <trkpt lat="38.2661430" lon="-3.6137620">
        <ele>548.0</ele>
        <time>2018-06-16T07:25:20Z</time>
      </trkpt>
      <trkpt lat="38.2661170" lon="-3.6138260">
        <ele>548.0</ele>
        <time>2018-06-16T07:25:21Z</time>
      </trkpt>
      <trkpt lat="38.2660900" lon="-3.6138900">
        <ele>548.0</ele>
        <time>2018-06-16T07:25:22Z</time>
      </trkpt>
      <trkpt lat="38.2660660" lon="-3.6139550">
        <ele>547.8</ele>
        <time>2018-06-16T07:25:23Z</time>
      </trkpt>
      <trkpt lat="38.2660410" lon="-3.6140200">
        <ele>547.8</ele>
        <time>2018-06-16T07:25:24Z</time>
      </trkpt>
      <trkpt lat="38.2660160" lon="-3.6140850">
        <ele>547.4</ele>
        <time>2018-06-16T07:25:25Z</time>
      </trkpt>
      <trkpt lat="38.2659890" lon="-3.6141520">
        <ele>547.4</ele>
        <time>2018-06-16T07:25:26Z</time>
      </trkpt>
      <trkpt lat="38.2659630" lon="-3.6142210">
        <ele>547.2</ele>
        <time>2018-06-16T07:25:27Z</time>
      </trkpt>
      <trkpt lat="38.2659380" lon="-3.6142930">
        <ele>547.2</ele>
        <time>2018-06-16T07:25:28Z</time>
      </trkpt>
      <trkpt lat="38.2659120" lon="-3.6143660">
        <ele>546.8</ele>
        <time>2018-06-16T07:25:29Z</time>
      </trkpt>
      <trkpt lat="38.2658860" lon="-3.6144400">
        <ele>546.6</ele>
        <time>2018-06-16T07:25:30Z</time>
      </trkpt>
      <trkpt lat="38.2658580" lon="-3.6145130">
        <ele>546.6</ele>
        <time>2018-06-16T07:25:31Z</time>
      </trkpt>
      <trkpt lat="38.2658300" lon="-3.6145860">
        <ele>546.6</ele>
        <time>2018-06-16T07:25:32Z</time>
      </trkpt>
      <trkpt lat="38.2658030" lon="-3.6146600">
        <ele>546.2</ele>
        <time>2018-06-16T07:25:33Z</time>
      </trkpt>
      <trkpt lat="38.2657760" lon="-3.6147350">
        <ele>546.0</ele>
        <time>2018-06-16T07:25:34Z</time>
      </trkpt>
      <trkpt lat="38.2657480" lon="-3.6148110">
        <ele>545.8</ele>
        <time>2018-06-16T07:25:35Z</time>
      </trkpt>
      <trkpt lat="38.2657220" lon="-3.6148850">
        <ele>545.6</ele>
        <time>2018-06-16T07:25:36Z</time>
      </trkpt>
      <trkpt lat="38.2656960" lon="-3.6149620">
        <ele>545.4</ele>
        <time>2018-06-16T07:25:37Z</time>
      </trkpt>
      <trkpt lat="38.2656590" lon="-3.6150800">
        <ele>545.2</ele>
        <time>2018-06-16T07:25:38Z</time>
      </trkpt>
      <trkpt lat="38.2656460" lon="-3.6151190">
        <ele>544.8</ele>
        <time>2018-06-16T07:25:39Z</time>
      </trkpt>
      <trkpt lat="38.2656210" lon="-3.6151980">
        <ele>544.8</ele>
        <time>2018-06-16T07:25:40Z</time>
      </trkpt>
      <trkpt lat="38.2655960" lon="-3.6152790">
        <ele>544.2</ele>
        <time>2018-06-16T07:25:41Z</time>
      </trkpt>
      <trkpt lat="38.2655700" lon="-3.6153600">
        <ele>543.8</ele>
        <time>2018-06-16T07:25:42Z</time>
      </trkpt>
      <trkpt lat="38.2655430" lon="-3.6154410">
        <ele>544.2</ele>
        <time>2018-06-16T07:25:43Z</time>
      </trkpt>
      <trkpt lat="38.2655160" lon="-3.6155230">
        <ele>543.6</ele>
        <time>2018-06-16T07:25:44Z</time>
      </trkpt>
      <trkpt lat="38.2654890" lon="-3.6156060">
        <ele>543.4</ele>
        <time>2018-06-16T07:25:45Z</time>
      </trkpt>
      <trkpt lat="38.2654610" lon="-3.6156880">
        <ele>543.2</ele>
        <time>2018-06-16T07:25:46Z</time>
      </trkpt>
      <trkpt lat="38.2654330" lon="-3.6157720">
        <ele>542.8</ele>
        <time>2018-06-16T07:25:47Z</time>
      </trkpt>
      <trkpt lat="38.2653940" lon="-3.6158990">
        <ele>542.6</ele>
        <time>2018-06-16T07:25:48Z</time>
      </trkpt>
      <trkpt lat="38.2653800" lon="-3.6159410">
        <ele>542.2</ele>
        <time>2018-06-16T07:25:49Z</time>
      </trkpt>
      <trkpt lat="38.2653510" lon="-3.6160250">
        <ele>542.0</ele>
        <time>2018-06-16T07:25:50Z</time>
      </trkpt>
      <trkpt lat="38.2653240" lon="-3.6161100">
        <ele>541.6</ele>
        <time>2018-06-16T07:25:51Z</time>
      </trkpt>
      <trkpt lat="38.2652960" lon="-3.6161960">
        <ele>541.4</ele>
        <time>2018-06-16T07:25:52Z</time>
      </trkpt>
      <trkpt lat="38.2652660" lon="-3.6162820">
        <ele>541.2</ele>
        <time>2018-06-16T07:25:53Z</time>
      </trkpt>
      <trkpt lat="38.2652370" lon="-3.6163690">
        <ele>541.0</ele>
        <time>2018-06-16T07:25:54Z</time>
      </trkpt>
      <trkpt lat="38.2652070" lon="-3.6164570">
        <ele>540.6</ele>
        <time>2018-06-16T07:25:55Z</time>
      </trkpt>
      <trkpt lat="38.2651760" lon="-3.6165460">
        <ele>540.2</ele>
        <time>2018-06-16T07:25:56Z</time>
      </trkpt>
      <trkpt lat="38.2651450" lon="-3.6166360">
        <ele>540.0</ele>
        <time>2018-06-16T07:25:57Z</time>
      </trkpt>
      <trkpt lat="38.2651140" lon="-3.6167260">
        <ele>539.8</ele>
        <time>2018-06-16T07:25:58Z</time>
      </trkpt>
      <trkpt lat="38.2650820" lon="-3.6168170">
        <ele>539.4</ele>
        <time>2018-06-16T07:25:59Z</time>
      </trkpt>
      <trkpt lat="38.2650510" lon="-3.6169080">
        <ele>539.2</ele>
        <time>2018-06-16T07:26:00Z</time>
      </trkpt>
      <trkpt lat="38.2650200" lon="-3.6170020">
        <ele>538.8</ele>
        <time>2018-06-16T07:26:01Z</time>
      </trkpt>
      <trkpt lat="38.2649890" lon="-3.6170960">
        <ele>538.6</ele>
        <time>2018-06-16T07:26:02Z</time>
      </trkpt>
      <trkpt lat="38.2649420" lon="-3.6172390">
        <ele>538.4</ele>
        <time>2018-06-16T07:26:03Z</time>
      </trkpt>
      <trkpt lat="38.2649250" lon="-3.6172870">
        <ele>537.8</ele>
        <time>2018-06-16T07:26:04Z</time>
      </trkpt>
      <trkpt lat="38.2648920" lon="-3.6173820">
        <ele>537.4</ele>
        <time>2018-06-16T07:26:05Z</time>
      </trkpt>
      <trkpt lat="38.2648600" lon="-3.6174790">
        <ele>537.4</ele>
        <time>2018-06-16T07:26:06Z</time>
      </trkpt>
      <trkpt lat="38.2648260" lon="-3.6175760">
        <ele>537.0</ele>
        <time>2018-06-16T07:26:07Z</time>
      </trkpt>
      <trkpt lat="38.2647760" lon="-3.6177250">
        <ele>536.6</ele>
        <time>2018-06-16T07:26:08Z</time>
      </trkpt>
      <trkpt lat="38.2647590" lon="-3.6177740">
        <ele>536.4</ele>
        <time>2018-06-16T07:26:09Z</time>
      </trkpt>
      <trkpt lat="38.2647250" lon="-3.6178720">
        <ele>536.2</ele>
        <time>2018-06-16T07:26:10Z</time>
      </trkpt>
      <trkpt lat="38.2646890" lon="-3.6179720">
        <ele>535.8</ele>
        <time>2018-06-16T07:26:11Z</time>
      </trkpt>
      <trkpt lat="38.2646530" lon="-3.6180710">
        <ele>535.8</ele>
        <time>2018-06-16T07:26:12Z</time>
      </trkpt>
      <trkpt lat="38.2646190" lon="-3.6181720">
        <ele>535.0</ele>
        <time>2018-06-16T07:26:13Z</time>
      </trkpt>
      <trkpt lat="38.2645840" lon="-3.6182720">
        <ele>534.6</ele>
        <time>2018-06-16T07:26:14Z</time>
      </trkpt>
      <trkpt lat="38.2645480" lon="-3.6183720">
        <ele>534.4</ele>
        <time>2018-06-16T07:26:15Z</time>
      </trkpt>
      <trkpt lat="38.2645140" lon="-3.6184730">
        <ele>533.6</ele>
        <time>2018-06-16T07:26:16Z</time>
      </trkpt>
      <trkpt lat="38.2644790" lon="-3.6185740">
        <ele>534.0</ele>
        <time>2018-06-16T07:26:17Z</time>
      </trkpt>
      <trkpt lat="38.2644450" lon="-3.6186740">
        <ele>533.4</ele>
        <time>2018-06-16T07:26:18Z</time>
      </trkpt>
      <trkpt lat="38.2644110" lon="-3.6187750">
        <ele>533.2</ele>
        <time>2018-06-16T07:26:19Z</time>
      </trkpt>
      <trkpt lat="38.2643770" lon="-3.6188740">
        <ele>533.0</ele>
        <time>2018-06-16T07:26:20Z</time>
      </trkpt>
      <trkpt lat="38.2643430" lon="-3.6189730">
        <ele>532.8</ele>
        <time>2018-06-16T07:26:21Z</time>
      </trkpt>
      <trkpt lat="38.2643080" lon="-3.6190710">
        <ele>532.6</ele>
        <time>2018-06-16T07:26:22Z</time>
      </trkpt>
      <trkpt lat="38.2642740" lon="-3.6191680">
        <ele>532.4</ele>
        <time>2018-06-16T07:26:23Z</time>
      </trkpt>
      <trkpt lat="38.2642400" lon="-3.6192650">
        <ele>532.4</ele>
        <time>2018-06-16T07:26:24Z</time>
      </trkpt>
      <trkpt lat="38.2642080" lon="-3.6193620">
        <ele>532.2</ele>
        <time>2018-06-16T07:26:25Z</time>
      </trkpt>
      <trkpt lat="38.2641750" lon="-3.6194590">
        <ele>531.6</ele>
        <time>2018-06-16T07:26:26Z</time>
      </trkpt>
      <trkpt lat="38.2641420" lon="-3.6195550">
        <ele>531.4</ele>
        <time>2018-06-16T07:26:27Z</time>
      </trkpt>
      <trkpt lat="38.2641090" lon="-3.6196510">
        <ele>531.0</ele>
        <time>2018-06-16T07:26:28Z</time>
      </trkpt>
      <trkpt lat="38.2640760" lon="-3.6197470">
        <ele>531.2</ele>
        <time>2018-06-16T07:26:29Z</time>
      </trkpt>
      <trkpt lat="38.2640440" lon="-3.6198410">
        <ele>530.8</ele>
        <time>2018-06-16T07:26:30Z</time>
      </trkpt>
      <trkpt lat="38.2640110" lon="-3.6199360">
        <ele>530.6</ele>
        <time>2018-06-16T07:26:31Z</time>
      </trkpt>
      <trkpt lat="38.2639780" lon="-3.6200290">
        <ele>530.6</ele>
        <time>2018-06-16T07:26:32Z</time>
      </trkpt>
      <trkpt lat="38.2639430" lon="-3.6201210">
        <ele>530.6</ele>
        <time>2018-06-16T07:26:33Z</time>
      </trkpt>
      <trkpt lat="38.2639080" lon="-3.6202130">
        <ele>529.8</ele>
        <time>2018-06-16T07:26:34Z</time>
      </trkpt>
      <trkpt lat="38.2638720" lon="-3.6203040">
        <ele>529.6</ele>
        <time>2018-06-16T07:26:35Z</time>
      </trkpt>
      <trkpt lat="38.2638360" lon="-3.6203930">
        <ele>529.8</ele>
        <time>2018-06-16T07:26:36Z</time>
      </trkpt>
      <trkpt lat="38.2637970" lon="-3.6204800">
        <ele>529.6</ele>
        <time>2018-06-16T07:26:37Z</time>
      </trkpt>
      <trkpt lat="38.2637560" lon="-3.6205640">
        <ele>529.4</ele>
        <time>2018-06-16T07:26:38Z</time>
      </trkpt>
      <trkpt lat="38.2637100" lon="-3.6206430">
        <ele>529.0</ele>
        <time>2018-06-16T07:26:39Z</time>
      </trkpt>
      <trkpt lat="38.2636640" lon="-3.6207210">
        <ele>528.8</ele>
        <time>2018-06-16T07:26:40Z</time>
      </trkpt>
      <trkpt lat="38.2636150" lon="-3.6207930">
        <ele>528.8</ele>
        <time>2018-06-16T07:26:41Z</time>
      </trkpt>
      <trkpt lat="38.2635650" lon="-3.6208600">
        <ele>529.2</ele>
        <time>2018-06-16T07:26:42Z</time>
      </trkpt>
      <trkpt lat="38.2635130" lon="-3.6209250">
        <ele>529.0</ele>
        <time>2018-06-16T07:26:43Z</time>
      </trkpt>
      <trkpt lat="38.2634560" lon="-3.6209830">
        <ele>529.2</ele>
        <time>2018-06-16T07:26:44Z</time>
      </trkpt>
      <trkpt lat="38.2633980" lon="-3.6210350">
        <ele>529.4</ele>
        <time>2018-06-16T07:26:45Z</time>
      </trkpt>
      <trkpt lat="38.2633400" lon="-3.6210800">
        <ele>529.8</ele>
        <time>2018-06-16T07:26:46Z</time>
      </trkpt>
      <trkpt lat="38.2632530" lon="-3.6211410">
        <ele>529.8</ele>
        <time>2018-06-16T07:26:47Z</time>
      </trkpt>
      <trkpt lat="38.2632240" lon="-3.6211600">
        <ele>530.2</ele>
        <time>2018-06-16T07:26:48Z</time>
      </trkpt>
      <trkpt lat="38.2631660" lon="-3.6211980">
        <ele>530.6</ele>
        <time>2018-06-16T07:26:49Z</time>
      </trkpt>
      <trkpt lat="38.2631130" lon="-3.6212330">
        <ele>530.8</ele>
        <time>2018-06-16T07:26:50Z</time>
      </trkpt>
      <trkpt lat="38.2630650" lon="-3.6212690">
        <ele>531.0</ele>
        <time>2018-06-16T07:26:51Z</time>
      </trkpt>
      <trkpt lat="38.2630250" lon="-3.6213100">
        <ele>531.2</ele>
        <time>2018-06-16T07:26:52Z</time>
      </trkpt>
      <trkpt lat="38.2629960" lon="-3.6213580">
        <ele>531.6</ele>
        <time>2018-06-16T07:26:53Z</time>
      </trkpt>
      <trkpt lat="38.2629780" lon="-3.6214090">
        <ele>532.0</ele>
        <time>2018-06-16T07:26:54Z</time>
      </trkpt>
      <trkpt lat="38.2629700" lon="-3.6214580">
        <ele>532.4</ele>
        <time>2018-06-16T07:26:55Z</time>
      </trkpt>
      <trkpt lat="38.2629740" lon="-3.6215080">
        <ele>532.6</ele>
        <time>2018-06-16T07:26:56Z</time>
      </trkpt>
      <trkpt lat="38.2629870" lon="-3.6215550">
        <ele>533.0</ele>
        <time>2018-06-16T07:26:57Z</time>
      </trkpt>
      <trkpt lat="38.2630070" lon="-3.6215960">
        <ele>533.4</ele>
        <time>2018-06-16T07:26:58Z</time>
      </trkpt>
      <trkpt lat="38.2630330" lon="-3.6216340">
        <ele>533.4</ele>
        <time>2018-06-16T07:26:59Z</time>
      </trkpt>
      <trkpt lat="38.2630620" lon="-3.6216670">
        <ele>533.8</ele>
        <time>2018-06-16T07:27:00Z</time>
      </trkpt>
      <trkpt lat="38.2630930" lon="-3.6216950">
        <ele>534.2</ele>
        <time>2018-06-16T07:27:01Z</time>
      </trkpt>
      <trkpt lat="38.2631230" lon="-3.6217230">
        <ele>534.4</ele>
        <time>2018-06-16T07:27:02Z</time>
      </trkpt>
      <trkpt lat="38.2631530" lon="-3.6217520">
        <ele>534.4</ele>
        <time>2018-06-16T07:27:03Z</time>
      </trkpt>
      <trkpt lat="38.2631840" lon="-3.6217790">
        <ele>534.8</ele>
        <time>2018-06-16T07:27:04Z</time>
      </trkpt>
      <trkpt lat="38.2632160" lon="-3.6218060">
        <ele>534.6</ele>
        <time>2018-06-16T07:27:05Z</time>
      </trkpt>
      <trkpt lat="38.2632500" lon="-3.6218310">
        <ele>534.6</ele>
        <time>2018-06-16T07:27:06Z</time>
      </trkpt>
      <trkpt lat="38.2632840" lon="-3.6218560">
        <ele>534.6</ele>
        <time>2018-06-16T07:27:07Z</time>
      </trkpt>
      <trkpt lat="38.2633180" lon="-3.6218820">
        <ele>534.8</ele>
        <time>2018-06-16T07:27:08Z</time>
      </trkpt>
      <trkpt lat="38.2633500" lon="-3.6219090">
        <ele>535.0</ele>
        <time>2018-06-16T07:27:09Z</time>
      </trkpt>
      <trkpt lat="38.2633830" lon="-3.6219360">
        <ele>535.0</ele>
        <time>2018-06-16T07:27:10Z</time>
      </trkpt>
      <trkpt lat="38.2634130" lon="-3.6219640">
        <ele>534.8</ele>
        <time>2018-06-16T07:27:11Z</time>
      </trkpt>
      <trkpt lat="38.2634440" lon="-3.6219900">
        <ele>534.8</ele>
        <time>2018-06-16T07:27:12Z</time>
      </trkpt>
      <trkpt lat="38.2634750" lon="-3.6220160">
        <ele>534.8</ele>
        <time>2018-06-16T07:27:13Z</time>
      </trkpt>
      <trkpt lat="38.2635070" lon="-3.6220410">
        <ele>534.8</ele>
        <time>2018-06-16T07:27:14Z</time>
      </trkpt>
      <trkpt lat="38.2635380" lon="-3.6220690">
        <ele>534.6</ele>
        <time>2018-06-16T07:27:15Z</time>
      </trkpt>
      <trkpt lat="38.2635700" lon="-3.6220940">
        <ele>534.6</ele>
        <time>2018-06-16T07:27:16Z</time>
      </trkpt>
      <trkpt lat="38.2636030" lon="-3.6221150">
        <ele>534.4</ele>
        <time>2018-06-16T07:27:17Z</time>
      </trkpt>
      <trkpt lat="38.2636400" lon="-3.6221330">
        <ele>534.4</ele>
        <time>2018-06-16T07:27:18Z</time>
      </trkpt>
      <trkpt lat="38.2636810" lon="-3.6221450">
        <ele>534.4</ele>
        <time>2018-06-16T07:27:19Z</time>
      </trkpt>
      <trkpt lat="38.2637230" lon="-3.6221510">
        <ele>534.2</ele>
        <time>2018-06-16T07:27:20Z</time>
      </trkpt>
      <trkpt lat="38.2637690" lon="-3.6221540">
        <ele>534.2</ele>
        <time>2018-06-16T07:27:21Z</time>
      </trkpt>
      <trkpt lat="38.2638160" lon="-3.6221560">
        <ele>533.8</ele>
        <time>2018-06-16T07:27:22Z</time>
      </trkpt>
      <trkpt lat="38.2638630" lon="-3.6221610">
        <ele>533.6</ele>
        <time>2018-06-16T07:27:23Z</time>
      </trkpt>
      <trkpt lat="38.2639100" lon="-3.6221750">
        <ele>533.6</ele>
        <time>2018-06-16T07:27:24Z</time>
      </trkpt>
      <trkpt lat="38.2639540" lon="-3.6222000">
        <ele>533.6</ele>
        <time>2018-06-16T07:27:25Z</time>
      </trkpt>
      <trkpt lat="38.2639910" lon="-3.6222400">
        <ele>533.6</ele>
        <time>2018-06-16T07:27:26Z</time>
      </trkpt>
      <trkpt lat="38.2640190" lon="-3.6222900">
        <ele>533.4</ele>
        <time>2018-06-16T07:27:27Z</time>
      </trkpt>
      <trkpt lat="38.2640450" lon="-3.6223410">
        <ele>533.2</ele>
        <time>2018-06-16T07:27:28Z</time>
      </trkpt>
      <trkpt lat="38.2640750" lon="-3.6223890">
        <ele>533.0</ele>
        <time>2018-06-16T07:27:29Z</time>
      </trkpt>
      <trkpt lat="38.2641120" lon="-3.6224360">
        <ele>532.8</ele>
        <time>2018-06-16T07:27:30Z</time>
      </trkpt>
      <trkpt lat="38.2641530" lon="-3.6224740">
        <ele>532.6</ele>
        <time>2018-06-16T07:27:31Z</time>
      </trkpt>
      <trkpt lat="38.2641990" lon="-3.6225100">
        <ele>532.6</ele>
        <time>2018-06-16T07:27:32Z</time>
      </trkpt>
      <trkpt lat="38.2642450" lon="-3.6225400">
        <ele>532.8</ele>
        <time>2018-06-16T07:27:33Z</time>
      </trkpt>
      <trkpt lat="38.2642880" lon="-3.6225680">
        <ele>533.0</ele>
        <time>2018-06-16T07:27:34Z</time>
      </trkpt>
      <trkpt lat="38.2643260" lon="-3.6225930">
        <ele>533.0</ele>
        <time>2018-06-16T07:27:35Z</time>
      </trkpt>
      <trkpt lat="38.2643610" lon="-3.6226160">
        <ele>533.2</ele>
        <time>2018-06-16T07:27:36Z</time>
      </trkpt>
      <trkpt lat="38.2643960" lon="-3.6226370">
        <ele>533.4</ele>
        <time>2018-06-16T07:27:37Z</time>
      </trkpt>
      <trkpt lat="38.2644310" lon="-3.6226600">
        <ele>533.6</ele>
        <time>2018-06-16T07:27:38Z</time>
      </trkpt>
      <trkpt lat="38.2644660" lon="-3.6226820">
        <ele>533.8</ele>
        <time>2018-06-16T07:27:39Z</time>
      </trkpt>
      <trkpt lat="38.2645020" lon="-3.6227050">
        <ele>534.0</ele>
        <time>2018-06-16T07:27:40Z</time>
      </trkpt>
      <trkpt lat="38.2645360" lon="-3.6227260">
        <ele>534.2</ele>
        <time>2018-06-16T07:27:41Z</time>
      </trkpt>
      <trkpt lat="38.2645720" lon="-3.6227470">
        <ele>534.4</ele>
        <time>2018-06-16T07:27:42Z</time>
      </trkpt>
      <trkpt lat="38.2646070" lon="-3.6227690">
        <ele>534.4</ele>
        <time>2018-06-16T07:27:43Z</time>
      </trkpt>
      <trkpt lat="38.2646420" lon="-3.6227870">
        <ele>534.6</ele>
        <time>2018-06-16T07:27:44Z</time>
      </trkpt>
      <trkpt lat="38.2646770" lon="-3.6228040">
        <ele>534.8</ele>
        <time>2018-06-16T07:27:45Z</time>
      </trkpt>
      <trkpt lat="38.2647100" lon="-3.6228240">
        <ele>535.0</ele>
        <time>2018-06-16T07:27:46Z</time>
      </trkpt>
      <trkpt lat="38.2647430" lon="-3.6228470">
        <ele>535.2</ele>
        <time>2018-06-16T07:27:47Z</time>
      </trkpt>
      <trkpt lat="38.2647760" lon="-3.6228720">
        <ele>535.4</ele>
        <time>2018-06-16T07:27:48Z</time>
      </trkpt>
      <trkpt lat="38.2648110" lon="-3.6228950">
        <ele>535.6</ele>
        <time>2018-06-16T07:27:49Z</time>
      </trkpt>
      <trkpt lat="38.2648650" lon="-3.6229280">
        <ele>535.4</ele>
        <time>2018-06-16T07:27:50Z</time>
      </trkpt>
      <trkpt lat="38.2648820" lon="-3.6229400">
        <ele>535.6</ele>
        <time>2018-06-16T07:27:51Z</time>
      </trkpt>
      <trkpt lat="38.2649150" lon="-3.6229590">
        <ele>535.8</ele>
        <time>2018-06-16T07:27:52Z</time>
      </trkpt>
      <trkpt lat="38.2649690" lon="-3.6229940">
        <ele>536.0</ele>
        <time>2018-06-16T07:27:53Z</time>
      </trkpt>
      <trkpt lat="38.2649880" lon="-3.6230060">
        <ele>536.0</ele>
        <time>2018-06-16T07:27:54Z</time>
      </trkpt>
      <trkpt lat="38.2650250" lon="-3.6230290">
        <ele>536.2</ele>
        <time>2018-06-16T07:27:55Z</time>
      </trkpt>
      <trkpt lat="38.2650610" lon="-3.6230510">
        <ele>536.2</ele>
        <time>2018-06-16T07:27:56Z</time>
      </trkpt>
      <trkpt lat="38.2650950" lon="-3.6230770">
        <ele>536.2</ele>
        <time>2018-06-16T07:27:57Z</time>
      </trkpt>
      <trkpt lat="38.2651300" lon="-3.6231040">
        <ele>536.4</ele>
        <time>2018-06-16T07:27:58Z</time>
      </trkpt>
      <trkpt lat="38.2651660" lon="-3.6231280">
        <ele>536.4</ele>
        <time>2018-06-16T07:27:59Z</time>
      </trkpt>
      <trkpt lat="38.2652020" lon="-3.6231530">
        <ele>536.4</ele>
        <time>2018-06-16T07:28:00Z</time>
      </trkpt>
      <trkpt lat="38.2652380" lon="-3.6231800">
        <ele>536.6</ele>
        <time>2018-06-16T07:28:01Z</time>
      </trkpt>
      <trkpt lat="38.2652730" lon="-3.6232060">
        <ele>536.6</ele>
        <time>2018-06-16T07:28:02Z</time>
      </trkpt>
      <trkpt lat="38.2653080" lon="-3.6232320">
        <ele>536.8</ele>
        <time>2018-06-16T07:28:03Z</time>
      </trkpt>
      <trkpt lat="38.2653440" lon="-3.6232600">
        <ele>536.8</ele>
        <time>2018-06-16T07:28:04Z</time>
      </trkpt>
      <trkpt lat="38.2653970" lon="-3.6232940">
        <ele>537.0</ele>
        <time>2018-06-16T07:28:05Z</time>
      </trkpt>
      <trkpt lat="38.2654140" lon="-3.6233050">
        <ele>537.0</ele>
        <time>2018-06-16T07:28:06Z</time>
      </trkpt>
      <trkpt lat="38.2654500" lon="-3.6233290">
        <ele>537.0</ele>
        <time>2018-06-16T07:28:07Z</time>
      </trkpt>
      <trkpt lat="38.2654850" lon="-3.6233550">
        <ele>537.0</ele>
        <time>2018-06-16T07:28:08Z</time>
      </trkpt>
      <trkpt lat="38.2655200" lon="-3.6233800">
        <ele>537.2</ele>
        <time>2018-06-16T07:28:09Z</time>
      </trkpt>
      <trkpt lat="38.2655560" lon="-3.6234040">
        <ele>537.2</ele>
        <time>2018-06-16T07:28:10Z</time>
      </trkpt>
      <trkpt lat="38.2655910" lon="-3.6234270">
        <ele>537.4</ele>
        <time>2018-06-16T07:28:11Z</time>
      </trkpt>
      <trkpt lat="38.2656240" lon="-3.6234540">
        <ele>537.4</ele>
        <time>2018-06-16T07:28:12Z</time>
      </trkpt>
      <trkpt lat="38.2656570" lon="-3.6234790">
        <ele>537.6</ele>
        <time>2018-06-16T07:28:13Z</time>
      </trkpt>
      <trkpt lat="38.2656930" lon="-3.6235030">
        <ele>537.6</ele>
        <time>2018-06-16T07:28:14Z</time>
      </trkpt>
      <trkpt lat="38.2657280" lon="-3.6235280">
        <ele>537.8</ele>
        <time>2018-06-16T07:28:15Z</time>
      </trkpt>
      <trkpt lat="38.2657640" lon="-3.6235540">
        <ele>537.8</ele>
        <time>2018-06-16T07:28:16Z</time>
      </trkpt>
      <trkpt lat="38.2657990" lon="-3.6235790">
        <ele>537.8</ele>
        <time>2018-06-16T07:28:17Z</time>
      </trkpt>
      <trkpt lat="38.2658350" lon="-3.6236030">
        <ele>537.8</ele>
        <time>2018-06-16T07:28:18Z</time>
      </trkpt>
      <trkpt lat="38.2658710" lon="-3.6236270">
        <ele>538.0</ele>
        <time>2018-06-16T07:28:19Z</time>
      </trkpt>
      <trkpt lat="38.2659040" lon="-3.6236510">
        <ele>538.0</ele>
        <time>2018-06-16T07:28:20Z</time>
      </trkpt>
      <trkpt lat="38.2659390" lon="-3.6236760">
        <ele>538.0</ele>
        <time>2018-06-16T07:28:21Z</time>
      </trkpt>
      <trkpt lat="38.2659730" lon="-3.6237010">
        <ele>538.0</ele>
        <time>2018-06-16T07:28:22Z</time>
      </trkpt>
      <trkpt lat="38.2660100" lon="-3.6237280">
        <ele>537.8</ele>
        <time>2018-06-16T07:28:23Z</time>
      </trkpt>
      <trkpt lat="38.2660450" lon="-3.6237520">
        <ele>537.8</ele>
        <time>2018-06-16T07:28:24Z</time>
      </trkpt>
      <trkpt lat="38.2660820" lon="-3.6237760">
        <ele>537.8</ele>
        <time>2018-06-16T07:28:25Z</time>
      </trkpt>
      <trkpt lat="38.2661160" lon="-3.6237960">
        <ele>537.8</ele>
        <time>2018-06-16T07:28:26Z</time>
      </trkpt>
      <trkpt lat="38.2661520" lon="-3.6238200">
        <ele>537.8</ele>
        <time>2018-06-16T07:28:27Z</time>
      </trkpt>
      <trkpt lat="38.2661860" lon="-3.6238410">
        <ele>537.8</ele>
        <time>2018-06-16T07:28:28Z</time>
      </trkpt>
      <trkpt lat="38.2662230" lon="-3.6238640">
        <ele>537.8</ele>
        <time>2018-06-16T07:28:29Z</time>
      </trkpt>
      <trkpt lat="38.2662610" lon="-3.6238900">
        <ele>537.8</ele>
        <time>2018-06-16T07:28:30Z</time>
      </trkpt>
      <trkpt lat="38.2663010" lon="-3.6239200">
        <ele>537.6</ele>
        <time>2018-06-16T07:28:31Z</time>
      </trkpt>
      <trkpt lat="38.2663440" lon="-3.6239520">
        <ele>537.6</ele>
        <time>2018-06-16T07:28:32Z</time>
      </trkpt>
      <trkpt lat="38.2663870" lon="-3.6239830">
        <ele>537.6</ele>
        <time>2018-06-16T07:28:33Z</time>
      </trkpt>
      <trkpt lat="38.2664300" lon="-3.6240130">
        <ele>537.2</ele>
        <time>2018-06-16T07:28:34Z</time>
      </trkpt>
      <trkpt lat="38.2664740" lon="-3.6240450">
        <ele>537.2</ele>
        <time>2018-06-16T07:28:35Z</time>
      </trkpt>
      <trkpt lat="38.2665170" lon="-3.6240760">
        <ele>537.0</ele>
        <time>2018-06-16T07:28:36Z</time>
      </trkpt>
      <trkpt lat="38.2665610" lon="-3.6241050">
        <ele>537.0</ele>
        <time>2018-06-16T07:28:37Z</time>
      </trkpt>
      <trkpt lat="38.2666030" lon="-3.6241370">
        <ele>537.0</ele>
        <time>2018-06-16T07:28:38Z</time>
      </trkpt>
      <trkpt lat="38.2666450" lon="-3.6241730">
        <ele>537.0</ele>
        <time>2018-06-16T07:28:39Z</time>
      </trkpt>
      <trkpt lat="38.2666830" lon="-3.6242020">
        <ele>536.8</ele>
        <time>2018-06-16T07:28:40Z</time>
      </trkpt>
      <trkpt lat="38.2667240" lon="-3.6242300">
        <ele>536.8</ele>
        <time>2018-06-16T07:28:41Z</time>
      </trkpt>
      <trkpt lat="38.2667620" lon="-3.6242610">
        <ele>536.8</ele>
        <time>2018-06-16T07:28:42Z</time>
      </trkpt>
      <trkpt lat="38.2668020" lon="-3.6242850">
        <ele>536.6</ele>
        <time>2018-06-16T07:28:43Z</time>
      </trkpt>
      <trkpt lat="38.2668430" lon="-3.6243120">
        <ele>536.4</ele>
        <time>2018-06-16T07:28:44Z</time>
      </trkpt>
      <trkpt lat="38.2668860" lon="-3.6243400">
        <ele>536.4</ele>
        <time>2018-06-16T07:28:45Z</time>
      </trkpt>
      <trkpt lat="38.2669280" lon="-3.6243670">
        <ele>536.2</ele>
        <time>2018-06-16T07:28:46Z</time>
      </trkpt>
      <trkpt lat="38.2669690" lon="-3.6243980">
        <ele>536.2</ele>
        <time>2018-06-16T07:28:47Z</time>
      </trkpt>
      <trkpt lat="38.2670070" lon="-3.6244340">
        <ele>536.0</ele>
        <time>2018-06-16T07:28:48Z</time>
      </trkpt>
      <trkpt lat="38.2670520" lon="-3.6244690">
        <ele>536.2</ele>
        <time>2018-06-16T07:28:49Z</time>
      </trkpt>
      <trkpt lat="38.2670940" lon="-3.6245000">
        <ele>536.2</ele>
        <time>2018-06-16T07:28:50Z</time>
      </trkpt>
      <trkpt lat="38.2671350" lon="-3.6245310">
        <ele>536.2</ele>
        <time>2018-06-16T07:28:51Z</time>
      </trkpt>
      <trkpt lat="38.2671790" lon="-3.6245610">
        <ele>536.0</ele>
        <time>2018-06-16T07:28:52Z</time>
      </trkpt>
      <trkpt lat="38.2672220" lon="-3.6245890">
        <ele>536.0</ele>
        <time>2018-06-16T07:28:53Z</time>
      </trkpt>
      <trkpt lat="38.2672660" lon="-3.6246160">
        <ele>536.0</ele>
        <time>2018-06-16T07:28:54Z</time>
      </trkpt>
      <trkpt lat="38.2673060" lon="-3.6246430">
        <ele>536.0</ele>
        <time>2018-06-16T07:28:55Z</time>
      </trkpt>
      <trkpt lat="38.2673450" lon="-3.6246760">
        <ele>536.0</ele>
        <time>2018-06-16T07:28:56Z</time>
      </trkpt>
      <trkpt lat="38.2673850" lon="-3.6247090">
        <ele>536.0</ele>
        <time>2018-06-16T07:28:57Z</time>
      </trkpt>
      <trkpt lat="38.2674280" lon="-3.6247420">
        <ele>536.2</ele>
        <time>2018-06-16T07:28:58Z</time>
      </trkpt>
      <trkpt lat="38.2674620" lon="-3.6247650">
        <ele>536.4</ele>
        <time>2018-06-16T07:28:59Z</time>
      </trkpt>
      <trkpt lat="38.2674960" lon="-3.6247890">
        <ele>536.6</ele>
        <time>2018-06-16T07:29:00Z</time>
      </trkpt>
      <trkpt lat="38.2675320" lon="-3.6248170">
        <ele>536.8</ele>
        <time>2018-06-16T07:29:01Z</time>
      </trkpt>
      <trkpt lat="38.2675670" lon="-3.6248380">
        <ele>537.0</ele>
        <time>2018-06-16T07:29:02Z</time>
      </trkpt>
      <trkpt lat="38.2676020" lon="-3.6248630">
        <ele>537.4</ele>
        <time>2018-06-16T07:29:03Z</time>
      </trkpt>
      <trkpt lat="38.2676340" lon="-3.6248870">
        <ele>537.4</ele>
        <time>2018-06-16T07:29:04Z</time>
      </trkpt>
      <trkpt lat="38.2676650" lon="-3.6249030">
        <ele>537.4</ele>
        <time>2018-06-16T07:29:05Z</time>
      </trkpt>
      <trkpt lat="38.2676940" lon="-3.6249260">
        <ele>537.6</ele>
        <time>2018-06-16T07:29:06Z</time>
      </trkpt>
      <trkpt lat="38.2677250" lon="-3.6249510">
        <ele>537.6</ele>
        <time>2018-06-16T07:29:07Z</time>
      </trkpt>
      <trkpt lat="38.2677590" lon="-3.6249770">
        <ele>537.6</ele>
        <time>2018-06-16T07:29:08Z</time>
      </trkpt>
      <trkpt lat="38.2677900" lon="-3.6250030">
        <ele>537.8</ele>
        <time>2018-06-16T07:29:09Z</time>
      </trkpt>
      <trkpt lat="38.2678210" lon="-3.6250240">
        <ele>537.8</ele>
        <time>2018-06-16T07:29:10Z</time>
      </trkpt>
      <trkpt lat="38.2678540" lon="-3.6250460">
        <ele>537.8</ele>
        <time>2018-06-16T07:29:11Z</time>
      </trkpt>
      <trkpt lat="38.2678860" lon="-3.6250690">
        <ele>538.0</ele>
        <time>2018-06-16T07:29:12Z</time>
      </trkpt>
      <trkpt lat="38.2679180" lon="-3.6250930">
        <ele>538.2</ele>
        <time>2018-06-16T07:29:13Z</time>
      </trkpt>
      <trkpt lat="38.2679540" lon="-3.6251160">
        <ele>538.4</ele>
        <time>2018-06-16T07:29:14Z</time>
      </trkpt>
      <trkpt lat="38.2679880" lon="-3.6251410">
        <ele>538.4</ele>
        <time>2018-06-16T07:29:15Z</time>
      </trkpt>
      <trkpt lat="38.2680230" lon="-3.6251640">
        <ele>538.6</ele>
        <time>2018-06-16T07:29:16Z</time>
      </trkpt>
      <trkpt lat="38.2680570" lon="-3.6251880">
        <ele>538.6</ele>
        <time>2018-06-16T07:29:17Z</time>
      </trkpt>
      <trkpt lat="38.2680900" lon="-3.6252140">
        <ele>538.8</ele>
        <time>2018-06-16T07:29:18Z</time>
      </trkpt>
      <trkpt lat="38.2681230" lon="-3.6252400">
        <ele>538.8</ele>
        <time>2018-06-16T07:29:19Z</time>
      </trkpt>
      <trkpt lat="38.2681500" lon="-3.6252570">
        <ele>538.8</ele>
        <time>2018-06-16T07:29:20Z</time>
      </trkpt>
      <trkpt lat="38.2681800" lon="-3.6252770">
        <ele>539.0</ele>
        <time>2018-06-16T07:29:21Z</time>
      </trkpt>
      <trkpt lat="38.2682110" lon="-3.6252970">
        <ele>539.2</ele>
        <time>2018-06-16T07:29:22Z</time>
      </trkpt>
      <trkpt lat="38.2682380" lon="-3.6253170">
        <ele>539.4</ele>
        <time>2018-06-16T07:29:23Z</time>
      </trkpt>
      <trkpt lat="38.2682640" lon="-3.6253340">
        <ele>539.6</ele>
        <time>2018-06-16T07:29:24Z</time>
      </trkpt>
      <trkpt lat="38.2682940" lon="-3.6253520">
        <ele>539.8</ele>
        <time>2018-06-16T07:29:25Z</time>
      </trkpt>
      <trkpt lat="38.2683190" lon="-3.6253680">
        <ele>540.0</ele>
        <time>2018-06-16T07:29:26Z</time>
      </trkpt>
      <trkpt lat="38.2683430" lon="-3.6253890">
        <ele>540.2</ele>
        <time>2018-06-16T07:29:27Z</time>
      </trkpt>
      <trkpt lat="38.2683650" lon="-3.6254060">
        <ele>540.4</ele>
        <time>2018-06-16T07:29:28Z</time>
      </trkpt>
      <trkpt lat="38.2683870" lon="-3.6254220">
        <ele>540.6</ele>
        <time>2018-06-16T07:29:29Z</time>
      </trkpt>
      <trkpt lat="38.2684070" lon="-3.6254310">
        <ele>540.6</ele>
        <time>2018-06-16T07:29:30Z</time>
      </trkpt>
      <trkpt lat="38.2684250" lon="-3.6254400">
        <ele>540.6</ele>
        <time>2018-06-16T07:29:31Z</time>
      </trkpt>
      <trkpt lat="38.2684440" lon="-3.6254540">
        <ele>540.6</ele>
        <time>2018-06-16T07:29:32Z</time>
      </trkpt>
      <trkpt lat="38.2684650" lon="-3.6254650">
        <ele>540.6</ele>
        <time>2018-06-16T07:29:33Z</time>
      </trkpt>
      <trkpt lat="38.2684880" lon="-3.6254770">
        <ele>540.6</ele>
        <time>2018-06-16T07:29:34Z</time>
      </trkpt>
      <trkpt lat="38.2685080" lon="-3.6254910">
        <ele>540.6</ele>
        <time>2018-06-16T07:29:35Z</time>
      </trkpt>
      <trkpt lat="38.2685300" lon="-3.6255100">
        <ele>540.4</ele>
        <time>2018-06-16T07:29:36Z</time>
      </trkpt>
      <trkpt lat="38.2685510" lon="-3.6255250">
        <ele>540.4</ele>
        <time>2018-06-16T07:29:37Z</time>
      </trkpt>
      <trkpt lat="38.2685700" lon="-3.6255380">
        <ele>540.4</ele>
        <time>2018-06-16T07:29:38Z</time>
      </trkpt>
      <trkpt lat="38.2685870" lon="-3.6255500">
        <ele>540.4</ele>
        <time>2018-06-16T07:29:39Z</time>
      </trkpt>
      <trkpt lat="38.2686060" lon="-3.6255600">
        <ele>540.2</ele>
        <time>2018-06-16T07:29:40Z</time>
      </trkpt>
      <trkpt lat="38.2686210" lon="-3.6255690">
        <ele>540.2</ele>
        <time>2018-06-16T07:29:41Z</time>
      </trkpt>
      <trkpt lat="38.2686300" lon="-3.6255720">
        <ele>540.2</ele>
        <time>2018-06-16T07:29:42Z</time>
      </trkpt>
      <trkpt lat="38.2686320" lon="-3.6255730">
        <ele>540.2</ele>
        <time>2018-06-16T07:29:43Z</time>
      </trkpt>
      <trkpt lat="38.2686340" lon="-3.6255740">
        <ele>540.0</ele>
        <time>2018-06-16T07:29:44Z</time>
      </trkpt>
      <trkpt lat="38.2686360" lon="-3.6255740">
        <ele>540.2</ele>
        <time>2018-06-16T07:29:45Z</time>
      </trkpt>
      <trkpt lat="38.2686360" lon="-3.6255750">
        <ele>540.2</ele>
        <time>2018-06-16T07:29:46Z</time>
      </trkpt>
      <trkpt lat="38.2686360" lon="-3.6255760">
        <ele>540.2</ele>
        <time>2018-06-16T07:29:47Z</time>
      </trkpt>
      <trkpt lat="38.2686390" lon="-3.6255800">
        <ele>540.2</ele>
        <time>2018-06-16T07:29:48Z</time>
      </trkpt>
      <trkpt lat="38.2686410" lon="-3.6255820">
        <ele>540.2</ele>
        <time>2018-06-16T07:29:49Z</time>
      </trkpt>
      <trkpt lat="38.2686420" lon="-3.6255830">
        <ele>540.2</ele>
        <time>2018-06-16T07:29:50Z</time>
      </trkpt>
      <trkpt lat="38.2686430" lon="-3.6255830">
        <ele>540.2</ele>
        <time>2018-06-16T07:29:51Z</time>
      </trkpt>
      <trkpt lat="38.2686420" lon="-3.6255830">
        <ele>540.2</ele>
        <time>2018-06-16T07:29:52Z</time>
      </trkpt>
      <trkpt lat="38.2687060" lon="-3.6256750">
        <ele>540.0</ele>
        <time>2018-06-16T07:33:06Z</time>
      </trkpt>
      <trkpt lat="38.2687170" lon="-3.6256840">
        <ele>540.0</ele>
        <time>2018-06-16T07:33:07Z</time>
      </trkpt>
      <trkpt lat="38.2687290" lon="-3.6256920">
        <ele>539.8</ele>
        <time>2018-06-16T07:33:08Z</time>
      </trkpt>
      <trkpt lat="38.2687480" lon="-3.6257060">
        <ele>539.8</ele>
        <time>2018-06-16T07:33:09Z</time>
      </trkpt>
      <trkpt lat="38.2687780" lon="-3.6257270">
        <ele>539.8</ele>
        <time>2018-06-16T07:33:10Z</time>
      </trkpt>
      <trkpt lat="38.2687880" lon="-3.6257340">
        <ele>539.8</ele>
        <time>2018-06-16T07:33:11Z</time>
      </trkpt>
      <trkpt lat="38.2688250" lon="-3.6257620">
        <ele>539.6</ele>
        <time>2018-06-16T07:33:12Z</time>
      </trkpt>
      <trkpt lat="38.2688380" lon="-3.6257710">
        <ele>539.6</ele>
        <time>2018-06-16T07:33:13Z</time>
      </trkpt>
      <trkpt lat="38.2688660" lon="-3.6257890">
        <ele>539.4</ele>
        <time>2018-06-16T07:33:14Z</time>
      </trkpt>
      <trkpt lat="38.2688950" lon="-3.6258060">
        <ele>539.2</ele>
        <time>2018-06-16T07:33:15Z</time>
      </trkpt>
      <trkpt lat="38.2689250" lon="-3.6258270">
        <ele>539.2</ele>
        <time>2018-06-16T07:33:16Z</time>
      </trkpt>
      <trkpt lat="38.2689560" lon="-3.6258480">
        <ele>539.0</ele>
        <time>2018-06-16T07:33:17Z</time>
      </trkpt>
      <trkpt lat="38.2689880" lon="-3.6258710">
        <ele>538.8</ele>
        <time>2018-06-16T07:33:18Z</time>
      </trkpt>
      <trkpt lat="38.2690230" lon="-3.6258970">
        <ele>538.8</ele>
        <time>2018-06-16T07:33:19Z</time>
      </trkpt>
      <trkpt lat="38.2690570" lon="-3.6259240">
        <ele>538.8</ele>
        <time>2018-06-16T07:33:20Z</time>
      </trkpt>
      <trkpt lat="38.2690910" lon="-3.6259480">
        <ele>538.8</ele>
        <time>2018-06-16T07:33:21Z</time>
      </trkpt>
      <trkpt lat="38.2691250" lon="-3.6259730">
        <ele>539.0</ele>
        <time>2018-06-16T07:33:22Z</time>
      </trkpt>
      <trkpt lat="38.2691560" lon="-3.6259930">
        <ele>539.0</ele>
        <time>2018-06-16T07:33:23Z</time>
      </trkpt>
      <trkpt lat="38.2691870" lon="-3.6260120">
        <ele>539.2</ele>
        <time>2018-06-16T07:33:24Z</time>
      </trkpt>
      <trkpt lat="38.2692150" lon="-3.6260320">
        <ele>539.2</ele>
        <time>2018-06-16T07:33:25Z</time>
      </trkpt>
      <trkpt lat="38.2692420" lon="-3.6260510">
        <ele>539.2</ele>
        <time>2018-06-16T07:33:26Z</time>
      </trkpt>
      <trkpt lat="38.2692710" lon="-3.6260710">
        <ele>539.4</ele>
        <time>2018-06-16T07:33:27Z</time>
      </trkpt>
      <trkpt lat="38.2693020" lon="-3.6260940">
        <ele>539.4</ele>
        <time>2018-06-16T07:33:28Z</time>
      </trkpt>
      <trkpt lat="38.2693350" lon="-3.6261140">
        <ele>539.6</ele>
        <time>2018-06-16T07:33:29Z</time>
      </trkpt>
      <trkpt lat="38.2693670" lon="-3.6261350">
        <ele>539.8</ele>
        <time>2018-06-16T07:33:30Z</time>
      </trkpt>
      <trkpt lat="38.2694000" lon="-3.6261530">
        <ele>540.0</ele>
        <time>2018-06-16T07:33:31Z</time>
      </trkpt>
      <trkpt lat="38.2694310" lon="-3.6261720">
        <ele>540.2</ele>
        <time>2018-06-16T07:33:32Z</time>
      </trkpt>
      <trkpt lat="38.2694600" lon="-3.6261940">
        <ele>540.4</ele>
        <time>2018-06-16T07:33:33Z</time>
      </trkpt>
      <trkpt lat="38.2694860" lon="-3.6262110">
        <ele>540.8</ele>
        <time>2018-06-16T07:33:34Z</time>
      </trkpt>
      <trkpt lat="38.2695140" lon="-3.6262320">
        <ele>541.0</ele>
        <time>2018-06-16T07:33:35Z</time>
      </trkpt>
      <trkpt lat="38.2695280" lon="-3.6262370">
        <ele>541.2</ele>
        <time>2018-06-16T07:33:36Z</time>
      </trkpt>
      <trkpt lat="38.2695470" lon="-3.6262550">
        <ele>541.4</ele>
        <time>2018-06-16T07:33:37Z</time>
      </trkpt>
      <trkpt lat="38.2695680" lon="-3.6262650">
        <ele>541.6</ele>
        <time>2018-06-16T07:33:38Z</time>
      </trkpt>
      <trkpt lat="38.2695920" lon="-3.6262800">
        <ele>542.0</ele>
        <time>2018-06-16T07:33:39Z</time>
      </trkpt>
      <trkpt lat="38.2696160" lon="-3.6262940">
        <ele>542.2</ele>
        <time>2018-06-16T07:33:40Z</time>
      </trkpt>
      <trkpt lat="38.2696390" lon="-3.6263090">
        <ele>542.6</ele>
        <time>2018-06-16T07:33:41Z</time>
      </trkpt>
      <trkpt lat="38.2696600" lon="-3.6263270">
        <ele>542.8</ele>
        <time>2018-06-16T07:33:42Z</time>
      </trkpt>
      <trkpt lat="38.2696840" lon="-3.6263480">
        <ele>543.0</ele>
        <time>2018-06-16T07:33:43Z</time>
      </trkpt>
      <trkpt lat="38.2697070" lon="-3.6263660">
        <ele>543.2</ele>
        <time>2018-06-16T07:33:44Z</time>
      </trkpt>
      <trkpt lat="38.2697310" lon="-3.6263870">
        <ele>543.4</ele>
        <time>2018-06-16T07:33:45Z</time>
      </trkpt>
      <trkpt lat="38.2697540" lon="-3.6264080">
        <ele>543.6</ele>
        <time>2018-06-16T07:33:46Z</time>
      </trkpt>
      <trkpt lat="38.2697780" lon="-3.6264320">
        <ele>543.8</ele>
        <time>2018-06-16T07:33:47Z</time>
      </trkpt>
      <trkpt lat="38.2697970" lon="-3.6264500">
        <ele>544.0</ele>
        <time>2018-06-16T07:33:48Z</time>
      </trkpt>
      <trkpt lat="38.2698160" lon="-3.6264660">
        <ele>544.2</ele>
        <time>2018-06-16T07:33:49Z</time>
      </trkpt>
      <trkpt lat="38.2698360" lon="-3.6264780">
        <ele>544.2</ele>
        <time>2018-06-16T07:33:50Z</time>
      </trkpt>
      <trkpt lat="38.2698570" lon="-3.6264900">
        <ele>544.4</ele>
        <time>2018-06-16T07:33:51Z</time>
      </trkpt>
      <trkpt lat="38.2698750" lon="-3.6265050">
        <ele>544.6</ele>
        <time>2018-06-16T07:33:52Z</time>
      </trkpt>
      <trkpt lat="38.2698950" lon="-3.6265180">
        <ele>544.8</ele>
        <time>2018-06-16T07:33:53Z</time>
      </trkpt>
      <trkpt lat="38.2699120" lon="-3.6265290">
        <ele>545.0</ele>
        <time>2018-06-16T07:33:54Z</time>
      </trkpt>
      <trkpt lat="38.2699310" lon="-3.6265440">
        <ele>545.2</ele>
        <time>2018-06-16T07:33:55Z</time>
      </trkpt>
      <trkpt lat="38.2699500" lon="-3.6265570">
        <ele>545.4</ele>
        <time>2018-06-16T07:33:56Z</time>
      </trkpt>
      <trkpt lat="38.2699670" lon="-3.6265730">
        <ele>545.6</ele>
        <time>2018-06-16T07:33:57Z</time>
      </trkpt>
      <trkpt lat="38.2699900" lon="-3.6265990">
        <ele>545.8</ele>
        <time>2018-06-16T07:33:58Z</time>
      </trkpt>
      <trkpt lat="38.2700130" lon="-3.6266170">
        <ele>546.0</ele>
        <time>2018-06-16T07:33:59Z</time>
      </trkpt>
      <trkpt lat="38.2700370" lon="-3.6266320">
        <ele>546.2</ele>
        <time>2018-06-16T07:34:00Z</time>
      </trkpt>
      <trkpt lat="38.2700600" lon="-3.6266460">
        <ele>546.4</ele>
        <time>2018-06-16T07:34:01Z</time>
      </trkpt>
      <trkpt lat="38.2700810" lon="-3.6266600">
        <ele>546.6</ele>
        <time>2018-06-16T07:34:02Z</time>
      </trkpt>
      <trkpt lat="38.2701000" lon="-3.6266790">
        <ele>546.8</ele>
        <time>2018-06-16T07:34:03Z</time>
      </trkpt>
      <trkpt lat="38.2701190" lon="-3.6267000">
        <ele>547.0</ele>
        <time>2018-06-16T07:34:04Z</time>
      </trkpt>
      <trkpt lat="38.2701390" lon="-3.6267200">
        <ele>547.2</ele>
        <time>2018-06-16T07:34:05Z</time>
      </trkpt>
      <trkpt lat="38.2701590" lon="-3.6267390">
        <ele>547.4</ele>
        <time>2018-06-16T07:34:06Z</time>
      </trkpt>
      <trkpt lat="38.2701800" lon="-3.6267580">
        <ele>547.6</ele>
        <time>2018-06-16T07:34:07Z</time>
      </trkpt>
      <trkpt lat="38.2701940" lon="-3.6267750">
        <ele>547.8</ele>
        <time>2018-06-16T07:34:08Z</time>
      </trkpt>
      <trkpt lat="38.2702120" lon="-3.6267910">
        <ele>548.0</ele>
        <time>2018-06-16T07:34:09Z</time>
      </trkpt>
      <trkpt lat="38.2702320" lon="-3.6268090">
        <ele>548.2</ele>
        <time>2018-06-16T07:34:10Z</time>
      </trkpt>
      <trkpt lat="38.2702510" lon="-3.6268260">
        <ele>548.2</ele>
        <time>2018-06-16T07:34:11Z</time>
      </trkpt>
      <trkpt lat="38.2702730" lon="-3.6268460">
        <ele>548.6</ele>
        <time>2018-06-16T07:34:12Z</time>
      </trkpt>
      <trkpt lat="38.2702930" lon="-3.6268640">
        <ele>548.8</ele>
        <time>2018-06-16T07:34:13Z</time>
      </trkpt>
      <trkpt lat="38.2703120" lon="-3.6268820">
        <ele>549.0</ele>
        <time>2018-06-16T07:34:14Z</time>
      </trkpt>
      <trkpt lat="38.2703330" lon="-3.6269030">
        <ele>549.2</ele>
        <time>2018-06-16T07:34:15Z</time>
      </trkpt>
      <trkpt lat="38.2703530" lon="-3.6269230">
        <ele>549.4</ele>
        <time>2018-06-16T07:34:16Z</time>
      </trkpt>
      <trkpt lat="38.2703720" lon="-3.6269430">
        <ele>549.4</ele>
        <time>2018-06-16T07:34:17Z</time>
      </trkpt>
      <trkpt lat="38.2703910" lon="-3.6269630">
        <ele>549.8</ele>
        <time>2018-06-16T07:34:18Z</time>
      </trkpt>
      <trkpt lat="38.2704120" lon="-3.6269820">
        <ele>549.8</ele>
        <time>2018-06-16T07:34:19Z</time>
      </trkpt>
      <trkpt lat="38.2704310" lon="-3.6270020">
        <ele>550.0</ele>
        <time>2018-06-16T07:34:20Z</time>
      </trkpt>
      <trkpt lat="38.2704490" lon="-3.6270240">
        <ele>550.2</ele>
        <time>2018-06-16T07:34:21Z</time>
      </trkpt>
      <trkpt lat="38.2704690" lon="-3.6270460">
        <ele>550.4</ele>
        <time>2018-06-16T07:34:22Z</time>
      </trkpt>
      <trkpt lat="38.2704890" lon="-3.6270680">
        <ele>550.6</ele>
        <time>2018-06-16T07:34:23Z</time>
      </trkpt>
      <trkpt lat="38.2705100" lon="-3.6270920">
        <ele>550.8</ele>
        <time>2018-06-16T07:34:24Z</time>
      </trkpt>
      <trkpt lat="38.2705300" lon="-3.6271120">
        <ele>551.0</ele>
        <time>2018-06-16T07:34:25Z</time>
      </trkpt>
      <trkpt lat="38.2705500" lon="-3.6271320">
        <ele>551.0</ele>
        <time>2018-06-16T07:34:26Z</time>
      </trkpt>
      <trkpt lat="38.2705700" lon="-3.6271540">
        <ele>551.2</ele>
        <time>2018-06-16T07:34:27Z</time>
      </trkpt>
      <trkpt lat="38.2705890" lon="-3.6271760">
        <ele>551.4</ele>
        <time>2018-06-16T07:34:28Z</time>
      </trkpt>
      <trkpt lat="38.2706080" lon="-3.6271970">
        <ele>551.6</ele>
        <time>2018-06-16T07:34:29Z</time>
      </trkpt>
      <trkpt lat="38.2706280" lon="-3.6272180">
        <ele>551.6</ele>
        <time>2018-06-16T07:34:30Z</time>
      </trkpt>
      <trkpt lat="38.2706460" lon="-3.6272390">
        <ele>551.6</ele>
        <time>2018-06-16T07:34:31Z</time>
      </trkpt>
      <trkpt lat="38.2706650" lon="-3.6272620">
        <ele>551.8</ele>
        <time>2018-06-16T07:34:32Z</time>
      </trkpt>
      <trkpt lat="38.2706840" lon="-3.6272850">
        <ele>552.0</ele>
        <time>2018-06-16T07:34:33Z</time>
      </trkpt>
      <trkpt lat="38.2707020" lon="-3.6273090">
        <ele>552.2</ele>
        <time>2018-06-16T07:34:34Z</time>
      </trkpt>
      <trkpt lat="38.2707210" lon="-3.6273320">
        <ele>552.2</ele>
        <time>2018-06-16T07:34:35Z</time>
      </trkpt>
      <trkpt lat="38.2707390" lon="-3.6273550">
        <ele>552.4</ele>
        <time>2018-06-16T07:34:36Z</time>
      </trkpt>
      <trkpt lat="38.2707580" lon="-3.6273780">
        <ele>552.4</ele>
        <time>2018-06-16T07:34:37Z</time>
      </trkpt>
      <trkpt lat="38.2707760" lon="-3.6274010">
        <ele>552.6</ele>
        <time>2018-06-16T07:34:38Z</time>
      </trkpt>
      <trkpt lat="38.2707940" lon="-3.6274230">
        <ele>552.8</ele>
        <time>2018-06-16T07:34:39Z</time>
      </trkpt>
      <trkpt lat="38.2708130" lon="-3.6274460">
        <ele>552.8</ele>
        <time>2018-06-16T07:34:40Z</time>
      </trkpt>
      <trkpt lat="38.2708330" lon="-3.6274680">
        <ele>553.2</ele>
        <time>2018-06-16T07:34:41Z</time>
      </trkpt>
      <trkpt lat="38.2708510" lon="-3.6274900">
        <ele>553.2</ele>
        <time>2018-06-16T07:34:42Z</time>
      </trkpt>
      <trkpt lat="38.2708690" lon="-3.6275120">
        <ele>553.4</ele>
        <time>2018-06-16T07:34:43Z</time>
      </trkpt>
      <trkpt lat="38.2708860" lon="-3.6275370">
        <ele>553.6</ele>
        <time>2018-06-16T07:34:44Z</time>
      </trkpt>
      <trkpt lat="38.2709030" lon="-3.6275610">
        <ele>553.8</ele>
        <time>2018-06-16T07:34:45Z</time>
      </trkpt>
      <trkpt lat="38.2709220" lon="-3.6275830">
        <ele>553.8</ele>
        <time>2018-06-16T07:34:46Z</time>
      </trkpt>
      <trkpt lat="38.2709410" lon="-3.6276040">
        <ele>554.0</ele>
        <time>2018-06-16T07:34:47Z</time>
      </trkpt>
      <trkpt lat="38.2709600" lon="-3.6276260">
        <ele>554.2</ele>
        <time>2018-06-16T07:34:48Z</time>
      </trkpt>
      <trkpt lat="38.2709780" lon="-3.6276470">
        <ele>554.4</ele>
        <time>2018-06-16T07:34:49Z</time>
      </trkpt>
      <trkpt lat="38.2709960" lon="-3.6276700">
        <ele>554.6</ele>
        <time>2018-06-16T07:34:50Z</time>
      </trkpt>
      <trkpt lat="38.2710140" lon="-3.6276930">
        <ele>554.8</ele>
        <time>2018-06-16T07:34:51Z</time>
      </trkpt>
      <trkpt lat="38.2710330" lon="-3.6277140">
        <ele>554.8</ele>
        <time>2018-06-16T07:34:52Z</time>
      </trkpt>
      <trkpt lat="38.2710510" lon="-3.6277360">
        <ele>555.0</ele>
        <time>2018-06-16T07:34:53Z</time>
      </trkpt>
      <trkpt lat="38.2710700" lon="-3.6277590">
        <ele>555.2</ele>
        <time>2018-06-16T07:34:54Z</time>
      </trkpt>
      <trkpt lat="38.2710880" lon="-3.6277820">
        <ele>555.4</ele>
        <time>2018-06-16T07:34:55Z</time>
      </trkpt>
      <trkpt lat="38.2711060" lon="-3.6278050">
        <ele>555.4</ele>
        <time>2018-06-16T07:34:56Z</time>
      </trkpt>
      <trkpt lat="38.2711240" lon="-3.6278290">
        <ele>555.6</ele>
        <time>2018-06-16T07:34:57Z</time>
      </trkpt>
      <trkpt lat="38.2711410" lon="-3.6278520">
        <ele>555.8</ele>
        <time>2018-06-16T07:34:58Z</time>
      </trkpt>
      <trkpt lat="38.2711600" lon="-3.6278740">
        <ele>556.0</ele>
        <time>2018-06-16T07:34:59Z</time>
      </trkpt>
      <trkpt lat="38.2711880" lon="-3.6279070">
        <ele>556.0</ele>
        <time>2018-06-16T07:35:00Z</time>
      </trkpt>
      <trkpt lat="38.2711970" lon="-3.6279180">
        <ele>556.4</ele>
        <time>2018-06-16T07:35:01Z</time>
      </trkpt>
      <trkpt lat="38.2712260" lon="-3.6279480">
        <ele>556.4</ele>
        <time>2018-06-16T07:35:02Z</time>
      </trkpt>
      <trkpt lat="38.2712360" lon="-3.6279580">
        <ele>556.6</ele>
        <time>2018-06-16T07:35:03Z</time>
      </trkpt>
      <trkpt lat="38.2712550" lon="-3.6279780">
        <ele>556.6</ele>
        <time>2018-06-16T07:35:04Z</time>
      </trkpt>
      <trkpt lat="38.2712750" lon="-3.6279970">
        <ele>556.8</ele>
        <time>2018-06-16T07:35:05Z</time>
      </trkpt>
      <trkpt lat="38.2712940" lon="-3.6280160">
        <ele>557.0</ele>
        <time>2018-06-16T07:35:06Z</time>
      </trkpt>
      <trkpt lat="38.2713220" lon="-3.6280460">
        <ele>557.2</ele>
        <time>2018-06-16T07:35:07Z</time>
      </trkpt>
      <trkpt lat="38.2713320" lon="-3.6280570">
        <ele>557.2</ele>
        <time>2018-06-16T07:35:08Z</time>
      </trkpt>
      <trkpt lat="38.2713510" lon="-3.6280760">
        <ele>557.4</ele>
        <time>2018-06-16T07:35:09Z</time>
      </trkpt>
      <trkpt lat="38.2713710" lon="-3.6280940">
        <ele>557.6</ele>
        <time>2018-06-16T07:35:10Z</time>
      </trkpt>
      <trkpt lat="38.2713910" lon="-3.6281130">
        <ele>557.8</ele>
        <time>2018-06-16T07:35:11Z</time>
      </trkpt>
      <trkpt lat="38.2714100" lon="-3.6281340">
        <ele>558.0</ele>
        <time>2018-06-16T07:35:12Z</time>
      </trkpt>
      <trkpt lat="38.2714290" lon="-3.6281530">
        <ele>558.0</ele>
        <time>2018-06-16T07:35:13Z</time>
      </trkpt>
      <trkpt lat="38.2714490" lon="-3.6281710">
        <ele>558.2</ele>
        <time>2018-06-16T07:35:14Z</time>
      </trkpt>
      <trkpt lat="38.2714680" lon="-3.6281880">
        <ele>558.4</ele>
        <time>2018-06-16T07:35:15Z</time>
      </trkpt>
      <trkpt lat="38.2714870" lon="-3.6282070">
        <ele>558.6</ele>
        <time>2018-06-16T07:35:16Z</time>
      </trkpt>
      <trkpt lat="38.2715070" lon="-3.6282230">
        <ele>558.8</ele>
        <time>2018-06-16T07:35:17Z</time>
      </trkpt>
      <trkpt lat="38.2715280" lon="-3.6282370">
        <ele>558.8</ele>
        <time>2018-06-16T07:35:18Z</time>
      </trkpt>
      <trkpt lat="38.2715490" lon="-3.6282490">
        <ele>559.0</ele>
        <time>2018-06-16T07:35:19Z</time>
      </trkpt>
      <trkpt lat="38.2715710" lon="-3.6282620">
        <ele>559.2</ele>
        <time>2018-06-16T07:35:20Z</time>
      </trkpt>
      <trkpt lat="38.2716040" lon="-3.6282840">
        <ele>559.4</ele>
        <time>2018-06-16T07:35:21Z</time>
      </trkpt>
      <trkpt lat="38.2716140" lon="-3.6282920">
        <ele>559.6</ele>
        <time>2018-06-16T07:35:22Z</time>
      </trkpt>
      <trkpt lat="38.2716360" lon="-3.6283050">
        <ele>559.8</ele>
        <time>2018-06-16T07:35:23Z</time>
      </trkpt>
      <trkpt lat="38.2716590" lon="-3.6283180">
        <ele>560.0</ele>
        <time>2018-06-16T07:35:24Z</time>
      </trkpt>
      <trkpt lat="38.2716820" lon="-3.6283310">
        <ele>560.2</ele>
        <time>2018-06-16T07:35:25Z</time>
      </trkpt>
      <trkpt lat="38.2717040" lon="-3.6283430">
        <ele>560.4</ele>
        <time>2018-06-16T07:35:26Z</time>
      </trkpt>
      <trkpt lat="38.2717270" lon="-3.6283550">
        <ele>560.6</ele>
        <time>2018-06-16T07:35:27Z</time>
      </trkpt>
      <trkpt lat="38.2717500" lon="-3.6283690">
        <ele>560.8</ele>
        <time>2018-06-16T07:35:28Z</time>
      </trkpt>
      <trkpt lat="38.2717730" lon="-3.6283830">
        <ele>561.0</ele>
        <time>2018-06-16T07:35:29Z</time>
      </trkpt>
      <trkpt lat="38.2717940" lon="-3.6283970">
        <ele>561.2</ele>
        <time>2018-06-16T07:35:30Z</time>
      </trkpt>
      <trkpt lat="38.2718170" lon="-3.6284100">
        <ele>561.4</ele>
        <time>2018-06-16T07:35:31Z</time>
      </trkpt>
      <trkpt lat="38.2718400" lon="-3.6284210">
        <ele>561.6</ele>
        <time>2018-06-16T07:35:32Z</time>
      </trkpt>
      <trkpt lat="38.2718630" lon="-3.6284340">
        <ele>561.8</ele>
        <time>2018-06-16T07:35:33Z</time>
      </trkpt>
      <trkpt lat="38.2718840" lon="-3.6284460">
        <ele>562.0</ele>
        <time>2018-06-16T07:35:34Z</time>
      </trkpt>
      <trkpt lat="38.2719070" lon="-3.6284560">
        <ele>562.4</ele>
        <time>2018-06-16T07:35:35Z</time>
      </trkpt>
      <trkpt lat="38.2719300" lon="-3.6284650">
        <ele>562.6</ele>
        <time>2018-06-16T07:35:36Z</time>
      </trkpt>
      <trkpt lat="38.2719520" lon="-3.6284750">
        <ele>562.8</ele>
        <time>2018-06-16T07:35:37Z</time>
      </trkpt>
      <trkpt lat="38.2719740" lon="-3.6284840">
        <ele>563.0</ele>
        <time>2018-06-16T07:35:38Z</time>
      </trkpt>
      <trkpt lat="38.2719970" lon="-3.6284930">
        <ele>563.2</ele>
        <time>2018-06-16T07:35:39Z</time>
      </trkpt>
      <trkpt lat="38.2720190" lon="-3.6285030">
        <ele>563.6</ele>
        <time>2018-06-16T07:35:40Z</time>
      </trkpt>
      <trkpt lat="38.2720420" lon="-3.6285130">
        <ele>563.8</ele>
        <time>2018-06-16T07:35:41Z</time>
      </trkpt>
      <trkpt lat="38.2720650" lon="-3.6285230">
        <ele>564.0</ele>
        <time>2018-06-16T07:35:42Z</time>
      </trkpt>
      <trkpt lat="38.2720880" lon="-3.6285320">
        <ele>564.2</ele>
        <time>2018-06-16T07:35:43Z</time>
      </trkpt>
      <trkpt lat="38.2721110" lon="-3.6285410">
        <ele>564.6</ele>
        <time>2018-06-16T07:35:44Z</time>
      </trkpt>
      <trkpt lat="38.2721450" lon="-3.6285560">
        <ele>564.8</ele>
        <time>2018-06-16T07:35:45Z</time>
      </trkpt>
      <trkpt lat="38.2721550" lon="-3.6285620">
        <ele>565.0</ele>
        <time>2018-06-16T07:35:46Z</time>
      </trkpt>
      <trkpt lat="38.2721740" lon="-3.6285710">
        <ele>565.2</ele>
        <time>2018-06-16T07:35:47Z</time>
      </trkpt>
      <trkpt lat="38.2721970" lon="-3.6285770">
        <ele>565.6</ele>
        <time>2018-06-16T07:35:48Z</time>
      </trkpt>
      <trkpt lat="38.2722200" lon="-3.6285810">
        <ele>565.8</ele>
        <time>2018-06-16T07:35:49Z</time>
      </trkpt>
      <trkpt lat="38.2722440" lon="-3.6285880">
        <ele>566.0</ele>
        <time>2018-06-16T07:35:50Z</time>
      </trkpt>
      <trkpt lat="38.2722680" lon="-3.6285960">
        <ele>566.2</ele>
        <time>2018-06-16T07:35:51Z</time>
      </trkpt>
      <trkpt lat="38.2722910" lon="-3.6286040">
        <ele>566.6</ele>
        <time>2018-06-16T07:35:52Z</time>
      </trkpt>
      <trkpt lat="38.2723140" lon="-3.6286100">
        <ele>566.8</ele>
        <time>2018-06-16T07:35:53Z</time>
      </trkpt>
      <trkpt lat="38.2723380" lon="-3.6286170">
        <ele>567.0</ele>
        <time>2018-06-16T07:35:54Z</time>
      </trkpt>
      <trkpt lat="38.2723610" lon="-3.6286250">
        <ele>567.2</ele>
        <time>2018-06-16T07:35:55Z</time>
      </trkpt>
      <trkpt lat="38.2723860" lon="-3.6286300">
        <ele>567.4</ele>
        <time>2018-06-16T07:35:56Z</time>
      </trkpt>
      <trkpt lat="38.2724100" lon="-3.6286340">
        <ele>567.6</ele>
        <time>2018-06-16T07:35:57Z</time>
      </trkpt>
      <trkpt lat="38.2724340" lon="-3.6286390">
        <ele>567.8</ele>
        <time>2018-06-16T07:35:58Z</time>
      </trkpt>
      <trkpt lat="38.2724580" lon="-3.6286430">
        <ele>567.8</ele>
        <time>2018-06-16T07:35:59Z</time>
      </trkpt>
      <trkpt lat="38.2724830" lon="-3.6286460">
        <ele>568.0</ele>
        <time>2018-06-16T07:36:00Z</time>
      </trkpt>
      <trkpt lat="38.2725070" lon="-3.6286450">
        <ele>568.2</ele>
        <time>2018-06-16T07:36:01Z</time>
      </trkpt>
      <trkpt lat="38.2725310" lon="-3.6286460">
        <ele>568.4</ele>
        <time>2018-06-16T07:36:02Z</time>
      </trkpt>
      <trkpt lat="38.2725550" lon="-3.6286490">
        <ele>568.6</ele>
        <time>2018-06-16T07:36:03Z</time>
      </trkpt>
      <trkpt lat="38.2725800" lon="-3.6286510">
        <ele>568.6</ele>
        <time>2018-06-16T07:36:04Z</time>
      </trkpt>
      <trkpt lat="38.2726050" lon="-3.6286540">
        <ele>568.8</ele>
        <time>2018-06-16T07:36:05Z</time>
      </trkpt>
      <trkpt lat="38.2726300" lon="-3.6286560">
        <ele>569.0</ele>
        <time>2018-06-16T07:36:06Z</time>
      </trkpt>
      <trkpt lat="38.2726550" lon="-3.6286600">
        <ele>569.0</ele>
        <time>2018-06-16T07:36:07Z</time>
      </trkpt>
      <trkpt lat="38.2726790" lon="-3.6286680">
        <ele>569.2</ele>
        <time>2018-06-16T07:36:08Z</time>
      </trkpt>
      <trkpt lat="38.2727030" lon="-3.6286750">
        <ele>569.4</ele>
        <time>2018-06-16T07:36:09Z</time>
      </trkpt>
      <trkpt lat="38.2727280" lon="-3.6286780">
        <ele>569.4</ele>
        <time>2018-06-16T07:36:10Z</time>
      </trkpt>
      <trkpt lat="38.2727540" lon="-3.6286800">
        <ele>569.6</ele>
        <time>2018-06-16T07:36:11Z</time>
      </trkpt>
      <trkpt lat="38.2727800" lon="-3.6286850">
        <ele>569.6</ele>
        <time>2018-06-16T07:36:12Z</time>
      </trkpt>
      <trkpt lat="38.2728060" lon="-3.6286890">
        <ele>569.8</ele>
        <time>2018-06-16T07:36:13Z</time>
      </trkpt>
      <trkpt lat="38.2728320" lon="-3.6286940">
        <ele>569.8</ele>
        <time>2018-06-16T07:36:14Z</time>
      </trkpt>
      <trkpt lat="38.2728570" lon="-3.6286980">
        <ele>570.0</ele>
        <time>2018-06-16T07:36:15Z</time>
      </trkpt>
      <trkpt lat="38.2728820" lon="-3.6287020">
        <ele>570.0</ele>
        <time>2018-06-16T07:36:16Z</time>
      </trkpt>
      <trkpt lat="38.2729090" lon="-3.6287050">
        <ele>570.0</ele>
        <time>2018-06-16T07:36:17Z</time>
      </trkpt>
      <trkpt lat="38.2729500" lon="-3.6287070">
        <ele>570.2</ele>
        <time>2018-06-16T07:36:18Z</time>
      </trkpt>
      <trkpt lat="38.2729640" lon="-3.6287070">
        <ele>570.2</ele>
        <time>2018-06-16T07:36:19Z</time>
      </trkpt>
      <trkpt lat="38.2729940" lon="-3.6287080">
        <ele>570.2</ele>
        <time>2018-06-16T07:36:20Z</time>
      </trkpt>
      <trkpt lat="38.2730280" lon="-3.6287110">
        <ele>570.2</ele>
        <time>2018-06-16T07:36:21Z</time>
      </trkpt>
      <trkpt lat="38.2730620" lon="-3.6287140">
        <ele>570.2</ele>
        <time>2018-06-16T07:36:22Z</time>
      </trkpt>
      <trkpt lat="38.2730980" lon="-3.6287180">
        <ele>570.2</ele>
        <time>2018-06-16T07:36:23Z</time>
      </trkpt>
      <trkpt lat="38.2731360" lon="-3.6287230">
        <ele>570.2</ele>
        <time>2018-06-16T07:36:24Z</time>
      </trkpt>
      <trkpt lat="38.2731770" lon="-3.6287300">
        <ele>570.2</ele>
        <time>2018-06-16T07:36:25Z</time>
      </trkpt>
      <trkpt lat="38.2732190" lon="-3.6287320">
        <ele>570.0</ele>
        <time>2018-06-16T07:36:26Z</time>
      </trkpt>
      <trkpt lat="38.2732890" lon="-3.6287290">
        <ele>570.0</ele>
        <time>2018-06-16T07:36:27Z</time>
      </trkpt>
      <trkpt lat="38.2733120" lon="-3.6287260">
        <ele>570.0</ele>
        <time>2018-06-16T07:36:28Z</time>
      </trkpt>
      <trkpt lat="38.2733620" lon="-3.6287260">
        <ele>570.0</ele>
        <time>2018-06-16T07:36:29Z</time>
      </trkpt>
      <trkpt lat="38.2734130" lon="-3.6287310">
        <ele>569.8</ele>
        <time>2018-06-16T07:36:30Z</time>
      </trkpt>
      <trkpt lat="38.2734660" lon="-3.6287380">
        <ele>569.6</ele>
        <time>2018-06-16T07:36:31Z</time>
      </trkpt>
      <trkpt lat="38.2735220" lon="-3.6287500">
        <ele>569.4</ele>
        <time>2018-06-16T07:36:32Z</time>
      </trkpt>
      <trkpt lat="38.2735810" lon="-3.6287720">
        <ele>569.0</ele>
        <time>2018-06-16T07:36:33Z</time>
      </trkpt>
      <trkpt lat="38.2736410" lon="-3.6288080">
        <ele>568.4</ele>
        <time>2018-06-16T07:36:34Z</time>
      </trkpt>
      <trkpt lat="38.2737000" lon="-3.6288610">
        <ele>567.6</ele>
        <time>2018-06-16T07:36:35Z</time>
      </trkpt>
      <trkpt lat="38.2737570" lon="-3.6289310">
        <ele>566.8</ele>
        <time>2018-06-16T07:36:36Z</time>
      </trkpt>
      <trkpt lat="38.2738150" lon="-3.6290170">
        <ele>565.8</ele>
        <time>2018-06-16T07:36:37Z</time>
      </trkpt>
      <trkpt lat="38.2738720" lon="-3.6291150">
        <ele>564.8</ele>
        <time>2018-06-16T07:36:38Z</time>
      </trkpt>
      <trkpt lat="38.2739340" lon="-3.6292170">
        <ele>563.8</ele>
        <time>2018-06-16T07:36:39Z</time>
      </trkpt>
      <trkpt lat="38.2740010" lon="-3.6293190">
        <ele>563.0</ele>
        <time>2018-06-16T07:36:40Z</time>
      </trkpt>
      <trkpt lat="38.2740740" lon="-3.6294180">
        <ele>562.8</ele>
        <time>2018-06-16T07:36:41Z</time>
      </trkpt>
      <trkpt lat="38.2741510" lon="-3.6295130">
        <ele>562.8</ele>
        <time>2018-06-16T07:36:42Z</time>
      </trkpt>
      <trkpt lat="38.2742270" lon="-3.6296020">
        <ele>562.8</ele>
        <time>2018-06-16T07:36:43Z</time>
      </trkpt>
      <trkpt lat="38.2743050" lon="-3.6296890">
        <ele>562.6</ele>
        <time>2018-06-16T07:36:44Z</time>
      </trkpt>
      <trkpt lat="38.2743870" lon="-3.6297720">
        <ele>562.2</ele>
        <time>2018-06-16T07:36:45Z</time>
      </trkpt>
      <trkpt lat="38.2744740" lon="-3.6298470">
        <ele>562.2</ele>
        <time>2018-06-16T07:36:46Z</time>
      </trkpt>
      <trkpt lat="38.2745640" lon="-3.6299090">
        <ele>562.2</ele>
        <time>2018-06-16T07:36:47Z</time>
      </trkpt>
      <trkpt lat="38.2746540" lon="-3.6299610">
        <ele>562.8</ele>
        <time>2018-06-16T07:36:48Z</time>
      </trkpt>
      <trkpt lat="38.2747400" lon="-3.6300080">
        <ele>563.2</ele>
        <time>2018-06-16T07:36:49Z</time>
      </trkpt>
      <trkpt lat="38.2748200" lon="-3.6300600">
        <ele>564.0</ele>
        <time>2018-06-16T07:36:50Z</time>
      </trkpt>
      <trkpt lat="38.2748920" lon="-3.6301150">
        <ele>564.4</ele>
        <time>2018-06-16T07:36:51Z</time>
      </trkpt>
      <trkpt lat="38.2749570" lon="-3.6301750">
        <ele>564.6</ele>
        <time>2018-06-16T07:36:52Z</time>
      </trkpt>
      <trkpt lat="38.2750090" lon="-3.6302440">
        <ele>565.0</ele>
        <time>2018-06-16T07:36:53Z</time>
      </trkpt>
      <trkpt lat="38.2750470" lon="-3.6303260">
        <ele>564.8</ele>
        <time>2018-06-16T07:36:54Z</time>
      </trkpt>
      <trkpt lat="38.2750650" lon="-3.6304210">
        <ele>564.4</ele>
        <time>2018-06-16T07:36:55Z</time>
      </trkpt>
      <trkpt lat="38.2750660" lon="-3.6305260">
        <ele>564.0</ele>
        <time>2018-06-16T07:36:56Z</time>
      </trkpt>
      <trkpt lat="38.2750610" lon="-3.6306380">
        <ele>563.0</ele>
        <time>2018-06-16T07:36:57Z</time>
      </trkpt>
      <trkpt lat="38.2750580" lon="-3.6307610">
        <ele>562.4</ele>
        <time>2018-06-16T07:36:58Z</time>
      </trkpt>
      <trkpt lat="38.2750540" lon="-3.6308830">
        <ele>561.6</ele>
        <time>2018-06-16T07:36:59Z</time>
      </trkpt>
      <trkpt lat="38.2750580" lon="-3.6310110">
        <ele>561.0</ele>
        <time>2018-06-16T07:37:00Z</time>
      </trkpt>
      <trkpt lat="38.2750700" lon="-3.6311430">
        <ele>560.4</ele>
        <time>2018-06-16T07:37:01Z</time>
      </trkpt>
      <trkpt lat="38.2750940" lon="-3.6312750">
        <ele>559.2</ele>
        <time>2018-06-16T07:37:02Z</time>
      </trkpt>
      <trkpt lat="38.2751370" lon="-3.6314020">
        <ele>558.4</ele>
        <time>2018-06-16T07:37:03Z</time>
      </trkpt>
      <trkpt lat="38.2751980" lon="-3.6315190">
        <ele>558.2</ele>
        <time>2018-06-16T07:37:04Z</time>
      </trkpt>
      <trkpt lat="38.2752740" lon="-3.6316210">
        <ele>558.2</ele>
        <time>2018-06-16T07:37:05Z</time>
      </trkpt>
      <trkpt lat="38.2753590" lon="-3.6317100">
        <ele>558.2</ele>
        <time>2018-06-16T07:37:06Z</time>
      </trkpt>
      <trkpt lat="38.2754470" lon="-3.6317920">
        <ele>558.0</ele>
        <time>2018-06-16T07:37:07Z</time>
      </trkpt>
      <trkpt lat="38.2755390" lon="-3.6318670">
        <ele>557.4</ele>
        <time>2018-06-16T07:37:08Z</time>
      </trkpt>
      <trkpt lat="38.2756330" lon="-3.6319410">
        <ele>556.8</ele>
        <time>2018-06-16T07:37:09Z</time>
      </trkpt>
      <trkpt lat="38.2757260" lon="-3.6320180">
        <ele>556.8</ele>
        <time>2018-06-16T07:37:10Z</time>
      </trkpt>
      <trkpt lat="38.2758180" lon="-3.6320970">
        <ele>556.6</ele>
        <time>2018-06-16T07:37:11Z</time>
      </trkpt>
      <trkpt lat="38.2759060" lon="-3.6321790">
        <ele>556.4</ele>
        <time>2018-06-16T07:37:12Z</time>
      </trkpt>
      <trkpt lat="38.2759880" lon="-3.6322680">
        <ele>556.4</ele>
        <time>2018-06-16T07:37:13Z</time>
      </trkpt>
      <trkpt lat="38.2760600" lon="-3.6323640">
        <ele>557.0</ele>
        <time>2018-06-16T07:37:14Z</time>
      </trkpt>
      <trkpt lat="38.2761200" lon="-3.6324610">
        <ele>557.8</ele>
        <time>2018-06-16T07:37:15Z</time>
      </trkpt>
      <trkpt lat="38.2761700" lon="-3.6325560">
        <ele>558.6</ele>
        <time>2018-06-16T07:37:16Z</time>
      </trkpt>
      <trkpt lat="38.2762170" lon="-3.6326450">
        <ele>559.4</ele>
        <time>2018-06-16T07:37:17Z</time>
      </trkpt>
      <trkpt lat="38.2762610" lon="-3.6327260">
        <ele>559.8</ele>
        <time>2018-06-16T07:37:18Z</time>
      </trkpt>
      <trkpt lat="38.2763060" lon="-3.6328020">
        <ele>560.6</ele>
        <time>2018-06-16T07:37:19Z</time>
      </trkpt>
      <trkpt lat="38.2763510" lon="-3.6328700">
        <ele>560.8</ele>
        <time>2018-06-16T07:37:20Z</time>
      </trkpt>
      <trkpt lat="38.2763990" lon="-3.6329320">
        <ele>561.0</ele>
        <time>2018-06-16T07:37:21Z</time>
      </trkpt>
      <trkpt lat="38.2764800" lon="-3.6330150">
        <ele>561.2</ele>
        <time>2018-06-16T07:37:22Z</time>
      </trkpt>
      <trkpt lat="38.2765080" lon="-3.6330410">
        <ele>561.2</ele>
        <time>2018-06-16T07:37:23Z</time>
      </trkpt>
      <trkpt lat="38.2766250" lon="-3.6331380">
        <ele>560.8</ele>
        <time>2018-06-16T07:37:24Z</time>
      </trkpt>
      <trkpt lat="38.2766850" lon="-3.6331840">
        <ele>560.8</ele>
        <time>2018-06-16T07:37:25Z</time>
      </trkpt>
      <trkpt lat="38.2767460" lon="-3.6332300">
        <ele>560.6</ele>
        <time>2018-06-16T07:37:26Z</time>
      </trkpt>
      <trkpt lat="38.2768060" lon="-3.6332760">
        <ele>560.2</ele>
        <time>2018-06-16T07:37:27Z</time>
      </trkpt>
      <trkpt lat="38.2768660" lon="-3.6333220">
        <ele>559.8</ele>
        <time>2018-06-16T07:37:28Z</time>
      </trkpt>
      <trkpt lat="38.2769740" lon="-3.6334050">
        <ele>559.0</ele>
        <time>2018-06-16T07:37:29Z</time>
      </trkpt>
      <trkpt lat="38.2770550" lon="-3.6334640">
        <ele>558.2</ele>
        <time>2018-06-16T07:37:30Z</time>
      </trkpt>
      <trkpt lat="38.2771390" lon="-3.6335210">
        <ele>557.6</ele>
        <time>2018-06-16T07:37:31Z</time>
      </trkpt>
      <trkpt lat="38.2772250" lon="-3.6335790">
        <ele>557.0</ele>
        <time>2018-06-16T07:37:32Z</time>
      </trkpt>
      <trkpt lat="38.2773120" lon="-3.6336400">
        <ele>556.8</ele>
        <time>2018-06-16T07:37:33Z</time>
      </trkpt>
      <trkpt lat="38.2773980" lon="-3.6336990">
        <ele>555.8</ele>
        <time>2018-06-16T07:37:34Z</time>
      </trkpt>
      <trkpt lat="38.2774780" lon="-3.6337670">
        <ele>555.2</ele>
        <time>2018-06-16T07:37:35Z</time>
      </trkpt>
      <trkpt lat="38.2775510" lon="-3.6338500">
        <ele>554.6</ele>
        <time>2018-06-16T07:37:36Z</time>
      </trkpt>
      <trkpt lat="38.2775510" lon="-3.6338500">
        <ele>554.0</ele>
        <time>2018-06-16T07:37:37Z</time>
      </trkpt>
      <trkpt lat="38.2776230" lon="-3.6339450">
        <ele>552.8</ele>
        <time>2018-06-16T07:37:38Z</time>
      </trkpt>
      <trkpt lat="38.2776900" lon="-3.6340460">
        <ele>552.2</ele>
        <time>2018-06-16T07:37:39Z</time>
      </trkpt>
      <trkpt lat="38.2777510" lon="-3.6341510">
        <ele>551.0</ele>
        <time>2018-06-16T07:37:40Z</time>
      </trkpt>
      <trkpt lat="38.2778110" lon="-3.6342610">
        <ele>550.0</ele>
        <time>2018-06-16T07:37:41Z</time>
      </trkpt>
      <trkpt lat="38.2778730" lon="-3.6343710">
        <ele>550.2</ele>
        <time>2018-06-16T07:37:42Z</time>
      </trkpt>
      <trkpt lat="38.2779380" lon="-3.6344800">
        <ele>549.2</ele>
        <time>2018-06-16T07:37:43Z</time>
      </trkpt>
      <trkpt lat="38.2780020" lon="-3.6345950">
        <ele>548.2</ele>
        <time>2018-06-16T07:37:44Z</time>
      </trkpt>
      <trkpt lat="38.2780590" lon="-3.6347200">
        <ele>546.6</ele>
        <time>2018-06-16T07:37:45Z</time>
      </trkpt>
      <trkpt lat="38.2781120" lon="-3.6348550">
        <ele>544.6</ele>
        <time>2018-06-16T07:37:46Z</time>
      </trkpt>
      <trkpt lat="38.2781640" lon="-3.6350000">
        <ele>543.4</ele>
        <time>2018-06-16T07:37:47Z</time>
      </trkpt>
      <trkpt lat="38.2782130" lon="-3.6351510">
        <ele>541.8</ele>
        <time>2018-06-16T07:37:48Z</time>
      </trkpt>
      <trkpt lat="38.2782650" lon="-3.6353090">
        <ele>540.8</ele>
        <time>2018-06-16T07:37:49Z</time>
      </trkpt>
      <trkpt lat="38.2783180" lon="-3.6354700">
        <ele>539.4</ele>
        <time>2018-06-16T07:37:50Z</time>
      </trkpt>
      <trkpt lat="38.2784280" lon="-3.6358060">
        <ele>538.0</ele>
        <time>2018-06-16T07:37:51Z</time>
      </trkpt>
      <trkpt lat="38.2784880" lon="-3.6359800">
        <ele>537.0</ele>
        <time>2018-06-16T07:37:52Z</time>
      </trkpt>
      <trkpt lat="38.2785470" lon="-3.6361550">
        <ele>536.0</ele>
        <time>2018-06-16T07:37:53Z</time>
      </trkpt>
      <trkpt lat="38.2785470" lon="-3.6361550">
        <ele>534.8</ele>
        <time>2018-06-16T07:37:54Z</time>
      </trkpt>
      <trkpt lat="38.2786050" lon="-3.6363360">
        <ele>533.8</ele>
        <time>2018-06-16T07:37:55Z</time>
      </trkpt>
      <trkpt lat="38.2786630" lon="-3.6365160">
        <ele>533.0</ele>
        <time>2018-06-16T07:37:56Z</time>
      </trkpt>
      <trkpt lat="38.2787220" lon="-3.6366880">
        <ele>533.2</ele>
        <time>2018-06-16T07:37:57Z</time>
      </trkpt>
      <trkpt lat="38.2787770" lon="-3.6368410">
        <ele>533.2</ele>
        <time>2018-06-16T07:37:58Z</time>
      </trkpt>
      <trkpt lat="38.2788330" lon="-3.6369760">
        <ele>533.8</ele>
        <time>2018-06-16T07:37:59Z</time>
      </trkpt>
      <trkpt lat="38.2788950" lon="-3.6370940">
        <ele>535.0</ele>
        <time>2018-06-16T07:38:00Z</time>
      </trkpt>
      <trkpt lat="38.2789600" lon="-3.6371830">
        <ele>535.0</ele>
        <time>2018-06-16T07:38:01Z</time>
      </trkpt>
      <trkpt lat="38.2790370" lon="-3.6372490">
        <ele>534.4</ele>
        <time>2018-06-16T07:38:02Z</time>
      </trkpt>
      <trkpt lat="38.2791270" lon="-3.6372990">
        <ele>533.6</ele>
        <time>2018-06-16T07:38:03Z</time>
      </trkpt>
      <trkpt lat="38.2792270" lon="-3.6373420">
        <ele>532.6</ele>
        <time>2018-06-16T07:38:04Z</time>
      </trkpt>
      <trkpt lat="38.2793350" lon="-3.6373810">
        <ele>531.4</ele>
        <time>2018-06-16T07:38:05Z</time>
      </trkpt>
      <trkpt lat="38.2794460" lon="-3.6374220">
        <ele>530.8</ele>
        <time>2018-06-16T07:38:06Z</time>
      </trkpt>
      <trkpt lat="38.2795530" lon="-3.6374870">
        <ele>530.0</ele>
        <time>2018-06-16T07:38:07Z</time>
      </trkpt>
      <trkpt lat="38.2796590" lon="-3.6375520">
        <ele>529.0</ele>
        <time>2018-06-16T07:38:08Z</time>
      </trkpt>
      <trkpt lat="38.2797430" lon="-3.6376620">
        <ele>528.4</ele>
        <time>2018-06-16T07:38:09Z</time>
      </trkpt>
      <trkpt lat="38.2797990" lon="-3.6377990">
        <ele>528.0</ele>
        <time>2018-06-16T07:38:10Z</time>
      </trkpt>
      <trkpt lat="38.2798300" lon="-3.6379520">
        <ele>527.6</ele>
        <time>2018-06-16T07:38:11Z</time>
      </trkpt>
      <trkpt lat="38.2798380" lon="-3.6381090">
        <ele>527.4</ele>
        <time>2018-06-16T07:38:12Z</time>
      </trkpt>
      <trkpt lat="38.2798330" lon="-3.6382670">
        <ele>527.4</ele>
        <time>2018-06-16T07:38:13Z</time>
      </trkpt>
      <trkpt lat="38.2798100" lon="-3.6385690">
        <ele>528.2</ele>
        <time>2018-06-16T07:38:14Z</time>
      </trkpt>
      <trkpt lat="38.2798100" lon="-3.6385690">
        <ele>529.0</ele>
        <time>2018-06-16T07:38:15Z</time>
      </trkpt>
      <trkpt lat="38.2797860" lon="-3.6388480">
        <ele>529.8</ele>
        <time>2018-06-16T07:38:16Z</time>
      </trkpt>
      <trkpt lat="38.2797770" lon="-3.6389750">
        <ele>531.0</ele>
        <time>2018-06-16T07:38:17Z</time>
      </trkpt>
      <trkpt lat="38.2797770" lon="-3.6389750">
        <ele>531.8</ele>
        <time>2018-06-16T07:38:18Z</time>
      </trkpt>
      <trkpt lat="38.2797700" lon="-3.6390920">
        <ele>532.4</ele>
        <time>2018-06-16T07:38:19Z</time>
      </trkpt>
      <trkpt lat="38.2797640" lon="-3.6392030">
        <ele>532.6</ele>
        <time>2018-06-16T07:38:20Z</time>
      </trkpt>
      <trkpt lat="38.2797620" lon="-3.6393120">
        <ele>532.6</ele>
        <time>2018-06-16T07:38:21Z</time>
      </trkpt>
      <trkpt lat="38.2797660" lon="-3.6394180">
        <ele>532.8</ele>
        <time>2018-06-16T07:38:22Z</time>
      </trkpt>
      <trkpt lat="38.2797770" lon="-3.6395230">
        <ele>533.0</ele>
        <time>2018-06-16T07:38:23Z</time>
      </trkpt>
      <trkpt lat="38.2797950" lon="-3.6396250">
        <ele>533.2</ele>
        <time>2018-06-16T07:38:24Z</time>
      </trkpt>
      <trkpt lat="38.2798190" lon="-3.6397250">
        <ele>533.4</ele>
        <time>2018-06-16T07:38:25Z</time>
      </trkpt>
      <trkpt lat="38.2798510" lon="-3.6398170">
        <ele>533.2</ele>
        <time>2018-06-16T07:38:26Z</time>
      </trkpt>
      <trkpt lat="38.2798930" lon="-3.6399020">
        <ele>533.2</ele>
        <time>2018-06-16T07:38:27Z</time>
      </trkpt>
      <trkpt lat="38.2799440" lon="-3.6399800">
        <ele>533.4</ele>
        <time>2018-06-16T07:38:28Z</time>
      </trkpt>
      <trkpt lat="38.2800010" lon="-3.6400480">
        <ele>533.6</ele>
        <time>2018-06-16T07:38:29Z</time>
      </trkpt>
      <trkpt lat="38.2801050" lon="-3.6401310">
        <ele>533.2</ele>
        <time>2018-06-16T07:38:30Z</time>
      </trkpt>
      <trkpt lat="38.2801430" lon="-3.6401550">
        <ele>532.8</ele>
        <time>2018-06-16T07:38:31Z</time>
      </trkpt>
      <trkpt lat="38.2802200" lon="-3.6402020">
        <ele>532.2</ele>
        <time>2018-06-16T07:38:32Z</time>
      </trkpt>
      <trkpt lat="38.2803060" lon="-3.6402400">
        <ele>531.8</ele>
        <time>2018-06-16T07:38:33Z</time>
      </trkpt>
      <trkpt lat="38.2803980" lon="-3.6402770">
        <ele>531.2</ele>
        <time>2018-06-16T07:38:34Z</time>
      </trkpt>
      <trkpt lat="38.2804910" lon="-3.6403140">
        <ele>530.6</ele>
        <time>2018-06-16T07:38:35Z</time>
      </trkpt>
      <trkpt lat="38.2805870" lon="-3.6403520">
        <ele>529.8</ele>
        <time>2018-06-16T07:38:36Z</time>
      </trkpt>
      <trkpt lat="38.2806810" lon="-3.6403880">
        <ele>529.4</ele>
        <time>2018-06-16T07:38:37Z</time>
      </trkpt>
      <trkpt lat="38.2807750" lon="-3.6404250">
        <ele>528.6</ele>
        <time>2018-06-16T07:38:38Z</time>
      </trkpt>
      <trkpt lat="38.2809600" lon="-3.6405340">
        <ele>527.8</ele>
        <time>2018-06-16T07:38:39Z</time>
      </trkpt>
      <trkpt lat="38.2810300" lon="-3.6406300">
        <ele>527.2</ele>
        <time>2018-06-16T07:38:40Z</time>
      </trkpt>
      <trkpt lat="38.2810990" lon="-3.6407270">
        <ele>526.4</ele>
        <time>2018-06-16T07:38:41Z</time>
      </trkpt>
      <trkpt lat="38.2811420" lon="-3.6408450">
        <ele>525.8</ele>
        <time>2018-06-16T07:38:42Z</time>
      </trkpt>
      <trkpt lat="38.2811730" lon="-3.6409720">
        <ele>525.6</ele>
        <time>2018-06-16T07:38:43Z</time>
      </trkpt>
      <trkpt lat="38.2811930" lon="-3.6411040">
        <ele>525.4</ele>
        <time>2018-06-16T07:38:44Z</time>
      </trkpt>
      <trkpt lat="38.2811930" lon="-3.6411040">
        <ele>525.2</ele>
        <time>2018-06-16T07:38:45Z</time>
      </trkpt>
      <trkpt lat="38.2812030" lon="-3.6412390">
        <ele>525.2</ele>
        <time>2018-06-16T07:38:46Z</time>
      </trkpt>
      <trkpt lat="38.2811980" lon="-3.6413730">
        <ele>524.8</ele>
        <time>2018-06-16T07:38:47Z</time>
      </trkpt>
      <trkpt lat="38.2811850" lon="-3.6415060">
        <ele>525.0</ele>
        <time>2018-06-16T07:38:48Z</time>
      </trkpt>
      <trkpt lat="38.2811680" lon="-3.6416300">
        <ele>525.4</ele>
        <time>2018-06-16T07:38:49Z</time>
      </trkpt>
      <trkpt lat="38.2811500" lon="-3.6417530">
        <ele>525.6</ele>
        <time>2018-06-16T07:38:50Z</time>
      </trkpt>
      <trkpt lat="38.2811420" lon="-3.6418660">
        <ele>526.0</ele>
        <time>2018-06-16T07:38:51Z</time>
      </trkpt>
      <trkpt lat="38.2811490" lon="-3.6419780">
        <ele>525.4</ele>
        <time>2018-06-16T07:38:52Z</time>
      </trkpt>
      <trkpt lat="38.2811750" lon="-3.6420830">
        <ele>525.0</ele>
        <time>2018-06-16T07:38:53Z</time>
      </trkpt>
      <trkpt lat="38.2812260" lon="-3.6421750">
        <ele>524.6</ele>
        <time>2018-06-16T07:38:54Z</time>
      </trkpt>
      <trkpt lat="38.2812960" lon="-3.6422540">
        <ele>524.0</ele>
        <time>2018-06-16T07:38:55Z</time>
      </trkpt>
      <trkpt lat="38.2813770" lon="-3.6423270">
        <ele>523.6</ele>
        <time>2018-06-16T07:38:56Z</time>
      </trkpt>
      <trkpt lat="38.2814620" lon="-3.6423950">
        <ele>523.2</ele>
        <time>2018-06-16T07:38:57Z</time>
      </trkpt>
      <trkpt lat="38.2815490" lon="-3.6424650">
        <ele>522.8</ele>
        <time>2018-06-16T07:38:58Z</time>
      </trkpt>
      <trkpt lat="38.2816380" lon="-3.6425330">
        <ele>522.6</ele>
        <time>2018-06-16T07:38:59Z</time>
      </trkpt>
      <trkpt lat="38.2817270" lon="-3.6426020">
        <ele>522.8</ele>
        <time>2018-06-16T07:39:00Z</time>
      </trkpt>
      <trkpt lat="38.2818170" lon="-3.6426710">
        <ele>522.6</ele>
        <time>2018-06-16T07:39:01Z</time>
      </trkpt>
      <trkpt lat="38.2819050" lon="-3.6427430">
        <ele>522.4</ele>
        <time>2018-06-16T07:39:02Z</time>
      </trkpt>
      <trkpt lat="38.2819890" lon="-3.6428230">
        <ele>522.4</ele>
        <time>2018-06-16T07:39:03Z</time>
      </trkpt>
      <trkpt lat="38.2820720" lon="-3.6429030">
        <ele>522.2</ele>
        <time>2018-06-16T07:39:04Z</time>
      </trkpt>
      <trkpt lat="38.2821440" lon="-3.6429950">
        <ele>522.2</ele>
        <time>2018-06-16T07:39:05Z</time>
      </trkpt>
      <trkpt lat="38.2822090" lon="-3.6430930">
        <ele>522.0</ele>
        <time>2018-06-16T07:39:06Z</time>
      </trkpt>
      <trkpt lat="38.2822680" lon="-3.6431950">
        <ele>522.0</ele>
        <time>2018-06-16T07:39:07Z</time>
      </trkpt>
      <trkpt lat="38.2823230" lon="-3.6432990">
        <ele>522.0</ele>
        <time>2018-06-16T07:39:08Z</time>
      </trkpt>
      <trkpt lat="38.2823740" lon="-3.6434050">
        <ele>522.0</ele>
        <time>2018-06-16T07:39:09Z</time>
      </trkpt>
      <trkpt lat="38.2824240" lon="-3.6435120">
        <ele>521.8</ele>
        <time>2018-06-16T07:39:10Z</time>
      </trkpt>
      <trkpt lat="38.2824830" lon="-3.6436080">
        <ele>521.8</ele>
        <time>2018-06-16T07:39:11Z</time>
      </trkpt>
      <trkpt lat="38.2825550" lon="-3.6436900">
        <ele>522.2</ele>
        <time>2018-06-16T07:39:12Z</time>
      </trkpt>
      <trkpt lat="38.2826300" lon="-3.6437570">
        <ele>522.6</ele>
        <time>2018-06-16T07:39:13Z</time>
      </trkpt>
      <trkpt lat="38.2826980" lon="-3.6438220">
        <ele>523.0</ele>
        <time>2018-06-16T07:39:14Z</time>
      </trkpt>
      <trkpt lat="38.2828250" lon="-3.6439590">
        <ele>522.6</ele>
        <time>2018-06-16T07:39:15Z</time>
      </trkpt>
      <trkpt lat="38.2828890" lon="-3.6440320">
        <ele>522.4</ele>
        <time>2018-06-16T07:39:16Z</time>
      </trkpt>
      <trkpt lat="38.2829560" lon="-3.6441060">
        <ele>522.2</ele>
        <time>2018-06-16T07:39:17Z</time>
      </trkpt>
      <trkpt lat="38.2830250" lon="-3.6441820">
        <ele>522.0</ele>
        <time>2018-06-16T07:39:18Z</time>
      </trkpt>
      <trkpt lat="38.2830980" lon="-3.6442580">
        <ele>521.6</ele>
        <time>2018-06-16T07:39:19Z</time>
      </trkpt>
      <trkpt lat="38.2831750" lon="-3.6443380">
        <ele>520.6</ele>
        <time>2018-06-16T07:39:20Z</time>
      </trkpt>
      <trkpt lat="38.2832550" lon="-3.6444250">
        <ele>519.8</ele>
        <time>2018-06-16T07:39:21Z</time>
      </trkpt>
      <trkpt lat="38.2833320" lon="-3.6445220">
        <ele>518.8</ele>
        <time>2018-06-16T07:39:22Z</time>
      </trkpt>
      <trkpt lat="38.2834080" lon="-3.6446290">
        <ele>517.6</ele>
        <time>2018-06-16T07:39:23Z</time>
      </trkpt>
      <trkpt lat="38.2835010" lon="-3.6447630">
        <ele>517.4</ele>
        <time>2018-06-16T07:39:24Z</time>
      </trkpt>
      <trkpt lat="38.2835180" lon="-3.6447900">
        <ele>516.6</ele>
        <time>2018-06-16T07:39:25Z</time>
      </trkpt>
      <trkpt lat="38.2835840" lon="-3.6449220">
        <ele>516.4</ele>
        <time>2018-06-16T07:39:26Z</time>
      </trkpt>
      <trkpt lat="38.2836140" lon="-3.6450000">
        <ele>516.0</ele>
        <time>2018-06-16T07:39:27Z</time>
      </trkpt>
      <trkpt lat="38.2836450" lon="-3.6450780">
        <ele>515.4</ele>
        <time>2018-06-16T07:39:28Z</time>
      </trkpt>
      <trkpt lat="38.2836760" lon="-3.6452020">
        <ele>515.0</ele>
        <time>2018-06-16T07:39:29Z</time>
      </trkpt>
      <trkpt lat="38.2836580" lon="-3.6453300">
        <ele>514.4</ele>
        <time>2018-06-16T07:39:30Z</time>
      </trkpt>
      <trkpt lat="38.2836090" lon="-3.6454400">
        <ele>513.8</ele>
        <time>2018-06-16T07:39:31Z</time>
      </trkpt>
      <trkpt lat="38.2835450" lon="-3.6455330">
        <ele>513.0</ele>
        <time>2018-06-16T07:39:32Z</time>
      </trkpt>
      <trkpt lat="38.2834780" lon="-3.6456200">
        <ele>512.4</ele>
        <time>2018-06-16T07:39:33Z</time>
      </trkpt>
      <trkpt lat="38.2834290" lon="-3.6457220">
        <ele>511.8</ele>
        <time>2018-06-16T07:39:34Z</time>
      </trkpt>
      <trkpt lat="38.2834040" lon="-3.6458420">
        <ele>511.0</ele>
        <time>2018-06-16T07:39:35Z</time>
      </trkpt>
      <trkpt lat="38.2833980" lon="-3.6459720">
        <ele>510.4</ele>
        <time>2018-06-16T07:39:36Z</time>
      </trkpt>
      <trkpt lat="38.2834020" lon="-3.6461070">
        <ele>509.8</ele>
        <time>2018-06-16T07:39:37Z</time>
      </trkpt>
      <trkpt lat="38.2834130" lon="-3.6462450">
        <ele>508.8</ele>
        <time>2018-06-16T07:39:38Z</time>
      </trkpt>
      <trkpt lat="38.2834310" lon="-3.6463840">
        <ele>508.0</ele>
        <time>2018-06-16T07:39:39Z</time>
      </trkpt>
      <trkpt lat="38.2834620" lon="-3.6465230">
        <ele>507.4</ele>
        <time>2018-06-16T07:39:40Z</time>
      </trkpt>
      <trkpt lat="38.2835010" lon="-3.6466600">
        <ele>506.8</ele>
        <time>2018-06-16T07:39:41Z</time>
      </trkpt>
      <trkpt lat="38.2835880" lon="-3.6469350">
        <ele>506.2</ele>
        <time>2018-06-16T07:39:42Z</time>
      </trkpt>
      <trkpt lat="38.2835880" lon="-3.6469350">
        <ele>505.2</ele>
        <time>2018-06-16T07:39:43Z</time>
      </trkpt>
      <trkpt lat="38.2836850" lon="-3.6472150">
        <ele>504.0</ele>
        <time>2018-06-16T07:39:44Z</time>
      </trkpt>
      <trkpt lat="38.2837300" lon="-3.6473560">
        <ele>503.2</ele>
        <time>2018-06-16T07:39:45Z</time>
      </trkpt>
      <trkpt lat="38.2837740" lon="-3.6474940">
        <ele>502.4</ele>
        <time>2018-06-16T07:39:46Z</time>
      </trkpt>
      <trkpt lat="38.2838150" lon="-3.6476280">
        <ele>501.8</ele>
        <time>2018-06-16T07:39:47Z</time>
      </trkpt>
      <trkpt lat="38.2838150" lon="-3.6476280">
        <ele>501.2</ele>
        <time>2018-06-16T07:39:48Z</time>
      </trkpt>
      <trkpt lat="38.2838630" lon="-3.6477540">
        <ele>500.2</ele>
        <time>2018-06-16T07:39:49Z</time>
      </trkpt>
      <trkpt lat="38.2839240" lon="-3.6478710">
        <ele>499.4</ele>
        <time>2018-06-16T07:39:50Z</time>
      </trkpt>
      <trkpt lat="38.2840020" lon="-3.6479770">
        <ele>498.6</ele>
        <time>2018-06-16T07:39:51Z</time>
      </trkpt>
      <trkpt lat="38.2840910" lon="-3.6480700">
        <ele>497.8</ele>
        <time>2018-06-16T07:39:52Z</time>
      </trkpt>
      <trkpt lat="38.2841930" lon="-3.6481480">
        <ele>496.8</ele>
        <time>2018-06-16T07:39:53Z</time>
      </trkpt>
      <trkpt lat="38.2842950" lon="-3.6482270">
        <ele>495.8</ele>
        <time>2018-06-16T07:39:54Z</time>
      </trkpt>
      <trkpt lat="38.2843990" lon="-3.6483000">
        <ele>495.0</ele>
        <time>2018-06-16T07:39:55Z</time>
      </trkpt>
      <trkpt lat="38.2845040" lon="-3.6483660">
        <ele>494.6</ele>
        <time>2018-06-16T07:39:56Z</time>
      </trkpt>
      <trkpt lat="38.2846080" lon="-3.6484200">
        <ele>494.0</ele>
        <time>2018-06-16T07:39:57Z</time>
      </trkpt>
      <trkpt lat="38.2847150" lon="-3.6484510">
        <ele>493.4</ele>
        <time>2018-06-16T07:39:58Z</time>
      </trkpt>
      <trkpt lat="38.2848230" lon="-3.6484540">
        <ele>492.4</ele>
        <time>2018-06-16T07:39:59Z</time>
      </trkpt>
      <trkpt lat="38.2849280" lon="-3.6484260">
        <ele>491.8</ele>
        <time>2018-06-16T07:40:00Z</time>
      </trkpt>
      <trkpt lat="38.2850310" lon="-3.6483750">
        <ele>490.8</ele>
        <time>2018-06-16T07:40:01Z</time>
      </trkpt>
      <trkpt lat="38.2851340" lon="-3.6483240">
        <ele>489.8</ele>
        <time>2018-06-16T07:40:02Z</time>
      </trkpt>
      <trkpt lat="38.2852390" lon="-3.6482700">
        <ele>489.2</ele>
        <time>2018-06-16T07:40:03Z</time>
      </trkpt>
      <trkpt lat="38.2853460" lon="-3.6482160">
        <ele>488.4</ele>
        <time>2018-06-16T07:40:04Z</time>
      </trkpt>
      <trkpt lat="38.2854560" lon="-3.6481660">
        <ele>487.4</ele>
        <time>2018-06-16T07:40:05Z</time>
      </trkpt>
      <trkpt lat="38.2855720" lon="-3.6481240">
        <ele>487.0</ele>
        <time>2018-06-16T07:40:06Z</time>
      </trkpt>
      <trkpt lat="38.2856900" lon="-3.6481010">
        <ele>486.2</ele>
        <time>2018-06-16T07:40:07Z</time>
      </trkpt>
      <trkpt lat="38.2858110" lon="-3.6480870">
        <ele>485.2</ele>
        <time>2018-06-16T07:40:08Z</time>
      </trkpt>
      <trkpt lat="38.2859330" lon="-3.6480660">
        <ele>484.6</ele>
        <time>2018-06-16T07:40:09Z</time>
      </trkpt>
      <trkpt lat="38.2860540" lon="-3.6480330">
        <ele>483.6</ele>
        <time>2018-06-16T07:40:10Z</time>
      </trkpt>
      <trkpt lat="38.2861720" lon="-3.6479830">
        <ele>482.8</ele>
        <time>2018-06-16T07:40:11Z</time>
      </trkpt>
      <trkpt lat="38.2862920" lon="-3.6479270">
        <ele>482.0</ele>
        <time>2018-06-16T07:40:12Z</time>
      </trkpt>
      <trkpt lat="38.2864120" lon="-3.6478670">
        <ele>481.2</ele>
        <time>2018-06-16T07:40:13Z</time>
      </trkpt>
      <trkpt lat="38.2866580" lon="-3.6477490">
        <ele>480.2</ele>
        <time>2018-06-16T07:40:14Z</time>
      </trkpt>
      <trkpt lat="38.2867760" lon="-3.6476900">
        <ele>479.2</ele>
        <time>2018-06-16T07:40:15Z</time>
      </trkpt>
      <trkpt lat="38.2868890" lon="-3.6476330">
        <ele>478.4</ele>
        <time>2018-06-16T07:40:16Z</time>
      </trkpt>
      <trkpt lat="38.2869980" lon="-3.6475790">
        <ele>477.8</ele>
        <time>2018-06-16T07:40:17Z</time>
      </trkpt>
      <trkpt lat="38.2871010" lon="-3.6475310">
        <ele>477.0</ele>
        <time>2018-06-16T07:40:18Z</time>
      </trkpt>
      <trkpt lat="38.2872010" lon="-3.6475090">
        <ele>476.4</ele>
        <time>2018-06-16T07:40:19Z</time>
      </trkpt>
      <trkpt lat="38.2873010" lon="-3.6475250">
        <ele>475.8</ele>
        <time>2018-06-16T07:40:20Z</time>
      </trkpt>
      <trkpt lat="38.2873930" lon="-3.6475760">
        <ele>475.2</ele>
        <time>2018-06-16T07:40:21Z</time>
      </trkpt>
      <trkpt lat="38.2874700" lon="-3.6476640">
        <ele>474.0</ele>
        <time>2018-06-16T07:40:22Z</time>
      </trkpt>
      <trkpt lat="38.2874700" lon="-3.6476640">
        <ele>474.0</ele>
        <time>2018-06-16T07:40:23Z</time>
      </trkpt>
      <trkpt lat="38.2875270" lon="-3.6477810">
        <ele>473.0</ele>
        <time>2018-06-16T07:40:24Z</time>
      </trkpt>
      <trkpt lat="38.2875830" lon="-3.6478990">
        <ele>472.0</ele>
        <time>2018-06-16T07:40:25Z</time>
      </trkpt>
      <trkpt lat="38.2876340" lon="-3.6480250">
        <ele>471.8</ele>
        <time>2018-06-16T07:40:26Z</time>
      </trkpt>
      <trkpt lat="38.2876880" lon="-3.6481550">
        <ele>470.8</ele>
        <time>2018-06-16T07:40:27Z</time>
      </trkpt>
      <trkpt lat="38.2877430" lon="-3.6482790">
        <ele>470.0</ele>
        <time>2018-06-16T07:40:28Z</time>
      </trkpt>
      <trkpt lat="38.2877980" lon="-3.6483910">
        <ele>469.6</ele>
        <time>2018-06-16T07:40:29Z</time>
      </trkpt>
      <trkpt lat="38.2878650" lon="-3.6484870">
        <ele>469.2</ele>
        <time>2018-06-16T07:40:30Z</time>
      </trkpt>
      <trkpt lat="38.2879400" lon="-3.6485540">
        <ele>468.4</ele>
        <time>2018-06-16T07:40:31Z</time>
      </trkpt>
      <trkpt lat="38.2880270" lon="-3.6485850">
        <ele>467.8</ele>
        <time>2018-06-16T07:40:32Z</time>
      </trkpt>
      <trkpt lat="38.2881200" lon="-3.6485770">
        <ele>466.6</ele>
        <time>2018-06-16T07:40:33Z</time>
      </trkpt>
      <trkpt lat="38.2882170" lon="-3.6485390">
        <ele>465.4</ele>
        <time>2018-06-16T07:40:34Z</time>
      </trkpt>
      <trkpt lat="38.2883170" lon="-3.6484900">
        <ele>464.8</ele>
        <time>2018-06-16T07:40:35Z</time>
      </trkpt>
      <trkpt lat="38.2884190" lon="-3.6484400">
        <ele>464.6</ele>
        <time>2018-06-16T07:40:36Z</time>
      </trkpt>
      <trkpt lat="38.2885230" lon="-3.6483920">
        <ele>464.0</ele>
        <time>2018-06-16T07:40:37Z</time>
      </trkpt>
      <trkpt lat="38.2886310" lon="-3.6483480">
        <ele>463.8</ele>
        <time>2018-06-16T07:40:38Z</time>
      </trkpt>
      <trkpt lat="38.2887390" lon="-3.6482980">
        <ele>463.6</ele>
        <time>2018-06-16T07:40:39Z</time>
      </trkpt>
      <trkpt lat="38.2888390" lon="-3.6482270">
        <ele>463.0</ele>
        <time>2018-06-16T07:40:40Z</time>
      </trkpt>
      <trkpt lat="38.2889310" lon="-3.6481370">
        <ele>462.4</ele>
        <time>2018-06-16T07:40:41Z</time>
      </trkpt>
      <trkpt lat="38.2890120" lon="-3.6480340">
        <ele>461.8</ele>
        <time>2018-06-16T07:40:42Z</time>
      </trkpt>
      <trkpt lat="38.2891450" lon="-3.6478030">
        <ele>461.2</ele>
        <time>2018-06-16T07:40:43Z</time>
      </trkpt>
      <trkpt lat="38.2892050" lon="-3.6476840">
        <ele>460.2</ele>
        <time>2018-06-16T07:40:44Z</time>
      </trkpt>
      <trkpt lat="38.2892640" lon="-3.6475690">
        <ele>459.4</ele>
        <time>2018-06-16T07:40:45Z</time>
      </trkpt>
      <trkpt lat="38.2893200" lon="-3.6474600">
        <ele>459.0</ele>
        <time>2018-06-16T07:40:46Z</time>
      </trkpt>
      <trkpt lat="38.2893790" lon="-3.6473650">
        <ele>458.2</ele>
        <time>2018-06-16T07:40:47Z</time>
      </trkpt>
      <trkpt lat="38.2894490" lon="-3.6472960">
        <ele>457.4</ele>
        <time>2018-06-16T07:40:48Z</time>
      </trkpt>
      <trkpt lat="38.2895310" lon="-3.6472590">
        <ele>457.0</ele>
        <time>2018-06-16T07:40:49Z</time>
      </trkpt>
      <trkpt lat="38.2896690" lon="-3.6472870">
        <ele>456.4</ele>
        <time>2018-06-16T07:40:50Z</time>
      </trkpt>
      <trkpt lat="38.2897150" lon="-3.6473090">
        <ele>455.8</ele>
        <time>2018-06-16T07:40:51Z</time>
      </trkpt>
      <trkpt lat="38.2898060" lon="-3.6473520">
        <ele>454.8</ele>
        <time>2018-06-16T07:40:52Z</time>
      </trkpt>
      <trkpt lat="38.2898950" lon="-3.6473990">
        <ele>454.4</ele>
        <time>2018-06-16T07:40:53Z</time>
      </trkpt>
      <trkpt lat="38.2899730" lon="-3.6474560">
        <ele>453.8</ele>
        <time>2018-06-16T07:40:54Z</time>
      </trkpt>
      <trkpt lat="38.2900370" lon="-3.6475320">
        <ele>453.4</ele>
        <time>2018-06-16T07:40:55Z</time>
      </trkpt>
      <trkpt lat="38.2900830" lon="-3.6476320">
        <ele>452.4</ele>
        <time>2018-06-16T07:40:56Z</time>
      </trkpt>
      <trkpt lat="38.2901100" lon="-3.6477510">
        <ele>451.4</ele>
        <time>2018-06-16T07:40:57Z</time>
      </trkpt>
      <trkpt lat="38.2901210" lon="-3.6478800">
        <ele>451.2</ele>
        <time>2018-06-16T07:40:58Z</time>
      </trkpt>
      <trkpt lat="38.2901220" lon="-3.6480130">
        <ele>450.4</ele>
        <time>2018-06-16T07:40:59Z</time>
      </trkpt>
      <trkpt lat="38.2901220" lon="-3.6480130">
        <ele>449.6</ele>
        <time>2018-06-16T07:41:00Z</time>
      </trkpt>
      <trkpt lat="38.2901110" lon="-3.6481500">
        <ele>449.4</ele>
        <time>2018-06-16T07:41:01Z</time>
      </trkpt>
      <trkpt lat="38.2900850" lon="-3.6482800">
        <ele>448.2</ele>
        <time>2018-06-16T07:41:02Z</time>
      </trkpt>
      <trkpt lat="38.2900370" lon="-3.6484040">
        <ele>447.0</ele>
        <time>2018-06-16T07:41:03Z</time>
      </trkpt>
      <trkpt lat="38.2899710" lon="-3.6485210">
        <ele>446.2</ele>
        <time>2018-06-16T07:41:04Z</time>
      </trkpt>
      <trkpt lat="38.2898990" lon="-3.6486340">
        <ele>445.4</ele>
        <time>2018-06-16T07:41:05Z</time>
      </trkpt>
      <trkpt lat="38.2898300" lon="-3.6487500">
        <ele>445.0</ele>
        <time>2018-06-16T07:41:06Z</time>
      </trkpt>
      <trkpt lat="38.2897740" lon="-3.6488780">
        <ele>445.2</ele>
        <time>2018-06-16T07:41:07Z</time>
      </trkpt>
      <trkpt lat="38.2897370" lon="-3.6490180">
        <ele>444.4</ele>
        <time>2018-06-16T07:41:08Z</time>
      </trkpt>
      <trkpt lat="38.2897090" lon="-3.6491630">
        <ele>443.4</ele>
        <time>2018-06-16T07:41:09Z</time>
      </trkpt>
      <trkpt lat="38.2896840" lon="-3.6493090">
        <ele>442.6</ele>
        <time>2018-06-16T07:41:10Z</time>
      </trkpt>
      <trkpt lat="38.2896590" lon="-3.6494530">
        <ele>442.0</ele>
        <time>2018-06-16T07:41:11Z</time>
      </trkpt>
      <trkpt lat="38.2895780" lon="-3.6497290">
        <ele>440.8</ele>
        <time>2018-06-16T07:41:12Z</time>
      </trkpt>
      <trkpt lat="38.2895170" lon="-3.6498590">
        <ele>439.8</ele>
        <time>2018-06-16T07:41:13Z</time>
      </trkpt>
      <trkpt lat="38.2895170" lon="-3.6498590">
        <ele>439.2</ele>
        <time>2018-06-16T07:41:14Z</time>
      </trkpt>
      <trkpt lat="38.2894130" lon="-3.6501320">
        <ele>438.8</ele>
        <time>2018-06-16T07:41:15Z</time>
      </trkpt>
      <trkpt lat="38.2893860" lon="-3.6502820">
        <ele>437.8</ele>
        <time>2018-06-16T07:41:16Z</time>
      </trkpt>
      <trkpt lat="38.2893710" lon="-3.6504380">
        <ele>437.2</ele>
        <time>2018-06-16T07:41:17Z</time>
      </trkpt>
      <trkpt lat="38.2893600" lon="-3.6505960">
        <ele>435.8</ele>
        <time>2018-06-16T07:41:18Z</time>
      </trkpt>
      <trkpt lat="38.2893530" lon="-3.6507560">
        <ele>435.0</ele>
        <time>2018-06-16T07:41:19Z</time>
      </trkpt>
      <trkpt lat="38.2893540" lon="-3.6509130">
        <ele>434.2</ele>
        <time>2018-06-16T07:41:20Z</time>
      </trkpt>
      <trkpt lat="38.2893620" lon="-3.6510640">
        <ele>433.4</ele>
        <time>2018-06-16T07:41:21Z</time>
      </trkpt>
      <trkpt lat="38.2893620" lon="-3.6510640">
        <ele>432.8</ele>
        <time>2018-06-16T07:41:22Z</time>
      </trkpt>
      <trkpt lat="38.2893780" lon="-3.6512100">
        <ele>432.6</ele>
        <time>2018-06-16T07:41:23Z</time>
      </trkpt>
      <trkpt lat="38.2893960" lon="-3.6513480">
        <ele>431.6</ele>
        <time>2018-06-16T07:41:24Z</time>
      </trkpt>
      <trkpt lat="38.2894030" lon="-3.6514690">
        <ele>431.2</ele>
        <time>2018-06-16T07:41:25Z</time>
      </trkpt>
      <trkpt lat="38.2894090" lon="-3.6515900">
        <ele>430.6</ele>
        <time>2018-06-16T07:41:26Z</time>
      </trkpt>
      <trkpt lat="38.2893780" lon="-3.6517000">
        <ele>429.8</ele>
        <time>2018-06-16T07:41:27Z</time>
      </trkpt>
      <trkpt lat="38.2893280" lon="-3.6518090">
        <ele>428.8</ele>
        <time>2018-06-16T07:41:28Z</time>
      </trkpt>
      <trkpt lat="38.2892670" lon="-3.6519190">
        <ele>428.4</ele>
        <time>2018-06-16T07:41:29Z</time>
      </trkpt>
      <trkpt lat="38.2891980" lon="-3.6520250">
        <ele>427.6</ele>
        <time>2018-06-16T07:41:30Z</time>
      </trkpt>
      <trkpt lat="38.2891230" lon="-3.6521300">
        <ele>426.8</ele>
        <time>2018-06-16T07:41:31Z</time>
      </trkpt>
      <trkpt lat="38.2890470" lon="-3.6522350">
        <ele>426.2</ele>
        <time>2018-06-16T07:41:32Z</time>
      </trkpt>
      <trkpt lat="38.2888780" lon="-3.6524390">
        <ele>425.2</ele>
        <time>2018-06-16T07:41:33Z</time>
      </trkpt>
      <trkpt lat="38.2888780" lon="-3.6524390">
        <ele>424.4</ele>
        <time>2018-06-16T07:41:34Z</time>
      </trkpt>
      <trkpt lat="38.2887090" lon="-3.6526420">
        <ele>423.8</ele>
        <time>2018-06-16T07:41:35Z</time>
      </trkpt>
      <trkpt lat="38.2886290" lon="-3.6527430">
        <ele>423.0</ele>
        <time>2018-06-16T07:41:36Z</time>
      </trkpt>
      <trkpt lat="38.2885520" lon="-3.6528440">
        <ele>422.0</ele>
        <time>2018-06-16T07:41:37Z</time>
      </trkpt>
      <trkpt lat="38.2884680" lon="-3.6529350">
        <ele>422.2</ele>
        <time>2018-06-16T07:41:38Z</time>
      </trkpt>
      <trkpt lat="38.2883720" lon="-3.6530040">
        <ele>421.6</ele>
        <time>2018-06-16T07:41:39Z</time>
      </trkpt>
      <trkpt lat="38.2882670" lon="-3.6530420">
        <ele>421.0</ele>
        <time>2018-06-16T07:41:40Z</time>
      </trkpt>
      <trkpt lat="38.2881570" lon="-3.6530520">
        <ele>420.4</ele>
        <time>2018-06-16T07:41:41Z</time>
      </trkpt>
      <trkpt lat="38.2880470" lon="-3.6530620">
        <ele>419.8</ele>
        <time>2018-06-16T07:41:42Z</time>
      </trkpt>
      <trkpt lat="38.2879360" lon="-3.6530600">
        <ele>419.2</ele>
        <time>2018-06-16T07:41:43Z</time>
      </trkpt>
      <trkpt lat="38.2878230" lon="-3.6530610">
        <ele>418.8</ele>
        <time>2018-06-16T07:41:44Z</time>
      </trkpt>
      <trkpt lat="38.2877090" lon="-3.6530680">
        <ele>418.4</ele>
        <time>2018-06-16T07:41:45Z</time>
      </trkpt>
      <trkpt lat="38.2875960" lon="-3.6530840">
        <ele>418.0</ele>
        <time>2018-06-16T07:41:46Z</time>
      </trkpt>
      <trkpt lat="38.2874840" lon="-3.6531050">
        <ele>417.4</ele>
        <time>2018-06-16T07:41:47Z</time>
      </trkpt>
      <trkpt lat="38.2873720" lon="-3.6531190">
        <ele>416.8</ele>
        <time>2018-06-16T07:41:48Z</time>
      </trkpt>
      <trkpt lat="38.2872610" lon="-3.6531110">
        <ele>416.0</ele>
        <time>2018-06-16T07:41:49Z</time>
      </trkpt>
      <trkpt lat="38.2872610" lon="-3.6531110">
        <ele>415.0</ele>
        <time>2018-06-16T07:41:50Z</time>
      </trkpt>
      <trkpt lat="38.2871510" lon="-3.6530860">
        <ele>414.4</ele>
        <time>2018-06-16T07:41:51Z</time>
      </trkpt>
      <trkpt lat="38.2870400" lon="-3.6530560">
        <ele>414.0</ele>
        <time>2018-06-16T07:41:52Z</time>
      </trkpt>
      <trkpt lat="38.2869300" lon="-3.6530300">
        <ele>413.6</ele>
        <time>2018-06-16T07:41:53Z</time>
      </trkpt>
      <trkpt lat="38.2868180" lon="-3.6530160">
        <ele>413.0</ele>
        <time>2018-06-16T07:41:54Z</time>
      </trkpt>
      <trkpt lat="38.2867070" lon="-3.6530140">
        <ele>412.8</ele>
        <time>2018-06-16T07:41:55Z</time>
      </trkpt>
      <trkpt lat="38.2865960" lon="-3.6530200">
        <ele>412.2</ele>
        <time>2018-06-16T07:41:56Z</time>
      </trkpt>
      <trkpt lat="38.2864850" lon="-3.6530320">
        <ele>411.4</ele>
        <time>2018-06-16T07:41:57Z</time>
      </trkpt>
      <trkpt lat="38.2863730" lon="-3.6530450">
        <ele>411.0</ele>
        <time>2018-06-16T07:41:58Z</time>
      </trkpt>
      <trkpt lat="38.2862620" lon="-3.6530610">
        <ele>410.4</ele>
        <time>2018-06-16T07:41:59Z</time>
      </trkpt>
      <trkpt lat="38.2861500" lon="-3.6530770">
        <ele>410.2</ele>
        <time>2018-06-16T07:42:00Z</time>
      </trkpt>
      <trkpt lat="38.2860380" lon="-3.6530930">
        <ele>409.6</ele>
        <time>2018-06-16T07:42:01Z</time>
      </trkpt>
      <trkpt lat="38.2859270" lon="-3.6531090">
        <ele>409.4</ele>
        <time>2018-06-16T07:42:02Z</time>
      </trkpt>
      <trkpt lat="38.2858210" lon="-3.6531260">
        <ele>409.4</ele>
        <time>2018-06-16T07:42:03Z</time>
      </trkpt>
      <trkpt lat="38.2857250" lon="-3.6531400">
        <ele>409.4</ele>
        <time>2018-06-16T07:42:04Z</time>
      </trkpt>
      <trkpt lat="38.2855540" lon="-3.6531670">
        <ele>409.4</ele>
        <time>2018-06-16T07:42:05Z</time>
      </trkpt>
      <trkpt lat="38.2854750" lon="-3.6531990">
        <ele>409.2</ele>
        <time>2018-06-16T07:42:06Z</time>
      </trkpt>
      <trkpt lat="38.2854080" lon="-3.6532550">
        <ele>409.2</ele>
        <time>2018-06-16T07:42:07Z</time>
      </trkpt>
      <trkpt lat="38.2853560" lon="-3.6533340">
        <ele>409.0</ele>
        <time>2018-06-16T07:42:08Z</time>
      </trkpt>
      <trkpt lat="38.2853210" lon="-3.6534260">
        <ele>408.8</ele>
        <time>2018-06-16T07:42:09Z</time>
      </trkpt>
      <trkpt lat="38.2853050" lon="-3.6535290">
        <ele>408.8</ele>
        <time>2018-06-16T07:42:10Z</time>
      </trkpt>
      <trkpt lat="38.2853000" lon="-3.6536330">
        <ele>408.6</ele>
        <time>2018-06-16T07:42:11Z</time>
      </trkpt>
      <trkpt lat="38.2852960" lon="-3.6537380">
        <ele>408.4</ele>
        <time>2018-06-16T07:42:12Z</time>
      </trkpt>
      <trkpt lat="38.2852880" lon="-3.6538420">
        <ele>408.4</ele>
        <time>2018-06-16T07:42:13Z</time>
      </trkpt>
      <trkpt lat="38.2852760" lon="-3.6539450">
        <ele>408.8</ele>
        <time>2018-06-16T07:42:14Z</time>
      </trkpt>
      <trkpt lat="38.2852560" lon="-3.6540480">
        <ele>408.6</ele>
        <time>2018-06-16T07:42:15Z</time>
      </trkpt>
      <trkpt lat="38.2852240" lon="-3.6541410">
        <ele>408.6</ele>
        <time>2018-06-16T07:42:16Z</time>
      </trkpt>
      <trkpt lat="38.2851820" lon="-3.6542230">
        <ele>408.6</ele>
        <time>2018-06-16T07:42:17Z</time>
      </trkpt>
      <trkpt lat="38.2851360" lon="-3.6542980">
        <ele>408.8</ele>
        <time>2018-06-16T07:42:18Z</time>
      </trkpt>
      <trkpt lat="38.2850850" lon="-3.6543660">
        <ele>408.8</ele>
        <time>2018-06-16T07:42:19Z</time>
      </trkpt>
      <trkpt lat="38.2850340" lon="-3.6544310">
        <ele>408.8</ele>
        <time>2018-06-16T07:42:20Z</time>
      </trkpt>
      <trkpt lat="38.2849850" lon="-3.6544950">
        <ele>409.2</ele>
        <time>2018-06-16T07:42:21Z</time>
      </trkpt>
      <trkpt lat="38.2849400" lon="-3.6545600">
        <ele>409.2</ele>
        <time>2018-06-16T07:42:22Z</time>
      </trkpt>
      <trkpt lat="38.2849040" lon="-3.6546300">
        <ele>409.4</ele>
        <time>2018-06-16T07:42:23Z</time>
      </trkpt>
      <trkpt lat="38.2848790" lon="-3.6547080">
        <ele>409.4</ele>
        <time>2018-06-16T07:42:24Z</time>
      </trkpt>
      <trkpt lat="38.2848600" lon="-3.6547880">
        <ele>409.6</ele>
        <time>2018-06-16T07:42:25Z</time>
      </trkpt>
      <trkpt lat="38.2848600" lon="-3.6547880">
        <ele>409.6</ele>
        <time>2018-06-16T07:42:26Z</time>
      </trkpt>
      <trkpt lat="38.2848500" lon="-3.6548690">
        <ele>410.0</ele>
        <time>2018-06-16T07:42:27Z</time>
      </trkpt>
      <trkpt lat="38.2848460" lon="-3.6549500">
        <ele>410.0</ele>
        <time>2018-06-16T07:42:28Z</time>
      </trkpt>
      <trkpt lat="38.2848530" lon="-3.6550290">
        <ele>410.0</ele>
        <time>2018-06-16T07:42:29Z</time>
      </trkpt>
      <trkpt lat="38.2848650" lon="-3.6551060">
        <ele>410.2</ele>
        <time>2018-06-16T07:42:30Z</time>
      </trkpt>
      <trkpt lat="38.2848780" lon="-3.6551790">
        <ele>410.2</ele>
        <time>2018-06-16T07:42:31Z</time>
      </trkpt>
      <trkpt lat="38.2848930" lon="-3.6552520">
        <ele>410.2</ele>
        <time>2018-06-16T07:42:32Z</time>
      </trkpt>
      <trkpt lat="38.2849080" lon="-3.6553210">
        <ele>410.2</ele>
        <time>2018-06-16T07:42:33Z</time>
      </trkpt>
      <trkpt lat="38.2849220" lon="-3.6553880">
        <ele>410.2</ele>
        <time>2018-06-16T07:42:34Z</time>
      </trkpt>
      <trkpt lat="38.2849360" lon="-3.6554600">
        <ele>410.2</ele>
        <time>2018-06-16T07:42:35Z</time>
      </trkpt>
      <trkpt lat="38.2849510" lon="-3.6555300">
        <ele>410.2</ele>
        <time>2018-06-16T07:42:36Z</time>
      </trkpt>
      <trkpt lat="38.2849670" lon="-3.6556000">
        <ele>410.0</ele>
        <time>2018-06-16T07:42:37Z</time>
      </trkpt>
      <trkpt lat="38.2849810" lon="-3.6556660">
        <ele>410.2</ele>
        <time>2018-06-16T07:42:38Z</time>
      </trkpt>
      <trkpt lat="38.2849950" lon="-3.6557350">
        <ele>410.2</ele>
        <time>2018-06-16T07:42:39Z</time>
      </trkpt>
      <trkpt lat="38.2850100" lon="-3.6558020">
        <ele>410.4</ele>
        <time>2018-06-16T07:42:40Z</time>
      </trkpt>
      <trkpt lat="38.2850400" lon="-3.6559360">
        <ele>410.4</ele>
        <time>2018-06-16T07:42:41Z</time>
      </trkpt>
      <trkpt lat="38.2850540" lon="-3.6560020">
        <ele>410.6</ele>
        <time>2018-06-16T07:42:42Z</time>
      </trkpt>
      <trkpt lat="38.2850680" lon="-3.6560650">
        <ele>410.6</ele>
        <time>2018-06-16T07:42:43Z</time>
      </trkpt>
      <trkpt lat="38.2850800" lon="-3.6561260">
        <ele>410.8</ele>
        <time>2018-06-16T07:42:44Z</time>
      </trkpt>
      <trkpt lat="38.2850930" lon="-3.6561900">
        <ele>411.0</ele>
        <time>2018-06-16T07:42:45Z</time>
      </trkpt>
      <trkpt lat="38.2851060" lon="-3.6562480">
        <ele>411.2</ele>
        <time>2018-06-16T07:42:46Z</time>
      </trkpt>
      <trkpt lat="38.2851180" lon="-3.6563080">
        <ele>411.4</ele>
        <time>2018-06-16T07:42:47Z</time>
      </trkpt>
      <trkpt lat="38.2851290" lon="-3.6563600">
        <ele>411.8</ele>
        <time>2018-06-16T07:42:48Z</time>
      </trkpt>
      <trkpt lat="38.2851410" lon="-3.6564100">
        <ele>412.0</ele>
        <time>2018-06-16T07:42:49Z</time>
      </trkpt>
      <trkpt lat="38.2851520" lon="-3.6564590">
        <ele>412.4</ele>
        <time>2018-06-16T07:42:50Z</time>
      </trkpt>
      <trkpt lat="38.2851580" lon="-3.6565060">
        <ele>412.6</ele>
        <time>2018-06-16T07:42:51Z</time>
      </trkpt>
      <trkpt lat="38.2851630" lon="-3.6565510">
        <ele>413.0</ele>
        <time>2018-06-16T07:42:52Z</time>
      </trkpt>
      <trkpt lat="38.2851690" lon="-3.6565950">
        <ele>413.2</ele>
        <time>2018-06-16T07:42:53Z</time>
      </trkpt>
      <trkpt lat="38.2851690" lon="-3.6565950">
        <ele>413.4</ele>
        <time>2018-06-16T07:42:54Z</time>
      </trkpt>
      <trkpt lat="38.2851750" lon="-3.6566380">
        <ele>413.6</ele>
        <time>2018-06-16T07:42:55Z</time>
      </trkpt>
      <trkpt lat="38.2851830" lon="-3.6566780">
        <ele>414.2</ele>
        <time>2018-06-16T07:42:56Z</time>
      </trkpt>
      <trkpt lat="38.2851890" lon="-3.6567170">
        <ele>414.4</ele>
        <time>2018-06-16T07:42:57Z</time>
      </trkpt>
      <trkpt lat="38.2851940" lon="-3.6567500">
        <ele>414.8</ele>
        <time>2018-06-16T07:42:58Z</time>
      </trkpt>
      <trkpt lat="38.2852000" lon="-3.6567850">
        <ele>415.0</ele>
        <time>2018-06-16T07:42:59Z</time>
      </trkpt>
      <trkpt lat="38.2852070" lon="-3.6568200">
        <ele>415.4</ele>
        <time>2018-06-16T07:43:00Z</time>
      </trkpt>
      <trkpt lat="38.2852240" lon="-3.6568890">
        <ele>415.6</ele>
        <time>2018-06-16T07:43:01Z</time>
      </trkpt>
      <trkpt lat="38.2852330" lon="-3.6569230">
        <ele>416.2</ele>
        <time>2018-06-16T07:43:02Z</time>
      </trkpt>
      <trkpt lat="38.2852460" lon="-3.6569570">
        <ele>416.4</ele>
        <time>2018-06-16T07:43:03Z</time>
      </trkpt>
      <trkpt lat="38.2852570" lon="-3.6569900">
        <ele>416.8</ele>
        <time>2018-06-16T07:43:04Z</time>
      </trkpt>
      <trkpt lat="38.2852700" lon="-3.6570210">
        <ele>417.0</ele>
        <time>2018-06-16T07:43:05Z</time>
      </trkpt>
      <trkpt lat="38.2852880" lon="-3.6570520">
        <ele>417.4</ele>
        <time>2018-06-16T07:43:06Z</time>
      </trkpt>
      <trkpt lat="38.2853060" lon="-3.6570790">
        <ele>417.4</ele>
        <time>2018-06-16T07:43:07Z</time>
      </trkpt>
      <trkpt lat="38.2853270" lon="-3.6571060">
        <ele>417.6</ele>
        <time>2018-06-16T07:43:08Z</time>
      </trkpt>
      <trkpt lat="38.2853510" lon="-3.6571320">
        <ele>417.6</ele>
        <time>2018-06-16T07:43:09Z</time>
      </trkpt>
      <trkpt lat="38.2853760" lon="-3.6571610">
        <ele>417.6</ele>
        <time>2018-06-16T07:43:10Z</time>
      </trkpt>
      <trkpt lat="38.2854030" lon="-3.6571850">
        <ele>417.8</ele>
        <time>2018-06-16T07:43:11Z</time>
      </trkpt>
      <trkpt lat="38.2854330" lon="-3.6572060">
        <ele>417.8</ele>
        <time>2018-06-16T07:43:12Z</time>
      </trkpt>
      <trkpt lat="38.2854680" lon="-3.6572260">
        <ele>417.6</ele>
        <time>2018-06-16T07:43:13Z</time>
      </trkpt>
      <trkpt lat="38.2855040" lon="-3.6572490">
        <ele>417.4</ele>
        <time>2018-06-16T07:43:14Z</time>
      </trkpt>
      <trkpt lat="38.2855430" lon="-3.6572730">
        <ele>417.4</ele>
        <time>2018-06-16T07:43:15Z</time>
      </trkpt>
      <trkpt lat="38.2855820" lon="-3.6572990">
        <ele>417.4</ele>
        <time>2018-06-16T07:43:16Z</time>
      </trkpt>
      <trkpt lat="38.2856200" lon="-3.6573270">
        <ele>417.4</ele>
        <time>2018-06-16T07:43:17Z</time>
      </trkpt>
      <trkpt lat="38.2856570" lon="-3.6573610">
        <ele>417.4</ele>
        <time>2018-06-16T07:43:18Z</time>
      </trkpt>
      <trkpt lat="38.2856910" lon="-3.6573970">
        <ele>417.6</ele>
        <time>2018-06-16T07:43:19Z</time>
      </trkpt>
      <trkpt lat="38.2857210" lon="-3.6574400">
        <ele>417.6</ele>
        <time>2018-06-16T07:43:20Z</time>
      </trkpt>
      <trkpt lat="38.2857450" lon="-3.6574840">
        <ele>417.6</ele>
        <time>2018-06-16T07:43:21Z</time>
      </trkpt>
      <trkpt lat="38.2857450" lon="-3.6574840">
        <ele>417.8</ele>
        <time>2018-06-16T07:43:22Z</time>
      </trkpt>
      <trkpt lat="38.2857660" lon="-3.6575310">
        <ele>417.8</ele>
        <time>2018-06-16T07:43:23Z</time>
      </trkpt>
      <trkpt lat="38.2857810" lon="-3.6575830">
        <ele>417.8</ele>
        <time>2018-06-16T07:43:24Z</time>
      </trkpt>
      <trkpt lat="38.2857890" lon="-3.6576370">
        <ele>418.0</ele>
        <time>2018-06-16T07:43:25Z</time>
      </trkpt>
      <trkpt lat="38.2857910" lon="-3.6576910">
        <ele>418.0</ele>
        <time>2018-06-16T07:43:26Z</time>
      </trkpt>
      <trkpt lat="38.2857820" lon="-3.6577420">
        <ele>418.0</ele>
        <time>2018-06-16T07:43:27Z</time>
      </trkpt>
      <trkpt lat="38.2857730" lon="-3.6577960">
        <ele>418.2</ele>
        <time>2018-06-16T07:43:28Z</time>
      </trkpt>
      <trkpt lat="38.2857580" lon="-3.6578460">
        <ele>418.2</ele>
        <time>2018-06-16T07:43:29Z</time>
      </trkpt>
      <trkpt lat="38.2857380" lon="-3.6578880">
        <ele>418.4</ele>
        <time>2018-06-16T07:43:30Z</time>
      </trkpt>
      <trkpt lat="38.2856900" lon="-3.6579650">
        <ele>418.6</ele>
        <time>2018-06-16T07:43:31Z</time>
      </trkpt>
      <trkpt lat="38.2856670" lon="-3.6579960">
        <ele>418.8</ele>
        <time>2018-06-16T07:43:32Z</time>
      </trkpt>
      <trkpt lat="38.2856670" lon="-3.6579960">
        <ele>419.0</ele>
        <time>2018-06-16T07:43:33Z</time>
      </trkpt>
      <trkpt lat="38.2856170" lon="-3.6580470">
        <ele>419.4</ele>
        <time>2018-06-16T07:43:34Z</time>
      </trkpt>
      <trkpt lat="38.2855910" lon="-3.6580740">
        <ele>419.6</ele>
        <time>2018-06-16T07:43:35Z</time>
      </trkpt>
      <trkpt lat="38.2855690" lon="-3.6581010">
        <ele>420.0</ele>
        <time>2018-06-16T07:43:36Z</time>
      </trkpt>
      <trkpt lat="38.2855480" lon="-3.6581270">
        <ele>420.2</ele>
        <time>2018-06-16T07:43:37Z</time>
      </trkpt>
      <trkpt lat="38.2855280" lon="-3.6581540">
        <ele>420.4</ele>
        <time>2018-06-16T07:43:38Z</time>
      </trkpt>
      <trkpt lat="38.2855100" lon="-3.6581810">
        <ele>420.6</ele>
        <time>2018-06-16T07:43:39Z</time>
      </trkpt>
      <trkpt lat="38.2854900" lon="-3.6582120">
        <ele>420.8</ele>
        <time>2018-06-16T07:43:40Z</time>
      </trkpt>
      <trkpt lat="38.2854730" lon="-3.6582440">
        <ele>421.0</ele>
        <time>2018-06-16T07:43:41Z</time>
      </trkpt>
      <trkpt lat="38.2854550" lon="-3.6582770">
        <ele>421.4</ele>
        <time>2018-06-16T07:43:42Z</time>
      </trkpt>
      <trkpt lat="38.2854420" lon="-3.6583100">
        <ele>421.4</ele>
        <time>2018-06-16T07:43:43Z</time>
      </trkpt>
      <trkpt lat="38.2854270" lon="-3.6583420">
        <ele>421.8</ele>
        <time>2018-06-16T07:43:44Z</time>
      </trkpt>
      <trkpt lat="38.2854060" lon="-3.6583740">
        <ele>422.0</ele>
        <time>2018-06-16T07:43:45Z</time>
      </trkpt>
      <trkpt lat="38.2853920" lon="-3.6584100">
        <ele>422.0</ele>
        <time>2018-06-16T07:43:46Z</time>
      </trkpt>
      <trkpt lat="38.2853780" lon="-3.6584450">
        <ele>422.2</ele>
        <time>2018-06-16T07:43:47Z</time>
      </trkpt>
      <trkpt lat="38.2853640" lon="-3.6584810">
        <ele>422.2</ele>
        <time>2018-06-16T07:43:48Z</time>
      </trkpt>
      <trkpt lat="38.2853530" lon="-3.6585200">
        <ele>422.2</ele>
        <time>2018-06-16T07:43:49Z</time>
      </trkpt>
      <trkpt lat="38.2853430" lon="-3.6585600">
        <ele>422.4</ele>
        <time>2018-06-16T07:43:50Z</time>
      </trkpt>
      <trkpt lat="38.2853330" lon="-3.6586000">
        <ele>422.4</ele>
        <time>2018-06-16T07:43:51Z</time>
      </trkpt>
      <trkpt lat="38.2853260" lon="-3.6586390">
        <ele>422.4</ele>
        <time>2018-06-16T07:43:52Z</time>
      </trkpt>
      <trkpt lat="38.2853210" lon="-3.6586790">
        <ele>422.2</ele>
        <time>2018-06-16T07:43:53Z</time>
      </trkpt>
      <trkpt lat="38.2853150" lon="-3.6587210">
        <ele>422.0</ele>
        <time>2018-06-16T07:43:54Z</time>
      </trkpt>
      <trkpt lat="38.2853140" lon="-3.6587640">
        <ele>422.0</ele>
        <time>2018-06-16T07:43:55Z</time>
      </trkpt>
      <trkpt lat="38.2853110" lon="-3.6588110">
        <ele>422.0</ele>
        <time>2018-06-16T07:43:56Z</time>
      </trkpt>
      <trkpt lat="38.2853100" lon="-3.6588590">
        <ele>421.8</ele>
        <time>2018-06-16T07:43:57Z</time>
      </trkpt>
      <trkpt lat="38.2853070" lon="-3.6589090">
        <ele>421.8</ele>
        <time>2018-06-16T07:43:58Z</time>
      </trkpt>
      <trkpt lat="38.2853010" lon="-3.6589590">
        <ele>421.8</ele>
        <time>2018-06-16T07:43:59Z</time>
      </trkpt>
      <trkpt lat="38.2853010" lon="-3.6589590">
        <ele>421.6</ele>
        <time>2018-06-16T07:44:00Z</time>
      </trkpt>
      <trkpt lat="38.2852990" lon="-3.6590080">
        <ele>421.8</ele>
        <time>2018-06-16T07:44:01Z</time>
      </trkpt>
      <trkpt lat="38.2852960" lon="-3.6590570">
        <ele>421.8</ele>
        <time>2018-06-16T07:44:02Z</time>
      </trkpt>
      <trkpt lat="38.2852900" lon="-3.6591040">
        <ele>421.8</ele>
        <time>2018-06-16T07:44:03Z</time>
      </trkpt>
      <trkpt lat="38.2852840" lon="-3.6591480">
        <ele>421.8</ele>
        <time>2018-06-16T07:44:04Z</time>
      </trkpt>
      <trkpt lat="38.2852700" lon="-3.6592300">
        <ele>422.0</ele>
        <time>2018-06-16T07:44:05Z</time>
      </trkpt>
      <trkpt lat="38.2852700" lon="-3.6592300">
        <ele>422.0</ele>
        <time>2018-06-16T07:44:06Z</time>
      </trkpt>
      <trkpt lat="38.2852580" lon="-3.6593050">
        <ele>422.0</ele>
        <time>2018-06-16T07:44:07Z</time>
      </trkpt>
      <trkpt lat="38.2852450" lon="-3.6593500">
        <ele>422.0</ele>
        <time>2018-06-16T07:44:08Z</time>
      </trkpt>
      <trkpt lat="38.2852380" lon="-3.6593620">
        <ele>422.0</ele>
        <time>2018-06-16T07:44:09Z</time>
      </trkpt>
      <trkpt lat="38.2852180" lon="-3.6593940">
        <ele>422.0</ele>
        <time>2018-06-16T07:44:10Z</time>
      </trkpt>
      <trkpt lat="38.2852120" lon="-3.6594020">
        <ele>422.0</ele>
        <time>2018-06-16T07:44:11Z</time>
      </trkpt>
      <trkpt lat="38.2852080" lon="-3.6594080">
        <ele>422.0</ele>
        <time>2018-06-16T07:44:12Z</time>
      </trkpt>
      <trkpt lat="38.2852050" lon="-3.6594090">
        <ele>422.0</ele>
        <time>2018-06-16T07:44:13Z</time>
      </trkpt>
      <trkpt lat="38.2852030" lon="-3.6594090">
        <ele>422.0</ele>
        <time>2018-06-16T07:44:14Z</time>
      </trkpt>
      <trkpt lat="38.2852020" lon="-3.6594100">
        <ele>422.0</ele>
        <time>2018-06-16T07:44:15Z</time>
      </trkpt>
      <trkpt lat="38.2852010" lon="-3.6594110">
        <ele>422.0</ele>
        <time>2018-06-16T07:44:16Z</time>
      </trkpt>
      <trkpt lat="38.2852000" lon="-3.6594130">
        <ele>422.0</ele>
        <time>2018-06-16T07:44:17Z</time>
      </trkpt>
      <trkpt lat="38.2852000" lon="-3.6594130">
        <ele>422.0</ele>
        <time>2018-06-16T07:44:18Z</time>
      </trkpt>
      <trkpt lat="38.2851980" lon="-3.6594120">
        <ele>422.0</ele>
        <time>2018-06-16T07:44:19Z</time>
      </trkpt>
      <trkpt lat="38.2851980" lon="-3.6594120">
        <ele>422.0</ele>
        <time>2018-06-16T07:44:20Z</time>
      </trkpt>
      <trkpt lat="38.2851970" lon="-3.6594130">
        <ele>422.0</ele>
        <time>2018-06-16T07:44:21Z</time>
      </trkpt>
      <trkpt lat="38.2851960" lon="-3.6594140">
        <ele>422.0</ele>
        <time>2018-06-16T07:44:22Z</time>
      </trkpt>
      <trkpt lat="38.2851940" lon="-3.6594150">
        <ele>422.0</ele>
        <time>2018-06-16T07:44:23Z</time>
      </trkpt>
      <trkpt lat="38.2851850" lon="-3.6594980">
        <ele>421.6</ele>
        <time>2018-06-16T07:46:33Z</time>
      </trkpt>
      <trkpt lat="38.2851810" lon="-3.6595090">
        <ele>421.6</ele>
        <time>2018-06-16T07:46:34Z</time>
      </trkpt>
      <trkpt lat="38.2851790" lon="-3.6595210">
        <ele>421.6</ele>
        <time>2018-06-16T07:46:35Z</time>
      </trkpt>
      <trkpt lat="38.2851760" lon="-3.6595330">
        <ele>421.6</ele>
        <time>2018-06-16T07:46:36Z</time>
      </trkpt>
      <trkpt lat="38.2851730" lon="-3.6595510">
        <ele>421.6</ele>
        <time>2018-06-16T07:46:37Z</time>
      </trkpt>
      <trkpt lat="38.2851710" lon="-3.6595690">
        <ele>421.4</ele>
        <time>2018-06-16T07:46:38Z</time>
      </trkpt>
      <trkpt lat="38.2851690" lon="-3.6595910">
        <ele>421.4</ele>
        <time>2018-06-16T07:46:39Z</time>
      </trkpt>
      <trkpt lat="38.2851640" lon="-3.6596390">
        <ele>421.4</ele>
        <time>2018-06-16T07:46:40Z</time>
      </trkpt>
      <trkpt lat="38.2851620" lon="-3.6596580">
        <ele>421.2</ele>
        <time>2018-06-16T07:46:41Z</time>
      </trkpt>
      <trkpt lat="38.2851580" lon="-3.6597040">
        <ele>421.0</ele>
        <time>2018-06-16T07:46:42Z</time>
      </trkpt>
      <trkpt lat="38.2851550" lon="-3.6597550">
        <ele>420.8</ele>
        <time>2018-06-16T07:46:43Z</time>
      </trkpt>
      <trkpt lat="38.2851540" lon="-3.6598110">
        <ele>420.6</ele>
        <time>2018-06-16T07:46:44Z</time>
      </trkpt>
      <trkpt lat="38.2851530" lon="-3.6598730">
        <ele>420.2</ele>
        <time>2018-06-16T07:46:45Z</time>
      </trkpt>
      <trkpt lat="38.2851530" lon="-3.6599770">
        <ele>420.0</ele>
        <time>2018-06-16T07:46:46Z</time>
      </trkpt>
      <trkpt lat="38.2851530" lon="-3.6600130">
        <ele>419.6</ele>
        <time>2018-06-16T07:46:47Z</time>
      </trkpt>
      <trkpt lat="38.2851610" lon="-3.6600900">
        <ele>419.2</ele>
        <time>2018-06-16T07:46:48Z</time>
      </trkpt>
      <trkpt lat="38.2851760" lon="-3.6601710">
        <ele>418.6</ele>
        <time>2018-06-16T07:46:49Z</time>
      </trkpt>
      <trkpt lat="38.2851970" lon="-3.6602550">
        <ele>418.0</ele>
        <time>2018-06-16T07:46:50Z</time>
      </trkpt>
      <trkpt lat="38.2852220" lon="-3.6603470">
        <ele>417.4</ele>
        <time>2018-06-16T07:46:51Z</time>
      </trkpt>
      <trkpt lat="38.2852490" lon="-3.6604420">
        <ele>416.8</ele>
        <time>2018-06-16T07:46:52Z</time>
      </trkpt>
      <trkpt lat="38.2852790" lon="-3.6605400">
        <ele>416.4</ele>
        <time>2018-06-16T07:46:53Z</time>
      </trkpt>
      <trkpt lat="38.2853110" lon="-3.6606400">
        <ele>415.8</ele>
        <time>2018-06-16T07:46:54Z</time>
      </trkpt>
      <trkpt lat="38.2853510" lon="-3.6607400">
        <ele>415.2</ele>
        <time>2018-06-16T07:46:55Z</time>
      </trkpt>
      <trkpt lat="38.2854020" lon="-3.6608350">
        <ele>415.0</ele>
        <time>2018-06-16T07:46:56Z</time>
      </trkpt>
      <trkpt lat="38.2854590" lon="-3.6609320">
        <ele>414.2</ele>
        <time>2018-06-16T07:46:57Z</time>
      </trkpt>
      <trkpt lat="38.2855200" lon="-3.6610310">
        <ele>413.2</ele>
        <time>2018-06-16T07:46:58Z</time>
      </trkpt>
      <trkpt lat="38.2855830" lon="-3.6611330">
        <ele>412.8</ele>
        <time>2018-06-16T07:46:59Z</time>
      </trkpt>
      <trkpt lat="38.2856450" lon="-3.6612370">
        <ele>412.2</ele>
        <time>2018-06-16T07:47:00Z</time>
      </trkpt>
      <trkpt lat="38.2857110" lon="-3.6613430">
        <ele>411.6</ele>
        <time>2018-06-16T07:47:01Z</time>
      </trkpt>
      <trkpt lat="38.2857760" lon="-3.6614490">
        <ele>411.2</ele>
        <time>2018-06-16T07:47:02Z</time>
      </trkpt>
      <trkpt lat="38.2858420" lon="-3.6615560">
        <ele>410.6</ele>
        <time>2018-06-16T07:47:03Z</time>
      </trkpt>
      <trkpt lat="38.2859070" lon="-3.6616630">
        <ele>410.4</ele>
        <time>2018-06-16T07:47:04Z</time>
      </trkpt>
      <trkpt lat="38.2859710" lon="-3.6617640">
        <ele>410.6</ele>
        <time>2018-06-16T07:47:05Z</time>
      </trkpt>
      <trkpt lat="38.2860360" lon="-3.6618620">
        <ele>410.6</ele>
        <time>2018-06-16T07:47:06Z</time>
      </trkpt>
      <trkpt lat="38.2860980" lon="-3.6619590">
        <ele>410.6</ele>
        <time>2018-06-16T07:47:07Z</time>
      </trkpt>
      <trkpt lat="38.2861580" lon="-3.6620540">
        <ele>410.6</ele>
        <time>2018-06-16T07:47:08Z</time>
      </trkpt>
      <trkpt lat="38.2862170" lon="-3.6621440">
        <ele>410.8</ele>
        <time>2018-06-16T07:47:09Z</time>
      </trkpt>
      <trkpt lat="38.2862770" lon="-3.6622350">
        <ele>410.6</ele>
        <time>2018-06-16T07:47:10Z</time>
      </trkpt>
      <trkpt lat="38.2863380" lon="-3.6623270">
        <ele>410.4</ele>
        <time>2018-06-16T07:47:11Z</time>
      </trkpt>
      <trkpt lat="38.2863950" lon="-3.6624140">
        <ele>410.4</ele>
        <time>2018-06-16T07:47:12Z</time>
      </trkpt>
      <trkpt lat="38.2864540" lon="-3.6625030">
        <ele>410.4</ele>
        <time>2018-06-16T07:47:13Z</time>
      </trkpt>
      <trkpt lat="38.2865100" lon="-3.6625910">
        <ele>410.2</ele>
        <time>2018-06-16T07:47:14Z</time>
      </trkpt>
      <trkpt lat="38.2865610" lon="-3.6626770">
        <ele>410.2</ele>
        <time>2018-06-16T07:47:15Z</time>
      </trkpt>
      <trkpt lat="38.2866050" lon="-3.6627700">
        <ele>410.0</ele>
        <time>2018-06-16T07:47:16Z</time>
      </trkpt>
      <trkpt lat="38.2866450" lon="-3.6628720">
        <ele>410.0</ele>
        <time>2018-06-16T07:47:17Z</time>
      </trkpt>
      <trkpt lat="38.2866760" lon="-3.6629760">
        <ele>409.6</ele>
        <time>2018-06-16T07:47:18Z</time>
      </trkpt>
      <trkpt lat="38.2866980" lon="-3.6630880">
        <ele>409.4</ele>
        <time>2018-06-16T07:47:19Z</time>
      </trkpt>
      <trkpt lat="38.2866990" lon="-3.6631920">
        <ele>409.4</ele>
        <time>2018-06-16T07:47:20Z</time>
      </trkpt>
      <trkpt lat="38.2866900" lon="-3.6632910">
        <ele>409.6</ele>
        <time>2018-06-16T07:47:21Z</time>
      </trkpt>
      <trkpt lat="38.2866780" lon="-3.6633910">
        <ele>410.0</ele>
        <time>2018-06-16T07:47:22Z</time>
      </trkpt>
      <trkpt lat="38.2866590" lon="-3.6634840">
        <ele>410.0</ele>
        <time>2018-06-16T07:47:23Z</time>
      </trkpt>
      <trkpt lat="38.2866370" lon="-3.6635700">
        <ele>410.4</ele>
        <time>2018-06-16T07:47:24Z</time>
      </trkpt>
      <trkpt lat="38.2866090" lon="-3.6636530">
        <ele>410.6</ele>
        <time>2018-06-16T07:47:25Z</time>
      </trkpt>
      <trkpt lat="38.2865840" lon="-3.6637340">
        <ele>410.6</ele>
        <time>2018-06-16T07:47:26Z</time>
      </trkpt>
      <trkpt lat="38.2865560" lon="-3.6638130">
        <ele>411.0</ele>
        <time>2018-06-16T07:47:27Z</time>
      </trkpt>
      <trkpt lat="38.2865300" lon="-3.6638900">
        <ele>411.0</ele>
        <time>2018-06-16T07:47:28Z</time>
      </trkpt>
      <trkpt lat="38.2865020" lon="-3.6639640">
        <ele>411.0</ele>
        <time>2018-06-16T07:47:29Z</time>
      </trkpt>
      <trkpt lat="38.2864690" lon="-3.6640350">
        <ele>411.2</ele>
        <time>2018-06-16T07:47:30Z</time>
      </trkpt>
      <trkpt lat="38.2864340" lon="-3.6641040">
        <ele>411.2</ele>
        <time>2018-06-16T07:47:31Z</time>
      </trkpt>
      <trkpt lat="38.2863970" lon="-3.6641690">
        <ele>411.4</ele>
        <time>2018-06-16T07:47:32Z</time>
      </trkpt>
      <trkpt lat="38.2863640" lon="-3.6642260">
        <ele>411.6</ele>
        <time>2018-06-16T07:47:33Z</time>
      </trkpt>
      <trkpt lat="38.2863350" lon="-3.6642880">
        <ele>411.8</ele>
        <time>2018-06-16T07:47:34Z</time>
      </trkpt>
      <trkpt lat="38.2863050" lon="-3.6643520">
        <ele>412.0</ele>
        <time>2018-06-16T07:47:35Z</time>
      </trkpt>
      <trkpt lat="38.2862760" lon="-3.6644220">
        <ele>412.4</ele>
        <time>2018-06-16T07:47:36Z</time>
      </trkpt>
      <trkpt lat="38.2862520" lon="-3.6644940">
        <ele>412.6</ele>
        <time>2018-06-16T07:47:37Z</time>
      </trkpt>
      <trkpt lat="38.2862330" lon="-3.6645640">
        <ele>412.6</ele>
        <time>2018-06-16T07:47:38Z</time>
      </trkpt>
      <trkpt lat="38.2862170" lon="-3.6646370">
        <ele>412.8</ele>
        <time>2018-06-16T07:47:39Z</time>
      </trkpt>
      <trkpt lat="38.2862050" lon="-3.6647150">
        <ele>412.6</ele>
        <time>2018-06-16T07:47:40Z</time>
      </trkpt>
      <trkpt lat="38.2862110" lon="-3.6647920">
        <ele>412.6</ele>
        <time>2018-06-16T07:47:41Z</time>
      </trkpt>
      <trkpt lat="38.2862340" lon="-3.6648680">
        <ele>412.8</ele>
        <time>2018-06-16T07:47:42Z</time>
      </trkpt>
      <trkpt lat="38.2862680" lon="-3.6649270">
        <ele>412.8</ele>
        <time>2018-06-16T07:47:43Z</time>
      </trkpt>
      <trkpt lat="38.2863090" lon="-3.6649770">
        <ele>413.0</ele>
        <time>2018-06-16T07:47:44Z</time>
      </trkpt>
      <trkpt lat="38.2863550" lon="-3.6650220">
        <ele>413.2</ele>
        <time>2018-06-16T07:47:45Z</time>
      </trkpt>
      <trkpt lat="38.2864040" lon="-3.6650660">
        <ele>413.4</ele>
        <time>2018-06-16T07:47:46Z</time>
      </trkpt>
      <trkpt lat="38.2864470" lon="-3.6651010">
        <ele>413.8</ele>
        <time>2018-06-16T07:47:47Z</time>
      </trkpt>
      <trkpt lat="38.2864880" lon="-3.6651310">
        <ele>414.2</ele>
        <time>2018-06-16T07:47:48Z</time>
      </trkpt>
      <trkpt lat="38.2865280" lon="-3.6651590">
        <ele>414.4</ele>
        <time>2018-06-16T07:47:49Z</time>
      </trkpt>
      <trkpt lat="38.2865700" lon="-3.6651940">
        <ele>414.6</ele>
        <time>2018-06-16T07:47:50Z</time>
      </trkpt>
      <trkpt lat="38.2866120" lon="-3.6652290">
        <ele>415.0</ele>
        <time>2018-06-16T07:47:51Z</time>
      </trkpt>
      <trkpt lat="38.2866520" lon="-3.6652620">
        <ele>415.2</ele>
        <time>2018-06-16T07:47:52Z</time>
      </trkpt>
      <trkpt lat="38.2866920" lon="-3.6652920">
        <ele>415.4</ele>
        <time>2018-06-16T07:47:53Z</time>
      </trkpt>
      <trkpt lat="38.2867330" lon="-3.6653250">
        <ele>415.8</ele>
        <time>2018-06-16T07:47:54Z</time>
      </trkpt>
      <trkpt lat="38.2867720" lon="-3.6653550">
        <ele>416.0</ele>
        <time>2018-06-16T07:47:55Z</time>
      </trkpt>
      <trkpt lat="38.2868080" lon="-3.6653860">
        <ele>416.2</ele>
        <time>2018-06-16T07:47:56Z</time>
      </trkpt>
      <trkpt lat="38.2868460" lon="-3.6654140">
        <ele>416.6</ele>
        <time>2018-06-16T07:47:57Z</time>
      </trkpt>
      <trkpt lat="38.2868810" lon="-3.6654400">
        <ele>416.8</ele>
        <time>2018-06-16T07:47:58Z</time>
      </trkpt>
      <trkpt lat="38.2869050" lon="-3.6654690">
        <ele>417.0</ele>
        <time>2018-06-16T07:47:59Z</time>
      </trkpt>
      <trkpt lat="38.2869430" lon="-3.6655030">
        <ele>417.4</ele>
        <time>2018-06-16T07:48:00Z</time>
      </trkpt>
      <trkpt lat="38.2869780" lon="-3.6655410">
        <ele>417.4</ele>
        <time>2018-06-16T07:48:01Z</time>
      </trkpt>
      <trkpt lat="38.2870080" lon="-3.6655810">
        <ele>417.4</ele>
        <time>2018-06-16T07:48:02Z</time>
      </trkpt>
      <trkpt lat="38.2870370" lon="-3.6656190">
        <ele>417.6</ele>
        <time>2018-06-16T07:48:03Z</time>
      </trkpt>
      <trkpt lat="38.2870660" lon="-3.6656560">
        <ele>417.8</ele>
        <time>2018-06-16T07:48:04Z</time>
      </trkpt>
      <trkpt lat="38.2871060" lon="-3.6657060">
        <ele>418.0</ele>
        <time>2018-06-16T07:48:05Z</time>
      </trkpt>
      <trkpt lat="38.2871180" lon="-3.6657250">
        <ele>418.0</ele>
        <time>2018-06-16T07:48:06Z</time>
      </trkpt>
      <trkpt lat="38.2871470" lon="-3.6657670">
        <ele>418.0</ele>
        <time>2018-06-16T07:48:07Z</time>
      </trkpt>
      <trkpt lat="38.2871930" lon="-3.6658260">
        <ele>418.2</ele>
        <time>2018-06-16T07:48:08Z</time>
      </trkpt>
      <trkpt lat="38.2872100" lon="-3.6658470">
        <ele>418.2</ele>
        <time>2018-06-16T07:48:09Z</time>
      </trkpt>
      <trkpt lat="38.2872480" lon="-3.6658980">
        <ele>418.2</ele>
        <time>2018-06-16T07:48:10Z</time>
      </trkpt>
      <trkpt lat="38.2872850" lon="-3.6659400">
        <ele>418.2</ele>
        <time>2018-06-16T07:48:11Z</time>
      </trkpt>
      <trkpt lat="38.2873190" lon="-3.6659800">
        <ele>418.4</ele>
        <time>2018-06-16T07:48:12Z</time>
      </trkpt>
      <trkpt lat="38.2873490" lon="-3.6660270">
        <ele>418.4</ele>
        <time>2018-06-16T07:48:13Z</time>
      </trkpt>
      <trkpt lat="38.2873820" lon="-3.6660740">
        <ele>418.6</ele>
        <time>2018-06-16T07:48:14Z</time>
      </trkpt>
      <trkpt lat="38.2874140" lon="-3.6661180">
        <ele>418.8</ele>
        <time>2018-06-16T07:48:15Z</time>
      </trkpt>
      <trkpt lat="38.2874450" lon="-3.6661610">
        <ele>419.0</ele>
        <time>2018-06-16T07:48:16Z</time>
      </trkpt>
      <trkpt lat="38.2874740" lon="-3.6662020">
        <ele>419.0</ele>
        <time>2018-06-16T07:48:17Z</time>
      </trkpt>
      <trkpt lat="38.2875020" lon="-3.6662430">
        <ele>419.2</ele>
        <time>2018-06-16T07:48:18Z</time>
      </trkpt>
      <trkpt lat="38.2875260" lon="-3.6662720">
        <ele>419.2</ele>
        <time>2018-06-16T07:48:19Z</time>
      </trkpt>
      <trkpt lat="38.2875550" lon="-3.6663080">
        <ele>419.4</ele>
        <time>2018-06-16T07:48:20Z</time>
      </trkpt>
      <trkpt lat="38.2875840" lon="-3.6663450">
        <ele>419.4</ele>
        <time>2018-06-16T07:48:21Z</time>
      </trkpt>
      <trkpt lat="38.2876090" lon="-3.6663740">
        <ele>419.6</ele>
        <time>2018-06-16T07:48:22Z</time>
      </trkpt>
      <trkpt lat="38.2876360" lon="-3.6664040">
        <ele>419.6</ele>
        <time>2018-06-16T07:48:23Z</time>
      </trkpt>
      <trkpt lat="38.2876640" lon="-3.6664380">
        <ele>419.6</ele>
        <time>2018-06-16T07:48:24Z</time>
      </trkpt>
      <trkpt lat="38.2876950" lon="-3.6664800">
        <ele>419.6</ele>
        <time>2018-06-16T07:48:25Z</time>
      </trkpt>
      <trkpt lat="38.2877240" lon="-3.6665200">
        <ele>419.8</ele>
        <time>2018-06-16T07:48:26Z</time>
      </trkpt>
      <trkpt lat="38.2877560" lon="-3.6665630">
        <ele>419.8</ele>
        <time>2018-06-16T07:48:27Z</time>
      </trkpt>
      <trkpt lat="38.2877930" lon="-3.6666150">
        <ele>419.8</ele>
        <time>2018-06-16T07:48:28Z</time>
      </trkpt>
      <trkpt lat="38.2878290" lon="-3.6666740">
        <ele>420.0</ele>
        <time>2018-06-16T07:48:29Z</time>
      </trkpt>
      <trkpt lat="38.2878600" lon="-3.6667190">
        <ele>420.0</ele>
        <time>2018-06-16T07:48:30Z</time>
      </trkpt>
      <trkpt lat="38.2878900" lon="-3.6667600">
        <ele>420.0</ele>
        <time>2018-06-16T07:48:31Z</time>
      </trkpt>
      <trkpt lat="38.2879220" lon="-3.6668050">
        <ele>420.0</ele>
        <time>2018-06-16T07:48:32Z</time>
      </trkpt>
      <trkpt lat="38.2879550" lon="-3.6668530">
        <ele>420.2</ele>
        <time>2018-06-16T07:48:33Z</time>
      </trkpt>
      <trkpt lat="38.2879860" lon="-3.6668970">
        <ele>420.2</ele>
        <time>2018-06-16T07:48:34Z</time>
      </trkpt>
      <trkpt lat="38.2880190" lon="-3.6669470">
        <ele>420.4</ele>
        <time>2018-06-16T07:48:35Z</time>
      </trkpt>
      <trkpt lat="38.2880530" lon="-3.6669970">
        <ele>420.4</ele>
        <time>2018-06-16T07:48:36Z</time>
      </trkpt>
      <trkpt lat="38.2880860" lon="-3.6670420">
        <ele>420.4</ele>
        <time>2018-06-16T07:48:37Z</time>
      </trkpt>
      <trkpt lat="38.2881200" lon="-3.6670870">
        <ele>420.6</ele>
        <time>2018-06-16T07:48:38Z</time>
      </trkpt>
      <trkpt lat="38.2881530" lon="-3.6671280">
        <ele>420.8</ele>
        <time>2018-06-16T07:48:39Z</time>
      </trkpt>
      <trkpt lat="38.2882090" lon="-3.6671980">
        <ele>420.8</ele>
        <time>2018-06-16T07:48:40Z</time>
      </trkpt>
      <trkpt lat="38.2882330" lon="-3.6672250">
        <ele>421.0</ele>
        <time>2018-06-16T07:48:41Z</time>
      </trkpt>
      <trkpt lat="38.2882560" lon="-3.6672530">
        <ele>421.0</ele>
        <time>2018-06-16T07:48:42Z</time>
      </trkpt>
      <trkpt lat="38.2882940" lon="-3.6672970">
        <ele>421.0</ele>
        <time>2018-06-16T07:48:43Z</time>
      </trkpt>
      <trkpt lat="38.2883350" lon="-3.6673420">
        <ele>421.0</ele>
        <time>2018-06-16T07:48:44Z</time>
      </trkpt>
      <trkpt lat="38.2883750" lon="-3.6673830">
        <ele>421.2</ele>
        <time>2018-06-16T07:48:45Z</time>
      </trkpt>
      <trkpt lat="38.2884150" lon="-3.6674180">
        <ele>421.2</ele>
        <time>2018-06-16T07:48:46Z</time>
      </trkpt>
      <trkpt lat="38.2884550" lon="-3.6674550">
        <ele>421.4</ele>
        <time>2018-06-16T07:48:47Z</time>
      </trkpt>
      <trkpt lat="38.2884890" lon="-3.6674800">
        <ele>421.4</ele>
        <time>2018-06-16T07:48:48Z</time>
      </trkpt>
      <trkpt lat="38.2885300" lon="-3.6675220">
        <ele>421.6</ele>
        <time>2018-06-16T07:48:49Z</time>
      </trkpt>
      <trkpt lat="38.2885700" lon="-3.6675610">
        <ele>421.8</ele>
        <time>2018-06-16T07:48:50Z</time>
      </trkpt>
      <trkpt lat="38.2886080" lon="-3.6675970">
        <ele>421.8</ele>
        <time>2018-06-16T07:48:51Z</time>
      </trkpt>
      <trkpt lat="38.2886480" lon="-3.6676360">
        <ele>421.8</ele>
        <time>2018-06-16T07:48:52Z</time>
      </trkpt>
      <trkpt lat="38.2886890" lon="-3.6676750">
        <ele>422.0</ele>
        <time>2018-06-16T07:48:53Z</time>
      </trkpt>
      <trkpt lat="38.2887500" lon="-3.6677380">
        <ele>422.2</ele>
        <time>2018-06-16T07:48:54Z</time>
      </trkpt>
      <trkpt lat="38.2887690" lon="-3.6677580">
        <ele>422.2</ele>
        <time>2018-06-16T07:48:55Z</time>
      </trkpt>
      <trkpt lat="38.2888080" lon="-3.6677990">
        <ele>422.4</ele>
        <time>2018-06-16T07:48:56Z</time>
      </trkpt>
      <trkpt lat="38.2888440" lon="-3.6678340">
        <ele>422.4</ele>
        <time>2018-06-16T07:48:57Z</time>
      </trkpt>
      <trkpt lat="38.2888800" lon="-3.6678650">
        <ele>422.6</ele>
        <time>2018-06-16T07:48:58Z</time>
      </trkpt>
      <trkpt lat="38.2889190" lon="-3.6678980">
        <ele>422.8</ele>
        <time>2018-06-16T07:48:59Z</time>
      </trkpt>
      <trkpt lat="38.2889570" lon="-3.6679330">
        <ele>422.8</ele>
        <time>2018-06-16T07:49:00Z</time>
      </trkpt>
      <trkpt lat="38.2889970" lon="-3.6679670">
        <ele>422.8</ele>
        <time>2018-06-16T07:49:01Z</time>
      </trkpt>
      <trkpt lat="38.2890420" lon="-3.6680180">
        <ele>422.8</ele>
        <time>2018-06-16T07:49:02Z</time>
      </trkpt>
      <trkpt lat="38.2890830" lon="-3.6680580">
        <ele>423.0</ele>
        <time>2018-06-16T07:49:03Z</time>
      </trkpt>
      <trkpt lat="38.2891260" lon="-3.6681000">
        <ele>422.8</ele>
        <time>2018-06-16T07:49:04Z</time>
      </trkpt>
      <trkpt lat="38.2891690" lon="-3.6681400">
        <ele>423.0</ele>
        <time>2018-06-16T07:49:05Z</time>
      </trkpt>
      <trkpt lat="38.2892100" lon="-3.6681770">
        <ele>423.2</ele>
        <time>2018-06-16T07:49:06Z</time>
      </trkpt>
      <trkpt lat="38.2892500" lon="-3.6682150">
        <ele>423.2</ele>
        <time>2018-06-16T07:49:07Z</time>
      </trkpt>
      <trkpt lat="38.2892900" lon="-3.6682510">
        <ele>423.6</ele>
        <time>2018-06-16T07:49:08Z</time>
      </trkpt>
      <trkpt lat="38.2893290" lon="-3.6682860">
        <ele>423.8</ele>
        <time>2018-06-16T07:49:09Z</time>
      </trkpt>
      <trkpt lat="38.2893670" lon="-3.6683180">
        <ele>424.0</ele>
        <time>2018-06-16T07:49:10Z</time>
      </trkpt>
      <trkpt lat="38.2894060" lon="-3.6683520">
        <ele>424.4</ele>
        <time>2018-06-16T07:49:11Z</time>
      </trkpt>
      <trkpt lat="38.2894580" lon="-3.6683980">
        <ele>424.8</ele>
        <time>2018-06-16T07:49:12Z</time>
      </trkpt>
      <trkpt lat="38.2894740" lon="-3.6684120">
        <ele>425.2</ele>
        <time>2018-06-16T07:49:13Z</time>
      </trkpt>
      <trkpt lat="38.2895040" lon="-3.6684360">
        <ele>425.6</ele>
        <time>2018-06-16T07:49:14Z</time>
      </trkpt>
      <trkpt lat="38.2895400" lon="-3.6684610">
        <ele>426.0</ele>
        <time>2018-06-16T07:49:15Z</time>
      </trkpt>
      <trkpt lat="38.2895680" lon="-3.6684830">
        <ele>426.2</ele>
        <time>2018-06-16T07:49:16Z</time>
      </trkpt>
      <trkpt lat="38.2895960" lon="-3.6685020">
        <ele>426.6</ele>
        <time>2018-06-16T07:49:17Z</time>
      </trkpt>
      <trkpt lat="38.2896240" lon="-3.6685200">
        <ele>426.8</ele>
        <time>2018-06-16T07:49:18Z</time>
      </trkpt>
      <trkpt lat="38.2896530" lon="-3.6685370">
        <ele>427.2</ele>
        <time>2018-06-16T07:49:19Z</time>
      </trkpt>
      <trkpt lat="38.2896830" lon="-3.6685550">
        <ele>427.2</ele>
        <time>2018-06-16T07:49:20Z</time>
      </trkpt>
      <trkpt lat="38.2897120" lon="-3.6685720">
        <ele>427.6</ele>
        <time>2018-06-16T07:49:21Z</time>
      </trkpt>
      <trkpt lat="38.2897470" lon="-3.6685820">
        <ele>427.8</ele>
        <time>2018-06-16T07:49:22Z</time>
      </trkpt>
      <trkpt lat="38.2897770" lon="-3.6685950">
        <ele>428.0</ele>
        <time>2018-06-16T07:49:23Z</time>
      </trkpt>
      <trkpt lat="38.2898050" lon="-3.6686070">
        <ele>428.2</ele>
        <time>2018-06-16T07:49:24Z</time>
      </trkpt>
      <trkpt lat="38.2898350" lon="-3.6686170">
        <ele>428.4</ele>
        <time>2018-06-16T07:49:25Z</time>
      </trkpt>
      <trkpt lat="38.2898680" lon="-3.6686270">
        <ele>428.6</ele>
        <time>2018-06-16T07:49:26Z</time>
      </trkpt>
      <trkpt lat="38.2899010" lon="-3.6686370">
        <ele>428.6</ele>
        <time>2018-06-16T07:49:27Z</time>
      </trkpt>
      <trkpt lat="38.2899340" lon="-3.6686480">
        <ele>428.6</ele>
        <time>2018-06-16T07:49:28Z</time>
      </trkpt>
      <trkpt lat="38.2899740" lon="-3.6686520">
        <ele>428.6</ele>
        <time>2018-06-16T07:49:29Z</time>
      </trkpt>
      <trkpt lat="38.2900110" lon="-3.6686630">
        <ele>428.8</ele>
        <time>2018-06-16T07:49:30Z</time>
      </trkpt>
      <trkpt lat="38.2900480" lon="-3.6686730">
        <ele>428.8</ele>
        <time>2018-06-16T07:49:31Z</time>
      </trkpt>
      <trkpt lat="38.2900880" lon="-3.6686840">
        <ele>428.8</ele>
        <time>2018-06-16T07:49:32Z</time>
      </trkpt>
      <trkpt lat="38.2901200" lon="-3.6686960">
        <ele>429.0</ele>
        <time>2018-06-16T07:49:33Z</time>
      </trkpt>
      <trkpt lat="38.2901580" lon="-3.6687070">
        <ele>429.2</ele>
        <time>2018-06-16T07:49:34Z</time>
      </trkpt>
      <trkpt lat="38.2901940" lon="-3.6687190">
        <ele>429.2</ele>
        <time>2018-06-16T07:49:35Z</time>
      </trkpt>
      <trkpt lat="38.2902290" lon="-3.6687330">
        <ele>429.4</ele>
        <time>2018-06-16T07:49:36Z</time>
      </trkpt>
      <trkpt lat="38.2902590" lon="-3.6687450">
        <ele>429.6</ele>
        <time>2018-06-16T07:49:37Z</time>
      </trkpt>
      <trkpt lat="38.2902900" lon="-3.6687590">
        <ele>429.8</ele>
        <time>2018-06-16T07:49:38Z</time>
      </trkpt>
      <trkpt lat="38.2903190" lon="-3.6687730">
        <ele>430.0</ele>
        <time>2018-06-16T07:49:39Z</time>
      </trkpt>
      <trkpt lat="38.2903540" lon="-3.6687840">
        <ele>430.2</ele>
        <time>2018-06-16T07:49:40Z</time>
      </trkpt>
      <trkpt lat="38.2903890" lon="-3.6687930">
        <ele>430.2</ele>
        <time>2018-06-16T07:49:41Z</time>
      </trkpt>
      <trkpt lat="38.2904260" lon="-3.6688020">
        <ele>430.4</ele>
        <time>2018-06-16T07:49:42Z</time>
      </trkpt>
      <trkpt lat="38.2904620" lon="-3.6688120">
        <ele>430.4</ele>
        <time>2018-06-16T07:49:43Z</time>
      </trkpt>
      <trkpt lat="38.2905010" lon="-3.6688200">
        <ele>430.4</ele>
        <time>2018-06-16T07:49:44Z</time>
      </trkpt>
      <trkpt lat="38.2905400" lon="-3.6688270">
        <ele>430.4</ele>
        <time>2018-06-16T07:49:45Z</time>
      </trkpt>
      <trkpt lat="38.2905780" lon="-3.6688300">
        <ele>430.6</ele>
        <time>2018-06-16T07:49:46Z</time>
      </trkpt>
      <trkpt lat="38.2906140" lon="-3.6688330">
        <ele>430.4</ele>
        <time>2018-06-16T07:49:47Z</time>
      </trkpt>
      <trkpt lat="38.2906500" lon="-3.6688330">
        <ele>430.4</ele>
        <time>2018-06-16T07:49:48Z</time>
      </trkpt>
      <trkpt lat="38.2906910" lon="-3.6688330">
        <ele>430.4</ele>
        <time>2018-06-16T07:49:49Z</time>
      </trkpt>
      <trkpt lat="38.2907330" lon="-3.6688340">
        <ele>430.4</ele>
        <time>2018-06-16T07:49:50Z</time>
      </trkpt>
      <trkpt lat="38.2907760" lon="-3.6688320">
        <ele>430.6</ele>
        <time>2018-06-16T07:49:51Z</time>
      </trkpt>
      <trkpt lat="38.2908170" lon="-3.6688300">
        <ele>430.6</ele>
        <time>2018-06-16T07:49:52Z</time>
      </trkpt>
      <trkpt lat="38.2908590" lon="-3.6688300">
        <ele>430.6</ele>
        <time>2018-06-16T07:49:53Z</time>
      </trkpt>
      <trkpt lat="38.2908970" lon="-3.6688310">
        <ele>430.8</ele>
        <time>2018-06-16T07:49:54Z</time>
      </trkpt>
      <trkpt lat="38.2909290" lon="-3.6688330">
        <ele>431.0</ele>
        <time>2018-06-16T07:49:55Z</time>
      </trkpt>
      <trkpt lat="38.2909690" lon="-3.6688370">
        <ele>431.2</ele>
        <time>2018-06-16T07:49:56Z</time>
      </trkpt>
      <trkpt lat="38.2910070" lon="-3.6688450">
        <ele>431.4</ele>
        <time>2018-06-16T07:49:57Z</time>
      </trkpt>
      <trkpt lat="38.2910460" lon="-3.6688550">
        <ele>431.6</ele>
        <time>2018-06-16T07:49:58Z</time>
      </trkpt>
      <trkpt lat="38.2910830" lon="-3.6688610">
        <ele>431.8</ele>
        <time>2018-06-16T07:49:59Z</time>
      </trkpt>
      <trkpt lat="38.2911250" lon="-3.6688670">
        <ele>432.0</ele>
        <time>2018-06-16T07:50:00Z</time>
      </trkpt>
      <trkpt lat="38.2911590" lon="-3.6688790">
        <ele>432.2</ele>
        <time>2018-06-16T07:50:01Z</time>
      </trkpt>
      <trkpt lat="38.2911970" lon="-3.6688970">
        <ele>432.4</ele>
        <time>2018-06-16T07:50:02Z</time>
      </trkpt>
      <trkpt lat="38.2912350" lon="-3.6689150">
        <ele>432.4</ele>
        <time>2018-06-16T07:50:03Z</time>
      </trkpt>
      <trkpt lat="38.2912710" lon="-3.6689350">
        <ele>432.6</ele>
        <time>2018-06-16T07:50:04Z</time>
      </trkpt>
      <trkpt lat="38.2913090" lon="-3.6689520">
        <ele>432.8</ele>
        <time>2018-06-16T07:50:05Z</time>
      </trkpt>
      <trkpt lat="38.2913460" lon="-3.6689690">
        <ele>432.8</ele>
        <time>2018-06-16T07:50:06Z</time>
      </trkpt>
      <trkpt lat="38.2913820" lon="-3.6689870">
        <ele>433.0</ele>
        <time>2018-06-16T07:50:07Z</time>
      </trkpt>
      <trkpt lat="38.2914160" lon="-3.6690060">
        <ele>433.2</ele>
        <time>2018-06-16T07:50:08Z</time>
      </trkpt>
      <trkpt lat="38.2914540" lon="-3.6690220">
        <ele>433.0</ele>
        <time>2018-06-16T07:50:09Z</time>
      </trkpt>
      <trkpt lat="38.2914920" lon="-3.6690420">
        <ele>433.0</ele>
        <time>2018-06-16T07:50:10Z</time>
      </trkpt>
      <trkpt lat="38.2915330" lon="-3.6690630">
        <ele>433.0</ele>
        <time>2018-06-16T07:50:11Z</time>
      </trkpt>
      <trkpt lat="38.2915750" lon="-3.6690860">
        <ele>433.0</ele>
        <time>2018-06-16T07:50:12Z</time>
      </trkpt>
      <trkpt lat="38.2916180" lon="-3.6691100">
        <ele>432.8</ele>
        <time>2018-06-16T07:50:13Z</time>
      </trkpt>
      <trkpt lat="38.2916640" lon="-3.6691320">
        <ele>432.6</ele>
        <time>2018-06-16T07:50:14Z</time>
      </trkpt>
      <trkpt lat="38.2917130" lon="-3.6691570">
        <ele>432.4</ele>
        <time>2018-06-16T07:50:15Z</time>
      </trkpt>
      <trkpt lat="38.2917630" lon="-3.6691840">
        <ele>432.0</ele>
        <time>2018-06-16T07:50:16Z</time>
      </trkpt>
      <trkpt lat="38.2918150" lon="-3.6692110">
        <ele>432.0</ele>
        <time>2018-06-16T07:50:17Z</time>
      </trkpt>
      <trkpt lat="38.2918670" lon="-3.6692370">
        <ele>431.8</ele>
        <time>2018-06-16T07:50:18Z</time>
      </trkpt>
      <trkpt lat="38.2919190" lon="-3.6692590">
        <ele>431.8</ele>
        <time>2018-06-16T07:50:19Z</time>
      </trkpt>
      <trkpt lat="38.2919720" lon="-3.6692780">
        <ele>431.6</ele>
        <time>2018-06-16T07:50:20Z</time>
      </trkpt>
      <trkpt lat="38.2920260" lon="-3.6692950">
        <ele>431.6</ele>
        <time>2018-06-16T07:50:21Z</time>
      </trkpt>
      <trkpt lat="38.2920810" lon="-3.6693110">
        <ele>431.4</ele>
        <time>2018-06-16T07:50:22Z</time>
      </trkpt>
      <trkpt lat="38.2921370" lon="-3.6693180">
        <ele>431.2</ele>
        <time>2018-06-16T07:50:23Z</time>
      </trkpt>
      <trkpt lat="38.2921940" lon="-3.6693120">
        <ele>431.2</ele>
        <time>2018-06-16T07:50:24Z</time>
      </trkpt>
      <trkpt lat="38.2922520" lon="-3.6692950">
        <ele>430.8</ele>
        <time>2018-06-16T07:50:25Z</time>
      </trkpt>
      <trkpt lat="38.2923090" lon="-3.6692680">
        <ele>430.6</ele>
        <time>2018-06-16T07:50:26Z</time>
      </trkpt>
      <trkpt lat="38.2923630" lon="-3.6692360">
        <ele>430.6</ele>
        <time>2018-06-16T07:50:27Z</time>
      </trkpt>
      <trkpt lat="38.2924160" lon="-3.6692040">
        <ele>430.6</ele>
        <time>2018-06-16T07:50:28Z</time>
      </trkpt>
      <trkpt lat="38.2924680" lon="-3.6691740">
        <ele>430.4</ele>
        <time>2018-06-16T07:50:29Z</time>
      </trkpt>
      <trkpt lat="38.2925210" lon="-3.6691460">
        <ele>430.4</ele>
        <time>2018-06-16T07:50:30Z</time>
      </trkpt>
      <trkpt lat="38.2925760" lon="-3.6691230">
        <ele>430.4</ele>
        <time>2018-06-16T07:50:31Z</time>
      </trkpt>
      <trkpt lat="38.2926330" lon="-3.6691070">
        <ele>430.2</ele>
        <time>2018-06-16T07:50:32Z</time>
      </trkpt>
      <trkpt lat="38.2926920" lon="-3.6691010">
        <ele>430.2</ele>
        <time>2018-06-16T07:50:33Z</time>
      </trkpt>
      <trkpt lat="38.2927500" lon="-3.6691010">
        <ele>430.4</ele>
        <time>2018-06-16T07:50:34Z</time>
      </trkpt>
      <trkpt lat="38.2928060" lon="-3.6691050">
        <ele>430.4</ele>
        <time>2018-06-16T07:50:35Z</time>
      </trkpt>
      <trkpt lat="38.2928620" lon="-3.6691100">
        <ele>430.6</ele>
        <time>2018-06-16T07:50:36Z</time>
      </trkpt>
      <trkpt lat="38.2929160" lon="-3.6691170">
        <ele>430.8</ele>
        <time>2018-06-16T07:50:37Z</time>
      </trkpt>
      <trkpt lat="38.2929700" lon="-3.6691240">
        <ele>430.8</ele>
        <time>2018-06-16T07:50:38Z</time>
      </trkpt>
      <trkpt lat="38.2930240" lon="-3.6691310">
        <ele>431.0</ele>
        <time>2018-06-16T07:50:39Z</time>
      </trkpt>
      <trkpt lat="38.2930760" lon="-3.6691390">
        <ele>431.0</ele>
        <time>2018-06-16T07:50:40Z</time>
      </trkpt>
      <trkpt lat="38.2931280" lon="-3.6691480">
        <ele>431.2</ele>
        <time>2018-06-16T07:50:41Z</time>
      </trkpt>
      <trkpt lat="38.2931810" lon="-3.6691550">
        <ele>431.2</ele>
        <time>2018-06-16T07:50:42Z</time>
      </trkpt>
      <trkpt lat="38.2932330" lon="-3.6691630">
        <ele>431.2</ele>
        <time>2018-06-16T07:50:43Z</time>
      </trkpt>
      <trkpt lat="38.2932850" lon="-3.6691690">
        <ele>431.4</ele>
        <time>2018-06-16T07:50:44Z</time>
      </trkpt>
      <trkpt lat="38.2933360" lon="-3.6691750">
        <ele>431.6</ele>
        <time>2018-06-16T07:50:45Z</time>
      </trkpt>
      <trkpt lat="38.2933860" lon="-3.6691800">
        <ele>431.6</ele>
        <time>2018-06-16T07:50:46Z</time>
      </trkpt>
      <trkpt lat="38.2934350" lon="-3.6691870">
        <ele>431.6</ele>
        <time>2018-06-16T07:50:47Z</time>
      </trkpt>
      <trkpt lat="38.2934840" lon="-3.6691910">
        <ele>431.8</ele>
        <time>2018-06-16T07:50:48Z</time>
      </trkpt>
      <trkpt lat="38.2935340" lon="-3.6691950">
        <ele>431.8</ele>
        <time>2018-06-16T07:50:49Z</time>
      </trkpt>
      <trkpt lat="38.2935840" lon="-3.6692020">
        <ele>432.0</ele>
        <time>2018-06-16T07:50:50Z</time>
      </trkpt>
      <trkpt lat="38.2936330" lon="-3.6692110">
        <ele>432.0</ele>
        <time>2018-06-16T07:50:51Z</time>
      </trkpt>
      <trkpt lat="38.2936830" lon="-3.6692190">
        <ele>432.2</ele>
        <time>2018-06-16T07:50:52Z</time>
      </trkpt>
      <trkpt lat="38.2937280" lon="-3.6692280">
        <ele>432.2</ele>
        <time>2018-06-16T07:50:53Z</time>
      </trkpt>
      <trkpt lat="38.2937740" lon="-3.6692400">
        <ele>432.4</ele>
        <time>2018-06-16T07:50:54Z</time>
      </trkpt>
      <trkpt lat="38.2938190" lon="-3.6692570">
        <ele>432.6</ele>
        <time>2018-06-16T07:50:55Z</time>
      </trkpt>
      <trkpt lat="38.2938630" lon="-3.6692790">
        <ele>432.6</ele>
        <time>2018-06-16T07:50:56Z</time>
      </trkpt>
      <trkpt lat="38.2939050" lon="-3.6693020">
        <ele>432.8</ele>
        <time>2018-06-16T07:50:57Z</time>
      </trkpt>
      <trkpt lat="38.2939450" lon="-3.6693260">
        <ele>433.0</ele>
        <time>2018-06-16T07:50:58Z</time>
      </trkpt>
      <trkpt lat="38.2939870" lon="-3.6693510">
        <ele>433.0</ele>
        <time>2018-06-16T07:50:59Z</time>
      </trkpt>
      <trkpt lat="38.2940270" lon="-3.6693750">
        <ele>433.2</ele>
        <time>2018-06-16T07:51:00Z</time>
      </trkpt>
      <trkpt lat="38.2940690" lon="-3.6693970">
        <ele>433.4</ele>
        <time>2018-06-16T07:51:01Z</time>
      </trkpt>
      <trkpt lat="38.2941100" lon="-3.6694200">
        <ele>433.6</ele>
        <time>2018-06-16T07:51:02Z</time>
      </trkpt>
      <trkpt lat="38.2941490" lon="-3.6694430">
        <ele>433.6</ele>
        <time>2018-06-16T07:51:03Z</time>
      </trkpt>
      <trkpt lat="38.2941890" lon="-3.6694650">
        <ele>433.8</ele>
        <time>2018-06-16T07:51:04Z</time>
      </trkpt>
      <trkpt lat="38.2942300" lon="-3.6694860">
        <ele>434.0</ele>
        <time>2018-06-16T07:51:05Z</time>
      </trkpt>
      <trkpt lat="38.2942710" lon="-3.6695080">
        <ele>434.2</ele>
        <time>2018-06-16T07:51:06Z</time>
      </trkpt>
      <trkpt lat="38.2943130" lon="-3.6695310">
        <ele>434.4</ele>
        <time>2018-06-16T07:51:07Z</time>
      </trkpt>
      <trkpt lat="38.2943540" lon="-3.6695530">
        <ele>434.6</ele>
        <time>2018-06-16T07:51:08Z</time>
      </trkpt>
      <trkpt lat="38.2943930" lon="-3.6695770">
        <ele>434.8</ele>
        <time>2018-06-16T07:51:09Z</time>
      </trkpt>
      <trkpt lat="38.2944290" lon="-3.6696040">
        <ele>435.0</ele>
        <time>2018-06-16T07:51:10Z</time>
      </trkpt>
      <trkpt lat="38.2944650" lon="-3.6696340">
        <ele>435.0</ele>
        <time>2018-06-16T07:51:11Z</time>
      </trkpt>
      <trkpt lat="38.2945010" lon="-3.6696630">
        <ele>435.2</ele>
        <time>2018-06-16T07:51:12Z</time>
      </trkpt>
      <trkpt lat="38.2945360" lon="-3.6696920">
        <ele>435.4</ele>
        <time>2018-06-16T07:51:13Z</time>
      </trkpt>
      <trkpt lat="38.2945710" lon="-3.6697220">
        <ele>435.6</ele>
        <time>2018-06-16T07:51:14Z</time>
      </trkpt>
      <trkpt lat="38.2946040" lon="-3.6697530">
        <ele>435.6</ele>
        <time>2018-06-16T07:51:15Z</time>
      </trkpt>
      <trkpt lat="38.2946370" lon="-3.6697880">
        <ele>435.8</ele>
        <time>2018-06-16T07:51:16Z</time>
      </trkpt>
      <trkpt lat="38.2946700" lon="-3.6698230">
        <ele>435.8</ele>
        <time>2018-06-16T07:51:17Z</time>
      </trkpt>
      <trkpt lat="38.2947050" lon="-3.6698560">
        <ele>435.8</ele>
        <time>2018-06-16T07:51:18Z</time>
      </trkpt>
      <trkpt lat="38.2947370" lon="-3.6698890">
        <ele>436.0</ele>
        <time>2018-06-16T07:51:19Z</time>
      </trkpt>
      <trkpt lat="38.2947710" lon="-3.6699200">
        <ele>436.0</ele>
        <time>2018-06-16T07:51:20Z</time>
      </trkpt>
      <trkpt lat="38.2948040" lon="-3.6699530">
        <ele>436.2</ele>
        <time>2018-06-16T07:51:21Z</time>
      </trkpt>
      <trkpt lat="38.2948360" lon="-3.6699890">
        <ele>436.4</ele>
        <time>2018-06-16T07:51:22Z</time>
      </trkpt>
      <trkpt lat="38.2948660" lon="-3.6700240">
        <ele>436.8</ele>
        <time>2018-06-16T07:51:23Z</time>
      </trkpt>
      <trkpt lat="38.2949030" lon="-3.6700630">
        <ele>436.8</ele>
        <time>2018-06-16T07:51:24Z</time>
      </trkpt>
      <trkpt lat="38.2949340" lon="-3.6701010">
        <ele>437.0</ele>
        <time>2018-06-16T07:51:25Z</time>
      </trkpt>
      <trkpt lat="38.2949610" lon="-3.6701370">
        <ele>437.2</ele>
        <time>2018-06-16T07:51:26Z</time>
      </trkpt>
      <trkpt lat="38.2949840" lon="-3.6701780">
        <ele>437.4</ele>
        <time>2018-06-16T07:51:27Z</time>
      </trkpt>
      <trkpt lat="38.2950100" lon="-3.6702210">
        <ele>437.6</ele>
        <time>2018-06-16T07:51:28Z</time>
      </trkpt>
      <trkpt lat="38.2950360" lon="-3.6702640">
        <ele>437.6</ele>
        <time>2018-06-16T07:51:29Z</time>
      </trkpt>
      <trkpt lat="38.2950590" lon="-3.6703080">
        <ele>437.6</ele>
        <time>2018-06-16T07:51:30Z</time>
      </trkpt>
      <trkpt lat="38.2950800" lon="-3.6703550">
        <ele>437.8</ele>
        <time>2018-06-16T07:51:31Z</time>
      </trkpt>
      <trkpt lat="38.2951020" lon="-3.6704010">
        <ele>438.0</ele>
        <time>2018-06-16T07:51:32Z</time>
      </trkpt>
      <trkpt lat="38.2951220" lon="-3.6704480">
        <ele>438.0</ele>
        <time>2018-06-16T07:51:33Z</time>
      </trkpt>
      <trkpt lat="38.2951430" lon="-3.6704950">
        <ele>438.2</ele>
        <time>2018-06-16T07:51:34Z</time>
      </trkpt>
      <trkpt lat="38.2951630" lon="-3.6705410">
        <ele>438.2</ele>
        <time>2018-06-16T07:51:35Z</time>
      </trkpt>
      <trkpt lat="38.2951830" lon="-3.6705880">
        <ele>438.4</ele>
        <time>2018-06-16T07:51:36Z</time>
      </trkpt>
      <trkpt lat="38.2952020" lon="-3.6706350">
        <ele>438.6</ele>
        <time>2018-06-16T07:51:37Z</time>
      </trkpt>
      <trkpt lat="38.2952190" lon="-3.6706810">
        <ele>438.8</ele>
        <time>2018-06-16T07:51:38Z</time>
      </trkpt>
      <trkpt lat="38.2952370" lon="-3.6707270">
        <ele>439.0</ele>
        <time>2018-06-16T07:51:39Z</time>
      </trkpt>
      <trkpt lat="38.2952550" lon="-3.6707710">
        <ele>439.2</ele>
        <time>2018-06-16T07:51:40Z</time>
      </trkpt>
      <trkpt lat="38.2952740" lon="-3.6708190">
        <ele>439.4</ele>
        <time>2018-06-16T07:51:41Z</time>
      </trkpt>
      <trkpt lat="38.2952920" lon="-3.6708640">
        <ele>439.6</ele>
        <time>2018-06-16T07:51:42Z</time>
      </trkpt>
      <trkpt lat="38.2953110" lon="-3.6709090">
        <ele>439.8</ele>
        <time>2018-06-16T07:51:43Z</time>
      </trkpt>
      <trkpt lat="38.2953290" lon="-3.6709530">
        <ele>440.0</ele>
        <time>2018-06-16T07:51:44Z</time>
      </trkpt>
      <trkpt lat="38.2953470" lon="-3.6709960">
        <ele>440.2</ele>
        <time>2018-06-16T07:51:45Z</time>
      </trkpt>
      <trkpt lat="38.2953650" lon="-3.6710410">
        <ele>440.4</ele>
        <time>2018-06-16T07:51:46Z</time>
      </trkpt>
      <trkpt lat="38.2953820" lon="-3.6710830">
        <ele>440.4</ele>
        <time>2018-06-16T07:51:47Z</time>
      </trkpt>
      <trkpt lat="38.2953990" lon="-3.6711260">
        <ele>440.6</ele>
        <time>2018-06-16T07:51:48Z</time>
      </trkpt>
      <trkpt lat="38.2954160" lon="-3.6711680">
        <ele>440.8</ele>
        <time>2018-06-16T07:51:49Z</time>
      </trkpt>
      <trkpt lat="38.2954330" lon="-3.6712120">
        <ele>441.0</ele>
        <time>2018-06-16T07:51:50Z</time>
      </trkpt>
      <trkpt lat="38.2954490" lon="-3.6712550">
        <ele>441.2</ele>
        <time>2018-06-16T07:51:51Z</time>
      </trkpt>
      <trkpt lat="38.2954650" lon="-3.6712960">
        <ele>441.4</ele>
        <time>2018-06-16T07:51:52Z</time>
      </trkpt>
      <trkpt lat="38.2954830" lon="-3.6713370">
        <ele>441.6</ele>
        <time>2018-06-16T07:51:53Z</time>
      </trkpt>
      <trkpt lat="38.2955020" lon="-3.6713780">
        <ele>441.6</ele>
        <time>2018-06-16T07:51:54Z</time>
      </trkpt>
      <trkpt lat="38.2955190" lon="-3.6714200">
        <ele>441.8</ele>
        <time>2018-06-16T07:51:55Z</time>
      </trkpt>
      <trkpt lat="38.2955370" lon="-3.6714600">
        <ele>442.0</ele>
        <time>2018-06-16T07:51:56Z</time>
      </trkpt>
      <trkpt lat="38.2955580" lon="-3.6715020">
        <ele>442.2</ele>
        <time>2018-06-16T07:51:57Z</time>
      </trkpt>
      <trkpt lat="38.2955900" lon="-3.6715620">
        <ele>442.2</ele>
        <time>2018-06-16T07:51:58Z</time>
      </trkpt>
      <trkpt lat="38.2956000" lon="-3.6715820">
        <ele>442.4</ele>
        <time>2018-06-16T07:51:59Z</time>
      </trkpt>
      <trkpt lat="38.2956220" lon="-3.6716220">
        <ele>442.6</ele>
        <time>2018-06-16T07:52:00Z</time>
      </trkpt>
      <trkpt lat="38.2956440" lon="-3.6716600">
        <ele>442.8</ele>
        <time>2018-06-16T07:52:01Z</time>
      </trkpt>
      <trkpt lat="38.2956670" lon="-3.6716960">
        <ele>443.0</ele>
        <time>2018-06-16T07:52:02Z</time>
      </trkpt>
      <trkpt lat="38.2956890" lon="-3.6717310">
        <ele>443.0</ele>
        <time>2018-06-16T07:52:03Z</time>
      </trkpt>
      <trkpt lat="38.2957130" lon="-3.6717690">
        <ele>443.2</ele>
        <time>2018-06-16T07:52:04Z</time>
      </trkpt>
      <trkpt lat="38.2957370" lon="-3.6718060">
        <ele>443.2</ele>
        <time>2018-06-16T07:52:05Z</time>
      </trkpt>
      <trkpt lat="38.2957610" lon="-3.6718380">
        <ele>443.2</ele>
        <time>2018-06-16T07:52:06Z</time>
      </trkpt>
      <trkpt lat="38.2957870" lon="-3.6718740">
        <ele>443.4</ele>
        <time>2018-06-16T07:52:07Z</time>
      </trkpt>
      <trkpt lat="38.2958140" lon="-3.6719200">
        <ele>443.6</ele>
        <time>2018-06-16T07:52:08Z</time>
      </trkpt>
      <trkpt lat="38.2958410" lon="-3.6719610">
        <ele>443.6</ele>
        <time>2018-06-16T07:52:09Z</time>
      </trkpt>
      <trkpt lat="38.2958650" lon="-3.6719980">
        <ele>443.6</ele>
        <time>2018-06-16T07:52:10Z</time>
      </trkpt>
      <trkpt lat="38.2958870" lon="-3.6720360">
        <ele>443.8</ele>
        <time>2018-06-16T07:52:11Z</time>
      </trkpt>
      <trkpt lat="38.2959080" lon="-3.6720750">
        <ele>443.8</ele>
        <time>2018-06-16T07:52:12Z</time>
      </trkpt>
      <trkpt lat="38.2959280" lon="-3.6721160">
        <ele>444.0</ele>
        <time>2018-06-16T07:52:13Z</time>
      </trkpt>
      <trkpt lat="38.2959480" lon="-3.6721580">
        <ele>444.0</ele>
        <time>2018-06-16T07:52:14Z</time>
      </trkpt>
      <trkpt lat="38.2959670" lon="-3.6722010">
        <ele>444.2</ele>
        <time>2018-06-16T07:52:15Z</time>
      </trkpt>
      <trkpt lat="38.2959830" lon="-3.6722460">
        <ele>444.2</ele>
        <time>2018-06-16T07:52:16Z</time>
      </trkpt>
      <trkpt lat="38.2959960" lon="-3.6722930">
        <ele>444.2</ele>
        <time>2018-06-16T07:52:17Z</time>
      </trkpt>
      <trkpt lat="38.2960100" lon="-3.6723380">
        <ele>444.4</ele>
        <time>2018-06-16T07:52:18Z</time>
      </trkpt>
      <trkpt lat="38.2960230" lon="-3.6723850">
        <ele>444.4</ele>
        <time>2018-06-16T07:52:19Z</time>
      </trkpt>
      <trkpt lat="38.2960350" lon="-3.6724300">
        <ele>444.6</ele>
        <time>2018-06-16T07:52:20Z</time>
      </trkpt>
      <trkpt lat="38.2960440" lon="-3.6724790">
        <ele>444.6</ele>
        <time>2018-06-16T07:52:21Z</time>
      </trkpt>
      <trkpt lat="38.2960530" lon="-3.6725290">
        <ele>444.6</ele>
        <time>2018-06-16T07:52:22Z</time>
      </trkpt>
      <trkpt lat="38.2960590" lon="-3.6725790">
        <ele>444.8</ele>
        <time>2018-06-16T07:52:23Z</time>
      </trkpt>
      <trkpt lat="38.2960640" lon="-3.6726260">
        <ele>445.0</ele>
        <time>2018-06-16T07:52:24Z</time>
      </trkpt>
      <trkpt lat="38.2960690" lon="-3.6726740">
        <ele>445.0</ele>
        <time>2018-06-16T07:52:25Z</time>
      </trkpt>
      <trkpt lat="38.2960730" lon="-3.6727230">
        <ele>445.2</ele>
        <time>2018-06-16T07:52:26Z</time>
      </trkpt>
      <trkpt lat="38.2960770" lon="-3.6727720">
        <ele>445.4</ele>
        <time>2018-06-16T07:52:27Z</time>
      </trkpt>
      <trkpt lat="38.2960780" lon="-3.6728220">
        <ele>445.4</ele>
        <time>2018-06-16T07:52:28Z</time>
      </trkpt>
      <trkpt lat="38.2960790" lon="-3.6728710">
        <ele>445.6</ele>
        <time>2018-06-16T07:52:29Z</time>
      </trkpt>
      <trkpt lat="38.2960820" lon="-3.6729180">
        <ele>445.8</ele>
        <time>2018-06-16T07:52:30Z</time>
      </trkpt>
      <trkpt lat="38.2960850" lon="-3.6729650">
        <ele>445.8</ele>
        <time>2018-06-16T07:52:31Z</time>
      </trkpt>
      <trkpt lat="38.2960890" lon="-3.6730110">
        <ele>446.0</ele>
        <time>2018-06-16T07:52:32Z</time>
      </trkpt>
      <trkpt lat="38.2960920" lon="-3.6730580">
        <ele>446.2</ele>
        <time>2018-06-16T07:52:33Z</time>
      </trkpt>
      <trkpt lat="38.2960940" lon="-3.6731040">
        <ele>446.4</ele>
        <time>2018-06-16T07:52:34Z</time>
      </trkpt>
      <trkpt lat="38.2960970" lon="-3.6731500">
        <ele>446.4</ele>
        <time>2018-06-16T07:52:35Z</time>
      </trkpt>
      <trkpt lat="38.2960980" lon="-3.6731950">
        <ele>446.6</ele>
        <time>2018-06-16T07:52:36Z</time>
      </trkpt>
      <trkpt lat="38.2961000" lon="-3.6732420">
        <ele>447.0</ele>
        <time>2018-06-16T07:52:37Z</time>
      </trkpt>
      <trkpt lat="38.2961010" lon="-3.6732890">
        <ele>447.0</ele>
        <time>2018-06-16T07:52:38Z</time>
      </trkpt>
      <trkpt lat="38.2961040" lon="-3.6733340">
        <ele>447.2</ele>
        <time>2018-06-16T07:52:39Z</time>
      </trkpt>
      <trkpt lat="38.2961030" lon="-3.6733800">
        <ele>447.4</ele>
        <time>2018-06-16T07:52:40Z</time>
      </trkpt>
      <trkpt lat="38.2961000" lon="-3.6734240">
        <ele>447.6</ele>
        <time>2018-06-16T07:52:41Z</time>
      </trkpt>
      <trkpt lat="38.2960980" lon="-3.6734700">
        <ele>447.8</ele>
        <time>2018-06-16T07:52:42Z</time>
      </trkpt>
      <trkpt lat="38.2960940" lon="-3.6735150">
        <ele>448.0</ele>
        <time>2018-06-16T07:52:43Z</time>
      </trkpt>
      <trkpt lat="38.2960880" lon="-3.6735600">
        <ele>448.2</ele>
        <time>2018-06-16T07:52:44Z</time>
      </trkpt>
      <trkpt lat="38.2960800" lon="-3.6736050">
        <ele>448.2</ele>
        <time>2018-06-16T07:52:45Z</time>
      </trkpt>
      <trkpt lat="38.2960700" lon="-3.6736490">
        <ele>448.4</ele>
        <time>2018-06-16T07:52:46Z</time>
      </trkpt>
      <trkpt lat="38.2960630" lon="-3.6736940">
        <ele>448.6</ele>
        <time>2018-06-16T07:52:47Z</time>
      </trkpt>
      <trkpt lat="38.2960540" lon="-3.6737400">
        <ele>448.8</ele>
        <time>2018-06-16T07:52:48Z</time>
      </trkpt>
      <trkpt lat="38.2960440" lon="-3.6737820">
        <ele>449.0</ele>
        <time>2018-06-16T07:52:49Z</time>
      </trkpt>
      <trkpt lat="38.2960370" lon="-3.6738290">
        <ele>449.0</ele>
        <time>2018-06-16T07:52:50Z</time>
      </trkpt>
      <trkpt lat="38.2960250" lon="-3.6738990">
        <ele>449.2</ele>
        <time>2018-06-16T07:52:51Z</time>
      </trkpt>
      <trkpt lat="38.2960200" lon="-3.6739210">
        <ele>449.4</ele>
        <time>2018-06-16T07:52:52Z</time>
      </trkpt>
      <trkpt lat="38.2960100" lon="-3.6739650">
        <ele>449.6</ele>
        <time>2018-06-16T07:52:53Z</time>
      </trkpt>
      <trkpt lat="38.2959990" lon="-3.6740100">
        <ele>449.8</ele>
        <time>2018-06-16T07:52:54Z</time>
      </trkpt>
      <trkpt lat="38.2959920" lon="-3.6740570">
        <ele>449.8</ele>
        <time>2018-06-16T07:52:55Z</time>
      </trkpt>
      <trkpt lat="38.2959890" lon="-3.6741010">
        <ele>450.0</ele>
        <time>2018-06-16T07:52:56Z</time>
      </trkpt>
      <trkpt lat="38.2959850" lon="-3.6741480">
        <ele>450.2</ele>
        <time>2018-06-16T07:52:57Z</time>
      </trkpt>
      <trkpt lat="38.2959780" lon="-3.6741950">
        <ele>450.2</ele>
        <time>2018-06-16T07:52:58Z</time>
      </trkpt>
      <trkpt lat="38.2959720" lon="-3.6742410">
        <ele>450.6</ele>
        <time>2018-06-16T07:52:59Z</time>
      </trkpt>
      <trkpt lat="38.2959670" lon="-3.6742870">
        <ele>450.6</ele>
        <time>2018-06-16T07:53:00Z</time>
      </trkpt>
      <trkpt lat="38.2959610" lon="-3.6743340">
        <ele>450.8</ele>
        <time>2018-06-16T07:53:01Z</time>
      </trkpt>
      <trkpt lat="38.2959550" lon="-3.6743830">
        <ele>451.0</ele>
        <time>2018-06-16T07:53:02Z</time>
      </trkpt>
      <trkpt lat="38.2959490" lon="-3.6744310">
        <ele>451.0</ele>
        <time>2018-06-16T07:53:03Z</time>
      </trkpt>
      <trkpt lat="38.2959440" lon="-3.6744790">
        <ele>451.2</ele>
        <time>2018-06-16T07:53:04Z</time>
      </trkpt>
      <trkpt lat="38.2959390" lon="-3.6745270">
        <ele>451.4</ele>
        <time>2018-06-16T07:53:05Z</time>
      </trkpt>
      <trkpt lat="38.2959330" lon="-3.6745740">
        <ele>452.0</ele>
        <time>2018-06-16T07:53:06Z</time>
      </trkpt>
      <trkpt lat="38.2959280" lon="-3.6746210">
        <ele>452.0</ele>
        <time>2018-06-16T07:53:07Z</time>
      </trkpt>
      <trkpt lat="38.2959210" lon="-3.6746680">
        <ele>452.2</ele>
        <time>2018-06-16T07:53:08Z</time>
      </trkpt>
      <trkpt lat="38.2959160" lon="-3.6747140">
        <ele>452.2</ele>
        <time>2018-06-16T07:53:09Z</time>
      </trkpt>
      <trkpt lat="38.2959120" lon="-3.6747590">
        <ele>452.6</ele>
        <time>2018-06-16T07:53:10Z</time>
      </trkpt>
      <trkpt lat="38.2959090" lon="-3.6748040">
        <ele>452.6</ele>
        <time>2018-06-16T07:53:11Z</time>
      </trkpt>
      <trkpt lat="38.2959050" lon="-3.6748510">
        <ele>452.8</ele>
        <time>2018-06-16T07:53:12Z</time>
      </trkpt>
      <trkpt lat="38.2959010" lon="-3.6748980">
        <ele>453.0</ele>
        <time>2018-06-16T07:53:13Z</time>
      </trkpt>
      <trkpt lat="38.2958980" lon="-3.6749450">
        <ele>453.4</ele>
        <time>2018-06-16T07:53:14Z</time>
      </trkpt>
      <trkpt lat="38.2958920" lon="-3.6749900">
        <ele>453.4</ele>
        <time>2018-06-16T07:53:15Z</time>
      </trkpt>
      <trkpt lat="38.2958840" lon="-3.6750350">
        <ele>453.6</ele>
        <time>2018-06-16T07:53:16Z</time>
      </trkpt>
      <trkpt lat="38.2958790" lon="-3.6750810">
        <ele>453.8</ele>
        <time>2018-06-16T07:53:17Z</time>
      </trkpt>
      <trkpt lat="38.2958750" lon="-3.6751280">
        <ele>454.0</ele>
        <time>2018-06-16T07:53:18Z</time>
      </trkpt>
      <trkpt lat="38.2958740" lon="-3.6751740">
        <ele>454.0</ele>
        <time>2018-06-16T07:53:19Z</time>
      </trkpt>
      <trkpt lat="38.2958630" lon="-3.6752190">
        <ele>454.2</ele>
        <time>2018-06-16T07:53:20Z</time>
      </trkpt>
      <trkpt lat="38.2958560" lon="-3.6752660">
        <ele>454.4</ele>
        <time>2018-06-16T07:53:21Z</time>
      </trkpt>
      <trkpt lat="38.2958490" lon="-3.6753130">
        <ele>454.4</ele>
        <time>2018-06-16T07:53:22Z</time>
      </trkpt>
      <trkpt lat="38.2958440" lon="-3.6753600">
        <ele>454.6</ele>
        <time>2018-06-16T07:53:23Z</time>
      </trkpt>
      <trkpt lat="38.2958410" lon="-3.6754090">
        <ele>454.8</ele>
        <time>2018-06-16T07:53:24Z</time>
      </trkpt>
      <trkpt lat="38.2958370" lon="-3.6754560">
        <ele>454.8</ele>
        <time>2018-06-16T07:53:25Z</time>
      </trkpt>
      <trkpt lat="38.2958310" lon="-3.6755040">
        <ele>455.0</ele>
        <time>2018-06-16T07:53:26Z</time>
      </trkpt>
      <trkpt lat="38.2958260" lon="-3.6755510">
        <ele>455.2</ele>
        <time>2018-06-16T07:53:27Z</time>
      </trkpt>
      <trkpt lat="38.2958200" lon="-3.6755990">
        <ele>455.4</ele>
        <time>2018-06-16T07:53:28Z</time>
      </trkpt>
      <trkpt lat="38.2958140" lon="-3.6756470">
        <ele>455.4</ele>
        <time>2018-06-16T07:53:29Z</time>
      </trkpt>
      <trkpt lat="38.2958060" lon="-3.6756930">
        <ele>455.6</ele>
        <time>2018-06-16T07:53:30Z</time>
      </trkpt>
      <trkpt lat="38.2958000" lon="-3.6757390">
        <ele>455.8</ele>
        <time>2018-06-16T07:53:31Z</time>
      </trkpt>
      <trkpt lat="38.2957930" lon="-3.6757850">
        <ele>456.0</ele>
        <time>2018-06-16T07:53:32Z</time>
      </trkpt>
      <trkpt lat="38.2957870" lon="-3.6758320">
        <ele>456.2</ele>
        <time>2018-06-16T07:53:33Z</time>
      </trkpt>
      <trkpt lat="38.2957820" lon="-3.6758800">
        <ele>456.2</ele>
        <time>2018-06-16T07:53:34Z</time>
      </trkpt>
      <trkpt lat="38.2957760" lon="-3.6759270">
        <ele>456.2</ele>
        <time>2018-06-16T07:53:35Z</time>
      </trkpt>
      <trkpt lat="38.2957710" lon="-3.6759760">
        <ele>456.4</ele>
        <time>2018-06-16T07:53:36Z</time>
      </trkpt>
      <trkpt lat="38.2957640" lon="-3.6760240">
        <ele>456.6</ele>
        <time>2018-06-16T07:53:37Z</time>
      </trkpt>
      <trkpt lat="38.2957600" lon="-3.6760720">
        <ele>456.6</ele>
        <time>2018-06-16T07:53:38Z</time>
      </trkpt>
      <trkpt lat="38.2957550" lon="-3.6761190">
        <ele>456.8</ele>
        <time>2018-06-16T07:53:39Z</time>
      </trkpt>
      <trkpt lat="38.2957490" lon="-3.6761650">
        <ele>457.0</ele>
        <time>2018-06-16T07:53:40Z</time>
      </trkpt>
      <trkpt lat="38.2957440" lon="-3.6762110">
        <ele>457.2</ele>
        <time>2018-06-16T07:53:41Z</time>
      </trkpt>
      <trkpt lat="38.2957380" lon="-3.6762560">
        <ele>457.4</ele>
        <time>2018-06-16T07:53:42Z</time>
      </trkpt>
      <trkpt lat="38.2957310" lon="-3.6763020">
        <ele>457.6</ele>
        <time>2018-06-16T07:53:43Z</time>
      </trkpt>
      <trkpt lat="38.2957280" lon="-3.6763470">
        <ele>457.8</ele>
        <time>2018-06-16T07:53:44Z</time>
      </trkpt>
      <trkpt lat="38.2957240" lon="-3.6763930">
        <ele>457.8</ele>
        <time>2018-06-16T07:53:45Z</time>
      </trkpt>
      <trkpt lat="38.2957190" lon="-3.6764420">
        <ele>458.0</ele>
        <time>2018-06-16T07:53:46Z</time>
      </trkpt>
      <trkpt lat="38.2957160" lon="-3.6764910">
        <ele>458.0</ele>
        <time>2018-06-16T07:53:47Z</time>
      </trkpt>
      <trkpt lat="38.2957100" lon="-3.6765370">
        <ele>458.2</ele>
        <time>2018-06-16T07:53:48Z</time>
      </trkpt>
      <trkpt lat="38.2957080" lon="-3.6765820">
        <ele>458.4</ele>
        <time>2018-06-16T07:53:49Z</time>
      </trkpt>
      <trkpt lat="38.2957070" lon="-3.6766240">
        <ele>458.6</ele>
        <time>2018-06-16T07:53:50Z</time>
      </trkpt>
      <trkpt lat="38.2957090" lon="-3.6766680">
        <ele>458.6</ele>
        <time>2018-06-16T07:53:51Z</time>
      </trkpt>
      <trkpt lat="38.2957110" lon="-3.6767130">
        <ele>458.8</ele>
        <time>2018-06-16T07:53:52Z</time>
      </trkpt>
      <trkpt lat="38.2957140" lon="-3.6767590">
        <ele>459.0</ele>
        <time>2018-06-16T07:53:53Z</time>
      </trkpt>
      <trkpt lat="38.2957150" lon="-3.6768050">
        <ele>459.0</ele>
        <time>2018-06-16T07:53:54Z</time>
      </trkpt>
      <trkpt lat="38.2957160" lon="-3.6768490">
        <ele>459.2</ele>
        <time>2018-06-16T07:53:55Z</time>
      </trkpt>
      <trkpt lat="38.2957180" lon="-3.6768930">
        <ele>459.4</ele>
        <time>2018-06-16T07:53:56Z</time>
      </trkpt>
      <trkpt lat="38.2957250" lon="-3.6769360">
        <ele>459.4</ele>
        <time>2018-06-16T07:53:57Z</time>
      </trkpt>
      <trkpt lat="38.2957300" lon="-3.6769770">
        <ele>459.8</ele>
        <time>2018-06-16T07:53:58Z</time>
      </trkpt>
      <trkpt lat="38.2957370" lon="-3.6770130">
        <ele>460.0</ele>
        <time>2018-06-16T07:53:59Z</time>
      </trkpt>
      <trkpt lat="38.2957420" lon="-3.6770430">
        <ele>460.2</ele>
        <time>2018-06-16T07:54:00Z</time>
      </trkpt>
      <trkpt lat="38.2957510" lon="-3.6770770">
        <ele>460.2</ele>
        <time>2018-06-16T07:54:01Z</time>
      </trkpt>
      <trkpt lat="38.2957610" lon="-3.6771090">
        <ele>460.4</ele>
        <time>2018-06-16T07:54:02Z</time>
      </trkpt>
      <trkpt lat="38.2957730" lon="-3.6771420">
        <ele>460.6</ele>
        <time>2018-06-16T07:54:03Z</time>
      </trkpt>
      <trkpt lat="38.2957840" lon="-3.6771760">
        <ele>461.0</ele>
        <time>2018-06-16T07:54:04Z</time>
      </trkpt>
      <trkpt lat="38.2957950" lon="-3.6772090">
        <ele>461.2</ele>
        <time>2018-06-16T07:54:05Z</time>
      </trkpt>
      <trkpt lat="38.2958070" lon="-3.6772420">
        <ele>461.4</ele>
        <time>2018-06-16T07:54:06Z</time>
      </trkpt>
      <trkpt lat="38.2958230" lon="-3.6772750">
        <ele>461.6</ele>
        <time>2018-06-16T07:54:07Z</time>
      </trkpt>
      <trkpt lat="38.2958380" lon="-3.6773070">
        <ele>462.0</ele>
        <time>2018-06-16T07:54:08Z</time>
      </trkpt>
      <trkpt lat="38.2958540" lon="-3.6773370">
        <ele>462.0</ele>
        <time>2018-06-16T07:54:09Z</time>
      </trkpt>
      <trkpt lat="38.2958690" lon="-3.6773690">
        <ele>462.2</ele>
        <time>2018-06-16T07:54:10Z</time>
      </trkpt>
      <trkpt lat="38.2958840" lon="-3.6773990">
        <ele>462.4</ele>
        <time>2018-06-16T07:54:11Z</time>
      </trkpt>
      <trkpt lat="38.2958980" lon="-3.6774290">
        <ele>462.6</ele>
        <time>2018-06-16T07:54:12Z</time>
      </trkpt>
      <trkpt lat="38.2959110" lon="-3.6774580">
        <ele>462.8</ele>
        <time>2018-06-16T07:54:13Z</time>
      </trkpt>
      <trkpt lat="38.2959270" lon="-3.6774850">
        <ele>462.8</ele>
        <time>2018-06-16T07:54:14Z</time>
      </trkpt>
      <trkpt lat="38.2959410" lon="-3.6775150">
        <ele>463.2</ele>
        <time>2018-06-16T07:54:15Z</time>
      </trkpt>
      <trkpt lat="38.2959560" lon="-3.6775420">
        <ele>463.4</ele>
        <time>2018-06-16T07:54:16Z</time>
      </trkpt>
      <trkpt lat="38.2959700" lon="-3.6775670">
        <ele>463.4</ele>
        <time>2018-06-16T07:54:17Z</time>
      </trkpt>
      <trkpt lat="38.2959850" lon="-3.6775950">
        <ele>463.6</ele>
        <time>2018-06-16T07:54:18Z</time>
      </trkpt>
      <trkpt lat="38.2959990" lon="-3.6776170">
        <ele>463.8</ele>
        <time>2018-06-16T07:54:19Z</time>
      </trkpt>
      <trkpt lat="38.2960150" lon="-3.6776450">
        <ele>464.0</ele>
        <time>2018-06-16T07:54:20Z</time>
      </trkpt>
      <trkpt lat="38.2960340" lon="-3.6776710">
        <ele>464.2</ele>
        <time>2018-06-16T07:54:21Z</time>
      </trkpt>
      <trkpt lat="38.2960550" lon="-3.6776950">
        <ele>464.4</ele>
        <time>2018-06-16T07:54:22Z</time>
      </trkpt>
      <trkpt lat="38.2960760" lon="-3.6777200">
        <ele>464.4</ele>
        <time>2018-06-16T07:54:23Z</time>
      </trkpt>
      <trkpt lat="38.2960980" lon="-3.6777430">
        <ele>464.8</ele>
        <time>2018-06-16T07:54:24Z</time>
      </trkpt>
      <trkpt lat="38.2961210" lon="-3.6777640">
        <ele>464.8</ele>
        <time>2018-06-16T07:54:25Z</time>
      </trkpt>
      <trkpt lat="38.2961450" lon="-3.6777870">
        <ele>465.2</ele>
        <time>2018-06-16T07:54:26Z</time>
      </trkpt>
      <trkpt lat="38.2961680" lon="-3.6778060">
        <ele>465.2</ele>
        <time>2018-06-16T07:54:27Z</time>
      </trkpt>
      <trkpt lat="38.2961910" lon="-3.6778280">
        <ele>465.4</ele>
        <time>2018-06-16T07:54:28Z</time>
      </trkpt>
      <trkpt lat="38.2962120" lon="-3.6778490">
        <ele>465.6</ele>
        <time>2018-06-16T07:54:29Z</time>
      </trkpt>
      <trkpt lat="38.2962330" lon="-3.6778740">
        <ele>465.8</ele>
        <time>2018-06-16T07:54:30Z</time>
      </trkpt>
      <trkpt lat="38.2962560" lon="-3.6778960">
        <ele>465.8</ele>
        <time>2018-06-16T07:54:31Z</time>
      </trkpt>
      <trkpt lat="38.2962780" lon="-3.6779190">
        <ele>466.0</ele>
        <time>2018-06-16T07:54:32Z</time>
      </trkpt>
      <trkpt lat="38.2962980" lon="-3.6779410">
        <ele>466.2</ele>
        <time>2018-06-16T07:54:33Z</time>
      </trkpt>
      <trkpt lat="38.2963180" lon="-3.6779650">
        <ele>466.2</ele>
        <time>2018-06-16T07:54:34Z</time>
      </trkpt>
      <trkpt lat="38.2963410" lon="-3.6779920">
        <ele>466.4</ele>
        <time>2018-06-16T07:54:35Z</time>
      </trkpt>
      <trkpt lat="38.2963600" lon="-3.6780210">
        <ele>466.6</ele>
        <time>2018-06-16T07:54:36Z</time>
      </trkpt>
      <trkpt lat="38.2963770" lon="-3.6780450">
        <ele>466.8</ele>
        <time>2018-06-16T07:54:37Z</time>
      </trkpt>
      <trkpt lat="38.2963960" lon="-3.6780700">
        <ele>467.0</ele>
        <time>2018-06-16T07:54:38Z</time>
      </trkpt>
      <trkpt lat="38.2964160" lon="-3.6780960">
        <ele>467.0</ele>
        <time>2018-06-16T07:54:39Z</time>
      </trkpt>
      <trkpt lat="38.2964370" lon="-3.6781250">
        <ele>467.2</ele>
        <time>2018-06-16T07:54:40Z</time>
      </trkpt>
      <trkpt lat="38.2964530" lon="-3.6781430">
        <ele>467.4</ele>
        <time>2018-06-16T07:54:41Z</time>
      </trkpt>
      <trkpt lat="38.2964720" lon="-3.6781640">
        <ele>467.4</ele>
        <time>2018-06-16T07:54:42Z</time>
      </trkpt>
      <trkpt lat="38.2964930" lon="-3.6781880">
        <ele>467.6</ele>
        <time>2018-06-16T07:54:43Z</time>
      </trkpt>
      <trkpt lat="38.2965130" lon="-3.6782090">
        <ele>467.8</ele>
        <time>2018-06-16T07:54:44Z</time>
      </trkpt>
      <trkpt lat="38.2965320" lon="-3.6782300">
        <ele>467.8</ele>
        <time>2018-06-16T07:54:45Z</time>
      </trkpt>
      <trkpt lat="38.2965530" lon="-3.6782520">
        <ele>467.8</ele>
        <time>2018-06-16T07:54:46Z</time>
      </trkpt>
      <trkpt lat="38.2965760" lon="-3.6782720">
        <ele>468.0</ele>
        <time>2018-06-16T07:54:47Z</time>
      </trkpt>
      <trkpt lat="38.2966120" lon="-3.6782990">
        <ele>468.2</ele>
        <time>2018-06-16T07:54:48Z</time>
      </trkpt>
      <trkpt lat="38.2966230" lon="-3.6783090">
        <ele>468.4</ele>
        <time>2018-06-16T07:54:49Z</time>
      </trkpt>
      <trkpt lat="38.2966630" lon="-3.6783290">
        <ele>468.4</ele>
        <time>2018-06-16T07:54:50Z</time>
      </trkpt>
      <trkpt lat="38.2966760" lon="-3.6783350">
        <ele>468.6</ele>
        <time>2018-06-16T07:54:51Z</time>
      </trkpt>
      <trkpt lat="38.2967030" lon="-3.6783460">
        <ele>468.6</ele>
        <time>2018-06-16T07:54:52Z</time>
      </trkpt>
      <trkpt lat="38.2967310" lon="-3.6783560">
        <ele>468.8</ele>
        <time>2018-06-16T07:54:53Z</time>
      </trkpt>
      <trkpt lat="38.2967590" lon="-3.6783660">
        <ele>469.0</ele>
        <time>2018-06-16T07:54:54Z</time>
      </trkpt>
      <trkpt lat="38.2967890" lon="-3.6783780">
        <ele>469.0</ele>
        <time>2018-06-16T07:54:55Z</time>
      </trkpt>
      <trkpt lat="38.2968170" lon="-3.6783890">
        <ele>469.2</ele>
        <time>2018-06-16T07:54:56Z</time>
      </trkpt>
      <trkpt lat="38.2968460" lon="-3.6784010">
        <ele>469.4</ele>
        <time>2018-06-16T07:54:57Z</time>
      </trkpt>
      <trkpt lat="38.2968730" lon="-3.6784140">
        <ele>469.6</ele>
        <time>2018-06-16T07:54:58Z</time>
      </trkpt>
      <trkpt lat="38.2969010" lon="-3.6784260">
        <ele>469.8</ele>
        <time>2018-06-16T07:54:59Z</time>
      </trkpt>
      <trkpt lat="38.2969290" lon="-3.6784380">
        <ele>470.0</ele>
        <time>2018-06-16T07:55:00Z</time>
      </trkpt>
      <trkpt lat="38.2969580" lon="-3.6784500">
        <ele>470.0</ele>
        <time>2018-06-16T07:55:01Z</time>
      </trkpt>
      <trkpt lat="38.2969850" lon="-3.6784600">
        <ele>470.2</ele>
        <time>2018-06-16T07:55:02Z</time>
      </trkpt>
      <trkpt lat="38.2970100" lon="-3.6784730">
        <ele>470.4</ele>
        <time>2018-06-16T07:55:03Z</time>
      </trkpt>
      <trkpt lat="38.2970340" lon="-3.6784880">
        <ele>470.6</ele>
        <time>2018-06-16T07:55:04Z</time>
      </trkpt>
      <trkpt lat="38.2970570" lon="-3.6785040">
        <ele>470.8</ele>
        <time>2018-06-16T07:55:05Z</time>
      </trkpt>
      <trkpt lat="38.2970820" lon="-3.6785200">
        <ele>471.0</ele>
        <time>2018-06-16T07:55:06Z</time>
      </trkpt>
      <trkpt lat="38.2971060" lon="-3.6785350">
        <ele>471.0</ele>
        <time>2018-06-16T07:55:07Z</time>
      </trkpt>
      <trkpt lat="38.2971310" lon="-3.6785510">
        <ele>471.2</ele>
        <time>2018-06-16T07:55:08Z</time>
      </trkpt>
      <trkpt lat="38.2971570" lon="-3.6785680">
        <ele>471.4</ele>
        <time>2018-06-16T07:55:09Z</time>
      </trkpt>
      <trkpt lat="38.2971790" lon="-3.6785820">
        <ele>471.6</ele>
        <time>2018-06-16T07:55:10Z</time>
      </trkpt>
      <trkpt lat="38.2972000" lon="-3.6785990">
        <ele>471.8</ele>
        <time>2018-06-16T07:55:11Z</time>
      </trkpt>
      <trkpt lat="38.2972230" lon="-3.6786190">
        <ele>472.0</ele>
        <time>2018-06-16T07:55:12Z</time>
      </trkpt>
      <trkpt lat="38.2972460" lon="-3.6786400">
        <ele>472.2</ele>
        <time>2018-06-16T07:55:13Z</time>
      </trkpt>
      <trkpt lat="38.2972700" lon="-3.6786610">
        <ele>472.4</ele>
        <time>2018-06-16T07:55:14Z</time>
      </trkpt>
      <trkpt lat="38.2972910" lon="-3.6786820">
        <ele>472.6</ele>
        <time>2018-06-16T07:55:15Z</time>
      </trkpt>
      <trkpt lat="38.2973120" lon="-3.6786990">
        <ele>472.8</ele>
        <time>2018-06-16T07:55:16Z</time>
      </trkpt>
      <trkpt lat="38.2973360" lon="-3.6787170">
        <ele>473.0</ele>
        <time>2018-06-16T07:55:17Z</time>
      </trkpt>
      <trkpt lat="38.2973610" lon="-3.6787380">
        <ele>473.2</ele>
        <time>2018-06-16T07:55:18Z</time>
      </trkpt>
      <trkpt lat="38.2973850" lon="-3.6787550">
        <ele>473.2</ele>
        <time>2018-06-16T07:55:19Z</time>
      </trkpt>
      <trkpt lat="38.2974240" lon="-3.6787790">
        <ele>473.4</ele>
        <time>2018-06-16T07:55:20Z</time>
      </trkpt>
      <trkpt lat="38.2974370" lon="-3.6787880">
        <ele>473.6</ele>
        <time>2018-06-16T07:55:21Z</time>
      </trkpt>
      <trkpt lat="38.2974650" lon="-3.6788030">
        <ele>473.8</ele>
        <time>2018-06-16T07:55:22Z</time>
      </trkpt>
      <trkpt lat="38.2974950" lon="-3.6788160">
        <ele>473.8</ele>
        <time>2018-06-16T07:55:23Z</time>
      </trkpt>
      <trkpt lat="38.2975230" lon="-3.6788280">
        <ele>474.0</ele>
        <time>2018-06-16T07:55:24Z</time>
      </trkpt>
      <trkpt lat="38.2975500" lon="-3.6788380">
        <ele>474.0</ele>
        <time>2018-06-16T07:55:25Z</time>
      </trkpt>
      <trkpt lat="38.2975770" lon="-3.6788460">
        <ele>474.2</ele>
        <time>2018-06-16T07:55:26Z</time>
      </trkpt>
      <trkpt lat="38.2976050" lon="-3.6788520">
        <ele>474.2</ele>
        <time>2018-06-16T07:55:27Z</time>
      </trkpt>
      <trkpt lat="38.2976330" lon="-3.6788530">
        <ele>474.4</ele>
        <time>2018-06-16T07:55:28Z</time>
      </trkpt>
      <trkpt lat="38.2976620" lon="-3.6788550">
        <ele>474.4</ele>
        <time>2018-06-16T07:55:29Z</time>
      </trkpt>
      <trkpt lat="38.2976910" lon="-3.6788580">
        <ele>474.6</ele>
        <time>2018-06-16T07:55:30Z</time>
      </trkpt>
      <trkpt lat="38.2977190" lon="-3.6788600">
        <ele>474.6</ele>
        <time>2018-06-16T07:55:31Z</time>
      </trkpt>
      <trkpt lat="38.2977490" lon="-3.6788640">
        <ele>474.8</ele>
        <time>2018-06-16T07:55:32Z</time>
      </trkpt>
      <trkpt lat="38.2977780" lon="-3.6788680">
        <ele>475.0</ele>
        <time>2018-06-16T07:55:33Z</time>
      </trkpt>
      <trkpt lat="38.2978080" lon="-3.6788700">
        <ele>475.2</ele>
        <time>2018-06-16T07:55:34Z</time>
      </trkpt>
      <trkpt lat="38.2978360" lon="-3.6788710">
        <ele>475.4</ele>
        <time>2018-06-16T07:55:35Z</time>
      </trkpt>
      <trkpt lat="38.2978650" lon="-3.6788740">
        <ele>475.4</ele>
        <time>2018-06-16T07:55:36Z</time>
      </trkpt>
      <trkpt lat="38.2978940" lon="-3.6788760">
        <ele>475.6</ele>
        <time>2018-06-16T07:55:37Z</time>
      </trkpt>
      <trkpt lat="38.2979240" lon="-3.6788770">
        <ele>475.8</ele>
        <time>2018-06-16T07:55:38Z</time>
      </trkpt>
      <trkpt lat="38.2979530" lon="-3.6788780">
        <ele>475.8</ele>
        <time>2018-06-16T07:55:39Z</time>
      </trkpt>
      <trkpt lat="38.2979840" lon="-3.6788830">
        <ele>476.0</ele>
        <time>2018-06-16T07:55:40Z</time>
      </trkpt>
      <trkpt lat="38.2980120" lon="-3.6788890">
        <ele>476.2</ele>
        <time>2018-06-16T07:55:41Z</time>
      </trkpt>
      <trkpt lat="38.2980420" lon="-3.6788930">
        <ele>476.4</ele>
        <time>2018-06-16T07:55:42Z</time>
      </trkpt>
      <trkpt lat="38.2980740" lon="-3.6788950">
        <ele>476.6</ele>
        <time>2018-06-16T07:55:43Z</time>
      </trkpt>
      <trkpt lat="38.2981020" lon="-3.6788980">
        <ele>476.6</ele>
        <time>2018-06-16T07:55:44Z</time>
      </trkpt>
      <trkpt lat="38.2981310" lon="-3.6789010">
        <ele>477.0</ele>
        <time>2018-06-16T07:55:45Z</time>
      </trkpt>
      <trkpt lat="38.2981580" lon="-3.6789040">
        <ele>477.2</ele>
        <time>2018-06-16T07:55:46Z</time>
      </trkpt>
      <trkpt lat="38.2981870" lon="-3.6789100">
        <ele>477.2</ele>
        <time>2018-06-16T07:55:47Z</time>
      </trkpt>
      <trkpt lat="38.2982170" lon="-3.6789140">
        <ele>477.6</ele>
        <time>2018-06-16T07:55:48Z</time>
      </trkpt>
      <trkpt lat="38.2982440" lon="-3.6789180">
        <ele>477.8</ele>
        <time>2018-06-16T07:55:49Z</time>
      </trkpt>
      <trkpt lat="38.2982710" lon="-3.6789210">
        <ele>478.0</ele>
        <time>2018-06-16T07:55:50Z</time>
      </trkpt>
      <trkpt lat="38.2982990" lon="-3.6789220">
        <ele>478.2</ele>
        <time>2018-06-16T07:55:51Z</time>
      </trkpt>
      <trkpt lat="38.2983280" lon="-3.6789240">
        <ele>478.4</ele>
        <time>2018-06-16T07:55:52Z</time>
      </trkpt>
      <trkpt lat="38.2983540" lon="-3.6789290">
        <ele>478.8</ele>
        <time>2018-06-16T07:55:53Z</time>
      </trkpt>
      <trkpt lat="38.2983800" lon="-3.6789320">
        <ele>479.0</ele>
        <time>2018-06-16T07:55:54Z</time>
      </trkpt>
      <trkpt lat="38.2984050" lon="-3.6789380">
        <ele>479.2</ele>
        <time>2018-06-16T07:55:55Z</time>
      </trkpt>
      <trkpt lat="38.2984290" lon="-3.6789440">
        <ele>479.4</ele>
        <time>2018-06-16T07:55:56Z</time>
      </trkpt>
      <trkpt lat="38.2984540" lon="-3.6789490">
        <ele>479.6</ele>
        <time>2018-06-16T07:55:57Z</time>
      </trkpt>
      <trkpt lat="38.2984780" lon="-3.6789540">
        <ele>479.8</ele>
        <time>2018-06-16T07:55:58Z</time>
      </trkpt>
      <trkpt lat="38.2985020" lon="-3.6789600">
        <ele>480.0</ele>
        <time>2018-06-16T07:55:59Z</time>
      </trkpt>
      <trkpt lat="38.2985250" lon="-3.6789670">
        <ele>480.2</ele>
        <time>2018-06-16T07:56:00Z</time>
      </trkpt>
      <trkpt lat="38.2985490" lon="-3.6789760">
        <ele>480.4</ele>
        <time>2018-06-16T07:56:01Z</time>
      </trkpt>
      <trkpt lat="38.2985710" lon="-3.6789850">
        <ele>480.6</ele>
        <time>2018-06-16T07:56:02Z</time>
      </trkpt>
      <trkpt lat="38.2985940" lon="-3.6789930">
        <ele>480.6</ele>
        <time>2018-06-16T07:56:03Z</time>
      </trkpt>
      <trkpt lat="38.2986170" lon="-3.6790030">
        <ele>480.8</ele>
        <time>2018-06-16T07:56:04Z</time>
      </trkpt>
      <trkpt lat="38.2986380" lon="-3.6790110">
        <ele>481.0</ele>
        <time>2018-06-16T07:56:05Z</time>
      </trkpt>
      <trkpt lat="38.2986610" lon="-3.6790210">
        <ele>481.2</ele>
        <time>2018-06-16T07:56:06Z</time>
      </trkpt>
      <trkpt lat="38.2986830" lon="-3.6790290">
        <ele>481.4</ele>
        <time>2018-06-16T07:56:07Z</time>
      </trkpt>
      <trkpt lat="38.2987030" lon="-3.6790360">
        <ele>481.6</ele>
        <time>2018-06-16T07:56:08Z</time>
      </trkpt>
      <trkpt lat="38.2987240" lon="-3.6790420">
        <ele>481.8</ele>
        <time>2018-06-16T07:56:09Z</time>
      </trkpt>
      <trkpt lat="38.2987640" lon="-3.6790580">
        <ele>481.8</ele>
        <time>2018-06-16T07:56:10Z</time>
      </trkpt>
      <trkpt lat="38.2987820" lon="-3.6790660">
        <ele>482.0</ele>
        <time>2018-06-16T07:56:11Z</time>
      </trkpt>
      <trkpt lat="38.2988000" lon="-3.6790740">
        <ele>482.0</ele>
        <time>2018-06-16T07:56:12Z</time>
      </trkpt>
      <trkpt lat="38.2988180" lon="-3.6790830">
        <ele>482.2</ele>
        <time>2018-06-16T07:56:13Z</time>
      </trkpt>
      <trkpt lat="38.2988360" lon="-3.6790910">
        <ele>482.4</ele>
        <time>2018-06-16T07:56:14Z</time>
      </trkpt>
      <trkpt lat="38.2988540" lon="-3.6790990">
        <ele>482.6</ele>
        <time>2018-06-16T07:56:15Z</time>
      </trkpt>
      <trkpt lat="38.2988720" lon="-3.6791070">
        <ele>482.8</ele>
        <time>2018-06-16T07:56:16Z</time>
      </trkpt>
      <trkpt lat="38.2988930" lon="-3.6791160">
        <ele>483.0</ele>
        <time>2018-06-16T07:56:17Z</time>
      </trkpt>
      <trkpt lat="38.2989150" lon="-3.6791250">
        <ele>483.0</ele>
        <time>2018-06-16T07:56:18Z</time>
      </trkpt>
      <trkpt lat="38.2989340" lon="-3.6791320">
        <ele>483.2</ele>
        <time>2018-06-16T07:56:19Z</time>
      </trkpt>
      <trkpt lat="38.2989530" lon="-3.6791380">
        <ele>483.4</ele>
        <time>2018-06-16T07:56:20Z</time>
      </trkpt>
      <trkpt lat="38.2989750" lon="-3.6791510">
        <ele>483.6</ele>
        <time>2018-06-16T07:56:21Z</time>
      </trkpt>
      <trkpt lat="38.2989960" lon="-3.6791610">
        <ele>483.8</ele>
        <time>2018-06-16T07:56:22Z</time>
      </trkpt>
      <trkpt lat="38.2990160" lon="-3.6791670">
        <ele>484.0</ele>
        <time>2018-06-16T07:56:23Z</time>
      </trkpt>
      <trkpt lat="38.2990340" lon="-3.6791760">
        <ele>484.2</ele>
        <time>2018-06-16T07:56:24Z</time>
      </trkpt>
      <trkpt lat="38.2990540" lon="-3.6791790">
        <ele>484.4</ele>
        <time>2018-06-16T07:56:25Z</time>
      </trkpt>
      <trkpt lat="38.2990760" lon="-3.6791900">
        <ele>484.6</ele>
        <time>2018-06-16T07:56:26Z</time>
      </trkpt>
      <trkpt lat="38.2990970" lon="-3.6792030">
        <ele>484.8</ele>
        <time>2018-06-16T07:56:27Z</time>
      </trkpt>
      <trkpt lat="38.2991200" lon="-3.6792180">
        <ele>484.8</ele>
        <time>2018-06-16T07:56:28Z</time>
      </trkpt>
      <trkpt lat="38.2991420" lon="-3.6792290">
        <ele>485.2</ele>
        <time>2018-06-16T07:56:29Z</time>
      </trkpt>
      <trkpt lat="38.2991650" lon="-3.6792370">
        <ele>485.4</ele>
        <time>2018-06-16T07:56:30Z</time>
      </trkpt>
      <trkpt lat="38.2991880" lon="-3.6792490">
        <ele>485.6</ele>
        <time>2018-06-16T07:56:31Z</time>
      </trkpt>
      <trkpt lat="38.2992270" lon="-3.6792690">
        <ele>485.8</ele>
        <time>2018-06-16T07:56:32Z</time>
      </trkpt>
      <trkpt lat="38.2992440" lon="-3.6792780">
        <ele>486.0</ele>
        <time>2018-06-16T07:56:33Z</time>
      </trkpt>
      <trkpt lat="38.2992620" lon="-3.6792880">
        <ele>486.2</ele>
        <time>2018-06-16T07:56:34Z</time>
      </trkpt>
      <trkpt lat="38.2992790" lon="-3.6792970">
        <ele>486.4</ele>
        <time>2018-06-16T07:56:35Z</time>
      </trkpt>
      <trkpt lat="38.2992970" lon="-3.6793060">
        <ele>486.8</ele>
        <time>2018-06-16T07:56:36Z</time>
      </trkpt>
      <trkpt lat="38.2993360" lon="-3.6793220">
        <ele>487.0</ele>
        <time>2018-06-16T07:56:37Z</time>
      </trkpt>
      <trkpt lat="38.2993530" lon="-3.6793280">
        <ele>487.2</ele>
        <time>2018-06-16T07:56:38Z</time>
      </trkpt>
      <trkpt lat="38.2993710" lon="-3.6793340">
        <ele>487.4</ele>
        <time>2018-06-16T07:56:39Z</time>
      </trkpt>
      <trkpt lat="38.2993880" lon="-3.6793400">
        <ele>487.6</ele>
        <time>2018-06-16T07:56:40Z</time>
      </trkpt>
      <trkpt lat="38.2994060" lon="-3.6793460">
        <ele>487.8</ele>
        <time>2018-06-16T07:56:41Z</time>
      </trkpt>
      <trkpt lat="38.2994230" lon="-3.6793520">
        <ele>488.0</ele>
        <time>2018-06-16T07:56:42Z</time>
      </trkpt>
      <trkpt lat="38.2994440" lon="-3.6793610">
        <ele>488.2</ele>
        <time>2018-06-16T07:56:43Z</time>
      </trkpt>
      <trkpt lat="38.2994660" lon="-3.6793700">
        <ele>488.4</ele>
        <time>2018-06-16T07:56:44Z</time>
      </trkpt>
      <trkpt lat="38.2994880" lon="-3.6793800">
        <ele>488.6</ele>
        <time>2018-06-16T07:56:45Z</time>
      </trkpt>
      <trkpt lat="38.2995100" lon="-3.6793860">
        <ele>488.8</ele>
        <time>2018-06-16T07:56:46Z</time>
      </trkpt>
      <trkpt lat="38.2995330" lon="-3.6793910">
        <ele>489.0</ele>
        <time>2018-06-16T07:56:47Z</time>
      </trkpt>
      <trkpt lat="38.2995560" lon="-3.6794000">
        <ele>489.2</ele>
        <time>2018-06-16T07:56:48Z</time>
      </trkpt>
      <trkpt lat="38.2995760" lon="-3.6794070">
        <ele>489.4</ele>
        <time>2018-06-16T07:56:49Z</time>
      </trkpt>
      <trkpt lat="38.2995970" lon="-3.6794140">
        <ele>489.6</ele>
        <time>2018-06-16T07:56:50Z</time>
      </trkpt>
      <trkpt lat="38.2996210" lon="-3.6794190">
        <ele>489.8</ele>
        <time>2018-06-16T07:56:51Z</time>
      </trkpt>
      <trkpt lat="38.2996430" lon="-3.6794230">
        <ele>489.8</ele>
        <time>2018-06-16T07:56:52Z</time>
      </trkpt>
      <trkpt lat="38.2996650" lon="-3.6794290">
        <ele>490.2</ele>
        <time>2018-06-16T07:56:53Z</time>
      </trkpt>
      <trkpt lat="38.2996880" lon="-3.6794360">
        <ele>490.2</ele>
        <time>2018-06-16T07:56:54Z</time>
      </trkpt>
      <trkpt lat="38.2997120" lon="-3.6794450">
        <ele>490.4</ele>
        <time>2018-06-16T07:56:55Z</time>
      </trkpt>
      <trkpt lat="38.2997340" lon="-3.6794510">
        <ele>490.6</ele>
        <time>2018-06-16T07:56:56Z</time>
      </trkpt>
      <trkpt lat="38.2997540" lon="-3.6794580">
        <ele>490.8</ele>
        <time>2018-06-16T07:56:57Z</time>
      </trkpt>
      <trkpt lat="38.2997740" lon="-3.6794660">
        <ele>491.0</ele>
        <time>2018-06-16T07:56:58Z</time>
      </trkpt>
      <trkpt lat="38.2997930" lon="-3.6794710">
        <ele>491.4</ele>
        <time>2018-06-16T07:56:59Z</time>
      </trkpt>
      <trkpt lat="38.2998120" lon="-3.6794760">
        <ele>491.6</ele>
        <time>2018-06-16T07:57:00Z</time>
      </trkpt>
      <trkpt lat="38.2998350" lon="-3.6794830">
        <ele>491.8</ele>
        <time>2018-06-16T07:57:01Z</time>
      </trkpt>
      <trkpt lat="38.2998550" lon="-3.6794880">
        <ele>492.0</ele>
        <time>2018-06-16T07:57:02Z</time>
      </trkpt>
      <trkpt lat="38.2998770" lon="-3.6794940">
        <ele>492.2</ele>
        <time>2018-06-16T07:57:03Z</time>
      </trkpt>
      <trkpt lat="38.2998990" lon="-3.6795000">
        <ele>492.2</ele>
        <time>2018-06-16T07:57:04Z</time>
      </trkpt>
      <trkpt lat="38.2999240" lon="-3.6795130">
        <ele>492.4</ele>
        <time>2018-06-16T07:57:05Z</time>
      </trkpt>
      <trkpt lat="38.2999330" lon="-3.6795200">
        <ele>492.6</ele>
        <time>2018-06-16T07:57:06Z</time>
      </trkpt>
      <trkpt lat="38.2999550" lon="-3.6795340">
        <ele>492.8</ele>
        <time>2018-06-16T07:57:07Z</time>
      </trkpt>
      <trkpt lat="38.2999770" lon="-3.6795440">
        <ele>493.0</ele>
        <time>2018-06-16T07:57:08Z</time>
      </trkpt>
      <trkpt lat="38.3000000" lon="-3.6795560">
        <ele>493.2</ele>
        <time>2018-06-16T07:57:09Z</time>
      </trkpt>
      <trkpt lat="38.3000230" lon="-3.6795730">
        <ele>493.4</ele>
        <time>2018-06-16T07:57:10Z</time>
      </trkpt>
      <trkpt lat="38.3000440" lon="-3.6795860">
        <ele>493.6</ele>
        <time>2018-06-16T07:57:11Z</time>
      </trkpt>
      <trkpt lat="38.3000650" lon="-3.6795970">
        <ele>493.8</ele>
        <time>2018-06-16T07:57:12Z</time>
      </trkpt>
      <trkpt lat="38.3000860" lon="-3.6796110">
        <ele>493.8</ele>
        <time>2018-06-16T07:57:13Z</time>
      </trkpt>
      <trkpt lat="38.3001170" lon="-3.6796280">
        <ele>494.2</ele>
        <time>2018-06-16T07:57:14Z</time>
      </trkpt>
      <trkpt lat="38.3001270" lon="-3.6796350">
        <ele>494.4</ele>
        <time>2018-06-16T07:57:15Z</time>
      </trkpt>
      <trkpt lat="38.3001470" lon="-3.6796480">
        <ele>494.4</ele>
        <time>2018-06-16T07:57:16Z</time>
      </trkpt>
      <trkpt lat="38.3001660" lon="-3.6796600">
        <ele>494.6</ele>
        <time>2018-06-16T07:57:17Z</time>
      </trkpt>
      <trkpt lat="38.3001880" lon="-3.6796730">
        <ele>495.0</ele>
        <time>2018-06-16T07:57:18Z</time>
      </trkpt>
      <trkpt lat="38.3002100" lon="-3.6796840">
        <ele>495.2</ele>
        <time>2018-06-16T07:57:19Z</time>
      </trkpt>
      <trkpt lat="38.3002330" lon="-3.6796940">
        <ele>495.4</ele>
        <time>2018-06-16T07:57:20Z</time>
      </trkpt>
      <trkpt lat="38.3002530" lon="-3.6797000">
        <ele>495.6</ele>
        <time>2018-06-16T07:57:21Z</time>
      </trkpt>
      <trkpt lat="38.3002720" lon="-3.6797090">
        <ele>495.8</ele>
        <time>2018-06-16T07:57:22Z</time>
      </trkpt>
      <trkpt lat="38.3002920" lon="-3.6797200">
        <ele>496.0</ele>
        <time>2018-06-16T07:57:23Z</time>
      </trkpt>
      <trkpt lat="38.3003130" lon="-3.6797320">
        <ele>496.2</ele>
        <time>2018-06-16T07:57:24Z</time>
      </trkpt>
      <trkpt lat="38.3003330" lon="-3.6797440">
        <ele>496.4</ele>
        <time>2018-06-16T07:57:25Z</time>
      </trkpt>
      <trkpt lat="38.3003530" lon="-3.6797530">
        <ele>496.6</ele>
        <time>2018-06-16T07:57:26Z</time>
      </trkpt>
      <trkpt lat="38.3003730" lon="-3.6797630">
        <ele>497.0</ele>
        <time>2018-06-16T07:57:27Z</time>
      </trkpt>
      <trkpt lat="38.3003910" lon="-3.6797710">
        <ele>497.2</ele>
        <time>2018-06-16T07:57:28Z</time>
      </trkpt>
      <trkpt lat="38.3004050" lon="-3.6797790">
        <ele>497.4</ele>
        <time>2018-06-16T07:57:29Z</time>
      </trkpt>
      <trkpt lat="38.3004190" lon="-3.6797880">
        <ele>497.6</ele>
        <time>2018-06-16T07:57:30Z</time>
      </trkpt>
      <trkpt lat="38.3004360" lon="-3.6797950">
        <ele>498.0</ele>
        <time>2018-06-16T07:57:31Z</time>
      </trkpt>
      <trkpt lat="38.3004510" lon="-3.6798070">
        <ele>498.0</ele>
        <time>2018-06-16T07:57:32Z</time>
      </trkpt>
      <trkpt lat="38.3004670" lon="-3.6798200">
        <ele>498.2</ele>
        <time>2018-06-16T07:57:33Z</time>
      </trkpt>
      <trkpt lat="38.3004850" lon="-3.6798250">
        <ele>498.6</ele>
        <time>2018-06-16T07:57:34Z</time>
      </trkpt>
      <trkpt lat="38.3005050" lon="-3.6798270">
        <ele>498.8</ele>
        <time>2018-06-16T07:57:35Z</time>
      </trkpt>
      <trkpt lat="38.3005240" lon="-3.6798300">
        <ele>499.0</ele>
        <time>2018-06-16T07:57:36Z</time>
      </trkpt>
      <trkpt lat="38.3005440" lon="-3.6798360">
        <ele>499.4</ele>
        <time>2018-06-16T07:57:37Z</time>
      </trkpt>
      <trkpt lat="38.3005610" lon="-3.6798420">
        <ele>499.4</ele>
        <time>2018-06-16T07:57:38Z</time>
      </trkpt>
      <trkpt lat="38.3005790" lon="-3.6798450">
        <ele>499.6</ele>
        <time>2018-06-16T07:57:39Z</time>
      </trkpt>
      <trkpt lat="38.3005940" lon="-3.6798450">
        <ele>499.8</ele>
        <time>2018-06-16T07:57:40Z</time>
      </trkpt>
      <trkpt lat="38.3006210" lon="-3.6798390">
        <ele>500.0</ele>
        <time>2018-06-16T07:57:41Z</time>
      </trkpt>
      <trkpt lat="38.3006300" lon="-3.6798350">
        <ele>500.2</ele>
        <time>2018-06-16T07:57:42Z</time>
      </trkpt>
      <trkpt lat="38.3006490" lon="-3.6798300">
        <ele>500.4</ele>
        <time>2018-06-16T07:57:43Z</time>
      </trkpt>
      <trkpt lat="38.3006680" lon="-3.6798300">
        <ele>500.8</ele>
        <time>2018-06-16T07:57:44Z</time>
      </trkpt>
      <trkpt lat="38.3006860" lon="-3.6798350">
        <ele>500.8</ele>
        <time>2018-06-16T07:57:45Z</time>
      </trkpt>
      <trkpt lat="38.3007070" lon="-3.6798360">
        <ele>501.0</ele>
        <time>2018-06-16T07:57:46Z</time>
      </trkpt>
      <trkpt lat="38.3007290" lon="-3.6798330">
        <ele>501.2</ele>
        <time>2018-06-16T07:57:47Z</time>
      </trkpt>
      <trkpt lat="38.3007500" lon="-3.6798270">
        <ele>501.2</ele>
        <time>2018-06-16T07:57:48Z</time>
      </trkpt>
      <trkpt lat="38.3007730" lon="-3.6798180">
        <ele>501.4</ele>
        <time>2018-06-16T07:57:49Z</time>
      </trkpt>
      <trkpt lat="38.3007810" lon="-3.6798160">
        <ele>501.6</ele>
        <time>2018-06-16T07:57:50Z</time>
      </trkpt>
      <trkpt lat="38.3008030" lon="-3.6798160">
        <ele>501.6</ele>
        <time>2018-06-16T07:57:51Z</time>
      </trkpt>
      <trkpt lat="38.3008100" lon="-3.6798170">
        <ele>502.0</ele>
        <time>2018-06-16T07:57:52Z</time>
      </trkpt>
      <trkpt lat="38.3008300" lon="-3.6798170">
        <ele>502.2</ele>
        <time>2018-06-16T07:57:53Z</time>
      </trkpt>
      <trkpt lat="38.3008470" lon="-3.6798170">
        <ele>502.2</ele>
        <time>2018-06-16T07:57:54Z</time>
      </trkpt>
      <trkpt lat="38.3008700" lon="-3.6798100">
        <ele>502.4</ele>
        <time>2018-06-16T07:57:55Z</time>
      </trkpt>
      <trkpt lat="38.3008900" lon="-3.6798010">
        <ele>502.6</ele>
        <time>2018-06-16T07:57:56Z</time>
      </trkpt>
      <trkpt lat="38.3009090" lon="-3.6797950">
        <ele>502.8</ele>
        <time>2018-06-16T07:57:57Z</time>
      </trkpt>
      <trkpt lat="38.3009310" lon="-3.6797930">
        <ele>502.8</ele>
        <time>2018-06-16T07:57:58Z</time>
      </trkpt>
      <trkpt lat="38.3009510" lon="-3.6797950">
        <ele>503.0</ele>
        <time>2018-06-16T07:57:59Z</time>
      </trkpt>
      <trkpt lat="38.3009680" lon="-3.6797950">
        <ele>503.2</ele>
        <time>2018-06-16T07:58:00Z</time>
      </trkpt>
      <trkpt lat="38.3009880" lon="-3.6797890">
        <ele>503.2</ele>
        <time>2018-06-16T07:58:01Z</time>
      </trkpt>
      <trkpt lat="38.3010090" lon="-3.6797840">
        <ele>503.4</ele>
        <time>2018-06-16T07:58:02Z</time>
      </trkpt>
      <trkpt lat="38.3010290" lon="-3.6797790">
        <ele>503.8</ele>
        <time>2018-06-16T07:58:03Z</time>
      </trkpt>
      <trkpt lat="38.3010490" lon="-3.6797750">
        <ele>503.8</ele>
        <time>2018-06-16T07:58:04Z</time>
      </trkpt>
      <trkpt lat="38.3010710" lon="-3.6797750">
        <ele>503.8</ele>
        <time>2018-06-16T07:58:05Z</time>
      </trkpt>
      <trkpt lat="38.3010890" lon="-3.6797770">
        <ele>504.0</ele>
        <time>2018-06-16T07:58:06Z</time>
      </trkpt>
      <trkpt lat="38.3011190" lon="-3.6797820">
        <ele>504.4</ele>
        <time>2018-06-16T07:58:07Z</time>
      </trkpt>
      <trkpt lat="38.3011300" lon="-3.6797840">
        <ele>504.6</ele>
        <time>2018-06-16T07:58:08Z</time>
      </trkpt>
      <trkpt lat="38.3011540" lon="-3.6797850">
        <ele>504.4</ele>
        <time>2018-06-16T07:58:09Z</time>
      </trkpt>
      <trkpt lat="38.3011760" lon="-3.6797830">
        <ele>504.6</ele>
        <time>2018-06-16T07:58:10Z</time>
      </trkpt>
      <trkpt lat="38.3011950" lon="-3.6797800">
        <ele>504.8</ele>
        <time>2018-06-16T07:58:11Z</time>
      </trkpt>
      <trkpt lat="38.3012150" lon="-3.6797800">
        <ele>505.0</ele>
        <time>2018-06-16T07:58:12Z</time>
      </trkpt>
      <trkpt lat="38.3012340" lon="-3.6797850">
        <ele>505.2</ele>
        <time>2018-06-16T07:58:13Z</time>
      </trkpt>
      <trkpt lat="38.3012500" lon="-3.6797920">
        <ele>505.2</ele>
        <time>2018-06-16T07:58:14Z</time>
      </trkpt>
      <trkpt lat="38.3012680" lon="-3.6798000">
        <ele>505.6</ele>
        <time>2018-06-16T07:58:15Z</time>
      </trkpt>
      <trkpt lat="38.3012860" lon="-3.6798050">
        <ele>505.8</ele>
        <time>2018-06-16T07:58:16Z</time>
      </trkpt>
      <trkpt lat="38.3013060" lon="-3.6798070">
        <ele>505.8</ele>
        <time>2018-06-16T07:58:17Z</time>
      </trkpt>
      <trkpt lat="38.3013340" lon="-3.6798060">
        <ele>506.0</ele>
        <time>2018-06-16T07:58:18Z</time>
      </trkpt>
      <trkpt lat="38.3013430" lon="-3.6798080">
        <ele>506.2</ele>
        <time>2018-06-16T07:58:19Z</time>
      </trkpt>
      <trkpt lat="38.3013600" lon="-3.6798110">
        <ele>506.4</ele>
        <time>2018-06-16T07:58:20Z</time>
      </trkpt>
      <trkpt lat="38.3013770" lon="-3.6798180">
        <ele>506.6</ele>
        <time>2018-06-16T07:58:21Z</time>
      </trkpt>
      <trkpt lat="38.3013960" lon="-3.6798250">
        <ele>506.8</ele>
        <time>2018-06-16T07:58:22Z</time>
      </trkpt>
      <trkpt lat="38.3014120" lon="-3.6798270">
        <ele>506.8</ele>
        <time>2018-06-16T07:58:23Z</time>
      </trkpt>
      <trkpt lat="38.3014300" lon="-3.6798330">
        <ele>507.2</ele>
        <time>2018-06-16T07:58:24Z</time>
      </trkpt>
      <trkpt lat="38.3014440" lon="-3.6798400">
        <ele>507.4</ele>
        <time>2018-06-16T07:58:25Z</time>
      </trkpt>
      <trkpt lat="38.3014600" lon="-3.6798510">
        <ele>507.6</ele>
        <time>2018-06-16T07:58:26Z</time>
      </trkpt>
      <trkpt lat="38.3014770" lon="-3.6798570">
        <ele>507.8</ele>
        <time>2018-06-16T07:58:27Z</time>
      </trkpt>
      <trkpt lat="38.3014920" lon="-3.6798660">
        <ele>507.8</ele>
        <time>2018-06-16T07:58:28Z</time>
      </trkpt>
      <trkpt lat="38.3015090" lon="-3.6798710">
        <ele>508.2</ele>
        <time>2018-06-16T07:58:29Z</time>
      </trkpt>
      <trkpt lat="38.3015240" lon="-3.6798810">
        <ele>508.4</ele>
        <time>2018-06-16T07:58:30Z</time>
      </trkpt>
      <trkpt lat="38.3015400" lon="-3.6798820">
        <ele>508.8</ele>
        <time>2018-06-16T07:58:31Z</time>
      </trkpt>
      <trkpt lat="38.3015560" lon="-3.6798820">
        <ele>508.8</ele>
        <time>2018-06-16T07:58:32Z</time>
      </trkpt>
      <trkpt lat="38.3015720" lon="-3.6798870">
        <ele>509.2</ele>
        <time>2018-06-16T07:58:33Z</time>
      </trkpt>
      <trkpt lat="38.3015870" lon="-3.6798990">
        <ele>509.4</ele>
        <time>2018-06-16T07:58:34Z</time>
      </trkpt>
      <trkpt lat="38.3016050" lon="-3.6799110">
        <ele>509.6</ele>
        <time>2018-06-16T07:58:35Z</time>
      </trkpt>
      <trkpt lat="38.3016200" lon="-3.6799180">
        <ele>509.8</ele>
        <time>2018-06-16T07:58:36Z</time>
      </trkpt>
      <trkpt lat="38.3016360" lon="-3.6799180">
        <ele>510.0</ele>
        <time>2018-06-16T07:58:37Z</time>
      </trkpt>
      <trkpt lat="38.3016510" lon="-3.6799120">
        <ele>510.2</ele>
        <time>2018-06-16T07:58:38Z</time>
      </trkpt>
      <trkpt lat="38.3016680" lon="-3.6799090">
        <ele>510.4</ele>
        <time>2018-06-16T07:58:39Z</time>
      </trkpt>
      <trkpt lat="38.3016840" lon="-3.6799100">
        <ele>510.8</ele>
        <time>2018-06-16T07:58:40Z</time>
      </trkpt>
      <trkpt lat="38.3016990" lon="-3.6799170">
        <ele>511.0</ele>
        <time>2018-06-16T07:58:41Z</time>
      </trkpt>
      <trkpt lat="38.3017150" lon="-3.6799210">
        <ele>511.2</ele>
        <time>2018-06-16T07:58:42Z</time>
      </trkpt>
      <trkpt lat="38.3017310" lon="-3.6799230">
        <ele>511.4</ele>
        <time>2018-06-16T07:58:43Z</time>
      </trkpt>
      <trkpt lat="38.3017480" lon="-3.6799240">
        <ele>511.6</ele>
        <time>2018-06-16T07:58:44Z</time>
      </trkpt>
      <trkpt lat="38.3017640" lon="-3.6799250">
        <ele>511.8</ele>
        <time>2018-06-16T07:58:45Z</time>
      </trkpt>
      <trkpt lat="38.3017810" lon="-3.6799250">
        <ele>512.0</ele>
        <time>2018-06-16T07:58:46Z</time>
      </trkpt>
      <trkpt lat="38.3018000" lon="-3.6799260">
        <ele>512.2</ele>
        <time>2018-06-16T07:58:47Z</time>
      </trkpt>
      <trkpt lat="38.3018200" lon="-3.6799260">
        <ele>512.6</ele>
        <time>2018-06-16T07:58:48Z</time>
      </trkpt>
      <trkpt lat="38.3018380" lon="-3.6799230">
        <ele>512.8</ele>
        <time>2018-06-16T07:58:49Z</time>
      </trkpt>
      <trkpt lat="38.3018570" lon="-3.6799180">
        <ele>513.0</ele>
        <time>2018-06-16T07:58:50Z</time>
      </trkpt>
      <trkpt lat="38.3018750" lon="-3.6799160">
        <ele>513.2</ele>
        <time>2018-06-16T07:58:51Z</time>
      </trkpt>
      <trkpt lat="38.3018920" lon="-3.6799150">
        <ele>513.4</ele>
        <time>2018-06-16T07:58:52Z</time>
      </trkpt>
      <trkpt lat="38.3019100" lon="-3.6799120">
        <ele>513.6</ele>
        <time>2018-06-16T07:58:53Z</time>
      </trkpt>
      <trkpt lat="38.3019270" lon="-3.6799080">
        <ele>513.8</ele>
        <time>2018-06-16T07:58:54Z</time>
      </trkpt>
      <trkpt lat="38.3019430" lon="-3.6799040">
        <ele>514.0</ele>
        <time>2018-06-16T07:58:55Z</time>
      </trkpt>
      <trkpt lat="38.3019610" lon="-3.6798990">
        <ele>514.2</ele>
        <time>2018-06-16T07:58:56Z</time>
      </trkpt>
      <trkpt lat="38.3019780" lon="-3.6798950">
        <ele>514.4</ele>
        <time>2018-06-16T07:58:57Z</time>
      </trkpt>
      <trkpt lat="38.3019960" lon="-3.6798900">
        <ele>514.6</ele>
        <time>2018-06-16T07:58:58Z</time>
      </trkpt>
      <trkpt lat="38.3020120" lon="-3.6798860">
        <ele>514.8</ele>
        <time>2018-06-16T07:58:59Z</time>
      </trkpt>
      <trkpt lat="38.3020290" lon="-3.6798800">
        <ele>515.0</ele>
        <time>2018-06-16T07:59:00Z</time>
      </trkpt>
      <trkpt lat="38.3020470" lon="-3.6798730">
        <ele>515.2</ele>
        <time>2018-06-16T07:59:01Z</time>
      </trkpt>
      <trkpt lat="38.3020740" lon="-3.6798640">
        <ele>515.4</ele>
        <time>2018-06-16T07:59:02Z</time>
      </trkpt>
      <trkpt lat="38.3020830" lon="-3.6798600">
        <ele>515.6</ele>
        <time>2018-06-16T07:59:03Z</time>
      </trkpt>
      <trkpt lat="38.3021010" lon="-3.6798540">
        <ele>515.8</ele>
        <time>2018-06-16T07:59:04Z</time>
      </trkpt>
      <trkpt lat="38.3021190" lon="-3.6798450">
        <ele>516.0</ele>
        <time>2018-06-16T07:59:05Z</time>
      </trkpt>
      <trkpt lat="38.3021360" lon="-3.6798340">
        <ele>516.0</ele>
        <time>2018-06-16T07:59:06Z</time>
      </trkpt>
      <trkpt lat="38.3021520" lon="-3.6798240">
        <ele>516.2</ele>
        <time>2018-06-16T07:59:07Z</time>
      </trkpt>
      <trkpt lat="38.3021780" lon="-3.6798160">
        <ele>516.4</ele>
        <time>2018-06-16T07:59:08Z</time>
      </trkpt>
      <trkpt lat="38.3021870" lon="-3.6798140">
        <ele>516.6</ele>
        <time>2018-06-16T07:59:09Z</time>
      </trkpt>
      <trkpt lat="38.3022030" lon="-3.6798070">
        <ele>516.8</ele>
        <time>2018-06-16T07:59:10Z</time>
      </trkpt>
      <trkpt lat="38.3022200" lon="-3.6798000">
        <ele>517.0</ele>
        <time>2018-06-16T07:59:11Z</time>
      </trkpt>
      <trkpt lat="38.3022380" lon="-3.6797950">
        <ele>517.2</ele>
        <time>2018-06-16T07:59:12Z</time>
      </trkpt>
      <trkpt lat="38.3022650" lon="-3.6797930">
        <ele>517.2</ele>
        <time>2018-06-16T07:59:13Z</time>
      </trkpt>
      <trkpt lat="38.3022740" lon="-3.6797940">
        <ele>517.4</ele>
        <time>2018-06-16T07:59:14Z</time>
      </trkpt>
      <trkpt lat="38.3022910" lon="-3.6797940">
        <ele>517.8</ele>
        <time>2018-06-16T07:59:15Z</time>
      </trkpt>
      <trkpt lat="38.3023090" lon="-3.6797900">
        <ele>517.8</ele>
        <time>2018-06-16T07:59:16Z</time>
      </trkpt>
      <trkpt lat="38.3023260" lon="-3.6797820">
        <ele>518.0</ele>
        <time>2018-06-16T07:59:17Z</time>
      </trkpt>
      <trkpt lat="38.3023420" lon="-3.6797720">
        <ele>518.2</ele>
        <time>2018-06-16T07:59:18Z</time>
      </trkpt>
      <trkpt lat="38.3023590" lon="-3.6797660">
        <ele>518.4</ele>
        <time>2018-06-16T07:59:19Z</time>
      </trkpt>
      <trkpt lat="38.3023760" lon="-3.6797630">
        <ele>518.6</ele>
        <time>2018-06-16T07:59:20Z</time>
      </trkpt>
      <trkpt lat="38.3023930" lon="-3.6797580">
        <ele>518.8</ele>
        <time>2018-06-16T07:59:21Z</time>
      </trkpt>
      <trkpt lat="38.3024080" lon="-3.6797470">
        <ele>519.0</ele>
        <time>2018-06-16T07:59:22Z</time>
      </trkpt>
      <trkpt lat="38.3024230" lon="-3.6797360">
        <ele>519.2</ele>
        <time>2018-06-16T07:59:23Z</time>
      </trkpt>
      <trkpt lat="38.3024390" lon="-3.6797250">
        <ele>519.4</ele>
        <time>2018-06-16T07:59:24Z</time>
      </trkpt>
      <trkpt lat="38.3024540" lon="-3.6797150">
        <ele>519.6</ele>
        <time>2018-06-16T07:59:25Z</time>
      </trkpt>
      <trkpt lat="38.3024700" lon="-3.6797060">
        <ele>519.8</ele>
        <time>2018-06-16T07:59:26Z</time>
      </trkpt>
      <trkpt lat="38.3024870" lon="-3.6796990">
        <ele>520.0</ele>
        <time>2018-06-16T07:59:27Z</time>
      </trkpt>
      <trkpt lat="38.3025020" lon="-3.6796930">
        <ele>520.2</ele>
        <time>2018-06-16T07:59:28Z</time>
      </trkpt>
      <trkpt lat="38.3025180" lon="-3.6796840">
        <ele>520.4</ele>
        <time>2018-06-16T07:59:29Z</time>
      </trkpt>
      <trkpt lat="38.3025340" lon="-3.6796760">
        <ele>520.6</ele>
        <time>2018-06-16T07:59:30Z</time>
      </trkpt>
      <trkpt lat="38.3025600" lon="-3.6796710">
        <ele>520.8</ele>
        <time>2018-06-16T07:59:31Z</time>
      </trkpt>
      <trkpt lat="38.3025680" lon="-3.6796690">
        <ele>521.0</ele>
        <time>2018-06-16T07:59:32Z</time>
      </trkpt>
      <trkpt lat="38.3025860" lon="-3.6796640">
        <ele>521.2</ele>
        <time>2018-06-16T07:59:33Z</time>
      </trkpt>
      <trkpt lat="38.3026020" lon="-3.6796590">
        <ele>521.4</ele>
        <time>2018-06-16T07:59:34Z</time>
      </trkpt>
      <trkpt lat="38.3026190" lon="-3.6796530">
        <ele>521.6</ele>
        <time>2018-06-16T07:59:35Z</time>
      </trkpt>
      <trkpt lat="38.3026370" lon="-3.6796470">
        <ele>521.6</ele>
        <time>2018-06-16T07:59:36Z</time>
      </trkpt>
      <trkpt lat="38.3026550" lon="-3.6796410">
        <ele>521.8</ele>
        <time>2018-06-16T07:59:37Z</time>
      </trkpt>
      <trkpt lat="38.3026730" lon="-3.6796360">
        <ele>522.0</ele>
        <time>2018-06-16T07:59:38Z</time>
      </trkpt>
      <trkpt lat="38.3026880" lon="-3.6796310">
        <ele>522.2</ele>
        <time>2018-06-16T07:59:39Z</time>
      </trkpt>
      <trkpt lat="38.3027100" lon="-3.6796200">
        <ele>522.4</ele>
        <time>2018-06-16T07:59:40Z</time>
      </trkpt>
      <trkpt lat="38.3027180" lon="-3.6796160">
        <ele>522.6</ele>
        <time>2018-06-16T07:59:41Z</time>
      </trkpt>
      <trkpt lat="38.3027320" lon="-3.6796060">
        <ele>522.6</ele>
        <time>2018-06-16T07:59:42Z</time>
      </trkpt>
      <trkpt lat="38.3027450" lon="-3.6795950">
        <ele>522.8</ele>
        <time>2018-06-16T07:59:43Z</time>
      </trkpt>
      <trkpt lat="38.3027620" lon="-3.6795870">
        <ele>523.0</ele>
        <time>2018-06-16T07:59:44Z</time>
      </trkpt>
      <trkpt lat="38.3027810" lon="-3.6795820">
        <ele>523.4</ele>
        <time>2018-06-16T07:59:45Z</time>
      </trkpt>
      <trkpt lat="38.3027990" lon="-3.6795770">
        <ele>523.4</ele>
        <time>2018-06-16T07:59:46Z</time>
      </trkpt>
      <trkpt lat="38.3028180" lon="-3.6795710">
        <ele>523.6</ele>
        <time>2018-06-16T07:59:47Z</time>
      </trkpt>
      <trkpt lat="38.3028360" lon="-3.6795670">
        <ele>523.8</ele>
        <time>2018-06-16T07:59:48Z</time>
      </trkpt>
      <trkpt lat="38.3028530" lon="-3.6795610">
        <ele>524.0</ele>
        <time>2018-06-16T07:59:49Z</time>
      </trkpt>
      <trkpt lat="38.3028710" lon="-3.6795570">
        <ele>524.4</ele>
        <time>2018-06-16T07:59:50Z</time>
      </trkpt>
      <trkpt lat="38.3028890" lon="-3.6795560">
        <ele>524.4</ele>
        <time>2018-06-16T07:59:51Z</time>
      </trkpt>
      <trkpt lat="38.3029060" lon="-3.6795590">
        <ele>524.6</ele>
        <time>2018-06-16T07:59:52Z</time>
      </trkpt>
      <trkpt lat="38.3029320" lon="-3.6795620">
        <ele>525.0</ele>
        <time>2018-06-16T07:59:53Z</time>
      </trkpt>
      <trkpt lat="38.3029410" lon="-3.6795620">
        <ele>525.0</ele>
        <time>2018-06-16T07:59:54Z</time>
      </trkpt>
      <trkpt lat="38.3029600" lon="-3.6795590">
        <ele>525.2</ele>
        <time>2018-06-16T07:59:55Z</time>
      </trkpt>
      <trkpt lat="38.3029770" lon="-3.6795540">
        <ele>525.4</ele>
        <time>2018-06-16T07:59:56Z</time>
      </trkpt>
      <trkpt lat="38.3029930" lon="-3.6795480">
        <ele>525.6</ele>
        <time>2018-06-16T07:59:57Z</time>
      </trkpt>
      <trkpt lat="38.3030090" lon="-3.6795440">
        <ele>525.8</ele>
        <time>2018-06-16T07:59:58Z</time>
      </trkpt>
      <trkpt lat="38.3030250" lon="-3.6795400">
        <ele>526.0</ele>
        <time>2018-06-16T07:59:59Z</time>
      </trkpt>
      <trkpt lat="38.3030430" lon="-3.6795370">
        <ele>526.2</ele>
        <time>2018-06-16T08:00:00Z</time>
      </trkpt>
      <trkpt lat="38.3030610" lon="-3.6795340">
        <ele>526.4</ele>
        <time>2018-06-16T08:00:01Z</time>
      </trkpt>
      <trkpt lat="38.3030790" lon="-3.6795320">
        <ele>526.6</ele>
        <time>2018-06-16T08:00:02Z</time>
      </trkpt>
      <trkpt lat="38.3030970" lon="-3.6795290">
        <ele>526.8</ele>
        <time>2018-06-16T08:00:03Z</time>
      </trkpt>
      <trkpt lat="38.3031160" lon="-3.6795280">
        <ele>527.0</ele>
        <time>2018-06-16T08:00:04Z</time>
      </trkpt>
      <trkpt lat="38.3031340" lon="-3.6795270">
        <ele>527.0</ele>
        <time>2018-06-16T08:00:05Z</time>
      </trkpt>
      <trkpt lat="38.3031520" lon="-3.6795280">
        <ele>527.2</ele>
        <time>2018-06-16T08:00:06Z</time>
      </trkpt>
      <trkpt lat="38.3031690" lon="-3.6795310">
        <ele>527.2</ele>
        <time>2018-06-16T08:00:07Z</time>
      </trkpt>
      <trkpt lat="38.3031860" lon="-3.6795310">
        <ele>527.2</ele>
        <time>2018-06-16T08:00:08Z</time>
      </trkpt>
      <trkpt lat="38.3032030" lon="-3.6795290">
        <ele>527.4</ele>
        <time>2018-06-16T08:00:09Z</time>
      </trkpt>
      <trkpt lat="38.3032200" lon="-3.6795300">
        <ele>527.4</ele>
        <time>2018-06-16T08:00:10Z</time>
      </trkpt>
      <trkpt lat="38.3032350" lon="-3.6795310">
        <ele>527.4</ele>
        <time>2018-06-16T08:00:11Z</time>
      </trkpt>
      <trkpt lat="38.3032510" lon="-3.6795350">
        <ele>527.4</ele>
        <time>2018-06-16T08:00:12Z</time>
      </trkpt>
      <trkpt lat="38.3032700" lon="-3.6795410">
        <ele>527.4</ele>
        <time>2018-06-16T08:00:13Z</time>
      </trkpt>
      <trkpt lat="38.3032880" lon="-3.6795440">
        <ele>527.6</ele>
        <time>2018-06-16T08:00:14Z</time>
      </trkpt>
      <trkpt lat="38.3033160" lon="-3.6795490">
        <ele>527.6</ele>
        <time>2018-06-16T08:00:15Z</time>
      </trkpt>
      <trkpt lat="38.3033250" lon="-3.6795520">
        <ele>527.6</ele>
        <time>2018-06-16T08:00:16Z</time>
      </trkpt>
      <trkpt lat="38.3033440" lon="-3.6795560">
        <ele>527.6</ele>
        <time>2018-06-16T08:00:17Z</time>
      </trkpt>
      <trkpt lat="38.3033630" lon="-3.6795580">
        <ele>527.6</ele>
        <time>2018-06-16T08:00:18Z</time>
      </trkpt>
      <trkpt lat="38.3033820" lon="-3.6795590">
        <ele>527.6</ele>
        <time>2018-06-16T08:00:19Z</time>
      </trkpt>
      <trkpt lat="38.3034020" lon="-3.6795640">
        <ele>527.6</ele>
        <time>2018-06-16T08:00:20Z</time>
      </trkpt>
      <trkpt lat="38.3034210" lon="-3.6795700">
        <ele>527.8</ele>
        <time>2018-06-16T08:00:21Z</time>
      </trkpt>
      <trkpt lat="38.3034400" lon="-3.6795760">
        <ele>527.8</ele>
        <time>2018-06-16T08:00:22Z</time>
      </trkpt>
      <trkpt lat="38.3034590" lon="-3.6795820">
        <ele>527.8</ele>
        <time>2018-06-16T08:00:23Z</time>
      </trkpt>
      <trkpt lat="38.3034790" lon="-3.6795850">
        <ele>528.0</ele>
        <time>2018-06-16T08:00:24Z</time>
      </trkpt>
      <trkpt lat="38.3034990" lon="-3.6795910">
        <ele>528.0</ele>
        <time>2018-06-16T08:00:25Z</time>
      </trkpt>
      <trkpt lat="38.3035180" lon="-3.6796000">
        <ele>528.0</ele>
        <time>2018-06-16T08:00:26Z</time>
      </trkpt>
      <trkpt lat="38.3035360" lon="-3.6796090">
        <ele>528.2</ele>
        <time>2018-06-16T08:00:27Z</time>
      </trkpt>
      <trkpt lat="38.3035530" lon="-3.6796150">
        <ele>528.2</ele>
        <time>2018-06-16T08:00:28Z</time>
      </trkpt>
      <trkpt lat="38.3035710" lon="-3.6796220">
        <ele>528.2</ele>
        <time>2018-06-16T08:00:29Z</time>
      </trkpt>
      <trkpt lat="38.3035880" lon="-3.6796280">
        <ele>528.4</ele>
        <time>2018-06-16T08:00:30Z</time>
      </trkpt>
      <trkpt lat="38.3036050" lon="-3.6796340">
        <ele>528.4</ele>
        <time>2018-06-16T08:00:31Z</time>
      </trkpt>
      <trkpt lat="38.3036220" lon="-3.6796420">
        <ele>528.6</ele>
        <time>2018-06-16T08:00:32Z</time>
      </trkpt>
      <trkpt lat="38.3036390" lon="-3.6796500">
        <ele>528.6</ele>
        <time>2018-06-16T08:00:33Z</time>
      </trkpt>
      <trkpt lat="38.3036550" lon="-3.6796570">
        <ele>528.6</ele>
        <time>2018-06-16T08:00:34Z</time>
      </trkpt>
      <trkpt lat="38.3036720" lon="-3.6796630">
        <ele>528.8</ele>
        <time>2018-06-16T08:00:35Z</time>
      </trkpt>
      <trkpt lat="38.3036880" lon="-3.6796710">
        <ele>529.0</ele>
        <time>2018-06-16T08:00:36Z</time>
      </trkpt>
      <trkpt lat="38.3037040" lon="-3.6796820">
        <ele>529.2</ele>
        <time>2018-06-16T08:00:37Z</time>
      </trkpt>
      <trkpt lat="38.3037200" lon="-3.6796900">
        <ele>529.2</ele>
        <time>2018-06-16T08:00:38Z</time>
      </trkpt>
      <trkpt lat="38.3037360" lon="-3.6796950">
        <ele>529.4</ele>
        <time>2018-06-16T08:00:39Z</time>
      </trkpt>
      <trkpt lat="38.3037520" lon="-3.6797020">
        <ele>529.4</ele>
        <time>2018-06-16T08:00:40Z</time>
      </trkpt>
      <trkpt lat="38.3037690" lon="-3.6797130">
        <ele>529.6</ele>
        <time>2018-06-16T08:00:41Z</time>
      </trkpt>
      <trkpt lat="38.3037950" lon="-3.6797260">
        <ele>529.6</ele>
        <time>2018-06-16T08:00:42Z</time>
      </trkpt>
      <trkpt lat="38.3038030" lon="-3.6797300">
        <ele>529.8</ele>
        <time>2018-06-16T08:00:43Z</time>
      </trkpt>
      <trkpt lat="38.3038200" lon="-3.6797390">
        <ele>530.0</ele>
        <time>2018-06-16T08:00:44Z</time>
      </trkpt>
      <trkpt lat="38.3038350" lon="-3.6797490">
        <ele>530.0</ele>
        <time>2018-06-16T08:00:45Z</time>
      </trkpt>
      <trkpt lat="38.3038520" lon="-3.6797570">
        <ele>530.2</ele>
        <time>2018-06-16T08:00:46Z</time>
      </trkpt>
      <trkpt lat="38.3038800" lon="-3.6797750">
        <ele>530.4</ele>
        <time>2018-06-16T08:00:47Z</time>
      </trkpt>
      <trkpt lat="38.3038910" lon="-3.6797840">
        <ele>530.4</ele>
        <time>2018-06-16T08:00:48Z</time>
      </trkpt>
      <trkpt lat="38.3039020" lon="-3.6797920">
        <ele>530.6</ele>
        <time>2018-06-16T08:00:49Z</time>
      </trkpt>
      <trkpt lat="38.3039130" lon="-3.6798010">
        <ele>530.8</ele>
        <time>2018-06-16T08:00:50Z</time>
      </trkpt>
      <trkpt lat="38.3039280" lon="-3.6798130">
        <ele>531.0</ele>
        <time>2018-06-16T08:00:51Z</time>
      </trkpt>
      <trkpt lat="38.3039430" lon="-3.6798230">
        <ele>531.0</ele>
        <time>2018-06-16T08:00:52Z</time>
      </trkpt>
      <trkpt lat="38.3039600" lon="-3.6798340">
        <ele>531.2</ele>
        <time>2018-06-16T08:00:53Z</time>
      </trkpt>
      <trkpt lat="38.3039750" lon="-3.6798470">
        <ele>531.4</ele>
        <time>2018-06-16T08:00:54Z</time>
      </trkpt>
      <trkpt lat="38.3039910" lon="-3.6798610">
        <ele>531.6</ele>
        <time>2018-06-16T08:00:55Z</time>
      </trkpt>
      <trkpt lat="38.3040060" lon="-3.6798740">
        <ele>531.8</ele>
        <time>2018-06-16T08:00:56Z</time>
      </trkpt>
      <trkpt lat="38.3040220" lon="-3.6798840">
        <ele>532.0</ele>
        <time>2018-06-16T08:00:57Z</time>
      </trkpt>
      <trkpt lat="38.3040390" lon="-3.6798940">
        <ele>532.2</ele>
        <time>2018-06-16T08:00:58Z</time>
      </trkpt>
      <trkpt lat="38.3040560" lon="-3.6799050">
        <ele>532.4</ele>
        <time>2018-06-16T08:00:59Z</time>
      </trkpt>
      <trkpt lat="38.3040720" lon="-3.6799190">
        <ele>532.8</ele>
        <time>2018-06-16T08:01:00Z</time>
      </trkpt>
      <trkpt lat="38.3040850" lon="-3.6799330">
        <ele>533.0</ele>
        <time>2018-06-16T08:01:01Z</time>
      </trkpt>
      <trkpt lat="38.3040990" lon="-3.6799470">
        <ele>533.0</ele>
        <time>2018-06-16T08:01:02Z</time>
      </trkpt>
      <trkpt lat="38.3041140" lon="-3.6799580">
        <ele>533.2</ele>
        <time>2018-06-16T08:01:03Z</time>
      </trkpt>
      <trkpt lat="38.3041290" lon="-3.6799680">
        <ele>533.4</ele>
        <time>2018-06-16T08:01:04Z</time>
      </trkpt>
      <trkpt lat="38.3041430" lon="-3.6799800">
        <ele>533.6</ele>
        <time>2018-06-16T08:01:05Z</time>
      </trkpt>
      <trkpt lat="38.3041560" lon="-3.6799950">
        <ele>533.8</ele>
        <time>2018-06-16T08:01:06Z</time>
      </trkpt>
      <trkpt lat="38.3041700" lon="-3.6800100">
        <ele>534.0</ele>
        <time>2018-06-16T08:01:07Z</time>
      </trkpt>
      <trkpt lat="38.3041820" lon="-3.6800260">
        <ele>534.4</ele>
        <time>2018-06-16T08:01:08Z</time>
      </trkpt>
      <trkpt lat="38.3041950" lon="-3.6800430">
        <ele>534.4</ele>
        <time>2018-06-16T08:01:09Z</time>
      </trkpt>
      <trkpt lat="38.3042080" lon="-3.6800590">
        <ele>534.6</ele>
        <time>2018-06-16T08:01:10Z</time>
      </trkpt>
      <trkpt lat="38.3042200" lon="-3.6800750">
        <ele>535.0</ele>
        <time>2018-06-16T08:01:11Z</time>
      </trkpt>
      <trkpt lat="38.3042320" lon="-3.6800930">
        <ele>535.0</ele>
        <time>2018-06-16T08:01:12Z</time>
      </trkpt>
      <trkpt lat="38.3042450" lon="-3.6801090">
        <ele>535.2</ele>
        <time>2018-06-16T08:01:13Z</time>
      </trkpt>
      <trkpt lat="38.3042570" lon="-3.6801250">
        <ele>535.4</ele>
        <time>2018-06-16T08:01:14Z</time>
      </trkpt>
      <trkpt lat="38.3042710" lon="-3.6801400">
        <ele>535.6</ele>
        <time>2018-06-16T08:01:15Z</time>
      </trkpt>
      <trkpt lat="38.3042840" lon="-3.6801570">
        <ele>535.8</ele>
        <time>2018-06-16T08:01:16Z</time>
      </trkpt>
      <trkpt lat="38.3042970" lon="-3.6801720">
        <ele>536.0</ele>
        <time>2018-06-16T08:01:17Z</time>
      </trkpt>
      <trkpt lat="38.3043070" lon="-3.6801920">
        <ele>536.2</ele>
        <time>2018-06-16T08:01:18Z</time>
      </trkpt>
      <trkpt lat="38.3043170" lon="-3.6802140">
        <ele>536.2</ele>
        <time>2018-06-16T08:01:19Z</time>
      </trkpt>
      <trkpt lat="38.3043270" lon="-3.6802370">
        <ele>536.4</ele>
        <time>2018-06-16T08:01:20Z</time>
      </trkpt>
      <trkpt lat="38.3043370" lon="-3.6802590">
        <ele>536.6</ele>
        <time>2018-06-16T08:01:21Z</time>
      </trkpt>
      <trkpt lat="38.3043460" lon="-3.6802800">
        <ele>536.6</ele>
        <time>2018-06-16T08:01:22Z</time>
      </trkpt>
      <trkpt lat="38.3043550" lon="-3.6803020">
        <ele>536.8</ele>
        <time>2018-06-16T08:01:23Z</time>
      </trkpt>
      <trkpt lat="38.3043610" lon="-3.6803260">
        <ele>536.8</ele>
        <time>2018-06-16T08:01:24Z</time>
      </trkpt>
      <trkpt lat="38.3043700" lon="-3.6803500">
        <ele>537.0</ele>
        <time>2018-06-16T08:01:25Z</time>
      </trkpt>
      <trkpt lat="38.3043780" lon="-3.6803740">
        <ele>537.2</ele>
        <time>2018-06-16T08:01:26Z</time>
      </trkpt>
      <trkpt lat="38.3043850" lon="-3.6803960">
        <ele>537.4</ele>
        <time>2018-06-16T08:01:27Z</time>
      </trkpt>
      <trkpt lat="38.3043910" lon="-3.6804190">
        <ele>537.6</ele>
        <time>2018-06-16T08:01:28Z</time>
      </trkpt>
      <trkpt lat="38.3043980" lon="-3.6804420">
        <ele>537.8</ele>
        <time>2018-06-16T08:01:29Z</time>
      </trkpt>
      <trkpt lat="38.3044050" lon="-3.6804660">
        <ele>537.8</ele>
        <time>2018-06-16T08:01:30Z</time>
      </trkpt>
      <trkpt lat="38.3044120" lon="-3.6804900">
        <ele>538.0</ele>
        <time>2018-06-16T08:01:31Z</time>
      </trkpt>
      <trkpt lat="38.3044200" lon="-3.6805150">
        <ele>538.2</ele>
        <time>2018-06-16T08:01:32Z</time>
      </trkpt>
      <trkpt lat="38.3044290" lon="-3.6805380">
        <ele>538.4</ele>
        <time>2018-06-16T08:01:33Z</time>
      </trkpt>
      <trkpt lat="38.3044380" lon="-3.6805610">
        <ele>538.4</ele>
        <time>2018-06-16T08:01:34Z</time>
      </trkpt>
      <trkpt lat="38.3044450" lon="-3.6805850">
        <ele>538.6</ele>
        <time>2018-06-16T08:01:35Z</time>
      </trkpt>
      <trkpt lat="38.3044510" lon="-3.6806080">
        <ele>538.6</ele>
        <time>2018-06-16T08:01:36Z</time>
      </trkpt>
      <trkpt lat="38.3044570" lon="-3.6806320">
        <ele>538.8</ele>
        <time>2018-06-16T08:01:37Z</time>
      </trkpt>
      <trkpt lat="38.3044630" lon="-3.6806550">
        <ele>539.0</ele>
        <time>2018-06-16T08:01:38Z</time>
      </trkpt>
      <trkpt lat="38.3044700" lon="-3.6806780">
        <ele>539.2</ele>
        <time>2018-06-16T08:01:39Z</time>
      </trkpt>
      <trkpt lat="38.3044780" lon="-3.6807010">
        <ele>539.2</ele>
        <time>2018-06-16T08:01:40Z</time>
      </trkpt>
      <trkpt lat="38.3044850" lon="-3.6807230">
        <ele>539.4</ele>
        <time>2018-06-16T08:01:41Z</time>
      </trkpt>
      <trkpt lat="38.3044910" lon="-3.6807460">
        <ele>539.6</ele>
        <time>2018-06-16T08:01:42Z</time>
      </trkpt>
      <trkpt lat="38.3044980" lon="-3.6807700">
        <ele>539.8</ele>
        <time>2018-06-16T08:01:43Z</time>
      </trkpt>
      <trkpt lat="38.3045050" lon="-3.6807960">
        <ele>539.8</ele>
        <time>2018-06-16T08:01:44Z</time>
      </trkpt>
      <trkpt lat="38.3045140" lon="-3.6808190">
        <ele>540.0</ele>
        <time>2018-06-16T08:01:45Z</time>
      </trkpt>
      <trkpt lat="38.3045190" lon="-3.6808410">
        <ele>540.2</ele>
        <time>2018-06-16T08:01:46Z</time>
      </trkpt>
      <trkpt lat="38.3045230" lon="-3.6808630">
        <ele>540.2</ele>
        <time>2018-06-16T08:01:47Z</time>
      </trkpt>
      <trkpt lat="38.3045310" lon="-3.6808980">
        <ele>540.4</ele>
        <time>2018-06-16T08:01:48Z</time>
      </trkpt>
      <trkpt lat="38.3045340" lon="-3.6809100">
        <ele>540.6</ele>
        <time>2018-06-16T08:01:49Z</time>
      </trkpt>
      <trkpt lat="38.3045410" lon="-3.6809330">
        <ele>540.6</ele>
        <time>2018-06-16T08:01:50Z</time>
      </trkpt>
      <trkpt lat="38.3045470" lon="-3.6809510">
        <ele>540.8</ele>
        <time>2018-06-16T08:01:51Z</time>
      </trkpt>
      <trkpt lat="38.3045520" lon="-3.6809700">
        <ele>541.0</ele>
        <time>2018-06-16T08:01:52Z</time>
      </trkpt>
      <trkpt lat="38.3045560" lon="-3.6809910">
        <ele>541.0</ele>
        <time>2018-06-16T08:01:53Z</time>
      </trkpt>
      <trkpt lat="38.3045590" lon="-3.6810150">
        <ele>541.2</ele>
        <time>2018-06-16T08:01:54Z</time>
      </trkpt>
      <trkpt lat="38.3045620" lon="-3.6810370">
        <ele>541.4</ele>
        <time>2018-06-16T08:01:55Z</time>
      </trkpt>
      <trkpt lat="38.3045670" lon="-3.6810590">
        <ele>541.6</ele>
        <time>2018-06-16T08:01:56Z</time>
      </trkpt>
      <trkpt lat="38.3045710" lon="-3.6810800">
        <ele>541.6</ele>
        <time>2018-06-16T08:01:57Z</time>
      </trkpt>
      <trkpt lat="38.3045720" lon="-3.6811030">
        <ele>541.8</ele>
        <time>2018-06-16T08:01:58Z</time>
      </trkpt>
      <trkpt lat="38.3045740" lon="-3.6811240">
        <ele>542.0</ele>
        <time>2018-06-16T08:01:59Z</time>
      </trkpt>
      <trkpt lat="38.3045750" lon="-3.6811500">
        <ele>542.2</ele>
        <time>2018-06-16T08:02:00Z</time>
      </trkpt>
      <trkpt lat="38.3045770" lon="-3.6811760">
        <ele>542.2</ele>
        <time>2018-06-16T08:02:01Z</time>
      </trkpt>
      <trkpt lat="38.3045780" lon="-3.6812000">
        <ele>542.2</ele>
        <time>2018-06-16T08:02:02Z</time>
      </trkpt>
      <trkpt lat="38.3045760" lon="-3.6812230">
        <ele>542.4</ele>
        <time>2018-06-16T08:02:03Z</time>
      </trkpt>
      <trkpt lat="38.3045740" lon="-3.6812460">
        <ele>542.6</ele>
        <time>2018-06-16T08:02:04Z</time>
      </trkpt>
      <trkpt lat="38.3045740" lon="-3.6812730">
        <ele>542.6</ele>
        <time>2018-06-16T08:02:05Z</time>
      </trkpt>
      <trkpt lat="38.3045750" lon="-3.6812980">
        <ele>542.6</ele>
        <time>2018-06-16T08:02:06Z</time>
      </trkpt>
      <trkpt lat="38.3045720" lon="-3.6813220">
        <ele>542.8</ele>
        <time>2018-06-16T08:02:07Z</time>
      </trkpt>
      <trkpt lat="38.3045740" lon="-3.6813540">
        <ele>542.8</ele>
        <time>2018-06-16T08:02:08Z</time>
      </trkpt>
      <trkpt lat="38.3045800" lon="-3.6813970">
        <ele>542.8</ele>
        <time>2018-06-16T08:02:09Z</time>
      </trkpt>
      <trkpt lat="38.3045750" lon="-3.6814270">
        <ele>543.0</ele>
        <time>2018-06-16T08:02:10Z</time>
      </trkpt>
      <trkpt lat="38.3045710" lon="-3.6814560">
        <ele>543.0</ele>
        <time>2018-06-16T08:02:11Z</time>
      </trkpt>
      <trkpt lat="38.3045700" lon="-3.6814890">
        <ele>543.2</ele>
        <time>2018-06-16T08:02:12Z</time>
      </trkpt>
      <trkpt lat="38.3045680" lon="-3.6815160">
        <ele>543.2</ele>
        <time>2018-06-16T08:02:13Z</time>
      </trkpt>
      <trkpt lat="38.3045660" lon="-3.6815430">
        <ele>543.2</ele>
        <time>2018-06-16T08:02:14Z</time>
      </trkpt>
      <trkpt lat="38.3045630" lon="-3.6815720">
        <ele>543.4</ele>
        <time>2018-06-16T08:02:15Z</time>
      </trkpt>
      <trkpt lat="38.3045600" lon="-3.6816010">
        <ele>543.6</ele>
        <time>2018-06-16T08:02:16Z</time>
      </trkpt>
      <trkpt lat="38.3045580" lon="-3.6816290">
        <ele>543.6</ele>
        <time>2018-06-16T08:02:17Z</time>
      </trkpt>
      <trkpt lat="38.3045570" lon="-3.6816570">
        <ele>543.6</ele>
        <time>2018-06-16T08:02:18Z</time>
      </trkpt>
      <trkpt lat="38.3045550" lon="-3.6816840">
        <ele>543.8</ele>
        <time>2018-06-16T08:02:19Z</time>
      </trkpt>
      <trkpt lat="38.3045540" lon="-3.6817100">
        <ele>543.8</ele>
        <time>2018-06-16T08:02:20Z</time>
      </trkpt>
      <trkpt lat="38.3045520" lon="-3.6817360">
        <ele>544.0</ele>
        <time>2018-06-16T08:02:21Z</time>
      </trkpt>
      <trkpt lat="38.3045500" lon="-3.6817630">
        <ele>544.2</ele>
        <time>2018-06-16T08:02:22Z</time>
      </trkpt>
      <trkpt lat="38.3045470" lon="-3.6818010">
        <ele>544.4</ele>
        <time>2018-06-16T08:02:23Z</time>
      </trkpt>
      <trkpt lat="38.3045450" lon="-3.6818130">
        <ele>544.4</ele>
        <time>2018-06-16T08:02:24Z</time>
      </trkpt>
      <trkpt lat="38.3045440" lon="-3.6818370">
        <ele>544.6</ele>
        <time>2018-06-16T08:02:25Z</time>
      </trkpt>
      <trkpt lat="38.3045430" lon="-3.6818640">
        <ele>544.8</ele>
        <time>2018-06-16T08:02:26Z</time>
      </trkpt>
      <trkpt lat="38.3045390" lon="-3.6818900">
        <ele>544.8</ele>
        <time>2018-06-16T08:02:27Z</time>
      </trkpt>
      <trkpt lat="38.3045370" lon="-3.6819160">
        <ele>545.0</ele>
        <time>2018-06-16T08:02:28Z</time>
      </trkpt>
      <trkpt lat="38.3045340" lon="-3.6819430">
        <ele>545.2</ele>
        <time>2018-06-16T08:02:29Z</time>
      </trkpt>
      <trkpt lat="38.3045300" lon="-3.6819720">
        <ele>545.4</ele>
        <time>2018-06-16T08:02:30Z</time>
      </trkpt>
      <trkpt lat="38.3045280" lon="-3.6819990">
        <ele>545.4</ele>
        <time>2018-06-16T08:02:31Z</time>
      </trkpt>
      <trkpt lat="38.3045280" lon="-3.6820260">
        <ele>545.6</ele>
        <time>2018-06-16T08:02:32Z</time>
      </trkpt>
      <trkpt lat="38.3045260" lon="-3.6820530">
        <ele>545.6</ele>
        <time>2018-06-16T08:02:33Z</time>
      </trkpt>
      <trkpt lat="38.3045240" lon="-3.6820790">
        <ele>545.8</ele>
        <time>2018-06-16T08:02:34Z</time>
      </trkpt>
      <trkpt lat="38.3045200" lon="-3.6821080">
        <ele>546.0</ele>
        <time>2018-06-16T08:02:35Z</time>
      </trkpt>
      <trkpt lat="38.3045160" lon="-3.6821360">
        <ele>546.2</ele>
        <time>2018-06-16T08:02:36Z</time>
      </trkpt>
      <trkpt lat="38.3045170" lon="-3.6821640">
        <ele>546.2</ele>
        <time>2018-06-16T08:02:37Z</time>
      </trkpt>
      <trkpt lat="38.3045150" lon="-3.6821930">
        <ele>546.4</ele>
        <time>2018-06-16T08:02:38Z</time>
      </trkpt>
      <trkpt lat="38.3045170" lon="-3.6822180">
        <ele>546.6</ele>
        <time>2018-06-16T08:02:39Z</time>
      </trkpt>
      <trkpt lat="38.3045170" lon="-3.6822430">
        <ele>546.8</ele>
        <time>2018-06-16T08:02:40Z</time>
      </trkpt>
      <trkpt lat="38.3045200" lon="-3.6822690">
        <ele>546.8</ele>
        <time>2018-06-16T08:02:41Z</time>
      </trkpt>
      <trkpt lat="38.3045220" lon="-3.6823080">
        <ele>547.0</ele>
        <time>2018-06-16T08:02:42Z</time>
      </trkpt>
      <trkpt lat="38.3045230" lon="-3.6823220">
        <ele>547.0</ele>
        <time>2018-06-16T08:02:43Z</time>
      </trkpt>
      <trkpt lat="38.3045250" lon="-3.6823500">
        <ele>547.2</ele>
        <time>2018-06-16T08:02:44Z</time>
      </trkpt>
      <trkpt lat="38.3045280" lon="-3.6823780">
        <ele>547.4</ele>
        <time>2018-06-16T08:02:45Z</time>
      </trkpt>
      <trkpt lat="38.3045310" lon="-3.6824060">
        <ele>547.4</ele>
        <time>2018-06-16T08:02:46Z</time>
      </trkpt>
      <trkpt lat="38.3045320" lon="-3.6824350">
        <ele>547.6</ele>
        <time>2018-06-16T08:02:47Z</time>
      </trkpt>
      <trkpt lat="38.3045340" lon="-3.6824640">
        <ele>547.6</ele>
        <time>2018-06-16T08:02:48Z</time>
      </trkpt>
      <trkpt lat="38.3045370" lon="-3.6824930">
        <ele>547.8</ele>
        <time>2018-06-16T08:02:49Z</time>
      </trkpt>
      <trkpt lat="38.3045420" lon="-3.6825310">
        <ele>547.8</ele>
        <time>2018-06-16T08:02:50Z</time>
      </trkpt>
      <trkpt lat="38.3045430" lon="-3.6825450">
        <ele>548.0</ele>
        <time>2018-06-16T08:02:51Z</time>
      </trkpt>
      <trkpt lat="38.3045440" lon="-3.6825720">
        <ele>548.2</ele>
        <time>2018-06-16T08:02:52Z</time>
      </trkpt>
      <trkpt lat="38.3045450" lon="-3.6825970">
        <ele>548.2</ele>
        <time>2018-06-16T08:02:53Z</time>
      </trkpt>
      <trkpt lat="38.3045460" lon="-3.6826220">
        <ele>548.4</ele>
        <time>2018-06-16T08:02:54Z</time>
      </trkpt>
      <trkpt lat="38.3045460" lon="-3.6826440">
        <ele>548.6</ele>
        <time>2018-06-16T08:02:55Z</time>
      </trkpt>
      <trkpt lat="38.3045480" lon="-3.6826620">
        <ele>548.6</ele>
        <time>2018-06-16T08:02:56Z</time>
      </trkpt>
      <trkpt lat="38.3045470" lon="-3.6826850">
        <ele>548.8</ele>
        <time>2018-06-16T08:02:57Z</time>
      </trkpt>
      <trkpt lat="38.3045490" lon="-3.6827160">
        <ele>548.8</ele>
        <time>2018-06-16T08:02:58Z</time>
      </trkpt>
      <trkpt lat="38.3045520" lon="-3.6827410">
        <ele>549.0</ele>
        <time>2018-06-16T08:02:59Z</time>
      </trkpt>
      <trkpt lat="38.3045500" lon="-3.6827630">
        <ele>549.2</ele>
        <time>2018-06-16T08:03:00Z</time>
      </trkpt>
      <trkpt lat="38.3045500" lon="-3.6827780">
        <ele>549.2</ele>
        <time>2018-06-16T08:03:01Z</time>
      </trkpt>
      <trkpt lat="38.3045510" lon="-3.6828040">
        <ele>549.4</ele>
        <time>2018-06-16T08:03:02Z</time>
      </trkpt>
      <trkpt lat="38.3045530" lon="-3.6828300">
        <ele>549.6</ele>
        <time>2018-06-16T08:03:03Z</time>
      </trkpt>
      <trkpt lat="38.3045580" lon="-3.6828610">
        <ele>549.6</ele>
        <time>2018-06-16T08:03:04Z</time>
      </trkpt>
      <trkpt lat="38.3045600" lon="-3.6828880">
        <ele>549.8</ele>
        <time>2018-06-16T08:03:05Z</time>
      </trkpt>
      <trkpt lat="38.3045620" lon="-3.6829160">
        <ele>550.0</ele>
        <time>2018-06-16T08:03:06Z</time>
      </trkpt>
      <trkpt lat="38.3045670" lon="-3.6829420">
        <ele>550.2</ele>
        <time>2018-06-16T08:03:07Z</time>
      </trkpt>
      <trkpt lat="38.3045700" lon="-3.6829640">
        <ele>550.2</ele>
        <time>2018-06-16T08:03:08Z</time>
      </trkpt>
      <trkpt lat="38.3045750" lon="-3.6829930">
        <ele>550.4</ele>
        <time>2018-06-16T08:03:09Z</time>
      </trkpt>
      <trkpt lat="38.3045780" lon="-3.6830180">
        <ele>550.4</ele>
        <time>2018-06-16T08:03:10Z</time>
      </trkpt>
      <trkpt lat="38.3045640" lon="-3.6830280">
        <ele>550.6</ele>
        <time>2018-06-16T08:03:11Z</time>
      </trkpt>
      <trkpt lat="38.3045630" lon="-3.6830530">
        <ele>550.8</ele>
        <time>2018-06-16T08:03:12Z</time>
      </trkpt>
      <trkpt lat="38.3045670" lon="-3.6830790">
        <ele>550.8</ele>
        <time>2018-06-16T08:03:13Z</time>
      </trkpt>
      <trkpt lat="38.3045710" lon="-3.6831080">
        <ele>550.8</ele>
        <time>2018-06-16T08:03:14Z</time>
      </trkpt>
      <trkpt lat="38.3045720" lon="-3.6831300">
        <ele>551.0</ele>
        <time>2018-06-16T08:03:15Z</time>
      </trkpt>
      <trkpt lat="38.3045710" lon="-3.6831550">
        <ele>551.2</ele>
        <time>2018-06-16T08:03:16Z</time>
      </trkpt>
      <trkpt lat="38.3045720" lon="-3.6831840">
        <ele>551.2</ele>
        <time>2018-06-16T08:03:17Z</time>
      </trkpt>
      <trkpt lat="38.3045800" lon="-3.6832370">
        <ele>551.4</ele>
        <time>2018-06-16T08:03:18Z</time>
      </trkpt>
      <trkpt lat="38.3045800" lon="-3.6832510">
        <ele>551.6</ele>
        <time>2018-06-16T08:03:19Z</time>
      </trkpt>
      <trkpt lat="38.3045850" lon="-3.6832860">
        <ele>551.6</ele>
        <time>2018-06-16T08:03:20Z</time>
      </trkpt>
      <trkpt lat="38.3045900" lon="-3.6833340">
        <ele>551.8</ele>
        <time>2018-06-16T08:03:21Z</time>
      </trkpt>
      <trkpt lat="38.3045920" lon="-3.6833500">
        <ele>552.0</ele>
        <time>2018-06-16T08:03:22Z</time>
      </trkpt>
      <trkpt lat="38.3045960" lon="-3.6833840">
        <ele>552.0</ele>
        <time>2018-06-16T08:03:23Z</time>
      </trkpt>
      <trkpt lat="38.3046000" lon="-3.6834170">
        <ele>552.0</ele>
        <time>2018-06-16T08:03:24Z</time>
      </trkpt>
      <trkpt lat="38.3046050" lon="-3.6834510">
        <ele>552.2</ele>
        <time>2018-06-16T08:03:25Z</time>
      </trkpt>
      <trkpt lat="38.3046090" lon="-3.6834820">
        <ele>552.4</ele>
        <time>2018-06-16T08:03:26Z</time>
      </trkpt>
      <trkpt lat="38.3046130" lon="-3.6835130">
        <ele>552.4</ele>
        <time>2018-06-16T08:03:27Z</time>
      </trkpt>
      <trkpt lat="38.3046180" lon="-3.6835460">
        <ele>552.6</ele>
        <time>2018-06-16T08:03:28Z</time>
      </trkpt>
      <trkpt lat="38.3046230" lon="-3.6835790">
        <ele>552.6</ele>
        <time>2018-06-16T08:03:29Z</time>
      </trkpt>
      <trkpt lat="38.3046240" lon="-3.6836120">
        <ele>552.8</ele>
        <time>2018-06-16T08:03:30Z</time>
      </trkpt>
      <trkpt lat="38.3046240" lon="-3.6836460">
        <ele>552.8</ele>
        <time>2018-06-16T08:03:31Z</time>
      </trkpt>
      <trkpt lat="38.3046260" lon="-3.6836780">
        <ele>553.0</ele>
        <time>2018-06-16T08:03:32Z</time>
      </trkpt>
      <trkpt lat="38.3046290" lon="-3.6837100">
        <ele>553.0</ele>
        <time>2018-06-16T08:03:33Z</time>
      </trkpt>
      <trkpt lat="38.3046360" lon="-3.6837570">
        <ele>553.2</ele>
        <time>2018-06-16T08:03:34Z</time>
      </trkpt>
      <trkpt lat="38.3046400" lon="-3.6837740">
        <ele>553.2</ele>
        <time>2018-06-16T08:03:35Z</time>
      </trkpt>
      <trkpt lat="38.3046460" lon="-3.6838050">
        <ele>553.4</ele>
        <time>2018-06-16T08:03:36Z</time>
      </trkpt>
      <trkpt lat="38.3046520" lon="-3.6838370">
        <ele>553.4</ele>
        <time>2018-06-16T08:03:37Z</time>
      </trkpt>
      <trkpt lat="38.3046560" lon="-3.6838690">
        <ele>553.6</ele>
        <time>2018-06-16T08:03:38Z</time>
      </trkpt>
      <trkpt lat="38.3046610" lon="-3.6839040">
        <ele>553.8</ele>
        <time>2018-06-16T08:03:39Z</time>
      </trkpt>
      <trkpt lat="38.3046680" lon="-3.6839410">
        <ele>554.0</ele>
        <time>2018-06-16T08:03:40Z</time>
      </trkpt>
      <trkpt lat="38.3046830" lon="-3.6839890">
        <ele>554.0</ele>
        <time>2018-06-16T08:03:41Z</time>
      </trkpt>
      <trkpt lat="38.3046940" lon="-3.6840240">
        <ele>554.0</ele>
        <time>2018-06-16T08:03:42Z</time>
      </trkpt>
      <trkpt lat="38.3047060" lon="-3.6840550">
        <ele>554.0</ele>
        <time>2018-06-16T08:03:43Z</time>
      </trkpt>
      <trkpt lat="38.3047170" lon="-3.6840840">
        <ele>554.2</ele>
        <time>2018-06-16T08:03:44Z</time>
      </trkpt>
      <trkpt lat="38.3047300" lon="-3.6841140">
        <ele>554.2</ele>
        <time>2018-06-16T08:03:45Z</time>
      </trkpt>
      <trkpt lat="38.3047440" lon="-3.6841410">
        <ele>554.4</ele>
        <time>2018-06-16T08:03:46Z</time>
      </trkpt>
      <trkpt lat="38.3047590" lon="-3.6841650">
        <ele>554.6</ele>
        <time>2018-06-16T08:03:47Z</time>
      </trkpt>
      <trkpt lat="38.3047760" lon="-3.6841870">
        <ele>554.6</ele>
        <time>2018-06-16T08:03:48Z</time>
      </trkpt>
      <trkpt lat="38.3047940" lon="-3.6842060">
        <ele>554.6</ele>
        <time>2018-06-16T08:03:49Z</time>
      </trkpt>
      <trkpt lat="38.3048130" lon="-3.6842270">
        <ele>554.8</ele>
        <time>2018-06-16T08:03:50Z</time>
      </trkpt>
      <trkpt lat="38.3048310" lon="-3.6842480">
        <ele>554.8</ele>
        <time>2018-06-16T08:03:51Z</time>
      </trkpt>
      <trkpt lat="38.3048490" lon="-3.6842690">
        <ele>554.8</ele>
        <time>2018-06-16T08:03:52Z</time>
      </trkpt>
      <trkpt lat="38.3048670" lon="-3.6842890">
        <ele>555.0</ele>
        <time>2018-06-16T08:03:53Z</time>
      </trkpt>
      <trkpt lat="38.3048850" lon="-3.6843060">
        <ele>555.0</ele>
        <time>2018-06-16T08:03:54Z</time>
      </trkpt>
      <trkpt lat="38.3049010" lon="-3.6843200">
        <ele>555.2</ele>
        <time>2018-06-16T08:03:55Z</time>
      </trkpt>
      <trkpt lat="38.3049170" lon="-3.6843330">
        <ele>555.2</ele>
        <time>2018-06-16T08:03:56Z</time>
      </trkpt>
      <trkpt lat="38.3049370" lon="-3.6843490">
        <ele>555.4</ele>
        <time>2018-06-16T08:03:57Z</time>
      </trkpt>
      <trkpt lat="38.3049570" lon="-3.6843670">
        <ele>555.4</ele>
        <time>2018-06-16T08:03:58Z</time>
      </trkpt>
      <trkpt lat="38.3049770" lon="-3.6843840">
        <ele>555.4</ele>
        <time>2018-06-16T08:03:59Z</time>
      </trkpt>
      <trkpt lat="38.3049980" lon="-3.6844020">
        <ele>555.6</ele>
        <time>2018-06-16T08:04:00Z</time>
      </trkpt>
      <trkpt lat="38.3050190" lon="-3.6844210">
        <ele>555.6</ele>
        <time>2018-06-16T08:04:01Z</time>
      </trkpt>
      <trkpt lat="38.3050400" lon="-3.6844380">
        <ele>555.8</ele>
        <time>2018-06-16T08:04:02Z</time>
      </trkpt>
      <trkpt lat="38.3050590" lon="-3.6844560">
        <ele>556.0</ele>
        <time>2018-06-16T08:04:03Z</time>
      </trkpt>
      <trkpt lat="38.3050780" lon="-3.6844750">
        <ele>556.0</ele>
        <time>2018-06-16T08:04:04Z</time>
      </trkpt>
      <trkpt lat="38.3050960" lon="-3.6844940">
        <ele>556.2</ele>
        <time>2018-06-16T08:04:05Z</time>
      </trkpt>
      <trkpt lat="38.3051140" lon="-3.6845140">
        <ele>556.2</ele>
        <time>2018-06-16T08:04:06Z</time>
      </trkpt>
      <trkpt lat="38.3051330" lon="-3.6845360">
        <ele>556.4</ele>
        <time>2018-06-16T08:04:07Z</time>
      </trkpt>
      <trkpt lat="38.3051520" lon="-3.6845540">
        <ele>556.6</ele>
        <time>2018-06-16T08:04:08Z</time>
      </trkpt>
      <trkpt lat="38.3051710" lon="-3.6845720">
        <ele>556.8</ele>
        <time>2018-06-16T08:04:09Z</time>
      </trkpt>
      <trkpt lat="38.3051890" lon="-3.6845910">
        <ele>556.8</ele>
        <time>2018-06-16T08:04:10Z</time>
      </trkpt>
      <trkpt lat="38.3052060" lon="-3.6846120">
        <ele>557.0</ele>
        <time>2018-06-16T08:04:11Z</time>
      </trkpt>
      <trkpt lat="38.3052290" lon="-3.6846460">
        <ele>557.0</ele>
        <time>2018-06-16T08:04:12Z</time>
      </trkpt>
      <trkpt lat="38.3052360" lon="-3.6846580">
        <ele>557.2</ele>
        <time>2018-06-16T08:04:13Z</time>
      </trkpt>
      <trkpt lat="38.3052510" lon="-3.6846830">
        <ele>557.2</ele>
        <time>2018-06-16T08:04:14Z</time>
      </trkpt>
      <trkpt lat="38.3052650" lon="-3.6847080">
        <ele>557.4</ele>
        <time>2018-06-16T08:04:15Z</time>
      </trkpt>
      <trkpt lat="38.3052810" lon="-3.6847470">
        <ele>557.4</ele>
        <time>2018-06-16T08:04:16Z</time>
      </trkpt>
      <trkpt lat="38.3052850" lon="-3.6847610">
        <ele>557.4</ele>
        <time>2018-06-16T08:04:17Z</time>
      </trkpt>
      <trkpt lat="38.3052950" lon="-3.6847870">
        <ele>557.4</ele>
        <time>2018-06-16T08:04:18Z</time>
      </trkpt>
      <trkpt lat="38.3053040" lon="-3.6848150">
        <ele>557.4</ele>
        <time>2018-06-16T08:04:19Z</time>
      </trkpt>
      <trkpt lat="38.3053150" lon="-3.6848420">
        <ele>557.6</ele>
        <time>2018-06-16T08:04:20Z</time>
      </trkpt>
      <trkpt lat="38.3053250" lon="-3.6848680">
        <ele>557.6</ele>
        <time>2018-06-16T08:04:21Z</time>
      </trkpt>
      <trkpt lat="38.3053360" lon="-3.6848950">
        <ele>557.6</ele>
        <time>2018-06-16T08:04:22Z</time>
      </trkpt>
      <trkpt lat="38.3053460" lon="-3.6849210">
        <ele>557.8</ele>
        <time>2018-06-16T08:04:23Z</time>
      </trkpt>
      <trkpt lat="38.3053600" lon="-3.6849630">
        <ele>557.8</ele>
        <time>2018-06-16T08:04:24Z</time>
      </trkpt>
      <trkpt lat="38.3053640" lon="-3.6849770">
        <ele>557.8</ele>
        <time>2018-06-16T08:04:25Z</time>
      </trkpt>
      <trkpt lat="38.3053690" lon="-3.6850050">
        <ele>558.0</ele>
        <time>2018-06-16T08:04:26Z</time>
      </trkpt>
      <trkpt lat="38.3053750" lon="-3.6850330">
        <ele>558.2</ele>
        <time>2018-06-16T08:04:27Z</time>
      </trkpt>
      <trkpt lat="38.3053830" lon="-3.6850760">
        <ele>558.2</ele>
        <time>2018-06-16T08:04:28Z</time>
      </trkpt>
      <trkpt lat="38.3053860" lon="-3.6850900">
        <ele>558.4</ele>
        <time>2018-06-16T08:04:29Z</time>
      </trkpt>
      <trkpt lat="38.3053920" lon="-3.6851190">
        <ele>558.4</ele>
        <time>2018-06-16T08:04:30Z</time>
      </trkpt>
      <trkpt lat="38.3053980" lon="-3.6851460">
        <ele>558.6</ele>
        <time>2018-06-16T08:04:31Z</time>
      </trkpt>
      <trkpt lat="38.3054050" lon="-3.6851730">
        <ele>558.8</ele>
        <time>2018-06-16T08:04:32Z</time>
      </trkpt>
      <trkpt lat="38.3054120" lon="-3.6852000">
        <ele>558.8</ele>
        <time>2018-06-16T08:04:33Z</time>
      </trkpt>
      <trkpt lat="38.3054200" lon="-3.6852280">
        <ele>559.0</ele>
        <time>2018-06-16T08:04:34Z</time>
      </trkpt>
      <trkpt lat="38.3054270" lon="-3.6852550">
        <ele>559.2</ele>
        <time>2018-06-16T08:04:35Z</time>
      </trkpt>
      <trkpt lat="38.3054370" lon="-3.6852800">
        <ele>559.2</ele>
        <time>2018-06-16T08:04:36Z</time>
      </trkpt>
      <trkpt lat="38.3054470" lon="-3.6853020">
        <ele>559.4</ele>
        <time>2018-06-16T08:04:37Z</time>
      </trkpt>
      <trkpt lat="38.3054580" lon="-3.6853240">
        <ele>559.4</ele>
        <time>2018-06-16T08:04:38Z</time>
      </trkpt>
      <trkpt lat="38.3054770" lon="-3.6853520">
        <ele>559.6</ele>
        <time>2018-06-16T08:04:39Z</time>
      </trkpt>
      <trkpt lat="38.3054850" lon="-3.6853600">
        <ele>559.6</ele>
        <time>2018-06-16T08:04:40Z</time>
      </trkpt>
      <trkpt lat="38.3055050" lon="-3.6853710">
        <ele>559.6</ele>
        <time>2018-06-16T08:04:41Z</time>
      </trkpt>
      <trkpt lat="38.3055270" lon="-3.6853820">
        <ele>559.6</ele>
        <time>2018-06-16T08:04:42Z</time>
      </trkpt>
      <trkpt lat="38.3055480" lon="-3.6853930">
        <ele>559.8</ele>
        <time>2018-06-16T08:04:43Z</time>
      </trkpt>
      <trkpt lat="38.3055670" lon="-3.6854050">
        <ele>559.8</ele>
        <time>2018-06-16T08:04:44Z</time>
      </trkpt>
      <trkpt lat="38.3055860" lon="-3.6854170">
        <ele>560.0</ele>
        <time>2018-06-16T08:04:45Z</time>
      </trkpt>
      <trkpt lat="38.3056030" lon="-3.6854290">
        <ele>560.0</ele>
        <time>2018-06-16T08:04:46Z</time>
      </trkpt>
      <trkpt lat="38.3056210" lon="-3.6854360">
        <ele>560.0</ele>
        <time>2018-06-16T08:04:47Z</time>
      </trkpt>
      <trkpt lat="38.3056390" lon="-3.6854460">
        <ele>560.2</ele>
        <time>2018-06-16T08:04:48Z</time>
      </trkpt>
      <trkpt lat="38.3056600" lon="-3.6854600">
        <ele>560.2</ele>
        <time>2018-06-16T08:04:49Z</time>
      </trkpt>
      <trkpt lat="38.3056800" lon="-3.6854720">
        <ele>560.2</ele>
        <time>2018-06-16T08:04:50Z</time>
      </trkpt>
      <trkpt lat="38.3056990" lon="-3.6854830">
        <ele>560.0</ele>
        <time>2018-06-16T08:04:51Z</time>
      </trkpt>
      <trkpt lat="38.3057190" lon="-3.6854960">
        <ele>560.2</ele>
        <time>2018-06-16T08:04:52Z</time>
      </trkpt>
      <trkpt lat="38.3057400" lon="-3.6855100">
        <ele>560.0</ele>
        <time>2018-06-16T08:04:53Z</time>
      </trkpt>
      <trkpt lat="38.3057610" lon="-3.6855220">
        <ele>559.8</ele>
        <time>2018-06-16T08:04:54Z</time>
      </trkpt>
      <trkpt lat="38.3057940" lon="-3.6855310">
        <ele>559.8</ele>
        <time>2018-06-16T08:04:55Z</time>
      </trkpt>
      <trkpt lat="38.3058050" lon="-3.6855330">
        <ele>559.6</ele>
        <time>2018-06-16T08:04:56Z</time>
      </trkpt>
      <trkpt lat="38.3058280" lon="-3.6855310">
        <ele>559.6</ele>
        <time>2018-06-16T08:04:57Z</time>
      </trkpt>
      <trkpt lat="38.3058500" lon="-3.6855240">
        <ele>559.6</ele>
        <time>2018-06-16T08:04:58Z</time>
      </trkpt>
      <trkpt lat="38.3058700" lon="-3.6855110">
        <ele>559.6</ele>
        <time>2018-06-16T08:04:59Z</time>
      </trkpt>
      <trkpt lat="38.3058850" lon="-3.6854950">
        <ele>559.4</ele>
        <time>2018-06-16T08:05:00Z</time>
      </trkpt>
      <trkpt lat="38.3058970" lon="-3.6854750">
        <ele>559.4</ele>
        <time>2018-06-16T08:05:01Z</time>
      </trkpt>
      <trkpt lat="38.3059100" lon="-3.6854550">
        <ele>559.4</ele>
        <time>2018-06-16T08:05:02Z</time>
      </trkpt>
      <trkpt lat="38.3059280" lon="-3.6854190">
        <ele>559.2</ele>
        <time>2018-06-16T08:05:03Z</time>
      </trkpt>
      <trkpt lat="38.3059310" lon="-3.6854020">
        <ele>559.2</ele>
        <time>2018-06-16T08:05:04Z</time>
      </trkpt>
      <trkpt lat="38.3059350" lon="-3.6853840">
        <ele>559.0</ele>
        <time>2018-06-16T08:05:05Z</time>
      </trkpt>
      <trkpt lat="38.3059380" lon="-3.6853670">
        <ele>559.0</ele>
        <time>2018-06-16T08:05:06Z</time>
      </trkpt>
      <trkpt lat="38.3059410" lon="-3.6853500">
        <ele>559.0</ele>
        <time>2018-06-16T08:05:07Z</time>
      </trkpt>
      <trkpt lat="38.3059440" lon="-3.6853270">
        <ele>558.8</ele>
        <time>2018-06-16T08:05:08Z</time>
      </trkpt>
      <trkpt lat="38.3059410" lon="-3.6853060">
        <ele>558.8</ele>
        <time>2018-06-16T08:05:09Z</time>
      </trkpt>
      <trkpt lat="38.3059380" lon="-3.6852840">
        <ele>558.6</ele>
        <time>2018-06-16T08:05:10Z</time>
      </trkpt>
      <trkpt lat="38.3059330" lon="-3.6852560">
        <ele>558.4</ele>
        <time>2018-06-16T08:05:11Z</time>
      </trkpt>
      <trkpt lat="38.3059320" lon="-3.6852450">
        <ele>558.4</ele>
        <time>2018-06-16T08:05:12Z</time>
      </trkpt>
      <trkpt lat="38.3059300" lon="-3.6852250">
        <ele>558.2</ele>
        <time>2018-06-16T08:05:13Z</time>
      </trkpt>
      <trkpt lat="38.3059320" lon="-3.6852000">
        <ele>558.2</ele>
        <time>2018-06-16T08:05:14Z</time>
      </trkpt>
      <trkpt lat="38.3059370" lon="-3.6851730">
        <ele>558.2</ele>
        <time>2018-06-16T08:05:15Z</time>
      </trkpt>
      <trkpt lat="38.3059450" lon="-3.6851480">
        <ele>558.2</ele>
        <time>2018-06-16T08:05:16Z</time>
      </trkpt>
      <trkpt lat="38.3059490" lon="-3.6851380">
        <ele>558.2</ele>
        <time>2018-06-16T08:05:17Z</time>
      </trkpt>
      <trkpt lat="38.3059490" lon="-3.6851370">
        <ele>558.2</ele>
        <time>2018-06-16T08:05:18Z</time>
      </trkpt>
      <trkpt lat="38.3059510" lon="-3.6851340">
        <ele>558.2</ele>
        <time>2018-06-16T08:05:19Z</time>
      </trkpt>
      <trkpt lat="38.3059520" lon="-3.6851290">
        <ele>558.2</ele>
        <time>2018-06-16T08:05:20Z</time>
      </trkpt>
      <trkpt lat="38.3059500" lon="-3.6851290">
        <ele>558.2</ele>
        <time>2018-06-16T08:05:21Z</time>
      </trkpt>
      <trkpt lat="38.3059510" lon="-3.6851290">
        <ele>558.2</ele>
        <time>2018-06-16T08:05:22Z</time>
      </trkpt>
      <trkpt lat="38.3059520" lon="-3.6851290">
        <ele>558.2</ele>
        <time>2018-06-16T08:05:23Z</time>
      </trkpt>
      <trkpt lat="38.3059530" lon="-3.6851250">
        <ele>558.4</ele>
        <time>2018-06-16T08:05:24Z</time>
      </trkpt>
      <trkpt lat="38.3059630" lon="-3.6851190">
        <ele>558.2</ele>
        <time>2018-06-16T08:05:25Z</time>
      </trkpt>
      <trkpt lat="38.3059680" lon="-3.6851180">
        <ele>558.2</ele>
        <time>2018-06-16T08:05:26Z</time>
      </trkpt>
      <trkpt lat="38.3059660" lon="-3.6851170">
        <ele>558.2</ele>
        <time>2018-06-16T08:05:27Z</time>
      </trkpt>
      <trkpt lat="38.3059700" lon="-3.6851150">
        <ele>558.2</ele>
        <time>2018-06-16T08:05:28Z</time>
      </trkpt>
      <trkpt lat="38.3059320" lon="-3.6851900">
        <ele>557.2</ele>
        <time>2018-06-16T08:17:17Z</time>
      </trkpt>
      <trkpt lat="38.3059340" lon="-3.6851990">
        <ele>557.2</ele>
        <time>2018-06-16T08:17:18Z</time>
      </trkpt>
      <trkpt lat="38.3059340" lon="-3.6852110">
        <ele>557.2</ele>
        <time>2018-06-16T08:17:19Z</time>
      </trkpt>
      <trkpt lat="38.3059330" lon="-3.6852220">
        <ele>557.2</ele>
        <time>2018-06-16T08:17:20Z</time>
      </trkpt>
      <trkpt lat="38.3059330" lon="-3.6852320">
        <ele>557.4</ele>
        <time>2018-06-16T08:17:21Z</time>
      </trkpt>
      <trkpt lat="38.3059330" lon="-3.6852400">
        <ele>557.4</ele>
        <time>2018-06-16T08:17:22Z</time>
      </trkpt>
      <trkpt lat="38.3059350" lon="-3.6852490">
        <ele>557.4</ele>
        <time>2018-06-16T08:17:23Z</time>
      </trkpt>
      <trkpt lat="38.3059360" lon="-3.6852570">
        <ele>557.4</ele>
        <time>2018-06-16T08:17:24Z</time>
      </trkpt>
      <trkpt lat="38.3059370" lon="-3.6852650">
        <ele>557.4</ele>
        <time>2018-06-16T08:17:25Z</time>
      </trkpt>
      <trkpt lat="38.3059380" lon="-3.6852730">
        <ele>557.4</ele>
        <time>2018-06-16T08:17:26Z</time>
      </trkpt>
      <trkpt lat="38.3059380" lon="-3.6852780">
        <ele>557.6</ele>
        <time>2018-06-16T08:17:27Z</time>
      </trkpt>
      <trkpt lat="38.3059400" lon="-3.6852830">
        <ele>557.6</ele>
        <time>2018-06-16T08:17:28Z</time>
      </trkpt>
      <trkpt lat="38.3059400" lon="-3.6852890">
        <ele>557.6</ele>
        <time>2018-06-16T08:17:29Z</time>
      </trkpt>
      <trkpt lat="38.3059420" lon="-3.6852960">
        <ele>557.6</ele>
        <time>2018-06-16T08:17:30Z</time>
      </trkpt>
      <trkpt lat="38.3059440" lon="-3.6853030">
        <ele>557.6</ele>
        <time>2018-06-16T08:17:31Z</time>
      </trkpt>
      <trkpt lat="38.3059440" lon="-3.6853110">
        <ele>557.8</ele>
        <time>2018-06-16T08:17:32Z</time>
      </trkpt>
      <trkpt lat="38.3059450" lon="-3.6853180">
        <ele>557.8</ele>
        <time>2018-06-16T08:17:33Z</time>
      </trkpt>
      <trkpt lat="38.3059470" lon="-3.6853230">
        <ele>557.8</ele>
        <time>2018-06-16T08:17:34Z</time>
      </trkpt>
      <trkpt lat="38.3059470" lon="-3.6853300">
        <ele>557.8</ele>
        <time>2018-06-16T08:17:35Z</time>
      </trkpt>
      <trkpt lat="38.3059490" lon="-3.6853300">
        <ele>557.8</ele>
        <time>2018-06-16T08:17:36Z</time>
      </trkpt>
      <trkpt lat="38.3059510" lon="-3.6853240">
        <ele>557.8</ele>
        <time>2018-06-16T08:17:37Z</time>
      </trkpt>
      <trkpt lat="38.3059510" lon="-3.6853240">
        <ele>557.8</ele>
        <time>2018-06-16T08:17:38Z</time>
      </trkpt>
      <trkpt lat="38.3059520" lon="-3.6853220">
        <ele>557.8</ele>
        <time>2018-06-16T08:17:39Z</time>
      </trkpt>
      <trkpt lat="38.3059560" lon="-3.6853210">
        <ele>557.8</ele>
        <time>2018-06-16T08:17:40Z</time>
      </trkpt>
      <trkpt lat="38.3059610" lon="-3.6853190">
        <ele>558.0</ele>
        <time>2018-06-16T08:17:41Z</time>
      </trkpt>
      <trkpt lat="38.3059630" lon="-3.6853180">
        <ele>557.8</ele>
        <time>2018-06-16T08:17:42Z</time>
      </trkpt>
      <trkpt lat="38.3059630" lon="-3.6853180">
        <ele>557.8</ele>
        <time>2018-06-16T08:17:43Z</time>
      </trkpt>
      <trkpt lat="38.3059630" lon="-3.6853170">
        <ele>557.8</ele>
        <time>2018-06-16T08:17:44Z</time>
      </trkpt>
      <trkpt lat="38.3059640" lon="-3.6853160">
        <ele>557.8</ele>
        <time>2018-06-16T08:17:45Z</time>
      </trkpt>
      <trkpt lat="38.3059640" lon="-3.6853160">
        <ele>557.8</ele>
        <time>2018-06-16T08:17:46Z</time>
      </trkpt>
      <trkpt lat="38.3059650" lon="-3.6853150">
        <ele>557.8</ele>
        <time>2018-06-16T08:17:47Z</time>
      </trkpt>
      <trkpt lat="38.3059650" lon="-3.6853150">
        <ele>557.8</ele>
        <time>2018-06-16T08:17:48Z</time>
      </trkpt>
      <trkpt lat="38.3059660" lon="-3.6853140">
        <ele>557.8</ele>
        <time>2018-06-16T08:17:49Z</time>
      </trkpt>
      <trkpt lat="38.3059660" lon="-3.6853140">
        <ele>557.8</ele>
        <time>2018-06-16T08:17:50Z</time>
      </trkpt>
      <trkpt lat="38.3059640" lon="-3.6853140">
        <ele>557.8</ele>
        <time>2018-06-16T08:17:51Z</time>
      </trkpt>
      <trkpt lat="38.3059640" lon="-3.6853130">
        <ele>557.8</ele>
        <time>2018-06-16T08:17:52Z</time>
      </trkpt>
      <trkpt lat="38.3059430" lon="-3.6854020">
        <ele>557.4</ele>
        <time>2018-06-16T08:19:07Z</time>
      </trkpt>
      <trkpt lat="38.3059370" lon="-3.6854140">
        <ele>557.6</ele>
        <time>2018-06-16T08:19:08Z</time>
      </trkpt>
      <trkpt lat="38.3059290" lon="-3.6854240">
        <ele>557.6</ele>
        <time>2018-06-16T08:19:09Z</time>
      </trkpt>
      <trkpt lat="38.3059210" lon="-3.6854350">
        <ele>557.6</ele>
        <time>2018-06-16T08:19:10Z</time>
      </trkpt>
      <trkpt lat="38.3059150" lon="-3.6854460">
        <ele>557.6</ele>
        <time>2018-06-16T08:19:11Z</time>
      </trkpt>
      <trkpt lat="38.3059080" lon="-3.6854560">
        <ele>557.6</ele>
        <time>2018-06-16T08:19:12Z</time>
      </trkpt>
      <trkpt lat="38.3059000" lon="-3.6854650">
        <ele>557.6</ele>
        <time>2018-06-16T08:19:13Z</time>
      </trkpt>
      <trkpt lat="38.3058920" lon="-3.6854710">
        <ele>557.8</ele>
        <time>2018-06-16T08:19:14Z</time>
      </trkpt>
      <trkpt lat="38.3058840" lon="-3.6854780">
        <ele>557.8</ele>
        <time>2018-06-16T08:19:15Z</time>
      </trkpt>
      <trkpt lat="38.3058770" lon="-3.6854850">
        <ele>557.8</ele>
        <time>2018-06-16T08:19:16Z</time>
      </trkpt>
      <trkpt lat="38.3058700" lon="-3.6854930">
        <ele>557.8</ele>
        <time>2018-06-16T08:19:17Z</time>
      </trkpt>
      <trkpt lat="38.3058620" lon="-3.6855060">
        <ele>557.8</ele>
        <time>2018-06-16T08:19:18Z</time>
      </trkpt>
      <trkpt lat="38.3058540" lon="-3.6855130">
        <ele>557.8</ele>
        <time>2018-06-16T08:19:19Z</time>
      </trkpt>
      <trkpt lat="38.3058470" lon="-3.6855190">
        <ele>558.0</ele>
        <time>2018-06-16T08:19:20Z</time>
      </trkpt>
      <trkpt lat="38.3058420" lon="-3.6855220">
        <ele>558.0</ele>
        <time>2018-06-16T08:19:21Z</time>
      </trkpt>
      <trkpt lat="38.3058400" lon="-3.6855220">
        <ele>558.0</ele>
        <time>2018-06-16T08:19:22Z</time>
      </trkpt>
      <trkpt lat="38.3058360" lon="-3.6855200">
        <ele>557.8</ele>
        <time>2018-06-16T08:19:23Z</time>
      </trkpt>
      <trkpt lat="38.3058300" lon="-3.6855240">
        <ele>558.0</ele>
        <time>2018-06-16T08:19:24Z</time>
      </trkpt>
      <trkpt lat="38.3058220" lon="-3.6855270">
        <ele>558.0</ele>
        <time>2018-06-16T08:19:25Z</time>
      </trkpt>
      <trkpt lat="38.3058140" lon="-3.6855290">
        <ele>558.0</ele>
        <time>2018-06-16T08:19:26Z</time>
      </trkpt>
      <trkpt lat="38.3058060" lon="-3.6855290">
        <ele>558.0</ele>
        <time>2018-06-16T08:19:27Z</time>
      </trkpt>
      <trkpt lat="38.3057980" lon="-3.6855300">
        <ele>558.0</ele>
        <time>2018-06-16T08:19:28Z</time>
      </trkpt>
      <trkpt lat="38.3057910" lon="-3.6855310">
        <ele>558.2</ele>
        <time>2018-06-16T08:19:29Z</time>
      </trkpt>
      <trkpt lat="38.3057840" lon="-3.6855310">
        <ele>558.2</ele>
        <time>2018-06-16T08:19:30Z</time>
      </trkpt>
      <trkpt lat="38.3057730" lon="-3.6855270">
        <ele>558.2</ele>
        <time>2018-06-16T08:19:31Z</time>
      </trkpt>
      <trkpt lat="38.3057620" lon="-3.6855260">
        <ele>558.4</ele>
        <time>2018-06-16T08:19:32Z</time>
      </trkpt>
      <trkpt lat="38.3057570" lon="-3.6855260">
        <ele>558.4</ele>
        <time>2018-06-16T08:19:33Z</time>
      </trkpt>
      <trkpt lat="38.3057490" lon="-3.6855260">
        <ele>558.4</ele>
        <time>2018-06-16T08:19:34Z</time>
      </trkpt>
      <trkpt lat="38.3057380" lon="-3.6855270">
        <ele>558.4</ele>
        <time>2018-06-16T08:19:35Z</time>
      </trkpt>
      <trkpt lat="38.3057280" lon="-3.6855270">
        <ele>558.4</ele>
        <time>2018-06-16T08:19:36Z</time>
      </trkpt>
      <trkpt lat="38.3057220" lon="-3.6855300">
        <ele>558.6</ele>
        <time>2018-06-16T08:19:37Z</time>
      </trkpt>
      <trkpt lat="38.3057160" lon="-3.6855290">
        <ele>558.6</ele>
        <time>2018-06-16T08:19:38Z</time>
      </trkpt>
      <trkpt lat="38.3057120" lon="-3.6855280">
        <ele>558.6</ele>
        <time>2018-06-16T08:19:39Z</time>
      </trkpt>
      <trkpt lat="38.3057110" lon="-3.6855280">
        <ele>558.6</ele>
        <time>2018-06-16T08:19:40Z</time>
      </trkpt>
      <trkpt lat="38.3057060" lon="-3.6855220">
        <ele>558.6</ele>
        <time>2018-06-16T08:19:41Z</time>
      </trkpt>
      <trkpt lat="38.3057000" lon="-3.6855140">
        <ele>558.4</ele>
        <time>2018-06-16T08:19:42Z</time>
      </trkpt>
      <trkpt lat="38.3056940" lon="-3.6855050">
        <ele>558.6</ele>
        <time>2018-06-16T08:19:43Z</time>
      </trkpt>
      <trkpt lat="38.3056850" lon="-3.6854970">
        <ele>558.4</ele>
        <time>2018-06-16T08:19:44Z</time>
      </trkpt>
      <trkpt lat="38.3056780" lon="-3.6854880">
        <ele>558.4</ele>
        <time>2018-06-16T08:19:45Z</time>
      </trkpt>
      <trkpt lat="38.3056680" lon="-3.6854810">
        <ele>558.4</ele>
        <time>2018-06-16T08:19:46Z</time>
      </trkpt>
      <trkpt lat="38.3056590" lon="-3.6854770">
        <ele>558.4</ele>
        <time>2018-06-16T08:19:47Z</time>
      </trkpt>
      <trkpt lat="38.3056500" lon="-3.6854750">
        <ele>558.4</ele>
        <time>2018-06-16T08:19:48Z</time>
      </trkpt>
      <trkpt lat="38.3056420" lon="-3.6854740">
        <ele>558.4</ele>
        <time>2018-06-16T08:19:49Z</time>
      </trkpt>
      <trkpt lat="38.3056330" lon="-3.6854740">
        <ele>558.4</ele>
        <time>2018-06-16T08:19:50Z</time>
      </trkpt>
      <trkpt lat="38.3056240" lon="-3.6854730">
        <ele>558.4</ele>
        <time>2018-06-16T08:19:51Z</time>
      </trkpt>
      <trkpt lat="38.3056150" lon="-3.6854720">
        <ele>558.4</ele>
        <time>2018-06-16T08:19:52Z</time>
      </trkpt>
      <trkpt lat="38.3056040" lon="-3.6854710">
        <ele>558.4</ele>
        <time>2018-06-16T08:19:53Z</time>
      </trkpt>
      <trkpt lat="38.3055920" lon="-3.6854720">
        <ele>558.4</ele>
        <time>2018-06-16T08:19:54Z</time>
      </trkpt>
      <trkpt lat="38.3055830" lon="-3.6854730">
        <ele>558.4</ele>
        <time>2018-06-16T08:19:55Z</time>
      </trkpt>
      <trkpt lat="38.3055750" lon="-3.6854750">
        <ele>558.4</ele>
        <time>2018-06-16T08:19:56Z</time>
      </trkpt>
      <trkpt lat="38.3055670" lon="-3.6854770">
        <ele>558.4</ele>
        <time>2018-06-16T08:19:57Z</time>
      </trkpt>
      <trkpt lat="38.3055590" lon="-3.6854790">
        <ele>558.4</ele>
        <time>2018-06-16T08:19:58Z</time>
      </trkpt>
      <trkpt lat="38.3055490" lon="-3.6854830">
        <ele>558.4</ele>
        <time>2018-06-16T08:19:59Z</time>
      </trkpt>
      <trkpt lat="38.3055410" lon="-3.6854860">
        <ele>558.8</ele>
        <time>2018-06-16T08:20:00Z</time>
      </trkpt>
      <trkpt lat="38.3055340" lon="-3.6854900">
        <ele>558.8</ele>
        <time>2018-06-16T08:20:01Z</time>
      </trkpt>
      <trkpt lat="38.3055260" lon="-3.6854960">
        <ele>558.8</ele>
        <time>2018-06-16T08:20:02Z</time>
      </trkpt>
      <trkpt lat="38.3055190" lon="-3.6855040">
        <ele>558.8</ele>
        <time>2018-06-16T08:20:03Z</time>
      </trkpt>
      <trkpt lat="38.3055100" lon="-3.6855090">
        <ele>559.0</ele>
        <time>2018-06-16T08:20:04Z</time>
      </trkpt>
      <trkpt lat="38.3055000" lon="-3.6855070">
        <ele>558.8</ele>
        <time>2018-06-16T08:20:05Z</time>
      </trkpt>
      <trkpt lat="38.3054910" lon="-3.6855070">
        <ele>559.0</ele>
        <time>2018-06-16T08:20:06Z</time>
      </trkpt>
      <trkpt lat="38.3054870" lon="-3.6855060">
        <ele>559.0</ele>
        <time>2018-06-16T08:20:07Z</time>
      </trkpt>
      <trkpt lat="38.3054860" lon="-3.6855060">
        <ele>559.0</ele>
        <time>2018-06-16T08:20:08Z</time>
      </trkpt>
      <trkpt lat="38.3054870" lon="-3.6855070">
        <ele>559.0</ele>
        <time>2018-06-16T08:20:09Z</time>
      </trkpt>
      <trkpt lat="38.3054860" lon="-3.6855080">
        <ele>559.0</ele>
        <time>2018-06-16T08:20:10Z</time>
      </trkpt>
      <trkpt lat="38.3054860" lon="-3.6855080">
        <ele>559.0</ele>
        <time>2018-06-16T08:20:11Z</time>
      </trkpt>
      <trkpt lat="38.3054870" lon="-3.6855070">
        <ele>559.0</ele>
        <time>2018-06-16T08:20:12Z</time>
      </trkpt>
      <trkpt lat="38.3054880" lon="-3.6855050">
        <ele>559.0</ele>
        <time>2018-06-16T08:20:13Z</time>
      </trkpt>
      <trkpt lat="38.3054880" lon="-3.6855040">
        <ele>559.0</ele>
        <time>2018-06-16T08:20:14Z</time>
      </trkpt>
      <trkpt lat="38.3054880" lon="-3.6855020">
        <ele>558.8</ele>
        <time>2018-06-16T08:20:15Z</time>
      </trkpt>
      <trkpt lat="38.3054870" lon="-3.6855020">
        <ele>559.0</ele>
        <time>2018-06-16T08:20:16Z</time>
      </trkpt>
      <trkpt lat="38.3054870" lon="-3.6855010">
        <ele>559.0</ele>
        <time>2018-06-16T08:20:17Z</time>
      </trkpt>
      <trkpt lat="38.3054870" lon="-3.6855000">
        <ele>559.0</ele>
        <time>2018-06-16T08:20:18Z</time>
      </trkpt>
      <trkpt lat="38.3054870" lon="-3.6855000">
        <ele>559.0</ele>
        <time>2018-06-16T08:20:19Z</time>
      </trkpt>
      <trkpt lat="38.3054870" lon="-3.6854990">
        <ele>559.0</ele>
        <time>2018-06-16T08:20:20Z</time>
      </trkpt>
      <trkpt lat="38.3054880" lon="-3.6854960">
        <ele>559.0</ele>
        <time>2018-06-16T08:20:21Z</time>
      </trkpt>
      <trkpt lat="38.3054890" lon="-3.6854950">
        <ele>558.8</ele>
        <time>2018-06-16T08:20:22Z</time>
      </trkpt>
      <trkpt lat="38.3054890" lon="-3.6854950">
        <ele>558.8</ele>
        <time>2018-06-16T08:20:23Z</time>
      </trkpt>
      <trkpt lat="38.3054880" lon="-3.6854950">
        <ele>558.8</ele>
        <time>2018-06-16T08:20:24Z</time>
      </trkpt>
      <trkpt lat="38.3054870" lon="-3.6854900">
        <ele>559.0</ele>
        <time>2018-06-16T08:20:25Z</time>
      </trkpt>
      <trkpt lat="38.3054860" lon="-3.6854840">
        <ele>558.8</ele>
        <time>2018-06-16T08:20:26Z</time>
      </trkpt>
      <trkpt lat="38.3054810" lon="-3.6854690">
        <ele>558.6</ele>
        <time>2018-06-16T08:20:27Z</time>
      </trkpt>
      <trkpt lat="38.3054760" lon="-3.6854460">
        <ele>558.6</ele>
        <time>2018-06-16T08:20:28Z</time>
      </trkpt>
      <trkpt lat="38.3054670" lon="-3.6854150">
        <ele>558.4</ele>
        <time>2018-06-16T08:20:29Z</time>
      </trkpt>
      <trkpt lat="38.3054560" lon="-3.6853780">
        <ele>558.0</ele>
        <time>2018-06-16T08:20:30Z</time>
      </trkpt>
      <trkpt lat="38.3054420" lon="-3.6853350">
        <ele>557.8</ele>
        <time>2018-06-16T08:20:31Z</time>
      </trkpt>
      <trkpt lat="38.3054270" lon="-3.6852850">
        <ele>557.6</ele>
        <time>2018-06-16T08:20:32Z</time>
      </trkpt>
      <trkpt lat="38.3054130" lon="-3.6852290">
        <ele>557.2</ele>
        <time>2018-06-16T08:20:33Z</time>
      </trkpt>
      <trkpt lat="38.3053980" lon="-3.6851700">
        <ele>557.0</ele>
        <time>2018-06-16T08:20:34Z</time>
      </trkpt>
      <trkpt lat="38.3053810" lon="-3.6851070">
        <ele>556.6</ele>
        <time>2018-06-16T08:20:35Z</time>
      </trkpt>
      <trkpt lat="38.3053610" lon="-3.6850400">
        <ele>556.4</ele>
        <time>2018-06-16T08:20:36Z</time>
      </trkpt>
      <trkpt lat="38.3053360" lon="-3.6849710">
        <ele>556.0</ele>
        <time>2018-06-16T08:20:37Z</time>
      </trkpt>
      <trkpt lat="38.3053100" lon="-3.6849000">
        <ele>555.8</ele>
        <time>2018-06-16T08:20:38Z</time>
      </trkpt>
      <trkpt lat="38.3052810" lon="-3.6848250">
        <ele>555.4</ele>
        <time>2018-06-16T08:20:39Z</time>
      </trkpt>
      <trkpt lat="38.3052480" lon="-3.6847500">
        <ele>555.2</ele>
        <time>2018-06-16T08:20:40Z</time>
      </trkpt>
      <trkpt lat="38.3052120" lon="-3.6846750">
        <ele>554.8</ele>
        <time>2018-06-16T08:20:41Z</time>
      </trkpt>
      <trkpt lat="38.3051650" lon="-3.6846040">
        <ele>554.4</ele>
        <time>2018-06-16T08:20:42Z</time>
      </trkpt>
      <trkpt lat="38.3051050" lon="-3.6845440">
        <ele>554.0</ele>
        <time>2018-06-16T08:20:43Z</time>
      </trkpt>
      <trkpt lat="38.3050390" lon="-3.6844910">
        <ele>553.6</ele>
        <time>2018-06-16T08:20:44Z</time>
      </trkpt>
      <trkpt lat="38.3049710" lon="-3.6844340">
        <ele>552.8</ele>
        <time>2018-06-16T08:20:45Z</time>
      </trkpt>
      <trkpt lat="38.3049030" lon="-3.6843730">
        <ele>552.6</ele>
        <time>2018-06-16T08:20:46Z</time>
      </trkpt>
      <trkpt lat="38.3048370" lon="-3.6843080">
        <ele>552.6</ele>
        <time>2018-06-16T08:20:47Z</time>
      </trkpt>
      <trkpt lat="38.3047780" lon="-3.6842350">
        <ele>552.6</ele>
        <time>2018-06-16T08:20:48Z</time>
      </trkpt>
      <trkpt lat="38.3047310" lon="-3.6841490">
        <ele>552.4</ele>
        <time>2018-06-16T08:20:49Z</time>
      </trkpt>
      <trkpt lat="38.3046980" lon="-3.6840500">
        <ele>552.0</ele>
        <time>2018-06-16T08:20:50Z</time>
      </trkpt>
      <trkpt lat="38.3046750" lon="-3.6839460">
        <ele>551.4</ele>
        <time>2018-06-16T08:20:51Z</time>
      </trkpt>
      <trkpt lat="38.3046610" lon="-3.6838370">
        <ele>551.0</ele>
        <time>2018-06-16T08:20:52Z</time>
      </trkpt>
      <trkpt lat="38.3046510" lon="-3.6837250">
        <ele>550.6</ele>
        <time>2018-06-16T08:20:53Z</time>
      </trkpt>
      <trkpt lat="38.3046380" lon="-3.6836140">
        <ele>550.2</ele>
        <time>2018-06-16T08:20:54Z</time>
      </trkpt>
      <trkpt lat="38.3046230" lon="-3.6835020">
        <ele>549.8</ele>
        <time>2018-06-16T08:20:55Z</time>
      </trkpt>
      <trkpt lat="38.3046120" lon="-3.6833850">
        <ele>549.4</ele>
        <time>2018-06-16T08:20:56Z</time>
      </trkpt>
      <trkpt lat="38.3045990" lon="-3.6832640">
        <ele>548.8</ele>
        <time>2018-06-16T08:20:57Z</time>
      </trkpt>
      <trkpt lat="38.3045840" lon="-3.6831430">
        <ele>548.4</ele>
        <time>2018-06-16T08:20:58Z</time>
      </trkpt>
      <trkpt lat="38.3045730" lon="-3.6830180">
        <ele>548.0</ele>
        <time>2018-06-16T08:20:59Z</time>
      </trkpt>
      <trkpt lat="38.3045570" lon="-3.6828960">
        <ele>547.8</ele>
        <time>2018-06-16T08:21:00Z</time>
      </trkpt>
      <trkpt lat="38.3045420" lon="-3.6827700">
        <ele>547.0</ele>
        <time>2018-06-16T08:21:01Z</time>
      </trkpt>
      <trkpt lat="38.3045260" lon="-3.6826440">
        <ele>546.4</ele>
        <time>2018-06-16T08:21:02Z</time>
      </trkpt>
      <trkpt lat="38.3045120" lon="-3.6825150">
        <ele>545.6</ele>
        <time>2018-06-16T08:21:03Z</time>
      </trkpt>
      <trkpt lat="38.3045020" lon="-3.6823840">
        <ele>545.4</ele>
        <time>2018-06-16T08:21:04Z</time>
      </trkpt>
      <trkpt lat="38.3044970" lon="-3.6822550">
        <ele>545.0</ele>
        <time>2018-06-16T08:21:05Z</time>
      </trkpt>
      <trkpt lat="38.3044980" lon="-3.6821260">
        <ele>544.4</ele>
        <time>2018-06-16T08:21:06Z</time>
      </trkpt>
      <trkpt lat="38.3045040" lon="-3.6819930">
        <ele>543.6</ele>
        <time>2018-06-16T08:21:07Z</time>
      </trkpt>
      <trkpt lat="38.3045140" lon="-3.6818510">
        <ele>542.6</ele>
        <time>2018-06-16T08:21:08Z</time>
      </trkpt>
      <trkpt lat="38.3045260" lon="-3.6817080">
        <ele>542.0</ele>
        <time>2018-06-16T08:21:09Z</time>
      </trkpt>
      <trkpt lat="38.3045390" lon="-3.6815640">
        <ele>541.4</ele>
        <time>2018-06-16T08:21:10Z</time>
      </trkpt>
      <trkpt lat="38.3045480" lon="-3.6814210">
        <ele>541.0</ele>
        <time>2018-06-16T08:21:11Z</time>
      </trkpt>
      <trkpt lat="38.3045500" lon="-3.6812840">
        <ele>540.8</ele>
        <time>2018-06-16T08:21:12Z</time>
      </trkpt>
      <trkpt lat="38.3045350" lon="-3.6811450">
        <ele>539.4</ele>
        <time>2018-06-16T08:21:13Z</time>
      </trkpt>
      <trkpt lat="38.3045090" lon="-3.6810000">
        <ele>538.6</ele>
        <time>2018-06-16T08:21:14Z</time>
      </trkpt>
      <trkpt lat="38.3044700" lon="-3.6808580">
        <ele>537.6</ele>
        <time>2018-06-16T08:21:15Z</time>
      </trkpt>
      <trkpt lat="38.3044270" lon="-3.6807160">
        <ele>537.0</ele>
        <time>2018-06-16T08:21:16Z</time>
      </trkpt>
      <trkpt lat="38.3043870" lon="-3.6805800">
        <ele>536.0</ele>
        <time>2018-06-16T08:21:17Z</time>
      </trkpt>
      <trkpt lat="38.3043490" lon="-3.6804550">
        <ele>535.2</ele>
        <time>2018-06-16T08:21:18Z</time>
      </trkpt>
      <trkpt lat="38.3043120" lon="-3.6803360">
        <ele>534.6</ele>
        <time>2018-06-16T08:21:19Z</time>
      </trkpt>
      <trkpt lat="38.3042670" lon="-3.6802160">
        <ele>533.4</ele>
        <time>2018-06-16T08:21:20Z</time>
      </trkpt>
      <trkpt lat="38.3042070" lon="-3.6801030">
        <ele>532.2</ele>
        <time>2018-06-16T08:21:21Z</time>
      </trkpt>
      <trkpt lat="38.3041230" lon="-3.6800120">
        <ele>531.0</ele>
        <time>2018-06-16T08:21:22Z</time>
      </trkpt>
      <trkpt lat="38.3040270" lon="-3.6799320">
        <ele>529.4</ele>
        <time>2018-06-16T08:21:23Z</time>
      </trkpt>
      <trkpt lat="38.3039220" lon="-3.6798580">
        <ele>528.0</ele>
        <time>2018-06-16T08:21:24Z</time>
      </trkpt>
      <trkpt lat="38.3038140" lon="-3.6797870">
        <ele>527.2</ele>
        <time>2018-06-16T08:21:25Z</time>
      </trkpt>
      <trkpt lat="38.3037010" lon="-3.6797250">
        <ele>526.4</ele>
        <time>2018-06-16T08:21:26Z</time>
      </trkpt>
      <trkpt lat="38.3035840" lon="-3.6796720">
        <ele>525.6</ele>
        <time>2018-06-16T08:21:27Z</time>
      </trkpt>
      <trkpt lat="38.3034670" lon="-3.6796260">
        <ele>525.0</ele>
        <time>2018-06-16T08:21:28Z</time>
      </trkpt>
      <trkpt lat="38.3033490" lon="-3.6795900">
        <ele>524.6</ele>
        <time>2018-06-16T08:21:29Z</time>
      </trkpt>
      <trkpt lat="38.3032350" lon="-3.6795690">
        <ele>524.4</ele>
        <time>2018-06-16T08:21:30Z</time>
      </trkpt>
      <trkpt lat="38.3031230" lon="-3.6795610">
        <ele>524.0</ele>
        <time>2018-06-16T08:21:31Z</time>
      </trkpt>
      <trkpt lat="38.3030140" lon="-3.6795690">
        <ele>523.0</ele>
        <time>2018-06-16T08:21:32Z</time>
      </trkpt>
      <trkpt lat="38.3029020" lon="-3.6795840">
        <ele>521.8</ele>
        <time>2018-06-16T08:21:33Z</time>
      </trkpt>
      <trkpt lat="38.3027860" lon="-3.6796120">
        <ele>521.8</ele>
        <time>2018-06-16T08:21:34Z</time>
      </trkpt>
      <trkpt lat="38.3026660" lon="-3.6796490">
        <ele>520.0</ele>
        <time>2018-06-16T08:21:35Z</time>
      </trkpt>
      <trkpt lat="38.3025450" lon="-3.6796950">
        <ele>518.4</ele>
        <time>2018-06-16T08:21:36Z</time>
      </trkpt>
      <trkpt lat="38.3024260" lon="-3.6797420">
        <ele>517.2</ele>
        <time>2018-06-16T08:21:37Z</time>
      </trkpt>
      <trkpt lat="38.3023090" lon="-3.6797890">
        <ele>516.4</ele>
        <time>2018-06-16T08:21:38Z</time>
      </trkpt>
      <trkpt lat="38.3022010" lon="-3.6798310">
        <ele>515.0</ele>
        <time>2018-06-16T08:21:39Z</time>
      </trkpt>
      <trkpt lat="38.3021010" lon="-3.6798740">
        <ele>514.2</ele>
        <time>2018-06-16T08:21:40Z</time>
      </trkpt>
      <trkpt lat="38.3020060" lon="-3.6799110">
        <ele>513.2</ele>
        <time>2018-06-16T08:21:41Z</time>
      </trkpt>
      <trkpt lat="38.3019090" lon="-3.6799350">
        <ele>512.4</ele>
        <time>2018-06-16T08:21:42Z</time>
      </trkpt>
      <trkpt lat="38.3018030" lon="-3.6799360">
        <ele>510.4</ele>
        <time>2018-06-16T08:21:43Z</time>
      </trkpt>
      <trkpt lat="38.3016880" lon="-3.6799180">
        <ele>508.6</ele>
        <time>2018-06-16T08:21:44Z</time>
      </trkpt>
      <trkpt lat="38.3015680" lon="-3.6798900">
        <ele>507.0</ele>
        <time>2018-06-16T08:21:45Z</time>
      </trkpt>
      <trkpt lat="38.3014510" lon="-3.6798590">
        <ele>505.4</ele>
        <time>2018-06-16T08:21:46Z</time>
      </trkpt>
      <trkpt lat="38.3013310" lon="-3.6798250">
        <ele>504.0</ele>
        <time>2018-06-16T08:21:47Z</time>
      </trkpt>
      <trkpt lat="38.3012060" lon="-3.6797980">
        <ele>502.6</ele>
        <time>2018-06-16T08:21:48Z</time>
      </trkpt>
      <trkpt lat="38.3010750" lon="-3.6797910">
        <ele>501.8</ele>
        <time>2018-06-16T08:21:49Z</time>
      </trkpt>
      <trkpt lat="38.3009480" lon="-3.6798040">
        <ele>501.2</ele>
        <time>2018-06-16T08:21:50Z</time>
      </trkpt>
      <trkpt lat="38.3008240" lon="-3.6798230">
        <ele>500.4</ele>
        <time>2018-06-16T08:21:51Z</time>
      </trkpt>
      <trkpt lat="38.3007100" lon="-3.6798360">
        <ele>499.4</ele>
        <time>2018-06-16T08:21:52Z</time>
      </trkpt>
      <trkpt lat="38.3006000" lon="-3.6798350">
        <ele>498.6</ele>
        <time>2018-06-16T08:21:53Z</time>
      </trkpt>
      <trkpt lat="38.3004960" lon="-3.6798220">
        <ele>497.2</ele>
        <time>2018-06-16T08:21:54Z</time>
      </trkpt>
      <trkpt lat="38.3003920" lon="-3.6797900">
        <ele>496.2</ele>
        <time>2018-06-16T08:21:55Z</time>
      </trkpt>
      <trkpt lat="38.3002860" lon="-3.6797350">
        <ele>494.8</ele>
        <time>2018-06-16T08:21:56Z</time>
      </trkpt>
      <trkpt lat="38.3001750" lon="-3.6796710">
        <ele>493.4</ele>
        <time>2018-06-16T08:21:57Z</time>
      </trkpt>
      <trkpt lat="38.3000580" lon="-3.6796060">
        <ele>492.2</ele>
        <time>2018-06-16T08:21:58Z</time>
      </trkpt>
      <trkpt lat="38.2999350" lon="-3.6795410">
        <ele>491.2</ele>
        <time>2018-06-16T08:21:59Z</time>
      </trkpt>
      <trkpt lat="38.2998030" lon="-3.6794850">
        <ele>489.6</ele>
        <time>2018-06-16T08:22:00Z</time>
      </trkpt>
      <trkpt lat="38.2996640" lon="-3.6794420">
        <ele>487.8</ele>
        <time>2018-06-16T08:22:01Z</time>
      </trkpt>
      <trkpt lat="38.2995230" lon="-3.6793930">
        <ele>486.6</ele>
        <time>2018-06-16T08:22:02Z</time>
      </trkpt>
      <trkpt lat="38.2993810" lon="-3.6793400">
        <ele>485.8</ele>
        <time>2018-06-16T08:22:03Z</time>
      </trkpt>
      <trkpt lat="38.2992380" lon="-3.6792830">
        <ele>484.0</ele>
        <time>2018-06-16T08:22:04Z</time>
      </trkpt>
      <trkpt lat="38.2990930" lon="-3.6792230">
        <ele>482.6</ele>
        <time>2018-06-16T08:22:05Z</time>
      </trkpt>
      <trkpt lat="38.2989480" lon="-3.6791590">
        <ele>481.2</ele>
        <time>2018-06-16T08:22:06Z</time>
      </trkpt>
      <trkpt lat="38.2988040" lon="-3.6790960">
        <ele>480.2</ele>
        <time>2018-06-16T08:22:07Z</time>
      </trkpt>
      <trkpt lat="38.2986590" lon="-3.6790380">
        <ele>479.2</ele>
        <time>2018-06-16T08:22:08Z</time>
      </trkpt>
      <trkpt lat="38.2985100" lon="-3.6789980">
        <ele>478.0</ele>
        <time>2018-06-16T08:22:09Z</time>
      </trkpt>
      <trkpt lat="38.2983600" lon="-3.6789690">
        <ele>477.0</ele>
        <time>2018-06-16T08:22:10Z</time>
      </trkpt>
      <trkpt lat="38.2982080" lon="-3.6789530">
        <ele>475.4</ele>
        <time>2018-06-16T08:22:11Z</time>
      </trkpt>
      <trkpt lat="38.2980550" lon="-3.6789320">
        <ele>474.2</ele>
        <time>2018-06-16T08:22:12Z</time>
      </trkpt>
      <trkpt lat="38.2979050" lon="-3.6789190">
        <ele>473.4</ele>
        <time>2018-06-16T08:22:13Z</time>
      </trkpt>
      <trkpt lat="38.2977630" lon="-3.6789070">
        <ele>472.8</ele>
        <time>2018-06-16T08:22:14Z</time>
      </trkpt>
      <trkpt lat="38.2976320" lon="-3.6788910">
        <ele>472.2</ele>
        <time>2018-06-16T08:22:15Z</time>
      </trkpt>
      <trkpt lat="38.2975110" lon="-3.6788570">
        <ele>471.8</ele>
        <time>2018-06-16T08:22:16Z</time>
      </trkpt>
      <trkpt lat="38.2973980" lon="-3.6787990">
        <ele>471.2</ele>
        <time>2018-06-16T08:22:17Z</time>
      </trkpt>
      <trkpt lat="38.2972900" lon="-3.6787190">
        <ele>470.2</ele>
        <time>2018-06-16T08:22:18Z</time>
      </trkpt>
      <trkpt lat="38.2971810" lon="-3.6786360">
        <ele>469.4</ele>
        <time>2018-06-16T08:22:19Z</time>
      </trkpt>
      <trkpt lat="38.2970720" lon="-3.6785540">
        <ele>468.8</ele>
        <time>2018-06-16T08:22:20Z</time>
      </trkpt>
      <trkpt lat="38.2969510" lon="-3.6784950">
        <ele>468.0</ele>
        <time>2018-06-16T08:22:21Z</time>
      </trkpt>
      <trkpt lat="38.2968260" lon="-3.6784430">
        <ele>467.2</ele>
        <time>2018-06-16T08:22:22Z</time>
      </trkpt>
      <trkpt lat="38.2967040" lon="-3.6783890">
        <ele>466.6</ele>
        <time>2018-06-16T08:22:23Z</time>
      </trkpt>
      <trkpt lat="38.2965900" lon="-3.6783150">
        <ele>466.0</ele>
        <time>2018-06-16T08:22:24Z</time>
      </trkpt>
      <trkpt lat="38.2964900" lon="-3.6782200">
        <ele>465.4</ele>
        <time>2018-06-16T08:22:25Z</time>
      </trkpt>
      <trkpt lat="38.2964000" lon="-3.6781120">
        <ele>464.6</ele>
        <time>2018-06-16T08:22:26Z</time>
      </trkpt>
      <trkpt lat="38.2963090" lon="-3.6780060">
        <ele>464.0</ele>
        <time>2018-06-16T08:22:27Z</time>
      </trkpt>
      <trkpt lat="38.2962140" lon="-3.6779100">
        <ele>463.0</ele>
        <time>2018-06-16T08:22:28Z</time>
      </trkpt>
      <trkpt lat="38.2961150" lon="-3.6778190">
        <ele>463.2</ele>
        <time>2018-06-16T08:22:29Z</time>
      </trkpt>
      <trkpt lat="38.2960210" lon="-3.6777210">
        <ele>462.6</ele>
        <time>2018-06-16T08:22:30Z</time>
      </trkpt>
      <trkpt lat="38.2959370" lon="-3.6776070">
        <ele>461.8</ele>
        <time>2018-06-16T08:22:31Z</time>
      </trkpt>
      <trkpt lat="38.2958620" lon="-3.6774810">
        <ele>461.0</ele>
        <time>2018-06-16T08:22:32Z</time>
      </trkpt>
      <trkpt lat="38.2958000" lon="-3.6773450">
        <ele>460.2</ele>
        <time>2018-06-16T08:22:33Z</time>
      </trkpt>
      <trkpt lat="38.2957450" lon="-3.6772010">
        <ele>459.0</ele>
        <time>2018-06-16T08:22:34Z</time>
      </trkpt>
      <trkpt lat="38.2957000" lon="-3.6770500">
        <ele>458.2</ele>
        <time>2018-06-16T08:22:35Z</time>
      </trkpt>
      <trkpt lat="38.2956780" lon="-3.6768920">
        <ele>457.4</ele>
        <time>2018-06-16T08:22:36Z</time>
      </trkpt>
      <trkpt lat="38.2956680" lon="-3.6767310">
        <ele>456.8</ele>
        <time>2018-06-16T08:22:37Z</time>
      </trkpt>
      <trkpt lat="38.2956690" lon="-3.6765710">
        <ele>456.4</ele>
        <time>2018-06-16T08:22:38Z</time>
      </trkpt>
      <trkpt lat="38.2956790" lon="-3.6764120">
        <ele>456.0</ele>
        <time>2018-06-16T08:22:39Z</time>
      </trkpt>
      <trkpt lat="38.2956970" lon="-3.6762530">
        <ele>455.2</ele>
        <time>2018-06-16T08:22:40Z</time>
      </trkpt>
      <trkpt lat="38.2957160" lon="-3.6760930">
        <ele>454.8</ele>
        <time>2018-06-16T08:22:41Z</time>
      </trkpt>
      <trkpt lat="38.2957370" lon="-3.6759350">
        <ele>454.2</ele>
        <time>2018-06-16T08:22:42Z</time>
      </trkpt>
      <trkpt lat="38.2957580" lon="-3.6757770">
        <ele>453.8</ele>
        <time>2018-06-16T08:22:43Z</time>
      </trkpt>
      <trkpt lat="38.2957780" lon="-3.6756180">
        <ele>453.2</ele>
        <time>2018-06-16T08:22:44Z</time>
      </trkpt>
      <trkpt lat="38.2957950" lon="-3.6754590">
        <ele>453.0</ele>
        <time>2018-06-16T08:22:45Z</time>
      </trkpt>
      <trkpt lat="38.2958120" lon="-3.6753010">
        <ele>452.4</ele>
        <time>2018-06-16T08:22:46Z</time>
      </trkpt>
      <trkpt lat="38.2958290" lon="-3.6751440">
        <ele>452.0</ele>
        <time>2018-06-16T08:22:47Z</time>
      </trkpt>
      <trkpt lat="38.2958460" lon="-3.6749870">
        <ele>451.4</ele>
        <time>2018-06-16T08:22:48Z</time>
      </trkpt>
      <trkpt lat="38.2958650" lon="-3.6748310">
        <ele>450.6</ele>
        <time>2018-06-16T08:22:49Z</time>
      </trkpt>
      <trkpt lat="38.2958840" lon="-3.6746750">
        <ele>450.0</ele>
        <time>2018-06-16T08:22:50Z</time>
      </trkpt>
      <trkpt lat="38.2959030" lon="-3.6745190">
        <ele>449.4</ele>
        <time>2018-06-16T08:22:51Z</time>
      </trkpt>
      <trkpt lat="38.2959220" lon="-3.6743640">
        <ele>449.2</ele>
        <time>2018-06-16T08:22:52Z</time>
      </trkpt>
      <trkpt lat="38.2959420" lon="-3.6742120">
        <ele>448.8</ele>
        <time>2018-06-16T08:22:53Z</time>
      </trkpt>
      <trkpt lat="38.2959670" lon="-3.6740590">
        <ele>448.2</ele>
        <time>2018-06-16T08:22:54Z</time>
      </trkpt>
      <trkpt lat="38.2959930" lon="-3.6739080">
        <ele>448.0</ele>
        <time>2018-06-16T08:22:55Z</time>
      </trkpt>
      <trkpt lat="38.2960220" lon="-3.6737570">
        <ele>447.4</ele>
        <time>2018-06-16T08:22:56Z</time>
      </trkpt>
      <trkpt lat="38.2960490" lon="-3.6736050">
        <ele>446.6</ele>
        <time>2018-06-16T08:22:57Z</time>
      </trkpt>
      <trkpt lat="38.2960680" lon="-3.6734510">
        <ele>445.6</ele>
        <time>2018-06-16T08:22:58Z</time>
      </trkpt>
      <trkpt lat="38.2960770" lon="-3.6732970">
        <ele>445.4</ele>
        <time>2018-06-16T08:22:59Z</time>
      </trkpt>
      <trkpt lat="38.2960780" lon="-3.6731410">
        <ele>445.0</ele>
        <time>2018-06-16T08:23:00Z</time>
      </trkpt>
      <trkpt lat="38.2960700" lon="-3.6729870">
        <ele>444.6</ele>
        <time>2018-06-16T08:23:01Z</time>
      </trkpt>
      <trkpt lat="38.2960600" lon="-3.6728330">
        <ele>444.2</ele>
        <time>2018-06-16T08:23:02Z</time>
      </trkpt>
      <trkpt lat="38.2960490" lon="-3.6726800">
        <ele>443.6</ele>
        <time>2018-06-16T08:23:03Z</time>
      </trkpt>
      <trkpt lat="38.2960330" lon="-3.6725270">
        <ele>443.2</ele>
        <time>2018-06-16T08:23:04Z</time>
      </trkpt>
      <trkpt lat="38.2960020" lon="-3.6723810">
        <ele>443.0</ele>
        <time>2018-06-16T08:23:05Z</time>
      </trkpt>
      <trkpt lat="38.2959570" lon="-3.6722430">
        <ele>442.8</ele>
        <time>2018-06-16T08:23:06Z</time>
      </trkpt>
      <trkpt lat="38.2958990" lon="-3.6721160">
        <ele>442.6</ele>
        <time>2018-06-16T08:23:07Z</time>
      </trkpt>
      <trkpt lat="38.2958300" lon="-3.6719990">
        <ele>442.4</ele>
        <time>2018-06-16T08:23:08Z</time>
      </trkpt>
      <trkpt lat="38.2957580" lon="-3.6718900">
        <ele>442.0</ele>
        <time>2018-06-16T08:23:09Z</time>
      </trkpt>
      <trkpt lat="38.2956860" lon="-3.6717830">
        <ele>442.0</ele>
        <time>2018-06-16T08:23:10Z</time>
      </trkpt>
      <trkpt lat="38.2956190" lon="-3.6716720">
        <ele>441.4</ele>
        <time>2018-06-16T08:23:11Z</time>
      </trkpt>
      <trkpt lat="38.2955570" lon="-3.6715570">
        <ele>441.0</ele>
        <time>2018-06-16T08:23:12Z</time>
      </trkpt>
      <trkpt lat="38.2955020" lon="-3.6714370">
        <ele>440.6</ele>
        <time>2018-06-16T08:23:13Z</time>
      </trkpt>
      <trkpt lat="38.2954520" lon="-3.6713150">
        <ele>440.2</ele>
        <time>2018-06-16T08:23:14Z</time>
      </trkpt>
      <trkpt lat="38.2954010" lon="-3.6711920">
        <ele>439.6</ele>
        <time>2018-06-16T08:23:15Z</time>
      </trkpt>
      <trkpt lat="38.2953500" lon="-3.6710690">
        <ele>438.8</ele>
        <time>2018-06-16T08:23:16Z</time>
      </trkpt>
      <trkpt lat="38.2952990" lon="-3.6709450">
        <ele>438.2</ele>
        <time>2018-06-16T08:23:17Z</time>
      </trkpt>
      <trkpt lat="38.2952490" lon="-3.6708190">
        <ele>438.0</ele>
        <time>2018-06-16T08:23:18Z</time>
      </trkpt>
      <trkpt lat="38.2951980" lon="-3.6706920">
        <ele>437.2</ele>
        <time>2018-06-16T08:23:19Z</time>
      </trkpt>
      <trkpt lat="38.2951460" lon="-3.6705670">
        <ele>436.4</ele>
        <time>2018-06-16T08:23:20Z</time>
      </trkpt>
      <trkpt lat="38.2950940" lon="-3.6704410">
        <ele>436.0</ele>
        <time>2018-06-16T08:23:21Z</time>
      </trkpt>
      <trkpt lat="38.2950400" lon="-3.6703190">
        <ele>435.8</ele>
        <time>2018-06-16T08:23:22Z</time>
      </trkpt>
      <trkpt lat="38.2949780" lon="-3.6702070">
        <ele>435.4</ele>
        <time>2018-06-16T08:23:23Z</time>
      </trkpt>
      <trkpt lat="38.2949080" lon="-3.6701040">
        <ele>435.0</ele>
        <time>2018-06-16T08:23:24Z</time>
      </trkpt>
      <trkpt lat="38.2948310" lon="-3.6700090">
        <ele>434.4</ele>
        <time>2018-06-16T08:23:25Z</time>
      </trkpt>
      <trkpt lat="38.2947510" lon="-3.6699170">
        <ele>434.2</ele>
        <time>2018-06-16T08:23:26Z</time>
      </trkpt>
      <trkpt lat="38.2946710" lon="-3.6698310">
        <ele>433.8</ele>
        <time>2018-06-16T08:23:27Z</time>
      </trkpt>
      <trkpt lat="38.2945910" lon="-3.6697490">
        <ele>433.8</ele>
        <time>2018-06-16T08:23:28Z</time>
      </trkpt>
      <trkpt lat="38.2945100" lon="-3.6696710">
        <ele>433.8</ele>
        <time>2018-06-16T08:23:29Z</time>
      </trkpt>
      <trkpt lat="38.2944210" lon="-3.6696050">
        <ele>433.2</ele>
        <time>2018-06-16T08:23:30Z</time>
      </trkpt>
      <trkpt lat="38.2943270" lon="-3.6695460">
        <ele>432.6</ele>
        <time>2018-06-16T08:23:31Z</time>
      </trkpt>
      <trkpt lat="38.2942320" lon="-3.6694920">
        <ele>432.0</ele>
        <time>2018-06-16T08:23:32Z</time>
      </trkpt>
      <trkpt lat="38.2941380" lon="-3.6694390">
        <ele>431.8</ele>
        <time>2018-06-16T08:23:33Z</time>
      </trkpt>
      <trkpt lat="38.2940440" lon="-3.6693840">
        <ele>431.4</ele>
        <time>2018-06-16T08:23:34Z</time>
      </trkpt>
      <trkpt lat="38.2939510" lon="-3.6693300">
        <ele>431.8</ele>
        <time>2018-06-16T08:23:35Z</time>
      </trkpt>
      <trkpt lat="38.2938550" lon="-3.6692820">
        <ele>431.8</ele>
        <time>2018-06-16T08:23:36Z</time>
      </trkpt>
      <trkpt lat="38.2937540" lon="-3.6692480">
        <ele>431.2</ele>
        <time>2018-06-16T08:23:37Z</time>
      </trkpt>
      <trkpt lat="38.2936520" lon="-3.6692280">
        <ele>431.0</ele>
        <time>2018-06-16T08:23:38Z</time>
      </trkpt>
      <trkpt lat="38.2935500" lon="-3.6692140">
        <ele>431.2</ele>
        <time>2018-06-16T08:23:39Z</time>
      </trkpt>
      <trkpt lat="38.2934490" lon="-3.6692050">
        <ele>431.0</ele>
        <time>2018-06-16T08:23:40Z</time>
      </trkpt>
      <trkpt lat="38.2933480" lon="-3.6691920">
        <ele>430.6</ele>
        <time>2018-06-16T08:23:41Z</time>
      </trkpt>
      <trkpt lat="38.2932490" lon="-3.6691810">
        <ele>430.2</ele>
        <time>2018-06-16T08:23:42Z</time>
      </trkpt>
      <trkpt lat="38.2931500" lon="-3.6691700">
        <ele>430.2</ele>
        <time>2018-06-16T08:23:43Z</time>
      </trkpt>
      <trkpt lat="38.2930520" lon="-3.6691580">
        <ele>430.2</ele>
        <time>2018-06-16T08:23:44Z</time>
      </trkpt>
      <trkpt lat="38.2929540" lon="-3.6691440">
        <ele>430.0</ele>
        <time>2018-06-16T08:23:45Z</time>
      </trkpt>
      <trkpt lat="38.2928560" lon="-3.6691310">
        <ele>430.0</ele>
        <time>2018-06-16T08:23:46Z</time>
      </trkpt>
      <trkpt lat="38.2927590" lon="-3.6691260">
        <ele>429.8</ele>
        <time>2018-06-16T08:23:47Z</time>
      </trkpt>
      <trkpt lat="38.2926630" lon="-3.6691350">
        <ele>429.6</ele>
        <time>2018-06-16T08:23:48Z</time>
      </trkpt>
      <trkpt lat="38.2925720" lon="-3.6691640">
        <ele>429.6</ele>
        <time>2018-06-16T08:23:49Z</time>
      </trkpt>
      <trkpt lat="38.2924880" lon="-3.6692100">
        <ele>429.6</ele>
        <time>2018-06-16T08:23:50Z</time>
      </trkpt>
      <trkpt lat="38.2924100" lon="-3.6692620">
        <ele>429.6</ele>
        <time>2018-06-16T08:23:51Z</time>
      </trkpt>
      <trkpt lat="38.2923340" lon="-3.6693070">
        <ele>429.6</ele>
        <time>2018-06-16T08:23:52Z</time>
      </trkpt>
      <trkpt lat="38.2922570" lon="-3.6693360">
        <ele>429.8</ele>
        <time>2018-06-16T08:23:53Z</time>
      </trkpt>
      <trkpt lat="38.2921800" lon="-3.6693480">
        <ele>430.0</ele>
        <time>2018-06-16T08:23:54Z</time>
      </trkpt>
      <trkpt lat="38.2921050" lon="-3.6693420">
        <ele>430.4</ele>
        <time>2018-06-16T08:23:55Z</time>
      </trkpt>
      <trkpt lat="38.2920330" lon="-3.6693190">
        <ele>430.6</ele>
        <time>2018-06-16T08:23:56Z</time>
      </trkpt>
      <trkpt lat="38.2919630" lon="-3.6692930">
        <ele>430.8</ele>
        <time>2018-06-16T08:23:57Z</time>
      </trkpt>
      <trkpt lat="38.2918940" lon="-3.6692660">
        <ele>430.8</ele>
        <time>2018-06-16T08:23:58Z</time>
      </trkpt>
      <trkpt lat="38.2918270" lon="-3.6692360">
        <ele>430.8</ele>
        <time>2018-06-16T08:23:59Z</time>
      </trkpt>
      <trkpt lat="38.2917620" lon="-3.6692040">
        <ele>431.0</ele>
        <time>2018-06-16T08:24:00Z</time>
      </trkpt>
      <trkpt lat="38.2916990" lon="-3.6691710">
        <ele>431.4</ele>
        <time>2018-06-16T08:24:01Z</time>
      </trkpt>
      <trkpt lat="38.2916400" lon="-3.6691400">
        <ele>431.6</ele>
        <time>2018-06-16T08:24:02Z</time>
      </trkpt>
      <trkpt lat="38.2915800" lon="-3.6691110">
        <ele>432.2</ele>
        <time>2018-06-16T08:24:03Z</time>
      </trkpt>
      <trkpt lat="38.2915220" lon="-3.6690830">
        <ele>432.2</ele>
        <time>2018-06-16T08:24:04Z</time>
      </trkpt>
      <trkpt lat="38.2914650" lon="-3.6690520">
        <ele>432.4</ele>
        <time>2018-06-16T08:24:05Z</time>
      </trkpt>
      <trkpt lat="38.2914060" lon="-3.6690230">
        <ele>432.2</ele>
        <time>2018-06-16T08:24:06Z</time>
      </trkpt>
      <trkpt lat="38.2913440" lon="-3.6689930">
        <ele>431.8</ele>
        <time>2018-06-16T08:24:07Z</time>
      </trkpt>
      <trkpt lat="38.2912800" lon="-3.6689650">
        <ele>431.6</ele>
        <time>2018-06-16T08:24:08Z</time>
      </trkpt>
      <trkpt lat="38.2912130" lon="-3.6689370">
        <ele>431.4</ele>
        <time>2018-06-16T08:24:09Z</time>
      </trkpt>
      <trkpt lat="38.2911450" lon="-3.6689140">
        <ele>431.0</ele>
        <time>2018-06-16T08:24:10Z</time>
      </trkpt>
      <trkpt lat="38.2910720" lon="-3.6688930">
        <ele>430.6</ele>
        <time>2018-06-16T08:24:11Z</time>
      </trkpt>
      <trkpt lat="38.2909950" lon="-3.6688780">
        <ele>430.0</ele>
        <time>2018-06-16T08:24:12Z</time>
      </trkpt>
      <trkpt lat="38.2909140" lon="-3.6688720">
        <ele>429.6</ele>
        <time>2018-06-16T08:24:13Z</time>
      </trkpt>
      <trkpt lat="38.2908330" lon="-3.6688720">
        <ele>429.0</ele>
        <time>2018-06-16T08:24:14Z</time>
      </trkpt>
      <trkpt lat="38.2907530" lon="-3.6688770">
        <ele>428.6</ele>
        <time>2018-06-16T08:24:15Z</time>
      </trkpt>
      <trkpt lat="38.2906740" lon="-3.6688770">
        <ele>429.2</ele>
        <time>2018-06-16T08:24:16Z</time>
      </trkpt>
      <trkpt lat="38.2905970" lon="-3.6688700">
        <ele>429.6</ele>
        <time>2018-06-16T08:24:17Z</time>
      </trkpt>
      <trkpt lat="38.2905210" lon="-3.6688560">
        <ele>429.6</ele>
        <time>2018-06-16T08:24:18Z</time>
      </trkpt>
      <trkpt lat="38.2904470" lon="-3.6688400">
        <ele>429.2</ele>
        <time>2018-06-16T08:24:19Z</time>
      </trkpt>
      <trkpt lat="38.2903710" lon="-3.6688170">
        <ele>429.2</ele>
        <time>2018-06-16T08:24:20Z</time>
      </trkpt>
      <trkpt lat="38.2902960" lon="-3.6687930">
        <ele>428.6</ele>
        <time>2018-06-16T08:24:21Z</time>
      </trkpt>
      <trkpt lat="38.2902180" lon="-3.6687660">
        <ele>428.2</ele>
        <time>2018-06-16T08:24:22Z</time>
      </trkpt>
      <trkpt lat="38.2901370" lon="-3.6687420">
        <ele>428.0</ele>
        <time>2018-06-16T08:24:23Z</time>
      </trkpt>
      <trkpt lat="38.2900540" lon="-3.6687190">
        <ele>427.6</ele>
        <time>2018-06-16T08:24:24Z</time>
      </trkpt>
      <trkpt lat="38.2899710" lon="-3.6686940">
        <ele>427.2</ele>
        <time>2018-06-16T08:24:25Z</time>
      </trkpt>
      <trkpt lat="38.2898910" lon="-3.6686700">
        <ele>427.2</ele>
        <time>2018-06-16T08:24:26Z</time>
      </trkpt>
      <trkpt lat="38.2898140" lon="-3.6686430">
        <ele>427.2</ele>
        <time>2018-06-16T08:24:27Z</time>
      </trkpt>
      <trkpt lat="38.2897350" lon="-3.6686110">
        <ele>426.8</ele>
        <time>2018-06-16T08:24:28Z</time>
      </trkpt>
      <trkpt lat="38.2896580" lon="-3.6685690">
        <ele>426.4</ele>
        <time>2018-06-16T08:24:29Z</time>
      </trkpt>
      <trkpt lat="38.2895800" lon="-3.6685180">
        <ele>425.6</ele>
        <time>2018-06-16T08:24:30Z</time>
      </trkpt>
      <trkpt lat="38.2895000" lon="-3.6684580">
        <ele>424.6</ele>
        <time>2018-06-16T08:24:31Z</time>
      </trkpt>
      <trkpt lat="38.2894170" lon="-3.6683890">
        <ele>423.4</ele>
        <time>2018-06-16T08:24:32Z</time>
      </trkpt>
      <trkpt lat="38.2893300" lon="-3.6683150">
        <ele>422.8</ele>
        <time>2018-06-16T08:24:33Z</time>
      </trkpt>
      <trkpt lat="38.2892430" lon="-3.6682360">
        <ele>422.0</ele>
        <time>2018-06-16T08:24:34Z</time>
      </trkpt>
      <trkpt lat="38.2891560" lon="-3.6681550">
        <ele>421.8</ele>
        <time>2018-06-16T08:24:35Z</time>
      </trkpt>
      <trkpt lat="38.2890700" lon="-3.6680760">
        <ele>421.6</ele>
        <time>2018-06-16T08:24:36Z</time>
      </trkpt>
      <trkpt lat="38.2889850" lon="-3.6679990">
        <ele>421.4</ele>
        <time>2018-06-16T08:24:37Z</time>
      </trkpt>
      <trkpt lat="38.2889000" lon="-3.6679290">
        <ele>421.4</ele>
        <time>2018-06-16T08:24:38Z</time>
      </trkpt>
      <trkpt lat="38.2888160" lon="-3.6678560">
        <ele>421.4</ele>
        <time>2018-06-16T08:24:39Z</time>
      </trkpt>
      <trkpt lat="38.2887330" lon="-3.6677820">
        <ele>421.0</ele>
        <time>2018-06-16T08:24:40Z</time>
      </trkpt>
      <trkpt lat="38.2886510" lon="-3.6677080">
        <ele>420.8</ele>
        <time>2018-06-16T08:24:41Z</time>
      </trkpt>
      <trkpt lat="38.2885700" lon="-3.6676330">
        <ele>420.2</ele>
        <time>2018-06-16T08:24:42Z</time>
      </trkpt>
      <trkpt lat="38.2884910" lon="-3.6675570">
        <ele>420.2</ele>
        <time>2018-06-16T08:24:43Z</time>
      </trkpt>
      <trkpt lat="38.2884120" lon="-3.6674820">
        <ele>420.0</ele>
        <time>2018-06-16T08:24:44Z</time>
      </trkpt>
      <trkpt lat="38.2883370" lon="-3.6674020">
        <ele>419.8</ele>
        <time>2018-06-16T08:24:45Z</time>
      </trkpt>
      <trkpt lat="38.2882690" lon="-3.6673150">
        <ele>420.0</ele>
        <time>2018-06-16T08:24:46Z</time>
      </trkpt>
      <trkpt lat="38.2882040" lon="-3.6672250">
        <ele>420.0</ele>
        <time>2018-06-16T08:24:47Z</time>
      </trkpt>
      <trkpt lat="38.2881390" lon="-3.6671350">
        <ele>420.0</ele>
        <time>2018-06-16T08:24:48Z</time>
      </trkpt>
      <trkpt lat="38.2880730" lon="-3.6670480">
        <ele>419.6</ele>
        <time>2018-06-16T08:24:49Z</time>
      </trkpt>
      <trkpt lat="38.2880080" lon="-3.6669620">
        <ele>419.4</ele>
        <time>2018-06-16T08:24:50Z</time>
      </trkpt>
      <trkpt lat="38.2879420" lon="-3.6668750">
        <ele>419.2</ele>
        <time>2018-06-16T08:24:51Z</time>
      </trkpt>
      <trkpt lat="38.2878770" lon="-3.6667880">
        <ele>419.0</ele>
        <time>2018-06-16T08:24:52Z</time>
      </trkpt>
      <trkpt lat="38.2878120" lon="-3.6667010">
        <ele>418.8</ele>
        <time>2018-06-16T08:24:53Z</time>
      </trkpt>
      <trkpt lat="38.2877490" lon="-3.6666170">
        <ele>418.8</ele>
        <time>2018-06-16T08:24:54Z</time>
      </trkpt>
      <trkpt lat="38.2876870" lon="-3.6665300">
        <ele>418.8</ele>
        <time>2018-06-16T08:24:55Z</time>
      </trkpt>
      <trkpt lat="38.2876270" lon="-3.6664440">
        <ele>418.6</ele>
        <time>2018-06-16T08:24:56Z</time>
      </trkpt>
      <trkpt lat="38.2875650" lon="-3.6663600">
        <ele>418.6</ele>
        <time>2018-06-16T08:24:57Z</time>
      </trkpt>
      <trkpt lat="38.2875060" lon="-3.6662750">
        <ele>418.2</ele>
        <time>2018-06-16T08:24:58Z</time>
      </trkpt>
      <trkpt lat="38.2874450" lon="-3.6661920">
        <ele>418.0</ele>
        <time>2018-06-16T08:24:59Z</time>
      </trkpt>
      <trkpt lat="38.2873850" lon="-3.6661040">
        <ele>418.0</ele>
        <time>2018-06-16T08:25:00Z</time>
      </trkpt>
      <trkpt lat="38.2873250" lon="-3.6660200">
        <ele>417.8</ele>
        <time>2018-06-16T08:25:01Z</time>
      </trkpt>
      <trkpt lat="38.2872610" lon="-3.6659410">
        <ele>417.4</ele>
        <time>2018-06-16T08:25:02Z</time>
      </trkpt>
      <trkpt lat="38.2871970" lon="-3.6658610">
        <ele>417.2</ele>
        <time>2018-06-16T08:25:03Z</time>
      </trkpt>
      <trkpt lat="38.2871330" lon="-3.6657860">
        <ele>417.0</ele>
        <time>2018-06-16T08:25:04Z</time>
      </trkpt>
      <trkpt lat="38.2870690" lon="-3.6657090">
        <ele>416.6</ele>
        <time>2018-06-16T08:25:05Z</time>
      </trkpt>
      <trkpt lat="38.2870050" lon="-3.6656290">
        <ele>416.2</ele>
        <time>2018-06-16T08:25:06Z</time>
      </trkpt>
      <trkpt lat="38.2869380" lon="-3.6655480">
        <ele>415.8</ele>
        <time>2018-06-16T08:25:07Z</time>
      </trkpt>
      <trkpt lat="38.2868650" lon="-3.6654800">
        <ele>415.4</ele>
        <time>2018-06-16T08:25:08Z</time>
      </trkpt>
      <trkpt lat="38.2867900" lon="-3.6654150">
        <ele>415.0</ele>
        <time>2018-06-16T08:25:09Z</time>
      </trkpt>
      <trkpt lat="38.2867120" lon="-3.6653520">
        <ele>414.6</ele>
        <time>2018-06-16T08:25:10Z</time>
      </trkpt>
      <trkpt lat="38.2866330" lon="-3.6652870">
        <ele>414.0</ele>
        <time>2018-06-16T08:25:11Z</time>
      </trkpt>
      <trkpt lat="38.2865500" lon="-3.6652230">
        <ele>413.6</ele>
        <time>2018-06-16T08:25:12Z</time>
      </trkpt>
      <trkpt lat="38.2864670" lon="-3.6651570">
        <ele>413.2</ele>
        <time>2018-06-16T08:25:13Z</time>
      </trkpt>
      <trkpt lat="38.2863820" lon="-3.6650930">
        <ele>412.8</ele>
        <time>2018-06-16T08:25:14Z</time>
      </trkpt>
      <trkpt lat="38.2863080" lon="-3.6650320">
        <ele>412.6</ele>
        <time>2018-06-16T08:25:15Z</time>
      </trkpt>
      <trkpt lat="38.2862480" lon="-3.6649720">
        <ele>412.6</ele>
        <time>2018-06-16T08:25:16Z</time>
      </trkpt>
      <trkpt lat="38.2862040" lon="-3.6649080">
        <ele>412.4</ele>
        <time>2018-06-16T08:25:17Z</time>
      </trkpt>
      <trkpt lat="38.2861810" lon="-3.6648320">
        <ele>412.4</ele>
        <time>2018-06-16T08:25:18Z</time>
      </trkpt>
      <trkpt lat="38.2861820" lon="-3.6647450">
        <ele>412.2</ele>
        <time>2018-06-16T08:25:19Z</time>
      </trkpt>
      <trkpt lat="38.2861950" lon="-3.6646610">
        <ele>412.4</ele>
        <time>2018-06-16T08:25:20Z</time>
      </trkpt>
      <trkpt lat="38.2862140" lon="-3.6645800">
        <ele>412.2</ele>
        <time>2018-06-16T08:25:21Z</time>
      </trkpt>
      <trkpt lat="38.2862360" lon="-3.6645000">
        <ele>412.0</ele>
        <time>2018-06-16T08:25:22Z</time>
      </trkpt>
      <trkpt lat="38.2862640" lon="-3.6644220">
        <ele>411.8</ele>
        <time>2018-06-16T08:25:23Z</time>
      </trkpt>
      <trkpt lat="38.2862980" lon="-3.6643430">
        <ele>411.6</ele>
        <time>2018-06-16T08:25:24Z</time>
      </trkpt>
      <trkpt lat="38.2863350" lon="-3.6642700">
        <ele>411.4</ele>
        <time>2018-06-16T08:25:25Z</time>
      </trkpt>
      <trkpt lat="38.2863750" lon="-3.6641990">
        <ele>411.2</ele>
        <time>2018-06-16T08:25:26Z</time>
      </trkpt>
      <trkpt lat="38.2864150" lon="-3.6641250">
        <ele>410.8</ele>
        <time>2018-06-16T08:25:27Z</time>
      </trkpt>
      <trkpt lat="38.2864520" lon="-3.6640480">
        <ele>410.6</ele>
        <time>2018-06-16T08:25:28Z</time>
      </trkpt>
      <trkpt lat="38.2864850" lon="-3.6639620">
        <ele>410.2</ele>
        <time>2018-06-16T08:25:29Z</time>
      </trkpt>
      <trkpt lat="38.2865170" lon="-3.6638740">
        <ele>410.0</ele>
        <time>2018-06-16T08:25:30Z</time>
      </trkpt>
      <trkpt lat="38.2865490" lon="-3.6637840">
        <ele>410.0</ele>
        <time>2018-06-16T08:25:31Z</time>
      </trkpt>
      <trkpt lat="38.2865750" lon="-3.6636940">
        <ele>409.8</ele>
        <time>2018-06-16T08:25:32Z</time>
      </trkpt>
      <trkpt lat="38.2866000" lon="-3.6636010">
        <ele>409.4</ele>
        <time>2018-06-16T08:25:33Z</time>
      </trkpt>
      <trkpt lat="38.2866230" lon="-3.6635070">
        <ele>409.4</ele>
        <time>2018-06-16T08:25:34Z</time>
      </trkpt>
      <trkpt lat="38.2866470" lon="-3.6634090">
        <ele>409.2</ele>
        <time>2018-06-16T08:25:35Z</time>
      </trkpt>
      <trkpt lat="38.2866660" lon="-3.6633120">
        <ele>409.0</ele>
        <time>2018-06-16T08:25:36Z</time>
      </trkpt>
      <trkpt lat="38.2866770" lon="-3.6632120">
        <ele>409.0</ele>
        <time>2018-06-16T08:25:37Z</time>
      </trkpt>
      <trkpt lat="38.2866730" lon="-3.6631120">
        <ele>408.8</ele>
        <time>2018-06-16T08:25:38Z</time>
      </trkpt>
      <trkpt lat="38.2866550" lon="-3.6630180">
        <ele>408.8</ele>
        <time>2018-06-16T08:25:39Z</time>
      </trkpt>
      <trkpt lat="38.2866310" lon="-3.6629270">
        <ele>408.8</ele>
        <time>2018-06-16T08:25:40Z</time>
      </trkpt>
      <trkpt lat="38.2865980" lon="-3.6628460">
        <ele>409.0</ele>
        <time>2018-06-16T08:25:41Z</time>
      </trkpt>
      <trkpt lat="38.2865630" lon="-3.6627720">
        <ele>408.8</ele>
        <time>2018-06-16T08:25:42Z</time>
      </trkpt>
      <trkpt lat="38.2865260" lon="-3.6627020">
        <ele>409.0</ele>
        <time>2018-06-16T08:25:43Z</time>
      </trkpt>
      <trkpt lat="38.2864900" lon="-3.6626320">
        <ele>409.4</ele>
        <time>2018-06-16T08:25:44Z</time>
      </trkpt>
      <trkpt lat="38.2864510" lon="-3.6625670">
        <ele>409.8</ele>
        <time>2018-06-16T08:25:45Z</time>
      </trkpt>
      <trkpt lat="38.2864130" lon="-3.6625030">
        <ele>409.8</ele>
        <time>2018-06-16T08:25:47Z</time>
      </trkpt>
      <trkpt lat="38.2863550" lon="-3.6624140">
        <ele>410.0</ele>
        <time>2018-06-16T08:25:48Z</time>
      </trkpt>
      <trkpt lat="38.2862970" lon="-3.6623250">
        <ele>410.2</ele>
        <time>2018-06-16T08:25:49Z</time>
      </trkpt>
      <trkpt lat="38.2862600" lon="-3.6622660">
        <ele>410.4</ele>
        <time>2018-06-16T08:25:50Z</time>
      </trkpt>
      <trkpt lat="38.2862220" lon="-3.6622060">
        <ele>410.4</ele>
        <time>2018-06-16T08:25:51Z</time>
      </trkpt>
      <trkpt lat="38.2861850" lon="-3.6621470">
        <ele>410.6</ele>
        <time>2018-06-16T08:25:52Z</time>
      </trkpt>
      <trkpt lat="38.2861490" lon="-3.6620850">
        <ele>410.6</ele>
        <time>2018-06-16T08:25:53Z</time>
      </trkpt>
      <trkpt lat="38.2861120" lon="-3.6620240">
        <ele>410.6</ele>
        <time>2018-06-16T08:25:54Z</time>
      </trkpt>
      <trkpt lat="38.2860730" lon="-3.6619630">
        <ele>410.6</ele>
        <time>2018-06-16T08:25:55Z</time>
      </trkpt>
      <trkpt lat="38.2860330" lon="-3.6618980">
        <ele>410.6</ele>
        <time>2018-06-16T08:25:56Z</time>
      </trkpt>
      <trkpt lat="38.2859940" lon="-3.6618330">
        <ele>410.4</ele>
        <time>2018-06-16T08:25:57Z</time>
      </trkpt>
      <trkpt lat="38.2859550" lon="-3.6617690">
        <ele>410.4</ele>
        <time>2018-06-16T08:25:58Z</time>
      </trkpt>
      <trkpt lat="38.2859140" lon="-3.6617110">
        <ele>410.4</ele>
        <time>2018-06-16T08:25:59Z</time>
      </trkpt>
      <trkpt lat="38.2858730" lon="-3.6616470">
        <ele>410.4</ele>
        <time>2018-06-16T08:26:00Z</time>
      </trkpt>
      <trkpt lat="38.2858340" lon="-3.6615800">
        <ele>410.4</ele>
        <time>2018-06-16T08:26:01Z</time>
      </trkpt>
      <trkpt lat="38.2857930" lon="-3.6615140">
        <ele>410.6</ele>
        <time>2018-06-16T08:26:02Z</time>
      </trkpt>
      <trkpt lat="38.2857520" lon="-3.6614530">
        <ele>410.8</ele>
        <time>2018-06-16T08:26:03Z</time>
      </trkpt>
      <trkpt lat="38.2857140" lon="-3.6613920">
        <ele>411.0</ele>
        <time>2018-06-16T08:26:04Z</time>
      </trkpt>
      <trkpt lat="38.2856780" lon="-3.6613350">
        <ele>411.4</ele>
        <time>2018-06-16T08:26:05Z</time>
      </trkpt>
      <trkpt lat="38.2856430" lon="-3.6612780">
        <ele>411.4</ele>
        <time>2018-06-16T08:26:07Z</time>
      </trkpt>
      <trkpt lat="38.2855800" lon="-3.6611650">
        <ele>412.2</ele>
        <time>2018-06-16T08:26:08Z</time>
      </trkpt>
      <trkpt lat="38.2855480" lon="-3.6611160">
        <ele>412.6</ele>
        <time>2018-06-16T08:26:09Z</time>
      </trkpt>
      <trkpt lat="38.2855170" lon="-3.6610650">
        <ele>413.2</ele>
        <time>2018-06-16T08:26:10Z</time>
      </trkpt>
      <trkpt lat="38.2854860" lon="-3.6610170">
        <ele>413.4</ele>
        <time>2018-06-16T08:26:11Z</time>
      </trkpt>
      <trkpt lat="38.2854580" lon="-3.6609720">
        <ele>413.6</ele>
        <time>2018-06-16T08:26:12Z</time>
      </trkpt>
      <trkpt lat="38.2854320" lon="-3.6609320">
        <ele>413.8</ele>
        <time>2018-06-16T08:26:13Z</time>
      </trkpt>
      <trkpt lat="38.2854060" lon="-3.6608930">
        <ele>414.2</ele>
        <time>2018-06-16T08:26:14Z</time>
      </trkpt>
      <trkpt lat="38.2853850" lon="-3.6608530">
        <ele>414.4</ele>
        <time>2018-06-16T08:26:15Z</time>
      </trkpt>
      <trkpt lat="38.2853660" lon="-3.6608130">
        <ele>414.6</ele>
        <time>2018-06-16T08:26:16Z</time>
      </trkpt>
      <trkpt lat="38.2853470" lon="-3.6607750">
        <ele>415.0</ele>
        <time>2018-06-16T08:26:17Z</time>
      </trkpt>
      <trkpt lat="38.2853280" lon="-3.6607380">
        <ele>415.2</ele>
        <time>2018-06-16T08:26:18Z</time>
      </trkpt>
      <trkpt lat="38.2853110" lon="-3.6606990">
        <ele>415.4</ele>
        <time>2018-06-16T08:26:19Z</time>
      </trkpt>
      <trkpt lat="38.2852940" lon="-3.6606560">
        <ele>415.6</ele>
        <time>2018-06-16T08:26:20Z</time>
      </trkpt>
      <trkpt lat="38.2852800" lon="-3.6606120">
        <ele>416.0</ele>
        <time>2018-06-16T08:26:21Z</time>
      </trkpt>
      <trkpt lat="38.2852670" lon="-3.6605680">
        <ele>416.0</ele>
        <time>2018-06-16T08:26:22Z</time>
      </trkpt>
      <trkpt lat="38.2852540" lon="-3.6605220">
        <ele>416.2</ele>
        <time>2018-06-16T08:26:23Z</time>
      </trkpt>
      <trkpt lat="38.2852400" lon="-3.6604750">
        <ele>416.4</ele>
        <time>2018-06-16T08:26:24Z</time>
      </trkpt>
      <trkpt lat="38.2852270" lon="-3.6604290">
        <ele>416.8</ele>
        <time>2018-06-16T08:26:25Z</time>
      </trkpt>
      <trkpt lat="38.2852130" lon="-3.6603830">
        <ele>417.0</ele>
        <time>2018-06-16T08:26:26Z</time>
      </trkpt>
      <trkpt lat="38.2852010" lon="-3.6603390">
        <ele>417.2</ele>
        <time>2018-06-16T08:26:27Z</time>
      </trkpt>
      <trkpt lat="38.2851840" lon="-3.6602760">
        <ele>417.6</ele>
        <time>2018-06-16T08:26:28Z</time>
      </trkpt>
      <trkpt lat="38.2851780" lon="-3.6602550">
        <ele>418.0</ele>
        <time>2018-06-16T08:26:29Z</time>
      </trkpt>
      <trkpt lat="38.2851680" lon="-3.6602120">
        <ele>418.2</ele>
        <time>2018-06-16T08:26:30Z</time>
      </trkpt>
      <trkpt lat="38.2851590" lon="-3.6601670">
        <ele>418.6</ele>
        <time>2018-06-16T08:26:31Z</time>
      </trkpt>
      <trkpt lat="38.2851490" lon="-3.6601250">
        <ele>418.8</ele>
        <time>2018-06-16T08:26:32Z</time>
      </trkpt>
      <trkpt lat="38.2851410" lon="-3.6600830">
        <ele>419.0</ele>
        <time>2018-06-16T08:26:33Z</time>
      </trkpt>
      <trkpt lat="38.2851340" lon="-3.6600410">
        <ele>419.2</ele>
        <time>2018-06-16T08:26:34Z</time>
      </trkpt>
      <trkpt lat="38.2851300" lon="-3.6599980">
        <ele>419.4</ele>
        <time>2018-06-16T08:26:35Z</time>
      </trkpt>
      <trkpt lat="38.2851270" lon="-3.6599540">
        <ele>419.6</ele>
        <time>2018-06-16T08:26:36Z</time>
      </trkpt>
      <trkpt lat="38.2851260" lon="-3.6599110">
        <ele>419.8</ele>
        <time>2018-06-16T08:26:37Z</time>
      </trkpt>
      <trkpt lat="38.2851270" lon="-3.6598670">
        <ele>420.0</ele>
        <time>2018-06-16T08:26:38Z</time>
      </trkpt>
      <trkpt lat="38.2851250" lon="-3.6598240">
        <ele>420.2</ele>
        <time>2018-06-16T08:26:39Z</time>
      </trkpt>
      <trkpt lat="38.2851240" lon="-3.6597810">
        <ele>420.4</ele>
        <time>2018-06-16T08:26:40Z</time>
      </trkpt>
      <trkpt lat="38.2851260" lon="-3.6597380">
        <ele>420.6</ele>
        <time>2018-06-16T08:26:41Z</time>
      </trkpt>
      <trkpt lat="38.2851310" lon="-3.6596960">
        <ele>421.0</ele>
        <time>2018-06-16T08:26:42Z</time>
      </trkpt>
      <trkpt lat="38.2851380" lon="-3.6596540">
        <ele>421.0</ele>
        <time>2018-06-16T08:26:44Z</time>
      </trkpt>
      <trkpt lat="38.2851530" lon="-3.6595680">
        <ele>421.4</ele>
        <time>2018-06-16T08:26:45Z</time>
      </trkpt>
      <trkpt lat="38.2851620" lon="-3.6595240">
        <ele>421.4</ele>
        <time>2018-06-16T08:26:46Z</time>
      </trkpt>
      <trkpt lat="38.2851710" lon="-3.6594790">
        <ele>421.4</ele>
        <time>2018-06-16T08:26:47Z</time>
      </trkpt>
      <trkpt lat="38.2851820" lon="-3.6594340">
        <ele>421.4</ele>
        <time>2018-06-16T08:26:48Z</time>
      </trkpt>
      <trkpt lat="38.2851930" lon="-3.6593860">
        <ele>421.4</ele>
        <time>2018-06-16T08:26:49Z</time>
      </trkpt>
      <trkpt lat="38.2852050" lon="-3.6593370">
        <ele>421.2</ele>
        <time>2018-06-16T08:26:50Z</time>
      </trkpt>
      <trkpt lat="38.2852160" lon="-3.6592840">
        <ele>421.0</ele>
        <time>2018-06-16T08:26:51Z</time>
      </trkpt>
      <trkpt lat="38.2852250" lon="-3.6592250">
        <ele>421.0</ele>
        <time>2018-06-16T08:26:52Z</time>
      </trkpt>
      <trkpt lat="38.2852330" lon="-3.6591610">
        <ele>421.0</ele>
        <time>2018-06-16T08:26:53Z</time>
      </trkpt>
      <trkpt lat="38.2852380" lon="-3.6590950">
        <ele>421.0</ele>
        <time>2018-06-16T08:26:54Z</time>
      </trkpt>
      <trkpt lat="38.2852360" lon="-3.6590290">
        <ele>420.8</ele>
        <time>2018-06-16T08:26:55Z</time>
      </trkpt>
      <trkpt lat="38.2852350" lon="-3.6589630">
        <ele>421.0</ele>
        <time>2018-06-16T08:26:56Z</time>
      </trkpt>
      <trkpt lat="38.2852370" lon="-3.6588970">
        <ele>421.2</ele>
        <time>2018-06-16T08:26:57Z</time>
      </trkpt>
      <trkpt lat="38.2852400" lon="-3.6588300">
        <ele>421.2</ele>
        <time>2018-06-16T08:26:58Z</time>
      </trkpt>
      <trkpt lat="38.2852440" lon="-3.6587640">
        <ele>421.6</ele>
        <time>2018-06-16T08:26:59Z</time>
      </trkpt>
      <trkpt lat="38.2852510" lon="-3.6587000">
        <ele>421.6</ele>
        <time>2018-06-16T08:27:00Z</time>
      </trkpt>
      <trkpt lat="38.2852600" lon="-3.6586370">
        <ele>421.8</ele>
        <time>2018-06-16T08:27:01Z</time>
      </trkpt>
      <trkpt lat="38.2852740" lon="-3.6585740">
        <ele>421.8</ele>
        <time>2018-06-16T08:27:02Z</time>
      </trkpt>
      <trkpt lat="38.2852910" lon="-3.6585110">
        <ele>421.6</ele>
        <time>2018-06-16T08:27:03Z</time>
      </trkpt>
      <trkpt lat="38.2853140" lon="-3.6584480">
        <ele>421.6</ele>
        <time>2018-06-16T08:27:04Z</time>
      </trkpt>
      <trkpt lat="38.2853420" lon="-3.6583840">
        <ele>421.0</ele>
        <time>2018-06-16T08:27:05Z</time>
      </trkpt>
      <trkpt lat="38.2853760" lon="-3.6583180">
        <ele>420.8</ele>
        <time>2018-06-16T08:27:07Z</time>
      </trkpt>
      <trkpt lat="38.2854170" lon="-3.6582500">
        <ele>420.2</ele>
        <time>2018-06-16T08:27:08Z</time>
      </trkpt>
      <trkpt lat="38.2854670" lon="-3.6581810">
        <ele>419.6</ele>
        <time>2018-06-16T08:27:09Z</time>
      </trkpt>
      <trkpt lat="38.2855870" lon="-3.6580470">
        <ele>418.2</ele>
        <time>2018-06-16T08:27:10Z</time>
      </trkpt>
      <trkpt lat="38.2856530" lon="-3.6579730">
        <ele>417.4</ele>
        <time>2018-06-16T08:27:11Z</time>
      </trkpt>
      <trkpt lat="38.2857120" lon="-3.6578850">
        <ele>416.8</ele>
        <time>2018-06-16T08:27:12Z</time>
      </trkpt>
      <trkpt lat="38.2857520" lon="-3.6577790">
        <ele>416.6</ele>
        <time>2018-06-16T08:27:13Z</time>
      </trkpt>
      <trkpt lat="38.2857650" lon="-3.6576650">
        <ele>416.2</ele>
        <time>2018-06-16T08:27:14Z</time>
      </trkpt>
      <trkpt lat="38.2857430" lon="-3.6575550">
        <ele>416.2</ele>
        <time>2018-06-16T08:27:15Z</time>
      </trkpt>
      <trkpt lat="38.2856960" lon="-3.6574590">
        <ele>416.2</ele>
        <time>2018-06-16T08:27:16Z</time>
      </trkpt>
      <trkpt lat="38.2856330" lon="-3.6573940">
        <ele>416.2</ele>
        <time>2018-06-16T08:27:17Z</time>
      </trkpt>
      <trkpt lat="38.2855620" lon="-3.6573410">
        <ele>416.4</ele>
        <time>2018-06-16T08:27:18Z</time>
      </trkpt>
      <trkpt lat="38.2854860" lon="-3.6572950">
        <ele>416.6</ele>
        <time>2018-06-16T08:27:19Z</time>
      </trkpt>
      <trkpt lat="38.2854130" lon="-3.6572490">
        <ele>416.8</ele>
        <time>2018-06-16T08:27:20Z</time>
      </trkpt>
      <trkpt lat="38.2853490" lon="-3.6571920">
        <ele>416.8</ele>
        <time>2018-06-16T08:27:21Z</time>
      </trkpt>
      <trkpt lat="38.2852910" lon="-3.6571220">
        <ele>416.2</ele>
        <time>2018-06-16T08:27:22Z</time>
      </trkpt>
      <trkpt lat="38.2852430" lon="-3.6570360">
        <ele>415.2</ele>
        <time>2018-06-16T08:27:23Z</time>
      </trkpt>
      <trkpt lat="38.2852070" lon="-3.6569310">
        <ele>414.0</ele>
        <time>2018-06-16T08:27:24Z</time>
      </trkpt>
      <trkpt lat="38.2851800" lon="-3.6568090">
        <ele>412.8</ele>
        <time>2018-06-16T08:27:25Z</time>
      </trkpt>
      <trkpt lat="38.2851560" lon="-3.6566790">
        <ele>411.8</ele>
        <time>2018-06-16T08:27:26Z</time>
      </trkpt>
      <trkpt lat="38.2851300" lon="-3.6565430">
        <ele>411.0</ele>
        <time>2018-06-16T08:27:27Z</time>
      </trkpt>
      <trkpt lat="38.2851020" lon="-3.6564040">
        <ele>410.4</ele>
        <time>2018-06-16T08:27:28Z</time>
      </trkpt>
      <trkpt lat="38.2850730" lon="-3.6562640">
        <ele>409.6</ele>
        <time>2018-06-16T08:27:29Z</time>
      </trkpt>
      <trkpt lat="38.2850430" lon="-3.6561230">
        <ele>409.4</ele>
        <time>2018-06-16T08:27:30Z</time>
      </trkpt>
      <trkpt lat="38.2850130" lon="-3.6559840">
        <ele>409.0</ele>
        <time>2018-06-16T08:27:31Z</time>
      </trkpt>
      <trkpt lat="38.2849840" lon="-3.6558470">
        <ele>409.0</ele>
        <time>2018-06-16T08:27:32Z</time>
      </trkpt>
      <trkpt lat="38.2849550" lon="-3.6557120">
        <ele>409.0</ele>
        <time>2018-06-16T08:27:33Z</time>
      </trkpt>
      <trkpt lat="38.2849260" lon="-3.6555820">
        <ele>409.0</ele>
        <time>2018-06-16T08:27:34Z</time>
      </trkpt>
      <trkpt lat="38.2848990" lon="-3.6554550">
        <ele>409.2</ele>
        <time>2018-06-16T08:27:35Z</time>
      </trkpt>
      <trkpt lat="38.2848710" lon="-3.6553350">
        <ele>409.2</ele>
        <time>2018-06-16T08:27:36Z</time>
      </trkpt>
      <trkpt lat="38.2848460" lon="-3.6552170">
        <ele>409.2</ele>
        <time>2018-06-16T08:27:37Z</time>
      </trkpt>
      <trkpt lat="38.2848270" lon="-3.6550990">
        <ele>409.0</ele>
        <time>2018-06-16T08:27:38Z</time>
      </trkpt>
      <trkpt lat="38.2848210" lon="-3.6549820">
        <ele>409.0</ele>
        <time>2018-06-16T08:27:39Z</time>
      </trkpt>
      <trkpt lat="38.2848270" lon="-3.6548630">
        <ele>408.8</ele>
        <time>2018-06-16T08:27:41Z</time>
      </trkpt>
      <trkpt lat="38.2848470" lon="-3.6547490">
        <ele>408.8</ele>
        <time>2018-06-16T08:27:42Z</time>
      </trkpt>
      <trkpt lat="38.2848870" lon="-3.6546440">
        <ele>408.6</ele>
        <time>2018-06-16T08:27:43Z</time>
      </trkpt>
      <trkpt lat="38.2849390" lon="-3.6545480">
        <ele>408.8</ele>
        <time>2018-06-16T08:27:44Z</time>
      </trkpt>
      <trkpt lat="38.2849960" lon="-3.6544640">
        <ele>408.6</ele>
        <time>2018-06-16T08:27:45Z</time>
      </trkpt>
      <trkpt lat="38.2850580" lon="-3.6543830">
        <ele>408.4</ele>
        <time>2018-06-16T08:27:46Z</time>
      </trkpt>
      <trkpt lat="38.2851740" lon="-3.6542090">
        <ele>407.8</ele>
        <time>2018-06-16T08:27:47Z</time>
      </trkpt>
      <trkpt lat="38.2852180" lon="-3.6541090">
        <ele>407.8</ele>
        <time>2018-06-16T08:27:48Z</time>
      </trkpt>
      <trkpt lat="38.2852480" lon="-3.6540020">
        <ele>407.8</ele>
        <time>2018-06-16T08:27:49Z</time>
      </trkpt>
      <trkpt lat="38.2852650" lon="-3.6538910">
        <ele>407.6</ele>
        <time>2018-06-16T08:27:50Z</time>
      </trkpt>
      <trkpt lat="38.2852730" lon="-3.6537810">
        <ele>407.6</ele>
        <time>2018-06-16T08:27:51Z</time>
      </trkpt>
      <trkpt lat="38.2852790" lon="-3.6536720">
        <ele>407.4</ele>
        <time>2018-06-16T08:27:52Z</time>
      </trkpt>
      <trkpt lat="38.2852870" lon="-3.6535660">
        <ele>407.8</ele>
        <time>2018-06-16T08:27:53Z</time>
      </trkpt>
      <trkpt lat="38.2852960" lon="-3.6534630">
        <ele>408.0</ele>
        <time>2018-06-16T08:27:54Z</time>
      </trkpt>
      <trkpt lat="38.2853160" lon="-3.6533650">
        <ele>407.8</ele>
        <time>2018-06-16T08:27:55Z</time>
      </trkpt>
      <trkpt lat="38.2853550" lon="-3.6532830">
        <ele>408.0</ele>
        <time>2018-06-16T08:27:56Z</time>
      </trkpt>
      <trkpt lat="38.2854120" lon="-3.6532240">
        <ele>408.4</ele>
        <time>2018-06-16T08:27:57Z</time>
      </trkpt>
      <trkpt lat="38.2854790" lon="-3.6531890">
        <ele>408.2</ele>
        <time>2018-06-16T08:27:58Z</time>
      </trkpt>
      <trkpt lat="38.2855490" lon="-3.6531690">
        <ele>408.4</ele>
        <time>2018-06-16T08:27:59Z</time>
      </trkpt>
      <trkpt lat="38.2856200" lon="-3.6531540">
        <ele>408.4</ele>
        <time>2018-06-16T08:28:00Z</time>
      </trkpt>
      <trkpt lat="38.2856910" lon="-3.6531400">
        <ele>408.6</ele>
        <time>2018-06-16T08:28:01Z</time>
      </trkpt>
      <trkpt lat="38.2857610" lon="-3.6531280">
        <ele>408.8</ele>
        <time>2018-06-16T08:28:02Z</time>
      </trkpt>
      <trkpt lat="38.2858310" lon="-3.6531160">
        <ele>408.8</ele>
        <time>2018-06-16T08:28:03Z</time>
      </trkpt>
      <trkpt lat="38.2858990" lon="-3.6531070">
        <ele>408.8</ele>
        <time>2018-06-16T08:28:04Z</time>
      </trkpt>
      <trkpt lat="38.2859640" lon="-3.6530980">
        <ele>408.8</ele>
        <time>2018-06-16T08:28:05Z</time>
      </trkpt>
      <trkpt lat="38.2860310" lon="-3.6530870">
        <ele>409.0</ele>
        <time>2018-06-16T08:28:06Z</time>
      </trkpt>
      <trkpt lat="38.2860940" lon="-3.6530760">
        <ele>409.4</ele>
        <time>2018-06-16T08:28:08Z</time>
      </trkpt>
      <trkpt lat="38.2861570" lon="-3.6530650">
        <ele>409.6</ele>
        <time>2018-06-16T08:28:09Z</time>
      </trkpt>
      <trkpt lat="38.2862440" lon="-3.6530520">
        <ele>410.2</ele>
        <time>2018-06-16T08:28:10Z</time>
      </trkpt>
      <trkpt lat="38.2863310" lon="-3.6530380">
        <ele>410.6</ele>
        <time>2018-06-16T08:28:11Z</time>
      </trkpt>
      <trkpt lat="38.2863830" lon="-3.6530290">
        <ele>410.8</ele>
        <time>2018-06-16T08:28:12Z</time>
      </trkpt>
      <trkpt lat="38.2864340" lon="-3.6530210">
        <ele>411.0</ele>
        <time>2018-06-16T08:28:13Z</time>
      </trkpt>
      <trkpt lat="38.2864860" lon="-3.6530150">
        <ele>411.4</ele>
        <time>2018-06-16T08:28:14Z</time>
      </trkpt>
      <trkpt lat="38.2865370" lon="-3.6530130">
        <ele>411.6</ele>
        <time>2018-06-16T08:28:15Z</time>
      </trkpt>
      <trkpt lat="38.2865880" lon="-3.6530060">
        <ele>411.8</ele>
        <time>2018-06-16T08:28:16Z</time>
      </trkpt>
      <trkpt lat="38.2866370" lon="-3.6530010">
        <ele>412.0</ele>
        <time>2018-06-16T08:28:17Z</time>
      </trkpt>
      <trkpt lat="38.2866850" lon="-3.6530000">
        <ele>412.4</ele>
        <time>2018-06-16T08:28:18Z</time>
      </trkpt>
      <trkpt lat="38.2867330" lon="-3.6530000">
        <ele>412.6</ele>
        <time>2018-06-16T08:28:19Z</time>
      </trkpt>
      <trkpt lat="38.2867780" lon="-3.6530030">
        <ele>413.0</ele>
        <time>2018-06-16T08:28:20Z</time>
      </trkpt>
      <trkpt lat="38.2868210" lon="-3.6530060">
        <ele>413.0</ele>
        <time>2018-06-16T08:28:21Z</time>
      </trkpt>
      <trkpt lat="38.2868640" lon="-3.6530110">
        <ele>413.2</ele>
        <time>2018-06-16T08:28:22Z</time>
      </trkpt>
      <trkpt lat="38.2869040" lon="-3.6530180">
        <ele>413.4</ele>
        <time>2018-06-16T08:28:23Z</time>
      </trkpt>
      <trkpt lat="38.2869450" lon="-3.6530270">
        <ele>413.6</ele>
        <time>2018-06-16T08:28:24Z</time>
      </trkpt>
      <trkpt lat="38.2869840" lon="-3.6530350">
        <ele>414.0</ele>
        <time>2018-06-16T08:28:25Z</time>
      </trkpt>
      <trkpt lat="38.2870200" lon="-3.6530450">
        <ele>418.6</ele>
        <time>2018-06-16T08:28:26Z</time>
      </trkpt>
      <trkpt lat="38.2870600" lon="-3.6530580">
        <ele>414.6</ele>
        <time>2018-06-16T08:28:27Z</time>
      </trkpt>
      <trkpt lat="38.2870980" lon="-3.6530710">
        <ele>414.6</ele>
        <time>2018-06-16T08:28:29Z</time>
      </trkpt>
      <trkpt lat="38.2871400" lon="-3.6530820">
        <ele>414.8</ele>
        <time>2018-06-16T08:28:30Z</time>
      </trkpt>
      <trkpt lat="38.2871810" lon="-3.6530920">
        <ele>415.0</ele>
        <time>2018-06-16T08:28:31Z</time>
      </trkpt>
      <trkpt lat="38.2872220" lon="-3.6531020">
        <ele>415.2</ele>
        <time>2018-06-16T08:28:32Z</time>
      </trkpt>
      <trkpt lat="38.2872550" lon="-3.6531020">
        <ele>415.4</ele>
        <time>2018-06-16T08:28:33Z</time>
      </trkpt>
      <trkpt lat="38.2872930" lon="-3.6530990">
        <ele>415.4</ele>
        <time>2018-06-16T08:28:34Z</time>
      </trkpt>
      <trkpt lat="38.2873350" lon="-3.6530940">
        <ele>415.6</ele>
        <time>2018-06-16T08:28:35Z</time>
      </trkpt>
      <trkpt lat="38.2874180" lon="-3.6530840">
        <ele>416.2</ele>
        <time>2018-06-16T08:28:36Z</time>
      </trkpt>
      <trkpt lat="38.2874580" lon="-3.6530790">
        <ele>416.4</ele>
        <time>2018-06-16T08:28:37Z</time>
      </trkpt>
      <trkpt lat="38.2874990" lon="-3.6530720">
        <ele>416.6</ele>
        <time>2018-06-16T08:28:38Z</time>
      </trkpt>
      <trkpt lat="38.2875400" lon="-3.6530650">
        <ele>416.8</ele>
        <time>2018-06-16T08:28:39Z</time>
      </trkpt>
      <trkpt lat="38.2875780" lon="-3.6530600">
        <ele>417.0</ele>
        <time>2018-06-16T08:28:40Z</time>
      </trkpt>
      <trkpt lat="38.2876160" lon="-3.6530580">
        <ele>417.0</ele>
        <time>2018-06-16T08:28:41Z</time>
      </trkpt>
      <trkpt lat="38.2876560" lon="-3.6530550">
        <ele>417.2</ele>
        <time>2018-06-16T08:28:42Z</time>
      </trkpt>
      <trkpt lat="38.2876950" lon="-3.6530530">
        <ele>417.4</ele>
        <time>2018-06-16T08:28:43Z</time>
      </trkpt>
      <trkpt lat="38.2877330" lon="-3.6530510">
        <ele>417.6</ele>
        <time>2018-06-16T08:28:44Z</time>
      </trkpt>
      <trkpt lat="38.2877710" lon="-3.6530510">
        <ele>418.0</ele>
        <time>2018-06-16T08:28:45Z</time>
      </trkpt>
      <trkpt lat="38.2878080" lon="-3.6530500">
        <ele>418.0</ele>
        <time>2018-06-16T08:28:46Z</time>
      </trkpt>
      <trkpt lat="38.2878450" lon="-3.6530500">
        <ele>418.2</ele>
        <time>2018-06-16T08:28:47Z</time>
      </trkpt>
      <trkpt lat="38.2878840" lon="-3.6530510">
        <ele>418.4</ele>
        <time>2018-06-16T08:28:48Z</time>
      </trkpt>
      <trkpt lat="38.2879220" lon="-3.6530520">
        <ele>418.6</ele>
        <time>2018-06-16T08:28:49Z</time>
      </trkpt>
      <trkpt lat="38.2879580" lon="-3.6530520">
        <ele>418.8</ele>
        <time>2018-06-16T08:28:50Z</time>
      </trkpt>
      <trkpt lat="38.2879940" lon="-3.6530520">
        <ele>419.0</ele>
        <time>2018-06-16T08:28:51Z</time>
      </trkpt>
      <trkpt lat="38.2880320" lon="-3.6530520">
        <ele>419.2</ele>
        <time>2018-06-16T08:28:52Z</time>
      </trkpt>
      <trkpt lat="38.2880690" lon="-3.6530520">
        <ele>419.2</ele>
        <time>2018-06-16T08:28:53Z</time>
      </trkpt>
      <trkpt lat="38.2881060" lon="-3.6530510">
        <ele>419.4</ele>
        <time>2018-06-16T08:28:54Z</time>
      </trkpt>
      <trkpt lat="38.2881440" lon="-3.6530510">
        <ele>419.6</ele>
        <time>2018-06-16T08:28:55Z</time>
      </trkpt>
      <trkpt lat="38.2881820" lon="-3.6530480">
        <ele>419.6</ele>
        <time>2018-06-16T08:28:56Z</time>
      </trkpt>
      <trkpt lat="38.2882210" lon="-3.6530430">
        <ele>419.8</ele>
        <time>2018-06-16T08:28:57Z</time>
      </trkpt>
      <trkpt lat="38.2882600" lon="-3.6530340">
        <ele>420.0</ele>
        <time>2018-06-16T08:28:58Z</time>
      </trkpt>
      <trkpt lat="38.2882980" lon="-3.6530220">
        <ele>420.2</ele>
        <time>2018-06-16T08:28:59Z</time>
      </trkpt>
      <trkpt lat="38.2883350" lon="-3.6530050">
        <ele>420.2</ele>
        <time>2018-06-16T08:29:00Z</time>
      </trkpt>
      <trkpt lat="38.2883710" lon="-3.6529850">
        <ele>420.4</ele>
        <time>2018-06-16T08:29:01Z</time>
      </trkpt>
      <trkpt lat="38.2884060" lon="-3.6529590">
        <ele>420.6</ele>
        <time>2018-06-16T08:29:02Z</time>
      </trkpt>
      <trkpt lat="38.2884360" lon="-3.6529310">
        <ele>420.8</ele>
        <time>2018-06-16T08:29:03Z</time>
      </trkpt>
      <trkpt lat="38.2884650" lon="-3.6529020">
        <ele>421.0</ele>
        <time>2018-06-16T08:29:04Z</time>
      </trkpt>
      <trkpt lat="38.2884910" lon="-3.6528720">
        <ele>421.2</ele>
        <time>2018-06-16T08:29:05Z</time>
      </trkpt>
      <trkpt lat="38.2885170" lon="-3.6528420">
        <ele>421.4</ele>
        <time>2018-06-16T08:29:06Z</time>
      </trkpt>
      <trkpt lat="38.2885430" lon="-3.6528120">
        <ele>421.6</ele>
        <time>2018-06-16T08:29:07Z</time>
      </trkpt>
      <trkpt lat="38.2885690" lon="-3.6527820">
        <ele>422.0</ele>
        <time>2018-06-16T08:29:09Z</time>
      </trkpt>
      <trkpt lat="38.2885940" lon="-3.6527520">
        <ele>422.0</ele>
        <time>2018-06-16T08:29:10Z</time>
      </trkpt>
      <trkpt lat="38.2886200" lon="-3.6527210">
        <ele>422.4</ele>
        <time>2018-06-16T08:29:11Z</time>
      </trkpt>
      <trkpt lat="38.2886440" lon="-3.6526910">
        <ele>422.6</ele>
        <time>2018-06-16T08:29:12Z</time>
      </trkpt>
      <trkpt lat="38.2886680" lon="-3.6526610">
        <ele>422.8</ele>
        <time>2018-06-16T08:29:13Z</time>
      </trkpt>
      <trkpt lat="38.2886910" lon="-3.6526320">
        <ele>423.0</ele>
        <time>2018-06-16T08:29:14Z</time>
      </trkpt>
      <trkpt lat="38.2887150" lon="-3.6526040">
        <ele>423.2</ele>
        <time>2018-06-16T08:29:15Z</time>
      </trkpt>
      <trkpt lat="38.2887390" lon="-3.6525780">
        <ele>423.4</ele>
        <time>2018-06-16T08:29:16Z</time>
      </trkpt>
      <trkpt lat="38.2887620" lon="-3.6525540">
        <ele>423.6</ele>
        <time>2018-06-16T08:29:17Z</time>
      </trkpt>
      <trkpt lat="38.2887830" lon="-3.6525290">
        <ele>423.8</ele>
        <time>2018-06-16T08:29:18Z</time>
      </trkpt>
      <trkpt lat="38.2888270" lon="-3.6524760">
        <ele>424.4</ele>
        <time>2018-06-16T08:29:19Z</time>
      </trkpt>
      <trkpt lat="38.2888500" lon="-3.6524520">
        <ele>424.6</ele>
        <time>2018-06-16T08:29:20Z</time>
      </trkpt>
      <trkpt lat="38.2888710" lon="-3.6524260">
        <ele>424.6</ele>
        <time>2018-06-16T08:29:21Z</time>
      </trkpt>
      <trkpt lat="38.2888920" lon="-3.6524010">
        <ele>424.8</ele>
        <time>2018-06-16T08:29:22Z</time>
      </trkpt>
      <trkpt lat="38.2889110" lon="-3.6523760">
        <ele>425.0</ele>
        <time>2018-06-16T08:29:23Z</time>
      </trkpt>
      <trkpt lat="38.2889320" lon="-3.6523500">
        <ele>425.2</ele>
        <time>2018-06-16T08:29:24Z</time>
      </trkpt>
      <trkpt lat="38.2889520" lon="-3.6523260">
        <ele>425.4</ele>
        <time>2018-06-16T08:29:25Z</time>
      </trkpt>
      <trkpt lat="38.2889720" lon="-3.6523010">
        <ele>425.6</ele>
        <time>2018-06-16T08:29:26Z</time>
      </trkpt>
      <trkpt lat="38.2889930" lon="-3.6522760">
        <ele>425.8</ele>
        <time>2018-06-16T08:29:27Z</time>
      </trkpt>
      <trkpt lat="38.2890130" lon="-3.6522510">
        <ele>426.0</ele>
        <time>2018-06-16T08:29:28Z</time>
      </trkpt>
      <trkpt lat="38.2890330" lon="-3.6522240">
        <ele>426.2</ele>
        <time>2018-06-16T08:29:29Z</time>
      </trkpt>
      <trkpt lat="38.2890540" lon="-3.6521960">
        <ele>426.2</ele>
        <time>2018-06-16T08:29:30Z</time>
      </trkpt>
      <trkpt lat="38.2890740" lon="-3.6521710">
        <ele>426.6</ele>
        <time>2018-06-16T08:29:31Z</time>
      </trkpt>
      <trkpt lat="38.2890940" lon="-3.6521460">
        <ele>426.6</ele>
        <time>2018-06-16T08:29:32Z</time>
      </trkpt>
      <trkpt lat="38.2891120" lon="-3.6521190">
        <ele>427.0</ele>
        <time>2018-06-16T08:29:33Z</time>
      </trkpt>
      <trkpt lat="38.2891300" lon="-3.6520920">
        <ele>427.2</ele>
        <time>2018-06-16T08:29:34Z</time>
      </trkpt>
      <trkpt lat="38.2891490" lon="-3.6520660">
        <ele>427.4</ele>
        <time>2018-06-16T08:29:35Z</time>
      </trkpt>
      <trkpt lat="38.2891670" lon="-3.6520390">
        <ele>427.4</ele>
        <time>2018-06-16T08:29:36Z</time>
      </trkpt>
      <trkpt lat="38.2891850" lon="-3.6520120">
        <ele>427.6</ele>
        <time>2018-06-16T08:29:37Z</time>
      </trkpt>
      <trkpt lat="38.2892040" lon="-3.6519830">
        <ele>427.8</ele>
        <time>2018-06-16T08:29:38Z</time>
      </trkpt>
      <trkpt lat="38.2892240" lon="-3.6519560">
        <ele>427.8</ele>
        <time>2018-06-16T08:29:39Z</time>
      </trkpt>
      <trkpt lat="38.2892420" lon="-3.6519280">
        <ele>428.0</ele>
        <time>2018-06-16T08:29:40Z</time>
      </trkpt>
      <trkpt lat="38.2892590" lon="-3.6519000">
        <ele>428.2</ele>
        <time>2018-06-16T08:29:41Z</time>
      </trkpt>
      <trkpt lat="38.2892770" lon="-3.6518710">
        <ele>428.4</ele>
        <time>2018-06-16T08:29:42Z</time>
      </trkpt>
      <trkpt lat="38.2892950" lon="-3.6518420">
        <ele>428.6</ele>
        <time>2018-06-16T08:29:43Z</time>
      </trkpt>
      <trkpt lat="38.2893130" lon="-3.6518130">
        <ele>428.8</ele>
        <time>2018-06-16T08:29:45Z</time>
      </trkpt>
      <trkpt lat="38.2893290" lon="-3.6517820">
        <ele>429.0</ele>
        <time>2018-06-16T08:29:46Z</time>
      </trkpt>
      <trkpt lat="38.2893460" lon="-3.6517530">
        <ele>429.2</ele>
        <time>2018-06-16T08:29:47Z</time>
      </trkpt>
      <trkpt lat="38.2893590" lon="-3.6517220">
        <ele>429.4</ele>
        <time>2018-06-16T08:29:48Z</time>
      </trkpt>
      <trkpt lat="38.2893770" lon="-3.6516520">
        <ele>429.8</ele>
        <time>2018-06-16T08:29:49Z</time>
      </trkpt>
      <trkpt lat="38.2893810" lon="-3.6516170">
        <ele>430.0</ele>
        <time>2018-06-16T08:29:50Z</time>
      </trkpt>
      <trkpt lat="38.2893830" lon="-3.6515800">
        <ele>430.2</ele>
        <time>2018-06-16T08:29:51Z</time>
      </trkpt>
      <trkpt lat="38.2893820" lon="-3.6515440">
        <ele>430.4</ele>
        <time>2018-06-16T08:29:52Z</time>
      </trkpt>
      <trkpt lat="38.2893780" lon="-3.6515110">
        <ele>430.6</ele>
        <time>2018-06-16T08:29:53Z</time>
      </trkpt>
      <trkpt lat="38.2893740" lon="-3.6514770">
        <ele>430.8</ele>
        <time>2018-06-16T08:29:54Z</time>
      </trkpt>
      <trkpt lat="38.2893660" lon="-3.6514290">
        <ele>431.2</ele>
        <time>2018-06-16T08:29:55Z</time>
      </trkpt>
      <trkpt lat="38.2893620" lon="-3.6514130">
        <ele>431.2</ele>
        <time>2018-06-16T08:29:56Z</time>
      </trkpt>
      <trkpt lat="38.2893560" lon="-3.6513810">
        <ele>431.4</ele>
        <time>2018-06-16T08:29:57Z</time>
      </trkpt>
      <trkpt lat="38.2893500" lon="-3.6513470">
        <ele>431.6</ele>
        <time>2018-06-16T08:29:58Z</time>
      </trkpt>
      <trkpt lat="38.2893450" lon="-3.6513130">
        <ele>431.8</ele>
        <time>2018-06-16T08:29:59Z</time>
      </trkpt>
      <trkpt lat="38.2893410" lon="-3.6512790">
        <ele>432.0</ele>
        <time>2018-06-16T08:30:00Z</time>
      </trkpt>
      <trkpt lat="38.2893370" lon="-3.6512260">
        <ele>432.2</ele>
        <time>2018-06-16T08:30:01Z</time>
      </trkpt>
      <trkpt lat="38.2893360" lon="-3.6512080">
        <ele>432.4</ele>
        <time>2018-06-16T08:30:02Z</time>
      </trkpt>
      <trkpt lat="38.2893330" lon="-3.6511750">
        <ele>432.6</ele>
        <time>2018-06-16T08:30:03Z</time>
      </trkpt>
      <trkpt lat="38.2893290" lon="-3.6511410">
        <ele>432.8</ele>
        <time>2018-06-16T08:30:04Z</time>
      </trkpt>
      <trkpt lat="38.2893270" lon="-3.6511080">
        <ele>433.0</ele>
        <time>2018-06-16T08:30:05Z</time>
      </trkpt>
      <trkpt lat="38.2893270" lon="-3.6510750">
        <ele>433.2</ele>
        <time>2018-06-16T08:30:06Z</time>
      </trkpt>
      <trkpt lat="38.2893260" lon="-3.6510400">
        <ele>433.4</ele>
        <time>2018-06-16T08:30:07Z</time>
      </trkpt>
      <trkpt lat="38.2893270" lon="-3.6510060">
        <ele>433.6</ele>
        <time>2018-06-16T08:30:08Z</time>
      </trkpt>
      <trkpt lat="38.2893260" lon="-3.6509720">
        <ele>433.8</ele>
        <time>2018-06-16T08:30:10Z</time>
      </trkpt>
      <trkpt lat="38.2893250" lon="-3.6509400">
        <ele>434.0</ele>
        <time>2018-06-16T08:30:11Z</time>
      </trkpt>
      <trkpt lat="38.2893240" lon="-3.6509080">
        <ele>434.0</ele>
        <time>2018-06-16T08:30:12Z</time>
      </trkpt>
      <trkpt lat="38.2893240" lon="-3.6508750">
        <ele>434.2</ele>
        <time>2018-06-16T08:30:13Z</time>
      </trkpt>
      <trkpt lat="38.2893220" lon="-3.6508340">
        <ele>434.2</ele>
        <time>2018-06-16T08:30:14Z</time>
      </trkpt>
      <trkpt lat="38.2893200" lon="-3.6508030">
        <ele>434.4</ele>
        <time>2018-06-16T08:30:15Z</time>
      </trkpt>
      <trkpt lat="38.2893200" lon="-3.6507720">
        <ele>434.6</ele>
        <time>2018-06-16T08:30:16Z</time>
      </trkpt>
      <trkpt lat="38.2893230" lon="-3.6507340">
        <ele>434.8</ele>
        <time>2018-06-16T08:30:17Z</time>
      </trkpt>
      <trkpt lat="38.2893220" lon="-3.6506980">
        <ele>434.8</ele>
        <time>2018-06-16T08:30:18Z</time>
      </trkpt>
      <trkpt lat="38.2893220" lon="-3.6506660">
        <ele>435.0</ele>
        <time>2018-06-16T08:30:19Z</time>
      </trkpt>
      <trkpt lat="38.2893250" lon="-3.6506340">
        <ele>435.2</ele>
        <time>2018-06-16T08:30:20Z</time>
      </trkpt>
      <trkpt lat="38.2893280" lon="-3.6506020">
        <ele>435.2</ele>
        <time>2018-06-16T08:30:21Z</time>
      </trkpt>
      <trkpt lat="38.2893300" lon="-3.6505700">
        <ele>435.4</ele>
        <time>2018-06-16T08:30:22Z</time>
      </trkpt>
      <trkpt lat="38.2893320" lon="-3.6505390">
        <ele>435.6</ele>
        <time>2018-06-16T08:30:23Z</time>
      </trkpt>
      <trkpt lat="38.2893350" lon="-3.6505090">
        <ele>435.8</ele>
        <time>2018-06-16T08:30:24Z</time>
      </trkpt>
      <trkpt lat="38.2893360" lon="-3.6504500">
        <ele>436.2</ele>
        <time>2018-06-16T08:30:25Z</time>
      </trkpt>
      <trkpt lat="38.2893360" lon="-3.6504200">
        <ele>436.4</ele>
        <time>2018-06-16T08:30:26Z</time>
      </trkpt>
      <trkpt lat="38.2893350" lon="-3.6503910">
        <ele>436.4</ele>
        <time>2018-06-16T08:30:27Z</time>
      </trkpt>
      <trkpt lat="38.2893340" lon="-3.6503610">
        <ele>436.6</ele>
        <time>2018-06-16T08:30:28Z</time>
      </trkpt>
      <trkpt lat="38.2893330" lon="-3.6503310">
        <ele>436.8</ele>
        <time>2018-06-16T08:30:29Z</time>
      </trkpt>
      <trkpt lat="38.2893330" lon="-3.6503020">
        <ele>437.0</ele>
        <time>2018-06-16T08:30:30Z</time>
      </trkpt>
      <trkpt lat="38.2893380" lon="-3.6502670">
        <ele>437.2</ele>
        <time>2018-06-16T08:30:31Z</time>
      </trkpt>
      <trkpt lat="38.2893400" lon="-3.6502390">
        <ele>437.2</ele>
        <time>2018-06-16T08:30:32Z</time>
      </trkpt>
      <trkpt lat="38.2893440" lon="-3.6502110">
        <ele>437.4</ele>
        <time>2018-06-16T08:30:33Z</time>
      </trkpt>
      <trkpt lat="38.2893520" lon="-3.6501820">
        <ele>437.6</ele>
        <time>2018-06-16T08:30:34Z</time>
      </trkpt>
      <trkpt lat="38.2893640" lon="-3.6501510">
        <ele>437.6</ele>
        <time>2018-06-16T08:30:35Z</time>
      </trkpt>
      <trkpt lat="38.2893760" lon="-3.6501220">
        <ele>437.8</ele>
        <time>2018-06-16T08:30:37Z</time>
      </trkpt>
      <trkpt lat="38.2893860" lon="-3.6500930">
        <ele>438.0</ele>
        <time>2018-06-16T08:30:38Z</time>
      </trkpt>
      <trkpt lat="38.2893970" lon="-3.6500630">
        <ele>438.0</ele>
        <time>2018-06-16T08:30:39Z</time>
      </trkpt>
      <trkpt lat="38.2894170" lon="-3.6500210">
        <ele>438.2</ele>
        <time>2018-06-16T08:30:40Z</time>
      </trkpt>
      <trkpt lat="38.2894230" lon="-3.6500080">
        <ele>438.4</ele>
        <time>2018-06-16T08:30:41Z</time>
      </trkpt>
      <trkpt lat="38.2894380" lon="-3.6499820">
        <ele>438.6</ele>
        <time>2018-06-16T08:30:42Z</time>
      </trkpt>
      <trkpt lat="38.2894530" lon="-3.6499570">
        <ele>438.6</ele>
        <time>2018-06-16T08:30:43Z</time>
      </trkpt>
      <trkpt lat="38.2894680" lon="-3.6499310">
        <ele>438.8</ele>
        <time>2018-06-16T08:30:44Z</time>
      </trkpt>
      <trkpt lat="38.2894820" lon="-3.6499070">
        <ele>439.0</ele>
        <time>2018-06-16T08:30:45Z</time>
      </trkpt>
      <trkpt lat="38.2894960" lon="-3.6498830">
        <ele>439.0</ele>
        <time>2018-06-16T08:30:46Z</time>
      </trkpt>
      <trkpt lat="38.2895090" lon="-3.6498600">
        <ele>439.2</ele>
        <time>2018-06-16T08:30:47Z</time>
      </trkpt>
      <trkpt lat="38.2895220" lon="-3.6498360">
        <ele>439.4</ele>
        <time>2018-06-16T08:30:48Z</time>
      </trkpt>
      <trkpt lat="38.2895330" lon="-3.6498110">
        <ele>439.4</ele>
        <time>2018-06-16T08:30:49Z</time>
      </trkpt>
      <trkpt lat="38.2895440" lon="-3.6497860">
        <ele>439.6</ele>
        <time>2018-06-16T08:30:50Z</time>
      </trkpt>
      <trkpt lat="38.2895550" lon="-3.6497610">
        <ele>439.8</ele>
        <time>2018-06-16T08:30:51Z</time>
      </trkpt>
      <trkpt lat="38.2895660" lon="-3.6497350">
        <ele>440.0</ele>
        <time>2018-06-16T08:30:52Z</time>
      </trkpt>
      <trkpt lat="38.2895760" lon="-3.6497080">
        <ele>440.2</ele>
        <time>2018-06-16T08:30:53Z</time>
      </trkpt>
      <trkpt lat="38.2895930" lon="-3.6496530">
        <ele>440.4</ele>
        <time>2018-06-16T08:30:54Z</time>
      </trkpt>
      <trkpt lat="38.2896010" lon="-3.6496260">
        <ele>440.6</ele>
        <time>2018-06-16T08:30:55Z</time>
      </trkpt>
      <trkpt lat="38.2896100" lon="-3.6496000">
        <ele>440.8</ele>
        <time>2018-06-16T08:30:56Z</time>
      </trkpt>
      <trkpt lat="38.2896180" lon="-3.6495590">
        <ele>441.0</ele>
        <time>2018-06-16T08:30:57Z</time>
      </trkpt>
      <trkpt lat="38.2896190" lon="-3.6495450">
        <ele>441.2</ele>
        <time>2018-06-16T08:30:58Z</time>
      </trkpt>
      <trkpt lat="38.2896230" lon="-3.6495170">
        <ele>441.2</ele>
        <time>2018-06-16T08:30:59Z</time>
      </trkpt>
      <trkpt lat="38.2896270" lon="-3.6494880">
        <ele>441.4</ele>
        <time>2018-06-16T08:31:00Z</time>
      </trkpt>
      <trkpt lat="38.2896310" lon="-3.6494600">
        <ele>441.6</ele>
        <time>2018-06-16T08:31:01Z</time>
      </trkpt>
      <trkpt lat="38.2896370" lon="-3.6494160">
        <ele>441.8</ele>
        <time>2018-06-16T08:31:02Z</time>
      </trkpt>
      <trkpt lat="38.2896380" lon="-3.6494010">
        <ele>441.8</ele>
        <time>2018-06-16T08:31:03Z</time>
      </trkpt>
      <trkpt lat="38.2896420" lon="-3.6493690">
        <ele>442.0</ele>
        <time>2018-06-16T08:31:04Z</time>
      </trkpt>
      <trkpt lat="38.2896440" lon="-3.6493390">
        <ele>442.2</ele>
        <time>2018-06-16T08:31:05Z</time>
      </trkpt>
      <trkpt lat="38.2896470" lon="-3.6493080">
        <ele>442.4</ele>
        <time>2018-06-16T08:31:06Z</time>
      </trkpt>
      <trkpt lat="38.2896530" lon="-3.6492810">
        <ele>442.4</ele>
        <time>2018-06-16T08:31:07Z</time>
      </trkpt>
      <trkpt lat="38.2896540" lon="-3.6492490">
        <ele>442.6</ele>
        <time>2018-06-16T08:31:08Z</time>
      </trkpt>
      <trkpt lat="38.2896560" lon="-3.6492200">
        <ele>442.8</ele>
        <time>2018-06-16T08:31:09Z</time>
      </trkpt>
      <trkpt lat="38.2896590" lon="-3.6491910">
        <ele>443.0</ele>
        <time>2018-06-16T08:31:11Z</time>
      </trkpt>
      <trkpt lat="38.2896650" lon="-3.6491610">
        <ele>443.2</ele>
        <time>2018-06-16T08:31:12Z</time>
      </trkpt>
      <trkpt lat="38.2896710" lon="-3.6491310">
        <ele>443.4</ele>
        <time>2018-06-16T08:31:13Z</time>
      </trkpt>
      <trkpt lat="38.2896750" lon="-3.6491030">
        <ele>443.4</ele>
        <time>2018-06-16T08:31:14Z</time>
      </trkpt>
      <trkpt lat="38.2896800" lon="-3.6490740">
        <ele>443.6</ele>
        <time>2018-06-16T08:31:15Z</time>
      </trkpt>
      <trkpt lat="38.2896840" lon="-3.6490440">
        <ele>443.8</ele>
        <time>2018-06-16T08:31:16Z</time>
      </trkpt>
      <trkpt lat="38.2896910" lon="-3.6490140">
        <ele>444.0</ele>
        <time>2018-06-16T08:31:17Z</time>
      </trkpt>
      <trkpt lat="38.2896980" lon="-3.6489830">
        <ele>444.0</ele>
        <time>2018-06-16T08:31:18Z</time>
      </trkpt>
      <trkpt lat="38.2897050" lon="-3.6489530">
        <ele>444.4</ele>
        <time>2018-06-16T08:31:19Z</time>
      </trkpt>
      <trkpt lat="38.2897140" lon="-3.6489240">
        <ele>444.6</ele>
        <time>2018-06-16T08:31:20Z</time>
      </trkpt>
      <trkpt lat="38.2897220" lon="-3.6488960">
        <ele>444.6</ele>
        <time>2018-06-16T08:31:21Z</time>
      </trkpt>
      <trkpt lat="38.2897330" lon="-3.6488680">
        <ele>444.8</ele>
        <time>2018-06-16T08:31:22Z</time>
      </trkpt>
      <trkpt lat="38.2897440" lon="-3.6488410">
        <ele>444.8</ele>
        <time>2018-06-16T08:31:23Z</time>
      </trkpt>
      <trkpt lat="38.2897560" lon="-3.6488140">
        <ele>445.0</ele>
        <time>2018-06-16T08:31:24Z</time>
      </trkpt>
      <trkpt lat="38.2897710" lon="-3.6487880">
        <ele>445.0</ele>
        <time>2018-06-16T08:31:25Z</time>
      </trkpt>
      <trkpt lat="38.2897870" lon="-3.6487630">
        <ele>445.2</ele>
        <time>2018-06-16T08:31:26Z</time>
      </trkpt>
      <trkpt lat="38.2898040" lon="-3.6487380">
        <ele>445.2</ele>
        <time>2018-06-16T08:31:27Z</time>
      </trkpt>
      <trkpt lat="38.2898370" lon="-3.6486900">
        <ele>445.4</ele>
        <time>2018-06-16T08:31:28Z</time>
      </trkpt>
      <trkpt lat="38.2898640" lon="-3.6486560">
        <ele>445.6</ele>
        <time>2018-06-16T08:31:29Z</time>
      </trkpt>
      <trkpt lat="38.2898730" lon="-3.6486420">
        <ele>445.6</ele>
        <time>2018-06-16T08:31:30Z</time>
      </trkpt>
      <trkpt lat="38.2898910" lon="-3.6486220">
        <ele>445.8</ele>
        <time>2018-06-16T08:31:32Z</time>
      </trkpt>
      <trkpt lat="38.2899090" lon="-3.6485980">
        <ele>446.0</ele>
        <time>2018-06-16T08:31:33Z</time>
      </trkpt>
      <trkpt lat="38.2899220" lon="-3.6485790">
        <ele>446.2</ele>
        <time>2018-06-16T08:31:34Z</time>
      </trkpt>
      <trkpt lat="38.2899420" lon="-3.6485460">
        <ele>446.4</ele>
        <time>2018-06-16T08:31:35Z</time>
      </trkpt>
      <trkpt lat="38.2899490" lon="-3.6485340">
        <ele>446.4</ele>
        <time>2018-06-16T08:31:36Z</time>
      </trkpt>
      <trkpt lat="38.2899610" lon="-3.6485100">
        <ele>446.6</ele>
        <time>2018-06-16T08:31:37Z</time>
      </trkpt>
      <trkpt lat="38.2899750" lon="-3.6484850">
        <ele>446.8</ele>
        <time>2018-06-16T08:31:38Z</time>
      </trkpt>
      <trkpt lat="38.2899880" lon="-3.6484600">
        <ele>446.8</ele>
        <time>2018-06-16T08:31:39Z</time>
      </trkpt>
      <trkpt lat="38.2900020" lon="-3.6484340">
        <ele>446.8</ele>
        <time>2018-06-16T08:31:40Z</time>
      </trkpt>
      <trkpt lat="38.2900140" lon="-3.6484070">
        <ele>447.0</ele>
        <time>2018-06-16T08:31:41Z</time>
      </trkpt>
      <trkpt lat="38.2900250" lon="-3.6483810">
        <ele>447.2</ele>
        <time>2018-06-16T08:31:42Z</time>
      </trkpt>
      <trkpt lat="38.2900370" lon="-3.6483530">
        <ele>447.4</ele>
        <time>2018-06-16T08:31:43Z</time>
      </trkpt>
      <trkpt lat="38.2900480" lon="-3.6483240">
        <ele>447.6</ele>
        <time>2018-06-16T08:31:44Z</time>
      </trkpt>
      <trkpt lat="38.2900570" lon="-3.6482960">
        <ele>447.8</ele>
        <time>2018-06-16T08:31:45Z</time>
      </trkpt>
      <trkpt lat="38.2900640" lon="-3.6482660">
        <ele>448.0</ele>
        <time>2018-06-16T08:31:46Z</time>
      </trkpt>
      <trkpt lat="38.2900710" lon="-3.6482350">
        <ele>448.2</ele>
        <time>2018-06-16T08:31:47Z</time>
      </trkpt>
      <trkpt lat="38.2900760" lon="-3.6482040">
        <ele>448.4</ele>
        <time>2018-06-16T08:31:48Z</time>
      </trkpt>
      <trkpt lat="38.2900800" lon="-3.6481730">
        <ele>448.6</ele>
        <time>2018-06-16T08:31:49Z</time>
      </trkpt>
      <trkpt lat="38.2900830" lon="-3.6481280">
        <ele>449.0</ele>
        <time>2018-06-16T08:31:50Z</time>
      </trkpt>
      <trkpt lat="38.2900830" lon="-3.6481120">
        <ele>449.2</ele>
        <time>2018-06-16T08:31:51Z</time>
      </trkpt>
      <trkpt lat="38.2900830" lon="-3.6480820">
        <ele>449.4</ele>
        <time>2018-06-16T08:31:52Z</time>
      </trkpt>
      <trkpt lat="38.2900810" lon="-3.6480510">
        <ele>449.6</ele>
        <time>2018-06-16T08:31:53Z</time>
      </trkpt>
      <trkpt lat="38.2900830" lon="-3.6479880">
        <ele>449.8</ele>
        <time>2018-06-16T08:31:54Z</time>
      </trkpt>
      <trkpt lat="38.2900840" lon="-3.6479560">
        <ele>450.0</ele>
        <time>2018-06-16T08:31:55Z</time>
      </trkpt>
      <trkpt lat="38.2900850" lon="-3.6479250">
        <ele>450.2</ele>
        <time>2018-06-16T08:31:56Z</time>
      </trkpt>
      <trkpt lat="38.2900860" lon="-3.6478930">
        <ele>450.2</ele>
        <time>2018-06-16T08:31:57Z</time>
      </trkpt>
      <trkpt lat="38.2900860" lon="-3.6478610">
        <ele>450.4</ele>
        <time>2018-06-16T08:31:58Z</time>
      </trkpt>
      <trkpt lat="38.2900850" lon="-3.6478290">
        <ele>450.6</ele>
        <time>2018-06-16T08:31:59Z</time>
      </trkpt>
      <trkpt lat="38.2900830" lon="-3.6477970">
        <ele>450.8</ele>
        <time>2018-06-16T08:32:00Z</time>
      </trkpt>
      <trkpt lat="38.2900810" lon="-3.6477660">
        <ele>450.8</ele>
        <time>2018-06-16T08:32:01Z</time>
      </trkpt>
      <trkpt lat="38.2900790" lon="-3.6477340">
        <ele>451.0</ele>
        <time>2018-06-16T08:32:02Z</time>
      </trkpt>
      <trkpt lat="38.2900740" lon="-3.6477030">
        <ele>451.2</ele>
        <time>2018-06-16T08:32:03Z</time>
      </trkpt>
      <trkpt lat="38.2900650" lon="-3.6476730">
        <ele>451.4</ele>
        <time>2018-06-16T08:32:04Z</time>
      </trkpt>
      <trkpt lat="38.2900540" lon="-3.6476450">
        <ele>451.6</ele>
        <time>2018-06-16T08:32:05Z</time>
      </trkpt>
      <trkpt lat="38.2900420" lon="-3.6476190">
        <ele>451.6</ele>
        <time>2018-06-16T08:32:06Z</time>
      </trkpt>
      <trkpt lat="38.2900280" lon="-3.6475920">
        <ele>451.8</ele>
        <time>2018-06-16T08:32:07Z</time>
      </trkpt>
      <trkpt lat="38.2900120" lon="-3.6475700">
        <ele>452.0</ele>
        <time>2018-06-16T08:32:08Z</time>
      </trkpt>
      <trkpt lat="38.2899970" lon="-3.6475500">
        <ele>452.2</ele>
        <time>2018-06-16T08:32:10Z</time>
      </trkpt>
      <trkpt lat="38.2899800" lon="-3.6475290">
        <ele>452.2</ele>
        <time>2018-06-16T08:32:11Z</time>
      </trkpt>
      <trkpt lat="38.2899630" lon="-3.6475070">
        <ele>452.4</ele>
        <time>2018-06-16T08:32:12Z</time>
      </trkpt>
      <trkpt lat="38.2899450" lon="-3.6474890">
        <ele>452.6</ele>
        <time>2018-06-16T08:32:13Z</time>
      </trkpt>
      <trkpt lat="38.2899270" lon="-3.6474710">
        <ele>452.8</ele>
        <time>2018-06-16T08:32:14Z</time>
      </trkpt>
      <trkpt lat="38.2899100" lon="-3.6474490">
        <ele>453.0</ele>
        <time>2018-06-16T08:32:15Z</time>
      </trkpt>
      <trkpt lat="38.2898770" lon="-3.6474280">
        <ele>453.2</ele>
        <time>2018-06-16T08:32:16Z</time>
      </trkpt>
      <trkpt lat="38.2898660" lon="-3.6474220">
        <ele>453.4</ele>
        <time>2018-06-16T08:32:17Z</time>
      </trkpt>
      <trkpt lat="38.2898440" lon="-3.6474050">
        <ele>453.6</ele>
        <time>2018-06-16T08:32:18Z</time>
      </trkpt>
      <trkpt lat="38.2898210" lon="-3.6473920">
        <ele>453.8</ele>
        <time>2018-06-16T08:32:19Z</time>
      </trkpt>
      <trkpt lat="38.2898000" lon="-3.6473770">
        <ele>454.2</ele>
        <time>2018-06-16T08:32:20Z</time>
      </trkpt>
      <trkpt lat="38.2897550" lon="-3.6473470">
        <ele>454.2</ele>
        <time>2018-06-16T08:32:21Z</time>
      </trkpt>
      <trkpt lat="38.2897320" lon="-3.6473350">
        <ele>454.6</ele>
        <time>2018-06-16T08:32:22Z</time>
      </trkpt>
      <trkpt lat="38.2897090" lon="-3.6473210">
        <ele>454.6</ele>
        <time>2018-06-16T08:32:24Z</time>
      </trkpt>
      <trkpt lat="38.2896860" lon="-3.6473080">
        <ele>454.8</ele>
        <time>2018-06-16T08:32:25Z</time>
      </trkpt>
      <trkpt lat="38.2896640" lon="-3.6472960">
        <ele>455.0</ele>
        <time>2018-06-16T08:32:26Z</time>
      </trkpt>
      <trkpt lat="38.2896410" lon="-3.6472850">
        <ele>455.2</ele>
        <time>2018-06-16T08:32:27Z</time>
      </trkpt>
      <trkpt lat="38.2896080" lon="-3.6472690">
        <ele>455.4</ele>
        <time>2018-06-16T08:32:28Z</time>
      </trkpt>
      <trkpt lat="38.2895960" lon="-3.6472650">
        <ele>455.6</ele>
        <time>2018-06-16T08:32:29Z</time>
      </trkpt>
      <trkpt lat="38.2895710" lon="-3.6472580">
        <ele>455.8</ele>
        <time>2018-06-16T08:32:30Z</time>
      </trkpt>
      <trkpt lat="38.2895460" lon="-3.6472550">
        <ele>456.0</ele>
        <time>2018-06-16T08:32:31Z</time>
      </trkpt>
      <trkpt lat="38.2895230" lon="-3.6472570">
        <ele>456.2</ele>
        <time>2018-06-16T08:32:32Z</time>
      </trkpt>
      <trkpt lat="38.2894990" lon="-3.6472640">
        <ele>456.6</ele>
        <time>2018-06-16T08:32:33Z</time>
      </trkpt>
      <trkpt lat="38.2894770" lon="-3.6472750">
        <ele>456.6</ele>
        <time>2018-06-16T08:32:34Z</time>
      </trkpt>
      <trkpt lat="38.2894360" lon="-3.6473070">
        <ele>457.0</ele>
        <time>2018-06-16T08:32:35Z</time>
      </trkpt>
      <trkpt lat="38.2894180" lon="-3.6473290">
        <ele>457.2</ele>
        <time>2018-06-16T08:32:36Z</time>
      </trkpt>
      <trkpt lat="38.2894020" lon="-3.6473490">
        <ele>457.4</ele>
        <time>2018-06-16T08:32:38Z</time>
      </trkpt>
      <trkpt lat="38.2893870" lon="-3.6473730">
        <ele>457.6</ele>
        <time>2018-06-16T08:32:39Z</time>
      </trkpt>
      <trkpt lat="38.2893740" lon="-3.6473960">
        <ele>457.6</ele>
        <time>2018-06-16T08:32:40Z</time>
      </trkpt>
      <trkpt lat="38.2893540" lon="-3.6474350">
        <ele>457.8</ele>
        <time>2018-06-16T08:32:41Z</time>
      </trkpt>
      <trkpt lat="38.2893470" lon="-3.6474480">
        <ele>458.0</ele>
        <time>2018-06-16T08:32:42Z</time>
      </trkpt>
      <trkpt lat="38.2893330" lon="-3.6474740">
        <ele>458.6</ele>
        <time>2018-06-16T08:32:43Z</time>
      </trkpt>
      <trkpt lat="38.2893210" lon="-3.6474980">
        <ele>458.4</ele>
        <time>2018-06-16T08:32:44Z</time>
      </trkpt>
      <trkpt lat="38.2893080" lon="-3.6475240">
        <ele>458.6</ele>
        <time>2018-06-16T08:32:45Z</time>
      </trkpt>
      <trkpt lat="38.2892980" lon="-3.6475470">
        <ele>458.8</ele>
        <time>2018-06-16T08:32:46Z</time>
      </trkpt>
      <trkpt lat="38.2892830" lon="-3.6475720">
        <ele>459.0</ele>
        <time>2018-06-16T08:32:47Z</time>
      </trkpt>
      <trkpt lat="38.2892690" lon="-3.6475970">
        <ele>459.2</ele>
        <time>2018-06-16T08:32:48Z</time>
      </trkpt>
      <trkpt lat="38.2892550" lon="-3.6476230">
        <ele>459.4</ele>
        <time>2018-06-16T08:32:49Z</time>
      </trkpt>
      <trkpt lat="38.2892410" lon="-3.6476470">
        <ele>459.6</ele>
        <time>2018-06-16T08:32:50Z</time>
      </trkpt>
      <trkpt lat="38.2892270" lon="-3.6476710">
        <ele>459.8</ele>
        <time>2018-06-16T08:32:51Z</time>
      </trkpt>
      <trkpt lat="38.2892150" lon="-3.6476960">
        <ele>460.0</ele>
        <time>2018-06-16T08:32:52Z</time>
      </trkpt>
      <trkpt lat="38.2892020" lon="-3.6477220">
        <ele>460.0</ele>
        <time>2018-06-16T08:32:53Z</time>
      </trkpt>
      <trkpt lat="38.2891770" lon="-3.6477720">
        <ele>460.2</ele>
        <time>2018-06-16T08:32:54Z</time>
      </trkpt>
      <trkpt lat="38.2891620" lon="-3.6477980">
        <ele>460.6</ele>
        <time>2018-06-16T08:32:55Z</time>
      </trkpt>
      <trkpt lat="38.2891420" lon="-3.6478360">
        <ele>460.6</ele>
        <time>2018-06-16T08:32:57Z</time>
      </trkpt>
      <trkpt lat="38.2891360" lon="-3.6478490">
        <ele>460.8</ele>
        <time>2018-06-16T08:32:58Z</time>
      </trkpt>
      <trkpt lat="38.2891240" lon="-3.6478740">
        <ele>460.8</ele>
        <time>2018-06-16T08:32:59Z</time>
      </trkpt>
      <trkpt lat="38.2891060" lon="-3.6479120">
        <ele>461.0</ele>
        <time>2018-06-16T08:33:00Z</time>
      </trkpt>
      <trkpt lat="38.2891000" lon="-3.6479250">
        <ele>461.2</ele>
        <time>2018-06-16T08:33:01Z</time>
      </trkpt>
      <trkpt lat="38.2890860" lon="-3.6479490">
        <ele>461.4</ele>
        <time>2018-06-16T08:33:02Z</time>
      </trkpt>
      <trkpt lat="38.2890730" lon="-3.6479740">
        <ele>461.6</ele>
        <time>2018-06-16T08:33:03Z</time>
      </trkpt>
      <trkpt lat="38.2890590" lon="-3.6479960">
        <ele>461.6</ele>
        <time>2018-06-16T08:33:04Z</time>
      </trkpt>
      <trkpt lat="38.2890440" lon="-3.6480170">
        <ele>461.8</ele>
        <time>2018-06-16T08:33:05Z</time>
      </trkpt>
      <trkpt lat="38.2890280" lon="-3.6480440">
        <ele>462.0</ele>
        <time>2018-06-16T08:33:06Z</time>
      </trkpt>
      <trkpt lat="38.2890140" lon="-3.6480690">
        <ele>462.0</ele>
        <time>2018-06-16T08:33:07Z</time>
      </trkpt>
      <trkpt lat="38.2889990" lon="-3.6480940">
        <ele>462.2</ele>
        <time>2018-06-16T08:33:08Z</time>
      </trkpt>
      <trkpt lat="38.2889810" lon="-3.6481160">
        <ele>462.2</ele>
        <time>2018-06-16T08:33:09Z</time>
      </trkpt>
      <trkpt lat="38.2889630" lon="-3.6481370">
        <ele>462.2</ele>
        <time>2018-06-16T08:33:10Z</time>
      </trkpt>
      <trkpt lat="38.2889460" lon="-3.6481590">
        <ele>462.4</ele>
        <time>2018-06-16T08:33:11Z</time>
      </trkpt>
      <trkpt lat="38.2889300" lon="-3.6481800">
        <ele>462.6</ele>
        <time>2018-06-16T08:33:12Z</time>
      </trkpt>
      <trkpt lat="38.2889110" lon="-3.6481990">
        <ele>462.6</ele>
        <time>2018-06-16T08:33:13Z</time>
      </trkpt>
      <trkpt lat="38.2888700" lon="-3.6482330">
        <ele>462.8</ele>
        <time>2018-06-16T08:33:14Z</time>
      </trkpt>
      <trkpt lat="38.2888500" lon="-3.6482480">
        <ele>463.0</ele>
        <time>2018-06-16T08:33:15Z</time>
      </trkpt>
      <trkpt lat="38.2888290" lon="-3.6482640">
        <ele>463.0</ele>
        <time>2018-06-16T08:33:17Z</time>
      </trkpt>
      <trkpt lat="38.2888070" lon="-3.6482790">
        <ele>463.2</ele>
        <time>2018-06-16T08:33:18Z</time>
      </trkpt>
      <trkpt lat="38.2887850" lon="-3.6482930">
        <ele>463.2</ele>
        <time>2018-06-16T08:33:19Z</time>
      </trkpt>
      <trkpt lat="38.2887520" lon="-3.6483090">
        <ele>463.2</ele>
        <time>2018-06-16T08:33:20Z</time>
      </trkpt>
      <trkpt lat="38.2887400" lon="-3.6483140">
        <ele>463.4</ele>
        <time>2018-06-16T08:33:21Z</time>
      </trkpt>
      <trkpt lat="38.2887160" lon="-3.6483240">
        <ele>463.4</ele>
        <time>2018-06-16T08:33:22Z</time>
      </trkpt>
      <trkpt lat="38.2886930" lon="-3.6483320">
        <ele>463.6</ele>
        <time>2018-06-16T08:33:23Z</time>
      </trkpt>
      <trkpt lat="38.2886700" lon="-3.6483420">
        <ele>463.6</ele>
        <time>2018-06-16T08:33:24Z</time>
      </trkpt>
      <trkpt lat="38.2886470" lon="-3.6483520">
        <ele>463.8</ele>
        <time>2018-06-16T08:33:25Z</time>
      </trkpt>
      <trkpt lat="38.2886140" lon="-3.6483690">
        <ele>464.0</ele>
        <time>2018-06-16T08:33:26Z</time>
      </trkpt>
      <trkpt lat="38.2886030" lon="-3.6483750">
        <ele>464.0</ele>
        <time>2018-06-16T08:33:27Z</time>
      </trkpt>
      <trkpt lat="38.2885790" lon="-3.6483860">
        <ele>464.2</ele>
        <time>2018-06-16T08:33:28Z</time>
      </trkpt>
      <trkpt lat="38.2885560" lon="-3.6483960">
        <ele>464.2</ele>
        <time>2018-06-16T08:33:29Z</time>
      </trkpt>
      <trkpt lat="38.2885350" lon="-3.6484050">
        <ele>464.4</ele>
        <time>2018-06-16T08:33:30Z</time>
      </trkpt>
      <trkpt lat="38.2885120" lon="-3.6484140">
        <ele>464.6</ele>
        <time>2018-06-16T08:33:31Z</time>
      </trkpt>
      <trkpt lat="38.2884910" lon="-3.6484270">
        <ele>464.6</ele>
        <time>2018-06-16T08:33:32Z</time>
      </trkpt>
      <trkpt lat="38.2884570" lon="-3.6484400">
        <ele>464.8</ele>
        <time>2018-06-16T08:33:33Z</time>
      </trkpt>
      <trkpt lat="38.2884450" lon="-3.6484430">
        <ele>464.8</ele>
        <time>2018-06-16T08:33:34Z</time>
      </trkpt>
      <trkpt lat="38.2884220" lon="-3.6484530">
        <ele>465.0</ele>
        <time>2018-06-16T08:33:35Z</time>
      </trkpt>
      <trkpt lat="38.2883990" lon="-3.6484640">
        <ele>465.2</ele>
        <time>2018-06-16T08:33:36Z</time>
      </trkpt>
      <trkpt lat="38.2883760" lon="-3.6484740">
        <ele>465.2</ele>
        <time>2018-06-16T08:33:37Z</time>
      </trkpt>
      <trkpt lat="38.2883520" lon="-3.6484840">
        <ele>465.4</ele>
        <time>2018-06-16T08:33:38Z</time>
      </trkpt>
      <trkpt lat="38.2883270" lon="-3.6484940">
        <ele>465.6</ele>
        <time>2018-06-16T08:33:39Z</time>
      </trkpt>
      <trkpt lat="38.2883040" lon="-3.6485060">
        <ele>465.6</ele>
        <time>2018-06-16T08:33:40Z</time>
      </trkpt>
      <trkpt lat="38.2882820" lon="-3.6485180">
        <ele>465.8</ele>
        <time>2018-06-16T08:33:41Z</time>
      </trkpt>
      <trkpt lat="38.2882390" lon="-3.6485410">
        <ele>466.0</ele>
        <time>2018-06-16T08:33:42Z</time>
      </trkpt>
      <trkpt lat="38.2882140" lon="-3.6485510">
        <ele>466.0</ele>
        <time>2018-06-16T08:33:44Z</time>
      </trkpt>
      <trkpt lat="38.2881930" lon="-3.6485610">
        <ele>466.2</ele>
        <time>2018-06-16T08:33:45Z</time>
      </trkpt>
      <trkpt lat="38.2881720" lon="-3.6485710">
        <ele>466.4</ele>
        <time>2018-06-16T08:33:46Z</time>
      </trkpt>
      <trkpt lat="38.2881400" lon="-3.6485850">
        <ele>466.6</ele>
        <time>2018-06-16T08:33:47Z</time>
      </trkpt>
      <trkpt lat="38.2881290" lon="-3.6485890">
        <ele>466.8</ele>
        <time>2018-06-16T08:33:48Z</time>
      </trkpt>
      <trkpt lat="38.2881080" lon="-3.6485980">
        <ele>467.0</ele>
        <time>2018-06-16T08:33:49Z</time>
      </trkpt>
      <trkpt lat="38.2880860" lon="-3.6486040">
        <ele>467.2</ele>
        <time>2018-06-16T08:33:50Z</time>
      </trkpt>
      <trkpt lat="38.2880640" lon="-3.6486070">
        <ele>467.4</ele>
        <time>2018-06-16T08:33:51Z</time>
      </trkpt>
      <trkpt lat="38.2880420" lon="-3.6486060">
        <ele>467.8</ele>
        <time>2018-06-16T08:33:52Z</time>
      </trkpt>
      <trkpt lat="38.2880190" lon="-3.6486050">
        <ele>468.0</ele>
        <time>2018-06-16T08:33:53Z</time>
      </trkpt>
      <trkpt lat="38.2879970" lon="-3.6486020">
        <ele>468.0</ele>
        <time>2018-06-16T08:33:54Z</time>
      </trkpt>
      <trkpt lat="38.2879750" lon="-3.6485960">
        <ele>468.2</ele>
        <time>2018-06-16T08:33:55Z</time>
      </trkpt>
      <trkpt lat="38.2879530" lon="-3.6485850">
        <ele>468.4</ele>
        <time>2018-06-16T08:33:56Z</time>
      </trkpt>
      <trkpt lat="38.2879330" lon="-3.6485710">
        <ele>468.6</ele>
        <time>2018-06-16T08:33:57Z</time>
      </trkpt>
      <trkpt lat="38.2879140" lon="-3.6485540">
        <ele>468.8</ele>
        <time>2018-06-16T08:33:58Z</time>
      </trkpt>
      <trkpt lat="38.2878950" lon="-3.6485350">
        <ele>469.0</ele>
        <time>2018-06-16T08:33:59Z</time>
      </trkpt>
      <trkpt lat="38.2878750" lon="-3.6485160">
        <ele>469.0</ele>
        <time>2018-06-16T08:34:00Z</time>
      </trkpt>
      <trkpt lat="38.2878560" lon="-3.6484960">
        <ele>469.2</ele>
        <time>2018-06-16T08:34:01Z</time>
      </trkpt>
      <trkpt lat="38.2878370" lon="-3.6484740">
        <ele>469.2</ele>
        <time>2018-06-16T08:34:02Z</time>
      </trkpt>
      <trkpt lat="38.2878210" lon="-3.6484530">
        <ele>469.4</ele>
        <time>2018-06-16T08:34:03Z</time>
      </trkpt>
      <trkpt lat="38.2878060" lon="-3.6484330">
        <ele>469.4</ele>
        <time>2018-06-16T08:34:04Z</time>
      </trkpt>
      <trkpt lat="38.2877810" lon="-3.6483840">
        <ele>469.8</ele>
        <time>2018-06-16T08:34:05Z</time>
      </trkpt>
      <trkpt lat="38.2877700" lon="-3.6483580">
        <ele>470.0</ele>
        <time>2018-06-16T08:34:07Z</time>
      </trkpt>
      <trkpt lat="38.2877520" lon="-3.6483190">
        <ele>470.0</ele>
        <time>2018-06-16T08:34:08Z</time>
      </trkpt>
      <trkpt lat="38.2877460" lon="-3.6483050">
        <ele>470.2</ele>
        <time>2018-06-16T08:34:09Z</time>
      </trkpt>
      <trkpt lat="38.2877360" lon="-3.6482760">
        <ele>470.4</ele>
        <time>2018-06-16T08:34:10Z</time>
      </trkpt>
      <trkpt lat="38.2877240" lon="-3.6482470">
        <ele>470.8</ele>
        <time>2018-06-16T08:34:11Z</time>
      </trkpt>
      <trkpt lat="38.2877130" lon="-3.6482210">
        <ele>470.8</ele>
        <time>2018-06-16T08:34:12Z</time>
      </trkpt>
      <trkpt lat="38.2877020" lon="-3.6481930">
        <ele>471.0</ele>
        <time>2018-06-16T08:34:13Z</time>
      </trkpt>
      <trkpt lat="38.2876910" lon="-3.6481650">
        <ele>471.2</ele>
        <time>2018-06-16T08:34:14Z</time>
      </trkpt>
      <trkpt lat="38.2876800" lon="-3.6481380">
        <ele>471.2</ele>
        <time>2018-06-16T08:34:15Z</time>
      </trkpt>
      <trkpt lat="38.2876700" lon="-3.6481110">
        <ele>471.4</ele>
        <time>2018-06-16T08:34:16Z</time>
      </trkpt>
      <trkpt lat="38.2876600" lon="-3.6480830">
        <ele>471.6</ele>
        <time>2018-06-16T08:34:17Z</time>
      </trkpt>
      <trkpt lat="38.2876490" lon="-3.6480550">
        <ele>471.8</ele>
        <time>2018-06-16T08:34:18Z</time>
      </trkpt>
      <trkpt lat="38.2876380" lon="-3.6480250">
        <ele>472.0</ele>
        <time>2018-06-16T08:34:19Z</time>
      </trkpt>
      <trkpt lat="38.2876290" lon="-3.6479960">
        <ele>472.0</ele>
        <time>2018-06-16T08:34:20Z</time>
      </trkpt>
      <trkpt lat="38.2876180" lon="-3.6479680">
        <ele>472.2</ele>
        <time>2018-06-16T08:34:21Z</time>
      </trkpt>
      <trkpt lat="38.2876070" lon="-3.6479430">
        <ele>472.4</ele>
        <time>2018-06-16T08:34:22Z</time>
      </trkpt>
      <trkpt lat="38.2875960" lon="-3.6479180">
        <ele>472.4</ele>
        <time>2018-06-16T08:34:23Z</time>
      </trkpt>
      <trkpt lat="38.2875860" lon="-3.6478920">
        <ele>472.8</ele>
        <time>2018-06-16T08:34:24Z</time>
      </trkpt>
      <trkpt lat="38.2875760" lon="-3.6478660">
        <ele>472.8</ele>
        <time>2018-06-16T08:34:25Z</time>
      </trkpt>
      <trkpt lat="38.2875650" lon="-3.6478390">
        <ele>473.0</ele>
        <time>2018-06-16T08:34:26Z</time>
      </trkpt>
      <trkpt lat="38.2875530" lon="-3.6478100">
        <ele>473.2</ele>
        <time>2018-06-16T08:34:27Z</time>
      </trkpt>
      <trkpt lat="38.2875420" lon="-3.6477820">
        <ele>473.2</ele>
        <time>2018-06-16T08:34:28Z</time>
      </trkpt>
      <trkpt lat="38.2875300" lon="-3.6477540">
        <ele>473.4</ele>
        <time>2018-06-16T08:34:29Z</time>
      </trkpt>
      <trkpt lat="38.2875180" lon="-3.6477260">
        <ele>473.6</ele>
        <time>2018-06-16T08:34:30Z</time>
      </trkpt>
      <trkpt lat="38.2875060" lon="-3.6477030">
        <ele>473.8</ele>
        <time>2018-06-16T08:34:31Z</time>
      </trkpt>
      <trkpt lat="38.2874920" lon="-3.6476800">
        <ele>474.0</ele>
        <time>2018-06-16T08:34:32Z</time>
      </trkpt>
      <trkpt lat="38.2874790" lon="-3.6476570">
        <ele>474.2</ele>
        <time>2018-06-16T08:34:33Z</time>
      </trkpt>
      <trkpt lat="38.2874630" lon="-3.6476380">
        <ele>474.2</ele>
        <time>2018-06-16T08:34:34Z</time>
      </trkpt>
      <trkpt lat="38.2874460" lon="-3.6476180">
        <ele>474.4</ele>
        <time>2018-06-16T08:34:35Z</time>
      </trkpt>
      <trkpt lat="38.2874270" lon="-3.6475990">
        <ele>474.6</ele>
        <time>2018-06-16T08:34:36Z</time>
      </trkpt>
      <trkpt lat="38.2874080" lon="-3.6475810">
        <ele>474.8</ele>
        <time>2018-06-16T08:34:37Z</time>
      </trkpt>
      <trkpt lat="38.2873890" lon="-3.6475680">
        <ele>474.8</ele>
        <time>2018-06-16T08:34:38Z</time>
      </trkpt>
      <trkpt lat="38.2873680" lon="-3.6475550">
        <ele>475.2</ele>
        <time>2018-06-16T08:34:39Z</time>
      </trkpt>
      <trkpt lat="38.2873450" lon="-3.6475420">
        <ele>475.2</ele>
        <time>2018-06-16T08:34:40Z</time>
      </trkpt>
      <trkpt lat="38.2873210" lon="-3.6475310">
        <ele>475.4</ele>
        <time>2018-06-16T08:34:41Z</time>
      </trkpt>
      <trkpt lat="38.2872970" lon="-3.6475220">
        <ele>475.6</ele>
        <time>2018-06-16T08:34:42Z</time>
      </trkpt>
      <trkpt lat="38.2872740" lon="-3.6475150">
        <ele>475.6</ele>
        <time>2018-06-16T08:34:43Z</time>
      </trkpt>
      <trkpt lat="38.2872510" lon="-3.6475120">
        <ele>475.8</ele>
        <time>2018-06-16T08:34:44Z</time>
      </trkpt>
      <trkpt lat="38.2872310" lon="-3.6475130">
        <ele>476.0</ele>
        <time>2018-06-16T08:34:45Z</time>
      </trkpt>
      <trkpt lat="38.2872080" lon="-3.6475150">
        <ele>476.2</ele>
        <time>2018-06-16T08:34:46Z</time>
      </trkpt>
      <trkpt lat="38.2871830" lon="-3.6475200">
        <ele>476.2</ele>
        <time>2018-06-16T08:34:47Z</time>
      </trkpt>
      <trkpt lat="38.2871490" lon="-3.6475290">
        <ele>476.4</ele>
        <time>2018-06-16T08:34:48Z</time>
      </trkpt>
      <trkpt lat="38.2871380" lon="-3.6475320">
        <ele>476.6</ele>
        <time>2018-06-16T08:34:49Z</time>
      </trkpt>
      <trkpt lat="38.2871170" lon="-3.6475420">
        <ele>476.8</ele>
        <time>2018-06-16T08:34:50Z</time>
      </trkpt>
      <trkpt lat="38.2870960" lon="-3.6475530">
        <ele>477.0</ele>
        <time>2018-06-16T08:34:51Z</time>
      </trkpt>
      <trkpt lat="38.2870770" lon="-3.6475650">
        <ele>477.2</ele>
        <time>2018-06-16T08:34:52Z</time>
      </trkpt>
      <trkpt lat="38.2870590" lon="-3.6475760">
        <ele>477.2</ele>
        <time>2018-06-16T08:34:53Z</time>
      </trkpt>
      <trkpt lat="38.2870400" lon="-3.6475870">
        <ele>477.4</ele>
        <time>2018-06-16T08:34:54Z</time>
      </trkpt>
      <trkpt lat="38.2870220" lon="-3.6475950">
        <ele>477.8</ele>
        <time>2018-06-16T08:34:55Z</time>
      </trkpt>
      <trkpt lat="38.2869980" lon="-3.6476020">
        <ele>477.8</ele>
        <time>2018-06-16T08:34:56Z</time>
      </trkpt>
      <trkpt lat="38.2869750" lon="-3.6476110">
        <ele>478.0</ele>
        <time>2018-06-16T08:34:57Z</time>
      </trkpt>
      <trkpt lat="38.2869510" lon="-3.6476180">
        <ele>478.2</ele>
        <time>2018-06-16T08:34:58Z</time>
      </trkpt>
      <trkpt lat="38.2869290" lon="-3.6476280">
        <ele>478.4</ele>
        <time>2018-06-16T08:34:59Z</time>
      </trkpt>
      <trkpt lat="38.2869080" lon="-3.6476390">
        <ele>478.6</ele>
        <time>2018-06-16T08:35:00Z</time>
      </trkpt>
      <trkpt lat="38.2868870" lon="-3.6476490">
        <ele>478.6</ele>
        <time>2018-06-16T08:35:01Z</time>
      </trkpt>
      <trkpt lat="38.2868670" lon="-3.6476610">
        <ele>478.8</ele>
        <time>2018-06-16T08:35:02Z</time>
      </trkpt>
      <trkpt lat="38.2868460" lon="-3.6476740">
        <ele>479.0</ele>
        <time>2018-06-16T08:35:03Z</time>
      </trkpt>
      <trkpt lat="38.2868220" lon="-3.6476850">
        <ele>479.2</ele>
        <time>2018-06-16T08:35:04Z</time>
      </trkpt>
      <trkpt lat="38.2867990" lon="-3.6476940">
        <ele>479.2</ele>
        <time>2018-06-16T08:35:05Z</time>
      </trkpt>
      <trkpt lat="38.2867750" lon="-3.6477040">
        <ele>479.4</ele>
        <time>2018-06-16T08:35:06Z</time>
      </trkpt>
      <trkpt lat="38.2867530" lon="-3.6477160">
        <ele>479.6</ele>
        <time>2018-06-16T08:35:07Z</time>
      </trkpt>
      <trkpt lat="38.2867320" lon="-3.6477280">
        <ele>479.8</ele>
        <time>2018-06-16T08:35:08Z</time>
      </trkpt>
      <trkpt lat="38.2867100" lon="-3.6477400">
        <ele>480.0</ele>
        <time>2018-06-16T08:35:09Z</time>
      </trkpt>
      <trkpt lat="38.2866860" lon="-3.6477520">
        <ele>480.2</ele>
        <time>2018-06-16T08:35:10Z</time>
      </trkpt>
      <trkpt lat="38.2866650" lon="-3.6477650">
        <ele>480.4</ele>
        <time>2018-06-16T08:35:11Z</time>
      </trkpt>
      <trkpt lat="38.2866450" lon="-3.6477760">
        <ele>480.4</ele>
        <time>2018-06-16T08:35:12Z</time>
      </trkpt>
      <trkpt lat="38.2866220" lon="-3.6477880">
        <ele>480.6</ele>
        <time>2018-06-16T08:35:13Z</time>
      </trkpt>
      <trkpt lat="38.2866020" lon="-3.6477990">
        <ele>480.8</ele>
        <time>2018-06-16T08:35:14Z</time>
      </trkpt>
      <trkpt lat="38.2865790" lon="-3.6478110">
        <ele>481.0</ele>
        <time>2018-06-16T08:35:15Z</time>
      </trkpt>
      <trkpt lat="38.2865570" lon="-3.6478230">
        <ele>481.2</ele>
        <time>2018-06-16T08:35:16Z</time>
      </trkpt>
      <trkpt lat="38.2865350" lon="-3.6478350">
        <ele>481.4</ele>
        <time>2018-06-16T08:35:17Z</time>
      </trkpt>
      <trkpt lat="38.2865130" lon="-3.6478460">
        <ele>481.4</ele>
        <time>2018-06-16T08:35:18Z</time>
      </trkpt>
      <trkpt lat="38.2864890" lon="-3.6478560">
        <ele>481.6</ele>
        <time>2018-06-16T08:35:19Z</time>
      </trkpt>
      <trkpt lat="38.2864670" lon="-3.6478660">
        <ele>481.8</ele>
        <time>2018-06-16T08:35:20Z</time>
      </trkpt>
      <trkpt lat="38.2864460" lon="-3.6478770">
        <ele>482.0</ele>
        <time>2018-06-16T08:35:21Z</time>
      </trkpt>
      <trkpt lat="38.2864230" lon="-3.6478880">
        <ele>482.2</ele>
        <time>2018-06-16T08:35:22Z</time>
      </trkpt>
      <trkpt lat="38.2864010" lon="-3.6478990">
        <ele>482.4</ele>
        <time>2018-06-16T08:35:23Z</time>
      </trkpt>
      <trkpt lat="38.2863810" lon="-3.6479090">
        <ele>482.6</ele>
        <time>2018-06-16T08:35:24Z</time>
      </trkpt>
      <trkpt lat="38.2863590" lon="-3.6479210">
        <ele>482.8</ele>
        <time>2018-06-16T08:35:25Z</time>
      </trkpt>
      <trkpt lat="38.2863370" lon="-3.6479330">
        <ele>483.0</ele>
        <time>2018-06-16T08:35:26Z</time>
      </trkpt>
      <trkpt lat="38.2863120" lon="-3.6479420">
        <ele>483.2</ele>
        <time>2018-06-16T08:35:27Z</time>
      </trkpt>
      <trkpt lat="38.2862910" lon="-3.6479530">
        <ele>483.4</ele>
        <time>2018-06-16T08:35:28Z</time>
      </trkpt>
      <trkpt lat="38.2862700" lon="-3.6479640">
        <ele>483.4</ele>
        <time>2018-06-16T08:35:29Z</time>
      </trkpt>
      <trkpt lat="38.2862490" lon="-3.6479770">
        <ele>483.6</ele>
        <time>2018-06-16T08:35:30Z</time>
      </trkpt>
      <trkpt lat="38.2862280" lon="-3.6479890">
        <ele>483.8</ele>
        <time>2018-06-16T08:35:31Z</time>
      </trkpt>
      <trkpt lat="38.2862050" lon="-3.6480000">
        <ele>484.0</ele>
        <time>2018-06-16T08:35:32Z</time>
      </trkpt>
      <trkpt lat="38.2861790" lon="-3.6480110">
        <ele>484.0</ele>
        <time>2018-06-16T08:35:33Z</time>
      </trkpt>
      <trkpt lat="38.2861570" lon="-3.6480230">
        <ele>484.2</ele>
        <time>2018-06-16T08:35:34Z</time>
      </trkpt>
      <trkpt lat="38.2861360" lon="-3.6480350">
        <ele>484.4</ele>
        <time>2018-06-16T08:35:35Z</time>
      </trkpt>
      <trkpt lat="38.2861150" lon="-3.6480430">
        <ele>484.6</ele>
        <time>2018-06-16T08:35:36Z</time>
      </trkpt>
      <trkpt lat="38.2860930" lon="-3.6480510">
        <ele>484.8</ele>
        <time>2018-06-16T08:35:37Z</time>
      </trkpt>
      <trkpt lat="38.2860720" lon="-3.6480600">
        <ele>485.0</ele>
        <time>2018-06-16T08:35:38Z</time>
      </trkpt>
      <trkpt lat="38.2860510" lon="-3.6480680">
        <ele>485.0</ele>
        <time>2018-06-16T08:35:39Z</time>
      </trkpt>
      <trkpt lat="38.2860300" lon="-3.6480750">
        <ele>485.2</ele>
        <time>2018-06-16T08:35:40Z</time>
      </trkpt>
      <trkpt lat="38.2860080" lon="-3.6480800">
        <ele>485.4</ele>
        <time>2018-06-16T08:35:41Z</time>
      </trkpt>
      <trkpt lat="38.2859840" lon="-3.6480840">
        <ele>485.6</ele>
        <time>2018-06-16T08:35:42Z</time>
      </trkpt>
      <trkpt lat="38.2859590" lon="-3.6480870">
        <ele>485.6</ele>
        <time>2018-06-16T08:35:43Z</time>
      </trkpt>
      <trkpt lat="38.2859330" lon="-3.6480900">
        <ele>486.0</ele>
        <time>2018-06-16T08:35:44Z</time>
      </trkpt>
      <trkpt lat="38.2859100" lon="-3.6480930">
        <ele>485.8</ele>
        <time>2018-06-16T08:35:45Z</time>
      </trkpt>
      <trkpt lat="38.2858860" lon="-3.6480980">
        <ele>486.0</ele>
        <time>2018-06-16T08:35:46Z</time>
      </trkpt>
      <trkpt lat="38.2858650" lon="-3.6481010">
        <ele>486.2</ele>
        <time>2018-06-16T08:35:47Z</time>
      </trkpt>
      <trkpt lat="38.2858430" lon="-3.6481030">
        <ele>486.4</ele>
        <time>2018-06-16T08:35:48Z</time>
      </trkpt>
      <trkpt lat="38.2858230" lon="-3.6481060">
        <ele>486.4</ele>
        <time>2018-06-16T08:35:49Z</time>
      </trkpt>
      <trkpt lat="38.2858020" lon="-3.6481080">
        <ele>486.6</ele>
        <time>2018-06-16T08:35:50Z</time>
      </trkpt>
      <trkpt lat="38.2857780" lon="-3.6481120">
        <ele>486.8</ele>
        <time>2018-06-16T08:35:51Z</time>
      </trkpt>
      <trkpt lat="38.2857510" lon="-3.6481160">
        <ele>487.0</ele>
        <time>2018-06-16T08:35:52Z</time>
      </trkpt>
      <trkpt lat="38.2857290" lon="-3.6481190">
        <ele>487.2</ele>
        <time>2018-06-16T08:35:53Z</time>
      </trkpt>
      <trkpt lat="38.2857050" lon="-3.6481240">
        <ele>487.2</ele>
        <time>2018-06-16T08:35:54Z</time>
      </trkpt>
      <trkpt lat="38.2856820" lon="-3.6481290">
        <ele>487.4</ele>
        <time>2018-06-16T08:35:55Z</time>
      </trkpt>
      <trkpt lat="38.2856460" lon="-3.6481360">
        <ele>487.6</ele>
        <time>2018-06-16T08:35:56Z</time>
      </trkpt>
      <trkpt lat="38.2856330" lon="-3.6481380">
        <ele>487.8</ele>
        <time>2018-06-16T08:35:57Z</time>
      </trkpt>
      <trkpt lat="38.2856090" lon="-3.6481450">
        <ele>488.0</ele>
        <time>2018-06-16T08:35:58Z</time>
      </trkpt>
      <trkpt lat="38.2855860" lon="-3.6481500">
        <ele>488.0</ele>
        <time>2018-06-16T08:35:59Z</time>
      </trkpt>
      <trkpt lat="38.2855630" lon="-3.6481560">
        <ele>488.2</ele>
        <time>2018-06-16T08:36:00Z</time>
      </trkpt>
      <trkpt lat="38.2855440" lon="-3.6481640">
        <ele>488.4</ele>
        <time>2018-06-16T08:36:01Z</time>
      </trkpt>
      <trkpt lat="38.2855220" lon="-3.6481750">
        <ele>488.6</ele>
        <time>2018-06-16T08:36:02Z</time>
      </trkpt>
      <trkpt lat="38.2854990" lon="-3.6481850">
        <ele>488.8</ele>
        <time>2018-06-16T08:36:03Z</time>
      </trkpt>
      <trkpt lat="38.2854760" lon="-3.6481950">
        <ele>489.0</ele>
        <time>2018-06-16T08:36:04Z</time>
      </trkpt>
      <trkpt lat="38.2854550" lon="-3.6482050">
        <ele>489.0</ele>
        <time>2018-06-16T08:36:05Z</time>
      </trkpt>
      <trkpt lat="38.2854340" lon="-3.6482140">
        <ele>489.2</ele>
        <time>2018-06-16T08:36:06Z</time>
      </trkpt>
      <trkpt lat="38.2854120" lon="-3.6482260">
        <ele>489.4</ele>
        <time>2018-06-16T08:36:07Z</time>
      </trkpt>
      <trkpt lat="38.2853810" lon="-3.6482430">
        <ele>489.6</ele>
        <time>2018-06-16T08:36:08Z</time>
      </trkpt>
      <trkpt lat="38.2853700" lon="-3.6482480">
        <ele>489.8</ele>
        <time>2018-06-16T08:36:09Z</time>
      </trkpt>
      <trkpt lat="38.2853490" lon="-3.6482590">
        <ele>489.8</ele>
        <time>2018-06-16T08:36:10Z</time>
      </trkpt>
      <trkpt lat="38.2853280" lon="-3.6482690">
        <ele>490.0</ele>
        <time>2018-06-16T08:36:11Z</time>
      </trkpt>
      <trkpt lat="38.2853060" lon="-3.6482810">
        <ele>490.0</ele>
        <time>2018-06-16T08:36:12Z</time>
      </trkpt>
      <trkpt lat="38.2852840" lon="-3.6482930">
        <ele>490.2</ele>
        <time>2018-06-16T08:36:13Z</time>
      </trkpt>
      <trkpt lat="38.2852610" lon="-3.6483030">
        <ele>490.4</ele>
        <time>2018-06-16T08:36:14Z</time>
      </trkpt>
      <trkpt lat="38.2852380" lon="-3.6483130">
        <ele>490.6</ele>
        <time>2018-06-16T08:36:15Z</time>
      </trkpt>
      <trkpt lat="38.2852170" lon="-3.6483210">
        <ele>490.8</ele>
        <time>2018-06-16T08:36:16Z</time>
      </trkpt>
      <trkpt lat="38.2851970" lon="-3.6483310">
        <ele>491.0</ele>
        <time>2018-06-16T08:36:17Z</time>
      </trkpt>
      <trkpt lat="38.2851760" lon="-3.6483420">
        <ele>491.2</ele>
        <time>2018-06-16T08:36:18Z</time>
      </trkpt>
      <trkpt lat="38.2851570" lon="-3.6483530">
        <ele>491.2</ele>
        <time>2018-06-16T08:36:19Z</time>
      </trkpt>
      <trkpt lat="38.2851370" lon="-3.6483660">
        <ele>491.4</ele>
        <time>2018-06-16T08:36:20Z</time>
      </trkpt>
      <trkpt lat="38.2851150" lon="-3.6483780">
        <ele>491.6</ele>
        <time>2018-06-16T08:36:21Z</time>
      </trkpt>
      <trkpt lat="38.2850950" lon="-3.6483870">
        <ele>491.8</ele>
        <time>2018-06-16T08:36:22Z</time>
      </trkpt>
      <trkpt lat="38.2850730" lon="-3.6483970">
        <ele>492.0</ele>
        <time>2018-06-16T08:36:23Z</time>
      </trkpt>
      <trkpt lat="38.2850520" lon="-3.6484080">
        <ele>492.2</ele>
        <time>2018-06-16T08:36:24Z</time>
      </trkpt>
      <trkpt lat="38.2850310" lon="-3.6484180">
        <ele>492.2</ele>
        <time>2018-06-16T08:36:25Z</time>
      </trkpt>
      <trkpt lat="38.2850090" lon="-3.6484280">
        <ele>492.6</ele>
        <time>2018-06-16T08:36:26Z</time>
      </trkpt>
      <trkpt lat="38.2849860" lon="-3.6484360">
        <ele>492.6</ele>
        <time>2018-06-16T08:36:27Z</time>
      </trkpt>
      <trkpt lat="38.2849630" lon="-3.6484410">
        <ele>492.8</ele>
        <time>2018-06-16T08:36:28Z</time>
      </trkpt>
      <trkpt lat="38.2849400" lon="-3.6484480">
        <ele>493.0</ele>
        <time>2018-06-16T08:36:29Z</time>
      </trkpt>
      <trkpt lat="38.2849170" lon="-3.6484560">
        <ele>493.2</ele>
        <time>2018-06-16T08:36:30Z</time>
      </trkpt>
      <trkpt lat="38.2848940" lon="-3.6484610">
        <ele>493.2</ele>
        <time>2018-06-16T08:36:31Z</time>
      </trkpt>
      <trkpt lat="38.2848700" lon="-3.6484650">
        <ele>493.2</ele>
        <time>2018-06-16T08:36:32Z</time>
      </trkpt>
      <trkpt lat="38.2848450" lon="-3.6484680">
        <ele>493.6</ele>
        <time>2018-06-16T08:36:33Z</time>
      </trkpt>
      <trkpt lat="38.2848240" lon="-3.6484690">
        <ele>493.8</ele>
        <time>2018-06-16T08:36:34Z</time>
      </trkpt>
      <trkpt lat="38.2848010" lon="-3.6484710">
        <ele>493.8</ele>
        <time>2018-06-16T08:36:35Z</time>
      </trkpt>
      <trkpt lat="38.2847690" lon="-3.6484710">
        <ele>494.0</ele>
        <time>2018-06-16T08:36:36Z</time>
      </trkpt>
      <trkpt lat="38.2847570" lon="-3.6484700">
        <ele>494.0</ele>
        <time>2018-06-16T08:36:37Z</time>
      </trkpt>
      <trkpt lat="38.2847350" lon="-3.6484660">
        <ele>494.4</ele>
        <time>2018-06-16T08:36:38Z</time>
      </trkpt>
      <trkpt lat="38.2847120" lon="-3.6484640">
        <ele>494.4</ele>
        <time>2018-06-16T08:36:39Z</time>
      </trkpt>
      <trkpt lat="38.2846870" lon="-3.6484600">
        <ele>494.6</ele>
        <time>2018-06-16T08:36:40Z</time>
      </trkpt>
      <trkpt lat="38.2846650" lon="-3.6484510">
        <ele>494.8</ele>
        <time>2018-06-16T08:36:41Z</time>
      </trkpt>
      <trkpt lat="38.2846420" lon="-3.6484420">
        <ele>495.0</ele>
        <time>2018-06-16T08:36:42Z</time>
      </trkpt>
      <trkpt lat="38.2846210" lon="-3.6484320">
        <ele>495.0</ele>
        <time>2018-06-16T08:36:43Z</time>
      </trkpt>
      <trkpt lat="38.2846000" lon="-3.6484230">
        <ele>495.4</ele>
        <time>2018-06-16T08:36:44Z</time>
      </trkpt>
      <trkpt lat="38.2845820" lon="-3.6484130">
        <ele>495.4</ele>
        <time>2018-06-16T08:36:45Z</time>
      </trkpt>
      <trkpt lat="38.2845610" lon="-3.6484010">
        <ele>495.4</ele>
        <time>2018-06-16T08:36:46Z</time>
      </trkpt>
      <trkpt lat="38.2845400" lon="-3.6483880">
        <ele>495.6</ele>
        <time>2018-06-16T08:36:47Z</time>
      </trkpt>
      <trkpt lat="38.2845200" lon="-3.6483750">
        <ele>495.8</ele>
        <time>2018-06-16T08:36:48Z</time>
      </trkpt>
      <trkpt lat="38.2844980" lon="-3.6483610">
        <ele>496.0</ele>
        <time>2018-06-16T08:36:49Z</time>
      </trkpt>
      <trkpt lat="38.2844770" lon="-3.6483480">
        <ele>496.2</ele>
        <time>2018-06-16T08:36:50Z</time>
      </trkpt>
      <trkpt lat="38.2844540" lon="-3.6483360">
        <ele>496.2</ele>
        <time>2018-06-16T08:36:51Z</time>
      </trkpt>
      <trkpt lat="38.2844230" lon="-3.6483160">
        <ele>496.4</ele>
        <time>2018-06-16T08:36:52Z</time>
      </trkpt>
      <trkpt lat="38.2844130" lon="-3.6483100">
        <ele>496.8</ele>
        <time>2018-06-16T08:36:53Z</time>
      </trkpt>
      <trkpt lat="38.2843910" lon="-3.6482960">
        <ele>496.8</ele>
        <time>2018-06-16T08:36:54Z</time>
      </trkpt>
      <trkpt lat="38.2843690" lon="-3.6482820">
        <ele>497.0</ele>
        <time>2018-06-16T08:36:55Z</time>
      </trkpt>
      <trkpt lat="38.2843480" lon="-3.6482680">
        <ele>497.2</ele>
        <time>2018-06-16T08:36:56Z</time>
      </trkpt>
      <trkpt lat="38.2843260" lon="-3.6482560">
        <ele>497.2</ele>
        <time>2018-06-16T08:36:57Z</time>
      </trkpt>
      <trkpt lat="38.2842950" lon="-3.6482370">
        <ele>497.4</ele>
        <time>2018-06-16T08:36:58Z</time>
      </trkpt>
      <trkpt lat="38.2842840" lon="-3.6482310">
        <ele>497.6</ele>
        <time>2018-06-16T08:36:59Z</time>
      </trkpt>
      <trkpt lat="38.2842640" lon="-3.6482180">
        <ele>497.8</ele>
        <time>2018-06-16T08:37:00Z</time>
      </trkpt>
      <trkpt lat="38.2842450" lon="-3.6482060">
        <ele>498.0</ele>
        <time>2018-06-16T08:37:01Z</time>
      </trkpt>
      <trkpt lat="38.2842250" lon="-3.6481930">
        <ele>498.0</ele>
        <time>2018-06-16T08:37:02Z</time>
      </trkpt>
      <trkpt lat="38.2842030" lon="-3.6481790">
        <ele>498.4</ele>
        <time>2018-06-16T08:37:03Z</time>
      </trkpt>
      <trkpt lat="38.2841810" lon="-3.6481660">
        <ele>498.4</ele>
        <time>2018-06-16T08:37:04Z</time>
      </trkpt>
      <trkpt lat="38.2841610" lon="-3.6481530">
        <ele>498.6</ele>
        <time>2018-06-16T08:37:05Z</time>
      </trkpt>
      <trkpt lat="38.2841310" lon="-3.6481300">
        <ele>498.8</ele>
        <time>2018-06-16T08:37:06Z</time>
      </trkpt>
      <trkpt lat="38.2841210" lon="-3.6481220">
        <ele>499.2</ele>
        <time>2018-06-16T08:37:07Z</time>
      </trkpt>
      <trkpt lat="38.2841020" lon="-3.6481040">
        <ele>499.2</ele>
        <time>2018-06-16T08:37:08Z</time>
      </trkpt>
      <trkpt lat="38.2840830" lon="-3.6480880">
        <ele>499.6</ele>
        <time>2018-06-16T08:37:09Z</time>
      </trkpt>
      <trkpt lat="38.2840630" lon="-3.6480710">
        <ele>499.6</ele>
        <time>2018-06-16T08:37:10Z</time>
      </trkpt>
      <trkpt lat="38.2840460" lon="-3.6480500">
        <ele>499.8</ele>
        <time>2018-06-16T08:37:11Z</time>
      </trkpt>
      <trkpt lat="38.2840270" lon="-3.6480310">
        <ele>500.0</ele>
        <time>2018-06-16T08:37:12Z</time>
      </trkpt>
      <trkpt lat="38.2840070" lon="-3.6480130">
        <ele>500.2</ele>
        <time>2018-06-16T08:37:13Z</time>
      </trkpt>
      <trkpt lat="38.2839890" lon="-3.6479920">
        <ele>500.4</ele>
        <time>2018-06-16T08:37:14Z</time>
      </trkpt>
      <trkpt lat="38.2839720" lon="-3.6479700">
        <ele>500.4</ele>
        <time>2018-06-16T08:37:15Z</time>
      </trkpt>
      <trkpt lat="38.2839570" lon="-3.6479460">
        <ele>500.6</ele>
        <time>2018-06-16T08:37:16Z</time>
      </trkpt>
      <trkpt lat="38.2839410" lon="-3.6479200">
        <ele>501.0</ele>
        <time>2018-06-16T08:37:17Z</time>
      </trkpt>
      <trkpt lat="38.2839260" lon="-3.6478960">
        <ele>501.0</ele>
        <time>2018-06-16T08:37:18Z</time>
      </trkpt>
      <trkpt lat="38.2839110" lon="-3.6478720">
        <ele>501.2</ele>
        <time>2018-06-16T08:37:19Z</time>
      </trkpt>
      <trkpt lat="38.2838960" lon="-3.6478480">
        <ele>501.4</ele>
        <time>2018-06-16T08:37:20Z</time>
      </trkpt>
      <trkpt lat="38.2838790" lon="-3.6478080">
        <ele>501.6</ele>
        <time>2018-06-16T08:37:21Z</time>
      </trkpt>
      <trkpt lat="38.2838740" lon="-3.6477950">
        <ele>501.8</ele>
        <time>2018-06-16T08:37:22Z</time>
      </trkpt>
      <trkpt lat="38.2838650" lon="-3.6477680">
        <ele>501.8</ele>
        <time>2018-06-16T08:37:23Z</time>
      </trkpt>
      <trkpt lat="38.2838560" lon="-3.6477410">
        <ele>502.0</ele>
        <time>2018-06-16T08:37:24Z</time>
      </trkpt>
      <trkpt lat="38.2838470" lon="-3.6477120">
        <ele>502.2</ele>
        <time>2018-06-16T08:37:25Z</time>
      </trkpt>
      <trkpt lat="38.2838370" lon="-3.6476820">
        <ele>502.2</ele>
        <time>2018-06-16T08:37:26Z</time>
      </trkpt>
      <trkpt lat="38.2838270" lon="-3.6476540">
        <ele>502.4</ele>
        <time>2018-06-16T08:37:27Z</time>
      </trkpt>
      <trkpt lat="38.2838190" lon="-3.6476250">
        <ele>502.6</ele>
        <time>2018-06-16T08:37:28Z</time>
      </trkpt>
      <trkpt lat="38.2838120" lon="-3.6475980">
        <ele>502.8</ele>
        <time>2018-06-16T08:37:29Z</time>
      </trkpt>
      <trkpt lat="38.2838020" lon="-3.6475700">
        <ele>503.0</ele>
        <time>2018-06-16T08:37:30Z</time>
      </trkpt>
      <trkpt lat="38.2837920" lon="-3.6475440">
        <ele>503.2</ele>
        <time>2018-06-16T08:37:31Z</time>
      </trkpt>
      <trkpt lat="38.2837840" lon="-3.6475170">
        <ele>503.2</ele>
        <time>2018-06-16T08:37:32Z</time>
      </trkpt>
      <trkpt lat="38.2837740" lon="-3.6474880">
        <ele>503.4</ele>
        <time>2018-06-16T08:37:33Z</time>
      </trkpt>
      <trkpt lat="38.2837640" lon="-3.6474600">
        <ele>503.6</ele>
        <time>2018-06-16T08:37:34Z</time>
      </trkpt>
      <trkpt lat="38.2837560" lon="-3.6474320">
        <ele>503.6</ele>
        <time>2018-06-16T08:37:35Z</time>
      </trkpt>
      <trkpt lat="38.2837480" lon="-3.6474070">
        <ele>503.8</ele>
        <time>2018-06-16T08:37:36Z</time>
      </trkpt>
      <trkpt lat="38.2837390" lon="-3.6473810">
        <ele>504.0</ele>
        <time>2018-06-16T08:37:37Z</time>
      </trkpt>
      <trkpt lat="38.2837300" lon="-3.6473540">
        <ele>504.2</ele>
        <time>2018-06-16T08:37:38Z</time>
      </trkpt>
      <trkpt lat="38.2837210" lon="-3.6473300">
        <ele>504.2</ele>
        <time>2018-06-16T08:37:39Z</time>
      </trkpt>
      <trkpt lat="38.2837130" lon="-3.6473030">
        <ele>504.4</ele>
        <time>2018-06-16T08:37:40Z</time>
      </trkpt>
      <trkpt lat="38.2837070" lon="-3.6472790">
        <ele>504.4</ele>
        <time>2018-06-16T08:37:41Z</time>
      </trkpt>
      <trkpt lat="38.2837010" lon="-3.6472510">
        <ele>504.8</ele>
        <time>2018-06-16T08:37:42Z</time>
      </trkpt>
      <trkpt lat="38.2836910" lon="-3.6472230">
        <ele>504.8</ele>
        <time>2018-06-16T08:37:43Z</time>
      </trkpt>
      <trkpt lat="38.2836800" lon="-3.6472010">
        <ele>505.0</ele>
        <time>2018-06-16T08:37:44Z</time>
      </trkpt>
      <trkpt lat="38.2836690" lon="-3.6471700">
        <ele>505.2</ele>
        <time>2018-06-16T08:37:45Z</time>
      </trkpt>
      <trkpt lat="38.2836600" lon="-3.6471390">
        <ele>505.4</ele>
        <time>2018-06-16T08:37:46Z</time>
      </trkpt>
      <trkpt lat="38.2836520" lon="-3.6471110">
        <ele>505.6</ele>
        <time>2018-06-16T08:37:47Z</time>
      </trkpt>
      <trkpt lat="38.2836440" lon="-3.6470820">
        <ele>505.8</ele>
        <time>2018-06-16T08:37:48Z</time>
      </trkpt>
      <trkpt lat="38.2836320" lon="-3.6470560">
        <ele>505.8</ele>
        <time>2018-06-16T08:37:49Z</time>
      </trkpt>
      <trkpt lat="38.2836200" lon="-3.6470290">
        <ele>506.2</ele>
        <time>2018-06-16T08:37:50Z</time>
      </trkpt>
      <trkpt lat="38.2836110" lon="-3.6469990">
        <ele>506.4</ele>
        <time>2018-06-16T08:37:51Z</time>
      </trkpt>
      <trkpt lat="38.2836040" lon="-3.6469720">
        <ele>506.6</ele>
        <time>2018-06-16T08:37:52Z</time>
      </trkpt>
      <trkpt lat="38.2836000" lon="-3.6469440">
        <ele>506.6</ele>
        <time>2018-06-16T08:37:53Z</time>
      </trkpt>
      <trkpt lat="38.2835900" lon="-3.6469210">
        <ele>506.6</ele>
        <time>2018-06-16T08:37:54Z</time>
      </trkpt>
      <trkpt lat="38.2835770" lon="-3.6468970">
        <ele>506.8</ele>
        <time>2018-06-16T08:37:55Z</time>
      </trkpt>
      <trkpt lat="38.2835680" lon="-3.6468690">
        <ele>507.0</ele>
        <time>2018-06-16T08:37:56Z</time>
      </trkpt>
      <trkpt lat="38.2835560" lon="-3.6468380">
        <ele>507.2</ele>
        <time>2018-06-16T08:37:57Z</time>
      </trkpt>
      <trkpt lat="38.2835460" lon="-3.6468100">
        <ele>507.4</ele>
        <time>2018-06-16T08:37:58Z</time>
      </trkpt>
      <trkpt lat="38.2835360" lon="-3.6467820">
        <ele>507.4</ele>
        <time>2018-06-16T08:37:59Z</time>
      </trkpt>
      <trkpt lat="38.2835260" lon="-3.6467570">
        <ele>507.6</ele>
        <time>2018-06-16T08:38:00Z</time>
      </trkpt>
      <trkpt lat="38.2835130" lon="-3.6467270">
        <ele>507.8</ele>
        <time>2018-06-16T08:38:01Z</time>
      </trkpt>
      <trkpt lat="38.2835020" lon="-3.6466950">
        <ele>508.0</ele>
        <time>2018-06-16T08:38:02Z</time>
      </trkpt>
      <trkpt lat="38.2834930" lon="-3.6466600">
        <ele>508.0</ele>
        <time>2018-06-16T08:38:03Z</time>
      </trkpt>
      <trkpt lat="38.2834850" lon="-3.6466250">
        <ele>508.4</ele>
        <time>2018-06-16T08:38:04Z</time>
      </trkpt>
      <trkpt lat="38.2834770" lon="-3.6465930">
        <ele>508.4</ele>
        <time>2018-06-16T08:38:05Z</time>
      </trkpt>
      <trkpt lat="38.2834670" lon="-3.6465610">
        <ele>508.6</ele>
        <time>2018-06-16T08:38:06Z</time>
      </trkpt>
      <trkpt lat="38.2834580" lon="-3.6465170">
        <ele>508.8</ele>
        <time>2018-06-16T08:38:07Z</time>
      </trkpt>
      <trkpt lat="38.2834540" lon="-3.6465020">
        <ele>509.0</ele>
        <time>2018-06-16T08:38:08Z</time>
      </trkpt>
      <trkpt lat="38.2834460" lon="-3.6464690">
        <ele>509.2</ele>
        <time>2018-06-16T08:38:09Z</time>
      </trkpt>
      <trkpt lat="38.2834420" lon="-3.6464400">
        <ele>509.4</ele>
        <time>2018-06-16T08:38:10Z</time>
      </trkpt>
      <trkpt lat="38.2834360" lon="-3.6464080">
        <ele>509.6</ele>
        <time>2018-06-16T08:38:11Z</time>
      </trkpt>
      <trkpt lat="38.2834270" lon="-3.6463790">
        <ele>509.6</ele>
        <time>2018-06-16T08:38:12Z</time>
      </trkpt>
      <trkpt lat="38.2834180" lon="-3.6463520">
        <ele>510.0</ele>
        <time>2018-06-16T08:38:13Z</time>
      </trkpt>
      <trkpt lat="38.2834110" lon="-3.6463220">
        <ele>510.0</ele>
        <time>2018-06-16T08:38:14Z</time>
      </trkpt>
      <trkpt lat="38.2834050" lon="-3.6462870">
        <ele>510.2</ele>
        <time>2018-06-16T08:38:15Z</time>
      </trkpt>
      <trkpt lat="38.2834060" lon="-3.6462550">
        <ele>510.2</ele>
        <time>2018-06-16T08:38:16Z</time>
      </trkpt>
      <trkpt lat="38.2834060" lon="-3.6462210">
        <ele>510.6</ele>
        <time>2018-06-16T08:38:17Z</time>
      </trkpt>
      <trkpt lat="38.2834020" lon="-3.6461870">
        <ele>510.6</ele>
        <time>2018-06-16T08:38:18Z</time>
      </trkpt>
      <trkpt lat="38.2833960" lon="-3.6461550">
        <ele>510.8</ele>
        <time>2018-06-16T08:38:19Z</time>
      </trkpt>
      <trkpt lat="38.2833920" lon="-3.6461230">
        <ele>511.0</ele>
        <time>2018-06-16T08:38:20Z</time>
      </trkpt>
      <trkpt lat="38.2833920" lon="-3.6460910">
        <ele>511.2</ele>
        <time>2018-06-16T08:38:21Z</time>
      </trkpt>
      <trkpt lat="38.2833920" lon="-3.6460610">
        <ele>511.4</ele>
        <time>2018-06-16T08:38:22Z</time>
      </trkpt>
      <trkpt lat="38.2833920" lon="-3.6460290">
        <ele>511.6</ele>
        <time>2018-06-16T08:38:23Z</time>
      </trkpt>
      <trkpt lat="38.2833900" lon="-3.6459980">
        <ele>511.6</ele>
        <time>2018-06-16T08:38:24Z</time>
      </trkpt>
      <trkpt lat="38.2833890" lon="-3.6459670">
        <ele>511.8</ele>
        <time>2018-06-16T08:38:25Z</time>
      </trkpt>
      <trkpt lat="38.2833900" lon="-3.6459340">
        <ele>512.0</ele>
        <time>2018-06-16T08:38:26Z</time>
      </trkpt>
      <trkpt lat="38.2833940" lon="-3.6459050">
        <ele>512.0</ele>
        <time>2018-06-16T08:38:27Z</time>
      </trkpt>
      <trkpt lat="38.2834000" lon="-3.6458740">
        <ele>512.4</ele>
        <time>2018-06-16T08:38:28Z</time>
      </trkpt>
      <trkpt lat="38.2834030" lon="-3.6458430">
        <ele>512.4</ele>
        <time>2018-06-16T08:38:29Z</time>
      </trkpt>
      <trkpt lat="38.2834020" lon="-3.6458140">
        <ele>512.6</ele>
        <time>2018-06-16T08:38:30Z</time>
      </trkpt>
      <trkpt lat="38.2834060" lon="-3.6457830">
        <ele>513.0</ele>
        <time>2018-06-16T08:38:31Z</time>
      </trkpt>
      <trkpt lat="38.2834120" lon="-3.6457560">
        <ele>513.0</ele>
        <time>2018-06-16T08:38:32Z</time>
      </trkpt>
      <trkpt lat="38.2834230" lon="-3.6457280">
        <ele>513.2</ele>
        <time>2018-06-16T08:38:33Z</time>
      </trkpt>
      <trkpt lat="38.2834350" lon="-3.6456990">
        <ele>513.2</ele>
        <time>2018-06-16T08:38:34Z</time>
      </trkpt>
      <trkpt lat="38.2834450" lon="-3.6456710">
        <ele>513.4</ele>
        <time>2018-06-16T08:38:35Z</time>
      </trkpt>
      <trkpt lat="38.2834600" lon="-3.6456420">
        <ele>513.8</ele>
        <time>2018-06-16T08:38:36Z</time>
      </trkpt>
      <trkpt lat="38.2834790" lon="-3.6456190">
        <ele>513.8</ele>
        <time>2018-06-16T08:38:37Z</time>
      </trkpt>
      <trkpt lat="38.2834990" lon="-3.6455980">
        <ele>513.8</ele>
        <time>2018-06-16T08:38:38Z</time>
      </trkpt>
      <trkpt lat="38.2835180" lon="-3.6455770">
        <ele>514.2</ele>
        <time>2018-06-16T08:38:39Z</time>
      </trkpt>
      <trkpt lat="38.2835340" lon="-3.6455530">
        <ele>514.2</ele>
        <time>2018-06-16T08:38:40Z</time>
      </trkpt>
      <trkpt lat="38.2835510" lon="-3.6455300">
        <ele>514.4</ele>
        <time>2018-06-16T08:38:41Z</time>
      </trkpt>
      <trkpt lat="38.2835680" lon="-3.6455060">
        <ele>514.6</ele>
        <time>2018-06-16T08:38:42Z</time>
      </trkpt>
      <trkpt lat="38.2835880" lon="-3.6454860">
        <ele>514.8</ele>
        <time>2018-06-16T08:38:43Z</time>
      </trkpt>
      <trkpt lat="38.2836040" lon="-3.6454630">
        <ele>515.0</ele>
        <time>2018-06-16T08:38:44Z</time>
      </trkpt>
      <trkpt lat="38.2836160" lon="-3.6454390">
        <ele>515.2</ele>
        <time>2018-06-16T08:38:45Z</time>
      </trkpt>
      <trkpt lat="38.2836280" lon="-3.6454160">
        <ele>515.4</ele>
        <time>2018-06-16T08:38:46Z</time>
      </trkpt>
      <trkpt lat="38.2836410" lon="-3.6453940">
        <ele>515.6</ele>
        <time>2018-06-16T08:38:47Z</time>
      </trkpt>
      <trkpt lat="38.2836550" lon="-3.6453680">
        <ele>515.8</ele>
        <time>2018-06-16T08:38:48Z</time>
      </trkpt>
      <trkpt lat="38.2836680" lon="-3.6453370">
        <ele>515.8</ele>
        <time>2018-06-16T08:38:49Z</time>
      </trkpt>
      <trkpt lat="38.2836780" lon="-3.6453060">
        <ele>516.0</ele>
        <time>2018-06-16T08:38:50Z</time>
      </trkpt>
      <trkpt lat="38.2836870" lon="-3.6452750">
        <ele>516.2</ele>
        <time>2018-06-16T08:38:51Z</time>
      </trkpt>
      <trkpt lat="38.2836900" lon="-3.6452450">
        <ele>516.4</ele>
        <time>2018-06-16T08:38:52Z</time>
      </trkpt>
      <trkpt lat="38.2836910" lon="-3.6452160">
        <ele>516.4</ele>
        <time>2018-06-16T08:38:53Z</time>
      </trkpt>
      <trkpt lat="38.2836880" lon="-3.6451850">
        <ele>516.4</ele>
        <time>2018-06-16T08:38:54Z</time>
      </trkpt>
      <trkpt lat="38.2836810" lon="-3.6451560">
        <ele>516.6</ele>
        <time>2018-06-16T08:38:55Z</time>
      </trkpt>
      <trkpt lat="38.2836740" lon="-3.6451270">
        <ele>516.6</ele>
        <time>2018-06-16T08:38:56Z</time>
      </trkpt>
      <trkpt lat="38.2836660" lon="-3.6450980">
        <ele>516.8</ele>
        <time>2018-06-16T08:38:57Z</time>
      </trkpt>
      <trkpt lat="38.2836520" lon="-3.6450570">
        <ele>516.8</ele>
        <time>2018-06-16T08:38:58Z</time>
      </trkpt>
      <trkpt lat="38.2836460" lon="-3.6450440">
        <ele>516.8</ele>
        <time>2018-06-16T08:38:59Z</time>
      </trkpt>
      <trkpt lat="38.2836340" lon="-3.6450200">
        <ele>516.8</ele>
        <time>2018-06-16T08:39:00Z</time>
      </trkpt>
      <trkpt lat="38.2836210" lon="-3.6449950">
        <ele>517.0</ele>
        <time>2018-06-16T08:39:01Z</time>
      </trkpt>
      <trkpt lat="38.2836090" lon="-3.6449690">
        <ele>517.2</ele>
        <time>2018-06-16T08:39:02Z</time>
      </trkpt>
      <trkpt lat="38.2835940" lon="-3.6449460">
        <ele>517.2</ele>
        <time>2018-06-16T08:39:03Z</time>
      </trkpt>
      <trkpt lat="38.2835790" lon="-3.6449240">
        <ele>517.2</ele>
        <time>2018-06-16T08:39:04Z</time>
      </trkpt>
      <trkpt lat="38.2835630" lon="-3.6448980">
        <ele>517.4</ele>
        <time>2018-06-16T08:39:05Z</time>
      </trkpt>
      <trkpt lat="38.2835480" lon="-3.6448730">
        <ele>517.4</ele>
        <time>2018-06-16T08:39:06Z</time>
      </trkpt>
      <trkpt lat="38.2835310" lon="-3.6448510">
        <ele>517.6</ele>
        <time>2018-06-16T08:39:07Z</time>
      </trkpt>
      <trkpt lat="38.2835150" lon="-3.6448270">
        <ele>517.8</ele>
        <time>2018-06-16T08:39:08Z</time>
      </trkpt>
      <trkpt lat="38.2835000" lon="-3.6448030">
        <ele>517.8</ele>
        <time>2018-06-16T08:39:09Z</time>
      </trkpt>
      <trkpt lat="38.2834850" lon="-3.6447780">
        <ele>517.8</ele>
        <time>2018-06-16T08:39:10Z</time>
      </trkpt>
      <trkpt lat="38.2834570" lon="-3.6447360">
        <ele>518.0</ele>
        <time>2018-06-16T08:39:11Z</time>
      </trkpt>
      <trkpt lat="38.2834440" lon="-3.6447180">
        <ele>518.2</ele>
        <time>2018-06-16T08:39:12Z</time>
      </trkpt>
      <trkpt lat="38.2834310" lon="-3.6446990">
        <ele>518.2</ele>
        <time>2018-06-16T08:39:13Z</time>
      </trkpt>
      <trkpt lat="38.2834180" lon="-3.6446810">
        <ele>518.4</ele>
        <time>2018-06-16T08:39:14Z</time>
      </trkpt>
      <trkpt lat="38.2834050" lon="-3.6446630">
        <ele>518.4</ele>
        <time>2018-06-16T08:39:15Z</time>
      </trkpt>
      <trkpt lat="38.2833890" lon="-3.6446410">
        <ele>518.6</ele>
        <time>2018-06-16T08:39:16Z</time>
      </trkpt>
      <trkpt lat="38.2833730" lon="-3.6446180">
        <ele>518.8</ele>
        <time>2018-06-16T08:39:17Z</time>
      </trkpt>
      <trkpt lat="38.2833570" lon="-3.6445960">
        <ele>518.8</ele>
        <time>2018-06-16T08:39:18Z</time>
      </trkpt>
      <trkpt lat="38.2833400" lon="-3.6445750">
        <ele>519.2</ele>
        <time>2018-06-16T08:39:19Z</time>
      </trkpt>
      <trkpt lat="38.2833230" lon="-3.6445520">
        <ele>519.2</ele>
        <time>2018-06-16T08:39:20Z</time>
      </trkpt>
      <trkpt lat="38.2833080" lon="-3.6445270">
        <ele>519.6</ele>
        <time>2018-06-16T08:39:21Z</time>
      </trkpt>
      <trkpt lat="38.2832930" lon="-3.6445040">
        <ele>519.6</ele>
        <time>2018-06-16T08:39:22Z</time>
      </trkpt>
      <trkpt lat="38.2832760" lon="-3.6444830">
        <ele>520.0</ele>
        <time>2018-06-16T08:39:23Z</time>
      </trkpt>
      <trkpt lat="38.2832590" lon="-3.6444620">
        <ele>520.0</ele>
        <time>2018-06-16T08:39:24Z</time>
      </trkpt>
      <trkpt lat="38.2832430" lon="-3.6444410">
        <ele>520.4</ele>
        <time>2018-06-16T08:39:25Z</time>
      </trkpt>
      <trkpt lat="38.2832250" lon="-3.6444210">
        <ele>520.6</ele>
        <time>2018-06-16T08:39:26Z</time>
      </trkpt>
      <trkpt lat="38.2832070" lon="-3.6444020">
        <ele>520.8</ele>
        <time>2018-06-16T08:39:27Z</time>
      </trkpt>
      <trkpt lat="38.2831920" lon="-3.6443810">
        <ele>521.2</ele>
        <time>2018-06-16T08:39:28Z</time>
      </trkpt>
      <trkpt lat="38.2831770" lon="-3.6443600">
        <ele>521.4</ele>
        <time>2018-06-16T08:39:29Z</time>
      </trkpt>
      <trkpt lat="38.2831600" lon="-3.6443430">
        <ele>521.6</ele>
        <time>2018-06-16T08:39:30Z</time>
      </trkpt>
      <trkpt lat="38.2831410" lon="-3.6443280">
        <ele>521.8</ele>
        <time>2018-06-16T08:39:31Z</time>
      </trkpt>
      <trkpt lat="38.2831230" lon="-3.6443120">
        <ele>522.0</ele>
        <time>2018-06-16T08:39:32Z</time>
      </trkpt>
      <trkpt lat="38.2830990" lon="-3.6442850">
        <ele>522.4</ele>
        <time>2018-06-16T08:39:33Z</time>
      </trkpt>
      <trkpt lat="38.2830910" lon="-3.6442760">
        <ele>522.6</ele>
        <time>2018-06-16T08:39:34Z</time>
      </trkpt>
      <trkpt lat="38.2830760" lon="-3.6442550">
        <ele>522.8</ele>
        <time>2018-06-16T08:39:35Z</time>
      </trkpt>
      <trkpt lat="38.2830600" lon="-3.6442330">
        <ele>523.0</ele>
        <time>2018-06-16T08:39:36Z</time>
      </trkpt>
      <trkpt lat="38.2830440" lon="-3.6442110">
        <ele>523.2</ele>
        <time>2018-06-16T08:39:37Z</time>
      </trkpt>
      <trkpt lat="38.2830260" lon="-3.6441900">
        <ele>523.4</ele>
        <time>2018-06-16T08:39:38Z</time>
      </trkpt>
      <trkpt lat="38.2830080" lon="-3.6441700">
        <ele>523.4</ele>
        <time>2018-06-16T08:39:39Z</time>
      </trkpt>
      <trkpt lat="38.2829900" lon="-3.6441520">
        <ele>523.6</ele>
        <time>2018-06-16T08:39:40Z</time>
      </trkpt>
      <trkpt lat="38.2829710" lon="-3.6441340">
        <ele>523.6</ele>
        <time>2018-06-16T08:39:41Z</time>
      </trkpt>
      <trkpt lat="38.2829520" lon="-3.6441160">
        <ele>523.6</ele>
        <time>2018-06-16T08:39:42Z</time>
      </trkpt>
      <trkpt lat="38.2829330" lon="-3.6440980">
        <ele>523.6</ele>
        <time>2018-06-16T08:39:43Z</time>
      </trkpt>
      <trkpt lat="38.2829140" lon="-3.6440780">
        <ele>523.8</ele>
        <time>2018-06-16T08:39:44Z</time>
      </trkpt>
      <trkpt lat="38.2828960" lon="-3.6440570">
        <ele>523.8</ele>
        <time>2018-06-16T08:39:45Z</time>
      </trkpt>
      <trkpt lat="38.2828780" lon="-3.6440340">
        <ele>524.0</ele>
        <time>2018-06-16T08:39:46Z</time>
      </trkpt>
      <trkpt lat="38.2828590" lon="-3.6440120">
        <ele>524.0</ele>
        <time>2018-06-16T08:39:47Z</time>
      </trkpt>
      <trkpt lat="38.2828400" lon="-3.6439890">
        <ele>524.2</ele>
        <time>2018-06-16T08:39:48Z</time>
      </trkpt>
      <trkpt lat="38.2828210" lon="-3.6439670">
        <ele>524.2</ele>
        <time>2018-06-16T08:39:49Z</time>
      </trkpt>
      <trkpt lat="38.2828000" lon="-3.6439430">
        <ele>524.2</ele>
        <time>2018-06-16T08:39:50Z</time>
      </trkpt>
      <trkpt lat="38.2827770" lon="-3.6439170">
        <ele>524.2</ele>
        <time>2018-06-16T08:39:51Z</time>
      </trkpt>
      <trkpt lat="38.2827540" lon="-3.6438920">
        <ele>524.2</ele>
        <time>2018-06-16T08:39:52Z</time>
      </trkpt>
      <trkpt lat="38.2827290" lon="-3.6438660">
        <ele>524.2</ele>
        <time>2018-06-16T08:39:53Z</time>
      </trkpt>
      <trkpt lat="38.2827010" lon="-3.6438410">
        <ele>524.2</ele>
        <time>2018-06-16T08:39:54Z</time>
      </trkpt>
      <trkpt lat="38.2826690" lon="-3.6438160">
        <ele>523.8</ele>
        <time>2018-06-16T08:39:55Z</time>
      </trkpt>
      <trkpt lat="38.2826340" lon="-3.6437880">
        <ele>523.6</ele>
        <time>2018-06-16T08:39:56Z</time>
      </trkpt>
      <trkpt lat="38.2825960" lon="-3.6437580">
        <ele>523.4</ele>
        <time>2018-06-16T08:39:57Z</time>
      </trkpt>
      <trkpt lat="38.2825550" lon="-3.6437240">
        <ele>523.2</ele>
        <time>2018-06-16T08:39:58Z</time>
      </trkpt>
      <trkpt lat="38.2825160" lon="-3.6436840">
        <ele>523.2</ele>
        <time>2018-06-16T08:39:59Z</time>
      </trkpt>
      <trkpt lat="38.2824800" lon="-3.6436360">
        <ele>523.2</ele>
        <time>2018-06-16T08:40:00Z</time>
      </trkpt>
      <trkpt lat="38.2824490" lon="-3.6435810">
        <ele>523.2</ele>
        <time>2018-06-16T08:40:01Z</time>
      </trkpt>
      <trkpt lat="38.2824220" lon="-3.6435290">
        <ele>523.2</ele>
        <time>2018-06-16T08:40:02Z</time>
      </trkpt>
      <trkpt lat="38.2823950" lon="-3.6434710">
        <ele>523.2</ele>
        <time>2018-06-16T08:40:03Z</time>
      </trkpt>
      <trkpt lat="38.2823690" lon="-3.6434120">
        <ele>523.2</ele>
        <time>2018-06-16T08:40:04Z</time>
      </trkpt>
      <trkpt lat="38.2823430" lon="-3.6433550">
        <ele>523.4</ele>
        <time>2018-06-16T08:40:05Z</time>
      </trkpt>
      <trkpt lat="38.2823150" lon="-3.6432990">
        <ele>523.4</ele>
        <time>2018-06-16T08:40:06Z</time>
      </trkpt>
      <trkpt lat="38.2822860" lon="-3.6432460">
        <ele>523.6</ele>
        <time>2018-06-16T08:40:07Z</time>
      </trkpt>
      <trkpt lat="38.2822540" lon="-3.6431950">
        <ele>523.4</ele>
        <time>2018-06-16T08:40:08Z</time>
      </trkpt>
      <trkpt lat="38.2822230" lon="-3.6431450">
        <ele>523.4</ele>
        <time>2018-06-16T08:40:09Z</time>
      </trkpt>
      <trkpt lat="38.2821920" lon="-3.6430940">
        <ele>523.4</ele>
        <time>2018-06-16T08:40:10Z</time>
      </trkpt>
      <trkpt lat="38.2821610" lon="-3.6430420">
        <ele>523.4</ele>
        <time>2018-06-16T08:40:11Z</time>
      </trkpt>
      <trkpt lat="38.2821270" lon="-3.6429910">
        <ele>523.6</ele>
        <time>2018-06-16T08:40:12Z</time>
      </trkpt>
      <trkpt lat="38.2820890" lon="-3.6429410">
        <ele>523.6</ele>
        <time>2018-06-16T08:40:13Z</time>
      </trkpt>
      <trkpt lat="38.2820490" lon="-3.6428950">
        <ele>523.6</ele>
        <time>2018-06-16T08:40:14Z</time>
      </trkpt>
      <trkpt lat="38.2820070" lon="-3.6428550">
        <ele>523.6</ele>
        <time>2018-06-16T08:40:15Z</time>
      </trkpt>
      <trkpt lat="38.2819640" lon="-3.6428160">
        <ele>523.8</ele>
        <time>2018-06-16T08:40:16Z</time>
      </trkpt>
      <trkpt lat="38.2819220" lon="-3.6427810">
        <ele>523.8</ele>
        <time>2018-06-16T08:40:17Z</time>
      </trkpt>
      <trkpt lat="38.2818800" lon="-3.6427460">
        <ele>524.0</ele>
        <time>2018-06-16T08:40:18Z</time>
      </trkpt>
      <trkpt lat="38.2818390" lon="-3.6427110">
        <ele>524.0</ele>
        <time>2018-06-16T08:40:19Z</time>
      </trkpt>
      <trkpt lat="38.2817980" lon="-3.6426750">
        <ele>524.0</ele>
        <time>2018-06-16T08:40:20Z</time>
      </trkpt>
      <trkpt lat="38.2817580" lon="-3.6426410">
        <ele>524.2</ele>
        <time>2018-06-16T08:40:21Z</time>
      </trkpt>
      <trkpt lat="38.2817170" lon="-3.6426060">
        <ele>524.2</ele>
        <time>2018-06-16T08:40:22Z</time>
      </trkpt>
      <trkpt lat="38.2816770" lon="-3.6425710">
        <ele>524.4</ele>
        <time>2018-06-16T08:40:23Z</time>
      </trkpt>
      <trkpt lat="38.2816380" lon="-3.6425380">
        <ele>524.4</ele>
        <time>2018-06-16T08:40:24Z</time>
      </trkpt>
      <trkpt lat="38.2815980" lon="-3.6425040">
        <ele>524.6</ele>
        <time>2018-06-16T08:40:25Z</time>
      </trkpt>
      <trkpt lat="38.2815580" lon="-3.6424720">
        <ele>524.6</ele>
        <time>2018-06-16T08:40:26Z</time>
      </trkpt>
      <trkpt lat="38.2815170" lon="-3.6424390">
        <ele>524.8</ele>
        <time>2018-06-16T08:40:27Z</time>
      </trkpt>
      <trkpt lat="38.2814770" lon="-3.6424060">
        <ele>525.0</ele>
        <time>2018-06-16T08:40:28Z</time>
      </trkpt>
      <trkpt lat="38.2814380" lon="-3.6423730">
        <ele>525.0</ele>
        <time>2018-06-16T08:40:29Z</time>
      </trkpt>
      <trkpt lat="38.2813990" lon="-3.6423420">
        <ele>525.0</ele>
        <time>2018-06-16T08:40:30Z</time>
      </trkpt>
      <trkpt lat="38.2813610" lon="-3.6423120">
        <ele>525.6</ele>
        <time>2018-06-16T08:40:31Z</time>
      </trkpt>
      <trkpt lat="38.2813240" lon="-3.6422820">
        <ele>525.6</ele>
        <time>2018-06-16T08:40:32Z</time>
      </trkpt>
      <trkpt lat="38.2812870" lon="-3.6422530">
        <ele>525.8</ele>
        <time>2018-06-16T08:40:33Z</time>
      </trkpt>
      <trkpt lat="38.2812530" lon="-3.6422220">
        <ele>525.8</ele>
        <time>2018-06-16T08:40:34Z</time>
      </trkpt>
      <trkpt lat="38.2812200" lon="-3.6421880">
        <ele>526.2</ele>
        <time>2018-06-16T08:40:35Z</time>
      </trkpt>
      <trkpt lat="38.2811910" lon="-3.6421520">
        <ele>526.4</ele>
        <time>2018-06-16T08:40:36Z</time>
      </trkpt>
      <trkpt lat="38.2811680" lon="-3.6421080">
        <ele>526.6</ele>
        <time>2018-06-16T08:40:37Z</time>
      </trkpt>
      <trkpt lat="38.2811500" lon="-3.6420650">
        <ele>526.8</ele>
        <time>2018-06-16T08:40:38Z</time>
      </trkpt>
      <trkpt lat="38.2811370" lon="-3.6420170">
        <ele>526.8</ele>
        <time>2018-06-16T08:40:39Z</time>
      </trkpt>
      <trkpt lat="38.2811290" lon="-3.6419660">
        <ele>527.2</ele>
        <time>2018-06-16T08:40:40Z</time>
      </trkpt>
      <trkpt lat="38.2811270" lon="-3.6419150">
        <ele>527.2</ele>
        <time>2018-06-16T08:40:41Z</time>
      </trkpt>
      <trkpt lat="38.2811270" lon="-3.6418650">
        <ele>527.4</ele>
        <time>2018-06-16T08:40:42Z</time>
      </trkpt>
      <trkpt lat="38.2811310" lon="-3.6418130">
        <ele>527.2</ele>
        <time>2018-06-16T08:40:43Z</time>
      </trkpt>
      <trkpt lat="38.2811390" lon="-3.6417610">
        <ele>527.2</ele>
        <time>2018-06-16T08:40:44Z</time>
      </trkpt>
      <trkpt lat="38.2811500" lon="-3.6417060">
        <ele>527.0</ele>
        <time>2018-06-16T08:40:45Z</time>
      </trkpt>
      <trkpt lat="38.2811620" lon="-3.6416480">
        <ele>526.6</ele>
        <time>2018-06-16T08:40:46Z</time>
      </trkpt>
      <trkpt lat="38.2811730" lon="-3.6415840">
        <ele>526.4</ele>
        <time>2018-06-16T08:40:47Z</time>
      </trkpt>
      <trkpt lat="38.2811830" lon="-3.6415170">
        <ele>526.2</ele>
        <time>2018-06-16T08:40:48Z</time>
      </trkpt>
      <trkpt lat="38.2811920" lon="-3.6414460">
        <ele>526.2</ele>
        <time>2018-06-16T08:40:49Z</time>
      </trkpt>
      <trkpt lat="38.2811980" lon="-3.6413740">
        <ele>526.0</ele>
        <time>2018-06-16T08:40:50Z</time>
      </trkpt>
      <trkpt lat="38.2812000" lon="-3.6413010">
        <ele>526.0</ele>
        <time>2018-06-16T08:40:51Z</time>
      </trkpt>
      <trkpt lat="38.2812000" lon="-3.6412290">
        <ele>526.2</ele>
        <time>2018-06-16T08:40:52Z</time>
      </trkpt>
      <trkpt lat="38.2811990" lon="-3.6411570">
        <ele>526.6</ele>
        <time>2018-06-16T08:40:53Z</time>
      </trkpt>
      <trkpt lat="38.2811970" lon="-3.6410870">
        <ele>526.6</ele>
        <time>2018-06-16T08:40:54Z</time>
      </trkpt>
      <trkpt lat="38.2811920" lon="-3.6410180">
        <ele>526.8</ele>
        <time>2018-06-16T08:40:55Z</time>
      </trkpt>
      <trkpt lat="38.2811830" lon="-3.6409530">
        <ele>527.0</ele>
        <time>2018-06-16T08:40:56Z</time>
      </trkpt>
      <trkpt lat="38.2811690" lon="-3.6408900">
        <ele>527.0</ele>
        <time>2018-06-16T08:40:57Z</time>
      </trkpt>
      <trkpt lat="38.2811530" lon="-3.6408310">
        <ele>527.2</ele>
        <time>2018-06-16T08:40:58Z</time>
      </trkpt>
      <trkpt lat="38.2811370" lon="-3.6407770">
        <ele>527.4</ele>
        <time>2018-06-16T08:40:59Z</time>
      </trkpt>
      <trkpt lat="38.2811160" lon="-3.6407270">
        <ele>527.6</ele>
        <time>2018-06-16T08:41:00Z</time>
      </trkpt>
      <trkpt lat="38.2810940" lon="-3.6406810">
        <ele>527.8</ele>
        <time>2018-06-16T08:41:01Z</time>
      </trkpt>
      <trkpt lat="38.2810720" lon="-3.6406380">
        <ele>528.0</ele>
        <time>2018-06-16T08:41:02Z</time>
      </trkpt>
      <trkpt lat="38.2810330" lon="-3.6405820">
        <ele>528.2</ele>
        <time>2018-06-16T08:41:03Z</time>
      </trkpt>
      <trkpt lat="38.2810190" lon="-3.6405660">
        <ele>528.4</ele>
        <time>2018-06-16T08:41:04Z</time>
      </trkpt>
      <trkpt lat="38.2809860" lon="-3.6405400">
        <ele>528.6</ele>
        <time>2018-06-16T08:41:05Z</time>
      </trkpt>
      <trkpt lat="38.2809530" lon="-3.6405170">
        <ele>528.8</ele>
        <time>2018-06-16T08:41:06Z</time>
      </trkpt>
      <trkpt lat="38.2809190" lon="-3.6404970">
        <ele>529.0</ele>
        <time>2018-06-16T08:41:07Z</time>
      </trkpt>
      <trkpt lat="38.2808850" lon="-3.6404790">
        <ele>529.2</ele>
        <time>2018-06-16T08:41:08Z</time>
      </trkpt>
      <trkpt lat="38.2808520" lon="-3.6404640">
        <ele>529.4</ele>
        <time>2018-06-16T08:41:09Z</time>
      </trkpt>
      <trkpt lat="38.2808200" lon="-3.6404520">
        <ele>529.6</ele>
        <time>2018-06-16T08:41:10Z</time>
      </trkpt>
      <trkpt lat="38.2807900" lon="-3.6404400">
        <ele>530.0</ele>
        <time>2018-06-16T08:41:11Z</time>
      </trkpt>
      <trkpt lat="38.2807630" lon="-3.6404270">
        <ele>530.2</ele>
        <time>2018-06-16T08:41:12Z</time>
      </trkpt>
      <trkpt lat="38.2807380" lon="-3.6404170">
        <ele>530.4</ele>
        <time>2018-06-16T08:41:13Z</time>
      </trkpt>
      <trkpt lat="38.2807140" lon="-3.6404090">
        <ele>530.6</ele>
        <time>2018-06-16T08:41:14Z</time>
      </trkpt>
      <trkpt lat="38.2806890" lon="-3.6404020">
        <ele>530.8</ele>
        <time>2018-06-16T08:41:15Z</time>
      </trkpt>
      <trkpt lat="38.2806650" lon="-3.6403950">
        <ele>531.0</ele>
        <time>2018-06-16T08:41:16Z</time>
      </trkpt>
      <trkpt lat="38.2806290" lon="-3.6403830">
        <ele>531.2</ele>
        <time>2018-06-16T08:41:17Z</time>
      </trkpt>
      <trkpt lat="38.2806170" lon="-3.6403790">
        <ele>531.4</ele>
        <time>2018-06-16T08:41:18Z</time>
      </trkpt>
      <trkpt lat="38.2805940" lon="-3.6403720">
        <ele>531.6</ele>
        <time>2018-06-16T08:41:19Z</time>
      </trkpt>
      <trkpt lat="38.2805700" lon="-3.6403660">
        <ele>531.8</ele>
        <time>2018-06-16T08:41:20Z</time>
      </trkpt>
      <trkpt lat="38.2805470" lon="-3.6403560">
        <ele>532.0</ele>
        <time>2018-06-16T08:41:21Z</time>
      </trkpt>
      <trkpt lat="38.2805240" lon="-3.6403450">
        <ele>532.0</ele>
        <time>2018-06-16T08:41:22Z</time>
      </trkpt>
      <trkpt lat="38.2804890" lon="-3.6403280">
        <ele>532.2</ele>
        <time>2018-06-16T08:41:23Z</time>
      </trkpt>
      <trkpt lat="38.2804770" lon="-3.6403240">
        <ele>532.4</ele>
        <time>2018-06-16T08:41:24Z</time>
      </trkpt>
      <trkpt lat="38.2804530" lon="-3.6403180">
        <ele>532.6</ele>
        <time>2018-06-16T08:41:25Z</time>
      </trkpt>
      <trkpt lat="38.2804280" lon="-3.6403140">
        <ele>532.6</ele>
        <time>2018-06-16T08:41:26Z</time>
      </trkpt>
      <trkpt lat="38.2804040" lon="-3.6403080">
        <ele>532.8</ele>
        <time>2018-06-16T08:41:27Z</time>
      </trkpt>
      <trkpt lat="38.2803800" lon="-3.6403010">
        <ele>532.8</ele>
        <time>2018-06-16T08:41:28Z</time>
      </trkpt>
      <trkpt lat="38.2803560" lon="-3.6402930">
        <ele>533.2</ele>
        <time>2018-06-16T08:41:29Z</time>
      </trkpt>
      <trkpt lat="38.2803340" lon="-3.6402830">
        <ele>533.4</ele>
        <time>2018-06-16T08:41:30Z</time>
      </trkpt>
      <trkpt lat="38.2803110" lon="-3.6402720">
        <ele>533.6</ele>
        <time>2018-06-16T08:41:31Z</time>
      </trkpt>
      <trkpt lat="38.2802880" lon="-3.6402620">
        <ele>533.6</ele>
        <time>2018-06-16T08:41:32Z</time>
      </trkpt>
      <trkpt lat="38.2802650" lon="-3.6402510">
        <ele>533.8</ele>
        <time>2018-06-16T08:41:33Z</time>
      </trkpt>
      <trkpt lat="38.2802440" lon="-3.6402410">
        <ele>533.8</ele>
        <time>2018-06-16T08:41:34Z</time>
      </trkpt>
      <trkpt lat="38.2802220" lon="-3.6402300">
        <ele>534.0</ele>
        <time>2018-06-16T08:41:35Z</time>
      </trkpt>
      <trkpt lat="38.2801900" lon="-3.6402100">
        <ele>534.2</ele>
        <time>2018-06-16T08:41:36Z</time>
      </trkpt>
      <trkpt lat="38.2801790" lon="-3.6402040">
        <ele>534.4</ele>
        <time>2018-06-16T08:41:37Z</time>
      </trkpt>
      <trkpt lat="38.2801570" lon="-3.6401940">
        <ele>534.6</ele>
        <time>2018-06-16T08:41:38Z</time>
      </trkpt>
      <trkpt lat="38.2801350" lon="-3.6401830">
        <ele>534.6</ele>
        <time>2018-06-16T08:41:39Z</time>
      </trkpt>
      <trkpt lat="38.2801140" lon="-3.6401690">
        <ele>534.8</ele>
        <time>2018-06-16T08:41:40Z</time>
      </trkpt>
      <trkpt lat="38.2800940" lon="-3.6401520">
        <ele>534.8</ele>
        <time>2018-06-16T08:41:41Z</time>
      </trkpt>
      <trkpt lat="38.2800740" lon="-3.6401340">
        <ele>535.0</ele>
        <time>2018-06-16T08:41:42Z</time>
      </trkpt>
      <trkpt lat="38.2800540" lon="-3.6401150">
        <ele>535.2</ele>
        <time>2018-06-16T08:41:43Z</time>
      </trkpt>
      <trkpt lat="38.2800350" lon="-3.6400970">
        <ele>535.2</ele>
        <time>2018-06-16T08:41:44Z</time>
      </trkpt>
      <trkpt lat="38.2800140" lon="-3.6400760">
        <ele>535.2</ele>
        <time>2018-06-16T08:41:45Z</time>
      </trkpt>
      <trkpt lat="38.2799960" lon="-3.6400540">
        <ele>535.2</ele>
        <time>2018-06-16T08:41:46Z</time>
      </trkpt>
      <trkpt lat="38.2799760" lon="-3.6400300">
        <ele>535.2</ele>
        <time>2018-06-16T08:41:47Z</time>
      </trkpt>
      <trkpt lat="38.2799540" lon="-3.6400040">
        <ele>535.2</ele>
        <time>2018-06-16T08:41:48Z</time>
      </trkpt>
      <trkpt lat="38.2799320" lon="-3.6399770">
        <ele>535.2</ele>
        <time>2018-06-16T08:41:49Z</time>
      </trkpt>
      <trkpt lat="38.2799100" lon="-3.6399430">
        <ele>535.2</ele>
        <time>2018-06-16T08:41:50Z</time>
      </trkpt>
      <trkpt lat="38.2798880" lon="-3.6399090">
        <ele>535.0</ele>
        <time>2018-06-16T08:41:51Z</time>
      </trkpt>
      <trkpt lat="38.2798670" lon="-3.6398710">
        <ele>535.0</ele>
        <time>2018-06-16T08:41:52Z</time>
      </trkpt>
      <trkpt lat="38.2798480" lon="-3.6398290">
        <ele>535.0</ele>
        <time>2018-06-16T08:41:53Z</time>
      </trkpt>
      <trkpt lat="38.2798320" lon="-3.6397830">
        <ele>534.8</ele>
        <time>2018-06-16T08:41:54Z</time>
      </trkpt>
      <trkpt lat="38.2798140" lon="-3.6397360">
        <ele>534.8</ele>
        <time>2018-06-16T08:41:55Z</time>
      </trkpt>
      <trkpt lat="38.2797980" lon="-3.6396850">
        <ele>534.8</ele>
        <time>2018-06-16T08:41:56Z</time>
      </trkpt>
      <trkpt lat="38.2797860" lon="-3.6396320">
        <ele>534.8</ele>
        <time>2018-06-16T08:41:57Z</time>
      </trkpt>
      <trkpt lat="38.2797760" lon="-3.6395740">
        <ele>534.6</ele>
        <time>2018-06-16T08:41:58Z</time>
      </trkpt>
      <trkpt lat="38.2797680" lon="-3.6395140">
        <ele>534.6</ele>
        <time>2018-06-16T08:41:59Z</time>
      </trkpt>
      <trkpt lat="38.2797610" lon="-3.6394520">
        <ele>534.6</ele>
        <time>2018-06-16T08:42:00Z</time>
      </trkpt>
      <trkpt lat="38.2797560" lon="-3.6393880">
        <ele>534.4</ele>
        <time>2018-06-16T08:42:01Z</time>
      </trkpt>
      <trkpt lat="38.2797540" lon="-3.6393210">
        <ele>534.4</ele>
        <time>2018-06-16T08:42:02Z</time>
      </trkpt>
      <trkpt lat="38.2797560" lon="-3.6392520">
        <ele>534.0</ele>
        <time>2018-06-16T08:42:03Z</time>
      </trkpt>
      <trkpt lat="38.2797590" lon="-3.6391790">
        <ele>533.8</ele>
        <time>2018-06-16T08:42:04Z</time>
      </trkpt>
      <trkpt lat="38.2797630" lon="-3.6391030">
        <ele>533.4</ele>
        <time>2018-06-16T08:42:05Z</time>
      </trkpt>
      <trkpt lat="38.2797670" lon="-3.6390210">
        <ele>532.6</ele>
        <time>2018-06-16T08:42:06Z</time>
      </trkpt>
      <trkpt lat="38.2797740" lon="-3.6389320">
        <ele>532.0</ele>
        <time>2018-06-16T08:42:07Z</time>
      </trkpt>
      <trkpt lat="38.2797840" lon="-3.6388360">
        <ele>531.2</ele>
        <time>2018-06-16T08:42:08Z</time>
      </trkpt>
      <trkpt lat="38.2797940" lon="-3.6387340">
        <ele>531.2</ele>
        <time>2018-06-16T08:42:09Z</time>
      </trkpt>
      <trkpt lat="38.2798040" lon="-3.6386270">
        <ele>530.6</ele>
        <time>2018-06-16T08:42:10Z</time>
      </trkpt>
      <trkpt lat="38.2798130" lon="-3.6385160">
        <ele>530.2</ele>
        <time>2018-06-16T08:42:11Z</time>
      </trkpt>
      <trkpt lat="38.2798210" lon="-3.6384030">
        <ele>529.8</ele>
        <time>2018-06-16T08:42:12Z</time>
      </trkpt>
      <trkpt lat="38.2798290" lon="-3.6382900">
        <ele>529.4</ele>
        <time>2018-06-16T08:42:13Z</time>
      </trkpt>
      <trkpt lat="38.2798380" lon="-3.6381790">
        <ele>529.2</ele>
        <time>2018-06-16T08:42:14Z</time>
      </trkpt>
      <trkpt lat="38.2798440" lon="-3.6380700">
        <ele>529.4</ele>
        <time>2018-06-16T08:42:15Z</time>
      </trkpt>
      <trkpt lat="38.2798460" lon="-3.6379650">
        <ele>529.6</ele>
        <time>2018-06-16T08:42:16Z</time>
      </trkpt>
      <trkpt lat="38.2798370" lon="-3.6378670">
        <ele>530.0</ele>
        <time>2018-06-16T08:42:17Z</time>
      </trkpt>
      <trkpt lat="38.2798190" lon="-3.6377770">
        <ele>530.4</ele>
        <time>2018-06-16T08:42:18Z</time>
      </trkpt>
      <trkpt lat="38.2797920" lon="-3.6376970">
        <ele>530.6</ele>
        <time>2018-06-16T08:42:19Z</time>
      </trkpt>
      <trkpt lat="38.2797550" lon="-3.6376310">
        <ele>530.8</ele>
        <time>2018-06-16T08:42:20Z</time>
      </trkpt>
      <trkpt lat="38.2797110" lon="-3.6375800">
        <ele>531.2</ele>
        <time>2018-06-16T08:42:21Z</time>
      </trkpt>
      <trkpt lat="38.2796620" lon="-3.6375400">
        <ele>531.6</ele>
        <time>2018-06-16T08:42:22Z</time>
      </trkpt>
      <trkpt lat="38.2796150" lon="-3.6375070">
        <ele>531.8</ele>
        <time>2018-06-16T08:42:23Z</time>
      </trkpt>
      <trkpt lat="38.2795680" lon="-3.6374800">
        <ele>532.2</ele>
        <time>2018-06-16T08:42:24Z</time>
      </trkpt>
      <trkpt lat="38.2795230" lon="-3.6374570">
        <ele>532.8</ele>
        <time>2018-06-16T08:42:25Z</time>
      </trkpt>
      <trkpt lat="38.2794810" lon="-3.6374380">
        <ele>533.0</ele>
        <time>2018-06-16T08:42:26Z</time>
      </trkpt>
      <trkpt lat="38.2794400" lon="-3.6374200">
        <ele>533.4</ele>
        <time>2018-06-16T08:42:27Z</time>
      </trkpt>
      <trkpt lat="38.2794010" lon="-3.6374060">
        <ele>533.6</ele>
        <time>2018-06-16T08:42:28Z</time>
      </trkpt>
      <trkpt lat="38.2793620" lon="-3.6373910">
        <ele>534.0</ele>
        <time>2018-06-16T08:42:29Z</time>
      </trkpt>
      <trkpt lat="38.2793230" lon="-3.6373780">
        <ele>534.2</ele>
        <time>2018-06-16T08:42:30Z</time>
      </trkpt>
      <trkpt lat="38.2792850" lon="-3.6373660">
        <ele>534.6</ele>
        <time>2018-06-16T08:42:31Z</time>
      </trkpt>
      <trkpt lat="38.2792480" lon="-3.6373540">
        <ele>535.0</ele>
        <time>2018-06-16T08:42:32Z</time>
      </trkpt>
      <trkpt lat="38.2792150" lon="-3.6373420">
        <ele>535.2</ele>
        <time>2018-06-16T08:42:33Z</time>
      </trkpt>
      <trkpt lat="38.2791820" lon="-3.6373300">
        <ele>535.6</ele>
        <time>2018-06-16T08:42:34Z</time>
      </trkpt>
      <trkpt lat="38.2791500" lon="-3.6373190">
        <ele>535.8</ele>
        <time>2018-06-16T08:42:35Z</time>
      </trkpt>
      <trkpt lat="38.2791180" lon="-3.6373070">
        <ele>536.2</ele>
        <time>2018-06-16T08:42:36Z</time>
      </trkpt>
      <trkpt lat="38.2790870" lon="-3.6372930">
        <ele>536.4</ele>
        <time>2018-06-16T08:42:37Z</time>
      </trkpt>
      <trkpt lat="38.2790570" lon="-3.6372770">
        <ele>536.8</ele>
        <time>2018-06-16T08:42:38Z</time>
      </trkpt>
      <trkpt lat="38.2790280" lon="-3.6372580">
        <ele>537.0</ele>
        <time>2018-06-16T08:42:39Z</time>
      </trkpt>
      <trkpt lat="38.2790010" lon="-3.6372360">
        <ele>537.2</ele>
        <time>2018-06-16T08:42:40Z</time>
      </trkpt>
      <trkpt lat="38.2789750" lon="-3.6372110">
        <ele>537.2</ele>
        <time>2018-06-16T08:42:41Z</time>
      </trkpt>
      <trkpt lat="38.2789510" lon="-3.6371820">
        <ele>537.0</ele>
        <time>2018-06-16T08:42:42Z</time>
      </trkpt>
      <trkpt lat="38.2789280" lon="-3.6371460">
        <ele>536.8</ele>
        <time>2018-06-16T08:42:43Z</time>
      </trkpt>
      <trkpt lat="38.2789030" lon="-3.6371030">
        <ele>536.4</ele>
        <time>2018-06-16T08:42:44Z</time>
      </trkpt>
      <trkpt lat="38.2788760" lon="-3.6370570">
        <ele>536.2</ele>
        <time>2018-06-16T08:42:45Z</time>
      </trkpt>
      <trkpt lat="38.2788490" lon="-3.6370030">
        <ele>535.8</ele>
        <time>2018-06-16T08:42:46Z</time>
      </trkpt>
      <trkpt lat="38.2788210" lon="-3.6369410">
        <ele>535.2</ele>
        <time>2018-06-16T08:42:47Z</time>
      </trkpt>
      <trkpt lat="38.2787950" lon="-3.6368740">
        <ele>534.8</ele>
        <time>2018-06-16T08:42:48Z</time>
      </trkpt>
      <trkpt lat="38.2787690" lon="-3.6368040">
        <ele>534.6</ele>
        <time>2018-06-16T08:42:49Z</time>
      </trkpt>
      <trkpt lat="38.2787440" lon="-3.6367340">
        <ele>534.8</ele>
        <time>2018-06-16T08:42:50Z</time>
      </trkpt>
      <trkpt lat="38.2787190" lon="-3.6366680">
        <ele>534.8</ele>
        <time>2018-06-16T08:42:51Z</time>
      </trkpt>
      <trkpt lat="38.2786960" lon="-3.6366040">
        <ele>535.0</ele>
        <time>2018-06-16T08:42:52Z</time>
      </trkpt>
      <trkpt lat="38.2786760" lon="-3.6365420">
        <ele>535.2</ele>
        <time>2018-06-16T08:42:53Z</time>
      </trkpt>
      <trkpt lat="38.2786580" lon="-3.6364860">
        <ele>535.6</ele>
        <time>2018-06-16T08:42:54Z</time>
      </trkpt>
      <trkpt lat="38.2786420" lon="-3.6364410">
        <ele>535.8</ele>
        <time>2018-06-16T08:42:55Z</time>
      </trkpt>
      <trkpt lat="38.2786260" lon="-3.6363970">
        <ele>536.0</ele>
        <time>2018-06-16T08:42:56Z</time>
      </trkpt>
      <trkpt lat="38.2786130" lon="-3.6363570">
        <ele>536.2</ele>
        <time>2018-06-16T08:42:57Z</time>
      </trkpt>
      <trkpt lat="38.2786010" lon="-3.6363200">
        <ele>536.4</ele>
        <time>2018-06-16T08:42:58Z</time>
      </trkpt>
      <trkpt lat="38.2785910" lon="-3.6362850">
        <ele>536.6</ele>
        <time>2018-06-16T08:42:59Z</time>
      </trkpt>
      <trkpt lat="38.2785830" lon="-3.6362540">
        <ele>537.0</ele>
        <time>2018-06-16T08:43:00Z</time>
      </trkpt>
      <trkpt lat="38.2785740" lon="-3.6362240">
        <ele>537.0</ele>
        <time>2018-06-16T08:43:01Z</time>
      </trkpt>
      <trkpt lat="38.2785670" lon="-3.6361960">
        <ele>537.4</ele>
        <time>2018-06-16T08:43:02Z</time>
      </trkpt>
      <trkpt lat="38.2785600" lon="-3.6361680">
        <ele>537.6</ele>
        <time>2018-06-16T08:43:03Z</time>
      </trkpt>
      <trkpt lat="38.2785530" lon="-3.6361410">
        <ele>537.8</ele>
        <time>2018-06-16T08:43:04Z</time>
      </trkpt>
      <trkpt lat="38.2785440" lon="-3.6361140">
        <ele>538.0</ele>
        <time>2018-06-16T08:43:05Z</time>
      </trkpt>
      <trkpt lat="38.2785340" lon="-3.6360860">
        <ele>538.2</ele>
        <time>2018-06-16T08:43:06Z</time>
      </trkpt>
      <trkpt lat="38.2785250" lon="-3.6360590">
        <ele>538.4</ele>
        <time>2018-06-16T08:43:07Z</time>
      </trkpt>
      <trkpt lat="38.2785140" lon="-3.6360330">
        <ele>538.6</ele>
        <time>2018-06-16T08:43:08Z</time>
      </trkpt>
      <trkpt lat="38.2785050" lon="-3.6360050">
        <ele>538.8</ele>
        <time>2018-06-16T08:43:09Z</time>
      </trkpt>
      <trkpt lat="38.2784970" lon="-3.6359790">
        <ele>539.0</ele>
        <time>2018-06-16T08:43:10Z</time>
      </trkpt>
      <trkpt lat="38.2784880" lon="-3.6359530">
        <ele>539.4</ele>
        <time>2018-06-16T08:43:11Z</time>
      </trkpt>
      <trkpt lat="38.2784760" lon="-3.6359290">
        <ele>539.6</ele>
        <time>2018-06-16T08:43:12Z</time>
      </trkpt>
      <trkpt lat="38.2784640" lon="-3.6359030">
        <ele>539.8</ele>
        <time>2018-06-16T08:43:13Z</time>
      </trkpt>
      <trkpt lat="38.2784540" lon="-3.6358760">
        <ele>540.0</ele>
        <time>2018-06-16T08:43:14Z</time>
      </trkpt>
      <trkpt lat="38.2784450" lon="-3.6358480">
        <ele>540.2</ele>
        <time>2018-06-16T08:43:15Z</time>
      </trkpt>
      <trkpt lat="38.2784370" lon="-3.6358210">
        <ele>540.4</ele>
        <time>2018-06-16T08:43:16Z</time>
      </trkpt>
      <trkpt lat="38.2784270" lon="-3.6357950">
        <ele>540.8</ele>
        <time>2018-06-16T08:43:17Z</time>
      </trkpt>
      <trkpt lat="38.2784170" lon="-3.6357700">
        <ele>541.0</ele>
        <time>2018-06-16T08:43:18Z</time>
      </trkpt>
      <trkpt lat="38.2784090" lon="-3.6357420">
        <ele>541.2</ele>
        <time>2018-06-16T08:43:19Z</time>
      </trkpt>
      <trkpt lat="38.2784010" lon="-3.6357150">
        <ele>541.4</ele>
        <time>2018-06-16T08:43:20Z</time>
      </trkpt>
      <trkpt lat="38.2783930" lon="-3.6356880">
        <ele>541.6</ele>
        <time>2018-06-16T08:43:21Z</time>
      </trkpt>
      <trkpt lat="38.2783740" lon="-3.6356330">
        <ele>546.8</ele>
        <time>2018-06-16T08:43:22Z</time>
      </trkpt>
      <trkpt lat="38.2783660" lon="-3.6356060">
        <ele>542.2</ele>
        <time>2018-06-16T08:43:23Z</time>
      </trkpt>
      <trkpt lat="38.2783560" lon="-3.6355790">
        <ele>542.6</ele>
        <time>2018-06-16T08:43:24Z</time>
      </trkpt>
      <trkpt lat="38.2783560" lon="-3.6355790">
        <ele>544.2</ele>
        <time>2018-06-16T08:43:25Z</time>
      </trkpt>
      <trkpt lat="38.2783460" lon="-3.6355520">
        <ele>542.8</ele>
        <time>2018-06-16T08:43:26Z</time>
      </trkpt>
      <trkpt lat="38.2783370" lon="-3.6355260">
        <ele>543.2</ele>
        <time>2018-06-16T08:43:27Z</time>
      </trkpt>
      <trkpt lat="38.2783290" lon="-3.6354990">
        <ele>543.2</ele>
        <time>2018-06-16T08:43:28Z</time>
      </trkpt>
      <trkpt lat="38.2783220" lon="-3.6354710">
        <ele>543.4</ele>
        <time>2018-06-16T08:43:29Z</time>
      </trkpt>
      <trkpt lat="38.2783140" lon="-3.6354430">
        <ele>543.6</ele>
        <time>2018-06-16T08:43:30Z</time>
      </trkpt>
      <trkpt lat="38.2783070" lon="-3.6354160">
        <ele>544.0</ele>
        <time>2018-06-16T08:43:31Z</time>
      </trkpt>
      <trkpt lat="38.2782990" lon="-3.6353880">
        <ele>544.2</ele>
        <time>2018-06-16T08:43:32Z</time>
      </trkpt>
      <trkpt lat="38.2782910" lon="-3.6353610">
        <ele>544.2</ele>
        <time>2018-06-16T08:43:33Z</time>
      </trkpt>
      <trkpt lat="38.2782820" lon="-3.6353340">
        <ele>544.4</ele>
        <time>2018-06-16T08:43:34Z</time>
      </trkpt>
      <trkpt lat="38.2782730" lon="-3.6353090">
        <ele>544.6</ele>
        <time>2018-06-16T08:43:35Z</time>
      </trkpt>
      <trkpt lat="38.2782630" lon="-3.6352820">
        <ele>544.8</ele>
        <time>2018-06-16T08:43:36Z</time>
      </trkpt>
      <trkpt lat="38.2782550" lon="-3.6352550">
        <ele>545.2</ele>
        <time>2018-06-16T08:43:37Z</time>
      </trkpt>
      <trkpt lat="38.2782470" lon="-3.6352290">
        <ele>545.2</ele>
        <time>2018-06-16T08:43:38Z</time>
      </trkpt>
      <trkpt lat="38.2782380" lon="-3.6352020">
        <ele>545.6</ele>
        <time>2018-06-16T08:43:39Z</time>
      </trkpt>
      <trkpt lat="38.2782300" lon="-3.6351750">
        <ele>545.8</ele>
        <time>2018-06-16T08:43:40Z</time>
      </trkpt>
      <trkpt lat="38.2782160" lon="-3.6351360">
        <ele>546.0</ele>
        <time>2018-06-16T08:43:41Z</time>
      </trkpt>
      <trkpt lat="38.2782110" lon="-3.6351230">
        <ele>546.2</ele>
        <time>2018-06-16T08:43:42Z</time>
      </trkpt>
      <trkpt lat="38.2782050" lon="-3.6350960">
        <ele>546.4</ele>
        <time>2018-06-16T08:43:43Z</time>
      </trkpt>
      <trkpt lat="38.2781970" lon="-3.6350680">
        <ele>546.8</ele>
        <time>2018-06-16T08:43:44Z</time>
      </trkpt>
      <trkpt lat="38.2781880" lon="-3.6350440">
        <ele>547.0</ele>
        <time>2018-06-16T08:43:45Z</time>
      </trkpt>
      <trkpt lat="38.2781780" lon="-3.6350180">
        <ele>547.2</ele>
        <time>2018-06-16T08:43:46Z</time>
      </trkpt>
      <trkpt lat="38.2781690" lon="-3.6349920">
        <ele>547.4</ele>
        <time>2018-06-16T08:43:47Z</time>
      </trkpt>
      <trkpt lat="38.2781600" lon="-3.6349660">
        <ele>547.6</ele>
        <time>2018-06-16T08:43:48Z</time>
      </trkpt>
      <trkpt lat="38.2781510" lon="-3.6349390">
        <ele>547.8</ele>
        <time>2018-06-16T08:43:49Z</time>
      </trkpt>
      <trkpt lat="38.2781430" lon="-3.6349130">
        <ele>548.0</ele>
        <time>2018-06-16T08:43:50Z</time>
      </trkpt>
      <trkpt lat="38.2781330" lon="-3.6348870">
        <ele>548.4</ele>
        <time>2018-06-16T08:43:51Z</time>
      </trkpt>
      <trkpt lat="38.2781220" lon="-3.6348620">
        <ele>548.6</ele>
        <time>2018-06-16T08:43:52Z</time>
      </trkpt>
      <trkpt lat="38.2781070" lon="-3.6348220">
        <ele>548.8</ele>
        <time>2018-06-16T08:43:53Z</time>
      </trkpt>
      <trkpt lat="38.2781020" lon="-3.6348090">
        <ele>549.0</ele>
        <time>2018-06-16T08:43:54Z</time>
      </trkpt>
      <trkpt lat="38.2780940" lon="-3.6347820">
        <ele>549.2</ele>
        <time>2018-06-16T08:43:55Z</time>
      </trkpt>
      <trkpt lat="38.2780820" lon="-3.6347570">
        <ele>549.4</ele>
        <time>2018-06-16T08:43:56Z</time>
      </trkpt>
      <trkpt lat="38.2780680" lon="-3.6347350">
        <ele>549.6</ele>
        <time>2018-06-16T08:43:57Z</time>
      </trkpt>
      <trkpt lat="38.2780540" lon="-3.6347120">
        <ele>549.8</ele>
        <time>2018-06-16T08:43:58Z</time>
      </trkpt>
      <trkpt lat="38.2780420" lon="-3.6346870">
        <ele>550.0</ele>
        <time>2018-06-16T08:43:59Z</time>
      </trkpt>
      <trkpt lat="38.2780300" lon="-3.6346630">
        <ele>550.2</ele>
        <time>2018-06-16T08:44:00Z</time>
      </trkpt>
      <trkpt lat="38.2780180" lon="-3.6346360">
        <ele>550.4</ele>
        <time>2018-06-16T08:44:01Z</time>
      </trkpt>
      <trkpt lat="38.2780050" lon="-3.6346120">
        <ele>550.4</ele>
        <time>2018-06-16T08:44:02Z</time>
      </trkpt>
      <trkpt lat="38.2779920" lon="-3.6345870">
        <ele>550.6</ele>
        <time>2018-06-16T08:44:03Z</time>
      </trkpt>
      <trkpt lat="38.2779780" lon="-3.6345630">
        <ele>550.8</ele>
        <time>2018-06-16T08:44:04Z</time>
      </trkpt>
      <trkpt lat="38.2779680" lon="-3.6345380">
        <ele>551.0</ele>
        <time>2018-06-16T08:44:05Z</time>
      </trkpt>
      <trkpt lat="38.2779560" lon="-3.6345150">
        <ele>551.2</ele>
        <time>2018-06-16T08:44:06Z</time>
      </trkpt>
      <trkpt lat="38.2779420" lon="-3.6344930">
        <ele>551.2</ele>
        <time>2018-06-16T08:44:07Z</time>
      </trkpt>
      <trkpt lat="38.2779270" lon="-3.6344710">
        <ele>551.4</ele>
        <time>2018-06-16T08:44:08Z</time>
      </trkpt>
      <trkpt lat="38.2779120" lon="-3.6344500">
        <ele>551.4</ele>
        <time>2018-06-16T08:44:09Z</time>
      </trkpt>
      <trkpt lat="38.2778980" lon="-3.6344260">
        <ele>551.6</ele>
        <time>2018-06-16T08:44:10Z</time>
      </trkpt>
      <trkpt lat="38.2778860" lon="-3.6344010">
        <ele>551.8</ele>
        <time>2018-06-16T08:44:11Z</time>
      </trkpt>
      <trkpt lat="38.2778730" lon="-3.6343790">
        <ele>552.0</ele>
        <time>2018-06-16T08:44:12Z</time>
      </trkpt>
      <trkpt lat="38.2778600" lon="-3.6343570">
        <ele>552.2</ele>
        <time>2018-06-16T08:44:13Z</time>
      </trkpt>
      <trkpt lat="38.2778470" lon="-3.6343340">
        <ele>552.4</ele>
        <time>2018-06-16T08:44:14Z</time>
      </trkpt>
      <trkpt lat="38.2778300" lon="-3.6343000">
        <ele>552.4</ele>
        <time>2018-06-16T08:44:15Z</time>
      </trkpt>
      <trkpt lat="38.2778240" lon="-3.6342890">
        <ele>552.6</ele>
        <time>2018-06-16T08:44:16Z</time>
      </trkpt>
      <trkpt lat="38.2778110" lon="-3.6342660">
        <ele>552.8</ele>
        <time>2018-06-16T08:44:17Z</time>
      </trkpt>
      <trkpt lat="38.2777980" lon="-3.6342430">
        <ele>553.0</ele>
        <time>2018-06-16T08:44:18Z</time>
      </trkpt>
      <trkpt lat="38.2777850" lon="-3.6342200">
        <ele>553.0</ele>
        <time>2018-06-16T08:44:19Z</time>
      </trkpt>
      <trkpt lat="38.2777720" lon="-3.6341980">
        <ele>553.4</ele>
        <time>2018-06-16T08:44:20Z</time>
      </trkpt>
      <trkpt lat="38.2777560" lon="-3.6341620">
        <ele>553.6</ele>
        <time>2018-06-16T08:44:21Z</time>
      </trkpt>
      <trkpt lat="38.2777510" lon="-3.6341510">
        <ele>553.8</ele>
        <time>2018-06-16T08:44:22Z</time>
      </trkpt>
      <trkpt lat="38.2777400" lon="-3.6341300">
        <ele>553.8</ele>
        <time>2018-06-16T08:44:23Z</time>
      </trkpt>
      <trkpt lat="38.2777270" lon="-3.6341100">
        <ele>554.0</ele>
        <time>2018-06-16T08:44:24Z</time>
      </trkpt>
      <trkpt lat="38.2777130" lon="-3.6340910">
        <ele>554.2</ele>
        <time>2018-06-16T08:44:25Z</time>
      </trkpt>
      <trkpt lat="38.2777000" lon="-3.6340710">
        <ele>554.4</ele>
        <time>2018-06-16T08:44:26Z</time>
      </trkpt>
      <trkpt lat="38.2776870" lon="-3.6340510">
        <ele>554.6</ele>
        <time>2018-06-16T08:44:27Z</time>
      </trkpt>
      <trkpt lat="38.2776750" lon="-3.6340300">
        <ele>554.8</ele>
        <time>2018-06-16T08:44:28Z</time>
      </trkpt>
      <trkpt lat="38.2776630" lon="-3.6340080">
        <ele>555.0</ele>
        <time>2018-06-16T08:44:29Z</time>
      </trkpt>
      <trkpt lat="38.2776500" lon="-3.6339880">
        <ele>555.2</ele>
        <time>2018-06-16T08:44:30Z</time>
      </trkpt>
      <trkpt lat="38.2776360" lon="-3.6339680">
        <ele>555.4</ele>
        <time>2018-06-16T08:44:31Z</time>
      </trkpt>
      <trkpt lat="38.2776230" lon="-3.6339460">
        <ele>555.4</ele>
        <time>2018-06-16T08:44:32Z</time>
      </trkpt>
      <trkpt lat="38.2776090" lon="-3.6339260">
        <ele>555.6</ele>
        <time>2018-06-16T08:44:33Z</time>
      </trkpt>
      <trkpt lat="38.2775940" lon="-3.6339060">
        <ele>555.8</ele>
        <time>2018-06-16T08:44:34Z</time>
      </trkpt>
      <trkpt lat="38.2775710" lon="-3.6338790">
        <ele>555.8</ele>
        <time>2018-06-16T08:44:35Z</time>
      </trkpt>
      <trkpt lat="38.2775630" lon="-3.6338710">
        <ele>556.0</ele>
        <time>2018-06-16T08:44:36Z</time>
      </trkpt>
      <trkpt lat="38.2775470" lon="-3.6338540">
        <ele>556.2</ele>
        <time>2018-06-16T08:44:37Z</time>
      </trkpt>
      <trkpt lat="38.2775300" lon="-3.6338380">
        <ele>556.4</ele>
        <time>2018-06-16T08:44:38Z</time>
      </trkpt>
      <trkpt lat="38.2775120" lon="-3.6338220">
        <ele>556.4</ele>
        <time>2018-06-16T08:44:39Z</time>
      </trkpt>
      <trkpt lat="38.2774940" lon="-3.6338070">
        <ele>556.6</ele>
        <time>2018-06-16T08:44:40Z</time>
      </trkpt>
      <trkpt lat="38.2774750" lon="-3.6337950">
        <ele>556.8</ele>
        <time>2018-06-16T08:44:41Z</time>
      </trkpt>
      <trkpt lat="38.2774490" lon="-3.6337730">
        <ele>557.0</ele>
        <time>2018-06-16T08:44:42Z</time>
      </trkpt>
      <trkpt lat="38.2774390" lon="-3.6337660">
        <ele>557.2</ele>
        <time>2018-06-16T08:44:43Z</time>
      </trkpt>
      <trkpt lat="38.2774200" lon="-3.6337540">
        <ele>557.4</ele>
        <time>2018-06-16T08:44:44Z</time>
      </trkpt>
      <trkpt lat="38.2774020" lon="-3.6337400">
        <ele>557.4</ele>
        <time>2018-06-16T08:44:45Z</time>
      </trkpt>
      <trkpt lat="38.2773820" lon="-3.6337270">
        <ele>557.8</ele>
        <time>2018-06-16T08:44:46Z</time>
      </trkpt>
      <trkpt lat="38.2773630" lon="-3.6337150">
        <ele>557.8</ele>
        <time>2018-06-16T08:44:47Z</time>
      </trkpt>
      <trkpt lat="38.2773450" lon="-3.6337020">
        <ele>558.0</ele>
        <time>2018-06-16T08:44:48Z</time>
      </trkpt>
      <trkpt lat="38.2773180" lon="-3.6336820">
        <ele>558.2</ele>
        <time>2018-06-16T08:44:49Z</time>
      </trkpt>
      <trkpt lat="38.2773090" lon="-3.6336760">
        <ele>558.4</ele>
        <time>2018-06-16T08:44:50Z</time>
      </trkpt>
      <trkpt lat="38.2772910" lon="-3.6336620">
        <ele>558.4</ele>
        <time>2018-06-16T08:44:51Z</time>
      </trkpt>
      <trkpt lat="38.2772730" lon="-3.6336480">
        <ele>558.6</ele>
        <time>2018-06-16T08:44:52Z</time>
      </trkpt>
      <trkpt lat="38.2772550" lon="-3.6336350">
        <ele>558.8</ele>
        <time>2018-06-16T08:44:53Z</time>
      </trkpt>
      <trkpt lat="38.2772360" lon="-3.6336220">
        <ele>559.0</ele>
        <time>2018-06-16T08:44:54Z</time>
      </trkpt>
      <trkpt lat="38.2772170" lon="-3.6336080">
        <ele>559.0</ele>
        <time>2018-06-16T08:44:55Z</time>
      </trkpt>
      <trkpt lat="38.2771980" lon="-3.6335940">
        <ele>559.2</ele>
        <time>2018-06-16T08:44:56Z</time>
      </trkpt>
      <trkpt lat="38.2771790" lon="-3.6335790">
        <ele>559.4</ele>
        <time>2018-06-16T08:44:57Z</time>
      </trkpt>
      <trkpt lat="38.2771590" lon="-3.6335630">
        <ele>559.4</ele>
        <time>2018-06-16T08:44:58Z</time>
      </trkpt>
      <trkpt lat="38.2771400" lon="-3.6335470">
        <ele>559.6</ele>
        <time>2018-06-16T08:44:59Z</time>
      </trkpt>
      <trkpt lat="38.2771080" lon="-3.6335240">
        <ele>559.8</ele>
        <time>2018-06-16T08:45:00Z</time>
      </trkpt>
      <trkpt lat="38.2770950" lon="-3.6335140">
        <ele>560.0</ele>
        <time>2018-06-16T08:45:01Z</time>
      </trkpt>
      <trkpt lat="38.2770820" lon="-3.6335050">
        <ele>560.0</ele>
        <time>2018-06-16T08:45:02Z</time>
      </trkpt>
      <trkpt lat="38.2770630" lon="-3.6334900">
        <ele>560.2</ele>
        <time>2018-06-16T08:45:03Z</time>
      </trkpt>
      <trkpt lat="38.2770440" lon="-3.6334750">
        <ele>560.4</ele>
        <time>2018-06-16T08:45:04Z</time>
      </trkpt>
      <trkpt lat="38.2770140" lon="-3.6334540">
        <ele>560.6</ele>
        <time>2018-06-16T08:45:05Z</time>
      </trkpt>
      <trkpt lat="38.2770040" lon="-3.6334470">
        <ele>560.6</ele>
        <time>2018-06-16T08:45:06Z</time>
      </trkpt>
      <trkpt lat="38.2769860" lon="-3.6334330">
        <ele>561.0</ele>
        <time>2018-06-16T08:45:07Z</time>
      </trkpt>
      <trkpt lat="38.2769670" lon="-3.6334180">
        <ele>560.8</ele>
        <time>2018-06-16T08:45:08Z</time>
      </trkpt>
      <trkpt lat="38.2769390" lon="-3.6333950">
        <ele>561.2</ele>
        <time>2018-06-16T08:45:09Z</time>
      </trkpt>
      <trkpt lat="38.2769290" lon="-3.6333880">
        <ele>561.2</ele>
        <time>2018-06-16T08:45:10Z</time>
      </trkpt>
      <trkpt lat="38.2769090" lon="-3.6333730">
        <ele>561.4</ele>
        <time>2018-06-16T08:45:11Z</time>
      </trkpt>
      <trkpt lat="38.2768900" lon="-3.6333570">
        <ele>561.8</ele>
        <time>2018-06-16T08:45:12Z</time>
      </trkpt>
      <trkpt lat="38.2768710" lon="-3.6333410">
        <ele>561.8</ele>
        <time>2018-06-16T08:45:13Z</time>
      </trkpt>
      <trkpt lat="38.2768410" lon="-3.6333190">
        <ele>561.8</ele>
        <time>2018-06-16T08:45:14Z</time>
      </trkpt>
      <trkpt lat="38.2768310" lon="-3.6333130">
        <ele>562.2</ele>
        <time>2018-06-16T08:45:15Z</time>
      </trkpt>
      <trkpt lat="38.2768120" lon="-3.6332990">
        <ele>562.2</ele>
        <time>2018-06-16T08:45:16Z</time>
      </trkpt>
      <trkpt lat="38.2767930" lon="-3.6332830">
        <ele>562.4</ele>
        <time>2018-06-16T08:45:17Z</time>
      </trkpt>
      <trkpt lat="38.2767740" lon="-3.6332650">
        <ele>562.6</ele>
        <time>2018-06-16T08:45:18Z</time>
      </trkpt>
      <trkpt lat="38.2767540" lon="-3.6332500">
        <ele>562.6</ele>
        <time>2018-06-16T08:45:19Z</time>
      </trkpt>
      <trkpt lat="38.2767340" lon="-3.6332340">
        <ele>562.8</ele>
        <time>2018-06-16T08:45:20Z</time>
      </trkpt>
      <trkpt lat="38.2767130" lon="-3.6332210">
        <ele>563.0</ele>
        <time>2018-06-16T08:45:21Z</time>
      </trkpt>
      <trkpt lat="38.2766920" lon="-3.6332060">
        <ele>563.0</ele>
        <time>2018-06-16T08:45:22Z</time>
      </trkpt>
      <trkpt lat="38.2766620" lon="-3.6331810">
        <ele>563.0</ele>
        <time>2018-06-16T08:45:23Z</time>
      </trkpt>
      <trkpt lat="38.2766520" lon="-3.6331730">
        <ele>563.0</ele>
        <time>2018-06-16T08:45:24Z</time>
      </trkpt>
      <trkpt lat="38.2766300" lon="-3.6331580">
        <ele>563.0</ele>
        <time>2018-06-16T08:45:25Z</time>
      </trkpt>
      <trkpt lat="38.2766060" lon="-3.6331420">
        <ele>562.8</ele>
        <time>2018-06-16T08:45:26Z</time>
      </trkpt>
      <trkpt lat="38.2765830" lon="-3.6331260">
        <ele>563.0</ele>
        <time>2018-06-16T08:45:27Z</time>
      </trkpt>
      <trkpt lat="38.2765600" lon="-3.6331090">
        <ele>563.0</ele>
        <time>2018-06-16T08:45:28Z</time>
      </trkpt>
      <trkpt lat="38.2765380" lon="-3.6330920">
        <ele>563.0</ele>
        <time>2018-06-16T08:45:29Z</time>
      </trkpt>
      <trkpt lat="38.2765160" lon="-3.6330750">
        <ele>563.0</ele>
        <time>2018-06-16T08:45:30Z</time>
      </trkpt>
      <trkpt lat="38.2764940" lon="-3.6330570">
        <ele>563.0</ele>
        <time>2018-06-16T08:45:31Z</time>
      </trkpt>
      <trkpt lat="38.2764730" lon="-3.6330400">
        <ele>563.2</ele>
        <time>2018-06-16T08:45:32Z</time>
      </trkpt>
      <trkpt lat="38.2764540" lon="-3.6330230">
        <ele>563.2</ele>
        <time>2018-06-16T08:45:33Z</time>
      </trkpt>
      <trkpt lat="38.2764350" lon="-3.6330030">
        <ele>563.2</ele>
        <time>2018-06-16T08:45:34Z</time>
      </trkpt>
      <trkpt lat="38.2764180" lon="-3.6329820">
        <ele>563.2</ele>
        <time>2018-06-16T08:45:35Z</time>
      </trkpt>
      <trkpt lat="38.2764000" lon="-3.6329630">
        <ele>563.2</ele>
        <time>2018-06-16T08:45:36Z</time>
      </trkpt>
      <trkpt lat="38.2763810" lon="-3.6329430">
        <ele>563.2</ele>
        <time>2018-06-16T08:45:37Z</time>
      </trkpt>
      <trkpt lat="38.2763630" lon="-3.6329200">
        <ele>563.2</ele>
        <time>2018-06-16T08:45:38Z</time>
      </trkpt>
      <trkpt lat="38.2763460" lon="-3.6328950">
        <ele>563.0</ele>
        <time>2018-06-16T08:45:39Z</time>
      </trkpt>
      <trkpt lat="38.2763270" lon="-3.6328660">
        <ele>562.8</ele>
        <time>2018-06-16T08:45:40Z</time>
      </trkpt>
      <trkpt lat="38.2763070" lon="-3.6328320">
        <ele>562.6</ele>
        <time>2018-06-16T08:45:41Z</time>
      </trkpt>
      <trkpt lat="38.2762870" lon="-3.6327920">
        <ele>562.2</ele>
        <time>2018-06-16T08:45:42Z</time>
      </trkpt>
      <trkpt lat="38.2762650" lon="-3.6327450">
        <ele>561.8</ele>
        <time>2018-06-16T08:45:43Z</time>
      </trkpt>
      <trkpt lat="38.2762430" lon="-3.6326910">
        <ele>561.4</ele>
        <time>2018-06-16T08:45:44Z</time>
      </trkpt>
      <trkpt lat="38.2762190" lon="-3.6326300">
        <ele>561.0</ele>
        <time>2018-06-16T08:45:45Z</time>
      </trkpt>
      <trkpt lat="38.2761910" lon="-3.6325640">
        <ele>560.4</ele>
        <time>2018-06-16T08:45:46Z</time>
      </trkpt>
      <trkpt lat="38.2761580" lon="-3.6324950">
        <ele>559.8</ele>
        <time>2018-06-16T08:45:47Z</time>
      </trkpt>
      <trkpt lat="38.2761170" lon="-3.6324230">
        <ele>559.4</ele>
        <time>2018-06-16T08:45:48Z</time>
      </trkpt>
      <trkpt lat="38.2760700" lon="-3.6323520">
        <ele>559.0</ele>
        <time>2018-06-16T08:45:49Z</time>
      </trkpt>
      <trkpt lat="38.2760170" lon="-3.6322820">
        <ele>559.0</ele>
        <time>2018-06-16T08:45:50Z</time>
      </trkpt>
      <trkpt lat="38.2759600" lon="-3.6322170">
        <ele>558.8</ele>
        <time>2018-06-16T08:45:51Z</time>
      </trkpt>
      <trkpt lat="38.2759010" lon="-3.6321580">
        <ele>558.8</ele>
        <time>2018-06-16T08:45:52Z</time>
      </trkpt>
      <trkpt lat="38.2758410" lon="-3.6321060">
        <ele>558.8</ele>
        <time>2018-06-16T08:45:53Z</time>
      </trkpt>
      <trkpt lat="38.2757810" lon="-3.6320600">
        <ele>559.0</ele>
        <time>2018-06-16T08:45:54Z</time>
      </trkpt>
      <trkpt lat="38.2757220" lon="-3.6320190">
        <ele>559.0</ele>
        <time>2018-06-16T08:45:55Z</time>
      </trkpt>
      <trkpt lat="38.2756640" lon="-3.6319800">
        <ele>559.2</ele>
        <time>2018-06-16T08:45:56Z</time>
      </trkpt>
      <trkpt lat="38.2756090" lon="-3.6319440">
        <ele>559.4</ele>
        <time>2018-06-16T08:45:57Z</time>
      </trkpt>
      <trkpt lat="38.2755590" lon="-3.6319090">
        <ele>559.8</ele>
        <time>2018-06-16T08:45:58Z</time>
      </trkpt>
      <trkpt lat="38.2755120" lon="-3.6318770">
        <ele>560.0</ele>
        <time>2018-06-16T08:45:59Z</time>
      </trkpt>
      <trkpt lat="38.2754680" lon="-3.6318460">
        <ele>560.0</ele>
        <time>2018-06-16T08:46:00Z</time>
      </trkpt>
      <trkpt lat="38.2754270" lon="-3.6318120">
        <ele>560.2</ele>
        <time>2018-06-16T08:46:01Z</time>
      </trkpt>
      <trkpt lat="38.2753870" lon="-3.6317760">
        <ele>560.4</ele>
        <time>2018-06-16T08:46:02Z</time>
      </trkpt>
      <trkpt lat="38.2753480" lon="-3.6317390">
        <ele>560.6</ele>
        <time>2018-06-16T08:46:03Z</time>
      </trkpt>
      <trkpt lat="38.2753110" lon="-3.6316990">
        <ele>560.6</ele>
        <time>2018-06-16T08:46:04Z</time>
      </trkpt>
      <trkpt lat="38.2752760" lon="-3.6316580">
        <ele>561.0</ele>
        <time>2018-06-16T08:46:05Z</time>
      </trkpt>
      <trkpt lat="38.2752410" lon="-3.6316140">
        <ele>560.8</ele>
        <time>2018-06-16T08:46:06Z</time>
      </trkpt>
      <trkpt lat="38.2752090" lon="-3.6315670">
        <ele>560.8</ele>
        <time>2018-06-16T08:46:07Z</time>
      </trkpt>
      <trkpt lat="38.2751800" lon="-3.6315170">
        <ele>561.0</ele>
        <time>2018-06-16T08:46:08Z</time>
      </trkpt>
      <trkpt lat="38.2751550" lon="-3.6314670">
        <ele>561.4</ele>
        <time>2018-06-16T08:46:09Z</time>
      </trkpt>
      <trkpt lat="38.2751330" lon="-3.6314160">
        <ele>561.6</ele>
        <time>2018-06-16T08:46:10Z</time>
      </trkpt>
      <trkpt lat="38.2751130" lon="-3.6313650">
        <ele>561.8</ele>
        <time>2018-06-16T08:46:11Z</time>
      </trkpt>
      <trkpt lat="38.2750980" lon="-3.6313130">
        <ele>562.0</ele>
        <time>2018-06-16T08:46:12Z</time>
      </trkpt>
      <trkpt lat="38.2750860" lon="-3.6312590">
        <ele>562.4</ele>
        <time>2018-06-16T08:46:13Z</time>
      </trkpt>
      <trkpt lat="38.2750770" lon="-3.6312070">
        <ele>562.6</ele>
        <time>2018-06-16T08:46:14Z</time>
      </trkpt>
      <trkpt lat="38.2750710" lon="-3.6311570">
        <ele>563.0</ele>
        <time>2018-06-16T08:46:15Z</time>
      </trkpt>
      <trkpt lat="38.2750650" lon="-3.6311080">
        <ele>563.4</ele>
        <time>2018-06-16T08:46:16Z</time>
      </trkpt>
      <trkpt lat="38.2750590" lon="-3.6310590">
        <ele>563.2</ele>
        <time>2018-06-16T08:46:17Z</time>
      </trkpt>
      <trkpt lat="38.2750550" lon="-3.6310100">
        <ele>563.2</ele>
        <time>2018-06-16T08:46:18Z</time>
      </trkpt>
      <trkpt lat="38.2750530" lon="-3.6309590">
        <ele>563.6</ele>
        <time>2018-06-16T08:46:19Z</time>
      </trkpt>
      <trkpt lat="38.2750530" lon="-3.6309080">
        <ele>563.8</ele>
        <time>2018-06-16T08:46:20Z</time>
      </trkpt>
      <trkpt lat="38.2750550" lon="-3.6308060">
        <ele>564.0</ele>
        <time>2018-06-16T08:46:21Z</time>
      </trkpt>
      <trkpt lat="38.2750550" lon="-3.6308060">
        <ele>564.4</ele>
        <time>2018-06-16T08:46:22Z</time>
      </trkpt>
      <trkpt lat="38.2750560" lon="-3.6307570">
        <ele>564.6</ele>
        <time>2018-06-16T08:46:23Z</time>
      </trkpt>
      <trkpt lat="38.2750570" lon="-3.6307090">
        <ele>564.8</ele>
        <time>2018-06-16T08:46:24Z</time>
      </trkpt>
      <trkpt lat="38.2750580" lon="-3.6306610">
        <ele>565.2</ele>
        <time>2018-06-16T08:46:25Z</time>
      </trkpt>
      <trkpt lat="38.2750600" lon="-3.6306140">
        <ele>565.6</ele>
        <time>2018-06-16T08:46:26Z</time>
      </trkpt>
      <trkpt lat="38.2750610" lon="-3.6305680">
        <ele>566.0</ele>
        <time>2018-06-16T08:46:27Z</time>
      </trkpt>
      <trkpt lat="38.2750600" lon="-3.6305210">
        <ele>566.2</ele>
        <time>2018-06-16T08:46:28Z</time>
      </trkpt>
      <trkpt lat="38.2750570" lon="-3.6304720">
        <ele>566.4</ele>
        <time>2018-06-16T08:46:29Z</time>
      </trkpt>
      <trkpt lat="38.2750500" lon="-3.6304230">
        <ele>566.6</ele>
        <time>2018-06-16T08:46:30Z</time>
      </trkpt>
      <trkpt lat="38.2750410" lon="-3.6303750">
        <ele>566.6</ele>
        <time>2018-06-16T08:46:31Z</time>
      </trkpt>
      <trkpt lat="38.2750270" lon="-3.6303260">
        <ele>566.6</ele>
        <time>2018-06-16T08:46:32Z</time>
      </trkpt>
      <trkpt lat="38.2750070" lon="-3.6302800">
        <ele>566.8</ele>
        <time>2018-06-16T08:46:33Z</time>
      </trkpt>
      <trkpt lat="38.2749840" lon="-3.6302340">
        <ele>566.6</ele>
        <time>2018-06-16T08:46:34Z</time>
      </trkpt>
      <trkpt lat="38.2749560" lon="-3.6301930">
        <ele>566.2</ele>
        <time>2018-06-16T08:46:35Z</time>
      </trkpt>
      <trkpt lat="38.2749200" lon="-3.6301570">
        <ele>566.0</ele>
        <time>2018-06-16T08:46:36Z</time>
      </trkpt>
      <trkpt lat="38.2748780" lon="-3.6301250">
        <ele>565.8</ele>
        <time>2018-06-16T08:46:37Z</time>
      </trkpt>
      <trkpt lat="38.2748320" lon="-3.6300960">
        <ele>565.4</ele>
        <time>2018-06-16T08:46:38Z</time>
      </trkpt>
      <trkpt lat="38.2747820" lon="-3.6300680">
        <ele>565.2</ele>
        <time>2018-06-16T08:46:39Z</time>
      </trkpt>
      <trkpt lat="38.2747290" lon="-3.6300390">
        <ele>565.0</ele>
        <time>2018-06-16T08:46:40Z</time>
      </trkpt>
      <trkpt lat="38.2746740" lon="-3.6300080">
        <ele>564.6</ele>
        <time>2018-06-16T08:46:41Z</time>
      </trkpt>
      <trkpt lat="38.2746170" lon="-3.6299730">
        <ele>564.6</ele>
        <time>2018-06-16T08:46:42Z</time>
      </trkpt>
      <trkpt lat="38.2745600" lon="-3.6299360">
        <ele>564.4</ele>
        <time>2018-06-16T08:46:43Z</time>
      </trkpt>
      <trkpt lat="38.2745030" lon="-3.6298960">
        <ele>564.2</ele>
        <time>2018-06-16T08:46:44Z</time>
      </trkpt>
      <trkpt lat="38.2744490" lon="-3.6298530">
        <ele>564.2</ele>
        <time>2018-06-16T08:46:45Z</time>
      </trkpt>
      <trkpt lat="38.2743980" lon="-3.6298050">
        <ele>564.2</ele>
        <time>2018-06-16T08:46:46Z</time>
      </trkpt>
      <trkpt lat="38.2743500" lon="-3.6297570">
        <ele>564.2</ele>
        <time>2018-06-16T08:46:47Z</time>
      </trkpt>
      <trkpt lat="38.2743040" lon="-3.6297100">
        <ele>564.4</ele>
        <time>2018-06-16T08:46:48Z</time>
      </trkpt>
      <trkpt lat="38.2742630" lon="-3.6296670">
        <ele>564.4</ele>
        <time>2018-06-16T08:46:49Z</time>
      </trkpt>
      <trkpt lat="38.2742250" lon="-3.6296240">
        <ele>564.6</ele>
        <time>2018-06-16T08:46:50Z</time>
      </trkpt>
      <trkpt lat="38.2741870" lon="-3.6295810">
        <ele>564.8</ele>
        <time>2018-06-16T08:46:51Z</time>
      </trkpt>
      <trkpt lat="38.2741500" lon="-3.6295400">
        <ele>565.0</ele>
        <time>2018-06-16T08:46:52Z</time>
      </trkpt>
      <trkpt lat="38.2741120" lon="-3.6294990">
        <ele>564.8</ele>
        <time>2018-06-16T08:46:53Z</time>
      </trkpt>
      <trkpt lat="38.2740760" lon="-3.6294560">
        <ele>564.8</ele>
        <time>2018-06-16T08:46:54Z</time>
      </trkpt>
      <trkpt lat="38.2740420" lon="-3.6294120">
        <ele>565.0</ele>
        <time>2018-06-16T08:46:55Z</time>
      </trkpt>
      <trkpt lat="38.2740090" lon="-3.6293680">
        <ele>565.0</ele>
        <time>2018-06-16T08:46:56Z</time>
      </trkpt>
      <trkpt lat="38.2739790" lon="-3.6293250">
        <ele>565.2</ele>
        <time>2018-06-16T08:46:57Z</time>
      </trkpt>
      <trkpt lat="38.2739510" lon="-3.6292830">
        <ele>565.6</ele>
        <time>2018-06-16T08:46:58Z</time>
      </trkpt>
      <trkpt lat="38.2739250" lon="-3.6292430">
        <ele>565.8</ele>
        <time>2018-06-16T08:46:59Z</time>
      </trkpt>
      <trkpt lat="38.2739050" lon="-3.6292030">
        <ele>566.0</ele>
        <time>2018-06-16T08:47:00Z</time>
      </trkpt>
      <trkpt lat="38.2738860" lon="-3.6291680">
        <ele>566.2</ele>
        <time>2018-06-16T08:47:01Z</time>
      </trkpt>
      <trkpt lat="38.2738700" lon="-3.6291370">
        <ele>566.4</ele>
        <time>2018-06-16T08:47:02Z</time>
      </trkpt>
      <trkpt lat="38.2738570" lon="-3.6291090">
        <ele>566.8</ele>
        <time>2018-06-16T08:47:03Z</time>
      </trkpt>
      <trkpt lat="38.2738440" lon="-3.6290840">
        <ele>567.0</ele>
        <time>2018-06-16T08:47:04Z</time>
      </trkpt>
      <trkpt lat="38.2738290" lon="-3.6290600">
        <ele>567.2</ele>
        <time>2018-06-16T08:47:05Z</time>
      </trkpt>
      <trkpt lat="38.2738150" lon="-3.6290370">
        <ele>567.4</ele>
        <time>2018-06-16T08:47:06Z</time>
      </trkpt>
      <trkpt lat="38.2738000" lon="-3.6290150">
        <ele>567.8</ele>
        <time>2018-06-16T08:47:07Z</time>
      </trkpt>
      <trkpt lat="38.2737840" lon="-3.6289930">
        <ele>568.0</ele>
        <time>2018-06-16T08:47:08Z</time>
      </trkpt>
      <trkpt lat="38.2737680" lon="-3.6289710">
        <ele>568.2</ele>
        <time>2018-06-16T08:47:09Z</time>
      </trkpt>
      <trkpt lat="38.2737450" lon="-3.6289380">
        <ele>568.4</ele>
        <time>2018-06-16T08:47:10Z</time>
      </trkpt>
      <trkpt lat="38.2737370" lon="-3.6289280">
        <ele>568.8</ele>
        <time>2018-06-16T08:47:11Z</time>
      </trkpt>
      <trkpt lat="38.2737200" lon="-3.6289080">
        <ele>569.0</ele>
        <time>2018-06-16T08:47:12Z</time>
      </trkpt>
      <trkpt lat="38.2737030" lon="-3.6288890">
        <ele>569.4</ele>
        <time>2018-06-16T08:47:13Z</time>
      </trkpt>
      <trkpt lat="38.2736840" lon="-3.6288690">
        <ele>569.6</ele>
        <time>2018-06-16T08:47:14Z</time>
      </trkpt>
      <trkpt lat="38.2736650" lon="-3.6288530">
        <ele>569.8</ele>
        <time>2018-06-16T08:47:15Z</time>
      </trkpt>
      <trkpt lat="38.2736450" lon="-3.6288400">
        <ele>570.0</ele>
        <time>2018-06-16T08:47:16Z</time>
      </trkpt>
      <trkpt lat="38.2736230" lon="-3.6288270">
        <ele>570.2</ele>
        <time>2018-06-16T08:47:17Z</time>
      </trkpt>
      <trkpt lat="38.2736010" lon="-3.6288160">
        <ele>570.2</ele>
        <time>2018-06-16T08:47:18Z</time>
      </trkpt>
      <trkpt lat="38.2735800" lon="-3.6288070">
        <ele>570.4</ele>
        <time>2018-06-16T08:47:19Z</time>
      </trkpt>
      <trkpt lat="38.2735580" lon="-3.6287960">
        <ele>570.6</ele>
        <time>2018-06-16T08:47:20Z</time>
      </trkpt>
      <trkpt lat="38.2735350" lon="-3.6287880">
        <ele>570.8</ele>
        <time>2018-06-16T08:47:21Z</time>
      </trkpt>
      <trkpt lat="38.2735110" lon="-3.6287830">
        <ele>570.8</ele>
        <time>2018-06-16T08:47:22Z</time>
      </trkpt>
      <trkpt lat="38.2734880" lon="-3.6287790">
        <ele>571.0</ele>
        <time>2018-06-16T08:47:23Z</time>
      </trkpt>
      <trkpt lat="38.2734630" lon="-3.6287750">
        <ele>571.2</ele>
        <time>2018-06-16T08:47:24Z</time>
      </trkpt>
      <trkpt lat="38.2734390" lon="-3.6287700">
        <ele>571.4</ele>
        <time>2018-06-16T08:47:25Z</time>
      </trkpt>
      <trkpt lat="38.2734140" lon="-3.6287670">
        <ele>571.4</ele>
        <time>2018-06-16T08:47:26Z</time>
      </trkpt>
      <trkpt lat="38.2733900" lon="-3.6287680">
        <ele>571.6</ele>
        <time>2018-06-16T08:47:27Z</time>
      </trkpt>
      <trkpt lat="38.2733650" lon="-3.6287690">
        <ele>571.6</ele>
        <time>2018-06-16T08:47:28Z</time>
      </trkpt>
      <trkpt lat="38.2733410" lon="-3.6287700">
        <ele>571.8</ele>
        <time>2018-06-16T08:47:29Z</time>
      </trkpt>
      <trkpt lat="38.2733160" lon="-3.6287710">
        <ele>571.8</ele>
        <time>2018-06-16T08:47:30Z</time>
      </trkpt>
      <trkpt lat="38.2732650" lon="-3.6287720">
        <ele>571.6</ele>
        <time>2018-06-16T08:47:31Z</time>
      </trkpt>
      <trkpt lat="38.2732650" lon="-3.6287720">
        <ele>571.8</ele>
        <time>2018-06-16T08:47:32Z</time>
      </trkpt>
      <trkpt lat="38.2732390" lon="-3.6287750">
        <ele>571.8</ele>
        <time>2018-06-16T08:47:33Z</time>
      </trkpt>
      <trkpt lat="38.2732140" lon="-3.6287760">
        <ele>572.0</ele>
        <time>2018-06-16T08:47:34Z</time>
      </trkpt>
      <trkpt lat="38.2731880" lon="-3.6287750">
        <ele>572.0</ele>
        <time>2018-06-16T08:47:35Z</time>
      </trkpt>
      <trkpt lat="38.2731620" lon="-3.6287700">
        <ele>572.0</ele>
        <time>2018-06-16T08:47:36Z</time>
      </trkpt>
      <trkpt lat="38.2731360" lon="-3.6287660">
        <ele>572.0</ele>
        <time>2018-06-16T08:47:37Z</time>
      </trkpt>
      <trkpt lat="38.2731090" lon="-3.6287640">
        <ele>572.0</ele>
        <time>2018-06-16T08:47:38Z</time>
      </trkpt>
      <trkpt lat="38.2730830" lon="-3.6287620">
        <ele>572.0</ele>
        <time>2018-06-16T08:47:39Z</time>
      </trkpt>
      <trkpt lat="38.2730570" lon="-3.6287590">
        <ele>572.0</ele>
        <time>2018-06-16T08:47:40Z</time>
      </trkpt>
      <trkpt lat="38.2730290" lon="-3.6287570">
        <ele>572.0</ele>
        <time>2018-06-16T08:47:41Z</time>
      </trkpt>
      <trkpt lat="38.2730000" lon="-3.6287540">
        <ele>572.0</ele>
        <time>2018-06-16T08:47:42Z</time>
      </trkpt>
      <trkpt lat="38.2729680" lon="-3.6287500">
        <ele>572.0</ele>
        <time>2018-06-16T08:47:43Z</time>
      </trkpt>
      <trkpt lat="38.2729360" lon="-3.6287430">
        <ele>571.8</ele>
        <time>2018-06-16T08:47:44Z</time>
      </trkpt>
      <trkpt lat="38.2729010" lon="-3.6287370">
        <ele>571.6</ele>
        <time>2018-06-16T08:47:45Z</time>
      </trkpt>
      <trkpt lat="38.2728640" lon="-3.6287300">
        <ele>571.6</ele>
        <time>2018-06-16T08:47:46Z</time>
      </trkpt>
      <trkpt lat="38.2727830" lon="-3.6287210">
        <ele>571.4</ele>
        <time>2018-06-16T08:47:47Z</time>
      </trkpt>
      <trkpt lat="38.2727830" lon="-3.6287210">
        <ele>571.2</ele>
        <time>2018-06-16T08:47:48Z</time>
      </trkpt>
      <trkpt lat="38.2727390" lon="-3.6287200">
        <ele>571.2</ele>
        <time>2018-06-16T08:47:49Z</time>
      </trkpt>
      <trkpt lat="38.2726920" lon="-3.6287170">
        <ele>571.0</ele>
        <time>2018-06-16T08:47:50Z</time>
      </trkpt>
      <trkpt lat="38.2726430" lon="-3.6287110">
        <ele>570.8</ele>
        <time>2018-06-16T08:47:51Z</time>
      </trkpt>
      <trkpt lat="38.2725900" lon="-3.6287040">
        <ele>570.4</ele>
        <time>2018-06-16T08:47:52Z</time>
      </trkpt>
      <trkpt lat="38.2725330" lon="-3.6286950">
        <ele>569.8</ele>
        <time>2018-06-16T08:47:53Z</time>
      </trkpt>
      <trkpt lat="38.2724720" lon="-3.6286850">
        <ele>569.4</ele>
        <time>2018-06-16T08:47:54Z</time>
      </trkpt>
      <trkpt lat="38.2724060" lon="-3.6286730">
        <ele>568.8</ele>
        <time>2018-06-16T08:47:55Z</time>
      </trkpt>
      <trkpt lat="38.2723360" lon="-3.6286580">
        <ele>568.2</ele>
        <time>2018-06-16T08:47:56Z</time>
      </trkpt>
      <trkpt lat="38.2722620" lon="-3.6286390">
        <ele>567.4</ele>
        <time>2018-06-16T08:47:57Z</time>
      </trkpt>
      <trkpt lat="38.2721820" lon="-3.6286150">
        <ele>566.6</ele>
        <time>2018-06-16T08:47:58Z</time>
      </trkpt>
      <trkpt lat="38.2720990" lon="-3.6285860">
        <ele>565.8</ele>
        <time>2018-06-16T08:47:59Z</time>
      </trkpt>
      <trkpt lat="38.2720120" lon="-3.6285510">
        <ele>564.4</ele>
        <time>2018-06-16T08:48:00Z</time>
      </trkpt>
      <trkpt lat="38.2719220" lon="-3.6285090">
        <ele>563.4</ele>
        <time>2018-06-16T08:48:01Z</time>
      </trkpt>
      <trkpt lat="38.2718300" lon="-3.6284560">
        <ele>562.8</ele>
        <time>2018-06-16T08:48:02Z</time>
      </trkpt>
      <trkpt lat="38.2717360" lon="-3.6283970">
        <ele>561.6</ele>
        <time>2018-06-16T08:48:03Z</time>
      </trkpt>
      <trkpt lat="38.2716400" lon="-3.6283350">
        <ele>560.4</ele>
        <time>2018-06-16T08:48:04Z</time>
      </trkpt>
      <trkpt lat="38.2715420" lon="-3.6282660">
        <ele>559.8</ele>
        <time>2018-06-16T08:48:05Z</time>
      </trkpt>
      <trkpt lat="38.2714470" lon="-3.6281900">
        <ele>559.0</ele>
        <time>2018-06-16T08:48:06Z</time>
      </trkpt>
      <trkpt lat="38.2713530" lon="-3.6281090">
        <ele>558.4</ele>
        <time>2018-06-16T08:48:07Z</time>
      </trkpt>
      <trkpt lat="38.2712620" lon="-3.6280210">
        <ele>557.6</ele>
        <time>2018-06-16T08:48:08Z</time>
      </trkpt>
      <trkpt lat="38.2711750" lon="-3.6279260">
        <ele>557.0</ele>
        <time>2018-06-16T08:48:09Z</time>
      </trkpt>
      <trkpt lat="38.2710880" lon="-3.6278270">
        <ele>556.2</ele>
        <time>2018-06-16T08:48:10Z</time>
      </trkpt>
      <trkpt lat="38.2710020" lon="-3.6277240">
        <ele>555.2</ele>
        <time>2018-06-16T08:48:11Z</time>
      </trkpt>
      <trkpt lat="38.2709170" lon="-3.6276200">
        <ele>554.6</ele>
        <time>2018-06-16T08:48:12Z</time>
      </trkpt>
      <trkpt lat="38.2707410" lon="-3.6274120">
        <ele>553.6</ele>
        <time>2018-06-16T08:48:13Z</time>
      </trkpt>
      <trkpt lat="38.2707410" lon="-3.6274120">
        <ele>553.0</ele>
        <time>2018-06-16T08:48:14Z</time>
      </trkpt>
      <trkpt lat="38.2706520" lon="-3.6273090">
        <ele>552.2</ele>
        <time>2018-06-16T08:48:15Z</time>
      </trkpt>
      <trkpt lat="38.2705620" lon="-3.6272040">
        <ele>551.2</ele>
        <time>2018-06-16T08:48:16Z</time>
      </trkpt>
      <trkpt lat="38.2704710" lon="-3.6270990">
        <ele>550.2</ele>
        <time>2018-06-16T08:48:17Z</time>
      </trkpt>
      <trkpt lat="38.2703770" lon="-3.6269950">
        <ele>548.8</ele>
        <time>2018-06-16T08:48:18Z</time>
      </trkpt>
      <trkpt lat="38.2702810" lon="-3.6268930">
        <ele>548.0</ele>
        <time>2018-06-16T08:48:19Z</time>
      </trkpt>
      <trkpt lat="38.2701830" lon="-3.6267950">
        <ele>547.0</ele>
        <time>2018-06-16T08:48:20Z</time>
      </trkpt>
      <trkpt lat="38.2700860" lon="-3.6267060">
        <ele>546.0</ele>
        <time>2018-06-16T08:48:21Z</time>
      </trkpt>
      <trkpt lat="38.2699920" lon="-3.6266260">
        <ele>545.4</ele>
        <time>2018-06-16T08:48:22Z</time>
      </trkpt>
      <trkpt lat="38.2698980" lon="-3.6265550">
        <ele>544.4</ele>
        <time>2018-06-16T08:48:23Z</time>
      </trkpt>
      <trkpt lat="38.2698030" lon="-3.6264890">
        <ele>543.6</ele>
        <time>2018-06-16T08:48:24Z</time>
      </trkpt>
      <trkpt lat="38.2697080" lon="-3.6264220">
        <ele>542.4</ele>
        <time>2018-06-16T08:48:25Z</time>
      </trkpt>
      <trkpt lat="38.2696130" lon="-3.6263530">
        <ele>541.6</ele>
        <time>2018-06-16T08:48:26Z</time>
      </trkpt>
      <trkpt lat="38.2695170" lon="-3.6262820">
        <ele>541.0</ele>
        <time>2018-06-16T08:48:27Z</time>
      </trkpt>
      <trkpt lat="38.2694200" lon="-3.6262110">
        <ele>540.2</ele>
        <time>2018-06-16T08:48:28Z</time>
      </trkpt>
      <trkpt lat="38.2693210" lon="-3.6261410">
        <ele>539.8</ele>
        <time>2018-06-16T08:48:29Z</time>
      </trkpt>
      <trkpt lat="38.2692220" lon="-3.6260740">
        <ele>539.6</ele>
        <time>2018-06-16T08:48:30Z</time>
      </trkpt>
      <trkpt lat="38.2691260" lon="-3.6260090">
        <ele>539.4</ele>
        <time>2018-06-16T08:48:31Z</time>
      </trkpt>
      <trkpt lat="38.2690320" lon="-3.6259460">
        <ele>539.6</ele>
        <time>2018-06-16T08:48:32Z</time>
      </trkpt>
      <trkpt lat="38.2689410" lon="-3.6258850">
        <ele>540.2</ele>
        <time>2018-06-16T08:48:33Z</time>
      </trkpt>
      <trkpt lat="38.2688560" lon="-3.6258270">
        <ele>540.4</ele>
        <time>2018-06-16T08:48:34Z</time>
      </trkpt>
      <trkpt lat="38.2687750" lon="-3.6257800">
        <ele>540.6</ele>
        <time>2018-06-16T08:48:35Z</time>
      </trkpt>
      <trkpt lat="38.2686930" lon="-3.6257440">
        <ele>541.0</ele>
        <time>2018-06-16T08:48:36Z</time>
      </trkpt>
      <trkpt lat="38.2685550" lon="-3.6256840">
        <ele>541.4</ele>
        <time>2018-06-16T08:48:37Z</time>
      </trkpt>
      <trkpt lat="38.2685040" lon="-3.6256520">
        <ele>541.8</ele>
        <time>2018-06-16T08:48:38Z</time>
      </trkpt>
      <trkpt lat="38.2685040" lon="-3.6256520">
        <ele>541.8</ele>
        <time>2018-06-16T08:48:39Z</time>
      </trkpt>
      <trkpt lat="38.2684470" lon="-3.6255760">
        <ele>542.0</ele>
        <time>2018-06-16T08:48:40Z</time>
      </trkpt>
      <trkpt lat="38.2684350" lon="-3.6255330">
        <ele>542.0</ele>
        <time>2018-06-16T08:48:41Z</time>
      </trkpt>
      <trkpt lat="38.2684350" lon="-3.6255330">
        <ele>542.0</ele>
        <time>2018-06-16T08:48:42Z</time>
      </trkpt>
      <trkpt lat="38.2684260" lon="-3.6254920">
        <ele>541.8</ele>
        <time>2018-06-16T08:48:43Z</time>
      </trkpt>
      <trkpt lat="38.2684110" lon="-3.6254500">
        <ele>541.4</ele>
        <time>2018-06-16T08:48:44Z</time>
      </trkpt>
      <trkpt lat="38.2683920" lon="-3.6254160">
        <ele>541.2</ele>
        <time>2018-06-16T08:48:45Z</time>
      </trkpt>
      <trkpt lat="38.2683700" lon="-3.6253860">
        <ele>541.2</ele>
        <time>2018-06-16T08:48:46Z</time>
      </trkpt>
      <trkpt lat="38.2683470" lon="-3.6253620">
        <ele>541.2</ele>
        <time>2018-06-16T08:48:47Z</time>
      </trkpt>
      <trkpt lat="38.2683380" lon="-3.6253490">
        <ele>541.2</ele>
        <time>2018-06-16T08:48:48Z</time>
      </trkpt>
      <trkpt lat="38.2683340" lon="-3.6253470">
        <ele>541.2</ele>
        <time>2018-06-16T08:48:49Z</time>
      </trkpt>
      <trkpt lat="38.2683320" lon="-3.6253460">
        <ele>541.2</ele>
        <time>2018-06-16T08:48:50Z</time>
      </trkpt>
      <trkpt lat="38.2683310" lon="-3.6253460">
        <ele>541.2</ele>
        <time>2018-06-16T08:48:51Z</time>
      </trkpt>
      <trkpt lat="38.2683300" lon="-3.6253460">
        <ele>541.0</ele>
        <time>2018-06-16T08:48:52Z</time>
      </trkpt>
      <trkpt lat="38.2683290" lon="-3.6253470">
        <ele>541.2</ele>
        <time>2018-06-16T08:48:53Z</time>
      </trkpt>
      <trkpt lat="38.2683270" lon="-3.6253470">
        <ele>541.0</ele>
        <time>2018-06-16T08:48:54Z</time>
      </trkpt>
      <trkpt lat="38.2683240" lon="-3.6253430">
        <ele>541.0</ele>
        <time>2018-06-16T08:48:55Z</time>
      </trkpt>
      <trkpt lat="38.2683240" lon="-3.6253430">
        <ele>540.8</ele>
        <time>2018-06-16T08:48:56Z</time>
      </trkpt>
      <trkpt lat="38.2683230" lon="-3.6253420">
        <ele>540.8</ele>
        <time>2018-06-16T08:48:57Z</time>
      </trkpt>
      <trkpt lat="38.2683210" lon="-3.6253460">
        <ele>540.8</ele>
        <time>2018-06-16T08:48:58Z</time>
      </trkpt>
      <trkpt lat="38.2683210" lon="-3.6253470">
        <ele>540.8</ele>
        <time>2018-06-16T08:48:59Z</time>
      </trkpt>
      <trkpt lat="38.2683210" lon="-3.6253480">
        <ele>540.8</ele>
        <time>2018-06-16T08:49:00Z</time>
      </trkpt>
      <trkpt lat="38.2683210" lon="-3.6253470">
        <ele>540.8</ele>
        <time>2018-06-16T08:49:01Z</time>
      </trkpt>
      <trkpt lat="38.2683510" lon="-3.6253760">
        <ele>541.6</ele>
        <time>2018-06-16T08:51:05Z</time>
      </trkpt>
      <trkpt lat="38.2683770" lon="-3.6253910">
        <ele>541.8</ele>
        <time>2018-06-16T08:51:06Z</time>
      </trkpt>
      <trkpt lat="38.2683770" lon="-3.6253910">
        <ele>541.8</ele>
        <time>2018-06-16T08:51:07Z</time>
      </trkpt>
      <trkpt lat="38.2684010" lon="-3.6254120">
        <ele>541.8</ele>
        <time>2018-06-16T08:51:08Z</time>
      </trkpt>
      <trkpt lat="38.2684150" lon="-3.6254230">
        <ele>542.0</ele>
        <time>2018-06-16T08:51:09Z</time>
      </trkpt>
      <trkpt lat="38.2684290" lon="-3.6254340">
        <ele>542.0</ele>
        <time>2018-06-16T08:51:10Z</time>
      </trkpt>
      <trkpt lat="38.2684460" lon="-3.6254460">
        <ele>542.0</ele>
        <time>2018-06-16T08:51:11Z</time>
      </trkpt>
      <trkpt lat="38.2684630" lon="-3.6254610">
        <ele>542.0</ele>
        <time>2018-06-16T08:51:12Z</time>
      </trkpt>
      <trkpt lat="38.2684810" lon="-3.6254820">
        <ele>542.0</ele>
        <time>2018-06-16T08:51:13Z</time>
      </trkpt>
      <trkpt lat="38.2684880" lon="-3.6255150">
        <ele>542.2</ele>
        <time>2018-06-16T08:51:14Z</time>
      </trkpt>
      <trkpt lat="38.2684950" lon="-3.6255490">
        <ele>542.0</ele>
        <time>2018-06-16T08:51:15Z</time>
      </trkpt>
      <trkpt lat="38.2684900" lon="-3.6255770">
        <ele>542.0</ele>
        <time>2018-06-16T08:51:16Z</time>
      </trkpt>
      <trkpt lat="38.2684900" lon="-3.6255770">
        <ele>542.2</ele>
        <time>2018-06-16T08:51:17Z</time>
      </trkpt>
      <trkpt lat="38.2684700" lon="-3.6255970">
        <ele>542.2</ele>
        <time>2018-06-16T08:51:18Z</time>
      </trkpt>
      <trkpt lat="38.2684440" lon="-3.6256070">
        <ele>542.0</ele>
        <time>2018-06-16T08:51:19Z</time>
      </trkpt>
      <trkpt lat="38.2684130" lon="-3.6256020">
        <ele>542.0</ele>
        <time>2018-06-16T08:51:20Z</time>
      </trkpt>
      <trkpt lat="38.2683840" lon="-3.6255860">
        <ele>542.0</ele>
        <time>2018-06-16T08:51:21Z</time>
      </trkpt>
      <trkpt lat="38.2683590" lon="-3.6255620">
        <ele>542.0</ele>
        <time>2018-06-16T08:51:22Z</time>
      </trkpt>
      <trkpt lat="38.2683350" lon="-3.6255310">
        <ele>541.8</ele>
        <time>2018-06-16T08:51:23Z</time>
      </trkpt>
      <trkpt lat="38.2683110" lon="-3.6254980">
        <ele>541.6</ele>
        <time>2018-06-16T08:51:24Z</time>
      </trkpt>
      <trkpt lat="38.2682900" lon="-3.6254710">
        <ele>541.4</ele>
        <time>2018-06-16T08:51:25Z</time>
      </trkpt>
      <trkpt lat="38.2682560" lon="-3.6254360">
        <ele>541.2</ele>
        <time>2018-06-16T08:51:26Z</time>
      </trkpt>
      <trkpt lat="38.2682430" lon="-3.6254260">
        <ele>541.0</ele>
        <time>2018-06-16T08:51:27Z</time>
      </trkpt>
      <trkpt lat="38.2682300" lon="-3.6254150">
        <ele>541.0</ele>
        <time>2018-06-16T08:51:28Z</time>
      </trkpt>
      <trkpt lat="38.2682160" lon="-3.6254020">
        <ele>540.8</ele>
        <time>2018-06-16T08:51:29Z</time>
      </trkpt>
      <trkpt lat="38.2682000" lon="-3.6253880">
        <ele>540.6</ele>
        <time>2018-06-16T08:51:30Z</time>
      </trkpt>
      <trkpt lat="38.2681790" lon="-3.6253730">
        <ele>540.6</ele>
        <time>2018-06-16T08:51:31Z</time>
      </trkpt>
      <trkpt lat="38.2681560" lon="-3.6253580">
        <ele>540.4</ele>
        <time>2018-06-16T08:51:32Z</time>
      </trkpt>
      <trkpt lat="38.2681330" lon="-3.6253420">
        <ele>540.4</ele>
        <time>2018-06-16T08:51:33Z</time>
      </trkpt>
      <trkpt lat="38.2681080" lon="-3.6253260">
        <ele>540.2</ele>
        <time>2018-06-16T08:51:34Z</time>
      </trkpt>
      <trkpt lat="38.2680830" lon="-3.6253090">
        <ele>540.2</ele>
        <time>2018-06-16T08:51:35Z</time>
      </trkpt>
      <trkpt lat="38.2680560" lon="-3.6252900">
        <ele>540.2</ele>
        <time>2018-06-16T08:51:36Z</time>
      </trkpt>
      <trkpt lat="38.2680290" lon="-3.6252700">
        <ele>540.2</ele>
        <time>2018-06-16T08:51:37Z</time>
      </trkpt>
      <trkpt lat="38.2680000" lon="-3.6252490">
        <ele>540.0</ele>
        <time>2018-06-16T08:51:38Z</time>
      </trkpt>
      <trkpt lat="38.2679680" lon="-3.6252260">
        <ele>539.8</ele>
        <time>2018-06-16T08:51:39Z</time>
      </trkpt>
      <trkpt lat="38.2679330" lon="-3.6252000">
        <ele>539.6</ele>
        <time>2018-06-16T08:51:40Z</time>
      </trkpt>
      <trkpt lat="38.2678950" lon="-3.6251720">
        <ele>539.4</ele>
        <time>2018-06-16T08:51:41Z</time>
      </trkpt>
      <trkpt lat="38.2678540" lon="-3.6251430">
        <ele>539.0</ele>
        <time>2018-06-16T08:51:42Z</time>
      </trkpt>
      <trkpt lat="38.2678070" lon="-3.6251120">
        <ele>539.0</ele>
        <time>2018-06-16T08:51:43Z</time>
      </trkpt>
      <trkpt lat="38.2678070" lon="-3.6251120">
        <ele>539.0</ele>
        <time>2018-06-16T08:51:44Z</time>
      </trkpt>
      <trkpt lat="38.2677620" lon="-3.6250810">
        <ele>539.0</ele>
        <time>2018-06-16T08:51:45Z</time>
      </trkpt>
      <trkpt lat="38.2677160" lon="-3.6250480">
        <ele>538.8</ele>
        <time>2018-06-16T08:51:46Z</time>
      </trkpt>
      <trkpt lat="38.2676680" lon="-3.6250160">
        <ele>538.6</ele>
        <time>2018-06-16T08:51:47Z</time>
      </trkpt>
      <trkpt lat="38.2676190" lon="-3.6249820">
        <ele>538.2</ele>
        <time>2018-06-16T08:51:48Z</time>
      </trkpt>
      <trkpt lat="38.2675680" lon="-3.6249460">
        <ele>538.0</ele>
        <time>2018-06-16T08:51:49Z</time>
      </trkpt>
      <trkpt lat="38.2675170" lon="-3.6249050">
        <ele>537.8</ele>
        <time>2018-06-16T08:51:50Z</time>
      </trkpt>
      <trkpt lat="38.2674620" lon="-3.6248640">
        <ele>537.6</ele>
        <time>2018-06-16T08:51:51Z</time>
      </trkpt>
      <trkpt lat="38.2673530" lon="-3.6247800">
        <ele>537.4</ele>
        <time>2018-06-16T08:51:52Z</time>
      </trkpt>
      <trkpt lat="38.2673000" lon="-3.6247390">
        <ele>537.4</ele>
        <time>2018-06-16T08:51:53Z</time>
      </trkpt>
      <trkpt lat="38.2673000" lon="-3.6247390">
        <ele>537.4</ele>
        <time>2018-06-16T08:51:54Z</time>
      </trkpt>
      <trkpt lat="38.2672470" lon="-3.6247030">
        <ele>537.4</ele>
        <time>2018-06-16T08:51:55Z</time>
      </trkpt>
      <trkpt lat="38.2671950" lon="-3.6246700">
        <ele>537.4</ele>
        <time>2018-06-16T08:51:56Z</time>
      </trkpt>
      <trkpt lat="38.2671430" lon="-3.6246360">
        <ele>537.4</ele>
        <time>2018-06-16T08:51:57Z</time>
      </trkpt>
      <trkpt lat="38.2670900" lon="-3.6246010">
        <ele>537.4</ele>
        <time>2018-06-16T08:51:58Z</time>
      </trkpt>
      <trkpt lat="38.2670380" lon="-3.6245670">
        <ele>537.4</ele>
        <time>2018-06-16T08:51:59Z</time>
      </trkpt>
      <trkpt lat="38.2669920" lon="-3.6245330">
        <ele>537.4</ele>
        <time>2018-06-16T08:52:00Z</time>
      </trkpt>
      <trkpt lat="38.2668970" lon="-3.6244590">
        <ele>537.4</ele>
        <time>2018-06-16T08:52:01Z</time>
      </trkpt>
      <trkpt lat="38.2668490" lon="-3.6244200">
        <ele>537.4</ele>
        <time>2018-06-16T08:52:02Z</time>
      </trkpt>
      <trkpt lat="38.2668020" lon="-3.6243890">
        <ele>537.6</ele>
        <time>2018-06-16T08:52:03Z</time>
      </trkpt>
      <trkpt lat="38.2667570" lon="-3.6243620">
        <ele>538.0</ele>
        <time>2018-06-16T08:52:04Z</time>
      </trkpt>
      <trkpt lat="38.2667150" lon="-3.6243380">
        <ele>538.2</ele>
        <time>2018-06-16T08:52:05Z</time>
      </trkpt>
      <trkpt lat="38.2666740" lon="-3.6243090">
        <ele>538.0</ele>
        <time>2018-06-16T08:52:06Z</time>
      </trkpt>
      <trkpt lat="38.2666290" lon="-3.6242780">
        <ele>538.2</ele>
        <time>2018-06-16T08:52:07Z</time>
      </trkpt>
      <trkpt lat="38.2665830" lon="-3.6242470">
        <ele>538.2</ele>
        <time>2018-06-16T08:52:08Z</time>
      </trkpt>
      <trkpt lat="38.2665370" lon="-3.6242160">
        <ele>538.2</ele>
        <time>2018-06-16T08:52:09Z</time>
      </trkpt>
      <trkpt lat="38.2664930" lon="-3.6241840">
        <ele>538.2</ele>
        <time>2018-06-16T08:52:10Z</time>
      </trkpt>
      <trkpt lat="38.2664500" lon="-3.6241520">
        <ele>538.2</ele>
        <time>2018-06-16T08:52:11Z</time>
      </trkpt>
      <trkpt lat="38.2664010" lon="-3.6241200">
        <ele>538.4</ele>
        <time>2018-06-16T08:52:12Z</time>
      </trkpt>
      <trkpt lat="38.2663550" lon="-3.6240940">
        <ele>538.6</ele>
        <time>2018-06-16T08:52:13Z</time>
      </trkpt>
      <trkpt lat="38.2663090" lon="-3.6240670">
        <ele>538.6</ele>
        <time>2018-06-16T08:52:14Z</time>
      </trkpt>
      <trkpt lat="38.2662640" lon="-3.6240370">
        <ele>538.8</ele>
        <time>2018-06-16T08:52:15Z</time>
      </trkpt>
      <trkpt lat="38.2662180" lon="-3.6240090">
        <ele>538.8</ele>
        <time>2018-06-16T08:52:16Z</time>
      </trkpt>
      <trkpt lat="38.2661730" lon="-3.6239850">
        <ele>538.8</ele>
        <time>2018-06-16T08:52:17Z</time>
      </trkpt>
      <trkpt lat="38.2661310" lon="-3.6239610">
        <ele>538.6</ele>
        <time>2018-06-16T08:52:18Z</time>
      </trkpt>
      <trkpt lat="38.2660840" lon="-3.6239400">
        <ele>538.6</ele>
        <time>2018-06-16T08:52:19Z</time>
      </trkpt>
      <trkpt lat="38.2660840" lon="-3.6239400">
        <ele>538.6</ele>
        <time>2018-06-16T08:52:20Z</time>
      </trkpt>
      <trkpt lat="38.2660370" lon="-3.6239130">
        <ele>538.8</ele>
        <time>2018-06-16T08:52:21Z</time>
      </trkpt>
      <trkpt lat="38.2659930" lon="-3.6238770">
        <ele>538.8</ele>
        <time>2018-06-16T08:52:22Z</time>
      </trkpt>
      <trkpt lat="38.2659470" lon="-3.6238390">
        <ele>538.8</ele>
        <time>2018-06-16T08:52:23Z</time>
      </trkpt>
      <trkpt lat="38.2659010" lon="-3.6238010">
        <ele>538.6</ele>
        <time>2018-06-16T08:52:24Z</time>
      </trkpt>
      <trkpt lat="38.2658030" lon="-3.6237340">
        <ele>538.6</ele>
        <time>2018-06-16T08:52:25Z</time>
      </trkpt>
      <trkpt lat="38.2657520" lon="-3.6236970">
        <ele>538.4</ele>
        <time>2018-06-16T08:52:26Z</time>
      </trkpt>
      <trkpt lat="38.2657000" lon="-3.6236610">
        <ele>538.6</ele>
        <time>2018-06-16T08:52:27Z</time>
      </trkpt>
      <trkpt lat="38.2656480" lon="-3.6236230">
        <ele>538.2</ele>
        <time>2018-06-16T08:52:28Z</time>
      </trkpt>
      <trkpt lat="38.2655940" lon="-3.6235840">
        <ele>538.0</ele>
        <time>2018-06-16T08:52:29Z</time>
      </trkpt>
      <trkpt lat="38.2655410" lon="-3.6235430">
        <ele>538.0</ele>
        <time>2018-06-16T08:52:30Z</time>
      </trkpt>
      <trkpt lat="38.2654880" lon="-3.6235020">
        <ele>538.0</ele>
        <time>2018-06-16T08:52:31Z</time>
      </trkpt>
      <trkpt lat="38.2654340" lon="-3.6234640">
        <ele>538.0</ele>
        <time>2018-06-16T08:52:32Z</time>
      </trkpt>
      <trkpt lat="38.2653550" lon="-3.6234050">
        <ele>537.8</ele>
        <time>2018-06-16T08:52:33Z</time>
      </trkpt>
      <trkpt lat="38.2653280" lon="-3.6233850">
        <ele>537.8</ele>
        <time>2018-06-16T08:52:34Z</time>
      </trkpt>
      <trkpt lat="38.2652750" lon="-3.6233440">
        <ele>537.4</ele>
        <time>2018-06-16T08:52:35Z</time>
      </trkpt>
      <trkpt lat="38.2652220" lon="-3.6233030">
        <ele>537.4</ele>
        <time>2018-06-16T08:52:36Z</time>
      </trkpt>
      <trkpt lat="38.2651680" lon="-3.6232600">
        <ele>537.2</ele>
        <time>2018-06-16T08:52:37Z</time>
      </trkpt>
      <trkpt lat="38.2651160" lon="-3.6232180">
        <ele>537.0</ele>
        <time>2018-06-16T08:52:38Z</time>
      </trkpt>
      <trkpt lat="38.2650630" lon="-3.6231750">
        <ele>537.0</ele>
        <time>2018-06-16T08:52:39Z</time>
      </trkpt>
      <trkpt lat="38.2650090" lon="-3.6231330">
        <ele>536.8</ele>
        <time>2018-06-16T08:52:40Z</time>
      </trkpt>
      <trkpt lat="38.2649560" lon="-3.6230960">
        <ele>536.6</ele>
        <time>2018-06-16T08:52:41Z</time>
      </trkpt>
      <trkpt lat="38.2649020" lon="-3.6230570">
        <ele>536.4</ele>
        <time>2018-06-16T08:52:42Z</time>
      </trkpt>
      <trkpt lat="38.2648470" lon="-3.6230170">
        <ele>536.2</ele>
        <time>2018-06-16T08:52:43Z</time>
      </trkpt>
      <trkpt lat="38.2648470" lon="-3.6230170">
        <ele>536.0</ele>
        <time>2018-06-16T08:52:44Z</time>
      </trkpt>
      <trkpt lat="38.2647900" lon="-3.6229780">
        <ele>535.6</ele>
        <time>2018-06-16T08:52:45Z</time>
      </trkpt>
      <trkpt lat="38.2647320" lon="-3.6229390">
        <ele>535.4</ele>
        <time>2018-06-16T08:52:46Z</time>
      </trkpt>
      <trkpt lat="38.2646720" lon="-3.6229010">
        <ele>535.2</ele>
        <time>2018-06-16T08:52:47Z</time>
      </trkpt>
      <trkpt lat="38.2646100" lon="-3.6228610">
        <ele>534.8</ele>
        <time>2018-06-16T08:52:48Z</time>
      </trkpt>
      <trkpt lat="38.2645470" lon="-3.6228230">
        <ele>534.6</ele>
        <time>2018-06-16T08:52:49Z</time>
      </trkpt>
      <trkpt lat="38.2644830" lon="-3.6227830">
        <ele>534.2</ele>
        <time>2018-06-16T08:52:50Z</time>
      </trkpt>
      <trkpt lat="38.2644180" lon="-3.6227400">
        <ele>533.8</ele>
        <time>2018-06-16T08:52:51Z</time>
      </trkpt>
      <trkpt lat="38.2643540" lon="-3.6226980">
        <ele>533.4</ele>
        <time>2018-06-16T08:52:52Z</time>
      </trkpt>
      <trkpt lat="38.2642930" lon="-3.6226590">
        <ele>533.2</ele>
        <time>2018-06-16T08:52:53Z</time>
      </trkpt>
      <trkpt lat="38.2642370" lon="-3.6226200">
        <ele>533.2</ele>
        <time>2018-06-16T08:52:54Z</time>
      </trkpt>
      <trkpt lat="38.2641870" lon="-3.6225840">
        <ele>533.4</ele>
        <time>2018-06-16T08:52:55Z</time>
      </trkpt>
      <trkpt lat="38.2641420" lon="-3.6225510">
        <ele>533.4</ele>
        <time>2018-06-16T08:52:56Z</time>
      </trkpt>
      <trkpt lat="38.2641000" lon="-3.6225230">
        <ele>533.6</ele>
        <time>2018-06-16T08:52:57Z</time>
      </trkpt>
      <trkpt lat="38.2640570" lon="-3.6225010">
        <ele>533.8</ele>
        <time>2018-06-16T08:52:58Z</time>
      </trkpt>
      <trkpt lat="38.2640140" lon="-3.6224860">
        <ele>533.8</ele>
        <time>2018-06-16T08:52:59Z</time>
      </trkpt>
      <trkpt lat="38.2639680" lon="-3.6224790">
        <ele>533.6</ele>
        <time>2018-06-16T08:53:00Z</time>
      </trkpt>
      <trkpt lat="38.2639200" lon="-3.6224720">
        <ele>533.6</ele>
        <time>2018-06-16T08:53:01Z</time>
      </trkpt>
      <trkpt lat="38.2638710" lon="-3.6224580">
        <ele>533.8</ele>
        <time>2018-06-16T08:53:02Z</time>
      </trkpt>
      <trkpt lat="38.2638280" lon="-3.6224280">
        <ele>534.0</ele>
        <time>2018-06-16T08:53:03Z</time>
      </trkpt>
      <trkpt lat="38.2637940" lon="-3.6223800">
        <ele>534.2</ele>
        <time>2018-06-16T08:53:04Z</time>
      </trkpt>
      <trkpt lat="38.2637290" lon="-3.6222740">
        <ele>534.4</ele>
        <time>2018-06-16T08:53:05Z</time>
      </trkpt>
      <trkpt lat="38.2636910" lon="-3.6222280">
        <ele>534.8</ele>
        <time>2018-06-16T08:53:06Z</time>
      </trkpt>
      <trkpt lat="38.2636510" lon="-3.6221870">
        <ele>535.0</ele>
        <time>2018-06-16T08:53:07Z</time>
      </trkpt>
      <trkpt lat="38.2636110" lon="-3.6221500">
        <ele>535.2</ele>
        <time>2018-06-16T08:53:08Z</time>
      </trkpt>
      <trkpt lat="38.2636110" lon="-3.6221500">
        <ele>535.2</ele>
        <time>2018-06-16T08:53:09Z</time>
      </trkpt>
      <trkpt lat="38.2635700" lon="-3.6221150">
        <ele>535.2</ele>
        <time>2018-06-16T08:53:10Z</time>
      </trkpt>
      <trkpt lat="38.2635270" lon="-3.6220820">
        <ele>535.2</ele>
        <time>2018-06-16T08:53:11Z</time>
      </trkpt>
      <trkpt lat="38.2634390" lon="-3.6220160">
        <ele>535.4</ele>
        <time>2018-06-16T08:53:12Z</time>
      </trkpt>
      <trkpt lat="38.2633960" lon="-3.6219810">
        <ele>535.4</ele>
        <time>2018-06-16T08:53:13Z</time>
      </trkpt>
      <trkpt lat="38.2633540" lon="-3.6219470">
        <ele>535.4</ele>
        <time>2018-06-16T08:53:14Z</time>
      </trkpt>
      <trkpt lat="38.2633110" lon="-3.6219110">
        <ele>535.2</ele>
        <time>2018-06-16T08:53:15Z</time>
      </trkpt>
      <trkpt lat="38.2632680" lon="-3.6218750">
        <ele>535.2</ele>
        <time>2018-06-16T08:53:16Z</time>
      </trkpt>
      <trkpt lat="38.2632250" lon="-3.6218390">
        <ele>534.8</ele>
        <time>2018-06-16T08:53:17Z</time>
      </trkpt>
      <trkpt lat="38.2631820" lon="-3.6218040">
        <ele>535.0</ele>
        <time>2018-06-16T08:53:18Z</time>
      </trkpt>
      <trkpt lat="38.2631370" lon="-3.6217710">
        <ele>535.0</ele>
        <time>2018-06-16T08:53:19Z</time>
      </trkpt>
      <trkpt lat="38.2630900" lon="-3.6217360">
        <ele>534.8</ele>
        <time>2018-06-16T08:53:20Z</time>
      </trkpt>
      <trkpt lat="38.2630430" lon="-3.6216950">
        <ele>534.4</ele>
        <time>2018-06-16T08:53:21Z</time>
      </trkpt>
      <trkpt lat="38.2629990" lon="-3.6216410">
        <ele>534.0</ele>
        <time>2018-06-16T08:53:22Z</time>
      </trkpt>
      <trkpt lat="38.2629630" lon="-3.6215510">
        <ele>533.2</ele>
        <time>2018-06-16T08:53:23Z</time>
      </trkpt>
      <trkpt lat="38.2629600" lon="-3.6215310">
        <ele>533.0</ele>
        <time>2018-06-16T08:53:24Z</time>
      </trkpt>
      <trkpt lat="38.2629540" lon="-3.6214900">
        <ele>532.8</ele>
        <time>2018-06-16T08:53:25Z</time>
      </trkpt>
      <trkpt lat="38.2629690" lon="-3.6214020">
        <ele>532.0</ele>
        <time>2018-06-16T08:53:26Z</time>
      </trkpt>
      <trkpt lat="38.2630070" lon="-3.6213200">
        <ele>531.2</ele>
        <time>2018-06-16T08:53:27Z</time>
      </trkpt>
      <trkpt lat="38.2630650" lon="-3.6212530">
        <ele>531.2</ele>
        <time>2018-06-16T08:53:28Z</time>
      </trkpt>
      <trkpt lat="38.2631340" lon="-3.6212000">
        <ele>530.6</ele>
        <time>2018-06-16T08:53:29Z</time>
      </trkpt>
      <trkpt lat="38.2632070" lon="-3.6211510">
        <ele>530.2</ele>
        <time>2018-06-16T08:53:30Z</time>
      </trkpt>
      <trkpt lat="38.2632810" lon="-3.6211010">
        <ele>530.0</ele>
        <time>2018-06-16T08:53:31Z</time>
      </trkpt>
      <trkpt lat="38.2633540" lon="-3.6210470">
        <ele>529.8</ele>
        <time>2018-06-16T08:53:32Z</time>
      </trkpt>
      <trkpt lat="38.2634250" lon="-3.6209870">
        <ele>529.6</ele>
        <time>2018-06-16T08:53:33Z</time>
      </trkpt>
      <trkpt lat="38.2635460" lon="-3.6208430">
        <ele>529.4</ele>
        <time>2018-06-16T08:53:34Z</time>
      </trkpt>
      <trkpt lat="38.2635980" lon="-3.6207640">
        <ele>529.4</ele>
        <time>2018-06-16T08:53:35Z</time>
      </trkpt>
      <trkpt lat="38.2636450" lon="-3.6206810">
        <ele>529.6</ele>
        <time>2018-06-16T08:53:36Z</time>
      </trkpt>
      <trkpt lat="38.2636870" lon="-3.6206000">
        <ele>529.6</ele>
        <time>2018-06-16T08:53:37Z</time>
      </trkpt>
      <trkpt lat="38.2637280" lon="-3.6205180">
        <ele>529.8</ele>
        <time>2018-06-16T08:53:38Z</time>
      </trkpt>
      <trkpt lat="38.2637640" lon="-3.6204350">
        <ele>529.8</ele>
        <time>2018-06-16T08:53:39Z</time>
      </trkpt>
      <trkpt lat="38.2637980" lon="-3.6203540">
        <ele>530.0</ele>
        <time>2018-06-16T08:53:40Z</time>
      </trkpt>
      <trkpt lat="38.2638320" lon="-3.6202780">
        <ele>530.4</ele>
        <time>2018-06-16T08:53:41Z</time>
      </trkpt>
      <trkpt lat="38.2638630" lon="-3.6202020">
        <ele>530.4</ele>
        <time>2018-06-16T08:53:42Z</time>
      </trkpt>
      <trkpt lat="38.2638940" lon="-3.6201250">
        <ele>530.6</ele>
        <time>2018-06-16T08:53:43Z</time>
      </trkpt>
      <trkpt lat="38.2639200" lon="-3.6200510">
        <ele>530.8</ele>
        <time>2018-06-16T08:53:44Z</time>
      </trkpt>
      <trkpt lat="38.2639460" lon="-3.6199760">
        <ele>531.0</ele>
        <time>2018-06-16T08:53:45Z</time>
      </trkpt>
      <trkpt lat="38.2639720" lon="-3.6199040">
        <ele>531.2</ele>
        <time>2018-06-16T08:53:46Z</time>
      </trkpt>
      <trkpt lat="38.2639980" lon="-3.6198310">
        <ele>531.4</ele>
        <time>2018-06-16T08:53:47Z</time>
      </trkpt>
      <trkpt lat="38.2640210" lon="-3.6197580">
        <ele>531.6</ele>
        <time>2018-06-16T08:53:48Z</time>
      </trkpt>
      <trkpt lat="38.2640460" lon="-3.6196880">
        <ele>531.8</ele>
        <time>2018-06-16T08:53:49Z</time>
      </trkpt>
      <trkpt lat="38.2640460" lon="-3.6196880">
        <ele>532.0</ele>
        <time>2018-06-16T08:53:50Z</time>
      </trkpt>
      <trkpt lat="38.2640710" lon="-3.6196200">
        <ele>532.0</ele>
        <time>2018-06-16T08:53:51Z</time>
      </trkpt>
      <trkpt lat="38.2640950" lon="-3.6195520">
        <ele>532.2</ele>
        <time>2018-06-16T08:53:52Z</time>
      </trkpt>
      <trkpt lat="38.2641180" lon="-3.6194850">
        <ele>532.4</ele>
        <time>2018-06-16T08:53:53Z</time>
      </trkpt>
      <trkpt lat="38.2641400" lon="-3.6194200">
        <ele>532.4</ele>
        <time>2018-06-16T08:53:54Z</time>
      </trkpt>
      <trkpt lat="38.2641640" lon="-3.6193560">
        <ele>532.6</ele>
        <time>2018-06-16T08:53:55Z</time>
      </trkpt>
      <trkpt lat="38.2642150" lon="-3.6192310">
        <ele>532.6</ele>
        <time>2018-06-16T08:53:56Z</time>
      </trkpt>
      <trkpt lat="38.2642390" lon="-3.6191680">
        <ele>532.8</ele>
        <time>2018-06-16T08:53:57Z</time>
      </trkpt>
      <trkpt lat="38.2642620" lon="-3.6191060">
        <ele>533.0</ele>
        <time>2018-06-16T08:53:58Z</time>
      </trkpt>
      <trkpt lat="38.2642830" lon="-3.6190440">
        <ele>533.2</ele>
        <time>2018-06-16T08:53:59Z</time>
      </trkpt>
      <trkpt lat="38.2643030" lon="-3.6189820">
        <ele>533.4</ele>
        <time>2018-06-16T08:54:00Z</time>
      </trkpt>
      <trkpt lat="38.2643250" lon="-3.6189190">
        <ele>533.6</ele>
        <time>2018-06-16T08:54:01Z</time>
      </trkpt>
      <trkpt lat="38.2643470" lon="-3.6188580">
        <ele>533.8</ele>
        <time>2018-06-16T08:54:02Z</time>
      </trkpt>
      <trkpt lat="38.2643690" lon="-3.6187960">
        <ele>534.0</ele>
        <time>2018-06-16T08:54:03Z</time>
      </trkpt>
      <trkpt lat="38.2643910" lon="-3.6187350">
        <ele>534.0</ele>
        <time>2018-06-16T08:54:04Z</time>
      </trkpt>
      <trkpt lat="38.2644130" lon="-3.6186760">
        <ele>534.2</ele>
        <time>2018-06-16T08:54:05Z</time>
      </trkpt>
      <trkpt lat="38.2644330" lon="-3.6186150">
        <ele>534.2</ele>
        <time>2018-06-16T08:54:06Z</time>
      </trkpt>
      <trkpt lat="38.2644530" lon="-3.6185560">
        <ele>534.4</ele>
        <time>2018-06-16T08:54:07Z</time>
      </trkpt>
      <trkpt lat="38.2644740" lon="-3.6184970">
        <ele>534.6</ele>
        <time>2018-06-16T08:54:08Z</time>
      </trkpt>
      <trkpt lat="38.2644940" lon="-3.6184390">
        <ele>534.8</ele>
        <time>2018-06-16T08:54:09Z</time>
      </trkpt>
      <trkpt lat="38.2645120" lon="-3.6183810">
        <ele>535.0</ele>
        <time>2018-06-16T08:54:10Z</time>
      </trkpt>
      <trkpt lat="38.2645120" lon="-3.6183810">
        <ele>535.2</ele>
        <time>2018-06-16T08:54:11Z</time>
      </trkpt>
      <trkpt lat="38.2645320" lon="-3.6183250">
        <ele>535.4</ele>
        <time>2018-06-16T08:54:12Z</time>
      </trkpt>
      <trkpt lat="38.2645520" lon="-3.6182680">
        <ele>535.4</ele>
        <time>2018-06-16T08:54:13Z</time>
      </trkpt>
      <trkpt lat="38.2645730" lon="-3.6182110">
        <ele>535.8</ele>
        <time>2018-06-16T08:54:14Z</time>
      </trkpt>
      <trkpt lat="38.2646150" lon="-3.6181000">
        <ele>536.0</ele>
        <time>2018-06-16T08:54:15Z</time>
      </trkpt>
      <trkpt lat="38.2646360" lon="-3.6180450">
        <ele>536.0</ele>
        <time>2018-06-16T08:54:16Z</time>
      </trkpt>
      <trkpt lat="38.2646540" lon="-3.6179880">
        <ele>536.2</ele>
        <time>2018-06-16T08:54:17Z</time>
      </trkpt>
      <trkpt lat="38.2646730" lon="-3.6179300">
        <ele>536.4</ele>
        <time>2018-06-16T08:54:18Z</time>
      </trkpt>
      <trkpt lat="38.2646910" lon="-3.6178750">
        <ele>536.6</ele>
        <time>2018-06-16T08:54:19Z</time>
      </trkpt>
      <trkpt lat="38.2647100" lon="-3.6178190">
        <ele>536.6</ele>
        <time>2018-06-16T08:54:20Z</time>
      </trkpt>
      <trkpt lat="38.2647280" lon="-3.6177630">
        <ele>537.0</ele>
        <time>2018-06-16T08:54:21Z</time>
      </trkpt>
      <trkpt lat="38.2647470" lon="-3.6177090">
        <ele>537.0</ele>
        <time>2018-06-16T08:54:22Z</time>
      </trkpt>
      <trkpt lat="38.2647680" lon="-3.6176530">
        <ele>537.2</ele>
        <time>2018-06-16T08:54:23Z</time>
      </trkpt>
      <trkpt lat="38.2647880" lon="-3.6175970">
        <ele>537.4</ele>
        <time>2018-06-16T08:54:24Z</time>
      </trkpt>
      <trkpt lat="38.2648090" lon="-3.6175420">
        <ele>537.6</ele>
        <time>2018-06-16T08:54:25Z</time>
      </trkpt>
      <trkpt lat="38.2648300" lon="-3.6174870">
        <ele>537.8</ele>
        <time>2018-06-16T08:54:26Z</time>
      </trkpt>
      <trkpt lat="38.2648490" lon="-3.6174310">
        <ele>537.8</ele>
        <time>2018-06-16T08:54:27Z</time>
      </trkpt>
      <trkpt lat="38.2648690" lon="-3.6173760">
        <ele>538.0</ele>
        <time>2018-06-16T08:54:28Z</time>
      </trkpt>
      <trkpt lat="38.2648890" lon="-3.6173220">
        <ele>538.2</ele>
        <time>2018-06-16T08:54:29Z</time>
      </trkpt>
      <trkpt lat="38.2649080" lon="-3.6172670">
        <ele>538.4</ele>
        <time>2018-06-16T08:54:30Z</time>
      </trkpt>
      <trkpt lat="38.2649260" lon="-3.6172120">
        <ele>538.6</ele>
        <time>2018-06-16T08:54:31Z</time>
      </trkpt>
      <trkpt lat="38.2649430" lon="-3.6171570">
        <ele>538.8</ele>
        <time>2018-06-16T08:54:32Z</time>
      </trkpt>
      <trkpt lat="38.2649610" lon="-3.6171010">
        <ele>539.0</ele>
        <time>2018-06-16T08:54:33Z</time>
      </trkpt>
      <trkpt lat="38.2649790" lon="-3.6170440">
        <ele>539.2</ele>
        <time>2018-06-16T08:54:34Z</time>
      </trkpt>
      <trkpt lat="38.2649980" lon="-3.6169880">
        <ele>539.2</ele>
        <time>2018-06-16T08:54:35Z</time>
      </trkpt>
      <trkpt lat="38.2650180" lon="-3.6169320">
        <ele>539.4</ele>
        <time>2018-06-16T08:54:36Z</time>
      </trkpt>
      <trkpt lat="38.2650370" lon="-3.6168750">
        <ele>539.6</ele>
        <time>2018-06-16T08:54:37Z</time>
      </trkpt>
      <trkpt lat="38.2650550" lon="-3.6168170">
        <ele>540.0</ele>
        <time>2018-06-16T08:54:38Z</time>
      </trkpt>
      <trkpt lat="38.2650750" lon="-3.6167600">
        <ele>540.0</ele>
        <time>2018-06-16T08:54:39Z</time>
      </trkpt>
      <trkpt lat="38.2650950" lon="-3.6167030">
        <ele>540.2</ele>
        <time>2018-06-16T08:54:40Z</time>
      </trkpt>
      <trkpt lat="38.2651150" lon="-3.6166470">
        <ele>540.4</ele>
        <time>2018-06-16T08:54:41Z</time>
      </trkpt>
      <trkpt lat="38.2651350" lon="-3.6165920">
        <ele>540.6</ele>
        <time>2018-06-16T08:54:42Z</time>
      </trkpt>
      <trkpt lat="38.2651560" lon="-3.6165380">
        <ele>540.8</ele>
        <time>2018-06-16T08:54:43Z</time>
      </trkpt>
      <trkpt lat="38.2651750" lon="-3.6164830">
        <ele>541.0</ele>
        <time>2018-06-16T08:54:44Z</time>
      </trkpt>
      <trkpt lat="38.2651750" lon="-3.6164830">
        <ele>541.2</ele>
        <time>2018-06-16T08:54:45Z</time>
      </trkpt>
      <trkpt lat="38.2651930" lon="-3.6164280">
        <ele>541.2</ele>
        <time>2018-06-16T08:54:46Z</time>
      </trkpt>
      <trkpt lat="38.2652310" lon="-3.6163190">
        <ele>541.6</ele>
        <time>2018-06-16T08:54:47Z</time>
      </trkpt>
      <trkpt lat="38.2652490" lon="-3.6162660">
        <ele>541.8</ele>
        <time>2018-06-16T08:54:48Z</time>
      </trkpt>
      <trkpt lat="38.2652640" lon="-3.6162120">
        <ele>541.8</ele>
        <time>2018-06-16T08:54:49Z</time>
      </trkpt>
      <trkpt lat="38.2652790" lon="-3.6161600">
        <ele>542.0</ele>
        <time>2018-06-16T08:54:50Z</time>
      </trkpt>
      <trkpt lat="38.2652960" lon="-3.6161080">
        <ele>542.2</ele>
        <time>2018-06-16T08:54:51Z</time>
      </trkpt>
      <trkpt lat="38.2653130" lon="-3.6160580">
        <ele>542.4</ele>
        <time>2018-06-16T08:54:52Z</time>
      </trkpt>
      <trkpt lat="38.2653280" lon="-3.6160070">
        <ele>542.6</ele>
        <time>2018-06-16T08:54:53Z</time>
      </trkpt>
      <trkpt lat="38.2653410" lon="-3.6159550">
        <ele>542.6</ele>
        <time>2018-06-16T08:54:54Z</time>
      </trkpt>
      <trkpt lat="38.2653540" lon="-3.6159030">
        <ele>542.8</ele>
        <time>2018-06-16T08:54:55Z</time>
      </trkpt>
      <trkpt lat="38.2653690" lon="-3.6158520">
        <ele>543.0</ele>
        <time>2018-06-16T08:54:56Z</time>
      </trkpt>
      <trkpt lat="38.2653860" lon="-3.6158020">
        <ele>543.2</ele>
        <time>2018-06-16T08:54:57Z</time>
      </trkpt>
      <trkpt lat="38.2654050" lon="-3.6157520">
        <ele>543.2</ele>
        <time>2018-06-16T08:54:58Z</time>
      </trkpt>
      <trkpt lat="38.2654230" lon="-3.6157000">
        <ele>543.4</ele>
        <time>2018-06-16T08:54:59Z</time>
      </trkpt>
      <trkpt lat="38.2654400" lon="-3.6156490">
        <ele>543.6</ele>
        <time>2018-06-16T08:55:00Z</time>
      </trkpt>
      <trkpt lat="38.2654480" lon="-3.6156240">
        <ele>544.0</ele>
        <time>2018-06-16T08:55:01Z</time>
      </trkpt>
      <trkpt lat="38.2654560" lon="-3.6155980">
        <ele>544.2</ele>
        <time>2018-06-16T08:55:02Z</time>
      </trkpt>
      <trkpt lat="38.2654700" lon="-3.6155460">
        <ele>544.2</ele>
        <time>2018-06-16T08:55:03Z</time>
      </trkpt>
      <trkpt lat="38.2654850" lon="-3.6154940">
        <ele>544.4</ele>
        <time>2018-06-16T08:55:04Z</time>
      </trkpt>
      <trkpt lat="38.2655020" lon="-3.6154430">
        <ele>544.6</ele>
        <time>2018-06-16T08:55:05Z</time>
      </trkpt>
      <trkpt lat="38.2655200" lon="-3.6153920">
        <ele>544.6</ele>
        <time>2018-06-16T08:55:06Z</time>
      </trkpt>
      <trkpt lat="38.2655370" lon="-3.6153430">
        <ele>544.8</ele>
        <time>2018-06-16T08:55:07Z</time>
      </trkpt>
      <trkpt lat="38.2655710" lon="-3.6152470">
        <ele>545.0</ele>
        <time>2018-06-16T08:55:08Z</time>
      </trkpt>
      <trkpt lat="38.2655890" lon="-3.6151970">
        <ele>545.2</ele>
        <time>2018-06-16T08:55:09Z</time>
      </trkpt>
      <trkpt lat="38.2656070" lon="-3.6151490">
        <ele>545.2</ele>
        <time>2018-06-16T08:55:10Z</time>
      </trkpt>
      <trkpt lat="38.2656260" lon="-3.6151000">
        <ele>545.4</ele>
        <time>2018-06-16T08:55:11Z</time>
      </trkpt>
      <trkpt lat="38.2656450" lon="-3.6150500">
        <ele>545.6</ele>
        <time>2018-06-16T08:55:12Z</time>
      </trkpt>
      <trkpt lat="38.2656620" lon="-3.6150000">
        <ele>545.8</ele>
        <time>2018-06-16T08:55:13Z</time>
      </trkpt>
      <trkpt lat="38.2656810" lon="-3.6149510">
        <ele>545.8</ele>
        <time>2018-06-16T08:55:14Z</time>
      </trkpt>
      <trkpt lat="38.2656980" lon="-3.6149000">
        <ele>546.0</ele>
        <time>2018-06-16T08:55:15Z</time>
      </trkpt>
      <trkpt lat="38.2657130" lon="-3.6148470">
        <ele>546.0</ele>
        <time>2018-06-16T08:55:16Z</time>
      </trkpt>
      <trkpt lat="38.2657270" lon="-3.6147940">
        <ele>546.2</ele>
        <time>2018-06-16T08:55:17Z</time>
      </trkpt>
      <trkpt lat="38.2657430" lon="-3.6147430">
        <ele>546.4</ele>
        <time>2018-06-16T08:55:18Z</time>
      </trkpt>
      <trkpt lat="38.2657590" lon="-3.6146910">
        <ele>546.4</ele>
        <time>2018-06-16T08:55:19Z</time>
      </trkpt>
      <trkpt lat="38.2657750" lon="-3.6146400">
        <ele>546.4</ele>
        <time>2018-06-16T08:55:20Z</time>
      </trkpt>
      <trkpt lat="38.2657930" lon="-3.6145890">
        <ele>546.6</ele>
        <time>2018-06-16T08:55:21Z</time>
      </trkpt>
      <trkpt lat="38.2658110" lon="-3.6145380">
        <ele>546.6</ele>
        <time>2018-06-16T08:55:22Z</time>
      </trkpt>
      <trkpt lat="38.2658300" lon="-3.6144880">
        <ele>546.8</ele>
        <time>2018-06-16T08:55:23Z</time>
      </trkpt>
      <trkpt lat="38.2658480" lon="-3.6144380">
        <ele>546.8</ele>
        <time>2018-06-16T08:55:24Z</time>
      </trkpt>
      <trkpt lat="38.2658670" lon="-3.6143890">
        <ele>547.0</ele>
        <time>2018-06-16T08:55:25Z</time>
      </trkpt>
      <trkpt lat="38.2658850" lon="-3.6143390">
        <ele>547.0</ele>
        <time>2018-06-16T08:55:26Z</time>
      </trkpt>
      <trkpt lat="38.2659050" lon="-3.6142890">
        <ele>547.2</ele>
        <time>2018-06-16T08:55:27Z</time>
      </trkpt>
      <trkpt lat="38.2659230" lon="-3.6142390">
        <ele>547.4</ele>
        <time>2018-06-16T08:55:28Z</time>
      </trkpt>
      <trkpt lat="38.2659410" lon="-3.6141880">
        <ele>547.4</ele>
        <time>2018-06-16T08:55:29Z</time>
      </trkpt>
      <trkpt lat="38.2659600" lon="-3.6141370">
        <ele>547.6</ele>
        <time>2018-06-16T08:55:30Z</time>
      </trkpt>
      <trkpt lat="38.2659790" lon="-3.6140860">
        <ele>547.6</ele>
        <time>2018-06-16T08:55:31Z</time>
      </trkpt>
      <trkpt lat="38.2659980" lon="-3.6140340">
        <ele>547.6</ele>
        <time>2018-06-16T08:55:32Z</time>
      </trkpt>
      <trkpt lat="38.2660170" lon="-3.6139810">
        <ele>547.8</ele>
        <time>2018-06-16T08:55:33Z</time>
      </trkpt>
      <trkpt lat="38.2660360" lon="-3.6139280">
        <ele>547.8</ele>
        <time>2018-06-16T08:55:34Z</time>
      </trkpt>
      <trkpt lat="38.2660550" lon="-3.6138740">
        <ele>548.0</ele>
        <time>2018-06-16T08:55:35Z</time>
      </trkpt>
      <trkpt lat="38.2660750" lon="-3.6138200">
        <ele>548.0</ele>
        <time>2018-06-16T08:55:36Z</time>
      </trkpt>
      <trkpt lat="38.2660940" lon="-3.6137650">
        <ele>548.0</ele>
        <time>2018-06-16T08:55:37Z</time>
      </trkpt>
      <trkpt lat="38.2661140" lon="-3.6137100">
        <ele>548.0</ele>
        <time>2018-06-16T08:55:38Z</time>
      </trkpt>
      <trkpt lat="38.2661340" lon="-3.6136550">
        <ele>548.2</ele>
        <time>2018-06-16T08:55:39Z</time>
      </trkpt>
      <trkpt lat="38.2661550" lon="-3.6136010">
        <ele>548.2</ele>
        <time>2018-06-16T08:55:40Z</time>
      </trkpt>
      <trkpt lat="38.2661750" lon="-3.6135450">
        <ele>548.4</ele>
        <time>2018-06-16T08:55:41Z</time>
      </trkpt>
      <trkpt lat="38.2661940" lon="-3.6134890">
        <ele>548.4</ele>
        <time>2018-06-16T08:55:42Z</time>
      </trkpt>
      <trkpt lat="38.2662130" lon="-3.6134320">
        <ele>548.6</ele>
        <time>2018-06-16T08:55:43Z</time>
      </trkpt>
      <trkpt lat="38.2662340" lon="-3.6133760">
        <ele>548.8</ele>
        <time>2018-06-16T08:55:44Z</time>
      </trkpt>
      <trkpt lat="38.2662530" lon="-3.6133190">
        <ele>548.8</ele>
        <time>2018-06-16T08:55:45Z</time>
      </trkpt>
      <trkpt lat="38.2662730" lon="-3.6132630">
        <ele>548.8</ele>
        <time>2018-06-16T08:55:46Z</time>
      </trkpt>
      <trkpt lat="38.2662930" lon="-3.6132070">
        <ele>548.8</ele>
        <time>2018-06-16T08:55:47Z</time>
      </trkpt>
      <trkpt lat="38.2663150" lon="-3.6131510">
        <ele>548.8</ele>
        <time>2018-06-16T08:55:48Z</time>
      </trkpt>
      <trkpt lat="38.2663350" lon="-3.6130960">
        <ele>549.0</ele>
        <time>2018-06-16T08:55:49Z</time>
      </trkpt>
      <trkpt lat="38.2663540" lon="-3.6130390">
        <ele>549.0</ele>
        <time>2018-06-16T08:55:50Z</time>
      </trkpt>
      <trkpt lat="38.2663720" lon="-3.6129820">
        <ele>549.0</ele>
        <time>2018-06-16T08:55:51Z</time>
      </trkpt>
      <trkpt lat="38.2663900" lon="-3.6129240">
        <ele>549.2</ele>
        <time>2018-06-16T08:55:52Z</time>
      </trkpt>
      <trkpt lat="38.2664100" lon="-3.6128670">
        <ele>549.2</ele>
        <time>2018-06-16T08:55:53Z</time>
      </trkpt>
      <trkpt lat="38.2664300" lon="-3.6128100">
        <ele>549.2</ele>
        <time>2018-06-16T08:55:54Z</time>
      </trkpt>
      <trkpt lat="38.2664500" lon="-3.6127530">
        <ele>549.4</ele>
        <time>2018-06-16T08:55:55Z</time>
      </trkpt>
      <trkpt lat="38.2664690" lon="-3.6126960">
        <ele>549.4</ele>
        <time>2018-06-16T08:55:56Z</time>
      </trkpt>
      <trkpt lat="38.2664880" lon="-3.6126400">
        <ele>549.4</ele>
        <time>2018-06-16T08:55:57Z</time>
      </trkpt>
      <trkpt lat="38.2665080" lon="-3.6125830">
        <ele>549.4</ele>
        <time>2018-06-16T08:55:58Z</time>
      </trkpt>
      <trkpt lat="38.2665270" lon="-3.6125260">
        <ele>549.6</ele>
        <time>2018-06-16T08:55:59Z</time>
      </trkpt>
      <trkpt lat="38.2665460" lon="-3.6124700">
        <ele>549.8</ele>
        <time>2018-06-16T08:56:00Z</time>
      </trkpt>
      <trkpt lat="38.2665640" lon="-3.6124120">
        <ele>549.8</ele>
        <time>2018-06-16T08:56:01Z</time>
      </trkpt>
      <trkpt lat="38.2665830" lon="-3.6123560">
        <ele>550.0</ele>
        <time>2018-06-16T08:56:02Z</time>
      </trkpt>
      <trkpt lat="38.2666030" lon="-3.6123000">
        <ele>550.0</ele>
        <time>2018-06-16T08:56:03Z</time>
      </trkpt>
      <trkpt lat="38.2666220" lon="-3.6122430">
        <ele>550.0</ele>
        <time>2018-06-16T08:56:04Z</time>
      </trkpt>
      <trkpt lat="38.2666420" lon="-3.6121860">
        <ele>550.2</ele>
        <time>2018-06-16T08:56:05Z</time>
      </trkpt>
      <trkpt lat="38.2666620" lon="-3.6121290">
        <ele>550.2</ele>
        <time>2018-06-16T08:56:06Z</time>
      </trkpt>
      <trkpt lat="38.2666810" lon="-3.6120710">
        <ele>550.4</ele>
        <time>2018-06-16T08:56:07Z</time>
      </trkpt>
      <trkpt lat="38.2667010" lon="-3.6120140">
        <ele>550.4</ele>
        <time>2018-06-16T08:56:08Z</time>
      </trkpt>
      <trkpt lat="38.2667210" lon="-3.6119550">
        <ele>550.6</ele>
        <time>2018-06-16T08:56:09Z</time>
      </trkpt>
      <trkpt lat="38.2667410" lon="-3.6118960">
        <ele>550.6</ele>
        <time>2018-06-16T08:56:10Z</time>
      </trkpt>
      <trkpt lat="38.2667610" lon="-3.6118370">
        <ele>550.6</ele>
        <time>2018-06-16T08:56:11Z</time>
      </trkpt>
      <trkpt lat="38.2667810" lon="-3.6117800">
        <ele>550.6</ele>
        <time>2018-06-16T08:56:12Z</time>
      </trkpt>
      <trkpt lat="38.2668010" lon="-3.6117240">
        <ele>550.8</ele>
        <time>2018-06-16T08:56:13Z</time>
      </trkpt>
      <trkpt lat="38.2668210" lon="-3.6116670">
        <ele>550.8</ele>
        <time>2018-06-16T08:56:14Z</time>
      </trkpt>
      <trkpt lat="38.2668410" lon="-3.6116080">
        <ele>551.0</ele>
        <time>2018-06-16T08:56:15Z</time>
      </trkpt>
      <trkpt lat="38.2668630" lon="-3.6115480">
        <ele>550.8</ele>
        <time>2018-06-16T08:56:16Z</time>
      </trkpt>
      <trkpt lat="38.2668850" lon="-3.6114880">
        <ele>550.8</ele>
        <time>2018-06-16T08:56:17Z</time>
      </trkpt>
      <trkpt lat="38.2669070" lon="-3.6114270">
        <ele>550.8</ele>
        <time>2018-06-16T08:56:18Z</time>
      </trkpt>
      <trkpt lat="38.2669300" lon="-3.6113640">
        <ele>551.0</ele>
        <time>2018-06-16T08:56:19Z</time>
      </trkpt>
      <trkpt lat="38.2669530" lon="-3.6113020">
        <ele>551.0</ele>
        <time>2018-06-16T08:56:20Z</time>
      </trkpt>
      <trkpt lat="38.2669760" lon="-3.6112380">
        <ele>551.0</ele>
        <time>2018-06-16T08:56:21Z</time>
      </trkpt>
      <trkpt lat="38.2669980" lon="-3.6111740">
        <ele>551.0</ele>
        <time>2018-06-16T08:56:22Z</time>
      </trkpt>
      <trkpt lat="38.2670220" lon="-3.6111100">
        <ele>551.2</ele>
        <time>2018-06-16T08:56:23Z</time>
      </trkpt>
      <trkpt lat="38.2670450" lon="-3.6110440">
        <ele>551.0</ele>
        <time>2018-06-16T08:56:24Z</time>
      </trkpt>
      <trkpt lat="38.2670700" lon="-3.6109790">
        <ele>551.0</ele>
        <time>2018-06-16T08:56:25Z</time>
      </trkpt>
      <trkpt lat="38.2670950" lon="-3.6109150">
        <ele>550.8</ele>
        <time>2018-06-16T08:56:26Z</time>
      </trkpt>
      <trkpt lat="38.2671200" lon="-3.6108520">
        <ele>551.0</ele>
        <time>2018-06-16T08:56:27Z</time>
      </trkpt>
      <trkpt lat="38.2671430" lon="-3.6107870">
        <ele>551.0</ele>
        <time>2018-06-16T08:56:28Z</time>
      </trkpt>
      <trkpt lat="38.2671640" lon="-3.6107190">
        <ele>551.0</ele>
        <time>2018-06-16T08:56:29Z</time>
      </trkpt>
      <trkpt lat="38.2671850" lon="-3.6106510">
        <ele>551.0</ele>
        <time>2018-06-16T08:56:30Z</time>
      </trkpt>
      <trkpt lat="38.2672080" lon="-3.6105850">
        <ele>551.2</ele>
        <time>2018-06-16T08:56:31Z</time>
      </trkpt>
      <trkpt lat="38.2672330" lon="-3.6105180">
        <ele>551.0</ele>
        <time>2018-06-16T08:56:32Z</time>
      </trkpt>
      <trkpt lat="38.2672580" lon="-3.6104510">
        <ele>551.2</ele>
        <time>2018-06-16T08:56:33Z</time>
      </trkpt>
      <trkpt lat="38.2672830" lon="-3.6103820">
        <ele>551.0</ele>
        <time>2018-06-16T08:56:34Z</time>
      </trkpt>
      <trkpt lat="38.2673080" lon="-3.6103130">
        <ele>551.0</ele>
        <time>2018-06-16T08:56:35Z</time>
      </trkpt>
      <trkpt lat="38.2673340" lon="-3.6102420">
        <ele>551.0</ele>
        <time>2018-06-16T08:56:36Z</time>
      </trkpt>
      <trkpt lat="38.2673590" lon="-3.6101710">
        <ele>551.0</ele>
        <time>2018-06-16T08:56:37Z</time>
      </trkpt>
      <trkpt lat="38.2673840" lon="-3.6100960">
        <ele>550.6</ele>
        <time>2018-06-16T08:56:38Z</time>
      </trkpt>
      <trkpt lat="38.2674100" lon="-3.6100190">
        <ele>550.4</ele>
        <time>2018-06-16T08:56:39Z</time>
      </trkpt>
      <trkpt lat="38.2674370" lon="-3.6099420">
        <ele>550.2</ele>
        <time>2018-06-16T08:56:40Z</time>
      </trkpt>
      <trkpt lat="38.2674630" lon="-3.6098620">
        <ele>550.0</ele>
        <time>2018-06-16T08:56:41Z</time>
      </trkpt>
      <trkpt lat="38.2674910" lon="-3.6097800">
        <ele>549.8</ele>
        <time>2018-06-16T08:56:42Z</time>
      </trkpt>
      <trkpt lat="38.2675200" lon="-3.6096970">
        <ele>549.2</ele>
        <time>2018-06-16T08:56:43Z</time>
      </trkpt>
      <trkpt lat="38.2675510" lon="-3.6096120">
        <ele>549.0</ele>
        <time>2018-06-16T08:56:44Z</time>
      </trkpt>
      <trkpt lat="38.2675830" lon="-3.6095250">
        <ele>548.8</ele>
        <time>2018-06-16T08:56:45Z</time>
      </trkpt>
      <trkpt lat="38.2676140" lon="-3.6094340">
        <ele>548.2</ele>
        <time>2018-06-16T08:56:46Z</time>
      </trkpt>
      <trkpt lat="38.2676460" lon="-3.6093430">
        <ele>548.0</ele>
        <time>2018-06-16T08:56:47Z</time>
      </trkpt>
      <trkpt lat="38.2676800" lon="-3.6092500">
        <ele>547.6</ele>
        <time>2018-06-16T08:56:48Z</time>
      </trkpt>
      <trkpt lat="38.2677140" lon="-3.6091550">
        <ele>547.4</ele>
        <time>2018-06-16T08:56:49Z</time>
      </trkpt>
      <trkpt lat="38.2677490" lon="-3.6090590">
        <ele>547.2</ele>
        <time>2018-06-16T08:56:50Z</time>
      </trkpt>
      <trkpt lat="38.2677830" lon="-3.6089620">
        <ele>546.6</ele>
        <time>2018-06-16T08:56:51Z</time>
      </trkpt>
      <trkpt lat="38.2678170" lon="-3.6088630">
        <ele>546.2</ele>
        <time>2018-06-16T08:56:52Z</time>
      </trkpt>
      <trkpt lat="38.2678530" lon="-3.6087620">
        <ele>546.0</ele>
        <time>2018-06-16T08:56:53Z</time>
      </trkpt>
      <trkpt lat="38.2678880" lon="-3.6086590">
        <ele>545.6</ele>
        <time>2018-06-16T08:56:54Z</time>
      </trkpt>
      <trkpt lat="38.2679230" lon="-3.6085570">
        <ele>545.2</ele>
        <time>2018-06-16T08:56:55Z</time>
      </trkpt>
      <trkpt lat="38.2679550" lon="-3.6084590">
        <ele>544.8</ele>
        <time>2018-06-16T08:56:56Z</time>
      </trkpt>
      <trkpt lat="38.2679840" lon="-3.6083630">
        <ele>544.8</ele>
        <time>2018-06-16T08:56:57Z</time>
      </trkpt>
      <trkpt lat="38.2680130" lon="-3.6082650">
        <ele>544.6</ele>
        <time>2018-06-16T08:56:58Z</time>
      </trkpt>
      <trkpt lat="38.2680380" lon="-3.6081630">
        <ele>544.0</ele>
        <time>2018-06-16T08:56:59Z</time>
      </trkpt>
      <trkpt lat="38.2680590" lon="-3.6080590">
        <ele>543.8</ele>
        <time>2018-06-16T08:57:00Z</time>
      </trkpt>
      <trkpt lat="38.2680710" lon="-3.6079530">
        <ele>543.6</ele>
        <time>2018-06-16T08:57:01Z</time>
      </trkpt>
      <trkpt lat="38.2680690" lon="-3.6078460">
        <ele>543.4</ele>
        <time>2018-06-16T08:57:02Z</time>
      </trkpt>
      <trkpt lat="38.2680600" lon="-3.6077400">
        <ele>543.4</ele>
        <time>2018-06-16T08:57:03Z</time>
      </trkpt>
      <trkpt lat="38.2680490" lon="-3.6076340">
        <ele>543.2</ele>
        <time>2018-06-16T08:57:04Z</time>
      </trkpt>
      <trkpt lat="38.2680480" lon="-3.6075260">
        <ele>543.0</ele>
        <time>2018-06-16T08:57:05Z</time>
      </trkpt>
      <trkpt lat="38.2680700" lon="-3.6073660">
        <ele>542.6</ele>
        <time>2018-06-16T08:57:06Z</time>
      </trkpt>
      <trkpt lat="38.2680830" lon="-3.6073140">
        <ele>542.4</ele>
        <time>2018-06-16T08:57:07Z</time>
      </trkpt>
      <trkpt lat="38.2681090" lon="-3.6072090">
        <ele>542.2</ele>
        <time>2018-06-16T08:57:08Z</time>
      </trkpt>
      <trkpt lat="38.2681490" lon="-3.6071090">
        <ele>541.8</ele>
        <time>2018-06-16T08:57:09Z</time>
      </trkpt>
      <trkpt lat="38.2681990" lon="-3.6070150">
        <ele>541.6</ele>
        <time>2018-06-16T08:57:10Z</time>
      </trkpt>
      <trkpt lat="38.2682530" lon="-3.6069280">
        <ele>541.2</ele>
        <time>2018-06-16T08:57:11Z</time>
      </trkpt>
      <trkpt lat="38.2683060" lon="-3.6068410">
        <ele>540.8</ele>
        <time>2018-06-16T08:57:12Z</time>
      </trkpt>
      <trkpt lat="38.2683510" lon="-3.6067460">
        <ele>540.2</ele>
        <time>2018-06-16T08:57:13Z</time>
      </trkpt>
      <trkpt lat="38.2683740" lon="-3.6066520">
        <ele>540.2</ele>
        <time>2018-06-16T08:57:14Z</time>
      </trkpt>
      <trkpt lat="38.2683730" lon="-3.6065540">
        <ele>539.8</ele>
        <time>2018-06-16T08:57:15Z</time>
      </trkpt>
      <trkpt lat="38.2683520" lon="-3.6064560">
        <ele>539.6</ele>
        <time>2018-06-16T08:57:16Z</time>
      </trkpt>
      <trkpt lat="38.2683080" lon="-3.6063680">
        <ele>538.8</ele>
        <time>2018-06-16T08:57:17Z</time>
      </trkpt>
      <trkpt lat="38.2682420" lon="-3.6062970">
        <ele>538.0</ele>
        <time>2018-06-16T08:57:18Z</time>
      </trkpt>
      <trkpt lat="38.2681630" lon="-3.6062370">
        <ele>537.0</ele>
        <time>2018-06-16T08:57:19Z</time>
      </trkpt>
      <trkpt lat="38.2680770" lon="-3.6061780">
        <ele>535.8</ele>
        <time>2018-06-16T08:57:20Z</time>
      </trkpt>
      <trkpt lat="38.2679860" lon="-3.6061150">
        <ele>534.6</ele>
        <time>2018-06-16T08:57:21Z</time>
      </trkpt>
      <trkpt lat="38.2678930" lon="-3.6060490">
        <ele>534.0</ele>
        <time>2018-06-16T08:57:22Z</time>
      </trkpt>
      <trkpt lat="38.2677980" lon="-3.6059820">
        <ele>533.2</ele>
        <time>2018-06-16T08:57:23Z</time>
      </trkpt>
      <trkpt lat="38.2677030" lon="-3.6059150">
        <ele>533.2</ele>
        <time>2018-06-16T08:57:24Z</time>
      </trkpt>
      <trkpt lat="38.2676080" lon="-3.6058480">
        <ele>533.0</ele>
        <time>2018-06-16T08:57:25Z</time>
      </trkpt>
      <trkpt lat="38.2675150" lon="-3.6057830">
        <ele>533.0</ele>
        <time>2018-06-16T08:57:26Z</time>
      </trkpt>
      <trkpt lat="38.2674230" lon="-3.6057170">
        <ele>532.8</ele>
        <time>2018-06-16T08:57:27Z</time>
      </trkpt>
      <trkpt lat="38.2673340" lon="-3.6056520">
        <ele>532.8</ele>
        <time>2018-06-16T08:57:28Z</time>
      </trkpt>
      <trkpt lat="38.2672460" lon="-3.6055900">
        <ele>533.2</ele>
        <time>2018-06-16T08:57:29Z</time>
      </trkpt>
      <trkpt lat="38.2671590" lon="-3.6055290">
        <ele>533.2</ele>
        <time>2018-06-16T08:57:30Z</time>
      </trkpt>
      <trkpt lat="38.2670730" lon="-3.6054690">
        <ele>533.0</ele>
        <time>2018-06-16T08:57:31Z</time>
      </trkpt>
      <trkpt lat="38.2669900" lon="-3.6054080">
        <ele>533.0</ele>
        <time>2018-06-16T08:57:32Z</time>
      </trkpt>
      <trkpt lat="38.2669070" lon="-3.6053480">
        <ele>532.8</ele>
        <time>2018-06-16T08:57:33Z</time>
      </trkpt>
      <trkpt lat="38.2668250" lon="-3.6052900">
        <ele>533.0</ele>
        <time>2018-06-16T08:57:34Z</time>
      </trkpt>
      <trkpt lat="38.2667450" lon="-3.6052340">
        <ele>533.0</ele>
        <time>2018-06-16T08:57:35Z</time>
      </trkpt>
      <trkpt lat="38.2666650" lon="-3.6051780">
        <ele>532.8</ele>
        <time>2018-06-16T08:57:36Z</time>
      </trkpt>
      <trkpt lat="38.2665880" lon="-3.6051190">
        <ele>532.4</ele>
        <time>2018-06-16T08:57:37Z</time>
      </trkpt>
      <trkpt lat="38.2665110" lon="-3.6050610">
        <ele>532.8</ele>
        <time>2018-06-16T08:57:38Z</time>
      </trkpt>
      <trkpt lat="38.2664340" lon="-3.6050040">
        <ele>532.8</ele>
        <time>2018-06-16T08:57:39Z</time>
      </trkpt>
      <trkpt lat="38.2663560" lon="-3.6049490">
        <ele>532.6</ele>
        <time>2018-06-16T08:57:40Z</time>
      </trkpt>
      <trkpt lat="38.2662790" lon="-3.6048940">
        <ele>532.6</ele>
        <time>2018-06-16T08:57:41Z</time>
      </trkpt>
      <trkpt lat="38.2662020" lon="-3.6048400">
        <ele>532.2</ele>
        <time>2018-06-16T08:57:42Z</time>
      </trkpt>
      <trkpt lat="38.2661250" lon="-3.6047880">
        <ele>532.2</ele>
        <time>2018-06-16T08:57:43Z</time>
      </trkpt>
      <trkpt lat="38.2660490" lon="-3.6047350">
        <ele>532.4</ele>
        <time>2018-06-16T08:57:44Z</time>
      </trkpt>
      <trkpt lat="38.2659730" lon="-3.6046810">
        <ele>532.4</ele>
        <time>2018-06-16T08:57:45Z</time>
      </trkpt>
      <trkpt lat="38.2658990" lon="-3.6046250">
        <ele>532.4</ele>
        <time>2018-06-16T08:57:46Z</time>
      </trkpt>
      <trkpt lat="38.2658270" lon="-3.6045650">
        <ele>532.4</ele>
        <time>2018-06-16T08:57:47Z</time>
      </trkpt>
      <trkpt lat="38.2657580" lon="-3.6045010">
        <ele>532.6</ele>
        <time>2018-06-16T08:57:48Z</time>
      </trkpt>
      <trkpt lat="38.2656910" lon="-3.6044330">
        <ele>532.6</ele>
        <time>2018-06-16T08:57:49Z</time>
      </trkpt>
      <trkpt lat="38.2656280" lon="-3.6043600">
        <ele>532.4</ele>
        <time>2018-06-16T08:57:50Z</time>
      </trkpt>
      <trkpt lat="38.2655690" lon="-3.6042790">
        <ele>532.6</ele>
        <time>2018-06-16T08:57:51Z</time>
      </trkpt>
      <trkpt lat="38.2655160" lon="-3.6041910">
        <ele>532.4</ele>
        <time>2018-06-16T08:57:52Z</time>
      </trkpt>
      <trkpt lat="38.2654670" lon="-3.6040970">
        <ele>532.0</ele>
        <time>2018-06-16T08:57:53Z</time>
      </trkpt>
      <trkpt lat="38.2654230" lon="-3.6039970">
        <ele>532.0</ele>
        <time>2018-06-16T08:57:54Z</time>
      </trkpt>
      <trkpt lat="38.2653870" lon="-3.6038880">
        <ele>531.4</ele>
        <time>2018-06-16T08:57:55Z</time>
      </trkpt>
      <trkpt lat="38.2653600" lon="-3.6037730">
        <ele>530.8</ele>
        <time>2018-06-16T08:57:56Z</time>
      </trkpt>
      <trkpt lat="38.2653430" lon="-3.6036500">
        <ele>530.2</ele>
        <time>2018-06-16T08:57:57Z</time>
      </trkpt>
      <trkpt lat="38.2653380" lon="-3.6035200">
        <ele>529.8</ele>
        <time>2018-06-16T08:57:58Z</time>
      </trkpt>
      <trkpt lat="38.2653440" lon="-3.6033870">
        <ele>528.6</ele>
        <time>2018-06-16T08:57:59Z</time>
      </trkpt>
      <trkpt lat="38.2653630" lon="-3.6032480">
        <ele>527.8</ele>
        <time>2018-06-16T08:58:00Z</time>
      </trkpt>
      <trkpt lat="38.2653950" lon="-3.6031100">
        <ele>526.8</ele>
        <time>2018-06-16T08:58:01Z</time>
      </trkpt>
      <trkpt lat="38.2654410" lon="-3.6029700">
        <ele>526.0</ele>
        <time>2018-06-16T08:58:02Z</time>
      </trkpt>
      <trkpt lat="38.2655020" lon="-3.6028340">
        <ele>524.8</ele>
        <time>2018-06-16T08:58:03Z</time>
      </trkpt>
      <trkpt lat="38.2655760" lon="-3.6027010">
        <ele>523.4</ele>
        <time>2018-06-16T08:58:04Z</time>
      </trkpt>
      <trkpt lat="38.2656620" lon="-3.6025740">
        <ele>522.0</ele>
        <time>2018-06-16T08:58:05Z</time>
      </trkpt>
      <trkpt lat="38.2657570" lon="-3.6024490">
        <ele>521.2</ele>
        <time>2018-06-16T08:58:06Z</time>
      </trkpt>
      <trkpt lat="38.2658590" lon="-3.6023270">
        <ele>520.2</ele>
        <time>2018-06-16T08:58:07Z</time>
      </trkpt>
      <trkpt lat="38.2659660" lon="-3.6022080">
        <ele>518.6</ele>
        <time>2018-06-16T08:58:08Z</time>
      </trkpt>
      <trkpt lat="38.2660730" lon="-3.6020870">
        <ele>517.2</ele>
        <time>2018-06-16T08:58:09Z</time>
      </trkpt>
      <trkpt lat="38.2661800" lon="-3.6019570">
        <ele>516.2</ele>
        <time>2018-06-16T08:58:10Z</time>
      </trkpt>
      <trkpt lat="38.2662860" lon="-3.6018230">
        <ele>514.8</ele>
        <time>2018-06-16T08:58:11Z</time>
      </trkpt>
      <trkpt lat="38.2663880" lon="-3.6016820">
        <ele>513.4</ele>
        <time>2018-06-16T08:58:12Z</time>
      </trkpt>
      <trkpt lat="38.2664850" lon="-3.6015300">
        <ele>511.6</ele>
        <time>2018-06-16T08:58:13Z</time>
      </trkpt>
      <trkpt lat="38.2665760" lon="-3.6013700">
        <ele>510.2</ele>
        <time>2018-06-16T08:58:14Z</time>
      </trkpt>
      <trkpt lat="38.2666570" lon="-3.6012010">
        <ele>509.2</ele>
        <time>2018-06-16T08:58:15Z</time>
      </trkpt>
      <trkpt lat="38.2667260" lon="-3.6010210">
        <ele>507.4</ele>
        <time>2018-06-16T08:58:16Z</time>
      </trkpt>
      <trkpt lat="38.2667820" lon="-3.6008330">
        <ele>506.0</ele>
        <time>2018-06-16T08:58:17Z</time>
      </trkpt>
      <trkpt lat="38.2668270" lon="-3.6006400">
        <ele>504.8</ele>
        <time>2018-06-16T08:58:18Z</time>
      </trkpt>
      <trkpt lat="38.2668590" lon="-3.6004440">
        <ele>504.0</ele>
        <time>2018-06-16T08:58:19Z</time>
      </trkpt>
      <trkpt lat="38.2668770" lon="-3.6002470">
        <ele>503.2</ele>
        <time>2018-06-16T08:58:20Z</time>
      </trkpt>
      <trkpt lat="38.2668790" lon="-3.6000520">
        <ele>502.8</ele>
        <time>2018-06-16T08:58:21Z</time>
      </trkpt>
      <trkpt lat="38.2668680" lon="-3.5998610">
        <ele>502.4</ele>
        <time>2018-06-16T08:58:22Z</time>
      </trkpt>
      <trkpt lat="38.2668470" lon="-3.5996770">
        <ele>502.2</ele>
        <time>2018-06-16T08:58:23Z</time>
      </trkpt>
      <trkpt lat="38.2668130" lon="-3.5995030">
        <ele>502.0</ele>
        <time>2018-06-16T08:58:24Z</time>
      </trkpt>
      <trkpt lat="38.2667730" lon="-3.5993380">
        <ele>502.4</ele>
        <time>2018-06-16T08:58:25Z</time>
      </trkpt>
      <trkpt lat="38.2667260" lon="-3.5991840">
        <ele>502.8</ele>
        <time>2018-06-16T08:58:26Z</time>
      </trkpt>
      <trkpt lat="38.2666780" lon="-3.5990380">
        <ele>503.4</ele>
        <time>2018-06-16T08:58:27Z</time>
      </trkpt>
      <trkpt lat="38.2666290" lon="-3.5988990">
        <ele>504.0</ele>
        <time>2018-06-16T08:58:28Z</time>
      </trkpt>
      <trkpt lat="38.2665800" lon="-3.5987680">
        <ele>504.4</ele>
        <time>2018-06-16T08:58:29Z</time>
      </trkpt>
      <trkpt lat="38.2665300" lon="-3.5986450">
        <ele>505.0</ele>
        <time>2018-06-16T08:58:30Z</time>
      </trkpt>
      <trkpt lat="38.2664800" lon="-3.5985290">
        <ele>505.6</ele>
        <time>2018-06-16T08:58:31Z</time>
      </trkpt>
      <trkpt lat="38.2664310" lon="-3.5984180">
        <ele>506.6</ele>
        <time>2018-06-16T08:58:32Z</time>
      </trkpt>
      <trkpt lat="38.2663840" lon="-3.5983120">
        <ele>507.0</ele>
        <time>2018-06-16T08:58:33Z</time>
      </trkpt>
      <trkpt lat="38.2663400" lon="-3.5982080">
        <ele>507.4</ele>
        <time>2018-06-16T08:58:34Z</time>
      </trkpt>
      <trkpt lat="38.2662990" lon="-3.5981060">
        <ele>507.8</ele>
        <time>2018-06-16T08:58:35Z</time>
      </trkpt>
      <trkpt lat="38.2662580" lon="-3.5980060">
        <ele>508.4</ele>
        <time>2018-06-16T08:58:36Z</time>
      </trkpt>
      <trkpt lat="38.2662180" lon="-3.5979070">
        <ele>508.6</ele>
        <time>2018-06-16T08:58:37Z</time>
      </trkpt>
      <trkpt lat="38.2661790" lon="-3.5978110">
        <ele>508.8</ele>
        <time>2018-06-16T08:58:38Z</time>
      </trkpt>
      <trkpt lat="38.2661430" lon="-3.5977160">
        <ele>509.0</ele>
        <time>2018-06-16T08:58:39Z</time>
      </trkpt>
      <trkpt lat="38.2661070" lon="-3.5976200">
        <ele>509.0</ele>
        <time>2018-06-16T08:58:40Z</time>
      </trkpt>
      <trkpt lat="38.2660730" lon="-3.5975250">
        <ele>509.4</ele>
        <time>2018-06-16T08:58:41Z</time>
      </trkpt>
      <trkpt lat="38.2660420" lon="-3.5974290">
        <ele>509.4</ele>
        <time>2018-06-16T08:58:42Z</time>
      </trkpt>
      <trkpt lat="38.2660130" lon="-3.5973320">
        <ele>509.2</ele>
        <time>2018-06-16T08:58:43Z</time>
      </trkpt>
      <trkpt lat="38.2659850" lon="-3.5972340">
        <ele>509.2</ele>
        <time>2018-06-16T08:58:44Z</time>
      </trkpt>
      <trkpt lat="38.2659590" lon="-3.5971340">
        <ele>509.2</ele>
        <time>2018-06-16T08:58:45Z</time>
      </trkpt>
      <trkpt lat="38.2659350" lon="-3.5970340">
        <ele>509.2</ele>
        <time>2018-06-16T08:58:46Z</time>
      </trkpt>
      <trkpt lat="38.2659130" lon="-3.5969320">
        <ele>509.2</ele>
        <time>2018-06-16T08:58:47Z</time>
      </trkpt>
      <trkpt lat="38.2658920" lon="-3.5968300">
        <ele>509.0</ele>
        <time>2018-06-16T08:58:48Z</time>
      </trkpt>
      <trkpt lat="38.2658690" lon="-3.5967280">
        <ele>509.2</ele>
        <time>2018-06-16T08:58:49Z</time>
      </trkpt>
      <trkpt lat="38.2658450" lon="-3.5966260">
        <ele>509.2</ele>
        <time>2018-06-16T08:58:50Z</time>
      </trkpt>
      <trkpt lat="38.2658230" lon="-3.5965230">
        <ele>509.2</ele>
        <time>2018-06-16T08:58:51Z</time>
      </trkpt>
      <trkpt lat="38.2658010" lon="-3.5964200">
        <ele>509.0</ele>
        <time>2018-06-16T08:58:52Z</time>
      </trkpt>
      <trkpt lat="38.2657810" lon="-3.5963170">
        <ele>509.0</ele>
        <time>2018-06-16T08:58:53Z</time>
      </trkpt>
      <trkpt lat="38.2657600" lon="-3.5962140">
        <ele>509.0</ele>
        <time>2018-06-16T08:58:54Z</time>
      </trkpt>
      <trkpt lat="38.2657390" lon="-3.5961110">
        <ele>509.0</ele>
        <time>2018-06-16T08:58:55Z</time>
      </trkpt>
      <trkpt lat="38.2657180" lon="-3.5960080">
        <ele>508.8</ele>
        <time>2018-06-16T08:58:56Z</time>
      </trkpt>
      <trkpt lat="38.2656970" lon="-3.5959040">
        <ele>508.8</ele>
        <time>2018-06-16T08:58:57Z</time>
      </trkpt>
      <trkpt lat="38.2656760" lon="-3.5958020">
        <ele>508.8</ele>
        <time>2018-06-16T08:58:58Z</time>
      </trkpt>
      <trkpt lat="38.2656550" lon="-3.5957000">
        <ele>508.6</ele>
        <time>2018-06-16T08:58:59Z</time>
      </trkpt>
      <trkpt lat="38.2656340" lon="-3.5955990">
        <ele>508.6</ele>
        <time>2018-06-16T08:59:00Z</time>
      </trkpt>
      <trkpt lat="38.2656130" lon="-3.5954980">
        <ele>508.6</ele>
        <time>2018-06-16T08:59:01Z</time>
      </trkpt>
      <trkpt lat="38.2655920" lon="-3.5953980">
        <ele>508.8</ele>
        <time>2018-06-16T08:59:02Z</time>
      </trkpt>
      <trkpt lat="38.2655710" lon="-3.5952980">
        <ele>508.6</ele>
        <time>2018-06-16T08:59:03Z</time>
      </trkpt>
      <trkpt lat="38.2655510" lon="-3.5951990">
        <ele>508.6</ele>
        <time>2018-06-16T08:59:04Z</time>
      </trkpt>
      <trkpt lat="38.2655280" lon="-3.5951010">
        <ele>508.6</ele>
        <time>2018-06-16T08:59:05Z</time>
      </trkpt>
      <trkpt lat="38.2655070" lon="-3.5950020">
        <ele>508.6</ele>
        <time>2018-06-16T08:59:06Z</time>
      </trkpt>
      <trkpt lat="38.2654850" lon="-3.5949040">
        <ele>508.6</ele>
        <time>2018-06-16T08:59:07Z</time>
      </trkpt>
      <trkpt lat="38.2654640" lon="-3.5948050">
        <ele>508.4</ele>
        <time>2018-06-16T08:59:08Z</time>
      </trkpt>
      <trkpt lat="38.2654420" lon="-3.5947060">
        <ele>508.4</ele>
        <time>2018-06-16T08:59:09Z</time>
      </trkpt>
      <trkpt lat="38.2654210" lon="-3.5946090">
        <ele>508.6</ele>
        <time>2018-06-16T08:59:10Z</time>
      </trkpt>
      <trkpt lat="38.2653980" lon="-3.5945120">
        <ele>508.6</ele>
        <time>2018-06-16T08:59:11Z</time>
      </trkpt>
      <trkpt lat="38.2653750" lon="-3.5944160">
        <ele>508.6</ele>
        <time>2018-06-16T08:59:12Z</time>
      </trkpt>
      <trkpt lat="38.2653530" lon="-3.5943190">
        <ele>508.4</ele>
        <time>2018-06-16T08:59:13Z</time>
      </trkpt>
      <trkpt lat="38.2653300" lon="-3.5942220">
        <ele>508.6</ele>
        <time>2018-06-16T08:59:14Z</time>
      </trkpt>
      <trkpt lat="38.2653070" lon="-3.5941250">
        <ele>508.4</ele>
        <time>2018-06-16T08:59:15Z</time>
      </trkpt>
      <trkpt lat="38.2652840" lon="-3.5940280">
        <ele>508.4</ele>
        <time>2018-06-16T08:59:16Z</time>
      </trkpt>
      <trkpt lat="38.2652610" lon="-3.5939310">
        <ele>508.6</ele>
        <time>2018-06-16T08:59:17Z</time>
      </trkpt>
      <trkpt lat="38.2652380" lon="-3.5938350">
        <ele>508.4</ele>
        <time>2018-06-16T08:59:18Z</time>
      </trkpt>
      <trkpt lat="38.2652140" lon="-3.5937400">
        <ele>508.6</ele>
        <time>2018-06-16T08:59:19Z</time>
      </trkpt>
      <trkpt lat="38.2651920" lon="-3.5936440">
        <ele>508.4</ele>
        <time>2018-06-16T08:59:20Z</time>
      </trkpt>
      <trkpt lat="38.2651700" lon="-3.5935480">
        <ele>508.4</ele>
        <time>2018-06-16T08:59:21Z</time>
      </trkpt>
      <trkpt lat="38.2651480" lon="-3.5934530">
        <ele>508.2</ele>
        <time>2018-06-16T08:59:22Z</time>
      </trkpt>
      <trkpt lat="38.2651240" lon="-3.5933580">
        <ele>508.4</ele>
        <time>2018-06-16T08:59:23Z</time>
      </trkpt>
      <trkpt lat="38.2651020" lon="-3.5932640">
        <ele>508.0</ele>
        <time>2018-06-16T08:59:24Z</time>
      </trkpt>
      <trkpt lat="38.2650790" lon="-3.5931700">
        <ele>508.2</ele>
        <time>2018-06-16T08:59:25Z</time>
      </trkpt>
      <trkpt lat="38.2650550" lon="-3.5930770">
        <ele>508.2</ele>
        <time>2018-06-16T08:59:26Z</time>
      </trkpt>
      <trkpt lat="38.2650330" lon="-3.5929840">
        <ele>508.2</ele>
        <time>2018-06-16T08:59:27Z</time>
      </trkpt>
      <trkpt lat="38.2650120" lon="-3.5928910">
        <ele>508.2</ele>
        <time>2018-06-16T08:59:28Z</time>
      </trkpt>
      <trkpt lat="38.2649910" lon="-3.5927980">
        <ele>508.2</ele>
        <time>2018-06-16T08:59:29Z</time>
      </trkpt>
      <trkpt lat="38.2649690" lon="-3.5927060">
        <ele>508.0</ele>
        <time>2018-06-16T08:59:30Z</time>
      </trkpt>
      <trkpt lat="38.2649470" lon="-3.5926130">
        <ele>508.2</ele>
        <time>2018-06-16T08:59:31Z</time>
      </trkpt>
      <trkpt lat="38.2649230" lon="-3.5925220">
        <ele>508.2</ele>
        <time>2018-06-16T08:59:32Z</time>
      </trkpt>
      <trkpt lat="38.2649000" lon="-3.5924290">
        <ele>508.2</ele>
        <time>2018-06-16T08:59:33Z</time>
      </trkpt>
      <trkpt lat="38.2648760" lon="-3.5923370">
        <ele>508.2</ele>
        <time>2018-06-16T08:59:34Z</time>
      </trkpt>
      <trkpt lat="38.2648510" lon="-3.5922450">
        <ele>508.2</ele>
        <time>2018-06-16T08:59:35Z</time>
      </trkpt>
      <trkpt lat="38.2648240" lon="-3.5921540">
        <ele>508.2</ele>
        <time>2018-06-16T08:59:36Z</time>
      </trkpt>
      <trkpt lat="38.2647970" lon="-3.5920620">
        <ele>508.2</ele>
        <time>2018-06-16T08:59:37Z</time>
      </trkpt>
      <trkpt lat="38.2647690" lon="-3.5919710">
        <ele>508.2</ele>
        <time>2018-06-16T08:59:38Z</time>
      </trkpt>
      <trkpt lat="38.2647390" lon="-3.5918800">
        <ele>508.0</ele>
        <time>2018-06-16T08:59:39Z</time>
      </trkpt>
      <trkpt lat="38.2647060" lon="-3.5917900">
        <ele>507.8</ele>
        <time>2018-06-16T08:59:40Z</time>
      </trkpt>
      <trkpt lat="38.2646720" lon="-3.5917020">
        <ele>507.6</ele>
        <time>2018-06-16T08:59:41Z</time>
      </trkpt>
      <trkpt lat="38.2646360" lon="-3.5916150">
        <ele>507.8</ele>
        <time>2018-06-16T08:59:42Z</time>
      </trkpt>
      <trkpt lat="38.2645970" lon="-3.5915290">
        <ele>507.8</ele>
        <time>2018-06-16T08:59:43Z</time>
      </trkpt>
      <trkpt lat="38.2645560" lon="-3.5914450">
        <ele>507.8</ele>
        <time>2018-06-16T08:59:44Z</time>
      </trkpt>
      <trkpt lat="38.2645140" lon="-3.5913600">
        <ele>507.6</ele>
        <time>2018-06-16T08:59:45Z</time>
      </trkpt>
      <trkpt lat="38.2644700" lon="-3.5912770">
        <ele>507.2</ele>
        <time>2018-06-16T08:59:46Z</time>
      </trkpt>
      <trkpt lat="38.2644240" lon="-3.5911960">
        <ele>507.6</ele>
        <time>2018-06-16T08:59:47Z</time>
      </trkpt>
      <trkpt lat="38.2643760" lon="-3.5911140">
        <ele>507.2</ele>
        <time>2018-06-16T08:59:48Z</time>
      </trkpt>
      <trkpt lat="38.2643270" lon="-3.5910310">
        <ele>507.0</ele>
        <time>2018-06-16T08:59:49Z</time>
      </trkpt>
      <trkpt lat="38.2642760" lon="-3.5909470">
        <ele>506.4</ele>
        <time>2018-06-16T08:59:50Z</time>
      </trkpt>
      <trkpt lat="38.2642230" lon="-3.5908610">
        <ele>505.8</ele>
        <time>2018-06-16T08:59:51Z</time>
      </trkpt>
      <trkpt lat="38.2641670" lon="-3.5907750">
        <ele>505.6</ele>
        <time>2018-06-16T08:59:52Z</time>
      </trkpt>
      <trkpt lat="38.2641090" lon="-3.5906860">
        <ele>505.2</ele>
        <time>2018-06-16T08:59:53Z</time>
      </trkpt>
      <trkpt lat="38.2640500" lon="-3.5905920">
        <ele>504.6</ele>
        <time>2018-06-16T08:59:54Z</time>
      </trkpt>
      <trkpt lat="38.2639900" lon="-3.5904950">
        <ele>503.8</ele>
        <time>2018-06-16T08:59:55Z</time>
      </trkpt>
      <trkpt lat="38.2639290" lon="-3.5903950">
        <ele>503.0</ele>
        <time>2018-06-16T08:59:56Z</time>
      </trkpt>
      <trkpt lat="38.2638670" lon="-3.5902910">
        <ele>502.6</ele>
        <time>2018-06-16T08:59:57Z</time>
      </trkpt>
      <trkpt lat="38.2638060" lon="-3.5901830">
        <ele>501.4</ele>
        <time>2018-06-16T08:59:58Z</time>
      </trkpt>
      <trkpt lat="38.2637460" lon="-3.5900690">
        <ele>500.8</ele>
        <time>2018-06-16T08:59:59Z</time>
      </trkpt>
      <trkpt lat="38.2636880" lon="-3.5899510">
        <ele>500.0</ele>
        <time>2018-06-16T09:00:00Z</time>
      </trkpt>
      <trkpt lat="38.2636330" lon="-3.5898280">
        <ele>499.4</ele>
        <time>2018-06-16T09:00:01Z</time>
      </trkpt>
      <trkpt lat="38.2635830" lon="-3.5896990">
        <ele>498.4</ele>
        <time>2018-06-16T09:00:02Z</time>
      </trkpt>
      <trkpt lat="38.2635370" lon="-3.5895650">
        <ele>498.0</ele>
        <time>2018-06-16T09:00:03Z</time>
      </trkpt>
      <trkpt lat="38.2634930" lon="-3.5894260">
        <ele>497.0</ele>
        <time>2018-06-16T09:00:04Z</time>
      </trkpt>
      <trkpt lat="38.2634550" lon="-3.5892830">
        <ele>496.4</ele>
        <time>2018-06-16T09:00:05Z</time>
      </trkpt>
      <trkpt lat="38.2634220" lon="-3.5891360">
        <ele>495.2</ele>
        <time>2018-06-16T09:00:06Z</time>
      </trkpt>
      <trkpt lat="38.2633950" lon="-3.5889840">
        <ele>494.6</ele>
        <time>2018-06-16T09:00:07Z</time>
      </trkpt>
      <trkpt lat="38.2633740" lon="-3.5888300">
        <ele>493.8</ele>
        <time>2018-06-16T09:00:08Z</time>
      </trkpt>
      <trkpt lat="38.2633610" lon="-3.5886730">
        <ele>492.4</ele>
        <time>2018-06-16T09:00:09Z</time>
      </trkpt>
      <trkpt lat="38.2633550" lon="-3.5885140">
        <ele>492.0</ele>
        <time>2018-06-16T09:00:10Z</time>
      </trkpt>
      <trkpt lat="38.2633550" lon="-3.5883530">
        <ele>491.0</ele>
        <time>2018-06-16T09:00:11Z</time>
      </trkpt>
      <trkpt lat="38.2633610" lon="-3.5881920">
        <ele>490.2</ele>
        <time>2018-06-16T09:00:12Z</time>
      </trkpt>
      <trkpt lat="38.2633720" lon="-3.5880350">
        <ele>490.0</ele>
        <time>2018-06-16T09:00:13Z</time>
      </trkpt>
      <trkpt lat="38.2633860" lon="-3.5878790">
        <ele>489.6</ele>
        <time>2018-06-16T09:00:14Z</time>
      </trkpt>
      <trkpt lat="38.2634020" lon="-3.5877260">
        <ele>489.2</ele>
        <time>2018-06-16T09:00:15Z</time>
      </trkpt>
      <trkpt lat="38.2634200" lon="-3.5875790">
        <ele>488.8</ele>
        <time>2018-06-16T09:00:16Z</time>
      </trkpt>
      <trkpt lat="38.2634350" lon="-3.5874410">
        <ele>489.2</ele>
        <time>2018-06-16T09:00:17Z</time>
      </trkpt>
      <trkpt lat="38.2634500" lon="-3.5873160">
        <ele>489.2</ele>
        <time>2018-06-16T09:00:18Z</time>
      </trkpt>
      <trkpt lat="38.2634620" lon="-3.5872030">
        <ele>489.2</ele>
        <time>2018-06-16T09:00:19Z</time>
      </trkpt>
      <trkpt lat="38.2634630" lon="-3.5871000">
        <ele>489.4</ele>
        <time>2018-06-16T09:00:20Z</time>
      </trkpt>
      <trkpt lat="38.2634510" lon="-3.5870110">
        <ele>489.4</ele>
        <time>2018-06-16T09:00:21Z</time>
      </trkpt>
      <trkpt lat="38.2634240" lon="-3.5869380">
        <ele>489.6</ele>
        <time>2018-06-16T09:00:22Z</time>
      </trkpt>
      <trkpt lat="38.2633830" lon="-3.5868760">
        <ele>489.2</ele>
        <time>2018-06-16T09:00:23Z</time>
      </trkpt>
      <trkpt lat="38.2633300" lon="-3.5868280">
        <ele>489.0</ele>
        <time>2018-06-16T09:00:24Z</time>
      </trkpt>
      <trkpt lat="38.2632680" lon="-3.5867920">
        <ele>489.0</ele>
        <time>2018-06-16T09:00:25Z</time>
      </trkpt>
      <trkpt lat="38.2632010" lon="-3.5867650">
        <ele>488.2</ele>
        <time>2018-06-16T09:00:26Z</time>
      </trkpt>
      <trkpt lat="38.2631310" lon="-3.5867420">
        <ele>488.4</ele>
        <time>2018-06-16T09:00:27Z</time>
      </trkpt>
      <trkpt lat="38.2630590" lon="-3.5867180">
        <ele>488.4</ele>
        <time>2018-06-16T09:00:28Z</time>
      </trkpt>
      <trkpt lat="38.2629860" lon="-3.5866910">
        <ele>488.2</ele>
        <time>2018-06-16T09:00:29Z</time>
      </trkpt>
      <trkpt lat="38.2629140" lon="-3.5866620">
        <ele>487.8</ele>
        <time>2018-06-16T09:00:30Z</time>
      </trkpt>
      <trkpt lat="38.2628410" lon="-3.5866310">
        <ele>487.6</ele>
        <time>2018-06-16T09:00:31Z</time>
      </trkpt>
      <trkpt lat="38.2627670" lon="-3.5865940">
        <ele>487.2</ele>
        <time>2018-06-16T09:00:32Z</time>
      </trkpt>
      <trkpt lat="38.2626930" lon="-3.5865550">
        <ele>487.0</ele>
        <time>2018-06-16T09:00:33Z</time>
      </trkpt>
      <trkpt lat="38.2626170" lon="-3.5865200">
        <ele>487.0</ele>
        <time>2018-06-16T09:00:34Z</time>
      </trkpt>
      <trkpt lat="38.2625400" lon="-3.5864850">
        <ele>486.6</ele>
        <time>2018-06-16T09:00:35Z</time>
      </trkpt>
      <trkpt lat="38.2624620" lon="-3.5864490">
        <ele>486.4</ele>
        <time>2018-06-16T09:00:36Z</time>
      </trkpt>
      <trkpt lat="38.2623850" lon="-3.5864120">
        <ele>486.2</ele>
        <time>2018-06-16T09:00:37Z</time>
      </trkpt>
      <trkpt lat="38.2623070" lon="-3.5863740">
        <ele>485.8</ele>
        <time>2018-06-16T09:00:38Z</time>
      </trkpt>
      <trkpt lat="38.2622290" lon="-3.5863330">
        <ele>485.8</ele>
        <time>2018-06-16T09:00:39Z</time>
      </trkpt>
      <trkpt lat="38.2621510" lon="-3.5862900">
        <ele>485.4</ele>
        <time>2018-06-16T09:00:40Z</time>
      </trkpt>
      <trkpt lat="38.2620730" lon="-3.5862440">
        <ele>485.4</ele>
        <time>2018-06-16T09:00:41Z</time>
      </trkpt>
      <trkpt lat="38.2619950" lon="-3.5861970">
        <ele>485.2</ele>
        <time>2018-06-16T09:00:42Z</time>
      </trkpt>
      <trkpt lat="38.2619160" lon="-3.5861470">
        <ele>485.0</ele>
        <time>2018-06-16T09:00:43Z</time>
      </trkpt>
      <trkpt lat="38.2618390" lon="-3.5860980">
        <ele>484.8</ele>
        <time>2018-06-16T09:00:44Z</time>
      </trkpt>
      <trkpt lat="38.2617600" lon="-3.5860450">
        <ele>484.6</ele>
        <time>2018-06-16T09:00:45Z</time>
      </trkpt>
      <trkpt lat="38.2616820" lon="-3.5859930">
        <ele>484.4</ele>
        <time>2018-06-16T09:00:46Z</time>
      </trkpt>
      <trkpt lat="38.2616030" lon="-3.5859350">
        <ele>484.0</ele>
        <time>2018-06-16T09:00:47Z</time>
      </trkpt>
      <trkpt lat="38.2615250" lon="-3.5858760">
        <ele>483.6</ele>
        <time>2018-06-16T09:00:48Z</time>
      </trkpt>
      <trkpt lat="38.2614470" lon="-3.5858150">
        <ele>483.4</ele>
        <time>2018-06-16T09:00:49Z</time>
      </trkpt>
      <trkpt lat="38.2613710" lon="-3.5857530">
        <ele>483.2</ele>
        <time>2018-06-16T09:00:50Z</time>
      </trkpt>
      <trkpt lat="38.2612950" lon="-3.5856890">
        <ele>482.8</ele>
        <time>2018-06-16T09:00:51Z</time>
      </trkpt>
      <trkpt lat="38.2612190" lon="-3.5856230">
        <ele>482.6</ele>
        <time>2018-06-16T09:00:52Z</time>
      </trkpt>
      <trkpt lat="38.2611450" lon="-3.5855550">
        <ele>482.4</ele>
        <time>2018-06-16T09:00:53Z</time>
      </trkpt>
      <trkpt lat="38.2610710" lon="-3.5854850">
        <ele>482.2</ele>
        <time>2018-06-16T09:00:54Z</time>
      </trkpt>
      <trkpt lat="38.2609980" lon="-3.5854120">
        <ele>481.8</ele>
        <time>2018-06-16T09:00:55Z</time>
      </trkpt>
      <trkpt lat="38.2609250" lon="-3.5853380">
        <ele>481.6</ele>
        <time>2018-06-16T09:00:56Z</time>
      </trkpt>
      <trkpt lat="38.2608520" lon="-3.5852620">
        <ele>481.2</ele>
        <time>2018-06-16T09:00:57Z</time>
      </trkpt>
      <trkpt lat="38.2607800" lon="-3.5851850">
        <ele>481.2</ele>
        <time>2018-06-16T09:00:58Z</time>
      </trkpt>
      <trkpt lat="38.2607090" lon="-3.5851060">
        <ele>480.8</ele>
        <time>2018-06-16T09:00:59Z</time>
      </trkpt>
      <trkpt lat="38.2606400" lon="-3.5850240">
        <ele>480.2</ele>
        <time>2018-06-16T09:01:00Z</time>
      </trkpt>
      <trkpt lat="38.2605710" lon="-3.5849420">
        <ele>480.4</ele>
        <time>2018-06-16T09:01:01Z</time>
      </trkpt>
      <trkpt lat="38.2605040" lon="-3.5848580">
        <ele>480.2</ele>
        <time>2018-06-16T09:01:02Z</time>
      </trkpt>
      <trkpt lat="38.2604370" lon="-3.5847710">
        <ele>479.8</ele>
        <time>2018-06-16T09:01:03Z</time>
      </trkpt>
      <trkpt lat="38.2603720" lon="-3.5846840">
        <ele>479.4</ele>
        <time>2018-06-16T09:01:04Z</time>
      </trkpt>
      <trkpt lat="38.2603070" lon="-3.5845950">
        <ele>479.2</ele>
        <time>2018-06-16T09:01:05Z</time>
      </trkpt>
      <trkpt lat="38.2602420" lon="-3.5845050">
        <ele>479.0</ele>
        <time>2018-06-16T09:01:06Z</time>
      </trkpt>
      <trkpt lat="38.2601790" lon="-3.5844130">
        <ele>478.8</ele>
        <time>2018-06-16T09:01:07Z</time>
      </trkpt>
      <trkpt lat="38.2601170" lon="-3.5843200">
        <ele>478.4</ele>
        <time>2018-06-16T09:01:08Z</time>
      </trkpt>
      <trkpt lat="38.2600560" lon="-3.5842260">
        <ele>478.2</ele>
        <time>2018-06-16T09:01:09Z</time>
      </trkpt>
      <trkpt lat="38.2599960" lon="-3.5841300">
        <ele>478.0</ele>
        <time>2018-06-16T09:01:10Z</time>
      </trkpt>
      <trkpt lat="38.2599360" lon="-3.5840330">
        <ele>478.0</ele>
        <time>2018-06-16T09:01:11Z</time>
      </trkpt>
      <trkpt lat="38.2598760" lon="-3.5839360">
        <ele>478.0</ele>
        <time>2018-06-16T09:01:12Z</time>
      </trkpt>
      <trkpt lat="38.2598180" lon="-3.5838370">
        <ele>477.6</ele>
        <time>2018-06-16T09:01:13Z</time>
      </trkpt>
      <trkpt lat="38.2597610" lon="-3.5837370">
        <ele>477.4</ele>
        <time>2018-06-16T09:01:14Z</time>
      </trkpt>
      <trkpt lat="38.2597040" lon="-3.5836380">
        <ele>477.4</ele>
        <time>2018-06-16T09:01:15Z</time>
      </trkpt>
      <trkpt lat="38.2596490" lon="-3.5835380">
        <ele>477.2</ele>
        <time>2018-06-16T09:01:16Z</time>
      </trkpt>
      <trkpt lat="38.2595960" lon="-3.5834380">
        <ele>477.2</ele>
        <time>2018-06-16T09:01:17Z</time>
      </trkpt>
      <trkpt lat="38.2595430" lon="-3.5833390">
        <ele>476.8</ele>
        <time>2018-06-16T09:01:18Z</time>
      </trkpt>
      <trkpt lat="38.2594910" lon="-3.5832400">
        <ele>477.0</ele>
        <time>2018-06-16T09:01:19Z</time>
      </trkpt>
      <trkpt lat="38.2594410" lon="-3.5831420">
        <ele>477.0</ele>
        <time>2018-06-16T09:01:20Z</time>
      </trkpt>
      <trkpt lat="38.2593920" lon="-3.5830460">
        <ele>477.2</ele>
        <time>2018-06-16T09:01:21Z</time>
      </trkpt>
      <trkpt lat="38.2593430" lon="-3.5829500">
        <ele>477.2</ele>
        <time>2018-06-16T09:01:22Z</time>
      </trkpt>
      <trkpt lat="38.2592960" lon="-3.5828560">
        <ele>477.2</ele>
        <time>2018-06-16T09:01:23Z</time>
      </trkpt>
      <trkpt lat="38.2592500" lon="-3.5827620">
        <ele>477.4</ele>
        <time>2018-06-16T09:01:24Z</time>
      </trkpt>
      <trkpt lat="38.2592050" lon="-3.5826700">
        <ele>477.4</ele>
        <time>2018-06-16T09:01:25Z</time>
      </trkpt>
      <trkpt lat="38.2591610" lon="-3.5825780">
        <ele>477.4</ele>
        <time>2018-06-16T09:01:26Z</time>
      </trkpt>
      <trkpt lat="38.2591190" lon="-3.5824880">
        <ele>477.6</ele>
        <time>2018-06-16T09:01:27Z</time>
      </trkpt>
      <trkpt lat="38.2590760" lon="-3.5823990">
        <ele>477.6</ele>
        <time>2018-06-16T09:01:28Z</time>
      </trkpt>
      <trkpt lat="38.2590350" lon="-3.5823120">
        <ele>477.8</ele>
        <time>2018-06-16T09:01:29Z</time>
      </trkpt>
      <trkpt lat="38.2589940" lon="-3.5822270">
        <ele>478.0</ele>
        <time>2018-06-16T09:01:30Z</time>
      </trkpt>
      <trkpt lat="38.2589540" lon="-3.5821430">
        <ele>478.2</ele>
        <time>2018-06-16T09:01:31Z</time>
      </trkpt>
      <trkpt lat="38.2589140" lon="-3.5820600">
        <ele>478.6</ele>
        <time>2018-06-16T09:01:32Z</time>
      </trkpt>
      <trkpt lat="38.2588750" lon="-3.5819790">
        <ele>478.8</ele>
        <time>2018-06-16T09:01:33Z</time>
      </trkpt>
      <trkpt lat="38.2588370" lon="-3.5818980">
        <ele>479.0</ele>
        <time>2018-06-16T09:01:34Z</time>
      </trkpt>
      <trkpt lat="38.2587980" lon="-3.5818190">
        <ele>479.0</ele>
        <time>2018-06-16T09:01:35Z</time>
      </trkpt>
      <trkpt lat="38.2587610" lon="-3.5817410">
        <ele>479.4</ele>
        <time>2018-06-16T09:01:36Z</time>
      </trkpt>
      <trkpt lat="38.2587240" lon="-3.5816640">
        <ele>479.4</ele>
        <time>2018-06-16T09:01:37Z</time>
      </trkpt>
      <trkpt lat="38.2586890" lon="-3.5815870">
        <ele>479.8</ele>
        <time>2018-06-16T09:01:38Z</time>
      </trkpt>
      <trkpt lat="38.2586530" lon="-3.5815120">
        <ele>480.0</ele>
        <time>2018-06-16T09:01:39Z</time>
      </trkpt>
      <trkpt lat="38.2586170" lon="-3.5814380">
        <ele>480.2</ele>
        <time>2018-06-16T09:01:40Z</time>
      </trkpt>
      <trkpt lat="38.2585830" lon="-3.5813660">
        <ele>480.6</ele>
        <time>2018-06-16T09:01:41Z</time>
      </trkpt>
      <trkpt lat="38.2585490" lon="-3.5812940">
        <ele>481.0</ele>
        <time>2018-06-16T09:01:42Z</time>
      </trkpt>
      <trkpt lat="38.2585160" lon="-3.5812250">
        <ele>481.2</ele>
        <time>2018-06-16T09:01:43Z</time>
      </trkpt>
      <trkpt lat="38.2584840" lon="-3.5811560">
        <ele>481.6</ele>
        <time>2018-06-16T09:01:44Z</time>
      </trkpt>
      <trkpt lat="38.2584530" lon="-3.5810880">
        <ele>481.6</ele>
        <time>2018-06-16T09:01:45Z</time>
      </trkpt>
      <trkpt lat="38.2584220" lon="-3.5810200">
        <ele>481.6</ele>
        <time>2018-06-16T09:01:46Z</time>
      </trkpt>
      <trkpt lat="38.2583930" lon="-3.5809560">
        <ele>482.0</ele>
        <time>2018-06-16T09:01:47Z</time>
      </trkpt>
      <trkpt lat="38.2583630" lon="-3.5808930">
        <ele>482.2</ele>
        <time>2018-06-16T09:01:48Z</time>
      </trkpt>
      <trkpt lat="38.2583330" lon="-3.5808300">
        <ele>482.6</ele>
        <time>2018-06-16T09:01:49Z</time>
      </trkpt>
      <trkpt lat="38.2583050" lon="-3.5807690">
        <ele>483.0</ele>
        <time>2018-06-16T09:01:50Z</time>
      </trkpt>
      <trkpt lat="38.2582770" lon="-3.5807090">
        <ele>483.2</ele>
        <time>2018-06-16T09:01:51Z</time>
      </trkpt>
      <trkpt lat="38.2582490" lon="-3.5806520">
        <ele>483.6</ele>
        <time>2018-06-16T09:01:52Z</time>
      </trkpt>
      <trkpt lat="38.2582230" lon="-3.5805960">
        <ele>484.0</ele>
        <time>2018-06-16T09:01:53Z</time>
      </trkpt>
      <trkpt lat="38.2581950" lon="-3.5805390">
        <ele>484.2</ele>
        <time>2018-06-16T09:01:54Z</time>
      </trkpt>
      <trkpt lat="38.2581680" lon="-3.5804830">
        <ele>484.4</ele>
        <time>2018-06-16T09:01:55Z</time>
      </trkpt>
      <trkpt lat="38.2581420" lon="-3.5804260">
        <ele>484.6</ele>
        <time>2018-06-16T09:01:56Z</time>
      </trkpt>
      <trkpt lat="38.2581160" lon="-3.5803700">
        <ele>484.8</ele>
        <time>2018-06-16T09:01:57Z</time>
      </trkpt>
      <trkpt lat="38.2580900" lon="-3.5803160">
        <ele>485.2</ele>
        <time>2018-06-16T09:01:58Z</time>
      </trkpt>
      <trkpt lat="38.2580640" lon="-3.5802630">
        <ele>485.4</ele>
        <time>2018-06-16T09:01:59Z</time>
      </trkpt>
      <trkpt lat="38.2580400" lon="-3.5802090">
        <ele>485.6</ele>
        <time>2018-06-16T09:02:00Z</time>
      </trkpt>
      <trkpt lat="38.2580170" lon="-3.5801580">
        <ele>485.8</ele>
        <time>2018-06-16T09:02:01Z</time>
      </trkpt>
      <trkpt lat="38.2579960" lon="-3.5801100">
        <ele>486.2</ele>
        <time>2018-06-16T09:02:02Z</time>
      </trkpt>
      <trkpt lat="38.2579790" lon="-3.5800670">
        <ele>486.4</ele>
        <time>2018-06-16T09:02:03Z</time>
      </trkpt>
      <trkpt lat="38.2579640" lon="-3.5800270">
        <ele>486.6</ele>
        <time>2018-06-16T09:02:04Z</time>
      </trkpt>
      <trkpt lat="38.2579470" lon="-3.5799920">
        <ele>486.8</ele>
        <time>2018-06-16T09:02:05Z</time>
      </trkpt>
      <trkpt lat="38.2579300" lon="-3.5799600">
        <ele>487.0</ele>
        <time>2018-06-16T09:02:06Z</time>
      </trkpt>
      <trkpt lat="38.2579140" lon="-3.5799290">
        <ele>487.0</ele>
        <time>2018-06-16T09:02:07Z</time>
      </trkpt>
      <trkpt lat="38.2578960" lon="-3.5798990">
        <ele>487.2</ele>
        <time>2018-06-16T09:02:08Z</time>
      </trkpt>
      <trkpt lat="38.2578850" lon="-3.5798710">
        <ele>487.4</ele>
        <time>2018-06-16T09:02:09Z</time>
      </trkpt>
      <trkpt lat="38.2578710" lon="-3.5798380">
        <ele>487.6</ele>
        <time>2018-06-16T09:02:10Z</time>
      </trkpt>
      <trkpt lat="38.2578570" lon="-3.5798050">
        <ele>487.6</ele>
        <time>2018-06-16T09:02:11Z</time>
      </trkpt>
      <trkpt lat="38.2578420" lon="-3.5797770">
        <ele>487.8</ele>
        <time>2018-06-16T09:02:12Z</time>
      </trkpt>
      <trkpt lat="38.2578270" lon="-3.5797510">
        <ele>487.8</ele>
        <time>2018-06-16T09:02:13Z</time>
      </trkpt>
      <trkpt lat="38.2578120" lon="-3.5797220">
        <ele>488.0</ele>
        <time>2018-06-16T09:02:14Z</time>
      </trkpt>
      <trkpt lat="38.2577990" lon="-3.5796930">
        <ele>488.2</ele>
        <time>2018-06-16T09:02:15Z</time>
      </trkpt>
      <trkpt lat="38.2577870" lon="-3.5796690">
        <ele>488.4</ele>
        <time>2018-06-16T09:02:16Z</time>
      </trkpt>
      <trkpt lat="38.2577780" lon="-3.5796470">
        <ele>488.4</ele>
        <time>2018-06-16T09:02:17Z</time>
      </trkpt>
      <trkpt lat="38.2577690" lon="-3.5796250">
        <ele>488.6</ele>
        <time>2018-06-16T09:02:18Z</time>
      </trkpt>
      <trkpt lat="38.2577580" lon="-3.5796030">
        <ele>488.6</ele>
        <time>2018-06-16T09:02:19Z</time>
      </trkpt>
      <trkpt lat="38.2577490" lon="-3.5795800">
        <ele>488.6</ele>
        <time>2018-06-16T09:02:20Z</time>
      </trkpt>
      <trkpt lat="38.2577390" lon="-3.5795580">
        <ele>489.0</ele>
        <time>2018-06-16T09:02:21Z</time>
      </trkpt>
      <trkpt lat="38.2577280" lon="-3.5795350">
        <ele>488.8</ele>
        <time>2018-06-16T09:02:22Z</time>
      </trkpt>
      <trkpt lat="38.2577160" lon="-3.5795120">
        <ele>489.0</ele>
        <time>2018-06-16T09:02:23Z</time>
      </trkpt>
      <trkpt lat="38.2577040" lon="-3.5794890">
        <ele>489.2</ele>
        <time>2018-06-16T09:02:24Z</time>
      </trkpt>
      <trkpt lat="38.2576950" lon="-3.5794640">
        <ele>489.2</ele>
        <time>2018-06-16T09:02:25Z</time>
      </trkpt>
      <trkpt lat="38.2576840" lon="-3.5794420">
        <ele>489.4</ele>
        <time>2018-06-16T09:02:26Z</time>
      </trkpt>
      <trkpt lat="38.2576730" lon="-3.5794170">
        <ele>489.4</ele>
        <time>2018-06-16T09:02:27Z</time>
      </trkpt>
      <trkpt lat="38.2576630" lon="-3.5793930">
        <ele>489.4</ele>
        <time>2018-06-16T09:02:28Z</time>
      </trkpt>
      <trkpt lat="38.2576470" lon="-3.5793570">
        <ele>489.6</ele>
        <time>2018-06-16T09:02:29Z</time>
      </trkpt>
      <trkpt lat="38.2576420" lon="-3.5793460">
        <ele>489.6</ele>
        <time>2018-06-16T09:02:30Z</time>
      </trkpt>
      <trkpt lat="38.2576310" lon="-3.5793230">
        <ele>489.8</ele>
        <time>2018-06-16T09:02:31Z</time>
      </trkpt>
      <trkpt lat="38.2576210" lon="-3.5793000">
        <ele>489.8</ele>
        <time>2018-06-16T09:02:32Z</time>
      </trkpt>
      <trkpt lat="38.2576120" lon="-3.5792770">
        <ele>490.0</ele>
        <time>2018-06-16T09:02:33Z</time>
      </trkpt>
      <trkpt lat="38.2576010" lon="-3.5792550">
        <ele>490.0</ele>
        <time>2018-06-16T09:02:34Z</time>
      </trkpt>
      <trkpt lat="38.2575890" lon="-3.5792350">
        <ele>490.2</ele>
        <time>2018-06-16T09:02:35Z</time>
      </trkpt>
      <trkpt lat="38.2575770" lon="-3.5792140">
        <ele>490.2</ele>
        <time>2018-06-16T09:02:36Z</time>
      </trkpt>
      <trkpt lat="38.2575660" lon="-3.5791920">
        <ele>490.4</ele>
        <time>2018-06-16T09:02:37Z</time>
      </trkpt>
      <trkpt lat="38.2575560" lon="-3.5791700">
        <ele>490.4</ele>
        <time>2018-06-16T09:02:38Z</time>
      </trkpt>
      <trkpt lat="38.2575450" lon="-3.5791460">
        <ele>490.4</ele>
        <time>2018-06-16T09:02:39Z</time>
      </trkpt>
      <trkpt lat="38.2575350" lon="-3.5791220">
        <ele>490.6</ele>
        <time>2018-06-16T09:02:40Z</time>
      </trkpt>
      <trkpt lat="38.2575260" lon="-3.5790980">
        <ele>490.6</ele>
        <time>2018-06-16T09:02:41Z</time>
      </trkpt>
      <trkpt lat="38.2575160" lon="-3.5790730">
        <ele>490.8</ele>
        <time>2018-06-16T09:02:42Z</time>
      </trkpt>
      <trkpt lat="38.2575060" lon="-3.5790480">
        <ele>490.8</ele>
        <time>2018-06-16T09:02:43Z</time>
      </trkpt>
      <trkpt lat="38.2574960" lon="-3.5790240">
        <ele>491.0</ele>
        <time>2018-06-16T09:02:44Z</time>
      </trkpt>
      <trkpt lat="38.2574840" lon="-3.5789980">
        <ele>491.0</ele>
        <time>2018-06-16T09:02:45Z</time>
      </trkpt>
      <trkpt lat="38.2574730" lon="-3.5789730">
        <ele>491.2</ele>
        <time>2018-06-16T09:02:46Z</time>
      </trkpt>
      <trkpt lat="38.2574610" lon="-3.5789480">
        <ele>491.2</ele>
        <time>2018-06-16T09:02:47Z</time>
      </trkpt>
      <trkpt lat="38.2574470" lon="-3.5789250">
        <ele>491.2</ele>
        <time>2018-06-16T09:02:48Z</time>
      </trkpt>
      <trkpt lat="38.2574340" lon="-3.5789000">
        <ele>491.4</ele>
        <time>2018-06-16T09:02:49Z</time>
      </trkpt>
      <trkpt lat="38.2574230" lon="-3.5788750">
        <ele>491.4</ele>
        <time>2018-06-16T09:02:50Z</time>
      </trkpt>
      <trkpt lat="38.2574130" lon="-3.5788510">
        <ele>491.6</ele>
        <time>2018-06-16T09:02:51Z</time>
      </trkpt>
      <trkpt lat="38.2574010" lon="-3.5788270">
        <ele>491.6</ele>
        <time>2018-06-16T09:02:52Z</time>
      </trkpt>
      <trkpt lat="38.2573830" lon="-3.5787900">
        <ele>491.6</ele>
        <time>2018-06-16T09:02:53Z</time>
      </trkpt>
      <trkpt lat="38.2573770" lon="-3.5787780">
        <ele>491.8</ele>
        <time>2018-06-16T09:02:54Z</time>
      </trkpt>
      <trkpt lat="38.2573650" lon="-3.5787540">
        <ele>491.8</ele>
        <time>2018-06-16T09:02:55Z</time>
      </trkpt>
      <trkpt lat="38.2573540" lon="-3.5787300">
        <ele>491.8</ele>
        <time>2018-06-16T09:02:56Z</time>
      </trkpt>
      <trkpt lat="38.2573420" lon="-3.5787050">
        <ele>492.0</ele>
        <time>2018-06-16T09:02:57Z</time>
      </trkpt>
      <trkpt lat="38.2573310" lon="-3.5786810">
        <ele>492.0</ele>
        <time>2018-06-16T09:02:58Z</time>
      </trkpt>
      <trkpt lat="38.2573190" lon="-3.5786590">
        <ele>492.2</ele>
        <time>2018-06-16T09:02:59Z</time>
      </trkpt>
      <trkpt lat="38.2573090" lon="-3.5786420">
        <ele>492.4</ele>
        <time>2018-06-16T09:03:00Z</time>
      </trkpt>
      <trkpt lat="38.2572980" lon="-3.5786210">
        <ele>492.6</ele>
        <time>2018-06-16T09:03:01Z</time>
      </trkpt>
      <trkpt lat="38.2572880" lon="-3.5785970">
        <ele>492.4</ele>
        <time>2018-06-16T09:03:02Z</time>
      </trkpt>
      <trkpt lat="38.2572780" lon="-3.5785730">
        <ele>492.6</ele>
        <time>2018-06-16T09:03:03Z</time>
      </trkpt>
      <trkpt lat="38.2572660" lon="-3.5785510">
        <ele>492.8</ele>
        <time>2018-06-16T09:03:04Z</time>
      </trkpt>
      <trkpt lat="38.2572530" lon="-3.5785300">
        <ele>492.8</ele>
        <time>2018-06-16T09:03:05Z</time>
      </trkpt>
      <trkpt lat="38.2572430" lon="-3.5785060">
        <ele>492.8</ele>
        <time>2018-06-16T09:03:06Z</time>
      </trkpt>
      <trkpt lat="38.2572330" lon="-3.5784800">
        <ele>492.8</ele>
        <time>2018-06-16T09:03:07Z</time>
      </trkpt>
      <trkpt lat="38.2572220" lon="-3.5784560">
        <ele>492.8</ele>
        <time>2018-06-16T09:03:08Z</time>
      </trkpt>
      <trkpt lat="38.2572100" lon="-3.5784320">
        <ele>493.0</ele>
        <time>2018-06-16T09:03:09Z</time>
      </trkpt>
      <trkpt lat="38.2571990" lon="-3.5784090">
        <ele>493.0</ele>
        <time>2018-06-16T09:03:10Z</time>
      </trkpt>
      <trkpt lat="38.2571890" lon="-3.5783840">
        <ele>493.2</ele>
        <time>2018-06-16T09:03:11Z</time>
      </trkpt>
      <trkpt lat="38.2571780" lon="-3.5783600">
        <ele>493.2</ele>
        <time>2018-06-16T09:03:12Z</time>
      </trkpt>
      <trkpt lat="38.2571680" lon="-3.5783340">
        <ele>493.2</ele>
        <time>2018-06-16T09:03:13Z</time>
      </trkpt>
      <trkpt lat="38.2571580" lon="-3.5783080">
        <ele>493.4</ele>
        <time>2018-06-16T09:03:14Z</time>
      </trkpt>
      <trkpt lat="38.2571470" lon="-3.5782820">
        <ele>493.4</ele>
        <time>2018-06-16T09:03:15Z</time>
      </trkpt>
      <trkpt lat="38.2571350" lon="-3.5782560">
        <ele>493.6</ele>
        <time>2018-06-16T09:03:16Z</time>
      </trkpt>
      <trkpt lat="38.2571250" lon="-3.5782300">
        <ele>493.8</ele>
        <time>2018-06-16T09:03:17Z</time>
      </trkpt>
      <trkpt lat="38.2571130" lon="-3.5782020">
        <ele>493.8</ele>
        <time>2018-06-16T09:03:18Z</time>
      </trkpt>
      <trkpt lat="38.2571010" lon="-3.5781750">
        <ele>493.8</ele>
        <time>2018-06-16T09:03:19Z</time>
      </trkpt>
      <trkpt lat="38.2570900" lon="-3.5781470">
        <ele>493.8</ele>
        <time>2018-06-16T09:03:20Z</time>
      </trkpt>
      <trkpt lat="38.2570800" lon="-3.5781180">
        <ele>493.8</ele>
        <time>2018-06-16T09:03:21Z</time>
      </trkpt>
      <trkpt lat="38.2570690" lon="-3.5780900">
        <ele>494.0</ele>
        <time>2018-06-16T09:03:22Z</time>
      </trkpt>
      <trkpt lat="38.2570580" lon="-3.5780620">
        <ele>494.0</ele>
        <time>2018-06-16T09:03:23Z</time>
      </trkpt>
      <trkpt lat="38.2570450" lon="-3.5780330">
        <ele>494.0</ele>
        <time>2018-06-16T09:03:24Z</time>
      </trkpt>
      <trkpt lat="38.2570330" lon="-3.5780010">
        <ele>494.4</ele>
        <time>2018-06-16T09:03:25Z</time>
      </trkpt>
      <trkpt lat="38.2570200" lon="-3.5779690">
        <ele>494.4</ele>
        <time>2018-06-16T09:03:26Z</time>
      </trkpt>
      <trkpt lat="38.2570060" lon="-3.5779340">
        <ele>494.4</ele>
        <time>2018-06-16T09:03:27Z</time>
      </trkpt>
      <trkpt lat="38.2569930" lon="-3.5778990">
        <ele>494.8</ele>
        <time>2018-06-16T09:03:28Z</time>
      </trkpt>
      <trkpt lat="38.2569800" lon="-3.5778620">
        <ele>494.6</ele>
        <time>2018-06-16T09:03:29Z</time>
      </trkpt>
      <trkpt lat="38.2569660" lon="-3.5778240">
        <ele>495.0</ele>
        <time>2018-06-16T09:03:30Z</time>
      </trkpt>
      <trkpt lat="38.2569510" lon="-3.5777880">
        <ele>495.0</ele>
        <time>2018-06-16T09:03:31Z</time>
      </trkpt>
      <trkpt lat="38.2569360" lon="-3.5777510">
        <ele>495.2</ele>
        <time>2018-06-16T09:03:32Z</time>
      </trkpt>
      <trkpt lat="38.2569220" lon="-3.5777120">
        <ele>495.4</ele>
        <time>2018-06-16T09:03:33Z</time>
      </trkpt>
      <trkpt lat="38.2569070" lon="-3.5776710">
        <ele>495.6</ele>
        <time>2018-06-16T09:03:34Z</time>
      </trkpt>
      <trkpt lat="38.2568920" lon="-3.5776290">
        <ele>495.4</ele>
        <time>2018-06-16T09:03:35Z</time>
      </trkpt>
      <trkpt lat="38.2568770" lon="-3.5775870">
        <ele>495.2</ele>
        <time>2018-06-16T09:03:36Z</time>
      </trkpt>
      <trkpt lat="38.2568620" lon="-3.5775440">
        <ele>495.2</ele>
        <time>2018-06-16T09:03:37Z</time>
      </trkpt>
      <trkpt lat="38.2568490" lon="-3.5775000">
        <ele>495.2</ele>
        <time>2018-06-16T09:03:38Z</time>
      </trkpt>
      <trkpt lat="38.2568350" lon="-3.5774550">
        <ele>495.2</ele>
        <time>2018-06-16T09:03:39Z</time>
      </trkpt>
      <trkpt lat="38.2568190" lon="-3.5774110">
        <ele>495.0</ele>
        <time>2018-06-16T09:03:40Z</time>
      </trkpt>
      <trkpt lat="38.2568040" lon="-3.5773650">
        <ele>495.0</ele>
        <time>2018-06-16T09:03:41Z</time>
      </trkpt>
      <trkpt lat="38.2567890" lon="-3.5773200">
        <ele>495.0</ele>
        <time>2018-06-16T09:03:42Z</time>
      </trkpt>
      <trkpt lat="38.2567740" lon="-3.5772740">
        <ele>495.6</ele>
        <time>2018-06-16T09:03:43Z</time>
      </trkpt>
      <trkpt lat="38.2567580" lon="-3.5772280">
        <ele>495.4</ele>
        <time>2018-06-16T09:03:44Z</time>
      </trkpt>
      <trkpt lat="38.2567430" lon="-3.5771810">
        <ele>495.6</ele>
        <time>2018-06-16T09:03:45Z</time>
      </trkpt>
      <trkpt lat="38.2567290" lon="-3.5771350">
        <ele>495.6</ele>
        <time>2018-06-16T09:03:46Z</time>
      </trkpt>
      <trkpt lat="38.2567150" lon="-3.5770870">
        <ele>496.0</ele>
        <time>2018-06-16T09:03:47Z</time>
      </trkpt>
      <trkpt lat="38.2567000" lon="-3.5770400">
        <ele>496.0</ele>
        <time>2018-06-16T09:03:48Z</time>
      </trkpt>
      <trkpt lat="38.2566860" lon="-3.5769920">
        <ele>495.8</ele>
        <time>2018-06-16T09:03:49Z</time>
      </trkpt>
      <trkpt lat="38.2566730" lon="-3.5769440">
        <ele>495.8</ele>
        <time>2018-06-16T09:03:50Z</time>
      </trkpt>
      <trkpt lat="38.2566600" lon="-3.5768960">
        <ele>495.8</ele>
        <time>2018-06-16T09:03:51Z</time>
      </trkpt>
      <trkpt lat="38.2566460" lon="-3.5768470">
        <ele>495.8</ele>
        <time>2018-06-16T09:03:52Z</time>
      </trkpt>
      <trkpt lat="38.2566340" lon="-3.5767970">
        <ele>496.0</ele>
        <time>2018-06-16T09:03:53Z</time>
      </trkpt>
      <trkpt lat="38.2566210" lon="-3.5767450">
        <ele>496.0</ele>
        <time>2018-06-16T09:03:54Z</time>
      </trkpt>
      <trkpt lat="38.2566080" lon="-3.5766930">
        <ele>496.0</ele>
        <time>2018-06-16T09:03:55Z</time>
      </trkpt>
      <trkpt lat="38.2565950" lon="-3.5766400">
        <ele>496.0</ele>
        <time>2018-06-16T09:03:56Z</time>
      </trkpt>
      <trkpt lat="38.2565820" lon="-3.5765870">
        <ele>496.0</ele>
        <time>2018-06-16T09:03:57Z</time>
      </trkpt>
      <trkpt lat="38.2565700" lon="-3.5765310">
        <ele>496.0</ele>
        <time>2018-06-16T09:03:58Z</time>
      </trkpt>
      <trkpt lat="38.2565600" lon="-3.5764740">
        <ele>496.0</ele>
        <time>2018-06-16T09:03:59Z</time>
      </trkpt>
      <trkpt lat="38.2565480" lon="-3.5764180">
        <ele>496.2</ele>
        <time>2018-06-16T09:04:00Z</time>
      </trkpt>
      <trkpt lat="38.2565380" lon="-3.5763590">
        <ele>496.0</ele>
        <time>2018-06-16T09:04:01Z</time>
      </trkpt>
      <trkpt lat="38.2565200" lon="-3.5762710">
        <ele>496.0</ele>
        <time>2018-06-16T09:04:02Z</time>
      </trkpt>
      <trkpt lat="38.2565130" lon="-3.5762410">
        <ele>496.0</ele>
        <time>2018-06-16T09:04:03Z</time>
      </trkpt>
      <trkpt lat="38.2565020" lon="-3.5761800">
        <ele>496.0</ele>
        <time>2018-06-16T09:04:04Z</time>
      </trkpt>
      <trkpt lat="38.2564920" lon="-3.5761180">
        <ele>496.0</ele>
        <time>2018-06-16T09:04:05Z</time>
      </trkpt>
      <trkpt lat="38.2564810" lon="-3.5760560">
        <ele>496.2</ele>
        <time>2018-06-16T09:04:06Z</time>
      </trkpt>
      <trkpt lat="38.2564700" lon="-3.5759940">
        <ele>496.0</ele>
        <time>2018-06-16T09:04:07Z</time>
      </trkpt>
      <trkpt lat="38.2564610" lon="-3.5759290">
        <ele>496.0</ele>
        <time>2018-06-16T09:04:08Z</time>
      </trkpt>
      <trkpt lat="38.2564520" lon="-3.5758650">
        <ele>495.8</ele>
        <time>2018-06-16T09:04:09Z</time>
      </trkpt>
      <trkpt lat="38.2564440" lon="-3.5758000">
        <ele>496.0</ele>
        <time>2018-06-16T09:04:10Z</time>
      </trkpt>
      <trkpt lat="38.2564350" lon="-3.5757360">
        <ele>496.0</ele>
        <time>2018-06-16T09:04:11Z</time>
      </trkpt>
      <trkpt lat="38.2564280" lon="-3.5756700">
        <ele>496.0</ele>
        <time>2018-06-16T09:04:12Z</time>
      </trkpt>
      <trkpt lat="38.2564200" lon="-3.5756050">
        <ele>496.0</ele>
        <time>2018-06-16T09:04:13Z</time>
      </trkpt>
      <trkpt lat="38.2564130" lon="-3.5755390">
        <ele>496.0</ele>
        <time>2018-06-16T09:04:14Z</time>
      </trkpt>
      <trkpt lat="38.2564070" lon="-3.5754700">
        <ele>496.2</ele>
        <time>2018-06-16T09:04:15Z</time>
      </trkpt>
      <trkpt lat="38.2564010" lon="-3.5754010">
        <ele>496.0</ele>
        <time>2018-06-16T09:04:16Z</time>
      </trkpt>
      <trkpt lat="38.2563950" lon="-3.5753310">
        <ele>496.0</ele>
        <time>2018-06-16T09:04:17Z</time>
      </trkpt>
      <trkpt lat="38.2563910" lon="-3.5752590">
        <ele>495.8</ele>
        <time>2018-06-16T09:04:18Z</time>
      </trkpt>
      <trkpt lat="38.2563850" lon="-3.5751860">
        <ele>495.6</ele>
        <time>2018-06-16T09:04:19Z</time>
      </trkpt>
      <trkpt lat="38.2563790" lon="-3.5751110">
        <ele>495.8</ele>
        <time>2018-06-16T09:04:20Z</time>
      </trkpt>
      <trkpt lat="38.2563750" lon="-3.5750350">
        <ele>495.4</ele>
        <time>2018-06-16T09:04:21Z</time>
      </trkpt>
      <trkpt lat="38.2563700" lon="-3.5749600">
        <ele>495.8</ele>
        <time>2018-06-16T09:04:22Z</time>
      </trkpt>
      <trkpt lat="38.2563680" lon="-3.5748840">
        <ele>495.6</ele>
        <time>2018-06-16T09:04:23Z</time>
      </trkpt>
      <trkpt lat="38.2563670" lon="-3.5748050">
        <ele>495.6</ele>
        <time>2018-06-16T09:04:24Z</time>
      </trkpt>
      <trkpt lat="38.2563650" lon="-3.5747270">
        <ele>495.4</ele>
        <time>2018-06-16T09:04:25Z</time>
      </trkpt>
      <trkpt lat="38.2563620" lon="-3.5746460">
        <ele>495.2</ele>
        <time>2018-06-16T09:04:26Z</time>
      </trkpt>
      <trkpt lat="38.2563600" lon="-3.5745640">
        <ele>494.8</ele>
        <time>2018-06-16T09:04:27Z</time>
      </trkpt>
      <trkpt lat="38.2563600" lon="-3.5744820">
        <ele>495.4</ele>
        <time>2018-06-16T09:04:28Z</time>
      </trkpt>
      <trkpt lat="38.2563610" lon="-3.5743980">
        <ele>495.4</ele>
        <time>2018-06-16T09:04:29Z</time>
      </trkpt>
      <trkpt lat="38.2563650" lon="-3.5743140">
        <ele>495.2</ele>
        <time>2018-06-16T09:04:30Z</time>
      </trkpt>
      <trkpt lat="38.2563690" lon="-3.5742300">
        <ele>495.0</ele>
        <time>2018-06-16T09:04:31Z</time>
      </trkpt>
      <trkpt lat="38.2563730" lon="-3.5741450">
        <ele>495.0</ele>
        <time>2018-06-16T09:04:32Z</time>
      </trkpt>
      <trkpt lat="38.2563790" lon="-3.5740590">
        <ele>495.0</ele>
        <time>2018-06-16T09:04:33Z</time>
      </trkpt>
      <trkpt lat="38.2563840" lon="-3.5739730">
        <ele>495.0</ele>
        <time>2018-06-16T09:04:34Z</time>
      </trkpt>
      <trkpt lat="38.2563890" lon="-3.5738860">
        <ele>494.8</ele>
        <time>2018-06-16T09:04:35Z</time>
      </trkpt>
      <trkpt lat="38.2563960" lon="-3.5737990">
        <ele>494.8</ele>
        <time>2018-06-16T09:04:36Z</time>
      </trkpt>
      <trkpt lat="38.2564100" lon="-3.5736660">
        <ele>494.8</ele>
        <time>2018-06-16T09:04:37Z</time>
      </trkpt>
      <trkpt lat="38.2564140" lon="-3.5736210">
        <ele>494.6</ele>
        <time>2018-06-16T09:04:38Z</time>
      </trkpt>
      <trkpt lat="38.2564220" lon="-3.5735310">
        <ele>494.2</ele>
        <time>2018-06-16T09:04:39Z</time>
      </trkpt>
      <trkpt lat="38.2564300" lon="-3.5734410">
        <ele>494.8</ele>
        <time>2018-06-16T09:04:40Z</time>
      </trkpt>
      <trkpt lat="38.2564460" lon="-3.5732900">
        <ele>494.4</ele>
        <time>2018-06-16T09:04:41Z</time>
      </trkpt>
      <trkpt lat="38.2564520" lon="-3.5732300">
        <ele>494.4</ele>
        <time>2018-06-16T09:04:42Z</time>
      </trkpt>
      <trkpt lat="38.2564590" lon="-3.5731690">
        <ele>494.0</ele>
        <time>2018-06-16T09:04:43Z</time>
      </trkpt>
      <trkpt lat="38.2564680" lon="-3.5730750">
        <ele>494.2</ele>
        <time>2018-06-16T09:04:44Z</time>
      </trkpt>
      <trkpt lat="38.2564780" lon="-3.5729830">
        <ele>494.4</ele>
        <time>2018-06-16T09:04:45Z</time>
      </trkpt>
      <trkpt lat="38.2564880" lon="-3.5728910">
        <ele>494.0</ele>
        <time>2018-06-16T09:04:46Z</time>
      </trkpt>
      <trkpt lat="38.2564980" lon="-3.5728000">
        <ele>494.2</ele>
        <time>2018-06-16T09:04:47Z</time>
      </trkpt>
      <trkpt lat="38.2565070" lon="-3.5727100">
        <ele>494.0</ele>
        <time>2018-06-16T09:04:48Z</time>
      </trkpt>
      <trkpt lat="38.2565160" lon="-3.5726200">
        <ele>494.0</ele>
        <time>2018-06-16T09:04:49Z</time>
      </trkpt>
      <trkpt lat="38.2565270" lon="-3.5725280">
        <ele>493.8</ele>
        <time>2018-06-16T09:04:50Z</time>
      </trkpt>
      <trkpt lat="38.2565380" lon="-3.5724360">
        <ele>493.6</ele>
        <time>2018-06-16T09:04:51Z</time>
      </trkpt>
      <trkpt lat="38.2565470" lon="-3.5723440">
        <ele>493.6</ele>
        <time>2018-06-16T09:04:52Z</time>
      </trkpt>
      <trkpt lat="38.2565570" lon="-3.5722520">
        <ele>493.2</ele>
        <time>2018-06-16T09:04:53Z</time>
      </trkpt>
      <trkpt lat="38.2565660" lon="-3.5721590">
        <ele>493.2</ele>
        <time>2018-06-16T09:04:54Z</time>
      </trkpt>
      <trkpt lat="38.2565740" lon="-3.5720650">
        <ele>493.2</ele>
        <time>2018-06-16T09:04:55Z</time>
      </trkpt>
      <trkpt lat="38.2565830" lon="-3.5719720">
        <ele>493.4</ele>
        <time>2018-06-16T09:04:56Z</time>
      </trkpt>
      <trkpt lat="38.2565910" lon="-3.5718780">
        <ele>493.2</ele>
        <time>2018-06-16T09:04:57Z</time>
      </trkpt>
      <trkpt lat="38.2565970" lon="-3.5717830">
        <ele>493.0</ele>
        <time>2018-06-16T09:04:58Z</time>
      </trkpt>
      <trkpt lat="38.2566040" lon="-3.5716880">
        <ele>493.0</ele>
        <time>2018-06-16T09:04:59Z</time>
      </trkpt>
      <trkpt lat="38.2566080" lon="-3.5715920">
        <ele>492.8</ele>
        <time>2018-06-16T09:05:00Z</time>
      </trkpt>
      <trkpt lat="38.2566090" lon="-3.5714950">
        <ele>492.6</ele>
        <time>2018-06-16T09:05:01Z</time>
      </trkpt>
      <trkpt lat="38.2566110" lon="-3.5713990">
        <ele>492.6</ele>
        <time>2018-06-16T09:05:02Z</time>
      </trkpt>
      <trkpt lat="38.2566120" lon="-3.5713030">
        <ele>492.6</ele>
        <time>2018-06-16T09:05:03Z</time>
      </trkpt>
      <trkpt lat="38.2566130" lon="-3.5712090">
        <ele>492.4</ele>
        <time>2018-06-16T09:05:04Z</time>
      </trkpt>
      <trkpt lat="38.2566110" lon="-3.5711150">
        <ele>492.2</ele>
        <time>2018-06-16T09:05:05Z</time>
      </trkpt>
      <trkpt lat="38.2566070" lon="-3.5710230">
        <ele>492.6</ele>
        <time>2018-06-16T09:05:06Z</time>
      </trkpt>
      <trkpt lat="38.2566010" lon="-3.5709320">
        <ele>492.6</ele>
        <time>2018-06-16T09:05:07Z</time>
      </trkpt>
      <trkpt lat="38.2565930" lon="-3.5708410">
        <ele>492.4</ele>
        <time>2018-06-16T09:05:08Z</time>
      </trkpt>
      <trkpt lat="38.2565820" lon="-3.5707530">
        <ele>492.0</ele>
        <time>2018-06-16T09:05:09Z</time>
      </trkpt>
      <trkpt lat="38.2565690" lon="-3.5706660">
        <ele>492.4</ele>
        <time>2018-06-16T09:05:10Z</time>
      </trkpt>
      <trkpt lat="38.2565540" lon="-3.5705810">
        <ele>492.0</ele>
        <time>2018-06-16T09:05:11Z</time>
      </trkpt>
      <trkpt lat="38.2565380" lon="-3.5704980">
        <ele>491.8</ele>
        <time>2018-06-16T09:05:12Z</time>
      </trkpt>
      <trkpt lat="38.2565220" lon="-3.5704160">
        <ele>492.0</ele>
        <time>2018-06-16T09:05:13Z</time>
      </trkpt>
      <trkpt lat="38.2565060" lon="-3.5703330">
        <ele>492.0</ele>
        <time>2018-06-16T09:05:14Z</time>
      </trkpt>
      <trkpt lat="38.2564880" lon="-3.5702520">
        <ele>492.0</ele>
        <time>2018-06-16T09:05:15Z</time>
      </trkpt>
      <trkpt lat="38.2564660" lon="-3.5701710">
        <ele>492.2</ele>
        <time>2018-06-16T09:05:16Z</time>
      </trkpt>
      <trkpt lat="38.2564430" lon="-3.5700930">
        <ele>492.2</ele>
        <time>2018-06-16T09:05:17Z</time>
      </trkpt>
      <trkpt lat="38.2564190" lon="-3.5700160">
        <ele>492.0</ele>
        <time>2018-06-16T09:05:18Z</time>
      </trkpt>
      <trkpt lat="38.2563950" lon="-3.5699390">
        <ele>492.2</ele>
        <time>2018-06-16T09:05:19Z</time>
      </trkpt>
      <trkpt lat="38.2563690" lon="-3.5698630">
        <ele>492.4</ele>
        <time>2018-06-16T09:05:20Z</time>
      </trkpt>
      <trkpt lat="38.2563430" lon="-3.5697870">
        <ele>492.4</ele>
        <time>2018-06-16T09:05:21Z</time>
      </trkpt>
      <trkpt lat="38.2563160" lon="-3.5697130">
        <ele>492.4</ele>
        <time>2018-06-16T09:05:22Z</time>
      </trkpt>
      <trkpt lat="38.2562880" lon="-3.5696390">
        <ele>492.4</ele>
        <time>2018-06-16T09:05:23Z</time>
      </trkpt>
      <trkpt lat="38.2562450" lon="-3.5695280">
        <ele>492.6</ele>
        <time>2018-06-16T09:05:24Z</time>
      </trkpt>
      <trkpt lat="38.2562310" lon="-3.5694910">
        <ele>492.6</ele>
        <time>2018-06-16T09:05:25Z</time>
      </trkpt>
      <trkpt lat="38.2562000" lon="-3.5694190">
        <ele>493.0</ele>
        <time>2018-06-16T09:05:26Z</time>
      </trkpt>
      <trkpt lat="38.2561690" lon="-3.5693480">
        <ele>493.0</ele>
        <time>2018-06-16T09:05:27Z</time>
      </trkpt>
      <trkpt lat="38.2561380" lon="-3.5692800">
        <ele>493.2</ele>
        <time>2018-06-16T09:05:28Z</time>
      </trkpt>
      <trkpt lat="38.2561080" lon="-3.5692080">
        <ele>493.2</ele>
        <time>2018-06-16T09:05:29Z</time>
      </trkpt>
      <trkpt lat="38.2560790" lon="-3.5691360">
        <ele>493.6</ele>
        <time>2018-06-16T09:05:30Z</time>
      </trkpt>
      <trkpt lat="38.2560490" lon="-3.5690660">
        <ele>493.8</ele>
        <time>2018-06-16T09:05:31Z</time>
      </trkpt>
      <trkpt lat="38.2560190" lon="-3.5689970">
        <ele>494.0</ele>
        <time>2018-06-16T09:05:32Z</time>
      </trkpt>
      <trkpt lat="38.2559880" lon="-3.5689270">
        <ele>494.2</ele>
        <time>2018-06-16T09:05:33Z</time>
      </trkpt>
      <trkpt lat="38.2559590" lon="-3.5688580">
        <ele>494.4</ele>
        <time>2018-06-16T09:05:34Z</time>
      </trkpt>
      <trkpt lat="38.2559300" lon="-3.5687900">
        <ele>494.4</ele>
        <time>2018-06-16T09:05:35Z</time>
      </trkpt>
      <trkpt lat="38.2559000" lon="-3.5687230">
        <ele>494.6</ele>
        <time>2018-06-16T09:05:36Z</time>
      </trkpt>
      <trkpt lat="38.2558710" lon="-3.5686550">
        <ele>494.8</ele>
        <time>2018-06-16T09:05:37Z</time>
      </trkpt>
      <trkpt lat="38.2558430" lon="-3.5685900">
        <ele>495.0</ele>
        <time>2018-06-16T09:05:38Z</time>
      </trkpt>
      <trkpt lat="38.2558150" lon="-3.5685220">
        <ele>495.0</ele>
        <time>2018-06-16T09:05:39Z</time>
      </trkpt>
      <trkpt lat="38.2557900" lon="-3.5684610">
        <ele>495.4</ele>
        <time>2018-06-16T09:05:40Z</time>
      </trkpt>
      <trkpt lat="38.2557670" lon="-3.5683990">
        <ele>495.6</ele>
        <time>2018-06-16T09:05:41Z</time>
      </trkpt>
      <trkpt lat="38.2557440" lon="-3.5683370">
        <ele>496.0</ele>
        <time>2018-06-16T09:05:42Z</time>
      </trkpt>
      <trkpt lat="38.2557230" lon="-3.5682780">
        <ele>496.0</ele>
        <time>2018-06-16T09:05:43Z</time>
      </trkpt>
      <trkpt lat="38.2557030" lon="-3.5682190">
        <ele>496.4</ele>
        <time>2018-06-16T09:05:44Z</time>
      </trkpt>
      <trkpt lat="38.2556830" lon="-3.5681590">
        <ele>496.4</ele>
        <time>2018-06-16T09:05:45Z</time>
      </trkpt>
      <trkpt lat="38.2556640" lon="-3.5681000">
        <ele>496.8</ele>
        <time>2018-06-16T09:05:46Z</time>
      </trkpt>
      <trkpt lat="38.2556460" lon="-3.5680390">
        <ele>497.0</ele>
        <time>2018-06-16T09:05:47Z</time>
      </trkpt>
      <trkpt lat="38.2556300" lon="-3.5679790">
        <ele>497.0</ele>
        <time>2018-06-16T09:05:48Z</time>
      </trkpt>
      <trkpt lat="38.2556130" lon="-3.5679190">
        <ele>497.6</ele>
        <time>2018-06-16T09:05:49Z</time>
      </trkpt>
      <trkpt lat="38.2555980" lon="-3.5678580">
        <ele>497.6</ele>
        <time>2018-06-16T09:05:50Z</time>
      </trkpt>
      <trkpt lat="38.2555840" lon="-3.5677980">
        <ele>497.8</ele>
        <time>2018-06-16T09:05:51Z</time>
      </trkpt>
      <trkpt lat="38.2555710" lon="-3.5677370">
        <ele>498.2</ele>
        <time>2018-06-16T09:05:52Z</time>
      </trkpt>
      <trkpt lat="38.2555580" lon="-3.5676760">
        <ele>498.4</ele>
        <time>2018-06-16T09:05:53Z</time>
      </trkpt>
      <trkpt lat="38.2555490" lon="-3.5676150">
        <ele>498.6</ele>
        <time>2018-06-16T09:05:54Z</time>
      </trkpt>
      <trkpt lat="38.2555400" lon="-3.5675530">
        <ele>498.8</ele>
        <time>2018-06-16T09:05:55Z</time>
      </trkpt>
      <trkpt lat="38.2555320" lon="-3.5674910">
        <ele>498.8</ele>
        <time>2018-06-16T09:05:56Z</time>
      </trkpt>
      <trkpt lat="38.2555240" lon="-3.5674300">
        <ele>499.0</ele>
        <time>2018-06-16T09:05:57Z</time>
      </trkpt>
      <trkpt lat="38.2555180" lon="-3.5673700">
        <ele>499.2</ele>
        <time>2018-06-16T09:05:58Z</time>
      </trkpt>
      <trkpt lat="38.2555140" lon="-3.5673120">
        <ele>499.4</ele>
        <time>2018-06-16T09:05:59Z</time>
      </trkpt>
      <trkpt lat="38.2555090" lon="-3.5672560">
        <ele>499.6</ele>
        <time>2018-06-16T09:06:00Z</time>
      </trkpt>
      <trkpt lat="38.2555060" lon="-3.5672000">
        <ele>499.8</ele>
        <time>2018-06-16T09:06:01Z</time>
      </trkpt>
      <trkpt lat="38.2555030" lon="-3.5671450">
        <ele>500.2</ele>
        <time>2018-06-16T09:06:02Z</time>
      </trkpt>
      <trkpt lat="38.2555020" lon="-3.5670900">
        <ele>500.4</ele>
        <time>2018-06-16T09:06:03Z</time>
      </trkpt>
      <trkpt lat="38.2555010" lon="-3.5670360">
        <ele>500.4</ele>
        <time>2018-06-16T09:06:04Z</time>
      </trkpt>
      <trkpt lat="38.2555000" lon="-3.5669810">
        <ele>500.6</ele>
        <time>2018-06-16T09:06:05Z</time>
      </trkpt>
      <trkpt lat="38.2555010" lon="-3.5669250">
        <ele>500.8</ele>
        <time>2018-06-16T09:06:06Z</time>
      </trkpt>
      <trkpt lat="38.2555020" lon="-3.5668690">
        <ele>501.0</ele>
        <time>2018-06-16T09:06:07Z</time>
      </trkpt>
      <trkpt lat="38.2555040" lon="-3.5668120">
        <ele>501.0</ele>
        <time>2018-06-16T09:06:08Z</time>
      </trkpt>
      <trkpt lat="38.2555060" lon="-3.5667550">
        <ele>501.2</ele>
        <time>2018-06-16T09:06:09Z</time>
      </trkpt>
      <trkpt lat="38.2555100" lon="-3.5666990">
        <ele>501.4</ele>
        <time>2018-06-16T09:06:10Z</time>
      </trkpt>
      <trkpt lat="38.2555160" lon="-3.5666420">
        <ele>501.4</ele>
        <time>2018-06-16T09:06:11Z</time>
      </trkpt>
      <trkpt lat="38.2555220" lon="-3.5665860">
        <ele>501.6</ele>
        <time>2018-06-16T09:06:12Z</time>
      </trkpt>
      <trkpt lat="38.2555270" lon="-3.5665300">
        <ele>501.8</ele>
        <time>2018-06-16T09:06:13Z</time>
      </trkpt>
      <trkpt lat="38.2555320" lon="-3.5664730">
        <ele>502.0</ele>
        <time>2018-06-16T09:06:14Z</time>
      </trkpt>
      <trkpt lat="38.2555380" lon="-3.5664170">
        <ele>502.0</ele>
        <time>2018-06-16T09:06:15Z</time>
      </trkpt>
      <trkpt lat="38.2555440" lon="-3.5663600">
        <ele>502.2</ele>
        <time>2018-06-16T09:06:16Z</time>
      </trkpt>
      <trkpt lat="38.2555520" lon="-3.5663030">
        <ele>502.4</ele>
        <time>2018-06-16T09:06:17Z</time>
      </trkpt>
      <trkpt lat="38.2555610" lon="-3.5662460">
        <ele>502.6</ele>
        <time>2018-06-16T09:06:18Z</time>
      </trkpt>
      <trkpt lat="38.2555690" lon="-3.5661880">
        <ele>502.6</ele>
        <time>2018-06-16T09:06:19Z</time>
      </trkpt>
      <trkpt lat="38.2555770" lon="-3.5661300">
        <ele>502.8</ele>
        <time>2018-06-16T09:06:20Z</time>
      </trkpt>
      <trkpt lat="38.2555860" lon="-3.5660720">
        <ele>503.0</ele>
        <time>2018-06-16T09:06:21Z</time>
      </trkpt>
      <trkpt lat="38.2555950" lon="-3.5660140">
        <ele>503.0</ele>
        <time>2018-06-16T09:06:22Z</time>
      </trkpt>
      <trkpt lat="38.2556040" lon="-3.5659540">
        <ele>503.2</ele>
        <time>2018-06-16T09:06:23Z</time>
      </trkpt>
      <trkpt lat="38.2556130" lon="-3.5658950">
        <ele>503.4</ele>
        <time>2018-06-16T09:06:24Z</time>
      </trkpt>
      <trkpt lat="38.2556220" lon="-3.5658340">
        <ele>503.4</ele>
        <time>2018-06-16T09:06:25Z</time>
      </trkpt>
      <trkpt lat="38.2556310" lon="-3.5657720">
        <ele>503.4</ele>
        <time>2018-06-16T09:06:26Z</time>
      </trkpt>
      <trkpt lat="38.2556400" lon="-3.5657110">
        <ele>503.6</ele>
        <time>2018-06-16T09:06:27Z</time>
      </trkpt>
      <trkpt lat="38.2556490" lon="-3.5656490">
        <ele>503.6</ele>
        <time>2018-06-16T09:06:28Z</time>
      </trkpt>
      <trkpt lat="38.2556570" lon="-3.5655870">
        <ele>503.6</ele>
        <time>2018-06-16T09:06:29Z</time>
      </trkpt>
      <trkpt lat="38.2556660" lon="-3.5655250">
        <ele>503.8</ele>
        <time>2018-06-16T09:06:30Z</time>
      </trkpt>
      <trkpt lat="38.2556750" lon="-3.5654630">
        <ele>504.0</ele>
        <time>2018-06-16T09:06:31Z</time>
      </trkpt>
      <trkpt lat="38.2556850" lon="-3.5654020">
        <ele>504.0</ele>
        <time>2018-06-16T09:06:32Z</time>
      </trkpt>
      <trkpt lat="38.2556940" lon="-3.5653420">
        <ele>504.0</ele>
        <time>2018-06-16T09:06:33Z</time>
      </trkpt>
      <trkpt lat="38.2557030" lon="-3.5652820">
        <ele>504.2</ele>
        <time>2018-06-16T09:06:34Z</time>
      </trkpt>
      <trkpt lat="38.2557120" lon="-3.5652210">
        <ele>504.2</ele>
        <time>2018-06-16T09:06:35Z</time>
      </trkpt>
      <trkpt lat="38.2557210" lon="-3.5651590">
        <ele>504.2</ele>
        <time>2018-06-16T09:06:36Z</time>
      </trkpt>
      <trkpt lat="38.2557310" lon="-3.5650960">
        <ele>504.4</ele>
        <time>2018-06-16T09:06:37Z</time>
      </trkpt>
      <trkpt lat="38.2557420" lon="-3.5650340">
        <ele>504.4</ele>
        <time>2018-06-16T09:06:38Z</time>
      </trkpt>
      <trkpt lat="38.2557520" lon="-3.5649700">
        <ele>504.4</ele>
        <time>2018-06-16T09:06:39Z</time>
      </trkpt>
      <trkpt lat="38.2557610" lon="-3.5649050">
        <ele>504.6</ele>
        <time>2018-06-16T09:06:40Z</time>
      </trkpt>
      <trkpt lat="38.2557690" lon="-3.5648410">
        <ele>504.4</ele>
        <time>2018-06-16T09:06:41Z</time>
      </trkpt>
      <trkpt lat="38.2557800" lon="-3.5647770">
        <ele>504.4</ele>
        <time>2018-06-16T09:06:42Z</time>
      </trkpt>
      <trkpt lat="38.2557920" lon="-3.5647130">
        <ele>504.6</ele>
        <time>2018-06-16T09:06:43Z</time>
      </trkpt>
      <trkpt lat="38.2558020" lon="-3.5646490">
        <ele>504.6</ele>
        <time>2018-06-16T09:06:44Z</time>
      </trkpt>
      <trkpt lat="38.2558100" lon="-3.5645850">
        <ele>504.6</ele>
        <time>2018-06-16T09:06:45Z</time>
      </trkpt>
      <trkpt lat="38.2558210" lon="-3.5645200">
        <ele>504.6</ele>
        <time>2018-06-16T09:06:46Z</time>
      </trkpt>
      <trkpt lat="38.2558300" lon="-3.5644560">
        <ele>504.6</ele>
        <time>2018-06-16T09:06:47Z</time>
      </trkpt>
      <trkpt lat="38.2558410" lon="-3.5643910">
        <ele>504.6</ele>
        <time>2018-06-16T09:06:48Z</time>
      </trkpt>
      <trkpt lat="38.2558510" lon="-3.5643240">
        <ele>504.6</ele>
        <time>2018-06-16T09:06:49Z</time>
      </trkpt>
      <trkpt lat="38.2558580" lon="-3.5642570">
        <ele>504.6</ele>
        <time>2018-06-16T09:06:50Z</time>
      </trkpt>
      <trkpt lat="38.2558660" lon="-3.5641880">
        <ele>504.6</ele>
        <time>2018-06-16T09:06:51Z</time>
      </trkpt>
      <trkpt lat="38.2558770" lon="-3.5641190">
        <ele>504.6</ele>
        <time>2018-06-16T09:06:52Z</time>
      </trkpt>
      <trkpt lat="38.2558880" lon="-3.5640490">
        <ele>504.6</ele>
        <time>2018-06-16T09:06:53Z</time>
      </trkpt>
      <trkpt lat="38.2558970" lon="-3.5639780">
        <ele>504.6</ele>
        <time>2018-06-16T09:06:54Z</time>
      </trkpt>
      <trkpt lat="38.2559060" lon="-3.5639050">
        <ele>504.4</ele>
        <time>2018-06-16T09:06:55Z</time>
      </trkpt>
      <trkpt lat="38.2559150" lon="-3.5638310">
        <ele>504.4</ele>
        <time>2018-06-16T09:06:56Z</time>
      </trkpt>
      <trkpt lat="38.2559250" lon="-3.5637560">
        <ele>504.4</ele>
        <time>2018-06-16T09:06:57Z</time>
      </trkpt>
      <trkpt lat="38.2559340" lon="-3.5636790">
        <ele>504.2</ele>
        <time>2018-06-16T09:06:58Z</time>
      </trkpt>
      <trkpt lat="38.2559430" lon="-3.5636010">
        <ele>504.4</ele>
        <time>2018-06-16T09:06:59Z</time>
      </trkpt>
      <trkpt lat="38.2559500" lon="-3.5635210">
        <ele>504.2</ele>
        <time>2018-06-16T09:07:00Z</time>
      </trkpt>
      <trkpt lat="38.2559580" lon="-3.5634390">
        <ele>504.0</ele>
        <time>2018-06-16T09:07:01Z</time>
      </trkpt>
      <trkpt lat="38.2559650" lon="-3.5633570">
        <ele>503.8</ele>
        <time>2018-06-16T09:07:02Z</time>
      </trkpt>
      <trkpt lat="38.2559720" lon="-3.5632730">
        <ele>503.8</ele>
        <time>2018-06-16T09:07:03Z</time>
      </trkpt>
      <trkpt lat="38.2559780" lon="-3.5631870">
        <ele>503.6</ele>
        <time>2018-06-16T09:07:04Z</time>
      </trkpt>
      <trkpt lat="38.2559850" lon="-3.5631000">
        <ele>503.6</ele>
        <time>2018-06-16T09:07:05Z</time>
      </trkpt>
      <trkpt lat="38.2559900" lon="-3.5630110">
        <ele>503.4</ele>
        <time>2018-06-16T09:07:06Z</time>
      </trkpt>
      <trkpt lat="38.2559960" lon="-3.5629210">
        <ele>503.2</ele>
        <time>2018-06-16T09:07:07Z</time>
      </trkpt>
      <trkpt lat="38.2560020" lon="-3.5628280">
        <ele>503.2</ele>
        <time>2018-06-16T09:07:08Z</time>
      </trkpt>
      <trkpt lat="38.2560060" lon="-3.5627330">
        <ele>502.8</ele>
        <time>2018-06-16T09:07:09Z</time>
      </trkpt>
      <trkpt lat="38.2560090" lon="-3.5626370">
        <ele>502.6</ele>
        <time>2018-06-16T09:07:10Z</time>
      </trkpt>
      <trkpt lat="38.2560100" lon="-3.5625380">
        <ele>502.4</ele>
        <time>2018-06-16T09:07:11Z</time>
      </trkpt>
      <trkpt lat="38.2560110" lon="-3.5624350">
        <ele>502.2</ele>
        <time>2018-06-16T09:07:12Z</time>
      </trkpt>
      <trkpt lat="38.2560110" lon="-3.5623300">
        <ele>502.0</ele>
        <time>2018-06-16T09:07:13Z</time>
      </trkpt>
      <trkpt lat="38.2560100" lon="-3.5622220">
        <ele>501.6</ele>
        <time>2018-06-16T09:07:14Z</time>
      </trkpt>
      <trkpt lat="38.2560080" lon="-3.5621120">
        <ele>501.0</ele>
        <time>2018-06-16T09:07:15Z</time>
      </trkpt>
      <trkpt lat="38.2560040" lon="-3.5619990">
        <ele>501.0</ele>
        <time>2018-06-16T09:07:16Z</time>
      </trkpt>
      <trkpt lat="38.2559970" lon="-3.5618850">
        <ele>500.6</ele>
        <time>2018-06-16T09:07:17Z</time>
      </trkpt>
      <trkpt lat="38.2559870" lon="-3.5617670">
        <ele>500.4</ele>
        <time>2018-06-16T09:07:18Z</time>
      </trkpt>
      <trkpt lat="38.2559740" lon="-3.5616490">
        <ele>499.8</ele>
        <time>2018-06-16T09:07:19Z</time>
      </trkpt>
      <trkpt lat="38.2559600" lon="-3.5615300">
        <ele>499.4</ele>
        <time>2018-06-16T09:07:20Z</time>
      </trkpt>
      <trkpt lat="38.2559440" lon="-3.5614090">
        <ele>499.0</ele>
        <time>2018-06-16T09:07:21Z</time>
      </trkpt>
      <trkpt lat="38.2559270" lon="-3.5612870">
        <ele>499.0</ele>
        <time>2018-06-16T09:07:22Z</time>
      </trkpt>
      <trkpt lat="38.2559070" lon="-3.5611660">
        <ele>498.6</ele>
        <time>2018-06-16T09:07:23Z</time>
      </trkpt>
      <trkpt lat="38.2558840" lon="-3.5610440">
        <ele>498.2</ele>
        <time>2018-06-16T09:07:24Z</time>
      </trkpt>
      <trkpt lat="38.2558610" lon="-3.5609220">
        <ele>497.6</ele>
        <time>2018-06-16T09:07:25Z</time>
      </trkpt>
      <trkpt lat="38.2558340" lon="-3.5607990">
        <ele>497.6</ele>
        <time>2018-06-16T09:07:26Z</time>
      </trkpt>
      <trkpt lat="38.2558040" lon="-3.5606760">
        <ele>497.4</ele>
        <time>2018-06-16T09:07:27Z</time>
      </trkpt>
      <trkpt lat="38.2557720" lon="-3.5605540">
        <ele>496.8</ele>
        <time>2018-06-16T09:07:28Z</time>
      </trkpt>
      <trkpt lat="38.2557370" lon="-3.5604320">
        <ele>496.4</ele>
        <time>2018-06-16T09:07:29Z</time>
      </trkpt>
      <trkpt lat="38.2557000" lon="-3.5603100">
        <ele>496.2</ele>
        <time>2018-06-16T09:07:30Z</time>
      </trkpt>
      <trkpt lat="38.2556610" lon="-3.5601870">
        <ele>495.6</ele>
        <time>2018-06-16T09:07:31Z</time>
      </trkpt>
      <trkpt lat="38.2556200" lon="-3.5600640">
        <ele>495.4</ele>
        <time>2018-06-16T09:07:32Z</time>
      </trkpt>
      <trkpt lat="38.2555770" lon="-3.5599420">
        <ele>495.0</ele>
        <time>2018-06-16T09:07:33Z</time>
      </trkpt>
      <trkpt lat="38.2555320" lon="-3.5598210">
        <ele>494.2</ele>
        <time>2018-06-16T09:07:34Z</time>
      </trkpt>
      <trkpt lat="38.2554830" lon="-3.5597010">
        <ele>494.8</ele>
        <time>2018-06-16T09:07:35Z</time>
      </trkpt>
      <trkpt lat="38.2554320" lon="-3.5595810">
        <ele>493.6</ele>
        <time>2018-06-16T09:07:36Z</time>
      </trkpt>
      <trkpt lat="38.2553770" lon="-3.5594640">
        <ele>493.4</ele>
        <time>2018-06-16T09:07:37Z</time>
      </trkpt>
      <trkpt lat="38.2553200" lon="-3.5593470">
        <ele>493.2</ele>
        <time>2018-06-16T09:07:38Z</time>
      </trkpt>
      <trkpt lat="38.2552610" lon="-3.5592290">
        <ele>492.8</ele>
        <time>2018-06-16T09:07:39Z</time>
      </trkpt>
      <trkpt lat="38.2552000" lon="-3.5591130">
        <ele>492.4</ele>
        <time>2018-06-16T09:07:40Z</time>
      </trkpt>
      <trkpt lat="38.2551370" lon="-3.5589980">
        <ele>492.0</ele>
        <time>2018-06-16T09:07:41Z</time>
      </trkpt>
      <trkpt lat="38.2550710" lon="-3.5588830">
        <ele>491.8</ele>
        <time>2018-06-16T09:07:42Z</time>
      </trkpt>
      <trkpt lat="38.2550020" lon="-3.5587710">
        <ele>491.2</ele>
        <time>2018-06-16T09:07:43Z</time>
      </trkpt>
      <trkpt lat="38.2549290" lon="-3.5586610">
        <ele>490.6</ele>
        <time>2018-06-16T09:07:44Z</time>
      </trkpt>
      <trkpt lat="38.2548540" lon="-3.5585540">
        <ele>490.4</ele>
        <time>2018-06-16T09:07:45Z</time>
      </trkpt>
      <trkpt lat="38.2547780" lon="-3.5584480">
        <ele>489.8</ele>
        <time>2018-06-16T09:07:46Z</time>
      </trkpt>
      <trkpt lat="38.2546990" lon="-3.5583440">
        <ele>489.4</ele>
        <time>2018-06-16T09:07:47Z</time>
      </trkpt>
      <trkpt lat="38.2546180" lon="-3.5582420">
        <ele>489.2</ele>
        <time>2018-06-16T09:07:48Z</time>
      </trkpt>
      <trkpt lat="38.2545370" lon="-3.5581420">
        <ele>488.8</ele>
        <time>2018-06-16T09:07:49Z</time>
      </trkpt>
      <trkpt lat="38.2544540" lon="-3.5580440">
        <ele>488.0</ele>
        <time>2018-06-16T09:07:50Z</time>
      </trkpt>
      <trkpt lat="38.2543700" lon="-3.5579470">
        <ele>487.8</ele>
        <time>2018-06-16T09:07:51Z</time>
      </trkpt>
      <trkpt lat="38.2542840" lon="-3.5578530">
        <ele>487.8</ele>
        <time>2018-06-16T09:07:52Z</time>
      </trkpt>
      <trkpt lat="38.2541520" lon="-3.5577140">
        <ele>487.2</ele>
        <time>2018-06-16T09:07:53Z</time>
      </trkpt>
      <trkpt lat="38.2541070" lon="-3.5576690">
        <ele>486.8</ele>
        <time>2018-06-16T09:07:54Z</time>
      </trkpt>
      <trkpt lat="38.2540180" lon="-3.5575790">
        <ele>486.6</ele>
        <time>2018-06-16T09:07:55Z</time>
      </trkpt>
      <trkpt lat="38.2539280" lon="-3.5574910">
        <ele>486.2</ele>
        <time>2018-06-16T09:07:56Z</time>
      </trkpt>
      <trkpt lat="38.2538370" lon="-3.5574030">
        <ele>485.8</ele>
        <time>2018-06-16T09:07:57Z</time>
      </trkpt>
      <trkpt lat="38.2537460" lon="-3.5573160">
        <ele>485.2</ele>
        <time>2018-06-16T09:07:58Z</time>
      </trkpt>
      <trkpt lat="38.2536540" lon="-3.5572300">
        <ele>485.2</ele>
        <time>2018-06-16T09:07:59Z</time>
      </trkpt>
      <trkpt lat="38.2535610" lon="-3.5571450">
        <ele>484.8</ele>
        <time>2018-06-16T09:08:00Z</time>
      </trkpt>
      <trkpt lat="38.2534680" lon="-3.5570620">
        <ele>484.6</ele>
        <time>2018-06-16T09:08:01Z</time>
      </trkpt>
      <trkpt lat="38.2533740" lon="-3.5569790">
        <ele>484.6</ele>
        <time>2018-06-16T09:08:02Z</time>
      </trkpt>
      <trkpt lat="38.2532800" lon="-3.5568960">
        <ele>483.8</ele>
        <time>2018-06-16T09:08:03Z</time>
      </trkpt>
      <trkpt lat="38.2531860" lon="-3.5568140">
        <ele>482.6</ele>
        <time>2018-06-16T09:08:04Z</time>
      </trkpt>
      <trkpt lat="38.2530930" lon="-3.5567320">
        <ele>482.8</ele>
        <time>2018-06-16T09:08:05Z</time>
      </trkpt>
      <trkpt lat="38.2530000" lon="-3.5566500">
        <ele>482.8</ele>
        <time>2018-06-16T09:08:06Z</time>
      </trkpt>
      <trkpt lat="38.2529080" lon="-3.5565670">
        <ele>482.4</ele>
        <time>2018-06-16T09:08:07Z</time>
      </trkpt>
      <trkpt lat="38.2528160" lon="-3.5564830">
        <ele>482.0</ele>
        <time>2018-06-16T09:08:08Z</time>
      </trkpt>
      <trkpt lat="38.2527250" lon="-3.5563960">
        <ele>481.6</ele>
        <time>2018-06-16T09:08:09Z</time>
      </trkpt>
      <trkpt lat="38.2526330" lon="-3.5563100">
        <ele>481.2</ele>
        <time>2018-06-16T09:08:10Z</time>
      </trkpt>
      <trkpt lat="38.2525420" lon="-3.5562200">
        <ele>481.0</ele>
        <time>2018-06-16T09:08:11Z</time>
      </trkpt>
      <trkpt lat="38.2524540" lon="-3.5561230">
        <ele>480.6</ele>
        <time>2018-06-16T09:08:12Z</time>
      </trkpt>
      <trkpt lat="38.2523660" lon="-3.5560260">
        <ele>480.0</ele>
        <time>2018-06-16T09:08:13Z</time>
      </trkpt>
      <trkpt lat="38.2522810" lon="-3.5559240">
        <ele>479.4</ele>
        <time>2018-06-16T09:08:14Z</time>
      </trkpt>
      <trkpt lat="38.2521980" lon="-3.5558180">
        <ele>479.4</ele>
        <time>2018-06-16T09:08:15Z</time>
      </trkpt>
      <trkpt lat="38.2521190" lon="-3.5557060">
        <ele>478.4</ele>
        <time>2018-06-16T09:08:16Z</time>
      </trkpt>
      <trkpt lat="38.2520430" lon="-3.5555890">
        <ele>478.0</ele>
        <time>2018-06-16T09:08:17Z</time>
      </trkpt>
      <trkpt lat="38.2519740" lon="-3.5554640">
        <ele>477.4</ele>
        <time>2018-06-16T09:08:18Z</time>
      </trkpt>
      <trkpt lat="38.2519040" lon="-3.5553400">
        <ele>476.6</ele>
        <time>2018-06-16T09:08:19Z</time>
      </trkpt>
      <trkpt lat="38.2518400" lon="-3.5552090">
        <ele>476.2</ele>
        <time>2018-06-16T09:08:20Z</time>
      </trkpt>
      <trkpt lat="38.2517810" lon="-3.5550740">
        <ele>475.4</ele>
        <time>2018-06-16T09:08:21Z</time>
      </trkpt>
      <trkpt lat="38.2517260" lon="-3.5549370">
        <ele>474.6</ele>
        <time>2018-06-16T09:08:22Z</time>
      </trkpt>
      <trkpt lat="38.2516760" lon="-3.5547960">
        <ele>474.2</ele>
        <time>2018-06-16T09:08:23Z</time>
      </trkpt>
      <trkpt lat="38.2516290" lon="-3.5546510">
        <ele>473.6</ele>
        <time>2018-06-16T09:08:24Z</time>
      </trkpt>
      <trkpt lat="38.2515850" lon="-3.5545030">
        <ele>473.0</ele>
        <time>2018-06-16T09:08:25Z</time>
      </trkpt>
      <trkpt lat="38.2515440" lon="-3.5543530">
        <ele>472.2</ele>
        <time>2018-06-16T09:08:26Z</time>
      </trkpt>
      <trkpt lat="38.2515060" lon="-3.5542000">
        <ele>471.4</ele>
        <time>2018-06-16T09:08:27Z</time>
      </trkpt>
      <trkpt lat="38.2514710" lon="-3.5540440">
        <ele>470.6</ele>
        <time>2018-06-16T09:08:28Z</time>
      </trkpt>
      <trkpt lat="38.2514360" lon="-3.5538860">
        <ele>470.0</ele>
        <time>2018-06-16T09:08:29Z</time>
      </trkpt>
      <trkpt lat="38.2514020" lon="-3.5537250">
        <ele>469.0</ele>
        <time>2018-06-16T09:08:30Z</time>
      </trkpt>
      <trkpt lat="38.2513680" lon="-3.5535630">
        <ele>468.2</ele>
        <time>2018-06-16T09:08:31Z</time>
      </trkpt>
      <trkpt lat="38.2513340" lon="-3.5533980">
        <ele>467.0</ele>
        <time>2018-06-16T09:08:32Z</time>
      </trkpt>
      <trkpt lat="38.2512980" lon="-3.5532320">
        <ele>466.6</ele>
        <time>2018-06-16T09:08:33Z</time>
      </trkpt>
      <trkpt lat="38.2512580" lon="-3.5530650">
        <ele>465.4</ele>
        <time>2018-06-16T09:08:34Z</time>
      </trkpt>
      <trkpt lat="38.2512150" lon="-3.5528970">
        <ele>464.2</ele>
        <time>2018-06-16T09:08:35Z</time>
      </trkpt>
      <trkpt lat="38.2511660" lon="-3.5527300">
        <ele>463.4</ele>
        <time>2018-06-16T09:08:36Z</time>
      </trkpt>
      <trkpt lat="38.2511090" lon="-3.5525630">
        <ele>462.6</ele>
        <time>2018-06-16T09:08:37Z</time>
      </trkpt>
      <trkpt lat="38.2510420" lon="-3.5524020">
        <ele>461.6</ele>
        <time>2018-06-16T09:08:38Z</time>
      </trkpt>
      <trkpt lat="38.2509660" lon="-3.5522430">
        <ele>460.0</ele>
        <time>2018-06-16T09:08:39Z</time>
      </trkpt>
      <trkpt lat="38.2508800" lon="-3.5520910">
        <ele>458.6</ele>
        <time>2018-06-16T09:08:40Z</time>
      </trkpt>
      <trkpt lat="38.2507830" lon="-3.5519470">
        <ele>457.6</ele>
        <time>2018-06-16T09:08:41Z</time>
      </trkpt>
      <trkpt lat="38.2506770" lon="-3.5518120">
        <ele>456.6</ele>
        <time>2018-06-16T09:08:42Z</time>
      </trkpt>
      <trkpt lat="38.2505600" lon="-3.5516880">
        <ele>455.2</ele>
        <time>2018-06-16T09:08:43Z</time>
      </trkpt>
      <trkpt lat="38.2504330" lon="-3.5515760">
        <ele>453.8</ele>
        <time>2018-06-16T09:08:44Z</time>
      </trkpt>
      <trkpt lat="38.2502980" lon="-3.5514780">
        <ele>452.6</ele>
        <time>2018-06-16T09:08:45Z</time>
      </trkpt>
      <trkpt lat="38.2501560" lon="-3.5513940">
        <ele>451.8</ele>
        <time>2018-06-16T09:08:46Z</time>
      </trkpt>
      <trkpt lat="38.2500080" lon="-3.5513240">
        <ele>449.8</ele>
        <time>2018-06-16T09:08:47Z</time>
      </trkpt>
      <trkpt lat="38.2498560" lon="-3.5512660">
        <ele>448.6</ele>
        <time>2018-06-16T09:08:48Z</time>
      </trkpt>
      <trkpt lat="38.2497020" lon="-3.5512190">
        <ele>446.6</ele>
        <time>2018-06-16T09:08:49Z</time>
      </trkpt>
      <trkpt lat="38.2495470" lon="-3.5511820">
        <ele>446.4</ele>
        <time>2018-06-16T09:08:50Z</time>
      </trkpt>
      <trkpt lat="38.2493910" lon="-3.5511500">
        <ele>445.4</ele>
        <time>2018-06-16T09:08:51Z</time>
      </trkpt>
      <trkpt lat="38.2492340" lon="-3.5511200">
        <ele>443.6</ele>
        <time>2018-06-16T09:08:52Z</time>
      </trkpt>
      <trkpt lat="38.2490770" lon="-3.5510930">
        <ele>442.0</ele>
        <time>2018-06-16T09:08:53Z</time>
      </trkpt>
      <trkpt lat="38.2489190" lon="-3.5510640">
        <ele>440.8</ele>
        <time>2018-06-16T09:08:54Z</time>
      </trkpt>
      <trkpt lat="38.2487620" lon="-3.5510290">
        <ele>440.0</ele>
        <time>2018-06-16T09:08:55Z</time>
      </trkpt>
      <trkpt lat="38.2486050" lon="-3.5509830">
        <ele>439.0</ele>
        <time>2018-06-16T09:08:56Z</time>
      </trkpt>
      <trkpt lat="38.2484510" lon="-3.5509220">
        <ele>437.4</ele>
        <time>2018-06-16T09:08:57Z</time>
      </trkpt>
      <trkpt lat="38.2483020" lon="-3.5508430">
        <ele>436.0</ele>
        <time>2018-06-16T09:08:58Z</time>
      </trkpt>
      <trkpt lat="38.2481600" lon="-3.5507460">
        <ele>434.8</ele>
        <time>2018-06-16T09:08:59Z</time>
      </trkpt>
      <trkpt lat="38.2480250" lon="-3.5506370">
        <ele>434.4</ele>
        <time>2018-06-16T09:09:00Z</time>
      </trkpt>
      <trkpt lat="38.2478960" lon="-3.5505260">
        <ele>433.8</ele>
        <time>2018-06-16T09:09:01Z</time>
      </trkpt>
      <trkpt lat="38.2477670" lon="-3.5504150">
        <ele>433.0</ele>
        <time>2018-06-16T09:09:02Z</time>
      </trkpt>
      <trkpt lat="38.2476390" lon="-3.5503130">
        <ele>433.0</ele>
        <time>2018-06-16T09:09:03Z</time>
      </trkpt>
      <trkpt lat="38.2475130" lon="-3.5502190">
        <ele>433.2</ele>
        <time>2018-06-16T09:09:04Z</time>
      </trkpt>
      <trkpt lat="38.2473880" lon="-3.5501340">
        <ele>433.0</ele>
        <time>2018-06-16T09:09:05Z</time>
      </trkpt>
      <trkpt lat="38.2472660" lon="-3.5500550">
        <ele>433.8</ele>
        <time>2018-06-16T09:09:06Z</time>
      </trkpt>
      <trkpt lat="38.2471460" lon="-3.5499840">
        <ele>434.0</ele>
        <time>2018-06-16T09:09:07Z</time>
      </trkpt>
      <trkpt lat="38.2470280" lon="-3.5499190">
        <ele>434.4</ele>
        <time>2018-06-16T09:09:08Z</time>
      </trkpt>
      <trkpt lat="38.2469120" lon="-3.5498630">
        <ele>434.6</ele>
        <time>2018-06-16T09:09:09Z</time>
      </trkpt>
      <trkpt lat="38.2467980" lon="-3.5498110">
        <ele>434.8</ele>
        <time>2018-06-16T09:09:10Z</time>
      </trkpt>
      <trkpt lat="38.2466860" lon="-3.5497620">
        <ele>435.0</ele>
        <time>2018-06-16T09:09:11Z</time>
      </trkpt>
      <trkpt lat="38.2465780" lon="-3.5497180">
        <ele>435.4</ele>
        <time>2018-06-16T09:09:12Z</time>
      </trkpt>
      <trkpt lat="38.2464730" lon="-3.5496770">
        <ele>435.8</ele>
        <time>2018-06-16T09:09:13Z</time>
      </trkpt>
      <trkpt lat="38.2463720" lon="-3.5496360">
        <ele>436.0</ele>
        <time>2018-06-16T09:09:14Z</time>
      </trkpt>
      <trkpt lat="38.2462740" lon="-3.5495980">
        <ele>436.2</ele>
        <time>2018-06-16T09:09:15Z</time>
      </trkpt>
      <trkpt lat="38.2461790" lon="-3.5495620">
        <ele>436.6</ele>
        <time>2018-06-16T09:09:16Z</time>
      </trkpt>
      <trkpt lat="38.2460870" lon="-3.5495210">
        <ele>437.0</ele>
        <time>2018-06-16T09:09:17Z</time>
      </trkpt>
      <trkpt lat="38.2460000" lon="-3.5494740">
        <ele>437.2</ele>
        <time>2018-06-16T09:09:18Z</time>
      </trkpt>
      <trkpt lat="38.2459160" lon="-3.5494220">
        <ele>437.4</ele>
        <time>2018-06-16T09:09:19Z</time>
      </trkpt>
      <trkpt lat="38.2458370" lon="-3.5493670">
        <ele>437.4</ele>
        <time>2018-06-16T09:09:20Z</time>
      </trkpt>
      <trkpt lat="38.2457620" lon="-3.5493100">
        <ele>437.4</ele>
        <time>2018-06-16T09:09:21Z</time>
      </trkpt>
      <trkpt lat="38.2456900" lon="-3.5492480">
        <ele>437.2</ele>
        <time>2018-06-16T09:09:22Z</time>
      </trkpt>
      <trkpt lat="38.2456230" lon="-3.5491840">
        <ele>437.4</ele>
        <time>2018-06-16T09:09:23Z</time>
      </trkpt>
      <trkpt lat="38.2455600" lon="-3.5491180">
        <ele>437.6</ele>
        <time>2018-06-16T09:09:24Z</time>
      </trkpt>
      <trkpt lat="38.2454980" lon="-3.5490510">
        <ele>437.4</ele>
        <time>2018-06-16T09:09:25Z</time>
      </trkpt>
      <trkpt lat="38.2454390" lon="-3.5489850">
        <ele>437.4</ele>
        <time>2018-06-16T09:09:26Z</time>
      </trkpt>
      <trkpt lat="38.2453800" lon="-3.5489180">
        <ele>437.2</ele>
        <time>2018-06-16T09:09:27Z</time>
      </trkpt>
      <trkpt lat="38.2453200" lon="-3.5488530">
        <ele>437.0</ele>
        <time>2018-06-16T09:09:28Z</time>
      </trkpt>
      <trkpt lat="38.2452610" lon="-3.5487890">
        <ele>436.6</ele>
        <time>2018-06-16T09:09:29Z</time>
      </trkpt>
      <trkpt lat="38.2452010" lon="-3.5487280">
        <ele>436.4</ele>
        <time>2018-06-16T09:09:30Z</time>
      </trkpt>
      <trkpt lat="38.2451380" lon="-3.5486700">
        <ele>436.4</ele>
        <time>2018-06-16T09:09:31Z</time>
      </trkpt>
      <trkpt lat="38.2450720" lon="-3.5486130">
        <ele>436.0</ele>
        <time>2018-06-16T09:09:32Z</time>
      </trkpt>
      <trkpt lat="38.2450050" lon="-3.5485580">
        <ele>436.0</ele>
        <time>2018-06-16T09:09:33Z</time>
      </trkpt>
      <trkpt lat="38.2449360" lon="-3.5485070">
        <ele>435.8</ele>
        <time>2018-06-16T09:09:34Z</time>
      </trkpt>
      <trkpt lat="38.2448660" lon="-3.5484610">
        <ele>435.6</ele>
        <time>2018-06-16T09:09:35Z</time>
      </trkpt>
      <trkpt lat="38.2447940" lon="-3.5484210">
        <ele>435.4</ele>
        <time>2018-06-16T09:09:36Z</time>
      </trkpt>
      <trkpt lat="38.2447210" lon="-3.5483870">
        <ele>434.8</ele>
        <time>2018-06-16T09:09:37Z</time>
      </trkpt>
      <trkpt lat="38.2446460" lon="-3.5483570">
        <ele>434.6</ele>
        <time>2018-06-16T09:09:38Z</time>
      </trkpt>
      <trkpt lat="38.2445710" lon="-3.5483330">
        <ele>435.0</ele>
        <time>2018-06-16T09:09:39Z</time>
      </trkpt>
      <trkpt lat="38.2444980" lon="-3.5483100">
        <ele>434.4</ele>
        <time>2018-06-16T09:09:40Z</time>
      </trkpt>
      <trkpt lat="38.2444250" lon="-3.5482900">
        <ele>434.2</ele>
        <time>2018-06-16T09:09:41Z</time>
      </trkpt>
      <trkpt lat="38.2443520" lon="-3.5482720">
        <ele>434.0</ele>
        <time>2018-06-16T09:09:42Z</time>
      </trkpt>
      <trkpt lat="38.2442810" lon="-3.5482570">
        <ele>433.6</ele>
        <time>2018-06-16T09:09:43Z</time>
      </trkpt>
      <trkpt lat="38.2442110" lon="-3.5482410">
        <ele>433.6</ele>
        <time>2018-06-16T09:09:44Z</time>
      </trkpt>
      <trkpt lat="38.2441430" lon="-3.5482240">
        <ele>433.6</ele>
        <time>2018-06-16T09:09:45Z</time>
      </trkpt>
      <trkpt lat="38.2440760" lon="-3.5482020">
        <ele>433.2</ele>
        <time>2018-06-16T09:09:46Z</time>
      </trkpt>
      <trkpt lat="38.2440080" lon="-3.5481760">
        <ele>433.2</ele>
        <time>2018-06-16T09:09:47Z</time>
      </trkpt>
      <trkpt lat="38.2439440" lon="-3.5481450">
        <ele>433.0</ele>
        <time>2018-06-16T09:09:48Z</time>
      </trkpt>
      <trkpt lat="38.2438840" lon="-3.5481110">
        <ele>433.0</ele>
        <time>2018-06-16T09:09:49Z</time>
      </trkpt>
      <trkpt lat="38.2438250" lon="-3.5480660">
        <ele>432.8</ele>
        <time>2018-06-16T09:09:50Z</time>
      </trkpt>
      <trkpt lat="38.2437710" lon="-3.5480110">
        <ele>432.4</ele>
        <time>2018-06-16T09:09:51Z</time>
      </trkpt>
      <trkpt lat="38.2437200" lon="-3.5479510">
        <ele>432.2</ele>
        <time>2018-06-16T09:09:52Z</time>
      </trkpt>
      <trkpt lat="38.2436690" lon="-3.5478890">
        <ele>432.0</ele>
        <time>2018-06-16T09:09:53Z</time>
      </trkpt>
      <trkpt lat="38.2436250" lon="-3.5478190">
        <ele>432.0</ele>
        <time>2018-06-16T09:09:54Z</time>
      </trkpt>
      <trkpt lat="38.2435840" lon="-3.5477460">
        <ele>431.8</ele>
        <time>2018-06-16T09:09:55Z</time>
      </trkpt>
      <trkpt lat="38.2435500" lon="-3.5476700">
        <ele>431.6</ele>
        <time>2018-06-16T09:09:56Z</time>
      </trkpt>
      <trkpt lat="38.2435190" lon="-3.5475870">
        <ele>431.6</ele>
        <time>2018-06-16T09:09:57Z</time>
      </trkpt>
      <trkpt lat="38.2434940" lon="-3.5475000">
        <ele>431.0</ele>
        <time>2018-06-16T09:09:58Z</time>
      </trkpt>
      <trkpt lat="38.2434730" lon="-3.5474110">
        <ele>430.8</ele>
        <time>2018-06-16T09:09:59Z</time>
      </trkpt>
      <trkpt lat="38.2434550" lon="-3.5473230">
        <ele>431.2</ele>
        <time>2018-06-16T09:10:00Z</time>
      </trkpt>
      <trkpt lat="38.2434380" lon="-3.5472350">
        <ele>431.0</ele>
        <time>2018-06-16T09:10:01Z</time>
      </trkpt>
      <trkpt lat="38.2434210" lon="-3.5471480">
        <ele>430.8</ele>
        <time>2018-06-16T09:10:02Z</time>
      </trkpt>
      <trkpt lat="38.2434050" lon="-3.5470580">
        <ele>430.6</ele>
        <time>2018-06-16T09:10:03Z</time>
      </trkpt>
      <trkpt lat="38.2433880" lon="-3.5469690">
        <ele>430.6</ele>
        <time>2018-06-16T09:10:04Z</time>
      </trkpt>
      <trkpt lat="38.2433720" lon="-3.5468800">
        <ele>430.4</ele>
        <time>2018-06-16T09:10:05Z</time>
      </trkpt>
      <trkpt lat="38.2433550" lon="-3.5467910">
        <ele>430.2</ele>
        <time>2018-06-16T09:10:06Z</time>
      </trkpt>
      <trkpt lat="38.2433360" lon="-3.5467020">
        <ele>430.2</ele>
        <time>2018-06-16T09:10:07Z</time>
      </trkpt>
      <trkpt lat="38.2433180" lon="-3.5466140">
        <ele>430.4</ele>
        <time>2018-06-16T09:10:08Z</time>
      </trkpt>
      <trkpt lat="38.2432990" lon="-3.5465270">
        <ele>430.2</ele>
        <time>2018-06-16T09:10:09Z</time>
      </trkpt>
      <trkpt lat="38.2432820" lon="-3.5464400">
        <ele>430.2</ele>
        <time>2018-06-16T09:10:10Z</time>
      </trkpt>
      <trkpt lat="38.2432660" lon="-3.5463530">
        <ele>430.6</ele>
        <time>2018-06-16T09:10:11Z</time>
      </trkpt>
      <trkpt lat="38.2432500" lon="-3.5462680">
        <ele>430.8</ele>
        <time>2018-06-16T09:10:12Z</time>
      </trkpt>
      <trkpt lat="38.2432340" lon="-3.5461840">
        <ele>430.4</ele>
        <time>2018-06-16T09:10:13Z</time>
      </trkpt>
      <trkpt lat="38.2432190" lon="-3.5461000">
        <ele>430.6</ele>
        <time>2018-06-16T09:10:14Z</time>
      </trkpt>
      <trkpt lat="38.2432030" lon="-3.5460170">
        <ele>430.6</ele>
        <time>2018-06-16T09:10:15Z</time>
      </trkpt>
      <trkpt lat="38.2431880" lon="-3.5459350">
        <ele>430.6</ele>
        <time>2018-06-16T09:10:16Z</time>
      </trkpt>
      <trkpt lat="38.2431730" lon="-3.5458540">
        <ele>430.8</ele>
        <time>2018-06-16T09:10:17Z</time>
      </trkpt>
      <trkpt lat="38.2431580" lon="-3.5457750">
        <ele>431.0</ele>
        <time>2018-06-16T09:10:18Z</time>
      </trkpt>
      <trkpt lat="38.2431420" lon="-3.5456970">
        <ele>431.2</ele>
        <time>2018-06-16T09:10:19Z</time>
      </trkpt>
      <trkpt lat="38.2431280" lon="-3.5456230">
        <ele>431.2</ele>
        <time>2018-06-16T09:10:20Z</time>
      </trkpt>
      <trkpt lat="38.2431130" lon="-3.5455480">
        <ele>431.4</ele>
        <time>2018-06-16T09:10:21Z</time>
      </trkpt>
      <trkpt lat="38.2430980" lon="-3.5454750">
        <ele>431.4</ele>
        <time>2018-06-16T09:10:22Z</time>
      </trkpt>
      <trkpt lat="38.2430840" lon="-3.5454050">
        <ele>431.6</ele>
        <time>2018-06-16T09:10:23Z</time>
      </trkpt>
      <trkpt lat="38.2430700" lon="-3.5453370">
        <ele>432.0</ele>
        <time>2018-06-16T09:10:24Z</time>
      </trkpt>
      <trkpt lat="38.2430570" lon="-3.5452690">
        <ele>432.0</ele>
        <time>2018-06-16T09:10:25Z</time>
      </trkpt>
      <trkpt lat="38.2430450" lon="-3.5452030">
        <ele>432.4</ele>
        <time>2018-06-16T09:10:26Z</time>
      </trkpt>
      <trkpt lat="38.2430320" lon="-3.5451390">
        <ele>432.4</ele>
        <time>2018-06-16T09:10:27Z</time>
      </trkpt>
      <trkpt lat="38.2430200" lon="-3.5450760">
        <ele>432.6</ele>
        <time>2018-06-16T09:10:28Z</time>
      </trkpt>
      <trkpt lat="38.2430070" lon="-3.5450170">
        <ele>432.8</ele>
        <time>2018-06-16T09:10:29Z</time>
      </trkpt>
      <trkpt lat="38.2429960" lon="-3.5449540">
        <ele>433.0</ele>
        <time>2018-06-16T09:10:30Z</time>
      </trkpt>
      <trkpt lat="38.2429860" lon="-3.5448920">
        <ele>433.2</ele>
        <time>2018-06-16T09:10:31Z</time>
      </trkpt>
      <trkpt lat="38.2429740" lon="-3.5448330">
        <ele>433.4</ele>
        <time>2018-06-16T09:10:32Z</time>
      </trkpt>
      <trkpt lat="38.2429620" lon="-3.5447740">
        <ele>433.6</ele>
        <time>2018-06-16T09:10:33Z</time>
      </trkpt>
      <trkpt lat="38.2429490" lon="-3.5447170">
        <ele>433.8</ele>
        <time>2018-06-16T09:10:34Z</time>
      </trkpt>
      <trkpt lat="38.2429360" lon="-3.5446600">
        <ele>434.0</ele>
        <time>2018-06-16T09:10:35Z</time>
      </trkpt>
      <trkpt lat="38.2429230" lon="-3.5446040">
        <ele>434.0</ele>
        <time>2018-06-16T09:10:36Z</time>
      </trkpt>
      <trkpt lat="38.2429110" lon="-3.5445460">
        <ele>433.8</ele>
        <time>2018-06-16T09:10:37Z</time>
      </trkpt>
      <trkpt lat="38.2428980" lon="-3.5444890">
        <ele>435.2</ele>
        <time>2018-06-16T09:10:38Z</time>
      </trkpt>
      <trkpt lat="38.2428860" lon="-3.5444330">
        <ele>434.6</ele>
        <time>2018-06-16T09:10:39Z</time>
      </trkpt>
      <trkpt lat="38.2428760" lon="-3.5443790">
        <ele>435.0</ele>
        <time>2018-06-16T09:10:40Z</time>
      </trkpt>
      <trkpt lat="38.2428650" lon="-3.5443250">
        <ele>435.2</ele>
        <time>2018-06-16T09:10:41Z</time>
      </trkpt>
      <trkpt lat="38.2428550" lon="-3.5442720">
        <ele>435.4</ele>
        <time>2018-06-16T09:10:42Z</time>
      </trkpt>
      <trkpt lat="38.2428450" lon="-3.5442210">
        <ele>436.0</ele>
        <time>2018-06-16T09:10:43Z</time>
      </trkpt>
      <trkpt lat="38.2428360" lon="-3.5441710">
        <ele>436.0</ele>
        <time>2018-06-16T09:10:44Z</time>
      </trkpt>
      <trkpt lat="38.2428260" lon="-3.5441250">
        <ele>436.2</ele>
        <time>2018-06-16T09:10:45Z</time>
      </trkpt>
      <trkpt lat="38.2428180" lon="-3.5440790">
        <ele>436.6</ele>
        <time>2018-06-16T09:10:46Z</time>
      </trkpt>
      <trkpt lat="38.2428100" lon="-3.5440340">
        <ele>436.6</ele>
        <time>2018-06-16T09:10:47Z</time>
      </trkpt>
      <trkpt lat="38.2428000" lon="-3.5439910">
        <ele>437.0</ele>
        <time>2018-06-16T09:10:48Z</time>
      </trkpt>
      <trkpt lat="38.2427910" lon="-3.5439490">
        <ele>437.2</ele>
        <time>2018-06-16T09:10:49Z</time>
      </trkpt>
      <trkpt lat="38.2427820" lon="-3.5439070">
        <ele>436.8</ele>
        <time>2018-06-16T09:10:50Z</time>
      </trkpt>
      <trkpt lat="38.2427740" lon="-3.5438650">
        <ele>443.0</ele>
        <time>2018-06-16T09:10:51Z</time>
      </trkpt>
      <trkpt lat="38.2427680" lon="-3.5438250">
        <ele>443.0</ele>
        <time>2018-06-16T09:10:52Z</time>
      </trkpt>
      <trkpt lat="38.2427600" lon="-3.5437850">
        <ele>437.8</ele>
        <time>2018-06-16T09:10:53Z</time>
      </trkpt>
      <trkpt lat="38.2427520" lon="-3.5437450">
        <ele>441.6</ele>
        <time>2018-06-16T09:10:54Z</time>
      </trkpt>
      <trkpt lat="38.2427440" lon="-3.5437050">
        <ele>438.2</ele>
        <time>2018-06-16T09:10:55Z</time>
      </trkpt>
      <trkpt lat="38.2427350" lon="-3.5436650">
        <ele>438.4</ele>
        <time>2018-06-16T09:10:56Z</time>
      </trkpt>
      <trkpt lat="38.2427280" lon="-3.5436230">
        <ele>438.4</ele>
        <time>2018-06-16T09:10:57Z</time>
      </trkpt>
      <trkpt lat="38.2427190" lon="-3.5435820">
        <ele>438.6</ele>
        <time>2018-06-16T09:10:58Z</time>
      </trkpt>
      <trkpt lat="38.2427120" lon="-3.5435410">
        <ele>438.8</ele>
        <time>2018-06-16T09:10:59Z</time>
      </trkpt>
      <trkpt lat="38.2427030" lon="-3.5435010">
        <ele>439.0</ele>
        <time>2018-06-16T09:11:00Z</time>
      </trkpt>
      <trkpt lat="38.2426950" lon="-3.5434590">
        <ele>439.2</ele>
        <time>2018-06-16T09:11:01Z</time>
      </trkpt>
      <trkpt lat="38.2426880" lon="-3.5434180">
        <ele>439.2</ele>
        <time>2018-06-16T09:11:02Z</time>
      </trkpt>
      <trkpt lat="38.2426800" lon="-3.5433780">
        <ele>439.6</ele>
        <time>2018-06-16T09:11:03Z</time>
      </trkpt>
      <trkpt lat="38.2426710" lon="-3.5433370">
        <ele>439.8</ele>
        <time>2018-06-16T09:11:04Z</time>
      </trkpt>
      <trkpt lat="38.2426640" lon="-3.5432970">
        <ele>439.8</ele>
        <time>2018-06-16T09:11:05Z</time>
      </trkpt>
      <trkpt lat="38.2426550" lon="-3.5432600">
        <ele>439.8</ele>
        <time>2018-06-16T09:11:06Z</time>
      </trkpt>
      <trkpt lat="38.2426460" lon="-3.5432210">
        <ele>440.0</ele>
        <time>2018-06-16T09:11:07Z</time>
      </trkpt>
      <trkpt lat="38.2426370" lon="-3.5431800">
        <ele>440.4</ele>
        <time>2018-06-16T09:11:08Z</time>
      </trkpt>
      <trkpt lat="38.2426290" lon="-3.5431400">
        <ele>440.4</ele>
        <time>2018-06-16T09:11:09Z</time>
      </trkpt>
      <trkpt lat="38.2426220" lon="-3.5430980">
        <ele>440.6</ele>
        <time>2018-06-16T09:11:10Z</time>
      </trkpt>
      <trkpt lat="38.2426140" lon="-3.5430570">
        <ele>440.4</ele>
        <time>2018-06-16T09:11:11Z</time>
      </trkpt>
      <trkpt lat="38.2426060" lon="-3.5430160">
        <ele>440.6</ele>
        <time>2018-06-16T09:11:12Z</time>
      </trkpt>
      <trkpt lat="38.2426010" lon="-3.5429740">
        <ele>440.8</ele>
        <time>2018-06-16T09:11:13Z</time>
      </trkpt>
      <trkpt lat="38.2425930" lon="-3.5429330">
        <ele>441.0</ele>
        <time>2018-06-16T09:11:14Z</time>
      </trkpt>
      <trkpt lat="38.2425840" lon="-3.5428930">
        <ele>441.2</ele>
        <time>2018-06-16T09:11:15Z</time>
      </trkpt>
      <trkpt lat="38.2425750" lon="-3.5428510">
        <ele>441.2</ele>
        <time>2018-06-16T09:11:16Z</time>
      </trkpt>
      <trkpt lat="38.2425670" lon="-3.5428070">
        <ele>441.4</ele>
        <time>2018-06-16T09:11:17Z</time>
      </trkpt>
      <trkpt lat="38.2425600" lon="-3.5427650">
        <ele>441.4</ele>
        <time>2018-06-16T09:11:18Z</time>
      </trkpt>
      <trkpt lat="38.2425510" lon="-3.5427230">
        <ele>441.6</ele>
        <time>2018-06-16T09:11:19Z</time>
      </trkpt>
      <trkpt lat="38.2425430" lon="-3.5426810">
        <ele>441.6</ele>
        <time>2018-06-16T09:11:20Z</time>
      </trkpt>
      <trkpt lat="38.2425340" lon="-3.5426390">
        <ele>441.8</ele>
        <time>2018-06-16T09:11:21Z</time>
      </trkpt>
      <trkpt lat="38.2425240" lon="-3.5425960">
        <ele>441.8</ele>
        <time>2018-06-16T09:11:22Z</time>
      </trkpt>
      <trkpt lat="38.2425160" lon="-3.5425530">
        <ele>441.8</ele>
        <time>2018-06-16T09:11:23Z</time>
      </trkpt>
      <trkpt lat="38.2425070" lon="-3.5425110">
        <ele>442.0</ele>
        <time>2018-06-16T09:11:24Z</time>
      </trkpt>
      <trkpt lat="38.2424980" lon="-3.5424680">
        <ele>442.0</ele>
        <time>2018-06-16T09:11:25Z</time>
      </trkpt>
      <trkpt lat="38.2424900" lon="-3.5424270">
        <ele>442.0</ele>
        <time>2018-06-16T09:11:26Z</time>
      </trkpt>
      <trkpt lat="38.2424820" lon="-3.5423850">
        <ele>442.2</ele>
        <time>2018-06-16T09:11:27Z</time>
      </trkpt>
      <trkpt lat="38.2424750" lon="-3.5423420">
        <ele>442.4</ele>
        <time>2018-06-16T09:11:28Z</time>
      </trkpt>
      <trkpt lat="38.2424670" lon="-3.5422980">
        <ele>442.4</ele>
        <time>2018-06-16T09:11:29Z</time>
      </trkpt>
      <trkpt lat="38.2424590" lon="-3.5422520">
        <ele>442.4</ele>
        <time>2018-06-16T09:11:30Z</time>
      </trkpt>
      <trkpt lat="38.2424510" lon="-3.5422040">
        <ele>442.4</ele>
        <time>2018-06-16T09:11:31Z</time>
      </trkpt>
      <trkpt lat="38.2424430" lon="-3.5421550">
        <ele>442.8</ele>
        <time>2018-06-16T09:11:32Z</time>
      </trkpt>
      <trkpt lat="38.2424360" lon="-3.5421070">
        <ele>442.8</ele>
        <time>2018-06-16T09:11:33Z</time>
      </trkpt>
      <trkpt lat="38.2424290" lon="-3.5420580">
        <ele>442.8</ele>
        <time>2018-06-16T09:11:34Z</time>
      </trkpt>
      <trkpt lat="38.2424210" lon="-3.5420090">
        <ele>442.8</ele>
        <time>2018-06-16T09:11:35Z</time>
      </trkpt>
      <trkpt lat="38.2424150" lon="-3.5419600">
        <ele>443.0</ele>
        <time>2018-06-16T09:11:36Z</time>
      </trkpt>
      <trkpt lat="38.2424110" lon="-3.5419090">
        <ele>442.8</ele>
        <time>2018-06-16T09:11:37Z</time>
      </trkpt>
      <trkpt lat="38.2424060" lon="-3.5418590">
        <ele>443.0</ele>
        <time>2018-06-16T09:11:38Z</time>
      </trkpt>
      <trkpt lat="38.2424020" lon="-3.5418080">
        <ele>442.8</ele>
        <time>2018-06-16T09:11:39Z</time>
      </trkpt>
      <trkpt lat="38.2423990" lon="-3.5417560">
        <ele>443.0</ele>
        <time>2018-06-16T09:11:40Z</time>
      </trkpt>
      <trkpt lat="38.2423980" lon="-3.5417030">
        <ele>442.8</ele>
        <time>2018-06-16T09:11:41Z</time>
      </trkpt>
      <trkpt lat="38.2423980" lon="-3.5416500">
        <ele>443.0</ele>
        <time>2018-06-16T09:11:42Z</time>
      </trkpt>
      <trkpt lat="38.2423980" lon="-3.5415970">
        <ele>443.0</ele>
        <time>2018-06-16T09:11:43Z</time>
      </trkpt>
      <trkpt lat="38.2423990" lon="-3.5415440">
        <ele>443.0</ele>
        <time>2018-06-16T09:11:44Z</time>
      </trkpt>
      <trkpt lat="38.2424000" lon="-3.5414890">
        <ele>443.0</ele>
        <time>2018-06-16T09:11:45Z</time>
      </trkpt>
      <trkpt lat="38.2424040" lon="-3.5414360">
        <ele>443.2</ele>
        <time>2018-06-16T09:11:46Z</time>
      </trkpt>
      <trkpt lat="38.2424090" lon="-3.5413830">
        <ele>443.0</ele>
        <time>2018-06-16T09:11:47Z</time>
      </trkpt>
      <trkpt lat="38.2424150" lon="-3.5413260">
        <ele>443.0</ele>
        <time>2018-06-16T09:11:48Z</time>
      </trkpt>
      <trkpt lat="38.2424220" lon="-3.5412690">
        <ele>443.0</ele>
        <time>2018-06-16T09:11:49Z</time>
      </trkpt>
      <trkpt lat="38.2424330" lon="-3.5412110">
        <ele>443.0</ele>
        <time>2018-06-16T09:11:50Z</time>
      </trkpt>
      <trkpt lat="38.2424450" lon="-3.5411520">
        <ele>443.0</ele>
        <time>2018-06-16T09:11:51Z</time>
      </trkpt>
      <trkpt lat="38.2424590" lon="-3.5410920">
        <ele>443.0</ele>
        <time>2018-06-16T09:11:52Z</time>
      </trkpt>
      <trkpt lat="38.2424740" lon="-3.5410320">
        <ele>443.0</ele>
        <time>2018-06-16T09:11:53Z</time>
      </trkpt>
      <trkpt lat="38.2424900" lon="-3.5409710">
        <ele>442.8</ele>
        <time>2018-06-16T09:11:54Z</time>
      </trkpt>
      <trkpt lat="38.2425090" lon="-3.5409090">
        <ele>442.6</ele>
        <time>2018-06-16T09:11:55Z</time>
      </trkpt>
      <trkpt lat="38.2425300" lon="-3.5408460">
        <ele>442.6</ele>
        <time>2018-06-16T09:11:56Z</time>
      </trkpt>
      <trkpt lat="38.2425520" lon="-3.5407820">
        <ele>442.4</ele>
        <time>2018-06-16T09:11:57Z</time>
      </trkpt>
      <trkpt lat="38.2425760" lon="-3.5407170">
        <ele>442.4</ele>
        <time>2018-06-16T09:11:58Z</time>
      </trkpt>
      <trkpt lat="38.2426020" lon="-3.5406500">
        <ele>442.2</ele>
        <time>2018-06-16T09:11:59Z</time>
      </trkpt>
      <trkpt lat="38.2426300" lon="-3.5405800">
        <ele>442.0</ele>
        <time>2018-06-16T09:12:00Z</time>
      </trkpt>
      <trkpt lat="38.2426580" lon="-3.5405080">
        <ele>441.8</ele>
        <time>2018-06-16T09:12:01Z</time>
      </trkpt>
      <trkpt lat="38.2426870" lon="-3.5404340">
        <ele>441.8</ele>
        <time>2018-06-16T09:12:02Z</time>
      </trkpt>
      <trkpt lat="38.2427170" lon="-3.5403560">
        <ele>441.6</ele>
        <time>2018-06-16T09:12:03Z</time>
      </trkpt>
      <trkpt lat="38.2427480" lon="-3.5402750">
        <ele>441.2</ele>
        <time>2018-06-16T09:12:04Z</time>
      </trkpt>
      <trkpt lat="38.2427770" lon="-3.5401880">
        <ele>441.2</ele>
        <time>2018-06-16T09:12:05Z</time>
      </trkpt>
      <trkpt lat="38.2428050" lon="-3.5400980">
        <ele>440.8</ele>
        <time>2018-06-16T09:12:06Z</time>
      </trkpt>
      <trkpt lat="38.2428310" lon="-3.5400030">
        <ele>440.4</ele>
        <time>2018-06-16T09:12:07Z</time>
      </trkpt>
      <trkpt lat="38.2428540" lon="-3.5399040">
        <ele>440.2</ele>
        <time>2018-06-16T09:12:08Z</time>
      </trkpt>
      <trkpt lat="38.2428710" lon="-3.5398010">
        <ele>439.8</ele>
        <time>2018-06-16T09:12:09Z</time>
      </trkpt>
      <trkpt lat="38.2428820" lon="-3.5396920">
        <ele>439.4</ele>
        <time>2018-06-16T09:12:10Z</time>
      </trkpt>
      <trkpt lat="38.2428900" lon="-3.5395800">
        <ele>439.4</ele>
        <time>2018-06-16T09:12:11Z</time>
      </trkpt>
      <trkpt lat="38.2428920" lon="-3.5394670">
        <ele>438.8</ele>
        <time>2018-06-16T09:12:12Z</time>
      </trkpt>
      <trkpt lat="38.2428890" lon="-3.5393490">
        <ele>438.6</ele>
        <time>2018-06-16T09:12:13Z</time>
      </trkpt>
      <trkpt lat="38.2428790" lon="-3.5392270">
        <ele>438.0</ele>
        <time>2018-06-16T09:12:14Z</time>
      </trkpt>
      <trkpt lat="38.2428620" lon="-3.5391030">
        <ele>437.4</ele>
        <time>2018-06-16T09:12:15Z</time>
      </trkpt>
      <trkpt lat="38.2428390" lon="-3.5389790">
        <ele>436.8</ele>
        <time>2018-06-16T09:12:16Z</time>
      </trkpt>
      <trkpt lat="38.2428150" lon="-3.5388540">
        <ele>436.4</ele>
        <time>2018-06-16T09:12:17Z</time>
      </trkpt>
      <trkpt lat="38.2427910" lon="-3.5387270">
        <ele>436.2</ele>
        <time>2018-06-16T09:12:18Z</time>
      </trkpt>
      <trkpt lat="38.2427660" lon="-3.5385980">
        <ele>436.0</ele>
        <time>2018-06-16T09:12:19Z</time>
      </trkpt>
      <trkpt lat="38.2427430" lon="-3.5384670">
        <ele>436.0</ele>
        <time>2018-06-16T09:12:20Z</time>
      </trkpt>
      <trkpt lat="38.2427260" lon="-3.5383360">
        <ele>435.4</ele>
        <time>2018-06-16T09:12:21Z</time>
      </trkpt>
      <trkpt lat="38.2427140" lon="-3.5382020">
        <ele>435.4</ele>
        <time>2018-06-16T09:12:22Z</time>
      </trkpt>
      <trkpt lat="38.2427090" lon="-3.5380670">
        <ele>435.0</ele>
        <time>2018-06-16T09:12:23Z</time>
      </trkpt>
      <trkpt lat="38.2427120" lon="-3.5379320">
        <ele>434.6</ele>
        <time>2018-06-16T09:12:24Z</time>
      </trkpt>
      <trkpt lat="38.2427220" lon="-3.5377980">
        <ele>434.6</ele>
        <time>2018-06-16T09:12:25Z</time>
      </trkpt>
      <trkpt lat="38.2427390" lon="-3.5376630">
        <ele>434.2</ele>
        <time>2018-06-16T09:12:26Z</time>
      </trkpt>
      <trkpt lat="38.2427630" lon="-3.5375310">
        <ele>434.0</ele>
        <time>2018-06-16T09:12:27Z</time>
      </trkpt>
      <trkpt lat="38.2427900" lon="-3.5374000">
        <ele>433.4</ele>
        <time>2018-06-16T09:12:28Z</time>
      </trkpt>
      <trkpt lat="38.2428180" lon="-3.5372710">
        <ele>433.4</ele>
        <time>2018-06-16T09:12:29Z</time>
      </trkpt>
      <trkpt lat="38.2428450" lon="-3.5371430">
        <ele>433.2</ele>
        <time>2018-06-16T09:12:30Z</time>
      </trkpt>
      <trkpt lat="38.2428720" lon="-3.5370160">
        <ele>433.2</ele>
        <time>2018-06-16T09:12:31Z</time>
      </trkpt>
      <trkpt lat="38.2428960" lon="-3.5368900">
        <ele>433.2</ele>
        <time>2018-06-16T09:12:32Z</time>
      </trkpt>
      <trkpt lat="38.2429140" lon="-3.5367630">
        <ele>433.0</ele>
        <time>2018-06-16T09:12:33Z</time>
      </trkpt>
      <trkpt lat="38.2429270" lon="-3.5366380">
        <ele>433.0</ele>
        <time>2018-06-16T09:12:34Z</time>
      </trkpt>
      <trkpt lat="38.2429330" lon="-3.5365150">
        <ele>433.4</ele>
        <time>2018-06-16T09:12:35Z</time>
      </trkpt>
      <trkpt lat="38.2429320" lon="-3.5363950">
        <ele>433.4</ele>
        <time>2018-06-16T09:12:36Z</time>
      </trkpt>
      <trkpt lat="38.2429230" lon="-3.5362770">
        <ele>433.4</ele>
        <time>2018-06-16T09:12:37Z</time>
      </trkpt>
      <trkpt lat="38.2429090" lon="-3.5361630">
        <ele>433.6</ele>
        <time>2018-06-16T09:12:38Z</time>
      </trkpt>
      <trkpt lat="38.2428880" lon="-3.5360550">
        <ele>434.0</ele>
        <time>2018-06-16T09:12:39Z</time>
      </trkpt>
      <trkpt lat="38.2428630" lon="-3.5359510">
        <ele>434.0</ele>
        <time>2018-06-16T09:12:40Z</time>
      </trkpt>
      <trkpt lat="38.2428360" lon="-3.5358530">
        <ele>434.4</ele>
        <time>2018-06-16T09:12:41Z</time>
      </trkpt>
      <trkpt lat="38.2428060" lon="-3.5357610">
        <ele>434.8</ele>
        <time>2018-06-16T09:12:42Z</time>
      </trkpt>
      <trkpt lat="38.2427730" lon="-3.5356740">
        <ele>435.0</ele>
        <time>2018-06-16T09:12:43Z</time>
      </trkpt>
      <trkpt lat="38.2427370" lon="-3.5355930">
        <ele>435.4</ele>
        <time>2018-06-16T09:12:44Z</time>
      </trkpt>
      <trkpt lat="38.2427010" lon="-3.5355160">
        <ele>435.6</ele>
        <time>2018-06-16T09:12:45Z</time>
      </trkpt>
      <trkpt lat="38.2426660" lon="-3.5354420">
        <ele>436.0</ele>
        <time>2018-06-16T09:12:46Z</time>
      </trkpt>
      <trkpt lat="38.2426310" lon="-3.5353710">
        <ele>436.4</ele>
        <time>2018-06-16T09:12:47Z</time>
      </trkpt>
      <trkpt lat="38.2425970" lon="-3.5353030">
        <ele>436.6</ele>
        <time>2018-06-16T09:12:48Z</time>
      </trkpt>
      <trkpt lat="38.2425640" lon="-3.5352380">
        <ele>437.0</ele>
        <time>2018-06-16T09:12:49Z</time>
      </trkpt>
      <trkpt lat="38.2425330" lon="-3.5351740">
        <ele>437.2</ele>
        <time>2018-06-16T09:12:50Z</time>
      </trkpt>
      <trkpt lat="38.2425030" lon="-3.5351130">
        <ele>437.6</ele>
        <time>2018-06-16T09:12:51Z</time>
      </trkpt>
      <trkpt lat="38.2424730" lon="-3.5350540">
        <ele>438.0</ele>
        <time>2018-06-16T09:12:52Z</time>
      </trkpt>
      <trkpt lat="38.2424440" lon="-3.5349970">
        <ele>438.4</ele>
        <time>2018-06-16T09:12:53Z</time>
      </trkpt>
      <trkpt lat="38.2424170" lon="-3.5349430">
        <ele>438.6</ele>
        <time>2018-06-16T09:12:54Z</time>
      </trkpt>
      <trkpt lat="38.2423930" lon="-3.5348890">
        <ele>438.8</ele>
        <time>2018-06-16T09:12:55Z</time>
      </trkpt>
      <trkpt lat="38.2423700" lon="-3.5348370">
        <ele>439.0</ele>
        <time>2018-06-16T09:12:56Z</time>
      </trkpt>
      <trkpt lat="38.2423480" lon="-3.5347840">
        <ele>439.2</ele>
        <time>2018-06-16T09:12:57Z</time>
      </trkpt>
      <trkpt lat="38.2423250" lon="-3.5347330">
        <ele>439.6</ele>
        <time>2018-06-16T09:12:58Z</time>
      </trkpt>
      <trkpt lat="38.2423030" lon="-3.5346820">
        <ele>439.8</ele>
        <time>2018-06-16T09:12:59Z</time>
      </trkpt>
      <trkpt lat="38.2422820" lon="-3.5346310">
        <ele>440.0</ele>
        <time>2018-06-16T09:13:00Z</time>
      </trkpt>
      <trkpt lat="38.2422610" lon="-3.5345800">
        <ele>440.4</ele>
        <time>2018-06-16T09:13:01Z</time>
      </trkpt>
      <trkpt lat="38.2422410" lon="-3.5345290">
        <ele>440.6</ele>
        <time>2018-06-16T09:13:02Z</time>
      </trkpt>
      <trkpt lat="38.2422220" lon="-3.5344790">
        <ele>440.8</ele>
        <time>2018-06-16T09:13:03Z</time>
      </trkpt>
      <trkpt lat="38.2422030" lon="-3.5344290">
        <ele>441.0</ele>
        <time>2018-06-16T09:13:04Z</time>
      </trkpt>
      <trkpt lat="38.2421880" lon="-3.5343790">
        <ele>441.2</ele>
        <time>2018-06-16T09:13:05Z</time>
      </trkpt>
      <trkpt lat="38.2421720" lon="-3.5343290">
        <ele>441.6</ele>
        <time>2018-06-16T09:13:06Z</time>
      </trkpt>
      <trkpt lat="38.2421550" lon="-3.5342800">
        <ele>441.8</ele>
        <time>2018-06-16T09:13:07Z</time>
      </trkpt>
      <trkpt lat="38.2421390" lon="-3.5342300">
        <ele>442.0</ele>
        <time>2018-06-16T09:13:08Z</time>
      </trkpt>
      <trkpt lat="38.2421260" lon="-3.5341790">
        <ele>442.2</ele>
        <time>2018-06-16T09:13:09Z</time>
      </trkpt>
      <trkpt lat="38.2421130" lon="-3.5341270">
        <ele>442.4</ele>
        <time>2018-06-16T09:13:10Z</time>
      </trkpt>
      <trkpt lat="38.2421010" lon="-3.5340750">
        <ele>442.6</ele>
        <time>2018-06-16T09:13:11Z</time>
      </trkpt>
      <trkpt lat="38.2420900" lon="-3.5340220">
        <ele>442.8</ele>
        <time>2018-06-16T09:13:12Z</time>
      </trkpt>
      <trkpt lat="38.2420780" lon="-3.5339680">
        <ele>443.0</ele>
        <time>2018-06-16T09:13:13Z</time>
      </trkpt>
      <trkpt lat="38.2420680" lon="-3.5339150">
        <ele>443.4</ele>
        <time>2018-06-16T09:13:14Z</time>
      </trkpt>
      <trkpt lat="38.2420590" lon="-3.5338630">
        <ele>443.4</ele>
        <time>2018-06-16T09:13:15Z</time>
      </trkpt>
      <trkpt lat="38.2420510" lon="-3.5338130">
        <ele>443.6</ele>
        <time>2018-06-16T09:13:16Z</time>
      </trkpt>
      <trkpt lat="38.2420430" lon="-3.5337640">
        <ele>443.8</ele>
        <time>2018-06-16T09:13:17Z</time>
      </trkpt>
      <trkpt lat="38.2420360" lon="-3.5337170">
        <ele>444.0</ele>
        <time>2018-06-16T09:13:18Z</time>
      </trkpt>
      <trkpt lat="38.2420300" lon="-3.5336700">
        <ele>444.2</ele>
        <time>2018-06-16T09:13:19Z</time>
      </trkpt>
      <trkpt lat="38.2420250" lon="-3.5336230">
        <ele>444.4</ele>
        <time>2018-06-16T09:13:20Z</time>
      </trkpt>
      <trkpt lat="38.2420210" lon="-3.5335770">
        <ele>444.6</ele>
        <time>2018-06-16T09:13:21Z</time>
      </trkpt>
      <trkpt lat="38.2420160" lon="-3.5335300">
        <ele>444.8</ele>
        <time>2018-06-16T09:13:22Z</time>
      </trkpt>
      <trkpt lat="38.2420110" lon="-3.5334850">
        <ele>445.0</ele>
        <time>2018-06-16T09:13:23Z</time>
      </trkpt>
      <trkpt lat="38.2420070" lon="-3.5334420">
        <ele>445.2</ele>
        <time>2018-06-16T09:13:24Z</time>
      </trkpt>
      <trkpt lat="38.2420050" lon="-3.5334000">
        <ele>445.4</ele>
        <time>2018-06-16T09:13:25Z</time>
      </trkpt>
      <trkpt lat="38.2420040" lon="-3.5333590">
        <ele>445.4</ele>
        <time>2018-06-16T09:13:26Z</time>
      </trkpt>
      <trkpt lat="38.2420050" lon="-3.5333190">
        <ele>445.6</ele>
        <time>2018-06-16T09:13:27Z</time>
      </trkpt>
      <trkpt lat="38.2420040" lon="-3.5332780">
        <ele>445.8</ele>
        <time>2018-06-16T09:13:28Z</time>
      </trkpt>
      <trkpt lat="38.2420040" lon="-3.5332380">
        <ele>446.0</ele>
        <time>2018-06-16T09:13:29Z</time>
      </trkpt>
      <trkpt lat="38.2420040" lon="-3.5331970">
        <ele>446.2</ele>
        <time>2018-06-16T09:13:30Z</time>
      </trkpt>
      <trkpt lat="38.2420040" lon="-3.5331570">
        <ele>446.2</ele>
        <time>2018-06-16T09:13:31Z</time>
      </trkpt>
      <trkpt lat="38.2420060" lon="-3.5331170">
        <ele>446.2</ele>
        <time>2018-06-16T09:13:32Z</time>
      </trkpt>
      <trkpt lat="38.2420070" lon="-3.5330770">
        <ele>446.4</ele>
        <time>2018-06-16T09:13:33Z</time>
      </trkpt>
      <trkpt lat="38.2420070" lon="-3.5330380">
        <ele>446.8</ele>
        <time>2018-06-16T09:13:34Z</time>
      </trkpt>
      <trkpt lat="38.2420080" lon="-3.5329990">
        <ele>447.0</ele>
        <time>2018-06-16T09:13:35Z</time>
      </trkpt>
      <trkpt lat="38.2420110" lon="-3.5329620">
        <ele>450.6</ele>
        <time>2018-06-16T09:13:36Z</time>
      </trkpt>
      <trkpt lat="38.2420150" lon="-3.5329260">
        <ele>447.4</ele>
        <time>2018-06-16T09:13:37Z</time>
      </trkpt>
      <trkpt lat="38.2420190" lon="-3.5328880">
        <ele>447.4</ele>
        <time>2018-06-16T09:13:38Z</time>
      </trkpt>
      <trkpt lat="38.2420220" lon="-3.5328490">
        <ele>447.2</ele>
        <time>2018-06-16T09:13:39Z</time>
      </trkpt>
      <trkpt lat="38.2420250" lon="-3.5328100">
        <ele>453.8</ele>
        <time>2018-06-16T09:13:40Z</time>
      </trkpt>
      <trkpt lat="38.2420290" lon="-3.5327720">
        <ele>454.2</ele>
        <time>2018-06-16T09:13:41Z</time>
      </trkpt>
      <trkpt lat="38.2420340" lon="-3.5327350">
        <ele>447.6</ele>
        <time>2018-06-16T09:13:42Z</time>
      </trkpt>
      <trkpt lat="38.2420390" lon="-3.5326970">
        <ele>449.0</ele>
        <time>2018-06-16T09:13:43Z</time>
      </trkpt>
      <trkpt lat="38.2420430" lon="-3.5326580">
        <ele>448.2</ele>
        <time>2018-06-16T09:13:44Z</time>
      </trkpt>
      <trkpt lat="38.2420470" lon="-3.5326200">
        <ele>448.2</ele>
        <time>2018-06-16T09:13:45Z</time>
      </trkpt>
      <trkpt lat="38.2420510" lon="-3.5325810">
        <ele>448.4</ele>
        <time>2018-06-16T09:13:46Z</time>
      </trkpt>
      <trkpt lat="38.2420560" lon="-3.5325430">
        <ele>448.6</ele>
        <time>2018-06-16T09:13:47Z</time>
      </trkpt>
      <trkpt lat="38.2420610" lon="-3.5325040">
        <ele>448.8</ele>
        <time>2018-06-16T09:13:48Z</time>
      </trkpt>
      <trkpt lat="38.2420670" lon="-3.5324660">
        <ele>449.0</ele>
        <time>2018-06-16T09:13:49Z</time>
      </trkpt>
      <trkpt lat="38.2420740" lon="-3.5324280">
        <ele>449.0</ele>
        <time>2018-06-16T09:13:50Z</time>
      </trkpt>
      <trkpt lat="38.2420780" lon="-3.5323900">
        <ele>449.2</ele>
        <time>2018-06-16T09:13:51Z</time>
      </trkpt>
      <trkpt lat="38.2420820" lon="-3.5323530">
        <ele>449.4</ele>
        <time>2018-06-16T09:13:52Z</time>
      </trkpt>
      <trkpt lat="38.2420850" lon="-3.5323180">
        <ele>449.6</ele>
        <time>2018-06-16T09:13:53Z</time>
      </trkpt>
      <trkpt lat="38.2420900" lon="-3.5322850">
        <ele>449.6</ele>
        <time>2018-06-16T09:13:54Z</time>
      </trkpt>
      <trkpt lat="38.2420960" lon="-3.5322520">
        <ele>449.8</ele>
        <time>2018-06-16T09:13:55Z</time>
      </trkpt>
      <trkpt lat="38.2421020" lon="-3.5322180">
        <ele>449.8</ele>
        <time>2018-06-16T09:13:56Z</time>
      </trkpt>
      <trkpt lat="38.2421060" lon="-3.5321840">
        <ele>450.0</ele>
        <time>2018-06-16T09:13:57Z</time>
      </trkpt>
      <trkpt lat="38.2421100" lon="-3.5321490">
        <ele>450.2</ele>
        <time>2018-06-16T09:13:58Z</time>
      </trkpt>
      <trkpt lat="38.2421140" lon="-3.5321150">
        <ele>450.2</ele>
        <time>2018-06-16T09:13:59Z</time>
      </trkpt>
      <trkpt lat="38.2421190" lon="-3.5320810">
        <ele>450.4</ele>
        <time>2018-06-16T09:14:00Z</time>
      </trkpt>
      <trkpt lat="38.2421240" lon="-3.5320470">
        <ele>450.6</ele>
        <time>2018-06-16T09:14:01Z</time>
      </trkpt>
      <trkpt lat="38.2421290" lon="-3.5320130">
        <ele>450.6</ele>
        <time>2018-06-16T09:14:02Z</time>
      </trkpt>
      <trkpt lat="38.2421350" lon="-3.5319790">
        <ele>450.8</ele>
        <time>2018-06-16T09:14:03Z</time>
      </trkpt>
      <trkpt lat="38.2421410" lon="-3.5319450">
        <ele>450.8</ele>
        <time>2018-06-16T09:14:04Z</time>
      </trkpt>
      <trkpt lat="38.2421460" lon="-3.5319110">
        <ele>451.2</ele>
        <time>2018-06-16T09:14:05Z</time>
      </trkpt>
      <trkpt lat="38.2421500" lon="-3.5318770">
        <ele>451.2</ele>
        <time>2018-06-16T09:14:06Z</time>
      </trkpt>
      <trkpt lat="38.2421550" lon="-3.5318430">
        <ele>451.2</ele>
        <time>2018-06-16T09:14:07Z</time>
      </trkpt>
      <trkpt lat="38.2421610" lon="-3.5318090">
        <ele>451.2</ele>
        <time>2018-06-16T09:14:08Z</time>
      </trkpt>
      <trkpt lat="38.2421710" lon="-3.5317580">
        <ele>451.6</ele>
        <time>2018-06-16T09:14:09Z</time>
      </trkpt>
      <trkpt lat="38.2421740" lon="-3.5317400">
        <ele>451.6</ele>
        <time>2018-06-16T09:14:10Z</time>
      </trkpt>
      <trkpt lat="38.2421790" lon="-3.5317050">
        <ele>451.8</ele>
        <time>2018-06-16T09:14:11Z</time>
      </trkpt>
      <trkpt lat="38.2421840" lon="-3.5316710">
        <ele>452.0</ele>
        <time>2018-06-16T09:14:12Z</time>
      </trkpt>
      <trkpt lat="38.2421880" lon="-3.5316360">
        <ele>452.2</ele>
        <time>2018-06-16T09:14:13Z</time>
      </trkpt>
      <trkpt lat="38.2421930" lon="-3.5316010">
        <ele>452.4</ele>
        <time>2018-06-16T09:14:14Z</time>
      </trkpt>
      <trkpt lat="38.2421970" lon="-3.5315670">
        <ele>452.4</ele>
        <time>2018-06-16T09:14:15Z</time>
      </trkpt>
      <trkpt lat="38.2422000" lon="-3.5315320">
        <ele>452.6</ele>
        <time>2018-06-16T09:14:16Z</time>
      </trkpt>
      <trkpt lat="38.2422040" lon="-3.5314970">
        <ele>452.8</ele>
        <time>2018-06-16T09:14:17Z</time>
      </trkpt>
      <trkpt lat="38.2422090" lon="-3.5314630">
        <ele>452.8</ele>
        <time>2018-06-16T09:14:18Z</time>
      </trkpt>
      <trkpt lat="38.2422140" lon="-3.5314280">
        <ele>453.0</ele>
        <time>2018-06-16T09:14:19Z</time>
      </trkpt>
      <trkpt lat="38.2422180" lon="-3.5313940">
        <ele>453.2</ele>
        <time>2018-06-16T09:14:20Z</time>
      </trkpt>
      <trkpt lat="38.2422210" lon="-3.5313590">
        <ele>453.2</ele>
        <time>2018-06-16T09:14:21Z</time>
      </trkpt>
      <trkpt lat="38.2422230" lon="-3.5313230">
        <ele>453.4</ele>
        <time>2018-06-16T09:14:22Z</time>
      </trkpt>
      <trkpt lat="38.2422250" lon="-3.5312880">
        <ele>453.6</ele>
        <time>2018-06-16T09:14:23Z</time>
      </trkpt>
      <trkpt lat="38.2422280" lon="-3.5312540">
        <ele>453.8</ele>
        <time>2018-06-16T09:14:24Z</time>
      </trkpt>
      <trkpt lat="38.2422310" lon="-3.5312200">
        <ele>453.8</ele>
        <time>2018-06-16T09:14:25Z</time>
      </trkpt>
      <trkpt lat="38.2422350" lon="-3.5311850">
        <ele>453.8</ele>
        <time>2018-06-16T09:14:26Z</time>
      </trkpt>
      <trkpt lat="38.2422390" lon="-3.5311520">
        <ele>454.0</ele>
        <time>2018-06-16T09:14:27Z</time>
      </trkpt>
      <trkpt lat="38.2422390" lon="-3.5311190">
        <ele>454.2</ele>
        <time>2018-06-16T09:14:28Z</time>
      </trkpt>
      <trkpt lat="38.2422380" lon="-3.5310860">
        <ele>454.2</ele>
        <time>2018-06-16T09:14:29Z</time>
      </trkpt>
      <trkpt lat="38.2422390" lon="-3.5310540">
        <ele>454.4</ele>
        <time>2018-06-16T09:14:30Z</time>
      </trkpt>
      <trkpt lat="38.2422400" lon="-3.5310220">
        <ele>454.4</ele>
        <time>2018-06-16T09:14:31Z</time>
      </trkpt>
      <trkpt lat="38.2422410" lon="-3.5309920">
        <ele>455.0</ele>
        <time>2018-06-16T09:14:32Z</time>
      </trkpt>
      <trkpt lat="38.2422420" lon="-3.5309610">
        <ele>454.8</ele>
        <time>2018-06-16T09:14:33Z</time>
      </trkpt>
      <trkpt lat="38.2422420" lon="-3.5309300">
        <ele>454.8</ele>
        <time>2018-06-16T09:14:34Z</time>
      </trkpt>
      <trkpt lat="38.2422420" lon="-3.5308980">
        <ele>455.0</ele>
        <time>2018-06-16T09:14:35Z</time>
      </trkpt>
      <trkpt lat="38.2422410" lon="-3.5308670">
        <ele>455.2</ele>
        <time>2018-06-16T09:14:36Z</time>
      </trkpt>
      <trkpt lat="38.2422400" lon="-3.5308360">
        <ele>455.2</ele>
        <time>2018-06-16T09:14:37Z</time>
      </trkpt>
      <trkpt lat="38.2422400" lon="-3.5308050">
        <ele>455.4</ele>
        <time>2018-06-16T09:14:38Z</time>
      </trkpt>
      <trkpt lat="38.2422390" lon="-3.5307750">
        <ele>455.6</ele>
        <time>2018-06-16T09:14:39Z</time>
      </trkpt>
      <trkpt lat="38.2422370" lon="-3.5307440">
        <ele>455.6</ele>
        <time>2018-06-16T09:14:40Z</time>
      </trkpt>
      <trkpt lat="38.2422330" lon="-3.5307140">
        <ele>455.8</ele>
        <time>2018-06-16T09:14:41Z</time>
      </trkpt>
      <trkpt lat="38.2422290" lon="-3.5306830">
        <ele>455.8</ele>
        <time>2018-06-16T09:14:42Z</time>
      </trkpt>
      <trkpt lat="38.2422260" lon="-3.5306520">
        <ele>456.0</ele>
        <time>2018-06-16T09:14:43Z</time>
      </trkpt>
      <trkpt lat="38.2422230" lon="-3.5306220">
        <ele>456.2</ele>
        <time>2018-06-16T09:14:44Z</time>
      </trkpt>
      <trkpt lat="38.2422200" lon="-3.5305910">
        <ele>456.4</ele>
        <time>2018-06-16T09:14:45Z</time>
      </trkpt>
      <trkpt lat="38.2422150" lon="-3.5305610">
        <ele>456.4</ele>
        <time>2018-06-16T09:14:46Z</time>
      </trkpt>
      <trkpt lat="38.2422120" lon="-3.5305300">
        <ele>456.6</ele>
        <time>2018-06-16T09:14:47Z</time>
      </trkpt>
      <trkpt lat="38.2422080" lon="-3.5304990">
        <ele>456.6</ele>
        <time>2018-06-16T09:14:48Z</time>
      </trkpt>
      <trkpt lat="38.2422050" lon="-3.5304680">
        <ele>456.8</ele>
        <time>2018-06-16T09:14:49Z</time>
      </trkpt>
      <trkpt lat="38.2422020" lon="-3.5304380">
        <ele>457.0</ele>
        <time>2018-06-16T09:14:50Z</time>
      </trkpt>
      <trkpt lat="38.2421990" lon="-3.5304080">
        <ele>457.2</ele>
        <time>2018-06-16T09:14:51Z</time>
      </trkpt>
      <trkpt lat="38.2421930" lon="-3.5303790">
        <ele>457.2</ele>
        <time>2018-06-16T09:14:52Z</time>
      </trkpt>
      <trkpt lat="38.2421870" lon="-3.5303490">
        <ele>457.4</ele>
        <time>2018-06-16T09:14:53Z</time>
      </trkpt>
      <trkpt lat="38.2421820" lon="-3.5303190">
        <ele>457.6</ele>
        <time>2018-06-16T09:14:54Z</time>
      </trkpt>
      <trkpt lat="38.2421770" lon="-3.5302880">
        <ele>457.6</ele>
        <time>2018-06-16T09:14:55Z</time>
      </trkpt>
      <trkpt lat="38.2421710" lon="-3.5302590">
        <ele>457.8</ele>
        <time>2018-06-16T09:14:56Z</time>
      </trkpt>
      <trkpt lat="38.2421640" lon="-3.5302300">
        <ele>458.0</ele>
        <time>2018-06-16T09:14:57Z</time>
      </trkpt>
      <trkpt lat="38.2421560" lon="-3.5302010">
        <ele>458.0</ele>
        <time>2018-06-16T09:14:58Z</time>
      </trkpt>
      <trkpt lat="38.2421460" lon="-3.5301570">
        <ele>458.2</ele>
        <time>2018-06-16T09:14:59Z</time>
      </trkpt>
      <trkpt lat="38.2421420" lon="-3.5301420">
        <ele>458.4</ele>
        <time>2018-06-16T09:15:00Z</time>
      </trkpt>
      <trkpt lat="38.2421360" lon="-3.5301130">
        <ele>458.4</ele>
        <time>2018-06-16T09:15:01Z</time>
      </trkpt>
      <trkpt lat="38.2421300" lon="-3.5300830">
        <ele>458.6</ele>
        <time>2018-06-16T09:15:02Z</time>
      </trkpt>
      <trkpt lat="38.2421230" lon="-3.5300560">
        <ele>458.8</ele>
        <time>2018-06-16T09:15:03Z</time>
      </trkpt>
      <trkpt lat="38.2421150" lon="-3.5300280">
        <ele>459.0</ele>
        <time>2018-06-16T09:15:04Z</time>
      </trkpt>
      <trkpt lat="38.2421070" lon="-3.5299990">
        <ele>459.0</ele>
        <time>2018-06-16T09:15:05Z</time>
      </trkpt>
      <trkpt lat="38.2420980" lon="-3.5299710">
        <ele>459.2</ele>
        <time>2018-06-16T09:15:06Z</time>
      </trkpt>
      <trkpt lat="38.2420890" lon="-3.5299430">
        <ele>459.2</ele>
        <time>2018-06-16T09:15:07Z</time>
      </trkpt>
      <trkpt lat="38.2420800" lon="-3.5299140">
        <ele>459.4</ele>
        <time>2018-06-16T09:15:08Z</time>
      </trkpt>
      <trkpt lat="38.2420700" lon="-3.5298860">
        <ele>459.6</ele>
        <time>2018-06-16T09:15:09Z</time>
      </trkpt>
      <trkpt lat="38.2420590" lon="-3.5298580">
        <ele>463.0</ele>
        <time>2018-06-16T09:15:10Z</time>
      </trkpt>
      <trkpt lat="38.2420500" lon="-3.5298300">
        <ele>464.2</ele>
        <time>2018-06-16T09:15:11Z</time>
      </trkpt>
      <trkpt lat="38.2420410" lon="-3.5298010">
        <ele>460.0</ele>
        <time>2018-06-16T09:15:12Z</time>
      </trkpt>
      <trkpt lat="38.2420300" lon="-3.5297740">
        <ele>464.4</ele>
        <time>2018-06-16T09:15:13Z</time>
      </trkpt>
      <trkpt lat="38.2420150" lon="-3.5297330">
        <ele>460.2</ele>
        <time>2018-06-16T09:15:14Z</time>
      </trkpt>
      <trkpt lat="38.2420090" lon="-3.5297200">
        <ele>460.2</ele>
        <time>2018-06-16T09:15:15Z</time>
      </trkpt>
      <trkpt lat="38.2419970" lon="-3.5296940">
        <ele>460.4</ele>
        <time>2018-06-16T09:15:16Z</time>
      </trkpt>
      <trkpt lat="38.2419870" lon="-3.5296670">
        <ele>460.6</ele>
        <time>2018-06-16T09:15:17Z</time>
      </trkpt>
      <trkpt lat="38.2419770" lon="-3.5296390">
        <ele>460.6</ele>
        <time>2018-06-16T09:15:18Z</time>
      </trkpt>
      <trkpt lat="38.2419650" lon="-3.5296120">
        <ele>460.8</ele>
        <time>2018-06-16T09:15:19Z</time>
      </trkpt>
      <trkpt lat="38.2419520" lon="-3.5295870">
        <ele>461.0</ele>
        <time>2018-06-16T09:15:20Z</time>
      </trkpt>
      <trkpt lat="38.2419390" lon="-3.5295610">
        <ele>461.0</ele>
        <time>2018-06-16T09:15:21Z</time>
      </trkpt>
      <trkpt lat="38.2419260" lon="-3.5295340">
        <ele>461.2</ele>
        <time>2018-06-16T09:15:22Z</time>
      </trkpt>
      <trkpt lat="38.2419140" lon="-3.5295080">
        <ele>461.2</ele>
        <time>2018-06-16T09:15:23Z</time>
      </trkpt>
      <trkpt lat="38.2419000" lon="-3.5294810">
        <ele>461.8</ele>
        <time>2018-06-16T09:15:24Z</time>
      </trkpt>
      <trkpt lat="38.2418880" lon="-3.5294540">
        <ele>461.6</ele>
        <time>2018-06-16T09:15:25Z</time>
      </trkpt>
      <trkpt lat="38.2418760" lon="-3.5294270">
        <ele>461.6</ele>
        <time>2018-06-16T09:15:26Z</time>
      </trkpt>
      <trkpt lat="38.2418560" lon="-3.5293890">
        <ele>461.8</ele>
        <time>2018-06-16T09:15:27Z</time>
      </trkpt>
      <trkpt lat="38.2418490" lon="-3.5293770">
        <ele>461.8</ele>
        <time>2018-06-16T09:15:28Z</time>
      </trkpt>
      <trkpt lat="38.2418350" lon="-3.5293520">
        <ele>462.0</ele>
        <time>2018-06-16T09:15:29Z</time>
      </trkpt>
      <trkpt lat="38.2418220" lon="-3.5293240">
        <ele>462.2</ele>
        <time>2018-06-16T09:15:30Z</time>
      </trkpt>
      <trkpt lat="38.2418070" lon="-3.5292970">
        <ele>462.2</ele>
        <time>2018-06-16T09:15:31Z</time>
      </trkpt>
      <trkpt lat="38.2417900" lon="-3.5292720">
        <ele>462.4</ele>
        <time>2018-06-16T09:15:32Z</time>
      </trkpt>
      <trkpt lat="38.2417740" lon="-3.5292480">
        <ele>462.6</ele>
        <time>2018-06-16T09:15:33Z</time>
      </trkpt>
      <trkpt lat="38.2417580" lon="-3.5292240">
        <ele>462.6</ele>
        <time>2018-06-16T09:15:34Z</time>
      </trkpt>
      <trkpt lat="38.2417430" lon="-3.5291980">
        <ele>462.8</ele>
        <time>2018-06-16T09:15:35Z</time>
      </trkpt>
      <trkpt lat="38.2417270" lon="-3.5291730">
        <ele>462.8</ele>
        <time>2018-06-16T09:15:36Z</time>
      </trkpt>
      <trkpt lat="38.2417120" lon="-3.5291490">
        <ele>463.0</ele>
        <time>2018-06-16T09:15:37Z</time>
      </trkpt>
      <trkpt lat="38.2416960" lon="-3.5291240">
        <ele>463.0</ele>
        <time>2018-06-16T09:15:38Z</time>
      </trkpt>
      <trkpt lat="38.2416790" lon="-3.5290980">
        <ele>463.2</ele>
        <time>2018-06-16T09:15:39Z</time>
      </trkpt>
      <trkpt lat="38.2416620" lon="-3.5290730">
        <ele>463.4</ele>
        <time>2018-06-16T09:15:40Z</time>
      </trkpt>
      <trkpt lat="38.2416460" lon="-3.5290510">
        <ele>463.4</ele>
        <time>2018-06-16T09:15:41Z</time>
      </trkpt>
      <trkpt lat="38.2416300" lon="-3.5290280">
        <ele>463.6</ele>
        <time>2018-06-16T09:15:42Z</time>
      </trkpt>
      <trkpt lat="38.2416120" lon="-3.5290060">
        <ele>463.8</ele>
        <time>2018-06-16T09:15:43Z</time>
      </trkpt>
      <trkpt lat="38.2415950" lon="-3.5289840">
        <ele>463.8</ele>
        <time>2018-06-16T09:15:44Z</time>
      </trkpt>
      <trkpt lat="38.2415780" lon="-3.5289610">
        <ele>464.0</ele>
        <time>2018-06-16T09:15:45Z</time>
      </trkpt>
      <trkpt lat="38.2415600" lon="-3.5289380">
        <ele>464.0</ele>
        <time>2018-06-16T09:15:46Z</time>
      </trkpt>
      <trkpt lat="38.2415430" lon="-3.5289170">
        <ele>464.4</ele>
        <time>2018-06-16T09:15:47Z</time>
      </trkpt>
      <trkpt lat="38.2415240" lon="-3.5288950">
        <ele>464.4</ele>
        <time>2018-06-16T09:15:48Z</time>
      </trkpt>
      <trkpt lat="38.2415070" lon="-3.5288740">
        <ele>464.6</ele>
        <time>2018-06-16T09:15:49Z</time>
      </trkpt>
      <trkpt lat="38.2414890" lon="-3.5288520">
        <ele>464.8</ele>
        <time>2018-06-16T09:15:50Z</time>
      </trkpt>
      <trkpt lat="38.2414700" lon="-3.5288330">
        <ele>465.0</ele>
        <time>2018-06-16T09:15:51Z</time>
      </trkpt>
      <trkpt lat="38.2414500" lon="-3.5288140">
        <ele>465.0</ele>
        <time>2018-06-16T09:15:52Z</time>
      </trkpt>
      <trkpt lat="38.2414210" lon="-3.5287830">
        <ele>465.2</ele>
        <time>2018-06-16T09:15:53Z</time>
      </trkpt>
      <trkpt lat="38.2414110" lon="-3.5287730">
        <ele>465.4</ele>
        <time>2018-06-16T09:15:54Z</time>
      </trkpt>
      <trkpt lat="38.2413920" lon="-3.5287530">
        <ele>465.4</ele>
        <time>2018-06-16T09:15:55Z</time>
      </trkpt>
      <trkpt lat="38.2413720" lon="-3.5287340">
        <ele>465.6</ele>
        <time>2018-06-16T09:15:56Z</time>
      </trkpt>
      <trkpt lat="38.2413510" lon="-3.5287160">
        <ele>465.8</ele>
        <time>2018-06-16T09:15:57Z</time>
      </trkpt>
      <trkpt lat="38.2413320" lon="-3.5286960">
        <ele>465.8</ele>
        <time>2018-06-16T09:15:58Z</time>
      </trkpt>
      <trkpt lat="38.2413120" lon="-3.5286760">
        <ele>465.8</ele>
        <time>2018-06-16T09:15:59Z</time>
      </trkpt>
      <trkpt lat="38.2412930" lon="-3.5286580">
        <ele>466.2</ele>
        <time>2018-06-16T09:16:00Z</time>
      </trkpt>
      <trkpt lat="38.2412770" lon="-3.5286500">
        <ele>466.4</ele>
        <time>2018-06-16T09:16:01Z</time>
      </trkpt>
      <trkpt lat="38.2412600" lon="-3.5286380">
        <ele>466.6</ele>
        <time>2018-06-16T09:16:02Z</time>
      </trkpt>
      <trkpt lat="38.2412400" lon="-3.5286210">
        <ele>466.6</ele>
        <time>2018-06-16T09:16:03Z</time>
      </trkpt>
      <trkpt lat="38.2412190" lon="-3.5286000">
        <ele>466.8</ele>
        <time>2018-06-16T09:16:04Z</time>
      </trkpt>
      <trkpt lat="38.2411990" lon="-3.5285820">
        <ele>467.0</ele>
        <time>2018-06-16T09:16:05Z</time>
      </trkpt>
      <trkpt lat="38.2411790" lon="-3.5285630">
        <ele>467.0</ele>
        <time>2018-06-16T09:16:06Z</time>
      </trkpt>
      <trkpt lat="38.2411490" lon="-3.5285370">
        <ele>467.2</ele>
        <time>2018-06-16T09:16:07Z</time>
      </trkpt>
      <trkpt lat="38.2411390" lon="-3.5285290">
        <ele>467.4</ele>
        <time>2018-06-16T09:16:08Z</time>
      </trkpt>
      <trkpt lat="38.2411180" lon="-3.5285110">
        <ele>467.4</ele>
        <time>2018-06-16T09:16:09Z</time>
      </trkpt>
      <trkpt lat="38.2410970" lon="-3.5284930">
        <ele>467.6</ele>
        <time>2018-06-16T09:16:10Z</time>
      </trkpt>
      <trkpt lat="38.2410780" lon="-3.5284780">
        <ele>467.6</ele>
        <time>2018-06-16T09:16:11Z</time>
      </trkpt>
      <trkpt lat="38.2410600" lon="-3.5284610">
        <ele>467.8</ele>
        <time>2018-06-16T09:16:12Z</time>
      </trkpt>
      <trkpt lat="38.2410410" lon="-3.5284440">
        <ele>467.8</ele>
        <time>2018-06-16T09:16:13Z</time>
      </trkpt>
      <trkpt lat="38.2410200" lon="-3.5284290">
        <ele>468.0</ele>
        <time>2018-06-16T09:16:14Z</time>
      </trkpt>
      <trkpt lat="38.2409990" lon="-3.5284130">
        <ele>468.2</ele>
        <time>2018-06-16T09:16:15Z</time>
      </trkpt>
      <trkpt lat="38.2409810" lon="-3.5284080">
        <ele>468.4</ele>
        <time>2018-06-16T09:16:16Z</time>
      </trkpt>
      <trkpt lat="38.2409620" lon="-3.5284000">
        <ele>468.4</ele>
        <time>2018-06-16T09:16:17Z</time>
      </trkpt>
      <trkpt lat="38.2409400" lon="-3.5283860">
        <ele>468.6</ele>
        <time>2018-06-16T09:16:18Z</time>
      </trkpt>
      <trkpt lat="38.2409200" lon="-3.5283690">
        <ele>468.6</ele>
        <time>2018-06-16T09:16:19Z</time>
      </trkpt>
      <trkpt lat="38.2409000" lon="-3.5283510">
        <ele>468.8</ele>
        <time>2018-06-16T09:16:20Z</time>
      </trkpt>
      <trkpt lat="38.2408790" lon="-3.5283310">
        <ele>469.0</ele>
        <time>2018-06-16T09:16:21Z</time>
      </trkpt>
      <trkpt lat="38.2408590" lon="-3.5283140">
        <ele>469.0</ele>
        <time>2018-06-16T09:16:22Z</time>
      </trkpt>
      <trkpt lat="38.2408390" lon="-3.5282980">
        <ele>469.2</ele>
        <time>2018-06-16T09:16:23Z</time>
      </trkpt>
      <trkpt lat="38.2408180" lon="-3.5282850">
        <ele>469.4</ele>
        <time>2018-06-16T09:16:24Z</time>
      </trkpt>
      <trkpt lat="38.2407890" lon="-3.5282620">
        <ele>469.6</ele>
        <time>2018-06-16T09:16:25Z</time>
      </trkpt>
      <trkpt lat="38.2407790" lon="-3.5282540">
        <ele>469.6</ele>
        <time>2018-06-16T09:16:26Z</time>
      </trkpt>
      <trkpt lat="38.2407580" lon="-3.5282400">
        <ele>469.8</ele>
        <time>2018-06-16T09:16:27Z</time>
      </trkpt>
      <trkpt lat="38.2407390" lon="-3.5282360">
        <ele>470.0</ele>
        <time>2018-06-16T09:16:28Z</time>
      </trkpt>
      <trkpt lat="38.2407200" lon="-3.5282280">
        <ele>470.2</ele>
        <time>2018-06-16T09:16:29Z</time>
      </trkpt>
      <trkpt lat="38.2407010" lon="-3.5282160">
        <ele>470.4</ele>
        <time>2018-06-16T09:16:30Z</time>
      </trkpt>
      <trkpt lat="38.2406840" lon="-3.5282070">
        <ele>470.4</ele>
        <time>2018-06-16T09:16:31Z</time>
      </trkpt>
      <trkpt lat="38.2406640" lon="-3.5281910">
        <ele>470.6</ele>
        <time>2018-06-16T09:16:32Z</time>
      </trkpt>
      <trkpt lat="38.2406440" lon="-3.5281770">
        <ele>470.6</ele>
        <time>2018-06-16T09:16:33Z</time>
      </trkpt>
      <trkpt lat="38.2406230" lon="-3.5281720">
        <ele>470.6</ele>
        <time>2018-06-16T09:16:34Z</time>
      </trkpt>
      <trkpt lat="38.2406030" lon="-3.5281580">
        <ele>470.8</ele>
        <time>2018-06-16T09:16:35Z</time>
      </trkpt>
      <trkpt lat="38.2405830" lon="-3.5281400">
        <ele>471.0</ele>
        <time>2018-06-16T09:16:36Z</time>
      </trkpt>
      <trkpt lat="38.2405620" lon="-3.5281210">
        <ele>471.0</ele>
        <time>2018-06-16T09:16:37Z</time>
      </trkpt>
      <trkpt lat="38.2405420" lon="-3.5281030">
        <ele>471.0</ele>
        <time>2018-06-16T09:16:38Z</time>
      </trkpt>
      <trkpt lat="38.2405230" lon="-3.5280800">
        <ele>471.2</ele>
        <time>2018-06-16T09:16:39Z</time>
      </trkpt>
      <trkpt lat="38.2405030" lon="-3.5280600">
        <ele>471.4</ele>
        <time>2018-06-16T09:16:40Z</time>
      </trkpt>
      <trkpt lat="38.2404820" lon="-3.5280390">
        <ele>471.4</ele>
        <time>2018-06-16T09:16:41Z</time>
      </trkpt>
      <trkpt lat="38.2404620" lon="-3.5280200">
        <ele>471.6</ele>
        <time>2018-06-16T09:16:42Z</time>
      </trkpt>
      <trkpt lat="38.2404410" lon="-3.5280020">
        <ele>471.8</ele>
        <time>2018-06-16T09:16:43Z</time>
      </trkpt>
      <trkpt lat="38.2404200" lon="-3.5279810">
        <ele>471.8</ele>
        <time>2018-06-16T09:16:44Z</time>
      </trkpt>
      <trkpt lat="38.2403990" lon="-3.5279630">
        <ele>472.0</ele>
        <time>2018-06-16T09:16:45Z</time>
      </trkpt>
      <trkpt lat="38.2403670" lon="-3.5279370">
        <ele>472.0</ele>
        <time>2018-06-16T09:16:46Z</time>
      </trkpt>
      <trkpt lat="38.2403560" lon="-3.5279280">
        <ele>472.4</ele>
        <time>2018-06-16T09:16:47Z</time>
      </trkpt>
      <trkpt lat="38.2403360" lon="-3.5279090">
        <ele>472.6</ele>
        <time>2018-06-16T09:16:48Z</time>
      </trkpt>
      <trkpt lat="38.2403050" lon="-3.5278790">
        <ele>472.6</ele>
        <time>2018-06-16T09:16:49Z</time>
      </trkpt>
      <trkpt lat="38.2402950" lon="-3.5278700">
        <ele>472.6</ele>
        <time>2018-06-16T09:16:50Z</time>
      </trkpt>
      <trkpt lat="38.2402760" lon="-3.5278490">
        <ele>472.8</ele>
        <time>2018-06-16T09:16:51Z</time>
      </trkpt>
      <trkpt lat="38.2402560" lon="-3.5278290">
        <ele>472.8</ele>
        <time>2018-06-16T09:16:52Z</time>
      </trkpt>
      <trkpt lat="38.2402380" lon="-3.5278070">
        <ele>473.2</ele>
        <time>2018-06-16T09:16:53Z</time>
      </trkpt>
      <trkpt lat="38.2402190" lon="-3.5277850">
        <ele>473.2</ele>
        <time>2018-06-16T09:16:54Z</time>
      </trkpt>
      <trkpt lat="38.2402020" lon="-3.5277640">
        <ele>473.4</ele>
        <time>2018-06-16T09:16:55Z</time>
      </trkpt>
      <trkpt lat="38.2401840" lon="-3.5277420">
        <ele>473.4</ele>
        <time>2018-06-16T09:16:56Z</time>
      </trkpt>
      <trkpt lat="38.2401660" lon="-3.5277200">
        <ele>473.8</ele>
        <time>2018-06-16T09:16:57Z</time>
      </trkpt>
      <trkpt lat="38.2401470" lon="-3.5276980">
        <ele>473.8</ele>
        <time>2018-06-16T09:16:58Z</time>
      </trkpt>
      <trkpt lat="38.2401280" lon="-3.5276780">
        <ele>474.0</ele>
        <time>2018-06-16T09:16:59Z</time>
      </trkpt>
      <trkpt lat="38.2401090" lon="-3.5276550">
        <ele>474.0</ele>
        <time>2018-06-16T09:17:00Z</time>
      </trkpt>
      <trkpt lat="38.2400910" lon="-3.5276340">
        <ele>474.2</ele>
        <time>2018-06-16T09:17:01Z</time>
      </trkpt>
      <trkpt lat="38.2400740" lon="-3.5276110">
        <ele>474.4</ele>
        <time>2018-06-16T09:17:02Z</time>
      </trkpt>
      <trkpt lat="38.2400570" lon="-3.5275870">
        <ele>474.4</ele>
        <time>2018-06-16T09:17:03Z</time>
      </trkpt>
      <trkpt lat="38.2400390" lon="-3.5275630">
        <ele>474.6</ele>
        <time>2018-06-16T09:17:04Z</time>
      </trkpt>
      <trkpt lat="38.2400210" lon="-3.5275390">
        <ele>474.6</ele>
        <time>2018-06-16T09:17:05Z</time>
      </trkpt>
      <trkpt lat="38.2400030" lon="-3.5275160">
        <ele>474.8</ele>
        <time>2018-06-16T09:17:06Z</time>
      </trkpt>
      <trkpt lat="38.2399860" lon="-3.5274940">
        <ele>475.0</ele>
        <time>2018-06-16T09:17:07Z</time>
      </trkpt>
      <trkpt lat="38.2399700" lon="-3.5274710">
        <ele>475.0</ele>
        <time>2018-06-16T09:17:08Z</time>
      </trkpt>
      <trkpt lat="38.2399540" lon="-3.5274490">
        <ele>475.2</ele>
        <time>2018-06-16T09:17:09Z</time>
      </trkpt>
      <trkpt lat="38.2399360" lon="-3.5274290">
        <ele>475.2</ele>
        <time>2018-06-16T09:17:10Z</time>
      </trkpt>
      <trkpt lat="38.2399170" lon="-3.5274070">
        <ele>475.4</ele>
        <time>2018-06-16T09:17:11Z</time>
      </trkpt>
      <trkpt lat="38.2398990" lon="-3.5273850">
        <ele>475.6</ele>
        <time>2018-06-16T09:17:12Z</time>
      </trkpt>
      <trkpt lat="38.2398750" lon="-3.5273500">
        <ele>475.6</ele>
        <time>2018-06-16T09:17:13Z</time>
      </trkpt>
      <trkpt lat="38.2398670" lon="-3.5273390">
        <ele>475.6</ele>
        <time>2018-06-16T09:17:14Z</time>
      </trkpt>
      <trkpt lat="38.2398510" lon="-3.5273170">
        <ele>476.0</ele>
        <time>2018-06-16T09:17:15Z</time>
      </trkpt>
      <trkpt lat="38.2398350" lon="-3.5272950">
        <ele>476.2</ele>
        <time>2018-06-16T09:17:16Z</time>
      </trkpt>
      <trkpt lat="38.2398190" lon="-3.5272720">
        <ele>476.4</ele>
        <time>2018-06-16T09:17:17Z</time>
      </trkpt>
      <trkpt lat="38.2398030" lon="-3.5272490">
        <ele>476.6</ele>
        <time>2018-06-16T09:17:18Z</time>
      </trkpt>
      <trkpt lat="38.2397860" lon="-3.5272260">
        <ele>476.6</ele>
        <time>2018-06-16T09:17:19Z</time>
      </trkpt>
      <trkpt lat="38.2397650" lon="-3.5271920">
        <ele>476.6</ele>
        <time>2018-06-16T09:17:20Z</time>
      </trkpt>
      <trkpt lat="38.2397570" lon="-3.5271800">
        <ele>476.8</ele>
        <time>2018-06-16T09:17:21Z</time>
      </trkpt>
      <trkpt lat="38.2397420" lon="-3.5271550">
        <ele>476.8</ele>
        <time>2018-06-16T09:17:22Z</time>
      </trkpt>
      <trkpt lat="38.2397260" lon="-3.5271280">
        <ele>477.0</ele>
        <time>2018-06-16T09:17:23Z</time>
      </trkpt>
      <trkpt lat="38.2397100" lon="-3.5271050">
        <ele>477.2</ele>
        <time>2018-06-16T09:17:24Z</time>
      </trkpt>
      <trkpt lat="38.2396930" lon="-3.5270840">
        <ele>477.2</ele>
        <time>2018-06-16T09:17:25Z</time>
      </trkpt>
      <trkpt lat="38.2396750" lon="-3.5270620">
        <ele>477.4</ele>
        <time>2018-06-16T09:17:26Z</time>
      </trkpt>
      <trkpt lat="38.2396480" lon="-3.5270330">
        <ele>477.6</ele>
        <time>2018-06-16T09:17:27Z</time>
      </trkpt>
      <trkpt lat="38.2396380" lon="-3.5270250">
        <ele>477.6</ele>
        <time>2018-06-16T09:17:28Z</time>
      </trkpt>
      <trkpt lat="38.2396170" lon="-3.5270110">
        <ele>478.0</ele>
        <time>2018-06-16T09:17:29Z</time>
      </trkpt>
      <trkpt lat="38.2395950" lon="-3.5270000">
        <ele>478.2</ele>
        <time>2018-06-16T09:17:30Z</time>
      </trkpt>
      <trkpt lat="38.2395730" lon="-3.5269890">
        <ele>478.4</ele>
        <time>2018-06-16T09:17:31Z</time>
      </trkpt>
      <trkpt lat="38.2395500" lon="-3.5269770">
        <ele>478.6</ele>
        <time>2018-06-16T09:17:32Z</time>
      </trkpt>
      <trkpt lat="38.2395270" lon="-3.5269660">
        <ele>478.8</ele>
        <time>2018-06-16T09:17:33Z</time>
      </trkpt>
      <trkpt lat="38.2395050" lon="-3.5269570">
        <ele>479.2</ele>
        <time>2018-06-16T09:17:34Z</time>
      </trkpt>
      <trkpt lat="38.2394820" lon="-3.5269490">
        <ele>479.4</ele>
        <time>2018-06-16T09:17:35Z</time>
      </trkpt>
      <trkpt lat="38.2394590" lon="-3.5269430">
        <ele>479.6</ele>
        <time>2018-06-16T09:17:36Z</time>
      </trkpt>
      <trkpt lat="38.2394360" lon="-3.5269390">
        <ele>479.6</ele>
        <time>2018-06-16T09:17:37Z</time>
      </trkpt>
      <trkpt lat="38.2394130" lon="-3.5269360">
        <ele>479.8</ele>
        <time>2018-06-16T09:17:38Z</time>
      </trkpt>
      <trkpt lat="38.2393900" lon="-3.5269340">
        <ele>480.0</ele>
        <time>2018-06-16T09:17:39Z</time>
      </trkpt>
      <trkpt lat="38.2393660" lon="-3.5269290">
        <ele>480.2</ele>
        <time>2018-06-16T09:17:40Z</time>
      </trkpt>
      <trkpt lat="38.2393420" lon="-3.5269220">
        <ele>480.4</ele>
        <time>2018-06-16T09:17:41Z</time>
      </trkpt>
      <trkpt lat="38.2393190" lon="-3.5269170">
        <ele>480.6</ele>
        <time>2018-06-16T09:17:42Z</time>
      </trkpt>
      <trkpt lat="38.2392950" lon="-3.5269130">
        <ele>480.6</ele>
        <time>2018-06-16T09:17:43Z</time>
      </trkpt>
      <trkpt lat="38.2392720" lon="-3.5269100">
        <ele>480.6</ele>
        <time>2018-06-16T09:17:44Z</time>
      </trkpt>
      <trkpt lat="38.2392490" lon="-3.5269060">
        <ele>480.8</ele>
        <time>2018-06-16T09:17:45Z</time>
      </trkpt>
      <trkpt lat="38.2392250" lon="-3.5269010">
        <ele>481.0</ele>
        <time>2018-06-16T09:17:46Z</time>
      </trkpt>
      <trkpt lat="38.2392010" lon="-3.5268970">
        <ele>481.2</ele>
        <time>2018-06-16T09:17:47Z</time>
      </trkpt>
      <trkpt lat="38.2391780" lon="-3.5268920">
        <ele>481.2</ele>
        <time>2018-06-16T09:17:48Z</time>
      </trkpt>
      <trkpt lat="38.2391540" lon="-3.5268860">
        <ele>481.2</ele>
        <time>2018-06-16T09:17:49Z</time>
      </trkpt>
      <trkpt lat="38.2391300" lon="-3.5268810">
        <ele>481.6</ele>
        <time>2018-06-16T09:17:50Z</time>
      </trkpt>
      <trkpt lat="38.2391080" lon="-3.5268780">
        <ele>481.8</ele>
        <time>2018-06-16T09:17:51Z</time>
      </trkpt>
      <trkpt lat="38.2390850" lon="-3.5268740">
        <ele>482.0</ele>
        <time>2018-06-16T09:17:52Z</time>
      </trkpt>
      <trkpt lat="38.2390620" lon="-3.5268700">
        <ele>482.0</ele>
        <time>2018-06-16T09:17:53Z</time>
      </trkpt>
      <trkpt lat="38.2390390" lon="-3.5268630">
        <ele>482.2</ele>
        <time>2018-06-16T09:17:54Z</time>
      </trkpt>
      <trkpt lat="38.2390160" lon="-3.5268560">
        <ele>482.4</ele>
        <time>2018-06-16T09:17:55Z</time>
      </trkpt>
      <trkpt lat="38.2389920" lon="-3.5268480">
        <ele>482.6</ele>
        <time>2018-06-16T09:17:56Z</time>
      </trkpt>
      <trkpt lat="38.2389680" lon="-3.5268420">
        <ele>482.8</ele>
        <time>2018-06-16T09:17:57Z</time>
      </trkpt>
      <trkpt lat="38.2389450" lon="-3.5268350">
        <ele>483.2</ele>
        <time>2018-06-16T09:17:58Z</time>
      </trkpt>
      <trkpt lat="38.2389220" lon="-3.5268280">
        <ele>483.2</ele>
        <time>2018-06-16T09:17:59Z</time>
      </trkpt>
      <trkpt lat="38.2388990" lon="-3.5268220">
        <ele>483.4</ele>
        <time>2018-06-16T09:18:00Z</time>
      </trkpt>
      <trkpt lat="38.2388760" lon="-3.5268200">
        <ele>483.6</ele>
        <time>2018-06-16T09:18:01Z</time>
      </trkpt>
      <trkpt lat="38.2388540" lon="-3.5268180">
        <ele>483.6</ele>
        <time>2018-06-16T09:18:02Z</time>
      </trkpt>
      <trkpt lat="38.2388300" lon="-3.5268140">
        <ele>483.8</ele>
        <time>2018-06-16T09:18:03Z</time>
      </trkpt>
      <trkpt lat="38.2388060" lon="-3.5268090">
        <ele>484.0</ele>
        <time>2018-06-16T09:18:04Z</time>
      </trkpt>
      <trkpt lat="38.2387830" lon="-3.5268060">
        <ele>484.0</ele>
        <time>2018-06-16T09:18:05Z</time>
      </trkpt>
      <trkpt lat="38.2387600" lon="-3.5268020">
        <ele>484.2</ele>
        <time>2018-06-16T09:18:06Z</time>
      </trkpt>
      <trkpt lat="38.2387370" lon="-3.5267990">
        <ele>484.4</ele>
        <time>2018-06-16T09:18:07Z</time>
      </trkpt>
      <trkpt lat="38.2387160" lon="-3.5267990">
        <ele>484.6</ele>
        <time>2018-06-16T09:18:08Z</time>
      </trkpt>
      <trkpt lat="38.2386930" lon="-3.5267950">
        <ele>484.6</ele>
        <time>2018-06-16T09:18:09Z</time>
      </trkpt>
      <trkpt lat="38.2386690" lon="-3.5267880">
        <ele>484.8</ele>
        <time>2018-06-16T09:18:10Z</time>
      </trkpt>
      <trkpt lat="38.2386470" lon="-3.5267810">
        <ele>485.0</ele>
        <time>2018-06-16T09:18:11Z</time>
      </trkpt>
      <trkpt lat="38.2386230" lon="-3.5267750">
        <ele>485.2</ele>
        <time>2018-06-16T09:18:12Z</time>
      </trkpt>
      <trkpt lat="38.2386000" lon="-3.5267710">
        <ele>485.4</ele>
        <time>2018-06-16T09:18:13Z</time>
      </trkpt>
      <trkpt lat="38.2385760" lon="-3.5267660">
        <ele>485.4</ele>
        <time>2018-06-16T09:18:14Z</time>
      </trkpt>
      <trkpt lat="38.2385530" lon="-3.5267630">
        <ele>485.8</ele>
        <time>2018-06-16T09:18:15Z</time>
      </trkpt>
      <trkpt lat="38.2385320" lon="-3.5267640">
        <ele>485.8</ele>
        <time>2018-06-16T09:18:16Z</time>
      </trkpt>
      <trkpt lat="38.2385120" lon="-3.5267630">
        <ele>486.0</ele>
        <time>2018-06-16T09:18:17Z</time>
      </trkpt>
      <trkpt lat="38.2384900" lon="-3.5267580">
        <ele>486.2</ele>
        <time>2018-06-16T09:18:18Z</time>
      </trkpt>
      <trkpt lat="38.2384660" lon="-3.5267480">
        <ele>486.4</ele>
        <time>2018-06-16T09:18:19Z</time>
      </trkpt>
      <trkpt lat="38.2384420" lon="-3.5267420">
        <ele>486.6</ele>
        <time>2018-06-16T09:18:20Z</time>
      </trkpt>
      <trkpt lat="38.2384070" lon="-3.5267340">
        <ele>486.6</ele>
        <time>2018-06-16T09:18:21Z</time>
      </trkpt>
      <trkpt lat="38.2383950" lon="-3.5267320">
        <ele>486.8</ele>
        <time>2018-06-16T09:18:22Z</time>
      </trkpt>
      <trkpt lat="38.2383720" lon="-3.5267230">
        <ele>487.0</ele>
        <time>2018-06-16T09:18:23Z</time>
      </trkpt>
      <trkpt lat="38.2383480" lon="-3.5267160">
        <ele>487.2</ele>
        <time>2018-06-16T09:18:24Z</time>
      </trkpt>
      <trkpt lat="38.2383230" lon="-3.5267080">
        <ele>487.4</ele>
        <time>2018-06-16T09:18:25Z</time>
      </trkpt>
      <trkpt lat="38.2383000" lon="-3.5267010">
        <ele>487.4</ele>
        <time>2018-06-16T09:18:26Z</time>
      </trkpt>
      <trkpt lat="38.2382790" lon="-3.5266930">
        <ele>487.6</ele>
        <time>2018-06-16T09:18:27Z</time>
      </trkpt>
      <trkpt lat="38.2382570" lon="-3.5266800">
        <ele>487.6</ele>
        <time>2018-06-16T09:18:28Z</time>
      </trkpt>
      <trkpt lat="38.2382370" lon="-3.5266690">
        <ele>487.8</ele>
        <time>2018-06-16T09:18:29Z</time>
      </trkpt>
      <trkpt lat="38.2382180" lon="-3.5266590">
        <ele>487.8</ele>
        <time>2018-06-16T09:18:30Z</time>
      </trkpt>
      <trkpt lat="38.2381980" lon="-3.5266500">
        <ele>487.8</ele>
        <time>2018-06-16T09:18:31Z</time>
      </trkpt>
      <trkpt lat="38.2381790" lon="-3.5266370">
        <ele>488.0</ele>
        <time>2018-06-16T09:18:32Z</time>
      </trkpt>
      <trkpt lat="38.2381620" lon="-3.5266210">
        <ele>488.2</ele>
        <time>2018-06-16T09:18:33Z</time>
      </trkpt>
      <trkpt lat="38.2381370" lon="-3.5265960">
        <ele>488.4</ele>
        <time>2018-06-16T09:18:34Z</time>
      </trkpt>
      <trkpt lat="38.2381280" lon="-3.5265870">
        <ele>488.4</ele>
        <time>2018-06-16T09:18:35Z</time>
      </trkpt>
      <trkpt lat="38.2381120" lon="-3.5265650">
        <ele>488.6</ele>
        <time>2018-06-16T09:18:36Z</time>
      </trkpt>
      <trkpt lat="38.2380970" lon="-3.5265450">
        <ele>488.8</ele>
        <time>2018-06-16T09:18:37Z</time>
      </trkpt>
      <trkpt lat="38.2380800" lon="-3.5265240">
        <ele>488.8</ele>
        <time>2018-06-16T09:18:38Z</time>
      </trkpt>
      <trkpt lat="38.2380640" lon="-3.5265010">
        <ele>489.0</ele>
        <time>2018-06-16T09:18:39Z</time>
      </trkpt>
      <trkpt lat="38.2380480" lon="-3.5264790">
        <ele>488.8</ele>
        <time>2018-06-16T09:18:40Z</time>
      </trkpt>
      <trkpt lat="38.2380230" lon="-3.5264360">
        <ele>489.0</ele>
        <time>2018-06-16T09:18:41Z</time>
      </trkpt>
      <trkpt lat="38.2380150" lon="-3.5264250">
        <ele>489.2</ele>
        <time>2018-06-16T09:18:42Z</time>
      </trkpt>
      <trkpt lat="38.2380000" lon="-3.5264050">
        <ele>489.4</ele>
        <time>2018-06-16T09:18:43Z</time>
      </trkpt>
      <trkpt lat="38.2379850" lon="-3.5263830">
        <ele>489.4</ele>
        <time>2018-06-16T09:18:44Z</time>
      </trkpt>
      <trkpt lat="38.2379710" lon="-3.5263600">
        <ele>489.6</ele>
        <time>2018-06-16T09:18:45Z</time>
      </trkpt>
      <trkpt lat="38.2379560" lon="-3.5263360">
        <ele>489.6</ele>
        <time>2018-06-16T09:18:46Z</time>
      </trkpt>
      <trkpt lat="38.2379410" lon="-3.5263160">
        <ele>489.6</ele>
        <time>2018-06-16T09:18:47Z</time>
      </trkpt>
      <trkpt lat="38.2379280" lon="-3.5262970">
        <ele>489.8</ele>
        <time>2018-06-16T09:18:48Z</time>
      </trkpt>
      <trkpt lat="38.2379150" lon="-3.5262760">
        <ele>490.0</ele>
        <time>2018-06-16T09:18:49Z</time>
      </trkpt>
      <trkpt lat="38.2378990" lon="-3.5262480">
        <ele>490.0</ele>
        <time>2018-06-16T09:18:50Z</time>
      </trkpt>
      <trkpt lat="38.2378830" lon="-3.5262260">
        <ele>490.2</ele>
        <time>2018-06-16T09:18:51Z</time>
      </trkpt>
      <trkpt lat="38.2378650" lon="-3.5262010">
        <ele>490.2</ele>
        <time>2018-06-16T09:18:52Z</time>
      </trkpt>
      <trkpt lat="38.2378510" lon="-3.5261760">
        <ele>490.4</ele>
        <time>2018-06-16T09:18:53Z</time>
      </trkpt>
      <trkpt lat="38.2378390" lon="-3.5261550">
        <ele>490.6</ele>
        <time>2018-06-16T09:18:54Z</time>
      </trkpt>
      <trkpt lat="38.2378230" lon="-3.5261370">
        <ele>490.8</ele>
        <time>2018-06-16T09:18:55Z</time>
      </trkpt>
      <trkpt lat="38.2378040" lon="-3.5261150">
        <ele>491.0</ele>
        <time>2018-06-16T09:18:56Z</time>
      </trkpt>
      <trkpt lat="38.2377830" lon="-3.5260970">
        <ele>491.0</ele>
        <time>2018-06-16T09:18:57Z</time>
      </trkpt>
      <trkpt lat="38.2377610" lon="-3.5260820">
        <ele>491.0</ele>
        <time>2018-06-16T09:18:58Z</time>
      </trkpt>
      <trkpt lat="38.2377360" lon="-3.5260680">
        <ele>491.2</ele>
        <time>2018-06-16T09:18:59Z</time>
      </trkpt>
      <trkpt lat="38.2377110" lon="-3.5260530">
        <ele>491.4</ele>
        <time>2018-06-16T09:19:00Z</time>
      </trkpt>
      <trkpt lat="38.2376850" lon="-3.5260390">
        <ele>491.6</ele>
        <time>2018-06-16T09:19:01Z</time>
      </trkpt>
      <trkpt lat="38.2376570" lon="-3.5260200">
        <ele>491.8</ele>
        <time>2018-06-16T09:19:02Z</time>
      </trkpt>
      <trkpt lat="38.2376180" lon="-3.5260000">
        <ele>491.8</ele>
        <time>2018-06-16T09:19:03Z</time>
      </trkpt>
      <trkpt lat="38.2376030" lon="-3.5259950">
        <ele>492.0</ele>
        <time>2018-06-16T09:19:04Z</time>
      </trkpt>
      <trkpt lat="38.2375750" lon="-3.5259830">
        <ele>492.0</ele>
        <time>2018-06-16T09:19:05Z</time>
      </trkpt>
      <trkpt lat="38.2375470" lon="-3.5259680">
        <ele>492.2</ele>
        <time>2018-06-16T09:19:06Z</time>
      </trkpt>
      <trkpt lat="38.2375200" lon="-3.5259570">
        <ele>492.4</ele>
        <time>2018-06-16T09:19:07Z</time>
      </trkpt>
      <trkpt lat="38.2374900" lon="-3.5259440">
        <ele>492.6</ele>
        <time>2018-06-16T09:19:08Z</time>
      </trkpt>
      <trkpt lat="38.2374580" lon="-3.5259310">
        <ele>492.6</ele>
        <time>2018-06-16T09:19:09Z</time>
      </trkpt>
      <trkpt lat="38.2374260" lon="-3.5259210">
        <ele>492.8</ele>
        <time>2018-06-16T09:19:10Z</time>
      </trkpt>
      <trkpt lat="38.2373940" lon="-3.5259120">
        <ele>493.0</ele>
        <time>2018-06-16T09:19:11Z</time>
      </trkpt>
      <trkpt lat="38.2373610" lon="-3.5259080">
        <ele>493.2</ele>
        <time>2018-06-16T09:19:12Z</time>
      </trkpt>
      <trkpt lat="38.2373310" lon="-3.5259110">
        <ele>493.2</ele>
        <time>2018-06-16T09:19:13Z</time>
      </trkpt>
      <trkpt lat="38.2373010" lon="-3.5259130">
        <ele>493.4</ele>
        <time>2018-06-16T09:19:14Z</time>
      </trkpt>
      <trkpt lat="38.2372670" lon="-3.5259050">
        <ele>493.6</ele>
        <time>2018-06-16T09:19:15Z</time>
      </trkpt>
      <trkpt lat="38.2372330" lon="-3.5259010">
        <ele>493.8</ele>
        <time>2018-06-16T09:19:16Z</time>
      </trkpt>
      <trkpt lat="38.2371970" lon="-3.5258950">
        <ele>493.8</ele>
        <time>2018-06-16T09:19:17Z</time>
      </trkpt>
      <trkpt lat="38.2371620" lon="-3.5258970">
        <ele>493.8</ele>
        <time>2018-06-16T09:19:18Z</time>
      </trkpt>
      <trkpt lat="38.2371310" lon="-3.5259110">
        <ele>493.6</ele>
        <time>2018-06-16T09:19:19Z</time>
      </trkpt>
      <trkpt lat="38.2370990" lon="-3.5259310">
        <ele>493.6</ele>
        <time>2018-06-16T09:19:20Z</time>
      </trkpt>
      <trkpt lat="38.2370690" lon="-3.5259560">
        <ele>493.6</ele>
        <time>2018-06-16T09:19:21Z</time>
      </trkpt>
      <trkpt lat="38.2370410" lon="-3.5259840">
        <ele>493.4</ele>
        <time>2018-06-16T09:19:22Z</time>
      </trkpt>
      <trkpt lat="38.2370140" lon="-3.5260150">
        <ele>493.4</ele>
        <time>2018-06-16T09:19:23Z</time>
      </trkpt>
      <trkpt lat="38.2369900" lon="-3.5260540">
        <ele>493.4</ele>
        <time>2018-06-16T09:19:24Z</time>
      </trkpt>
      <trkpt lat="38.2369670" lon="-3.5260890">
        <ele>493.0</ele>
        <time>2018-06-16T09:19:25Z</time>
      </trkpt>
      <trkpt lat="38.2369460" lon="-3.5261290">
        <ele>492.8</ele>
        <time>2018-06-16T09:19:26Z</time>
      </trkpt>
      <trkpt lat="38.2369220" lon="-3.5261740">
        <ele>492.6</ele>
        <time>2018-06-16T09:19:27Z</time>
      </trkpt>
      <trkpt lat="38.2368980" lon="-3.5262260">
        <ele>492.4</ele>
        <time>2018-06-16T09:19:28Z</time>
      </trkpt>
      <trkpt lat="38.2368780" lon="-3.5262780">
        <ele>492.2</ele>
        <time>2018-06-16T09:19:29Z</time>
      </trkpt>
      <trkpt lat="38.2368540" lon="-3.5263340">
        <ele>492.0</ele>
        <time>2018-06-16T09:19:30Z</time>
      </trkpt>
      <trkpt lat="38.2368270" lon="-3.5263920">
        <ele>491.8</ele>
        <time>2018-06-16T09:19:31Z</time>
      </trkpt>
      <trkpt lat="38.2367970" lon="-3.5264530">
        <ele>491.6</ele>
        <time>2018-06-16T09:19:32Z</time>
      </trkpt>
      <trkpt lat="38.2367660" lon="-3.5265180">
        <ele>491.0</ele>
        <time>2018-06-16T09:19:33Z</time>
      </trkpt>
      <trkpt lat="38.2367340" lon="-3.5265840">
        <ele>491.0</ele>
        <time>2018-06-16T09:19:34Z</time>
      </trkpt>
      <trkpt lat="38.2366980" lon="-3.5266490">
        <ele>490.8</ele>
        <time>2018-06-16T09:19:35Z</time>
      </trkpt>
      <trkpt lat="38.2366270" lon="-3.5267360">
        <ele>490.8</ele>
        <time>2018-06-16T09:19:36Z</time>
      </trkpt>
      <trkpt lat="38.2365980" lon="-3.5267590">
        <ele>490.4</ele>
        <time>2018-06-16T09:19:37Z</time>
      </trkpt>
      <trkpt lat="38.2365400" lon="-3.5268050">
        <ele>489.8</ele>
        <time>2018-06-16T09:19:38Z</time>
      </trkpt>
      <trkpt lat="38.2364710" lon="-3.5268260">
        <ele>489.6</ele>
        <time>2018-06-16T09:19:39Z</time>
      </trkpt>
      <trkpt lat="38.2363990" lon="-3.5268220">
        <ele>489.4</ele>
        <time>2018-06-16T09:19:40Z</time>
      </trkpt>
      <trkpt lat="38.2363280" lon="-3.5267990">
        <ele>488.8</ele>
        <time>2018-06-16T09:19:41Z</time>
      </trkpt>
      <trkpt lat="38.2362620" lon="-3.5267530">
        <ele>488.4</ele>
        <time>2018-06-16T09:19:42Z</time>
      </trkpt>
      <trkpt lat="38.2362020" lon="-3.5266950">
        <ele>488.4</ele>
        <time>2018-06-16T09:19:43Z</time>
      </trkpt>
      <trkpt lat="38.2361470" lon="-3.5266260">
        <ele>488.2</ele>
        <time>2018-06-16T09:19:44Z</time>
      </trkpt>
      <trkpt lat="38.2360950" lon="-3.5265550">
        <ele>487.8</ele>
        <time>2018-06-16T09:19:45Z</time>
      </trkpt>
      <trkpt lat="38.2360430" lon="-3.5264790">
        <ele>487.4</ele>
        <time>2018-06-16T09:19:46Z</time>
      </trkpt>
      <trkpt lat="38.2359890" lon="-3.5264050">
        <ele>487.4</ele>
        <time>2018-06-16T09:19:47Z</time>
      </trkpt>
      <trkpt lat="38.2359320" lon="-3.5263320">
        <ele>487.0</ele>
        <time>2018-06-16T09:19:48Z</time>
      </trkpt>
      <trkpt lat="38.2358730" lon="-3.5262610">
        <ele>486.6</ele>
        <time>2018-06-16T09:19:49Z</time>
      </trkpt>
      <trkpt lat="38.2358100" lon="-3.5261950">
        <ele>486.4</ele>
        <time>2018-06-16T09:19:50Z</time>
      </trkpt>
      <trkpt lat="38.2357440" lon="-3.5261310">
        <ele>486.0</ele>
        <time>2018-06-16T09:19:51Z</time>
      </trkpt>
      <trkpt lat="38.2356740" lon="-3.5260750">
        <ele>485.2</ele>
        <time>2018-06-16T09:19:52Z</time>
      </trkpt>
      <trkpt lat="38.2356010" lon="-3.5260260">
        <ele>485.4</ele>
        <time>2018-06-16T09:19:53Z</time>
      </trkpt>
      <trkpt lat="38.2355260" lon="-3.5259770">
        <ele>485.0</ele>
        <time>2018-06-16T09:19:54Z</time>
      </trkpt>
      <trkpt lat="38.2354500" lon="-3.5259270">
        <ele>484.6</ele>
        <time>2018-06-16T09:19:55Z</time>
      </trkpt>
      <trkpt lat="38.2353750" lon="-3.5258760">
        <ele>485.0</ele>
        <time>2018-06-16T09:19:56Z</time>
      </trkpt>
      <trkpt lat="38.2352980" lon="-3.5258250">
        <ele>484.6</ele>
        <time>2018-06-16T09:19:57Z</time>
      </trkpt>
      <trkpt lat="38.2352180" lon="-3.5257790">
        <ele>484.0</ele>
        <time>2018-06-16T09:19:58Z</time>
      </trkpt>
      <trkpt lat="38.2351350" lon="-3.5257370">
        <ele>483.6</ele>
        <time>2018-06-16T09:19:59Z</time>
      </trkpt>
      <trkpt lat="38.2350520" lon="-3.5256950">
        <ele>483.0</ele>
        <time>2018-06-16T09:20:00Z</time>
      </trkpt>
      <trkpt lat="38.2349660" lon="-3.5256610">
        <ele>482.4</ele>
        <time>2018-06-16T09:20:01Z</time>
      </trkpt>
      <trkpt lat="38.2348780" lon="-3.5256320">
        <ele>482.4</ele>
        <time>2018-06-16T09:20:02Z</time>
      </trkpt>
      <trkpt lat="38.2347880" lon="-3.5256060">
        <ele>482.0</ele>
        <time>2018-06-16T09:20:03Z</time>
      </trkpt>
      <trkpt lat="38.2346960" lon="-3.5255810">
        <ele>481.6</ele>
        <time>2018-06-16T09:20:04Z</time>
      </trkpt>
      <trkpt lat="38.2346030" lon="-3.5255640">
        <ele>480.8</ele>
        <time>2018-06-16T09:20:05Z</time>
      </trkpt>
      <trkpt lat="38.2345080" lon="-3.5255560">
        <ele>480.8</ele>
        <time>2018-06-16T09:20:06Z</time>
      </trkpt>
      <trkpt lat="38.2344130" lon="-3.5255540">
        <ele>480.6</ele>
        <time>2018-06-16T09:20:07Z</time>
      </trkpt>
      <trkpt lat="38.2343180" lon="-3.5255580">
        <ele>480.0</ele>
        <time>2018-06-16T09:20:08Z</time>
      </trkpt>
      <trkpt lat="38.2342210" lon="-3.5255640">
        <ele>479.6</ele>
        <time>2018-06-16T09:20:09Z</time>
      </trkpt>
      <trkpt lat="38.2341250" lon="-3.5255700">
        <ele>478.8</ele>
        <time>2018-06-16T09:20:10Z</time>
      </trkpt>
      <trkpt lat="38.2340270" lon="-3.5255770">
        <ele>479.2</ele>
        <time>2018-06-16T09:20:11Z</time>
      </trkpt>
      <trkpt lat="38.2339300" lon="-3.5255930">
        <ele>478.0</ele>
        <time>2018-06-16T09:20:12Z</time>
      </trkpt>
      <trkpt lat="38.2338320" lon="-3.5256090">
        <ele>477.6</ele>
        <time>2018-06-16T09:20:13Z</time>
      </trkpt>
      <trkpt lat="38.2337370" lon="-3.5256430">
        <ele>477.2</ele>
        <time>2018-06-16T09:20:14Z</time>
      </trkpt>
      <trkpt lat="38.2336480" lon="-3.5256950">
        <ele>476.6</ele>
        <time>2018-06-16T09:20:15Z</time>
      </trkpt>
      <trkpt lat="38.2335630" lon="-3.5257580">
        <ele>476.0</ele>
        <time>2018-06-16T09:20:16Z</time>
      </trkpt>
      <trkpt lat="38.2334810" lon="-3.5258270">
        <ele>475.8</ele>
        <time>2018-06-16T09:20:17Z</time>
      </trkpt>
      <trkpt lat="38.2333980" lon="-3.5258910">
        <ele>475.4</ele>
        <time>2018-06-16T09:20:18Z</time>
      </trkpt>
      <trkpt lat="38.2333080" lon="-3.5259370">
        <ele>474.8</ele>
        <time>2018-06-16T09:20:19Z</time>
      </trkpt>
      <trkpt lat="38.2332100" lon="-3.5259530">
        <ele>474.0</ele>
        <time>2018-06-16T09:20:20Z</time>
      </trkpt>
      <trkpt lat="38.2331110" lon="-3.5259390">
        <ele>473.4</ele>
        <time>2018-06-16T09:20:21Z</time>
      </trkpt>
      <trkpt lat="38.2329730" lon="-3.5258680">
        <ele>473.0</ele>
        <time>2018-06-16T09:20:22Z</time>
      </trkpt>
      <trkpt lat="38.2329280" lon="-3.5258390">
        <ele>472.4</ele>
        <time>2018-06-16T09:20:23Z</time>
      </trkpt>
      <trkpt lat="38.2328390" lon="-3.5257800">
        <ele>472.0</ele>
        <time>2018-06-16T09:20:24Z</time>
      </trkpt>
      <trkpt lat="38.2327530" lon="-3.5257130">
        <ele>471.4</ele>
        <time>2018-06-16T09:20:25Z</time>
      </trkpt>
      <trkpt lat="38.2326660" lon="-3.5256440">
        <ele>471.2</ele>
        <time>2018-06-16T09:20:26Z</time>
      </trkpt>
      <trkpt lat="38.2325800" lon="-3.5255730">
        <ele>470.6</ele>
        <time>2018-06-16T09:20:27Z</time>
      </trkpt>
      <trkpt lat="38.2324960" lon="-3.5255000">
        <ele>470.2</ele>
        <time>2018-06-16T09:20:28Z</time>
      </trkpt>
      <trkpt lat="38.2324110" lon="-3.5254280">
        <ele>470.0</ele>
        <time>2018-06-16T09:20:29Z</time>
      </trkpt>
      <trkpt lat="38.2323260" lon="-3.5253600">
        <ele>470.2</ele>
        <time>2018-06-16T09:20:30Z</time>
      </trkpt>
      <trkpt lat="38.2322410" lon="-3.5252940">
        <ele>469.6</ele>
        <time>2018-06-16T09:20:31Z</time>
      </trkpt>
      <trkpt lat="38.2321560" lon="-3.5252310">
        <ele>469.4</ele>
        <time>2018-06-16T09:20:32Z</time>
      </trkpt>
      <trkpt lat="38.2320720" lon="-3.5251700">
        <ele>469.2</ele>
        <time>2018-06-16T09:20:33Z</time>
      </trkpt>
      <trkpt lat="38.2319890" lon="-3.5251090">
        <ele>468.8</ele>
        <time>2018-06-16T09:20:34Z</time>
      </trkpt>
      <trkpt lat="38.2319080" lon="-3.5250470">
        <ele>468.6</ele>
        <time>2018-06-16T09:20:35Z</time>
      </trkpt>
      <trkpt lat="38.2318280" lon="-3.5249850">
        <ele>468.4</ele>
        <time>2018-06-16T09:20:36Z</time>
      </trkpt>
      <trkpt lat="38.2317480" lon="-3.5249240">
        <ele>468.0</ele>
        <time>2018-06-16T09:20:37Z</time>
      </trkpt>
      <trkpt lat="38.2316680" lon="-3.5248640">
        <ele>468.0</ele>
        <time>2018-06-16T09:20:38Z</time>
      </trkpt>
      <trkpt lat="38.2315880" lon="-3.5248050">
        <ele>467.6</ele>
        <time>2018-06-16T09:20:39Z</time>
      </trkpt>
      <trkpt lat="38.2315090" lon="-3.5247470">
        <ele>467.4</ele>
        <time>2018-06-16T09:20:40Z</time>
      </trkpt>
      <trkpt lat="38.2314290" lon="-3.5246920">
        <ele>467.0</ele>
        <time>2018-06-16T09:20:41Z</time>
      </trkpt>
      <trkpt lat="38.2313490" lon="-3.5246410">
        <ele>467.2</ele>
        <time>2018-06-16T09:20:42Z</time>
      </trkpt>
      <trkpt lat="38.2312690" lon="-3.5245900">
        <ele>467.0</ele>
        <time>2018-06-16T09:20:43Z</time>
      </trkpt>
      <trkpt lat="38.2311890" lon="-3.5245420">
        <ele>466.8</ele>
        <time>2018-06-16T09:20:44Z</time>
      </trkpt>
      <trkpt lat="38.2311090" lon="-3.5244960">
        <ele>466.4</ele>
        <time>2018-06-16T09:20:45Z</time>
      </trkpt>
      <trkpt lat="38.2310290" lon="-3.5244510">
        <ele>466.2</ele>
        <time>2018-06-16T09:20:46Z</time>
      </trkpt>
      <trkpt lat="38.2309500" lon="-3.5244070">
        <ele>466.0</ele>
        <time>2018-06-16T09:20:47Z</time>
      </trkpt>
      <trkpt lat="38.2308720" lon="-3.5243640">
        <ele>466.0</ele>
        <time>2018-06-16T09:20:48Z</time>
      </trkpt>
      <trkpt lat="38.2307940" lon="-3.5243210">
        <ele>465.8</ele>
        <time>2018-06-16T09:20:49Z</time>
      </trkpt>
      <trkpt lat="38.2307160" lon="-3.5242790">
        <ele>465.4</ele>
        <time>2018-06-16T09:20:50Z</time>
      </trkpt>
      <trkpt lat="38.2306390" lon="-3.5242380">
        <ele>465.2</ele>
        <time>2018-06-16T09:20:51Z</time>
      </trkpt>
      <trkpt lat="38.2305630" lon="-3.5241950">
        <ele>465.2</ele>
        <time>2018-06-16T09:20:52Z</time>
      </trkpt>
      <trkpt lat="38.2304870" lon="-3.5241510">
        <ele>465.0</ele>
        <time>2018-06-16T09:20:53Z</time>
      </trkpt>
      <trkpt lat="38.2304110" lon="-3.5241060">
        <ele>464.8</ele>
        <time>2018-06-16T09:20:54Z</time>
      </trkpt>
      <trkpt lat="38.2303350" lon="-3.5240610">
        <ele>464.4</ele>
        <time>2018-06-16T09:20:55Z</time>
      </trkpt>
      <trkpt lat="38.2302590" lon="-3.5240150">
        <ele>464.2</ele>
        <time>2018-06-16T09:20:56Z</time>
      </trkpt>
      <trkpt lat="38.2301830" lon="-3.5239690">
        <ele>464.2</ele>
        <time>2018-06-16T09:20:57Z</time>
      </trkpt>
      <trkpt lat="38.2301060" lon="-3.5239250">
        <ele>464.0</ele>
        <time>2018-06-16T09:20:58Z</time>
      </trkpt>
      <trkpt lat="38.2300290" lon="-3.5238810">
        <ele>463.8</ele>
        <time>2018-06-16T09:20:59Z</time>
      </trkpt>
      <trkpt lat="38.2299510" lon="-3.5238370">
        <ele>463.6</ele>
        <time>2018-06-16T09:21:00Z</time>
      </trkpt>
      <trkpt lat="38.2298730" lon="-3.5237940">
        <ele>463.4</ele>
        <time>2018-06-16T09:21:01Z</time>
      </trkpt>
      <trkpt lat="38.2297960" lon="-3.5237510">
        <ele>463.4</ele>
        <time>2018-06-16T09:21:02Z</time>
      </trkpt>
      <trkpt lat="38.2297180" lon="-3.5237080">
        <ele>463.4</ele>
        <time>2018-06-16T09:21:03Z</time>
      </trkpt>
      <trkpt lat="38.2296410" lon="-3.5236630">
        <ele>463.2</ele>
        <time>2018-06-16T09:21:04Z</time>
      </trkpt>
      <trkpt lat="38.2295630" lon="-3.5236170">
        <ele>463.0</ele>
        <time>2018-06-16T09:21:05Z</time>
      </trkpt>
      <trkpt lat="38.2294860" lon="-3.5235720">
        <ele>463.0</ele>
        <time>2018-06-16T09:21:06Z</time>
      </trkpt>
      <trkpt lat="38.2294110" lon="-3.5235260">
        <ele>462.8</ele>
        <time>2018-06-16T09:21:07Z</time>
      </trkpt>
      <trkpt lat="38.2293360" lon="-3.5234760">
        <ele>463.0</ele>
        <time>2018-06-16T09:21:08Z</time>
      </trkpt>
      <trkpt lat="38.2292610" lon="-3.5234260">
        <ele>462.6</ele>
        <time>2018-06-16T09:21:09Z</time>
      </trkpt>
      <trkpt lat="38.2291840" lon="-3.5233810">
        <ele>462.6</ele>
        <time>2018-06-16T09:21:10Z</time>
      </trkpt>
      <trkpt lat="38.2291050" lon="-3.5233380">
        <ele>462.4</ele>
        <time>2018-06-16T09:21:11Z</time>
      </trkpt>
      <trkpt lat="38.2290260" lon="-3.5232940">
        <ele>462.4</ele>
        <time>2018-06-16T09:21:12Z</time>
      </trkpt>
      <trkpt lat="38.2289470" lon="-3.5232510">
        <ele>462.2</ele>
        <time>2018-06-16T09:21:13Z</time>
      </trkpt>
      <trkpt lat="38.2288670" lon="-3.5232060">
        <ele>462.0</ele>
        <time>2018-06-16T09:21:14Z</time>
      </trkpt>
      <trkpt lat="38.2287870" lon="-3.5231610">
        <ele>461.8</ele>
        <time>2018-06-16T09:21:15Z</time>
      </trkpt>
      <trkpt lat="38.2287080" lon="-3.5231140">
        <ele>461.8</ele>
        <time>2018-06-16T09:21:16Z</time>
      </trkpt>
      <trkpt lat="38.2286290" lon="-3.5230670">
        <ele>461.6</ele>
        <time>2018-06-16T09:21:17Z</time>
      </trkpt>
      <trkpt lat="38.2285490" lon="-3.5230210">
        <ele>461.6</ele>
        <time>2018-06-16T09:21:18Z</time>
      </trkpt>
      <trkpt lat="38.2284690" lon="-3.5229750">
        <ele>461.2</ele>
        <time>2018-06-16T09:21:19Z</time>
      </trkpt>
      <trkpt lat="38.2283890" lon="-3.5229290">
        <ele>461.2</ele>
        <time>2018-06-16T09:21:20Z</time>
      </trkpt>
      <trkpt lat="38.2283090" lon="-3.5228830">
        <ele>461.2</ele>
        <time>2018-06-16T09:21:21Z</time>
      </trkpt>
      <trkpt lat="38.2282290" lon="-3.5228370">
        <ele>460.8</ele>
        <time>2018-06-16T09:21:22Z</time>
      </trkpt>
      <trkpt lat="38.2281470" lon="-3.5227930">
        <ele>460.6</ele>
        <time>2018-06-16T09:21:23Z</time>
      </trkpt>
      <trkpt lat="38.2280660" lon="-3.5227510">
        <ele>460.2</ele>
        <time>2018-06-16T09:21:24Z</time>
      </trkpt>
      <trkpt lat="38.2279850" lon="-3.5227080">
        <ele>460.4</ele>
        <time>2018-06-16T09:21:25Z</time>
      </trkpt>
      <trkpt lat="38.2279050" lon="-3.5226640">
        <ele>460.0</ele>
        <time>2018-06-16T09:21:26Z</time>
      </trkpt>
      <trkpt lat="38.2278240" lon="-3.5226210">
        <ele>459.8</ele>
        <time>2018-06-16T09:21:27Z</time>
      </trkpt>
      <trkpt lat="38.2277440" lon="-3.5225790">
        <ele>459.8</ele>
        <time>2018-06-16T09:21:28Z</time>
      </trkpt>
      <trkpt lat="38.2276630" lon="-3.5225370">
        <ele>459.4</ele>
        <time>2018-06-16T09:21:29Z</time>
      </trkpt>
      <trkpt lat="38.2275820" lon="-3.5224930">
        <ele>459.2</ele>
        <time>2018-06-16T09:21:30Z</time>
      </trkpt>
      <trkpt lat="38.2275020" lon="-3.5224500">
        <ele>459.6</ele>
        <time>2018-06-16T09:21:31Z</time>
      </trkpt>
      <trkpt lat="38.2274230" lon="-3.5224040">
        <ele>459.0</ele>
        <time>2018-06-16T09:21:32Z</time>
      </trkpt>
      <trkpt lat="38.2273440" lon="-3.5223580">
        <ele>459.0</ele>
        <time>2018-06-16T09:21:33Z</time>
      </trkpt>
      <trkpt lat="38.2272640" lon="-3.5223120">
        <ele>459.0</ele>
        <time>2018-06-16T09:21:34Z</time>
      </trkpt>
      <trkpt lat="38.2271850" lon="-3.5222660">
        <ele>458.8</ele>
        <time>2018-06-16T09:21:35Z</time>
      </trkpt>
      <trkpt lat="38.2271060" lon="-3.5222200">
        <ele>458.8</ele>
        <time>2018-06-16T09:21:36Z</time>
      </trkpt>
      <trkpt lat="38.2270280" lon="-3.5221740">
        <ele>458.6</ele>
        <time>2018-06-16T09:21:37Z</time>
      </trkpt>
      <trkpt lat="38.2269510" lon="-3.5221270">
        <ele>458.6</ele>
        <time>2018-06-16T09:21:38Z</time>
      </trkpt>
      <trkpt lat="38.2268740" lon="-3.5220830">
        <ele>458.6</ele>
        <time>2018-06-16T09:21:39Z</time>
      </trkpt>
      <trkpt lat="38.2267970" lon="-3.5220390">
        <ele>458.8</ele>
        <time>2018-06-16T09:21:40Z</time>
      </trkpt>
      <trkpt lat="38.2267210" lon="-3.5219960">
        <ele>458.8</ele>
        <time>2018-06-16T09:21:41Z</time>
      </trkpt>
      <trkpt lat="38.2266440" lon="-3.5219540">
        <ele>459.0</ele>
        <time>2018-06-16T09:21:42Z</time>
      </trkpt>
      <trkpt lat="38.2265690" lon="-3.5219100">
        <ele>458.8</ele>
        <time>2018-06-16T09:21:43Z</time>
      </trkpt>
      <trkpt lat="38.2264570" lon="-3.5218440">
        <ele>459.0</ele>
        <time>2018-06-16T09:21:44Z</time>
      </trkpt>
      <trkpt lat="38.2264200" lon="-3.5218220">
        <ele>459.0</ele>
        <time>2018-06-16T09:21:45Z</time>
      </trkpt>
      <trkpt lat="38.2263450" lon="-3.5217790">
        <ele>458.8</ele>
        <time>2018-06-16T09:21:46Z</time>
      </trkpt>
      <trkpt lat="38.2262700" lon="-3.5217370">
        <ele>458.8</ele>
        <time>2018-06-16T09:21:47Z</time>
      </trkpt>
      <trkpt lat="38.2261960" lon="-3.5216960">
        <ele>458.8</ele>
        <time>2018-06-16T09:21:48Z</time>
      </trkpt>
      <trkpt lat="38.2261220" lon="-3.5216520">
        <ele>458.8</ele>
        <time>2018-06-16T09:21:49Z</time>
      </trkpt>
      <trkpt lat="38.2260470" lon="-3.5216090">
        <ele>458.6</ele>
        <time>2018-06-16T09:21:50Z</time>
      </trkpt>
      <trkpt lat="38.2259730" lon="-3.5215660">
        <ele>459.0</ele>
        <time>2018-06-16T09:21:51Z</time>
      </trkpt>
      <trkpt lat="38.2259000" lon="-3.5215220">
        <ele>458.6</ele>
        <time>2018-06-16T09:21:52Z</time>
      </trkpt>
      <trkpt lat="38.2257920" lon="-3.5214530">
        <ele>458.8</ele>
        <time>2018-06-16T09:21:53Z</time>
      </trkpt>
      <trkpt lat="38.2257550" lon="-3.5214310">
        <ele>458.8</ele>
        <time>2018-06-16T09:21:54Z</time>
      </trkpt>
      <trkpt lat="38.2256820" lon="-3.5213870">
        <ele>458.4</ele>
        <time>2018-06-16T09:21:55Z</time>
      </trkpt>
      <trkpt lat="38.2256080" lon="-3.5213450">
        <ele>458.4</ele>
        <time>2018-06-16T09:21:56Z</time>
      </trkpt>
      <trkpt lat="38.2255340" lon="-3.5213010">
        <ele>458.4</ele>
        <time>2018-06-16T09:21:57Z</time>
      </trkpt>
      <trkpt lat="38.2254600" lon="-3.5212570">
        <ele>458.4</ele>
        <time>2018-06-16T09:21:58Z</time>
      </trkpt>
      <trkpt lat="38.2253850" lon="-3.5212120">
        <ele>458.0</ele>
        <time>2018-06-16T09:21:59Z</time>
      </trkpt>
      <trkpt lat="38.2253100" lon="-3.5211680">
        <ele>458.0</ele>
        <time>2018-06-16T09:22:00Z</time>
      </trkpt>
      <trkpt lat="38.2252330" lon="-3.5211250">
        <ele>457.6</ele>
        <time>2018-06-16T09:22:01Z</time>
      </trkpt>
      <trkpt lat="38.2251570" lon="-3.5210810">
        <ele>457.6</ele>
        <time>2018-06-16T09:22:02Z</time>
      </trkpt>
      <trkpt lat="38.2250800" lon="-3.5210380">
        <ele>457.2</ele>
        <time>2018-06-16T09:22:03Z</time>
      </trkpt>
      <trkpt lat="38.2250030" lon="-3.5209960">
        <ele>457.2</ele>
        <time>2018-06-16T09:22:04Z</time>
      </trkpt>
      <trkpt lat="38.2249250" lon="-3.5209530">
        <ele>456.8</ele>
        <time>2018-06-16T09:22:05Z</time>
      </trkpt>
      <trkpt lat="38.2248470" lon="-3.5209080">
        <ele>456.8</ele>
        <time>2018-06-16T09:22:06Z</time>
      </trkpt>
      <trkpt lat="38.2247680" lon="-3.5208630">
        <ele>456.8</ele>
        <time>2018-06-16T09:22:07Z</time>
      </trkpt>
      <trkpt lat="38.2246900" lon="-3.5208180">
        <ele>456.4</ele>
        <time>2018-06-16T09:22:08Z</time>
      </trkpt>
      <trkpt lat="38.2246110" lon="-3.5207730">
        <ele>456.4</ele>
        <time>2018-06-16T09:22:09Z</time>
      </trkpt>
      <trkpt lat="38.2245330" lon="-3.5207280">
        <ele>456.2</ele>
        <time>2018-06-16T09:22:10Z</time>
      </trkpt>
      <trkpt lat="38.2244550" lon="-3.5206820">
        <ele>455.8</ele>
        <time>2018-06-16T09:22:11Z</time>
      </trkpt>
      <trkpt lat="38.2243760" lon="-3.5206360">
        <ele>455.6</ele>
        <time>2018-06-16T09:22:12Z</time>
      </trkpt>
      <trkpt lat="38.2242970" lon="-3.5205930">
        <ele>455.6</ele>
        <time>2018-06-16T09:22:13Z</time>
      </trkpt>
      <trkpt lat="38.2242180" lon="-3.5205500">
        <ele>455.2</ele>
        <time>2018-06-16T09:22:14Z</time>
      </trkpt>
      <trkpt lat="38.2241380" lon="-3.5205060">
        <ele>454.8</ele>
        <time>2018-06-16T09:22:15Z</time>
      </trkpt>
      <trkpt lat="38.2240600" lon="-3.5204610">
        <ele>454.6</ele>
        <time>2018-06-16T09:22:16Z</time>
      </trkpt>
      <trkpt lat="38.2239820" lon="-3.5204150">
        <ele>454.8</ele>
        <time>2018-06-16T09:22:17Z</time>
      </trkpt>
      <trkpt lat="38.2239040" lon="-3.5203720">
        <ele>454.6</ele>
        <time>2018-06-16T09:22:18Z</time>
      </trkpt>
      <trkpt lat="38.2238260" lon="-3.5203280">
        <ele>454.2</ele>
        <time>2018-06-16T09:22:19Z</time>
      </trkpt>
      <trkpt lat="38.2237470" lon="-3.5202850">
        <ele>454.2</ele>
        <time>2018-06-16T09:22:20Z</time>
      </trkpt>
      <trkpt lat="38.2236680" lon="-3.5202400">
        <ele>454.2</ele>
        <time>2018-06-16T09:22:21Z</time>
      </trkpt>
      <trkpt lat="38.2235880" lon="-3.5201950">
        <ele>453.8</ele>
        <time>2018-06-16T09:22:22Z</time>
      </trkpt>
      <trkpt lat="38.2235080" lon="-3.5201490">
        <ele>453.6</ele>
        <time>2018-06-16T09:22:23Z</time>
      </trkpt>
      <trkpt lat="38.2234280" lon="-3.5201040">
        <ele>453.4</ele>
        <time>2018-06-16T09:22:24Z</time>
      </trkpt>
      <trkpt lat="38.2233470" lon="-3.5200590">
        <ele>453.0</ele>
        <time>2018-06-16T09:22:25Z</time>
      </trkpt>
      <trkpt lat="38.2232660" lon="-3.5200120">
        <ele>452.6</ele>
        <time>2018-06-16T09:22:26Z</time>
      </trkpt>
      <trkpt lat="38.2231850" lon="-3.5199630">
        <ele>452.6</ele>
        <time>2018-06-16T09:22:27Z</time>
      </trkpt>
      <trkpt lat="38.2231030" lon="-3.5199140">
        <ele>452.4</ele>
        <time>2018-06-16T09:22:28Z</time>
      </trkpt>
      <trkpt lat="38.2230190" lon="-3.5198660">
        <ele>452.0</ele>
        <time>2018-06-16T09:22:29Z</time>
      </trkpt>
      <trkpt lat="38.2229350" lon="-3.5198170">
        <ele>452.2</ele>
        <time>2018-06-16T09:22:30Z</time>
      </trkpt>
      <trkpt lat="38.2228520" lon="-3.5197700">
        <ele>451.6</ele>
        <time>2018-06-16T09:22:31Z</time>
      </trkpt>
      <trkpt lat="38.2227690" lon="-3.5197210">
        <ele>451.4</ele>
        <time>2018-06-16T09:22:32Z</time>
      </trkpt>
      <trkpt lat="38.2226880" lon="-3.5196710">
        <ele>451.0</ele>
        <time>2018-06-16T09:22:33Z</time>
      </trkpt>
      <trkpt lat="38.2226080" lon="-3.5196200">
        <ele>450.8</ele>
        <time>2018-06-16T09:22:34Z</time>
      </trkpt>
      <trkpt lat="38.2225280" lon="-3.5195720">
        <ele>450.6</ele>
        <time>2018-06-16T09:22:35Z</time>
      </trkpt>
      <trkpt lat="38.2224480" lon="-3.5195260">
        <ele>450.4</ele>
        <time>2018-06-16T09:22:36Z</time>
      </trkpt>
      <trkpt lat="38.2223680" lon="-3.5194790">
        <ele>450.0</ele>
        <time>2018-06-16T09:22:37Z</time>
      </trkpt>
      <trkpt lat="38.2222880" lon="-3.5194310">
        <ele>450.0</ele>
        <time>2018-06-16T09:22:38Z</time>
      </trkpt>
      <trkpt lat="38.2222070" lon="-3.5193830">
        <ele>449.8</ele>
        <time>2018-06-16T09:22:39Z</time>
      </trkpt>
      <trkpt lat="38.2221260" lon="-3.5193370">
        <ele>449.6</ele>
        <time>2018-06-16T09:22:40Z</time>
      </trkpt>
      <trkpt lat="38.2220440" lon="-3.5192910">
        <ele>449.4</ele>
        <time>2018-06-16T09:22:41Z</time>
      </trkpt>
      <trkpt lat="38.2219620" lon="-3.5192480">
        <ele>449.6</ele>
        <time>2018-06-16T09:22:42Z</time>
      </trkpt>
      <trkpt lat="38.2218790" lon="-3.5192060">
        <ele>449.2</ele>
        <time>2018-06-16T09:22:43Z</time>
      </trkpt>
      <trkpt lat="38.2217960" lon="-3.5191700">
        <ele>449.0</ele>
        <time>2018-06-16T09:22:44Z</time>
      </trkpt>
      <trkpt lat="38.2217120" lon="-3.5191340">
        <ele>448.6</ele>
        <time>2018-06-16T09:22:45Z</time>
      </trkpt>
      <trkpt lat="38.2216270" lon="-3.5190990">
        <ele>448.6</ele>
        <time>2018-06-16T09:22:46Z</time>
      </trkpt>
      <trkpt lat="38.2215430" lon="-3.5190660">
        <ele>448.2</ele>
        <time>2018-06-16T09:22:47Z</time>
      </trkpt>
      <trkpt lat="38.2214570" lon="-3.5190330">
        <ele>448.0</ele>
        <time>2018-06-16T09:22:48Z</time>
      </trkpt>
      <trkpt lat="38.2213710" lon="-3.5190000">
        <ele>447.8</ele>
        <time>2018-06-16T09:22:49Z</time>
      </trkpt>
      <trkpt lat="38.2212830" lon="-3.5189660">
        <ele>447.6</ele>
        <time>2018-06-16T09:22:50Z</time>
      </trkpt>
      <trkpt lat="38.2211940" lon="-3.5189360">
        <ele>447.6</ele>
        <time>2018-06-16T09:22:51Z</time>
      </trkpt>
      <trkpt lat="38.2211060" lon="-3.5189020">
        <ele>447.4</ele>
        <time>2018-06-16T09:22:52Z</time>
      </trkpt>
      <trkpt lat="38.2210170" lon="-3.5188680">
        <ele>447.0</ele>
        <time>2018-06-16T09:22:53Z</time>
      </trkpt>
      <trkpt lat="38.2209270" lon="-3.5188320">
        <ele>446.8</ele>
        <time>2018-06-16T09:22:54Z</time>
      </trkpt>
      <trkpt lat="38.2208380" lon="-3.5188000">
        <ele>446.6</ele>
        <time>2018-06-16T09:22:55Z</time>
      </trkpt>
      <trkpt lat="38.2207480" lon="-3.5187690">
        <ele>446.4</ele>
        <time>2018-06-16T09:22:56Z</time>
      </trkpt>
      <trkpt lat="38.2206580" lon="-3.5187370">
        <ele>446.2</ele>
        <time>2018-06-16T09:22:57Z</time>
      </trkpt>
      <trkpt lat="38.2205690" lon="-3.5187060">
        <ele>446.0</ele>
        <time>2018-06-16T09:22:58Z</time>
      </trkpt>
      <trkpt lat="38.2204800" lon="-3.5186740">
        <ele>446.0</ele>
        <time>2018-06-16T09:22:59Z</time>
      </trkpt>
      <trkpt lat="38.2203920" lon="-3.5186420">
        <ele>446.0</ele>
        <time>2018-06-16T09:23:00Z</time>
      </trkpt>
      <trkpt lat="38.2203060" lon="-3.5186100">
        <ele>446.0</ele>
        <time>2018-06-16T09:23:01Z</time>
      </trkpt>
      <trkpt lat="38.2202210" lon="-3.5185790">
        <ele>446.0</ele>
        <time>2018-06-16T09:23:02Z</time>
      </trkpt>
      <trkpt lat="38.2201390" lon="-3.5185490">
        <ele>446.2</ele>
        <time>2018-06-16T09:23:03Z</time>
      </trkpt>
      <trkpt lat="38.2200580" lon="-3.5185190">
        <ele>446.2</ele>
        <time>2018-06-16T09:23:04Z</time>
      </trkpt>
      <trkpt lat="38.2199780" lon="-3.5184900">
        <ele>446.4</ele>
        <time>2018-06-16T09:23:05Z</time>
      </trkpt>
      <trkpt lat="38.2199010" lon="-3.5184600">
        <ele>446.4</ele>
        <time>2018-06-16T09:23:06Z</time>
      </trkpt>
      <trkpt lat="38.2198250" lon="-3.5184290">
        <ele>446.4</ele>
        <time>2018-06-16T09:23:07Z</time>
      </trkpt>
      <trkpt lat="38.2197520" lon="-3.5183960">
        <ele>446.4</ele>
        <time>2018-06-16T09:23:08Z</time>
      </trkpt>
      <trkpt lat="38.2196810" lon="-3.5183600">
        <ele>446.6</ele>
        <time>2018-06-16T09:23:09Z</time>
      </trkpt>
      <trkpt lat="38.2196120" lon="-3.5183220">
        <ele>446.8</ele>
        <time>2018-06-16T09:23:10Z</time>
      </trkpt>
      <trkpt lat="38.2195470" lon="-3.5182810">
        <ele>447.0</ele>
        <time>2018-06-16T09:23:11Z</time>
      </trkpt>
      <trkpt lat="38.2194850" lon="-3.5182390">
        <ele>447.0</ele>
        <time>2018-06-16T09:23:12Z</time>
      </trkpt>
      <trkpt lat="38.2194250" lon="-3.5181970">
        <ele>447.2</ele>
        <time>2018-06-16T09:23:13Z</time>
      </trkpt>
      <trkpt lat="38.2193690" lon="-3.5181540">
        <ele>447.8</ele>
        <time>2018-06-16T09:23:14Z</time>
      </trkpt>
      <trkpt lat="38.2193150" lon="-3.5181100">
        <ele>447.8</ele>
        <time>2018-06-16T09:23:15Z</time>
      </trkpt>
      <trkpt lat="38.2192640" lon="-3.5180660">
        <ele>448.0</ele>
        <time>2018-06-16T09:23:16Z</time>
      </trkpt>
      <trkpt lat="38.2192170" lon="-3.5180210">
        <ele>448.0</ele>
        <time>2018-06-16T09:23:17Z</time>
      </trkpt>
      <trkpt lat="38.2191720" lon="-3.5179780">
        <ele>448.2</ele>
        <time>2018-06-16T09:23:18Z</time>
      </trkpt>
      <trkpt lat="38.2191290" lon="-3.5179360">
        <ele>448.4</ele>
        <time>2018-06-16T09:23:19Z</time>
      </trkpt>
      <trkpt lat="38.2190880" lon="-3.5178940">
        <ele>448.6</ele>
        <time>2018-06-16T09:23:20Z</time>
      </trkpt>
      <trkpt lat="38.2190500" lon="-3.5178530">
        <ele>448.8</ele>
        <time>2018-06-16T09:23:21Z</time>
      </trkpt>
      <trkpt lat="38.2190150" lon="-3.5178120">
        <ele>449.0</ele>
        <time>2018-06-16T09:23:22Z</time>
      </trkpt>
      <trkpt lat="38.2189810" lon="-3.5177700">
        <ele>449.2</ele>
        <time>2018-06-16T09:23:23Z</time>
      </trkpt>
      <trkpt lat="38.2189490" lon="-3.5177300">
        <ele>449.4</ele>
        <time>2018-06-16T09:23:24Z</time>
      </trkpt>
      <trkpt lat="38.2189170" lon="-3.5176920">
        <ele>449.8</ele>
        <time>2018-06-16T09:23:25Z</time>
      </trkpt>
      <trkpt lat="38.2188870" lon="-3.5176570">
        <ele>449.8</ele>
        <time>2018-06-16T09:23:26Z</time>
      </trkpt>
      <trkpt lat="38.2188590" lon="-3.5176200">
        <ele>450.0</ele>
        <time>2018-06-16T09:23:27Z</time>
      </trkpt>
      <trkpt lat="38.2188350" lon="-3.5175820">
        <ele>450.4</ele>
        <time>2018-06-16T09:23:28Z</time>
      </trkpt>
      <trkpt lat="38.2188100" lon="-3.5175410">
        <ele>450.4</ele>
        <time>2018-06-16T09:23:29Z</time>
      </trkpt>
      <trkpt lat="38.2187870" lon="-3.5174990">
        <ele>450.6</ele>
        <time>2018-06-16T09:23:30Z</time>
      </trkpt>
      <trkpt lat="38.2187640" lon="-3.5174560">
        <ele>450.8</ele>
        <time>2018-06-16T09:23:31Z</time>
      </trkpt>
      <trkpt lat="38.2187400" lon="-3.5174120">
        <ele>451.0</ele>
        <time>2018-06-16T09:23:32Z</time>
      </trkpt>
      <trkpt lat="38.2187160" lon="-3.5173660">
        <ele>451.2</ele>
        <time>2018-06-16T09:23:33Z</time>
      </trkpt>
      <trkpt lat="38.2186920" lon="-3.5173210">
        <ele>451.4</ele>
        <time>2018-06-16T09:23:34Z</time>
      </trkpt>
      <trkpt lat="38.2186710" lon="-3.5172870">
        <ele>451.6</ele>
        <time>2018-06-16T09:23:35Z</time>
      </trkpt>
      <trkpt lat="38.2186490" lon="-3.5172430">
        <ele>451.8</ele>
        <time>2018-06-16T09:23:36Z</time>
      </trkpt>
      <trkpt lat="38.2186270" lon="-3.5171950">
        <ele>452.0</ele>
        <time>2018-06-16T09:23:37Z</time>
      </trkpt>
      <trkpt lat="38.2186060" lon="-3.5171480">
        <ele>452.0</ele>
        <time>2018-06-16T09:23:38Z</time>
      </trkpt>
      <trkpt lat="38.2185860" lon="-3.5170990">
        <ele>452.2</ele>
        <time>2018-06-16T09:23:39Z</time>
      </trkpt>
      <trkpt lat="38.2185660" lon="-3.5170490">
        <ele>452.2</ele>
        <time>2018-06-16T09:23:40Z</time>
      </trkpt>
      <trkpt lat="38.2185450" lon="-3.5169970">
        <ele>452.4</ele>
        <time>2018-06-16T09:23:41Z</time>
      </trkpt>
      <trkpt lat="38.2185240" lon="-3.5169450">
        <ele>452.6</ele>
        <time>2018-06-16T09:23:42Z</time>
      </trkpt>
      <trkpt lat="38.2185030" lon="-3.5168940">
        <ele>452.4</ele>
        <time>2018-06-16T09:23:43Z</time>
      </trkpt>
      <trkpt lat="38.2184820" lon="-3.5168420">
        <ele>452.6</ele>
        <time>2018-06-16T09:23:44Z</time>
      </trkpt>
      <trkpt lat="38.2184610" lon="-3.5167920">
        <ele>452.6</ele>
        <time>2018-06-16T09:23:45Z</time>
      </trkpt>
      <trkpt lat="38.2184410" lon="-3.5167390">
        <ele>452.6</ele>
        <time>2018-06-16T09:23:46Z</time>
      </trkpt>
      <trkpt lat="38.2184210" lon="-3.5166850">
        <ele>452.8</ele>
        <time>2018-06-16T09:23:47Z</time>
      </trkpt>
      <trkpt lat="38.2184020" lon="-3.5166330">
        <ele>453.0</ele>
        <time>2018-06-16T09:23:48Z</time>
      </trkpt>
      <trkpt lat="38.2183810" lon="-3.5165800">
        <ele>453.0</ele>
        <time>2018-06-16T09:23:49Z</time>
      </trkpt>
      <trkpt lat="38.2183600" lon="-3.5165280">
        <ele>452.8</ele>
        <time>2018-06-16T09:23:50Z</time>
      </trkpt>
      <trkpt lat="38.2183410" lon="-3.5164780">
        <ele>452.8</ele>
        <time>2018-06-16T09:23:51Z</time>
      </trkpt>
      <trkpt lat="38.2183200" lon="-3.5164310">
        <ele>453.0</ele>
        <time>2018-06-16T09:23:52Z</time>
      </trkpt>
      <trkpt lat="38.2182980" lon="-3.5163780">
        <ele>452.8</ele>
        <time>2018-06-16T09:23:53Z</time>
      </trkpt>
      <trkpt lat="38.2182770" lon="-3.5163220">
        <ele>452.8</ele>
        <time>2018-06-16T09:23:54Z</time>
      </trkpt>
      <trkpt lat="38.2182550" lon="-3.5162640">
        <ele>452.6</ele>
        <time>2018-06-16T09:23:55Z</time>
      </trkpt>
      <trkpt lat="38.2182300" lon="-3.5162080">
        <ele>452.4</ele>
        <time>2018-06-16T09:23:56Z</time>
      </trkpt>
      <trkpt lat="38.2182060" lon="-3.5161490">
        <ele>452.2</ele>
        <time>2018-06-16T09:23:57Z</time>
      </trkpt>
      <trkpt lat="38.2181830" lon="-3.5160850">
        <ele>452.0</ele>
        <time>2018-06-16T09:23:58Z</time>
      </trkpt>
      <trkpt lat="38.2181560" lon="-3.5160190">
        <ele>451.8</ele>
        <time>2018-06-16T09:23:59Z</time>
      </trkpt>
      <trkpt lat="38.2181250" lon="-3.5159500">
        <ele>451.0</ele>
        <time>2018-06-16T09:24:00Z</time>
      </trkpt>
      <trkpt lat="38.2180870" lon="-3.5158800">
        <ele>450.8</ele>
        <time>2018-06-16T09:24:01Z</time>
      </trkpt>
      <trkpt lat="38.2180430" lon="-3.5158100">
        <ele>450.2</ele>
        <time>2018-06-16T09:24:02Z</time>
      </trkpt>
      <trkpt lat="38.2179930" lon="-3.5157430">
        <ele>449.8</ele>
        <time>2018-06-16T09:24:03Z</time>
      </trkpt>
      <trkpt lat="38.2179260" lon="-3.5156850">
        <ele>449.4</ele>
        <time>2018-06-16T09:24:04Z</time>
      </trkpt>
      <trkpt lat="38.2178610" lon="-3.5156310">
        <ele>449.0</ele>
        <time>2018-06-16T09:24:05Z</time>
      </trkpt>
      <trkpt lat="38.2177900" lon="-3.5155830">
        <ele>448.6</ele>
        <time>2018-06-16T09:24:06Z</time>
      </trkpt>
      <trkpt lat="38.2177130" lon="-3.5155440">
        <ele>448.0</ele>
        <time>2018-06-16T09:24:07Z</time>
      </trkpt>
      <trkpt lat="38.2176330" lon="-3.5155140">
        <ele>447.8</ele>
        <time>2018-06-16T09:24:08Z</time>
      </trkpt>
      <trkpt lat="38.2175490" lon="-3.5154960">
        <ele>447.6</ele>
        <time>2018-06-16T09:24:09Z</time>
      </trkpt>
      <trkpt lat="38.2174590" lon="-3.5154850">
        <ele>447.0</ele>
        <time>2018-06-16T09:24:10Z</time>
      </trkpt>
      <trkpt lat="38.2173670" lon="-3.5154910">
        <ele>446.4</ele>
        <time>2018-06-16T09:24:11Z</time>
      </trkpt>
      <trkpt lat="38.2172750" lon="-3.5155060">
        <ele>446.0</ele>
        <time>2018-06-16T09:24:12Z</time>
      </trkpt>
      <trkpt lat="38.2171840" lon="-3.5155240">
        <ele>445.4</ele>
        <time>2018-06-16T09:24:13Z</time>
      </trkpt>
      <trkpt lat="38.2170890" lon="-3.5155460">
        <ele>444.6</ele>
        <time>2018-06-16T09:24:14Z</time>
      </trkpt>
      <trkpt lat="38.2169920" lon="-3.5155720">
        <ele>444.4</ele>
        <time>2018-06-16T09:24:15Z</time>
      </trkpt>
      <trkpt lat="38.2168950" lon="-3.5156000">
        <ele>444.0</ele>
        <time>2018-06-16T09:24:16Z</time>
      </trkpt>
      <trkpt lat="38.2167960" lon="-3.5156290">
        <ele>443.0</ele>
        <time>2018-06-16T09:24:17Z</time>
      </trkpt>
      <trkpt lat="38.2166970" lon="-3.5156570">
        <ele>442.8</ele>
        <time>2018-06-16T09:24:18Z</time>
      </trkpt>
      <trkpt lat="38.2166000" lon="-3.5156860">
        <ele>442.6</ele>
        <time>2018-06-16T09:24:19Z</time>
      </trkpt>
      <trkpt lat="38.2165060" lon="-3.5157150">
        <ele>442.2</ele>
        <time>2018-06-16T09:24:20Z</time>
      </trkpt>
      <trkpt lat="38.2164130" lon="-3.5157440">
        <ele>442.2</ele>
        <time>2018-06-16T09:24:21Z</time>
      </trkpt>
      <trkpt lat="38.2163230" lon="-3.5157710">
        <ele>442.2</ele>
        <time>2018-06-16T09:24:22Z</time>
      </trkpt>
      <trkpt lat="38.2162340" lon="-3.5157970">
        <ele>442.2</ele>
        <time>2018-06-16T09:24:23Z</time>
      </trkpt>
      <trkpt lat="38.2161480" lon="-3.5158220">
        <ele>442.4</ele>
        <time>2018-06-16T09:24:24Z</time>
      </trkpt>
      <trkpt lat="38.2160650" lon="-3.5158470">
        <ele>442.4</ele>
        <time>2018-06-16T09:24:25Z</time>
      </trkpt>
      <trkpt lat="38.2159820" lon="-3.5158690">
        <ele>442.4</ele>
        <time>2018-06-16T09:24:26Z</time>
      </trkpt>
      <trkpt lat="38.2159030" lon="-3.5158900">
        <ele>442.6</ele>
        <time>2018-06-16T09:24:27Z</time>
      </trkpt>
      <trkpt lat="38.2158280" lon="-3.5159140">
        <ele>442.8</ele>
        <time>2018-06-16T09:24:28Z</time>
      </trkpt>
      <trkpt lat="38.2157570" lon="-3.5159410">
        <ele>442.8</ele>
        <time>2018-06-16T09:24:29Z</time>
      </trkpt>
      <trkpt lat="38.2156900" lon="-3.5159730">
        <ele>442.8</ele>
        <time>2018-06-16T09:24:30Z</time>
      </trkpt>
      <trkpt lat="38.2156280" lon="-3.5160120">
        <ele>443.0</ele>
        <time>2018-06-16T09:24:31Z</time>
      </trkpt>
      <trkpt lat="38.2155760" lon="-3.5160630">
        <ele>443.2</ele>
        <time>2018-06-16T09:24:32Z</time>
      </trkpt>
      <trkpt lat="38.2155350" lon="-3.5161230">
        <ele>443.2</ele>
        <time>2018-06-16T09:24:33Z</time>
      </trkpt>
      <trkpt lat="38.2155030" lon="-3.5161870">
        <ele>443.4</ele>
        <time>2018-06-16T09:24:34Z</time>
      </trkpt>
      <trkpt lat="38.2154750" lon="-3.5162500">
        <ele>443.4</ele>
        <time>2018-06-16T09:24:35Z</time>
      </trkpt>
      <trkpt lat="38.2154480" lon="-3.5163100">
        <ele>443.6</ele>
        <time>2018-06-16T09:24:36Z</time>
      </trkpt>
      <trkpt lat="38.2154150" lon="-3.5163630">
        <ele>443.6</ele>
        <time>2018-06-16T09:24:37Z</time>
      </trkpt>
      <trkpt lat="38.2153750" lon="-3.5164090">
        <ele>443.8</ele>
        <time>2018-06-16T09:24:38Z</time>
      </trkpt>
      <trkpt lat="38.2153280" lon="-3.5164440">
        <ele>443.6</ele>
        <time>2018-06-16T09:24:39Z</time>
      </trkpt>
      <trkpt lat="38.2152730" lon="-3.5164680">
        <ele>443.6</ele>
        <time>2018-06-16T09:24:40Z</time>
      </trkpt>
      <trkpt lat="38.2152170" lon="-3.5164780">
        <ele>443.6</ele>
        <time>2018-06-16T09:24:41Z</time>
      </trkpt>
      <trkpt lat="38.2151610" lon="-3.5164690">
        <ele>443.6</ele>
        <time>2018-06-16T09:24:42Z</time>
      </trkpt>
      <trkpt lat="38.2151120" lon="-3.5164520">
        <ele>443.6</ele>
        <time>2018-06-16T09:24:43Z</time>
      </trkpt>
      <trkpt lat="38.2150640" lon="-3.5164310">
        <ele>443.6</ele>
        <time>2018-06-16T09:24:44Z</time>
      </trkpt>
      <trkpt lat="38.2150140" lon="-3.5164120">
        <ele>443.8</ele>
        <time>2018-06-16T09:24:45Z</time>
      </trkpt>
      <trkpt lat="38.2149670" lon="-3.5163890">
        <ele>443.6</ele>
        <time>2018-06-16T09:24:46Z</time>
      </trkpt>
      <trkpt lat="38.2149200" lon="-3.5163570">
        <ele>443.6</ele>
        <time>2018-06-16T09:24:47Z</time>
      </trkpt>
      <trkpt lat="38.2148740" lon="-3.5163220">
        <ele>443.8</ele>
        <time>2018-06-16T09:24:48Z</time>
      </trkpt>
      <trkpt lat="38.2148310" lon="-3.5162820">
        <ele>444.0</ele>
        <time>2018-06-16T09:24:49Z</time>
      </trkpt>
      <trkpt lat="38.2147930" lon="-3.5162450">
        <ele>444.2</ele>
        <time>2018-06-16T09:24:50Z</time>
      </trkpt>
      <trkpt lat="38.2147560" lon="-3.5162080">
        <ele>444.0</ele>
        <time>2018-06-16T09:24:51Z</time>
      </trkpt>
      <trkpt lat="38.2147140" lon="-3.5161660">
        <ele>444.2</ele>
        <time>2018-06-16T09:24:52Z</time>
      </trkpt>
      <trkpt lat="38.2146690" lon="-3.5161270">
        <ele>444.2</ele>
        <time>2018-06-16T09:24:53Z</time>
      </trkpt>
      <trkpt lat="38.2146300" lon="-3.5160910">
        <ele>444.4</ele>
        <time>2018-06-16T09:24:54Z</time>
      </trkpt>
      <trkpt lat="38.2145920" lon="-3.5160570">
        <ele>444.2</ele>
        <time>2018-06-16T09:24:55Z</time>
      </trkpt>
      <trkpt lat="38.2145560" lon="-3.5160280">
        <ele>444.2</ele>
        <time>2018-06-16T09:24:56Z</time>
      </trkpt>
      <trkpt lat="38.2145180" lon="-3.5159920">
        <ele>444.4</ele>
        <time>2018-06-16T09:24:57Z</time>
      </trkpt>
      <trkpt lat="38.2144810" lon="-3.5159520">
        <ele>444.2</ele>
        <time>2018-06-16T09:24:58Z</time>
      </trkpt>
      <trkpt lat="38.2144420" lon="-3.5159130">
        <ele>444.6</ele>
        <time>2018-06-16T09:24:59Z</time>
      </trkpt>
      <trkpt lat="38.2144030" lon="-3.5158740">
        <ele>444.6</ele>
        <time>2018-06-16T09:25:00Z</time>
      </trkpt>
      <trkpt lat="38.2143640" lon="-3.5158360">
        <ele>444.4</ele>
        <time>2018-06-16T09:25:01Z</time>
      </trkpt>
      <trkpt lat="38.2143260" lon="-3.5157980">
        <ele>444.8</ele>
        <time>2018-06-16T09:25:02Z</time>
      </trkpt>
      <trkpt lat="38.2142880" lon="-3.5157620">
        <ele>445.0</ele>
        <time>2018-06-16T09:25:03Z</time>
      </trkpt>
      <trkpt lat="38.2142490" lon="-3.5157260">
        <ele>444.8</ele>
        <time>2018-06-16T09:25:04Z</time>
      </trkpt>
      <trkpt lat="38.2142090" lon="-3.5156890">
        <ele>444.8</ele>
        <time>2018-06-16T09:25:05Z</time>
      </trkpt>
      <trkpt lat="38.2141710" lon="-3.5156520">
        <ele>444.6</ele>
        <time>2018-06-16T09:25:06Z</time>
      </trkpt>
      <trkpt lat="38.2141320" lon="-3.5156170">
        <ele>445.0</ele>
        <time>2018-06-16T09:25:07Z</time>
      </trkpt>
      <trkpt lat="38.2140960" lon="-3.5155850">
        <ele>445.0</ele>
        <time>2018-06-16T09:25:08Z</time>
      </trkpt>
      <trkpt lat="38.2140620" lon="-3.5155530">
        <ele>445.0</ele>
        <time>2018-06-16T09:25:09Z</time>
      </trkpt>
      <trkpt lat="38.2140290" lon="-3.5155280">
        <ele>444.8</ele>
        <time>2018-06-16T09:25:10Z</time>
      </trkpt>
      <trkpt lat="38.2139900" lon="-3.5154960">
        <ele>444.8</ele>
        <time>2018-06-16T09:25:11Z</time>
      </trkpt>
      <trkpt lat="38.2139540" lon="-3.5154630">
        <ele>445.0</ele>
        <time>2018-06-16T09:25:12Z</time>
      </trkpt>
      <trkpt lat="38.2139230" lon="-3.5154250">
        <ele>445.0</ele>
        <time>2018-06-16T09:25:13Z</time>
      </trkpt>
      <trkpt lat="38.2138920" lon="-3.5153950">
        <ele>445.2</ele>
        <time>2018-06-16T09:25:14Z</time>
      </trkpt>
      <trkpt lat="38.2138600" lon="-3.5153660">
        <ele>445.4</ele>
        <time>2018-06-16T09:25:15Z</time>
      </trkpt>
      <trkpt lat="38.2138210" lon="-3.5153290">
        <ele>445.4</ele>
        <time>2018-06-16T09:25:16Z</time>
      </trkpt>
      <trkpt lat="38.2137840" lon="-3.5152920">
        <ele>445.6</ele>
        <time>2018-06-16T09:25:17Z</time>
      </trkpt>
      <trkpt lat="38.2137440" lon="-3.5152630">
        <ele>445.6</ele>
        <time>2018-06-16T09:25:18Z</time>
      </trkpt>
      <trkpt lat="38.2137030" lon="-3.5152360">
        <ele>445.6</ele>
        <time>2018-06-16T09:25:19Z</time>
      </trkpt>
      <trkpt lat="38.2136610" lon="-3.5152070">
        <ele>445.4</ele>
        <time>2018-06-16T09:25:20Z</time>
      </trkpt>
      <trkpt lat="38.2136200" lon="-3.5151810">
        <ele>446.0</ele>
        <time>2018-06-16T09:25:21Z</time>
      </trkpt>
      <trkpt lat="38.2135790" lon="-3.5151550">
        <ele>446.0</ele>
        <time>2018-06-16T09:25:22Z</time>
      </trkpt>
      <trkpt lat="38.2135420" lon="-3.5151310">
        <ele>446.2</ele>
        <time>2018-06-16T09:25:23Z</time>
      </trkpt>
      <trkpt lat="38.2135040" lon="-3.5151070">
        <ele>446.4</ele>
        <time>2018-06-16T09:25:24Z</time>
      </trkpt>
      <trkpt lat="38.2134640" lon="-3.5150820">
        <ele>446.4</ele>
        <time>2018-06-16T09:25:25Z</time>
      </trkpt>
      <trkpt lat="38.2134250" lon="-3.5150620">
        <ele>446.6</ele>
        <time>2018-06-16T09:25:26Z</time>
      </trkpt>
      <trkpt lat="38.2133880" lon="-3.5150460">
        <ele>446.6</ele>
        <time>2018-06-16T09:25:27Z</time>
      </trkpt>
      <trkpt lat="38.2133480" lon="-3.5150260">
        <ele>446.8</ele>
        <time>2018-06-16T09:25:28Z</time>
      </trkpt>
      <trkpt lat="38.2133050" lon="-3.5149850">
        <ele>446.8</ele>
        <time>2018-06-16T09:25:29Z</time>
      </trkpt>
      <trkpt lat="38.2132630" lon="-3.5149510">
        <ele>446.8</ele>
        <time>2018-06-16T09:25:30Z</time>
      </trkpt>
      <trkpt lat="38.2132230" lon="-3.5149300">
        <ele>447.0</ele>
        <time>2018-06-16T09:25:31Z</time>
      </trkpt>
      <trkpt lat="38.2131810" lon="-3.5149020">
        <ele>447.0</ele>
        <time>2018-06-16T09:25:32Z</time>
      </trkpt>
      <trkpt lat="38.2131420" lon="-3.5148870">
        <ele>447.2</ele>
        <time>2018-06-16T09:25:33Z</time>
      </trkpt>
      <trkpt lat="38.2131050" lon="-3.5148710">
        <ele>447.4</ele>
        <time>2018-06-16T09:25:34Z</time>
      </trkpt>
      <trkpt lat="38.2130680" lon="-3.5148550">
        <ele>447.6</ele>
        <time>2018-06-16T09:25:35Z</time>
      </trkpt>
      <trkpt lat="38.2130310" lon="-3.5148390">
        <ele>447.4</ele>
        <time>2018-06-16T09:25:36Z</time>
      </trkpt>
      <trkpt lat="38.2129930" lon="-3.5148150">
        <ele>447.6</ele>
        <time>2018-06-16T09:25:37Z</time>
      </trkpt>
      <trkpt lat="38.2129600" lon="-3.5147930">
        <ele>447.6</ele>
        <time>2018-06-16T09:25:38Z</time>
      </trkpt>
      <trkpt lat="38.2129210" lon="-3.5147700">
        <ele>447.8</ele>
        <time>2018-06-16T09:25:39Z</time>
      </trkpt>
      <trkpt lat="38.2128820" lon="-3.5147500">
        <ele>447.8</ele>
        <time>2018-06-16T09:25:40Z</time>
      </trkpt>
      <trkpt lat="38.2128450" lon="-3.5147280">
        <ele>448.2</ele>
        <time>2018-06-16T09:25:41Z</time>
      </trkpt>
      <trkpt lat="38.2128100" lon="-3.5147120">
        <ele>448.4</ele>
        <time>2018-06-16T09:25:42Z</time>
      </trkpt>
      <trkpt lat="38.2127760" lon="-3.5147000">
        <ele>448.4</ele>
        <time>2018-06-16T09:25:43Z</time>
      </trkpt>
      <trkpt lat="38.2127440" lon="-3.5146870">
        <ele>448.4</ele>
        <time>2018-06-16T09:25:44Z</time>
      </trkpt>
      <trkpt lat="38.2127090" lon="-3.5146690">
        <ele>448.6</ele>
        <time>2018-06-16T09:25:45Z</time>
      </trkpt>
      <trkpt lat="38.2126710" lon="-3.5146380">
        <ele>448.6</ele>
        <time>2018-06-16T09:25:46Z</time>
      </trkpt>
      <trkpt lat="38.2126330" lon="-3.5146160">
        <ele>448.8</ele>
        <time>2018-06-16T09:25:47Z</time>
      </trkpt>
      <trkpt lat="38.2125970" lon="-3.5146010">
        <ele>448.8</ele>
        <time>2018-06-16T09:25:48Z</time>
      </trkpt>
      <trkpt lat="38.2125590" lon="-3.5145860">
        <ele>448.8</ele>
        <time>2018-06-16T09:25:49Z</time>
      </trkpt>
      <trkpt lat="38.2125230" lon="-3.5145770">
        <ele>449.0</ele>
        <time>2018-06-16T09:25:50Z</time>
      </trkpt>
      <trkpt lat="38.2124860" lon="-3.5145670">
        <ele>449.2</ele>
        <time>2018-06-16T09:25:51Z</time>
      </trkpt>
      <trkpt lat="38.2124480" lon="-3.5145460">
        <ele>449.2</ele>
        <time>2018-06-16T09:25:52Z</time>
      </trkpt>
      <trkpt lat="38.2124120" lon="-3.5145270">
        <ele>449.2</ele>
        <time>2018-06-16T09:25:53Z</time>
      </trkpt>
      <trkpt lat="38.2123760" lon="-3.5145110">
        <ele>449.6</ele>
        <time>2018-06-16T09:25:54Z</time>
      </trkpt>
      <trkpt lat="38.2123410" lon="-3.5144970">
        <ele>449.8</ele>
        <time>2018-06-16T09:25:55Z</time>
      </trkpt>
      <trkpt lat="38.2123030" lon="-3.5144720">
        <ele>449.8</ele>
        <time>2018-06-16T09:25:56Z</time>
      </trkpt>
      <trkpt lat="38.2122640" lon="-3.5144460">
        <ele>450.0</ele>
        <time>2018-06-16T09:25:57Z</time>
      </trkpt>
      <trkpt lat="38.2122280" lon="-3.5144260">
        <ele>450.0</ele>
        <time>2018-06-16T09:25:58Z</time>
      </trkpt>
      <trkpt lat="38.2121920" lon="-3.5144000">
        <ele>450.0</ele>
        <time>2018-06-16T09:25:59Z</time>
      </trkpt>
      <trkpt lat="38.2121560" lon="-3.5143820">
        <ele>450.2</ele>
        <time>2018-06-16T09:26:00Z</time>
      </trkpt>
      <trkpt lat="38.2121210" lon="-3.5143630">
        <ele>450.0</ele>
        <time>2018-06-16T09:26:01Z</time>
      </trkpt>
      <trkpt lat="38.2120830" lon="-3.5143410">
        <ele>450.4</ele>
        <time>2018-06-16T09:26:02Z</time>
      </trkpt>
      <trkpt lat="38.2120450" lon="-3.5143170">
        <ele>450.4</ele>
        <time>2018-06-16T09:26:03Z</time>
      </trkpt>
      <trkpt lat="38.2120080" lon="-3.5143030">
        <ele>450.4</ele>
        <time>2018-06-16T09:26:04Z</time>
      </trkpt>
      <trkpt lat="38.2119700" lon="-3.5142880">
        <ele>450.6</ele>
        <time>2018-06-16T09:26:05Z</time>
      </trkpt>
      <trkpt lat="38.2119330" lon="-3.5142680">
        <ele>450.6</ele>
        <time>2018-06-16T09:26:06Z</time>
      </trkpt>
      <trkpt lat="38.2118950" lon="-3.5142510">
        <ele>450.6</ele>
        <time>2018-06-16T09:26:07Z</time>
      </trkpt>
      <trkpt lat="38.2118580" lon="-3.5142310">
        <ele>450.6</ele>
        <time>2018-06-16T09:26:08Z</time>
      </trkpt>
      <trkpt lat="38.2118200" lon="-3.5142130">
        <ele>450.6</ele>
        <time>2018-06-16T09:26:09Z</time>
      </trkpt>
      <trkpt lat="38.2117800" lon="-3.5141880">
        <ele>450.6</ele>
        <time>2018-06-16T09:26:10Z</time>
      </trkpt>
      <trkpt lat="38.2117430" lon="-3.5141760">
        <ele>451.0</ele>
        <time>2018-06-16T09:26:11Z</time>
      </trkpt>
      <trkpt lat="38.2117050" lon="-3.5141590">
        <ele>451.0</ele>
        <time>2018-06-16T09:26:12Z</time>
      </trkpt>
      <trkpt lat="38.2116680" lon="-3.5141380">
        <ele>451.2</ele>
        <time>2018-06-16T09:26:13Z</time>
      </trkpt>
      <trkpt lat="38.2116310" lon="-3.5141170">
        <ele>451.2</ele>
        <time>2018-06-16T09:26:14Z</time>
      </trkpt>
      <trkpt lat="38.2115950" lon="-3.5140970">
        <ele>451.4</ele>
        <time>2018-06-16T09:26:15Z</time>
      </trkpt>
      <trkpt lat="38.2115590" lon="-3.5140740">
        <ele>451.4</ele>
        <time>2018-06-16T09:26:16Z</time>
      </trkpt>
      <trkpt lat="38.2115230" lon="-3.5140550">
        <ele>451.6</ele>
        <time>2018-06-16T09:26:17Z</time>
      </trkpt>
      <trkpt lat="38.2114870" lon="-3.5140320">
        <ele>451.6</ele>
        <time>2018-06-16T09:26:18Z</time>
      </trkpt>
      <trkpt lat="38.2114530" lon="-3.5140240">
        <ele>451.6</ele>
        <time>2018-06-16T09:26:19Z</time>
      </trkpt>
      <trkpt lat="38.2114180" lon="-3.5140090">
        <ele>451.6</ele>
        <time>2018-06-16T09:26:20Z</time>
      </trkpt>
      <trkpt lat="38.2113830" lon="-3.5139950">
        <ele>451.8</ele>
        <time>2018-06-16T09:26:21Z</time>
      </trkpt>
      <trkpt lat="38.2113500" lon="-3.5139790">
        <ele>451.8</ele>
        <time>2018-06-16T09:26:22Z</time>
      </trkpt>
      <trkpt lat="38.2113190" lon="-3.5139710">
        <ele>451.8</ele>
        <time>2018-06-16T09:26:23Z</time>
      </trkpt>
      <trkpt lat="38.2112900" lon="-3.5139670">
        <ele>452.0</ele>
        <time>2018-06-16T09:26:24Z</time>
      </trkpt>
      <trkpt lat="38.2112620" lon="-3.5139640">
        <ele>452.0</ele>
        <time>2018-06-16T09:26:25Z</time>
      </trkpt>
      <trkpt lat="38.2112360" lon="-3.5139650">
        <ele>452.0</ele>
        <time>2018-06-16T09:26:26Z</time>
      </trkpt>
      <trkpt lat="38.2112120" lon="-3.5139670">
        <ele>452.0</ele>
        <time>2018-06-16T09:26:27Z</time>
      </trkpt>
      <trkpt lat="38.2111870" lon="-3.5139710">
        <ele>452.2</ele>
        <time>2018-06-16T09:26:28Z</time>
      </trkpt>
      <trkpt lat="38.2111650" lon="-3.5139810">
        <ele>452.2</ele>
        <time>2018-06-16T09:26:29Z</time>
      </trkpt>
      <trkpt lat="38.2111420" lon="-3.5139940">
        <ele>452.4</ele>
        <time>2018-06-16T09:26:30Z</time>
      </trkpt>
      <trkpt lat="38.2111240" lon="-3.5140060">
        <ele>452.4</ele>
        <time>2018-06-16T09:26:31Z</time>
      </trkpt>
      <trkpt lat="38.2111050" lon="-3.5140160">
        <ele>452.4</ele>
        <time>2018-06-16T09:26:32Z</time>
      </trkpt>
      <trkpt lat="38.2110860" lon="-3.5140200">
        <ele>452.4</ele>
        <time>2018-06-16T09:26:33Z</time>
      </trkpt>
      <trkpt lat="38.2110720" lon="-3.5140230">
        <ele>452.4</ele>
        <time>2018-06-16T09:26:34Z</time>
      </trkpt>
      <trkpt lat="38.2110630" lon="-3.5140220">
        <ele>452.4</ele>
        <time>2018-06-16T09:26:35Z</time>
      </trkpt>
      <trkpt lat="38.2110610" lon="-3.5140170">
        <ele>452.4</ele>
        <time>2018-06-16T09:26:36Z</time>
      </trkpt>
      <trkpt lat="38.2110570" lon="-3.5140120">
        <ele>452.4</ele>
        <time>2018-06-16T09:26:37Z</time>
      </trkpt>
      <trkpt lat="38.2110520" lon="-3.5140030">
        <ele>452.4</ele>
        <time>2018-06-16T09:26:38Z</time>
      </trkpt>
      <trkpt lat="38.2110560" lon="-3.5140050">
        <ele>452.4</ele>
        <time>2018-06-16T09:26:39Z</time>
      </trkpt>
      <trkpt lat="38.2110580" lon="-3.5140100">
        <ele>452.6</ele>
        <time>2018-06-16T09:26:40Z</time>
      </trkpt>
      <trkpt lat="38.2110560" lon="-3.5140150">
        <ele>452.4</ele>
        <time>2018-06-16T09:26:41Z</time>
      </trkpt>
      <trkpt lat="38.2110560" lon="-3.5140180">
        <ele>452.4</ele>
        <time>2018-06-16T09:26:42Z</time>
      </trkpt>
      <trkpt lat="38.2110550" lon="-3.5140200">
        <ele>452.4</ele>
        <time>2018-06-16T09:26:43Z</time>
      </trkpt>
      <trkpt lat="38.2110550" lon="-3.5140220">
        <ele>452.4</ele>
        <time>2018-06-16T09:26:44Z</time>
      </trkpt>
      <trkpt lat="38.2110540" lon="-3.5140230">
        <ele>452.4</ele>
        <time>2018-06-16T09:26:45Z</time>
      </trkpt>
      <trkpt lat="38.2110520" lon="-3.5140240">
        <ele>452.4</ele>
        <time>2018-06-16T09:26:46Z</time>
      </trkpt>
      <trkpt lat="38.2109580" lon="-3.5138620">
        <ele>452.2</ele>
        <time>2018-06-16T09:32:07Z</time>
      </trkpt>
      <trkpt lat="38.2109460" lon="-3.5138670">
        <ele>452.2</ele>
        <time>2018-06-16T09:32:08Z</time>
      </trkpt>
      <trkpt lat="38.2109310" lon="-3.5138690">
        <ele>452.2</ele>
        <time>2018-06-16T09:32:09Z</time>
      </trkpt>
      <trkpt lat="38.2109170" lon="-3.5138730">
        <ele>452.2</ele>
        <time>2018-06-16T09:32:10Z</time>
      </trkpt>
      <trkpt lat="38.2108990" lon="-3.5138730">
        <ele>452.4</ele>
        <time>2018-06-16T09:32:11Z</time>
      </trkpt>
      <trkpt lat="38.2108780" lon="-3.5138740">
        <ele>452.4</ele>
        <time>2018-06-16T09:32:12Z</time>
      </trkpt>
      <trkpt lat="38.2108560" lon="-3.5138780">
        <ele>452.4</ele>
        <time>2018-06-16T09:32:13Z</time>
      </trkpt>
      <trkpt lat="38.2108330" lon="-3.5138770">
        <ele>452.6</ele>
        <time>2018-06-16T09:32:14Z</time>
      </trkpt>
      <trkpt lat="38.2108080" lon="-3.5138760">
        <ele>452.8</ele>
        <time>2018-06-16T09:32:15Z</time>
      </trkpt>
      <trkpt lat="38.2107840" lon="-3.5138750">
        <ele>453.0</ele>
        <time>2018-06-16T09:32:16Z</time>
      </trkpt>
      <trkpt lat="38.2107570" lon="-3.5138690">
        <ele>453.0</ele>
        <time>2018-06-16T09:32:17Z</time>
      </trkpt>
      <trkpt lat="38.2107310" lon="-3.5138630">
        <ele>453.2</ele>
        <time>2018-06-16T09:32:18Z</time>
      </trkpt>
      <trkpt lat="38.2107060" lon="-3.5138610">
        <ele>453.2</ele>
        <time>2018-06-16T09:32:19Z</time>
      </trkpt>
      <trkpt lat="38.2106810" lon="-3.5138600">
        <ele>453.4</ele>
        <time>2018-06-16T09:32:20Z</time>
      </trkpt>
      <trkpt lat="38.2106530" lon="-3.5138560">
        <ele>453.6</ele>
        <time>2018-06-16T09:32:21Z</time>
      </trkpt>
      <trkpt lat="38.2106270" lon="-3.5138490">
        <ele>453.6</ele>
        <time>2018-06-16T09:32:22Z</time>
      </trkpt>
      <trkpt lat="38.2106090" lon="-3.5138600">
        <ele>453.6</ele>
        <time>2018-06-16T09:32:23Z</time>
      </trkpt>
      <trkpt lat="38.2105860" lon="-3.5138490">
        <ele>453.8</ele>
        <time>2018-06-16T09:32:24Z</time>
      </trkpt>
      <trkpt lat="38.2105600" lon="-3.5138290">
        <ele>453.8</ele>
        <time>2018-06-16T09:32:25Z</time>
      </trkpt>
      <trkpt lat="38.2105340" lon="-3.5138210">
        <ele>454.0</ele>
        <time>2018-06-16T09:32:26Z</time>
      </trkpt>
      <trkpt lat="38.2105080" lon="-3.5138110">
        <ele>454.2</ele>
        <time>2018-06-16T09:32:27Z</time>
      </trkpt>
      <trkpt lat="38.2104830" lon="-3.5137990">
        <ele>454.2</ele>
        <time>2018-06-16T09:32:28Z</time>
      </trkpt>
      <trkpt lat="38.2104550" lon="-3.5137880">
        <ele>454.4</ele>
        <time>2018-06-16T09:32:29Z</time>
      </trkpt>
      <trkpt lat="38.2104310" lon="-3.5137720">
        <ele>454.4</ele>
        <time>2018-06-16T09:32:30Z</time>
      </trkpt>
      <trkpt lat="38.2104110" lon="-3.5137640">
        <ele>454.6</ele>
        <time>2018-06-16T09:32:31Z</time>
      </trkpt>
      <trkpt lat="38.2103890" lon="-3.5137510">
        <ele>454.8</ele>
        <time>2018-06-16T09:32:32Z</time>
      </trkpt>
      <trkpt lat="38.2103660" lon="-3.5137340">
        <ele>454.8</ele>
        <time>2018-06-16T09:32:33Z</time>
      </trkpt>
      <trkpt lat="38.2103430" lon="-3.5137230">
        <ele>455.0</ele>
        <time>2018-06-16T09:32:34Z</time>
      </trkpt>
      <trkpt lat="38.2103190" lon="-3.5137080">
        <ele>455.0</ele>
        <time>2018-06-16T09:32:35Z</time>
      </trkpt>
      <trkpt lat="38.2102950" lon="-3.5136950">
        <ele>455.2</ele>
        <time>2018-06-16T09:32:36Z</time>
      </trkpt>
      <trkpt lat="38.2102700" lon="-3.5136810">
        <ele>455.2</ele>
        <time>2018-06-16T09:32:37Z</time>
      </trkpt>
      <trkpt lat="38.2102460" lon="-3.5136700">
        <ele>455.6</ele>
        <time>2018-06-16T09:32:38Z</time>
      </trkpt>
      <trkpt lat="38.2102200" lon="-3.5136520">
        <ele>455.8</ele>
        <time>2018-06-16T09:32:39Z</time>
      </trkpt>
      <trkpt lat="38.2101950" lon="-3.5136340">
        <ele>456.0</ele>
        <time>2018-06-16T09:32:40Z</time>
      </trkpt>
      <trkpt lat="38.2101700" lon="-3.5136170">
        <ele>456.0</ele>
        <time>2018-06-16T09:32:41Z</time>
      </trkpt>
      <trkpt lat="38.2101460" lon="-3.5135990">
        <ele>456.2</ele>
        <time>2018-06-16T09:32:42Z</time>
      </trkpt>
      <trkpt lat="38.2101230" lon="-3.5135850">
        <ele>456.4</ele>
        <time>2018-06-16T09:32:43Z</time>
      </trkpt>
      <trkpt lat="38.2101000" lon="-3.5135760">
        <ele>456.4</ele>
        <time>2018-06-16T09:32:44Z</time>
      </trkpt>
      <trkpt lat="38.2100770" lon="-3.5135650">
        <ele>456.4</ele>
        <time>2018-06-16T09:32:45Z</time>
      </trkpt>
      <trkpt lat="38.2100520" lon="-3.5135540">
        <ele>456.6</ele>
        <time>2018-06-16T09:32:46Z</time>
      </trkpt>
      <trkpt lat="38.2100280" lon="-3.5135410">
        <ele>456.8</ele>
        <time>2018-06-16T09:32:47Z</time>
      </trkpt>
      <trkpt lat="38.2100070" lon="-3.5135290">
        <ele>456.8</ele>
        <time>2018-06-16T09:32:48Z</time>
      </trkpt>
      <trkpt lat="38.2099830" lon="-3.5135160">
        <ele>457.0</ele>
        <time>2018-06-16T09:32:49Z</time>
      </trkpt>
      <trkpt lat="38.2099590" lon="-3.5135060">
        <ele>457.2</ele>
        <time>2018-06-16T09:32:50Z</time>
      </trkpt>
      <trkpt lat="38.2099360" lon="-3.5134900">
        <ele>457.4</ele>
        <time>2018-06-16T09:32:51Z</time>
      </trkpt>
      <trkpt lat="38.2099130" lon="-3.5134780">
        <ele>457.6</ele>
        <time>2018-06-16T09:32:52Z</time>
      </trkpt>
      <trkpt lat="38.2098900" lon="-3.5134690">
        <ele>457.8</ele>
        <time>2018-06-16T09:32:53Z</time>
      </trkpt>
      <trkpt lat="38.2098670" lon="-3.5134600">
        <ele>458.0</ele>
        <time>2018-06-16T09:32:54Z</time>
      </trkpt>
      <trkpt lat="38.2098440" lon="-3.5134520">
        <ele>458.2</ele>
        <time>2018-06-16T09:32:55Z</time>
      </trkpt>
      <trkpt lat="38.2098210" lon="-3.5134390">
        <ele>458.2</ele>
        <time>2018-06-16T09:32:56Z</time>
      </trkpt>
      <trkpt lat="38.2097980" lon="-3.5134260">
        <ele>458.4</ele>
        <time>2018-06-16T09:32:57Z</time>
      </trkpt>
      <trkpt lat="38.2097750" lon="-3.5134100">
        <ele>458.6</ele>
        <time>2018-06-16T09:32:58Z</time>
      </trkpt>
      <trkpt lat="38.2097510" lon="-3.5133960">
        <ele>458.8</ele>
        <time>2018-06-16T09:32:59Z</time>
      </trkpt>
      <trkpt lat="38.2097260" lon="-3.5133920">
        <ele>459.0</ele>
        <time>2018-06-16T09:33:00Z</time>
      </trkpt>
      <trkpt lat="38.2096990" lon="-3.5133840">
        <ele>459.2</ele>
        <time>2018-06-16T09:33:01Z</time>
      </trkpt>
      <trkpt lat="38.2096790" lon="-3.5133990">
        <ele>459.2</ele>
        <time>2018-06-16T09:33:02Z</time>
      </trkpt>
      <trkpt lat="38.2096610" lon="-3.5134130">
        <ele>459.4</ele>
        <time>2018-06-16T09:33:03Z</time>
      </trkpt>
      <trkpt lat="38.2096440" lon="-3.5134270">
        <ele>459.4</ele>
        <time>2018-06-16T09:33:04Z</time>
      </trkpt>
      <trkpt lat="38.2096280" lon="-3.5134460">
        <ele>459.4</ele>
        <time>2018-06-16T09:33:05Z</time>
      </trkpt>
      <trkpt lat="38.2096070" lon="-3.5134850">
        <ele>459.6</ele>
        <time>2018-06-16T09:33:06Z</time>
      </trkpt>
      <trkpt lat="38.2095990" lon="-3.5134990">
        <ele>459.6</ele>
        <time>2018-06-16T09:33:07Z</time>
      </trkpt>
      <trkpt lat="38.2095840" lon="-3.5135250">
        <ele>459.6</ele>
        <time>2018-06-16T09:33:08Z</time>
      </trkpt>
      <trkpt lat="38.2095680" lon="-3.5135510">
        <ele>459.6</ele>
        <time>2018-06-16T09:33:09Z</time>
      </trkpt>
      <trkpt lat="38.2095530" lon="-3.5135830">
        <ele>459.8</ele>
        <time>2018-06-16T09:33:10Z</time>
      </trkpt>
      <trkpt lat="38.2095350" lon="-3.5136170">
        <ele>459.6</ele>
        <time>2018-06-16T09:33:11Z</time>
      </trkpt>
      <trkpt lat="38.2095190" lon="-3.5136430">
        <ele>459.6</ele>
        <time>2018-06-16T09:33:12Z</time>
      </trkpt>
      <trkpt lat="38.2095040" lon="-3.5136690">
        <ele>459.8</ele>
        <time>2018-06-16T09:33:13Z</time>
      </trkpt>
      <trkpt lat="38.2094860" lon="-3.5137000">
        <ele>459.8</ele>
        <time>2018-06-16T09:33:14Z</time>
      </trkpt>
      <trkpt lat="38.2094690" lon="-3.5137300">
        <ele>459.8</ele>
        <time>2018-06-16T09:33:15Z</time>
      </trkpt>
      <trkpt lat="38.2094520" lon="-3.5137730">
        <ele>460.0</ele>
        <time>2018-06-16T09:33:16Z</time>
      </trkpt>
      <trkpt lat="38.2094360" lon="-3.5138110">
        <ele>460.0</ele>
        <time>2018-06-16T09:33:17Z</time>
      </trkpt>
      <trkpt lat="38.2094200" lon="-3.5138460">
        <ele>460.0</ele>
        <time>2018-06-16T09:33:18Z</time>
      </trkpt>
      <trkpt lat="38.2094040" lon="-3.5138810">
        <ele>460.0</ele>
        <time>2018-06-16T09:33:19Z</time>
      </trkpt>
      <trkpt lat="38.2093860" lon="-3.5139210">
        <ele>459.8</ele>
        <time>2018-06-16T09:33:20Z</time>
      </trkpt>
      <trkpt lat="38.2093690" lon="-3.5139520">
        <ele>460.0</ele>
        <time>2018-06-16T09:33:21Z</time>
      </trkpt>
      <trkpt lat="38.2093590" lon="-3.5139680">
        <ele>460.0</ele>
        <time>2018-06-16T09:33:22Z</time>
      </trkpt>
      <trkpt lat="38.2093520" lon="-3.5139810">
        <ele>460.0</ele>
        <time>2018-06-16T09:33:23Z</time>
      </trkpt>
      <trkpt lat="38.2093460" lon="-3.5139950">
        <ele>460.0</ele>
        <time>2018-06-16T09:33:24Z</time>
      </trkpt>
      <trkpt lat="38.2093380" lon="-3.5140090">
        <ele>460.0</ele>
        <time>2018-06-16T09:33:25Z</time>
      </trkpt>
      <trkpt lat="38.2093280" lon="-3.5140290">
        <ele>460.0</ele>
        <time>2018-06-16T09:33:26Z</time>
      </trkpt>
      <trkpt lat="38.2093210" lon="-3.5140230">
        <ele>460.0</ele>
        <time>2018-06-16T09:33:27Z</time>
      </trkpt>
      <trkpt lat="38.2093120" lon="-3.5140380">
        <ele>460.0</ele>
        <time>2018-06-16T09:33:28Z</time>
      </trkpt>
      <trkpt lat="38.2092990" lon="-3.5140720">
        <ele>460.0</ele>
        <time>2018-06-16T09:33:29Z</time>
      </trkpt>
      <trkpt lat="38.2092840" lon="-3.5141170">
        <ele>460.2</ele>
        <time>2018-06-16T09:33:30Z</time>
      </trkpt>
      <trkpt lat="38.2092680" lon="-3.5141660">
        <ele>460.0</ele>
        <time>2018-06-16T09:33:31Z</time>
      </trkpt>
      <trkpt lat="38.2092520" lon="-3.5142180">
        <ele>460.0</ele>
        <time>2018-06-16T09:33:32Z</time>
      </trkpt>
      <trkpt lat="38.2092350" lon="-3.5142710">
        <ele>460.0</ele>
        <time>2018-06-16T09:33:33Z</time>
      </trkpt>
      <trkpt lat="38.2092140" lon="-3.5143270">
        <ele>460.0</ele>
        <time>2018-06-16T09:33:34Z</time>
      </trkpt>
      <trkpt lat="38.2091940" lon="-3.5143770">
        <ele>459.8</ele>
        <time>2018-06-16T09:33:35Z</time>
      </trkpt>
      <trkpt lat="38.2091750" lon="-3.5144270">
        <ele>459.8</ele>
        <time>2018-06-16T09:33:36Z</time>
      </trkpt>
      <trkpt lat="38.2091550" lon="-3.5144860">
        <ele>459.6</ele>
        <time>2018-06-16T09:33:37Z</time>
      </trkpt>
      <trkpt lat="38.2091340" lon="-3.5145500">
        <ele>459.6</ele>
        <time>2018-06-16T09:33:38Z</time>
      </trkpt>
      <trkpt lat="38.2091150" lon="-3.5146110">
        <ele>459.8</ele>
        <time>2018-06-16T09:33:39Z</time>
      </trkpt>
      <trkpt lat="38.2090930" lon="-3.5146750">
        <ele>459.6</ele>
        <time>2018-06-16T09:33:40Z</time>
      </trkpt>
      <trkpt lat="38.2090720" lon="-3.5147410">
        <ele>459.6</ele>
        <time>2018-06-16T09:33:41Z</time>
      </trkpt>
      <trkpt lat="38.2090490" lon="-3.5148160">
        <ele>459.4</ele>
        <time>2018-06-16T09:33:42Z</time>
      </trkpt>
      <trkpt lat="38.2090280" lon="-3.5148830">
        <ele>459.4</ele>
        <time>2018-06-16T09:33:43Z</time>
      </trkpt>
      <trkpt lat="38.2090070" lon="-3.5149500">
        <ele>459.4</ele>
        <time>2018-06-16T09:33:44Z</time>
      </trkpt>
      <trkpt lat="38.2089850" lon="-3.5150130">
        <ele>459.4</ele>
        <time>2018-06-16T09:33:45Z</time>
      </trkpt>
      <trkpt lat="38.2089620" lon="-3.5150810">
        <ele>459.6</ele>
        <time>2018-06-16T09:33:46Z</time>
      </trkpt>
      <trkpt lat="38.2089380" lon="-3.5151510">
        <ele>459.6</ele>
        <time>2018-06-16T09:33:47Z</time>
      </trkpt>
      <trkpt lat="38.2089160" lon="-3.5152200">
        <ele>459.4</ele>
        <time>2018-06-16T09:33:48Z</time>
      </trkpt>
      <trkpt lat="38.2088940" lon="-3.5152910">
        <ele>459.6</ele>
        <time>2018-06-16T09:33:49Z</time>
      </trkpt>
      <trkpt lat="38.2088720" lon="-3.5153620">
        <ele>459.6</ele>
        <time>2018-06-16T09:33:50Z</time>
      </trkpt>
      <trkpt lat="38.2088530" lon="-3.5154310">
        <ele>459.4</ele>
        <time>2018-06-16T09:33:51Z</time>
      </trkpt>
      <trkpt lat="38.2088420" lon="-3.5155050">
        <ele>459.4</ele>
        <time>2018-06-16T09:33:52Z</time>
      </trkpt>
      <trkpt lat="38.2088340" lon="-3.5155750">
        <ele>459.2</ele>
        <time>2018-06-16T09:33:53Z</time>
      </trkpt>
      <trkpt lat="38.2088280" lon="-3.5156480">
        <ele>459.4</ele>
        <time>2018-06-16T09:33:54Z</time>
      </trkpt>
      <trkpt lat="38.2088230" lon="-3.5157190">
        <ele>459.2</ele>
        <time>2018-06-16T09:33:55Z</time>
      </trkpt>
      <trkpt lat="38.2088170" lon="-3.5157910">
        <ele>459.0</ele>
        <time>2018-06-16T09:33:56Z</time>
      </trkpt>
      <trkpt lat="38.2088090" lon="-3.5158660">
        <ele>458.6</ele>
        <time>2018-06-16T09:33:57Z</time>
      </trkpt>
      <trkpt lat="38.2087990" lon="-3.5159500">
        <ele>458.6</ele>
        <time>2018-06-16T09:33:58Z</time>
      </trkpt>
      <trkpt lat="38.2087920" lon="-3.5160320">
        <ele>458.2</ele>
        <time>2018-06-16T09:33:59Z</time>
      </trkpt>
      <trkpt lat="38.2087840" lon="-3.5161190">
        <ele>458.0</ele>
        <time>2018-06-16T09:34:00Z</time>
      </trkpt>
      <trkpt lat="38.2087770" lon="-3.5162080">
        <ele>457.4</ele>
        <time>2018-06-16T09:34:01Z</time>
      </trkpt>
      <trkpt lat="38.2087720" lon="-3.5162980">
        <ele>457.2</ele>
        <time>2018-06-16T09:34:02Z</time>
      </trkpt>
      <trkpt lat="38.2087690" lon="-3.5163920">
        <ele>456.6</ele>
        <time>2018-06-16T09:34:03Z</time>
      </trkpt>
      <trkpt lat="38.2087640" lon="-3.5164910">
        <ele>456.2</ele>
        <time>2018-06-16T09:34:04Z</time>
      </trkpt>
      <trkpt lat="38.2087600" lon="-3.5165920">
        <ele>456.0</ele>
        <time>2018-06-16T09:34:05Z</time>
      </trkpt>
      <trkpt lat="38.2087570" lon="-3.5166940">
        <ele>455.8</ele>
        <time>2018-06-16T09:34:06Z</time>
      </trkpt>
      <trkpt lat="38.2087540" lon="-3.5167990">
        <ele>455.2</ele>
        <time>2018-06-16T09:34:07Z</time>
      </trkpt>
      <trkpt lat="38.2087480" lon="-3.5169040">
        <ele>455.2</ele>
        <time>2018-06-16T09:34:08Z</time>
      </trkpt>
      <trkpt lat="38.2087380" lon="-3.5170120">
        <ele>454.6</ele>
        <time>2018-06-16T09:34:09Z</time>
      </trkpt>
      <trkpt lat="38.2087280" lon="-3.5171220">
        <ele>454.6</ele>
        <time>2018-06-16T09:34:10Z</time>
      </trkpt>
      <trkpt lat="38.2087160" lon="-3.5172330">
        <ele>454.0</ele>
        <time>2018-06-16T09:34:11Z</time>
      </trkpt>
      <trkpt lat="38.2086980" lon="-3.5173420">
        <ele>453.8</ele>
        <time>2018-06-16T09:34:12Z</time>
      </trkpt>
      <trkpt lat="38.2086740" lon="-3.5174540">
        <ele>453.6</ele>
        <time>2018-06-16T09:34:13Z</time>
      </trkpt>
      <trkpt lat="38.2086440" lon="-3.5175620">
        <ele>453.0</ele>
        <time>2018-06-16T09:34:14Z</time>
      </trkpt>
      <trkpt lat="38.2086050" lon="-3.5176680">
        <ele>452.2</ele>
        <time>2018-06-16T09:34:15Z</time>
      </trkpt>
      <trkpt lat="38.2085560" lon="-3.5177680">
        <ele>451.6</ele>
        <time>2018-06-16T09:34:16Z</time>
      </trkpt>
      <trkpt lat="38.2084960" lon="-3.5178600">
        <ele>450.6</ele>
        <time>2018-06-16T09:34:17Z</time>
      </trkpt>
      <trkpt lat="38.2084280" lon="-3.5179430">
        <ele>450.4</ele>
        <time>2018-06-16T09:34:18Z</time>
      </trkpt>
      <trkpt lat="38.2083500" lon="-3.5180160">
        <ele>450.0</ele>
        <time>2018-06-16T09:34:19Z</time>
      </trkpt>
      <trkpt lat="38.2082660" lon="-3.5180830">
        <ele>449.0</ele>
        <time>2018-06-16T09:34:20Z</time>
      </trkpt>
      <trkpt lat="38.2081810" lon="-3.5181530">
        <ele>448.4</ele>
        <time>2018-06-16T09:34:21Z</time>
      </trkpt>
      <trkpt lat="38.2080990" lon="-3.5182320">
        <ele>447.6</ele>
        <time>2018-06-16T09:34:22Z</time>
      </trkpt>
      <trkpt lat="38.2080210" lon="-3.5183220">
        <ele>446.6</ele>
        <time>2018-06-16T09:34:23Z</time>
      </trkpt>
      <trkpt lat="38.2079490" lon="-3.5184230">
        <ele>446.2</ele>
        <time>2018-06-16T09:34:24Z</time>
      </trkpt>
      <trkpt lat="38.2078780" lon="-3.5185300">
        <ele>445.6</ele>
        <time>2018-06-16T09:34:25Z</time>
      </trkpt>
      <trkpt lat="38.2078080" lon="-3.5186380">
        <ele>444.6</ele>
        <time>2018-06-16T09:34:26Z</time>
      </trkpt>
      <trkpt lat="38.2077360" lon="-3.5187470">
        <ele>443.8</ele>
        <time>2018-06-16T09:34:27Z</time>
      </trkpt>
      <trkpt lat="38.2076630" lon="-3.5188580">
        <ele>443.0</ele>
        <time>2018-06-16T09:34:28Z</time>
      </trkpt>
      <trkpt lat="38.2075900" lon="-3.5189710">
        <ele>442.4</ele>
        <time>2018-06-16T09:34:29Z</time>
      </trkpt>
      <trkpt lat="38.2075160" lon="-3.5190830">
        <ele>441.6</ele>
        <time>2018-06-16T09:34:30Z</time>
      </trkpt>
      <trkpt lat="38.2074420" lon="-3.5191950">
        <ele>441.4</ele>
        <time>2018-06-16T09:34:31Z</time>
      </trkpt>
      <trkpt lat="38.2073680" lon="-3.5193050">
        <ele>441.6</ele>
        <time>2018-06-16T09:34:32Z</time>
      </trkpt>
      <trkpt lat="38.2072960" lon="-3.5194130">
        <ele>441.4</ele>
        <time>2018-06-16T09:34:33Z</time>
      </trkpt>
      <trkpt lat="38.2072270" lon="-3.5195230">
        <ele>441.0</ele>
        <time>2018-06-16T09:34:34Z</time>
      </trkpt>
      <trkpt lat="38.2071630" lon="-3.5196330">
        <ele>441.0</ele>
        <time>2018-06-16T09:34:35Z</time>
      </trkpt>
      <trkpt lat="38.2071060" lon="-3.5197440">
        <ele>441.4</ele>
        <time>2018-06-16T09:34:36Z</time>
      </trkpt>
      <trkpt lat="38.2070560" lon="-3.5198550">
        <ele>441.6</ele>
        <time>2018-06-16T09:34:37Z</time>
      </trkpt>
      <trkpt lat="38.2070120" lon="-3.5199660">
        <ele>441.8</ele>
        <time>2018-06-16T09:34:38Z</time>
      </trkpt>
      <trkpt lat="38.2069720" lon="-3.5200720">
        <ele>441.8</ele>
        <time>2018-06-16T09:34:39Z</time>
      </trkpt>
      <trkpt lat="38.2069340" lon="-3.5201700">
        <ele>442.4</ele>
        <time>2018-06-16T09:34:40Z</time>
      </trkpt>
      <trkpt lat="38.2068990" lon="-3.5202630">
        <ele>442.6</ele>
        <time>2018-06-16T09:34:41Z</time>
      </trkpt>
      <trkpt lat="38.2068680" lon="-3.5203530">
        <ele>442.8</ele>
        <time>2018-06-16T09:34:42Z</time>
      </trkpt>
      <trkpt lat="38.2068390" lon="-3.5204400">
        <ele>443.4</ele>
        <time>2018-06-16T09:34:43Z</time>
      </trkpt>
      <trkpt lat="38.2068110" lon="-3.5205250">
        <ele>443.8</ele>
        <time>2018-06-16T09:34:44Z</time>
      </trkpt>
      <trkpt lat="38.2067840" lon="-3.5206060">
        <ele>443.6</ele>
        <time>2018-06-16T09:34:45Z</time>
      </trkpt>
      <trkpt lat="38.2067580" lon="-3.5206850">
        <ele>444.2</ele>
        <time>2018-06-16T09:34:46Z</time>
      </trkpt>
      <trkpt lat="38.2067320" lon="-3.5207590">
        <ele>444.0</ele>
        <time>2018-06-16T09:34:47Z</time>
      </trkpt>
      <trkpt lat="38.2067050" lon="-3.5208300">
        <ele>444.2</ele>
        <time>2018-06-16T09:34:48Z</time>
      </trkpt>
      <trkpt lat="38.2066760" lon="-3.5208970">
        <ele>444.2</ele>
        <time>2018-06-16T09:34:49Z</time>
      </trkpt>
      <trkpt lat="38.2066460" lon="-3.5209630">
        <ele>444.6</ele>
        <time>2018-06-16T09:34:50Z</time>
      </trkpt>
      <trkpt lat="38.2066130" lon="-3.5210240">
        <ele>444.8</ele>
        <time>2018-06-16T09:34:51Z</time>
      </trkpt>
      <trkpt lat="38.2065780" lon="-3.5210810">
        <ele>445.0</ele>
        <time>2018-06-16T09:34:52Z</time>
      </trkpt>
      <trkpt lat="38.2065410" lon="-3.5211340">
        <ele>445.2</ele>
        <time>2018-06-16T09:34:53Z</time>
      </trkpt>
      <trkpt lat="38.2065010" lon="-3.5211810">
        <ele>445.4</ele>
        <time>2018-06-16T09:34:54Z</time>
      </trkpt>
      <trkpt lat="38.2064590" lon="-3.5212250">
        <ele>445.4</ele>
        <time>2018-06-16T09:34:55Z</time>
      </trkpt>
      <trkpt lat="38.2064140" lon="-3.5212660">
        <ele>445.6</ele>
        <time>2018-06-16T09:34:56Z</time>
      </trkpt>
      <trkpt lat="38.2063710" lon="-3.5213060">
        <ele>445.8</ele>
        <time>2018-06-16T09:34:57Z</time>
      </trkpt>
      <trkpt lat="38.2063270" lon="-3.5213420">
        <ele>446.2</ele>
        <time>2018-06-16T09:34:58Z</time>
      </trkpt>
      <trkpt lat="38.2062800" lon="-3.5213780">
        <ele>446.2</ele>
        <time>2018-06-16T09:34:59Z</time>
      </trkpt>
      <trkpt lat="38.2062340" lon="-3.5214120">
        <ele>446.4</ele>
        <time>2018-06-16T09:35:00Z</time>
      </trkpt>
      <trkpt lat="38.2061890" lon="-3.5214460">
        <ele>446.6</ele>
        <time>2018-06-16T09:35:01Z</time>
      </trkpt>
      <trkpt lat="38.2061430" lon="-3.5214800">
        <ele>446.6</ele>
        <time>2018-06-16T09:35:02Z</time>
      </trkpt>
      <trkpt lat="38.2060970" lon="-3.5215130">
        <ele>446.4</ele>
        <time>2018-06-16T09:35:03Z</time>
      </trkpt>
      <trkpt lat="38.2060490" lon="-3.5215430">
        <ele>446.6</ele>
        <time>2018-06-16T09:35:04Z</time>
      </trkpt>
      <trkpt lat="38.2060020" lon="-3.5215740">
        <ele>446.8</ele>
        <time>2018-06-16T09:35:05Z</time>
      </trkpt>
      <trkpt lat="38.2059560" lon="-3.5216050">
        <ele>446.6</ele>
        <time>2018-06-16T09:35:06Z</time>
      </trkpt>
      <trkpt lat="38.2059080" lon="-3.5216360">
        <ele>447.0</ele>
        <time>2018-06-16T09:35:07Z</time>
      </trkpt>
      <trkpt lat="38.2058610" lon="-3.5216670">
        <ele>447.0</ele>
        <time>2018-06-16T09:35:08Z</time>
      </trkpt>
      <trkpt lat="38.2058120" lon="-3.5217000">
        <ele>447.0</ele>
        <time>2018-06-16T09:35:09Z</time>
      </trkpt>
      <trkpt lat="38.2057640" lon="-3.5217320">
        <ele>446.8</ele>
        <time>2018-06-16T09:35:10Z</time>
      </trkpt>
      <trkpt lat="38.2057130" lon="-3.5217660">
        <ele>446.8</ele>
        <time>2018-06-16T09:35:11Z</time>
      </trkpt>
      <trkpt lat="38.2056620" lon="-3.5218000">
        <ele>447.0</ele>
        <time>2018-06-16T09:35:12Z</time>
      </trkpt>
      <trkpt lat="38.2056110" lon="-3.5218340">
        <ele>447.0</ele>
        <time>2018-06-16T09:35:13Z</time>
      </trkpt>
      <trkpt lat="38.2055580" lon="-3.5218660">
        <ele>447.0</ele>
        <time>2018-06-16T09:35:14Z</time>
      </trkpt>
      <trkpt lat="38.2055060" lon="-3.5219000">
        <ele>446.8</ele>
        <time>2018-06-16T09:35:15Z</time>
      </trkpt>
      <trkpt lat="38.2054550" lon="-3.5219360">
        <ele>446.8</ele>
        <time>2018-06-16T09:35:16Z</time>
      </trkpt>
      <trkpt lat="38.2054020" lon="-3.5219710">
        <ele>446.8</ele>
        <time>2018-06-16T09:35:17Z</time>
      </trkpt>
      <trkpt lat="38.2053470" lon="-3.5220050">
        <ele>446.8</ele>
        <time>2018-06-16T09:35:18Z</time>
      </trkpt>
      <trkpt lat="38.2052930" lon="-3.5220390">
        <ele>446.8</ele>
        <time>2018-06-16T09:35:19Z</time>
      </trkpt>
      <trkpt lat="38.2052380" lon="-3.5220740">
        <ele>446.4</ele>
        <time>2018-06-16T09:35:20Z</time>
      </trkpt>
      <trkpt lat="38.2051850" lon="-3.5221110">
        <ele>446.4</ele>
        <time>2018-06-16T09:35:21Z</time>
      </trkpt>
      <trkpt lat="38.2051290" lon="-3.5221460">
        <ele>446.6</ele>
        <time>2018-06-16T09:35:22Z</time>
      </trkpt>
      <trkpt lat="38.2050710" lon="-3.5221780">
        <ele>446.2</ele>
        <time>2018-06-16T09:35:23Z</time>
      </trkpt>
      <trkpt lat="38.2050130" lon="-3.5222100">
        <ele>446.0</ele>
        <time>2018-06-16T09:35:24Z</time>
      </trkpt>
      <trkpt lat="38.2049570" lon="-3.5222460">
        <ele>446.2</ele>
        <time>2018-06-16T09:35:25Z</time>
      </trkpt>
      <trkpt lat="38.2049020" lon="-3.5222840">
        <ele>446.0</ele>
        <time>2018-06-16T09:35:26Z</time>
      </trkpt>
      <trkpt lat="38.2048470" lon="-3.5223210">
        <ele>445.8</ele>
        <time>2018-06-16T09:35:27Z</time>
      </trkpt>
      <trkpt lat="38.2047920" lon="-3.5223580">
        <ele>446.0</ele>
        <time>2018-06-16T09:35:28Z</time>
      </trkpt>
      <trkpt lat="38.2047370" lon="-3.5223930">
        <ele>448.8</ele>
        <time>2018-06-16T09:35:30Z</time>
      </trkpt>
      <trkpt lat="38.2046820" lon="-3.5224260">
        <ele>445.6</ele>
        <time>2018-06-16T09:35:31Z</time>
      </trkpt>
      <trkpt lat="38.2045670" lon="-3.5224870">
        <ele>446.2</ele>
        <time>2018-06-16T09:35:32Z</time>
      </trkpt>
      <trkpt lat="38.2045100" lon="-3.5225150">
        <ele>445.8</ele>
        <time>2018-06-16T09:35:33Z</time>
      </trkpt>
      <trkpt lat="38.2044500" lon="-3.5225390">
        <ele>445.8</ele>
        <time>2018-06-16T09:35:34Z</time>
      </trkpt>
      <trkpt lat="38.2043880" lon="-3.5225600">
        <ele>445.4</ele>
        <time>2018-06-16T09:35:35Z</time>
      </trkpt>
      <trkpt lat="38.2043240" lon="-3.5225760">
        <ele>445.0</ele>
        <time>2018-06-16T09:35:36Z</time>
      </trkpt>
      <trkpt lat="38.2042580" lon="-3.5225890">
        <ele>445.0</ele>
        <time>2018-06-16T09:35:37Z</time>
      </trkpt>
      <trkpt lat="38.2041890" lon="-3.5225960">
        <ele>444.6</ele>
        <time>2018-06-16T09:35:38Z</time>
      </trkpt>
      <trkpt lat="38.2041180" lon="-3.5226020">
        <ele>444.8</ele>
        <time>2018-06-16T09:35:39Z</time>
      </trkpt>
      <trkpt lat="38.2040440" lon="-3.5225990">
        <ele>444.4</ele>
        <time>2018-06-16T09:35:40Z</time>
      </trkpt>
      <trkpt lat="38.2039700" lon="-3.5225880">
        <ele>444.0</ele>
        <time>2018-06-16T09:35:41Z</time>
      </trkpt>
      <trkpt lat="38.2038940" lon="-3.5225690">
        <ele>443.4</ele>
        <time>2018-06-16T09:35:42Z</time>
      </trkpt>
      <trkpt lat="38.2038180" lon="-3.5225420">
        <ele>443.8</ele>
        <time>2018-06-16T09:35:43Z</time>
      </trkpt>
      <trkpt lat="38.2037420" lon="-3.5225090">
        <ele>442.8</ele>
        <time>2018-06-16T09:35:44Z</time>
      </trkpt>
      <trkpt lat="38.2036630" lon="-3.5224700">
        <ele>433.2</ele>
        <time>2018-06-16T09:35:45Z</time>
      </trkpt>
      <trkpt lat="38.2035820" lon="-3.5224270">
        <ele>441.8</ele>
        <time>2018-06-16T09:35:46Z</time>
      </trkpt>
      <trkpt lat="38.2035010" lon="-3.5223790">
        <ele>440.8</ele>
        <time>2018-06-16T09:35:47Z</time>
      </trkpt>
      <trkpt lat="38.2034180" lon="-3.5223290">
        <ele>440.2</ele>
        <time>2018-06-16T09:35:48Z</time>
      </trkpt>
      <trkpt lat="38.2033350" lon="-3.5222730">
        <ele>439.8</ele>
        <time>2018-06-16T09:35:49Z</time>
      </trkpt>
      <trkpt lat="38.2032500" lon="-3.5222160">
        <ele>439.2</ele>
        <time>2018-06-16T09:35:50Z</time>
      </trkpt>
      <trkpt lat="38.2031620" lon="-3.5221570">
        <ele>438.8</ele>
        <time>2018-06-16T09:35:51Z</time>
      </trkpt>
      <trkpt lat="38.2030730" lon="-3.5220960">
        <ele>438.0</ele>
        <time>2018-06-16T09:35:52Z</time>
      </trkpt>
      <trkpt lat="38.2029820" lon="-3.5220330">
        <ele>437.4</ele>
        <time>2018-06-16T09:35:53Z</time>
      </trkpt>
      <trkpt lat="38.2028890" lon="-3.5219640">
        <ele>436.8</ele>
        <time>2018-06-16T09:35:54Z</time>
      </trkpt>
      <trkpt lat="38.2028000" lon="-3.5218870">
        <ele>436.2</ele>
        <time>2018-06-16T09:35:55Z</time>
      </trkpt>
      <trkpt lat="38.2027180" lon="-3.5217990">
        <ele>435.6</ele>
        <time>2018-06-16T09:35:56Z</time>
      </trkpt>
      <trkpt lat="38.2026450" lon="-3.5217000">
        <ele>435.4</ele>
        <time>2018-06-16T09:35:57Z</time>
      </trkpt>
      <trkpt lat="38.2025830" lon="-3.5215870">
        <ele>435.0</ele>
        <time>2018-06-16T09:35:58Z</time>
      </trkpt>
      <trkpt lat="38.2025340" lon="-3.5214640">
        <ele>434.6</ele>
        <time>2018-06-16T09:35:59Z</time>
      </trkpt>
      <trkpt lat="38.2025000" lon="-3.5213330">
        <ele>433.8</ele>
        <time>2018-06-16T09:36:00Z</time>
      </trkpt>
      <trkpt lat="38.2024820" lon="-3.5211970">
        <ele>433.4</ele>
        <time>2018-06-16T09:36:01Z</time>
      </trkpt>
      <trkpt lat="38.2024750" lon="-3.5210570">
        <ele>433.0</ele>
        <time>2018-06-16T09:36:02Z</time>
      </trkpt>
      <trkpt lat="38.2024770" lon="-3.5209180">
        <ele>432.4</ele>
        <time>2018-06-16T09:36:03Z</time>
      </trkpt>
      <trkpt lat="38.2024860" lon="-3.5207780">
        <ele>431.8</ele>
        <time>2018-06-16T09:36:04Z</time>
      </trkpt>
      <trkpt lat="38.2024930" lon="-3.5206380">
        <ele>431.4</ele>
        <time>2018-06-16T09:36:05Z</time>
      </trkpt>
      <trkpt lat="38.2025000" lon="-3.5204980">
        <ele>430.2</ele>
        <time>2018-06-16T09:36:06Z</time>
      </trkpt>
      <trkpt lat="38.2025020" lon="-3.5203540">
        <ele>429.6</ele>
        <time>2018-06-16T09:36:07Z</time>
      </trkpt>
      <trkpt lat="38.2024940" lon="-3.5202100">
        <ele>429.2</ele>
        <time>2018-06-16T09:36:08Z</time>
      </trkpt>
      <trkpt lat="38.2024730" lon="-3.5200650">
        <ele>428.8</ele>
        <time>2018-06-16T09:36:09Z</time>
      </trkpt>
      <trkpt lat="38.2024400" lon="-3.5199200">
        <ele>427.6</ele>
        <time>2018-06-16T09:36:10Z</time>
      </trkpt>
      <trkpt lat="38.2023900" lon="-3.5197800">
        <ele>426.6</ele>
        <time>2018-06-16T09:36:11Z</time>
      </trkpt>
      <trkpt lat="38.2023260" lon="-3.5196460">
        <ele>425.6</ele>
        <time>2018-06-16T09:36:12Z</time>
      </trkpt>
      <trkpt lat="38.2022470" lon="-3.5195210">
        <ele>424.6</ele>
        <time>2018-06-16T09:36:13Z</time>
      </trkpt>
      <trkpt lat="38.2021510" lon="-3.5194100">
        <ele>423.6</ele>
        <time>2018-06-16T09:36:14Z</time>
      </trkpt>
      <trkpt lat="38.2020420" lon="-3.5193170">
        <ele>422.4</ele>
        <time>2018-06-16T09:36:15Z</time>
      </trkpt>
      <trkpt lat="38.2019210" lon="-3.5192440">
        <ele>421.2</ele>
        <time>2018-06-16T09:36:16Z</time>
      </trkpt>
      <trkpt lat="38.2017910" lon="-3.5191910">
        <ele>419.8</ele>
        <time>2018-06-16T09:36:17Z</time>
      </trkpt>
      <trkpt lat="38.2016550" lon="-3.5191630">
        <ele>418.6</ele>
        <time>2018-06-16T09:36:18Z</time>
      </trkpt>
      <trkpt lat="38.2015150" lon="-3.5191590">
        <ele>417.6</ele>
        <time>2018-06-16T09:36:19Z</time>
      </trkpt>
      <trkpt lat="38.2013760" lon="-3.5191830">
        <ele>416.0</ele>
        <time>2018-06-16T09:36:20Z</time>
      </trkpt>
      <trkpt lat="38.2012400" lon="-3.5192310">
        <ele>415.2</ele>
        <time>2018-06-16T09:36:21Z</time>
      </trkpt>
      <trkpt lat="38.2011110" lon="-3.5193070">
        <ele>413.6</ele>
        <time>2018-06-16T09:36:22Z</time>
      </trkpt>
      <trkpt lat="38.2009920" lon="-3.5194080">
        <ele>412.6</ele>
        <time>2018-06-16T09:36:23Z</time>
      </trkpt>
      <trkpt lat="38.2008860" lon="-3.5195310">
        <ele>410.6</ele>
        <time>2018-06-16T09:36:24Z</time>
      </trkpt>
      <trkpt lat="38.2007950" lon="-3.5196720">
        <ele>409.6</ele>
        <time>2018-06-16T09:36:25Z</time>
      </trkpt>
      <trkpt lat="38.2007190" lon="-3.5198260">
        <ele>408.6</ele>
        <time>2018-06-16T09:36:26Z</time>
      </trkpt>
      <trkpt lat="38.2006520" lon="-3.5199870">
        <ele>407.2</ele>
        <time>2018-06-16T09:36:27Z</time>
      </trkpt>
      <trkpt lat="38.2005880" lon="-3.5201500">
        <ele>406.2</ele>
        <time>2018-06-16T09:36:28Z</time>
      </trkpt>
      <trkpt lat="38.2005250" lon="-3.5203130">
        <ele>405.4</ele>
        <time>2018-06-16T09:36:29Z</time>
      </trkpt>
      <trkpt lat="38.2004650" lon="-3.5204770">
        <ele>404.2</ele>
        <time>2018-06-16T09:36:30Z</time>
      </trkpt>
      <trkpt lat="38.2004050" lon="-3.5206400">
        <ele>403.0</ele>
        <time>2018-06-16T09:36:31Z</time>
      </trkpt>
      <trkpt lat="38.2003410" lon="-3.5208020">
        <ele>401.4</ele>
        <time>2018-06-16T09:36:32Z</time>
      </trkpt>
      <trkpt lat="38.2002750" lon="-3.5209610">
        <ele>400.4</ele>
        <time>2018-06-16T09:36:33Z</time>
      </trkpt>
      <trkpt lat="38.2002010" lon="-3.5211140">
        <ele>399.2</ele>
        <time>2018-06-16T09:36:34Z</time>
      </trkpt>
      <trkpt lat="38.2001140" lon="-3.5212550">
        <ele>398.0</ele>
        <time>2018-06-16T09:36:35Z</time>
      </trkpt>
      <trkpt lat="38.2000140" lon="-3.5213820">
        <ele>396.4</ele>
        <time>2018-06-16T09:36:36Z</time>
      </trkpt>
      <trkpt lat="38.1999000" lon="-3.5214890">
        <ele>395.6</ele>
        <time>2018-06-16T09:36:37Z</time>
      </trkpt>
      <trkpt lat="38.1997740" lon="-3.5215720">
        <ele>394.4</ele>
        <time>2018-06-16T09:36:38Z</time>
      </trkpt>
      <trkpt lat="38.1996390" lon="-3.5216330">
        <ele>393.4</ele>
        <time>2018-06-16T09:36:39Z</time>
      </trkpt>
      <trkpt lat="38.1995010" lon="-3.5216740">
        <ele>392.0</ele>
        <time>2018-06-16T09:36:40Z</time>
      </trkpt>
      <trkpt lat="38.1993600" lon="-3.5217040">
        <ele>391.0</ele>
        <time>2018-06-16T09:36:41Z</time>
      </trkpt>
      <trkpt lat="38.1992180" lon="-3.5217290">
        <ele>390.0</ele>
        <time>2018-06-16T09:36:42Z</time>
      </trkpt>
      <trkpt lat="38.1990750" lon="-3.5217540">
        <ele>389.0</ele>
        <time>2018-06-16T09:36:43Z</time>
      </trkpt>
      <trkpt lat="38.1989330" lon="-3.5217810">
        <ele>388.0</ele>
        <time>2018-06-16T09:36:44Z</time>
      </trkpt>
      <trkpt lat="38.1987920" lon="-3.5218060">
        <ele>387.0</ele>
        <time>2018-06-16T09:36:45Z</time>
      </trkpt>
      <trkpt lat="38.1986530" lon="-3.5218330">
        <ele>386.6</ele>
        <time>2018-06-16T09:36:46Z</time>
      </trkpt>
      <trkpt lat="38.1985160" lon="-3.5218600">
        <ele>385.2</ele>
        <time>2018-06-16T09:36:47Z</time>
      </trkpt>
      <trkpt lat="38.1983810" lon="-3.5218850">
        <ele>385.2</ele>
        <time>2018-06-16T09:36:48Z</time>
      </trkpt>
      <trkpt lat="38.1982490" lon="-3.5219070">
        <ele>384.6</ele>
        <time>2018-06-16T09:36:49Z</time>
      </trkpt>
      <trkpt lat="38.1981190" lon="-3.5219270">
        <ele>384.2</ele>
        <time>2018-06-16T09:36:50Z</time>
      </trkpt>
      <trkpt lat="38.1979920" lon="-3.5219530">
        <ele>383.8</ele>
        <time>2018-06-16T09:36:51Z</time>
      </trkpt>
      <trkpt lat="38.1978700" lon="-3.5219880">
        <ele>383.6</ele>
        <time>2018-06-16T09:36:52Z</time>
      </trkpt>
      <trkpt lat="38.1977510" lon="-3.5220320">
        <ele>383.2</ele>
        <time>2018-06-16T09:36:53Z</time>
      </trkpt>
      <trkpt lat="38.1976380" lon="-3.5220870">
        <ele>383.0</ele>
        <time>2018-06-16T09:36:54Z</time>
      </trkpt>
      <trkpt lat="38.1975340" lon="-3.5221560">
        <ele>382.6</ele>
        <time>2018-06-16T09:36:55Z</time>
      </trkpt>
      <trkpt lat="38.1974360" lon="-3.5222340">
        <ele>382.2</ele>
        <time>2018-06-16T09:36:56Z</time>
      </trkpt>
      <trkpt lat="38.1973440" lon="-3.5223170">
        <ele>382.2</ele>
        <time>2018-06-16T09:36:57Z</time>
      </trkpt>
      <trkpt lat="38.1972560" lon="-3.5224020">
        <ele>382.0</ele>
        <time>2018-06-16T09:36:58Z</time>
      </trkpt>
      <trkpt lat="38.1971740" lon="-3.5224890">
        <ele>381.8</ele>
        <time>2018-06-16T09:36:59Z</time>
      </trkpt>
      <trkpt lat="38.1970940" lon="-3.5225780">
        <ele>381.4</ele>
        <time>2018-06-16T09:37:00Z</time>
      </trkpt>
      <trkpt lat="38.1970160" lon="-3.5226640">
        <ele>381.4</ele>
        <time>2018-06-16T09:37:01Z</time>
      </trkpt>
      <trkpt lat="38.1969380" lon="-3.5227490">
        <ele>381.2</ele>
        <time>2018-06-16T09:37:02Z</time>
      </trkpt>
      <trkpt lat="38.1968610" lon="-3.5228330">
        <ele>381.0</ele>
        <time>2018-06-16T09:37:03Z</time>
      </trkpt>
      <trkpt lat="38.1967840" lon="-3.5229160">
        <ele>380.6</ele>
        <time>2018-06-16T09:37:04Z</time>
      </trkpt>
      <trkpt lat="38.1967080" lon="-3.5229980">
        <ele>380.4</ele>
        <time>2018-06-16T09:37:05Z</time>
      </trkpt>
      <trkpt lat="38.1966320" lon="-3.5230790">
        <ele>380.2</ele>
        <time>2018-06-16T09:37:06Z</time>
      </trkpt>
      <trkpt lat="38.1965570" lon="-3.5231590">
        <ele>379.6</ele>
        <time>2018-06-16T09:37:07Z</time>
      </trkpt>
      <trkpt lat="38.1964830" lon="-3.5232390">
        <ele>379.8</ele>
        <time>2018-06-16T09:37:08Z</time>
      </trkpt>
      <trkpt lat="38.1964100" lon="-3.5233190">
        <ele>379.6</ele>
        <time>2018-06-16T09:37:09Z</time>
      </trkpt>
      <trkpt lat="38.1963370" lon="-3.5233990">
        <ele>379.2</ele>
        <time>2018-06-16T09:37:10Z</time>
      </trkpt>
      <trkpt lat="38.1962640" lon="-3.5234780">
        <ele>379.0</ele>
        <time>2018-06-16T09:37:11Z</time>
      </trkpt>
      <trkpt lat="38.1961910" lon="-3.5235560">
        <ele>379.0</ele>
        <time>2018-06-16T09:37:12Z</time>
      </trkpt>
      <trkpt lat="38.1961180" lon="-3.5236340">
        <ele>378.8</ele>
        <time>2018-06-16T09:37:13Z</time>
      </trkpt>
      <trkpt lat="38.1960450" lon="-3.5237120">
        <ele>378.4</ele>
        <time>2018-06-16T09:37:14Z</time>
      </trkpt>
      <trkpt lat="38.1959730" lon="-3.5237910">
        <ele>378.2</ele>
        <time>2018-06-16T09:37:15Z</time>
      </trkpt>
      <trkpt lat="38.1959020" lon="-3.5238690">
        <ele>378.0</ele>
        <time>2018-06-16T09:37:16Z</time>
      </trkpt>
      <trkpt lat="38.1958300" lon="-3.5239470">
        <ele>377.6</ele>
        <time>2018-06-16T09:37:17Z</time>
      </trkpt>
      <trkpt lat="38.1957580" lon="-3.5240250">
        <ele>377.6</ele>
        <time>2018-06-16T09:37:18Z</time>
      </trkpt>
      <trkpt lat="38.1956860" lon="-3.5241020">
        <ele>377.4</ele>
        <time>2018-06-16T09:37:20Z</time>
      </trkpt>
      <trkpt lat="38.1955780" lon="-3.5242170">
        <ele>376.6</ele>
        <time>2018-06-16T09:37:21Z</time>
      </trkpt>
      <trkpt lat="38.1954700" lon="-3.5243320">
        <ele>376.6</ele>
        <time>2018-06-16T09:37:22Z</time>
      </trkpt>
      <trkpt lat="38.1953970" lon="-3.5244080">
        <ele>376.4</ele>
        <time>2018-06-16T09:37:23Z</time>
      </trkpt>
      <trkpt lat="38.1953260" lon="-3.5244850">
        <ele>376.2</ele>
        <time>2018-06-16T09:37:24Z</time>
      </trkpt>
      <trkpt lat="38.1952540" lon="-3.5245620">
        <ele>376.2</ele>
        <time>2018-06-16T09:37:25Z</time>
      </trkpt>
      <trkpt lat="38.1951830" lon="-3.5246400">
        <ele>376.0</ele>
        <time>2018-06-16T09:37:26Z</time>
      </trkpt>
      <trkpt lat="38.1951110" lon="-3.5247180">
        <ele>375.8</ele>
        <time>2018-06-16T09:37:27Z</time>
      </trkpt>
      <trkpt lat="38.1950410" lon="-3.5247950">
        <ele>375.6</ele>
        <time>2018-06-16T09:37:28Z</time>
      </trkpt>
      <trkpt lat="38.1949720" lon="-3.5248720">
        <ele>375.6</ele>
        <time>2018-06-16T09:37:29Z</time>
      </trkpt>
      <trkpt lat="38.1949030" lon="-3.5249390">
        <ele>375.6</ele>
        <time>2018-06-16T09:37:30Z</time>
      </trkpt>
      <trkpt lat="38.1948340" lon="-3.5250110">
        <ele>375.4</ele>
        <time>2018-06-16T09:37:31Z</time>
      </trkpt>
      <trkpt lat="38.1947650" lon="-3.5250850">
        <ele>375.4</ele>
        <time>2018-06-16T09:37:32Z</time>
      </trkpt>
      <trkpt lat="38.1946970" lon="-3.5251560">
        <ele>375.6</ele>
        <time>2018-06-16T09:37:33Z</time>
      </trkpt>
      <trkpt lat="38.1946300" lon="-3.5252250">
        <ele>375.8</ele>
        <time>2018-06-16T09:37:34Z</time>
      </trkpt>
      <trkpt lat="38.1945660" lon="-3.5252950">
        <ele>375.8</ele>
        <time>2018-06-16T09:37:35Z</time>
      </trkpt>
      <trkpt lat="38.1945020" lon="-3.5253640">
        <ele>376.0</ele>
        <time>2018-06-16T09:37:36Z</time>
      </trkpt>
      <trkpt lat="38.1944400" lon="-3.5254320">
        <ele>376.0</ele>
        <time>2018-06-16T09:37:37Z</time>
      </trkpt>
      <trkpt lat="38.1943790" lon="-3.5254990">
        <ele>376.0</ele>
        <time>2018-06-16T09:37:38Z</time>
      </trkpt>
      <trkpt lat="38.1943200" lon="-3.5255660">
        <ele>376.0</ele>
        <time>2018-06-16T09:37:39Z</time>
      </trkpt>
      <trkpt lat="38.1942590" lon="-3.5256290">
        <ele>376.0</ele>
        <time>2018-06-16T09:37:40Z</time>
      </trkpt>
      <trkpt lat="38.1942000" lon="-3.5256910">
        <ele>376.6</ele>
        <time>2018-06-16T09:37:41Z</time>
      </trkpt>
      <trkpt lat="38.1941420" lon="-3.5257540">
        <ele>376.2</ele>
        <time>2018-06-16T09:37:42Z</time>
      </trkpt>
      <trkpt lat="38.1940860" lon="-3.5258160">
        <ele>376.2</ele>
        <time>2018-06-16T09:37:43Z</time>
      </trkpt>
      <trkpt lat="38.1940290" lon="-3.5258760">
        <ele>376.6</ele>
        <time>2018-06-16T09:37:44Z</time>
      </trkpt>
      <trkpt lat="38.1939740" lon="-3.5259350">
        <ele>376.6</ele>
        <time>2018-06-16T09:37:45Z</time>
      </trkpt>
      <trkpt lat="38.1939180" lon="-3.5259920">
        <ele>376.6</ele>
        <time>2018-06-16T09:37:46Z</time>
      </trkpt>
      <trkpt lat="38.1938630" lon="-3.5260470">
        <ele>376.6</ele>
        <time>2018-06-16T09:37:48Z</time>
      </trkpt>
      <trkpt lat="38.1937820" lon="-3.5261260">
        <ele>377.0</ele>
        <time>2018-06-16T09:37:49Z</time>
      </trkpt>
      <trkpt lat="38.1937010" lon="-3.5262040">
        <ele>377.0</ele>
        <time>2018-06-16T09:37:50Z</time>
      </trkpt>
      <trkpt lat="38.1936480" lon="-3.5262530">
        <ele>377.0</ele>
        <time>2018-06-16T09:37:51Z</time>
      </trkpt>
      <trkpt lat="38.1935970" lon="-3.5263030">
        <ele>377.2</ele>
        <time>2018-06-16T09:37:52Z</time>
      </trkpt>
      <trkpt lat="38.1935460" lon="-3.5263510">
        <ele>377.4</ele>
        <time>2018-06-16T09:37:53Z</time>
      </trkpt>
      <trkpt lat="38.1934930" lon="-3.5263960">
        <ele>377.4</ele>
        <time>2018-06-16T09:37:54Z</time>
      </trkpt>
      <trkpt lat="38.1934390" lon="-3.5264370">
        <ele>377.4</ele>
        <time>2018-06-16T09:37:55Z</time>
      </trkpt>
      <trkpt lat="38.1933830" lon="-3.5264760">
        <ele>377.4</ele>
        <time>2018-06-16T09:37:56Z</time>
      </trkpt>
      <trkpt lat="38.1933270" lon="-3.5265130">
        <ele>377.4</ele>
        <time>2018-06-16T09:37:57Z</time>
      </trkpt>
      <trkpt lat="38.1932710" lon="-3.5265480">
        <ele>377.6</ele>
        <time>2018-06-16T09:37:58Z</time>
      </trkpt>
      <trkpt lat="38.1932130" lon="-3.5265800">
        <ele>377.4</ele>
        <time>2018-06-16T09:37:59Z</time>
      </trkpt>
      <trkpt lat="38.1931560" lon="-3.5266110">
        <ele>377.4</ele>
        <time>2018-06-16T09:38:00Z</time>
      </trkpt>
      <trkpt lat="38.1930970" lon="-3.5266400">
        <ele>377.4</ele>
        <time>2018-06-16T09:38:01Z</time>
      </trkpt>
      <trkpt lat="38.1930380" lon="-3.5266670">
        <ele>377.4</ele>
        <time>2018-06-16T09:38:02Z</time>
      </trkpt>
      <trkpt lat="38.1929780" lon="-3.5266900">
        <ele>377.6</ele>
        <time>2018-06-16T09:38:03Z</time>
      </trkpt>
      <trkpt lat="38.1929160" lon="-3.5267130">
        <ele>377.4</ele>
        <time>2018-06-16T09:38:04Z</time>
      </trkpt>
      <trkpt lat="38.1928540" lon="-3.5267360">
        <ele>377.4</ele>
        <time>2018-06-16T09:38:06Z</time>
      </trkpt>
      <trkpt lat="38.1927910" lon="-3.5267570">
        <ele>377.2</ele>
        <time>2018-06-16T09:38:07Z</time>
      </trkpt>
      <trkpt lat="38.1927260" lon="-3.5267770">
        <ele>377.0</ele>
        <time>2018-06-16T09:38:08Z</time>
      </trkpt>
      <trkpt lat="38.1925950" lon="-3.5268150">
        <ele>376.6</ele>
        <time>2018-06-16T09:38:09Z</time>
      </trkpt>
      <trkpt lat="38.1925280" lon="-3.5268340">
        <ele>376.8</ele>
        <time>2018-06-16T09:38:10Z</time>
      </trkpt>
      <trkpt lat="38.1924580" lon="-3.5268500">
        <ele>376.4</ele>
        <time>2018-06-16T09:38:11Z</time>
      </trkpt>
      <trkpt lat="38.1923880" lon="-3.5268660">
        <ele>376.0</ele>
        <time>2018-06-16T09:38:12Z</time>
      </trkpt>
      <trkpt lat="38.1923160" lon="-3.5268840">
        <ele>375.8</ele>
        <time>2018-06-16T09:38:13Z</time>
      </trkpt>
      <trkpt lat="38.1922420" lon="-3.5269020">
        <ele>375.2</ele>
        <time>2018-06-16T09:38:14Z</time>
      </trkpt>
      <trkpt lat="38.1921670" lon="-3.5269210">
        <ele>375.0</ele>
        <time>2018-06-16T09:38:15Z</time>
      </trkpt>
      <trkpt lat="38.1920920" lon="-3.5269400">
        <ele>374.8</ele>
        <time>2018-06-16T09:38:16Z</time>
      </trkpt>
      <trkpt lat="38.1920140" lon="-3.5269600">
        <ele>374.4</ele>
        <time>2018-06-16T09:38:17Z</time>
      </trkpt>
      <trkpt lat="38.1919350" lon="-3.5269800">
        <ele>374.0</ele>
        <time>2018-06-16T09:38:18Z</time>
      </trkpt>
      <trkpt lat="38.1918540" lon="-3.5269990">
        <ele>374.0</ele>
        <time>2018-06-16T09:38:19Z</time>
      </trkpt>
      <trkpt lat="38.1917300" lon="-3.5270290">
        <ele>373.4</ele>
        <time>2018-06-16T09:38:20Z</time>
      </trkpt>
      <trkpt lat="38.1916880" lon="-3.5270380">
        <ele>373.2</ele>
        <time>2018-06-16T09:38:21Z</time>
      </trkpt>
      <trkpt lat="38.1916030" lon="-3.5270560">
        <ele>372.8</ele>
        <time>2018-06-16T09:38:22Z</time>
      </trkpt>
      <trkpt lat="38.1915170" lon="-3.5270760">
        <ele>372.4</ele>
        <time>2018-06-16T09:38:23Z</time>
      </trkpt>
      <trkpt lat="38.1914300" lon="-3.5270960">
        <ele>372.2</ele>
        <time>2018-06-16T09:38:24Z</time>
      </trkpt>
      <trkpt lat="38.1913430" lon="-3.5271170">
        <ele>371.6</ele>
        <time>2018-06-16T09:38:25Z</time>
      </trkpt>
      <trkpt lat="38.1912550" lon="-3.5271370">
        <ele>371.2</ele>
        <time>2018-06-16T09:38:26Z</time>
      </trkpt>
      <trkpt lat="38.1911680" lon="-3.5271580">
        <ele>371.0</ele>
        <time>2018-06-16T09:38:27Z</time>
      </trkpt>
      <trkpt lat="38.1910810" lon="-3.5271790">
        <ele>371.6</ele>
        <time>2018-06-16T09:38:28Z</time>
      </trkpt>
      <trkpt lat="38.1909950" lon="-3.5271990">
        <ele>370.8</ele>
        <time>2018-06-16T09:38:30Z</time>
      </trkpt>
      <trkpt lat="38.1909090" lon="-3.5272210">
        <ele>370.6</ele>
        <time>2018-06-16T09:38:31Z</time>
      </trkpt>
      <trkpt lat="38.1908230" lon="-3.5272420">
        <ele>370.6</ele>
        <time>2018-06-16T09:38:32Z</time>
      </trkpt>
      <trkpt lat="38.1907390" lon="-3.5272640">
        <ele>370.6</ele>
        <time>2018-06-16T09:38:33Z</time>
      </trkpt>
      <trkpt lat="38.1906570" lon="-3.5272840">
        <ele>370.4</ele>
        <time>2018-06-16T09:38:34Z</time>
      </trkpt>
      <trkpt lat="38.1905760" lon="-3.5273040">
        <ele>370.8</ele>
        <time>2018-06-16T09:38:35Z</time>
      </trkpt>
      <trkpt lat="38.1904960" lon="-3.5273240">
        <ele>370.6</ele>
        <time>2018-06-16T09:38:36Z</time>
      </trkpt>
      <trkpt lat="38.1904170" lon="-3.5273450">
        <ele>370.6</ele>
        <time>2018-06-16T09:38:37Z</time>
      </trkpt>
      <trkpt lat="38.1903390" lon="-3.5273630">
        <ele>370.8</ele>
        <time>2018-06-16T09:38:38Z</time>
      </trkpt>
      <trkpt lat="38.1902630" lon="-3.5273810">
        <ele>370.8</ele>
        <time>2018-06-16T09:38:39Z</time>
      </trkpt>
      <trkpt lat="38.1901870" lon="-3.5274010">
        <ele>371.0</ele>
        <time>2018-06-16T09:38:40Z</time>
      </trkpt>
      <trkpt lat="38.1901130" lon="-3.5274190">
        <ele>371.0</ele>
        <time>2018-06-16T09:38:41Z</time>
      </trkpt>
      <trkpt lat="38.1900410" lon="-3.5274360">
        <ele>371.2</ele>
        <time>2018-06-16T09:38:42Z</time>
      </trkpt>
      <trkpt lat="38.1899030" lon="-3.5274700">
        <ele>371.4</ele>
        <time>2018-06-16T09:38:43Z</time>
      </trkpt>
      <trkpt lat="38.1898350" lon="-3.5274850">
        <ele>371.8</ele>
        <time>2018-06-16T09:38:44Z</time>
      </trkpt>
      <trkpt lat="38.1897690" lon="-3.5275020">
        <ele>372.0</ele>
        <time>2018-06-16T09:38:45Z</time>
      </trkpt>
      <trkpt lat="38.1897030" lon="-3.5275180">
        <ele>372.2</ele>
        <time>2018-06-16T09:38:46Z</time>
      </trkpt>
      <trkpt lat="38.1896370" lon="-3.5275350">
        <ele>372.4</ele>
        <time>2018-06-16T09:38:47Z</time>
      </trkpt>
      <trkpt lat="38.1895710" lon="-3.5275520">
        <ele>372.6</ele>
        <time>2018-06-16T09:38:48Z</time>
      </trkpt>
      <trkpt lat="38.1895050" lon="-3.5275680">
        <ele>372.8</ele>
        <time>2018-06-16T09:38:49Z</time>
      </trkpt>
      <trkpt lat="38.1894400" lon="-3.5275840">
        <ele>372.6</ele>
        <time>2018-06-16T09:38:50Z</time>
      </trkpt>
      <trkpt lat="38.1893750" lon="-3.5276000">
        <ele>372.6</ele>
        <time>2018-06-16T09:38:51Z</time>
      </trkpt>
      <trkpt lat="38.1893100" lon="-3.5276160">
        <ele>372.8</ele>
        <time>2018-06-16T09:38:52Z</time>
      </trkpt>
      <trkpt lat="38.1892430" lon="-3.5276310">
        <ele>372.8</ele>
        <time>2018-06-16T09:38:53Z</time>
      </trkpt>
      <trkpt lat="38.1891780" lon="-3.5276460">
        <ele>373.4</ele>
        <time>2018-06-16T09:38:54Z</time>
      </trkpt>
      <trkpt lat="38.1891120" lon="-3.5276620">
        <ele>373.0</ele>
        <time>2018-06-16T09:38:55Z</time>
      </trkpt>
      <trkpt lat="38.1890470" lon="-3.5276790">
        <ele>373.0</ele>
        <time>2018-06-16T09:38:56Z</time>
      </trkpt>
      <trkpt lat="38.1889820" lon="-3.5276950">
        <ele>373.0</ele>
        <time>2018-06-16T09:38:57Z</time>
      </trkpt>
      <trkpt lat="38.1889170" lon="-3.5277090">
        <ele>373.0</ele>
        <time>2018-06-16T09:38:58Z</time>
      </trkpt>
      <trkpt lat="38.1888530" lon="-3.5277240">
        <ele>373.2</ele>
        <time>2018-06-16T09:38:59Z</time>
      </trkpt>
      <trkpt lat="38.1887880" lon="-3.5277380">
        <ele>373.4</ele>
        <time>2018-06-16T09:39:00Z</time>
      </trkpt>
      <trkpt lat="38.1887240" lon="-3.5277540">
        <ele>373.4</ele>
        <time>2018-06-16T09:39:01Z</time>
      </trkpt>
      <trkpt lat="38.1886600" lon="-3.5277700">
        <ele>373.0</ele>
        <time>2018-06-16T09:39:02Z</time>
      </trkpt>
      <trkpt lat="38.1885960" lon="-3.5277860">
        <ele>373.0</ele>
        <time>2018-06-16T09:39:03Z</time>
      </trkpt>
      <trkpt lat="38.1885310" lon="-3.5278010">
        <ele>373.2</ele>
        <time>2018-06-16T09:39:04Z</time>
      </trkpt>
      <trkpt lat="38.1884670" lon="-3.5278180">
        <ele>373.0</ele>
        <time>2018-06-16T09:39:05Z</time>
      </trkpt>
      <trkpt lat="38.1884020" lon="-3.5278370">
        <ele>372.8</ele>
        <time>2018-06-16T09:39:06Z</time>
      </trkpt>
      <trkpt lat="38.1883370" lon="-3.5278560">
        <ele>372.6</ele>
        <time>2018-06-16T09:39:07Z</time>
      </trkpt>
      <trkpt lat="38.1882710" lon="-3.5278750">
        <ele>372.6</ele>
        <time>2018-06-16T09:39:08Z</time>
      </trkpt>
      <trkpt lat="38.1882040" lon="-3.5278960">
        <ele>372.6</ele>
        <time>2018-06-16T09:39:10Z</time>
      </trkpt>
      <trkpt lat="38.1880680" lon="-3.5279400">
        <ele>372.2</ele>
        <time>2018-06-16T09:39:11Z</time>
      </trkpt>
      <trkpt lat="38.1879990" lon="-3.5279650">
        <ele>372.0</ele>
        <time>2018-06-16T09:39:12Z</time>
      </trkpt>
      <trkpt lat="38.1879290" lon="-3.5279920">
        <ele>372.0</ele>
        <time>2018-06-16T09:39:13Z</time>
      </trkpt>
      <trkpt lat="38.1878580" lon="-3.5280210">
        <ele>371.8</ele>
        <time>2018-06-16T09:39:14Z</time>
      </trkpt>
      <trkpt lat="38.1877860" lon="-3.5280520">
        <ele>371.6</ele>
        <time>2018-06-16T09:39:15Z</time>
      </trkpt>
      <trkpt lat="38.1877130" lon="-3.5280860">
        <ele>371.2</ele>
        <time>2018-06-16T09:39:16Z</time>
      </trkpt>
      <trkpt lat="38.1876390" lon="-3.5281220">
        <ele>370.6</ele>
        <time>2018-06-16T09:39:17Z</time>
      </trkpt>
      <trkpt lat="38.1875640" lon="-3.5281600">
        <ele>370.4</ele>
        <time>2018-06-16T09:39:18Z</time>
      </trkpt>
      <trkpt lat="38.1874880" lon="-3.5281980">
        <ele>370.2</ele>
        <time>2018-06-16T09:39:19Z</time>
      </trkpt>
      <trkpt lat="38.1874120" lon="-3.5282370">
        <ele>369.8</ele>
        <time>2018-06-16T09:39:20Z</time>
      </trkpt>
      <trkpt lat="38.1873360" lon="-3.5282800">
        <ele>369.6</ele>
        <time>2018-06-16T09:39:21Z</time>
      </trkpt>
      <trkpt lat="38.1872600" lon="-3.5283250">
        <ele>369.2</ele>
        <time>2018-06-16T09:39:22Z</time>
      </trkpt>
      <trkpt lat="38.1871840" lon="-3.5283720">
        <ele>368.8</ele>
        <time>2018-06-16T09:39:23Z</time>
      </trkpt>
      <trkpt lat="38.1871080" lon="-3.5284210">
        <ele>368.4</ele>
        <time>2018-06-16T09:39:24Z</time>
      </trkpt>
      <trkpt lat="38.1870330" lon="-3.5284710">
        <ele>368.2</ele>
        <time>2018-06-16T09:39:25Z</time>
      </trkpt>
      <trkpt lat="38.1869580" lon="-3.5285220">
        <ele>368.0</ele>
        <time>2018-06-16T09:39:27Z</time>
      </trkpt>
      <trkpt lat="38.1868840" lon="-3.5285750">
        <ele>367.6</ele>
        <time>2018-06-16T09:39:28Z</time>
      </trkpt>
      <trkpt lat="38.1868090" lon="-3.5286290">
        <ele>367.2</ele>
        <time>2018-06-16T09:39:29Z</time>
      </trkpt>
      <trkpt lat="38.1867340" lon="-3.5286830">
        <ele>366.8</ele>
        <time>2018-06-16T09:39:30Z</time>
      </trkpt>
      <trkpt lat="38.1866580" lon="-3.5287400">
        <ele>366.4</ele>
        <time>2018-06-16T09:39:31Z</time>
      </trkpt>
      <trkpt lat="38.1865820" lon="-3.5287980">
        <ele>365.8</ele>
        <time>2018-06-16T09:39:32Z</time>
      </trkpt>
      <trkpt lat="38.1865060" lon="-3.5288560">
        <ele>365.6</ele>
        <time>2018-06-16T09:39:33Z</time>
      </trkpt>
      <trkpt lat="38.1864290" lon="-3.5289150">
        <ele>365.0</ele>
        <time>2018-06-16T09:39:34Z</time>
      </trkpt>
      <trkpt lat="38.1863530" lon="-3.5289760">
        <ele>364.8</ele>
        <time>2018-06-16T09:39:35Z</time>
      </trkpt>
      <trkpt lat="38.1862760" lon="-3.5290370">
        <ele>364.8</ele>
        <time>2018-06-16T09:39:36Z</time>
      </trkpt>
      <trkpt lat="38.1861980" lon="-3.5290990">
        <ele>364.4</ele>
        <time>2018-06-16T09:39:37Z</time>
      </trkpt>
      <trkpt lat="38.1860410" lon="-3.5292190">
        <ele>363.6</ele>
        <time>2018-06-16T09:39:38Z</time>
      </trkpt>
      <trkpt lat="38.1859610" lon="-3.5292780">
        <ele>363.4</ele>
        <time>2018-06-16T09:39:39Z</time>
      </trkpt>
      <trkpt lat="38.1858810" lon="-3.5293380">
        <ele>362.8</ele>
        <time>2018-06-16T09:39:40Z</time>
      </trkpt>
      <trkpt lat="38.1858010" lon="-3.5293990">
        <ele>362.2</ele>
        <time>2018-06-16T09:39:41Z</time>
      </trkpt>
      <trkpt lat="38.1857210" lon="-3.5294600">
        <ele>361.8</ele>
        <time>2018-06-16T09:39:42Z</time>
      </trkpt>
      <trkpt lat="38.1856410" lon="-3.5295200">
        <ele>361.6</ele>
        <time>2018-06-16T09:39:43Z</time>
      </trkpt>
      <trkpt lat="38.1855620" lon="-3.5295810">
        <ele>361.4</ele>
        <time>2018-06-16T09:39:44Z</time>
      </trkpt>
      <trkpt lat="38.1854840" lon="-3.5296430">
        <ele>361.2</ele>
        <time>2018-06-16T09:39:45Z</time>
      </trkpt>
      <trkpt lat="38.1854060" lon="-3.5297050">
        <ele>360.6</ele>
        <time>2018-06-16T09:39:46Z</time>
      </trkpt>
      <trkpt lat="38.1853290" lon="-3.5297680">
        <ele>360.6</ele>
        <time>2018-06-16T09:39:47Z</time>
      </trkpt>
      <trkpt lat="38.1852530" lon="-3.5298320">
        <ele>360.0</ele>
        <time>2018-06-16T09:39:48Z</time>
      </trkpt>
      <trkpt lat="38.1851760" lon="-3.5298970">
        <ele>360.0</ele>
        <time>2018-06-16T09:39:49Z</time>
      </trkpt>
      <trkpt lat="38.1851000" lon="-3.5299630">
        <ele>359.6</ele>
        <time>2018-06-16T09:39:50Z</time>
      </trkpt>
      <trkpt lat="38.1850250" lon="-3.5300310">
        <ele>359.2</ele>
        <time>2018-06-16T09:39:52Z</time>
      </trkpt>
      <trkpt lat="38.1849500" lon="-3.5301000">
        <ele>358.6</ele>
        <time>2018-06-16T09:39:53Z</time>
      </trkpt>
      <trkpt lat="38.1848770" lon="-3.5301700">
        <ele>358.4</ele>
        <time>2018-06-16T09:39:54Z</time>
      </trkpt>
      <trkpt lat="38.1848040" lon="-3.5302420">
        <ele>358.2</ele>
        <time>2018-06-16T09:39:55Z</time>
      </trkpt>
      <trkpt lat="38.1847310" lon="-3.5303140">
        <ele>357.6</ele>
        <time>2018-06-16T09:39:56Z</time>
      </trkpt>
      <trkpt lat="38.1846590" lon="-3.5303890">
        <ele>357.2</ele>
        <time>2018-06-16T09:39:57Z</time>
      </trkpt>
      <trkpt lat="38.1845880" lon="-3.5304640">
        <ele>356.8</ele>
        <time>2018-06-16T09:39:58Z</time>
      </trkpt>
      <trkpt lat="38.1845180" lon="-3.5305390">
        <ele>356.8</ele>
        <time>2018-06-16T09:39:59Z</time>
      </trkpt>
      <trkpt lat="38.1844490" lon="-3.5306160">
        <ele>356.4</ele>
        <time>2018-06-16T09:40:00Z</time>
      </trkpt>
      <trkpt lat="38.1843810" lon="-3.5306930">
        <ele>356.2</ele>
        <time>2018-06-16T09:40:01Z</time>
      </trkpt>
      <trkpt lat="38.1843140" lon="-3.5307730">
        <ele>356.0</ele>
        <time>2018-06-16T09:40:02Z</time>
      </trkpt>
      <trkpt lat="38.1842490" lon="-3.5308520">
        <ele>355.6</ele>
        <time>2018-06-16T09:40:03Z</time>
      </trkpt>
      <trkpt lat="38.1841840" lon="-3.5309310">
        <ele>355.4</ele>
        <time>2018-06-16T09:40:04Z</time>
      </trkpt>
      <trkpt lat="38.1841210" lon="-3.5310100">
        <ele>355.2</ele>
        <time>2018-06-16T09:40:05Z</time>
      </trkpt>
      <trkpt lat="38.1840590" lon="-3.5310910">
        <ele>355.2</ele>
        <time>2018-06-16T09:40:06Z</time>
      </trkpt>
      <trkpt lat="38.1839370" lon="-3.5312500">
        <ele>355.0</ele>
        <time>2018-06-16T09:40:07Z</time>
      </trkpt>
      <trkpt lat="38.1838770" lon="-3.5313290">
        <ele>355.0</ele>
        <time>2018-06-16T09:40:08Z</time>
      </trkpt>
      <trkpt lat="38.1838180" lon="-3.5314080">
        <ele>354.8</ele>
        <time>2018-06-16T09:40:09Z</time>
      </trkpt>
      <trkpt lat="38.1837590" lon="-3.5314870">
        <ele>354.6</ele>
        <time>2018-06-16T09:40:10Z</time>
      </trkpt>
      <trkpt lat="38.1836990" lon="-3.5315650">
        <ele>354.6</ele>
        <time>2018-06-16T09:40:11Z</time>
      </trkpt>
      <trkpt lat="38.1836410" lon="-3.5316430">
        <ele>354.4</ele>
        <time>2018-06-16T09:40:12Z</time>
      </trkpt>
      <trkpt lat="38.1835820" lon="-3.5317210">
        <ele>354.0</ele>
        <time>2018-06-16T09:40:13Z</time>
      </trkpt>
      <trkpt lat="38.1835250" lon="-3.5317990">
        <ele>354.0</ele>
        <time>2018-06-16T09:40:14Z</time>
      </trkpt>
      <trkpt lat="38.1834670" lon="-3.5318760">
        <ele>354.0</ele>
        <time>2018-06-16T09:40:15Z</time>
      </trkpt>
      <trkpt lat="38.1834090" lon="-3.5319520">
        <ele>353.8</ele>
        <time>2018-06-16T09:40:16Z</time>
      </trkpt>
      <trkpt lat="38.1833520" lon="-3.5320270">
        <ele>353.6</ele>
        <time>2018-06-16T09:40:17Z</time>
      </trkpt>
      <trkpt lat="38.1832950" lon="-3.5321030">
        <ele>353.4</ele>
        <time>2018-06-16T09:40:18Z</time>
      </trkpt>
      <trkpt lat="38.1832380" lon="-3.5321790">
        <ele>353.4</ele>
        <time>2018-06-16T09:40:19Z</time>
      </trkpt>
      <trkpt lat="38.1831820" lon="-3.5322540">
        <ele>353.2</ele>
        <time>2018-06-16T09:40:20Z</time>
      </trkpt>
      <trkpt lat="38.1831260" lon="-3.5323290">
        <ele>353.2</ele>
        <time>2018-06-16T09:40:21Z</time>
      </trkpt>
      <trkpt lat="38.1830710" lon="-3.5324030">
        <ele>352.6</ele>
        <time>2018-06-16T09:40:22Z</time>
      </trkpt>
      <trkpt lat="38.1830150" lon="-3.5324760">
        <ele>352.8</ele>
        <time>2018-06-16T09:40:23Z</time>
      </trkpt>
      <trkpt lat="38.1829600" lon="-3.5325490">
        <ele>352.4</ele>
        <time>2018-06-16T09:40:24Z</time>
      </trkpt>
      <trkpt lat="38.1829060" lon="-3.5326210">
        <ele>352.2</ele>
        <time>2018-06-16T09:40:25Z</time>
      </trkpt>
      <trkpt lat="38.1828510" lon="-3.5326940">
        <ele>352.4</ele>
        <time>2018-06-16T09:40:26Z</time>
      </trkpt>
      <trkpt lat="38.1827970" lon="-3.5327660">
        <ele>352.2</ele>
        <time>2018-06-16T09:40:27Z</time>
      </trkpt>
      <trkpt lat="38.1827420" lon="-3.5328380">
        <ele>352.0</ele>
        <time>2018-06-16T09:40:28Z</time>
      </trkpt>
      <trkpt lat="38.1826880" lon="-3.5329110">
        <ele>351.8</ele>
        <time>2018-06-16T09:40:29Z</time>
      </trkpt>
      <trkpt lat="38.1826360" lon="-3.5329820">
        <ele>351.8</ele>
        <time>2018-06-16T09:40:30Z</time>
      </trkpt>
      <trkpt lat="38.1825820" lon="-3.5330550">
        <ele>351.8</ele>
        <time>2018-06-16T09:40:32Z</time>
      </trkpt>
      <trkpt lat="38.1825260" lon="-3.5331290">
        <ele>351.6</ele>
        <time>2018-06-16T09:40:33Z</time>
      </trkpt>
      <trkpt lat="38.1824700" lon="-3.5332030">
        <ele>351.4</ele>
        <time>2018-06-16T09:40:34Z</time>
      </trkpt>
      <trkpt lat="38.1824140" lon="-3.5332780">
        <ele>351.2</ele>
        <time>2018-06-16T09:40:35Z</time>
      </trkpt>
      <trkpt lat="38.1823580" lon="-3.5333530">
        <ele>351.2</ele>
        <time>2018-06-16T09:40:36Z</time>
      </trkpt>
      <trkpt lat="38.1823000" lon="-3.5334290">
        <ele>351.0</ele>
        <time>2018-06-16T09:40:37Z</time>
      </trkpt>
      <trkpt lat="38.1822430" lon="-3.5335050">
        <ele>351.0</ele>
        <time>2018-06-16T09:40:38Z</time>
      </trkpt>
      <trkpt lat="38.1821850" lon="-3.5335820">
        <ele>350.8</ele>
        <time>2018-06-16T09:40:39Z</time>
      </trkpt>
      <trkpt lat="38.1821270" lon="-3.5336580">
        <ele>350.4</ele>
        <time>2018-06-16T09:40:40Z</time>
      </trkpt>
      <trkpt lat="38.1820700" lon="-3.5337340">
        <ele>350.2</ele>
        <time>2018-06-16T09:40:41Z</time>
      </trkpt>
      <trkpt lat="38.1820120" lon="-3.5338120">
        <ele>350.0</ele>
        <time>2018-06-16T09:40:42Z</time>
      </trkpt>
      <trkpt lat="38.1819530" lon="-3.5338880">
        <ele>350.0</ele>
        <time>2018-06-16T09:40:43Z</time>
      </trkpt>
      <trkpt lat="38.1818970" lon="-3.5339650">
        <ele>349.8</ele>
        <time>2018-06-16T09:40:44Z</time>
      </trkpt>
      <trkpt lat="38.1818390" lon="-3.5340420">
        <ele>349.8</ele>
        <time>2018-06-16T09:40:45Z</time>
      </trkpt>
      <trkpt lat="38.1817810" lon="-3.5341190">
        <ele>349.6</ele>
        <time>2018-06-16T09:40:46Z</time>
      </trkpt>
      <trkpt lat="38.1817230" lon="-3.5341970">
        <ele>349.6</ele>
        <time>2018-06-16T09:40:47Z</time>
      </trkpt>
      <trkpt lat="38.1816650" lon="-3.5342740">
        <ele>349.2</ele>
        <time>2018-06-16T09:40:48Z</time>
      </trkpt>
      <trkpt lat="38.1816060" lon="-3.5343510">
        <ele>349.0</ele>
        <time>2018-06-16T09:40:49Z</time>
      </trkpt>
      <trkpt lat="38.1815480" lon="-3.5344290">
        <ele>348.6</ele>
        <time>2018-06-16T09:40:50Z</time>
      </trkpt>
      <trkpt lat="38.1814890" lon="-3.5345060">
        <ele>348.4</ele>
        <time>2018-06-16T09:40:51Z</time>
      </trkpt>
      <trkpt lat="38.1814300" lon="-3.5345830">
        <ele>348.4</ele>
        <time>2018-06-16T09:40:52Z</time>
      </trkpt>
      <trkpt lat="38.1813720" lon="-3.5346610">
        <ele>348.4</ele>
        <time>2018-06-16T09:40:53Z</time>
      </trkpt>
      <trkpt lat="38.1812520" lon="-3.5348210">
        <ele>347.8</ele>
        <time>2018-06-16T09:40:54Z</time>
      </trkpt>
      <trkpt lat="38.1811910" lon="-3.5349010">
        <ele>347.6</ele>
        <time>2018-06-16T09:40:55Z</time>
      </trkpt>
      <trkpt lat="38.1811300" lon="-3.5349830">
        <ele>347.4</ele>
        <time>2018-06-16T09:40:56Z</time>
      </trkpt>
      <trkpt lat="38.1810670" lon="-3.5350650">
        <ele>347.0</ele>
        <time>2018-06-16T09:40:57Z</time>
      </trkpt>
      <trkpt lat="38.1810050" lon="-3.5351470">
        <ele>346.8</ele>
        <time>2018-06-16T09:40:58Z</time>
      </trkpt>
      <trkpt lat="38.1809420" lon="-3.5352310">
        <ele>346.4</ele>
        <time>2018-06-16T09:40:59Z</time>
      </trkpt>
      <trkpt lat="38.1808790" lon="-3.5353160">
        <ele>346.0</ele>
        <time>2018-06-16T09:41:00Z</time>
      </trkpt>
      <trkpt lat="38.1808130" lon="-3.5354020">
        <ele>345.6</ele>
        <time>2018-06-16T09:41:02Z</time>
      </trkpt>
      <trkpt lat="38.1807480" lon="-3.5354890">
        <ele>345.4</ele>
        <time>2018-06-16T09:41:03Z</time>
      </trkpt>
      <trkpt lat="38.1806810" lon="-3.5355760">
        <ele>344.8</ele>
        <time>2018-06-16T09:41:04Z</time>
      </trkpt>
      <trkpt lat="38.1806150" lon="-3.5356640">
        <ele>344.4</ele>
        <time>2018-06-16T09:41:05Z</time>
      </trkpt>
      <trkpt lat="38.1805170" lon="-3.5357960">
        <ele>344.2</ele>
        <time>2018-06-16T09:41:06Z</time>
      </trkpt>
      <trkpt lat="38.1804840" lon="-3.5358390">
        <ele>344.0</ele>
        <time>2018-06-16T09:41:07Z</time>
      </trkpt>
      <trkpt lat="38.1804180" lon="-3.5359260">
        <ele>343.6</ele>
        <time>2018-06-16T09:41:08Z</time>
      </trkpt>
      <trkpt lat="38.1803520" lon="-3.5360130">
        <ele>343.6</ele>
        <time>2018-06-16T09:41:09Z</time>
      </trkpt>
      <trkpt lat="38.1802870" lon="-3.5361010">
        <ele>343.2</ele>
        <time>2018-06-16T09:41:10Z</time>
      </trkpt>
      <trkpt lat="38.1802210" lon="-3.5361880">
        <ele>342.6</ele>
        <time>2018-06-16T09:41:11Z</time>
      </trkpt>
      <trkpt lat="38.1801560" lon="-3.5362730">
        <ele>342.6</ele>
        <time>2018-06-16T09:41:12Z</time>
      </trkpt>
      <trkpt lat="38.1800920" lon="-3.5363560">
        <ele>342.4</ele>
        <time>2018-06-16T09:41:13Z</time>
      </trkpt>
      <trkpt lat="38.1800290" lon="-3.5364390">
        <ele>342.4</ele>
        <time>2018-06-16T09:41:14Z</time>
      </trkpt>
      <trkpt lat="38.1799660" lon="-3.5365210">
        <ele>342.2</ele>
        <time>2018-06-16T09:41:15Z</time>
      </trkpt>
      <trkpt lat="38.1799050" lon="-3.5366010">
        <ele>342.2</ele>
        <time>2018-06-16T09:41:16Z</time>
      </trkpt>
      <trkpt lat="38.1798450" lon="-3.5366800">
        <ele>342.0</ele>
        <time>2018-06-16T09:41:17Z</time>
      </trkpt>
      <trkpt lat="38.1797890" lon="-3.5367570">
        <ele>342.2</ele>
        <time>2018-06-16T09:41:18Z</time>
      </trkpt>
      <trkpt lat="38.1797320" lon="-3.5368350">
        <ele>342.2</ele>
        <time>2018-06-16T09:41:19Z</time>
      </trkpt>
      <trkpt lat="38.1796750" lon="-3.5369100">
        <ele>342.4</ele>
        <time>2018-06-16T09:41:20Z</time>
      </trkpt>
      <trkpt lat="38.1796200" lon="-3.5369830">
        <ele>342.4</ele>
        <time>2018-06-16T09:41:21Z</time>
      </trkpt>
      <trkpt lat="38.1795660" lon="-3.5370530">
        <ele>342.6</ele>
        <time>2018-06-16T09:41:22Z</time>
      </trkpt>
      <trkpt lat="38.1795120" lon="-3.5371220">
        <ele>342.8</ele>
        <time>2018-06-16T09:41:23Z</time>
      </trkpt>
      <trkpt lat="38.1794600" lon="-3.5371890">
        <ele>343.2</ele>
        <time>2018-06-16T09:41:24Z</time>
      </trkpt>
      <trkpt lat="38.1794090" lon="-3.5372560">
        <ele>343.2</ele>
        <time>2018-06-16T09:41:25Z</time>
      </trkpt>
      <trkpt lat="38.1793560" lon="-3.5373240">
        <ele>343.2</ele>
        <time>2018-06-16T09:41:26Z</time>
      </trkpt>
      <trkpt lat="38.1793070" lon="-3.5373910">
        <ele>343.6</ele>
        <time>2018-06-16T09:41:27Z</time>
      </trkpt>
      <trkpt lat="38.1792570" lon="-3.5374570">
        <ele>343.8</ele>
        <time>2018-06-16T09:41:28Z</time>
      </trkpt>
      <trkpt lat="38.1792070" lon="-3.5375250">
        <ele>343.8</ele>
        <time>2018-06-16T09:41:29Z</time>
      </trkpt>
      <trkpt lat="38.1791580" lon="-3.5375910">
        <ele>343.8</ele>
        <time>2018-06-16T09:41:30Z</time>
      </trkpt>
      <trkpt lat="38.1791080" lon="-3.5376580">
        <ele>344.0</ele>
        <time>2018-06-16T09:41:31Z</time>
      </trkpt>
      <trkpt lat="38.1790100" lon="-3.5377900">
        <ele>344.2</ele>
        <time>2018-06-16T09:41:32Z</time>
      </trkpt>
      <trkpt lat="38.1789600" lon="-3.5378570">
        <ele>344.4</ele>
        <time>2018-06-16T09:41:33Z</time>
      </trkpt>
      <trkpt lat="38.1789080" lon="-3.5379230">
        <ele>344.4</ele>
        <time>2018-06-16T09:41:34Z</time>
      </trkpt>
      <trkpt lat="38.1788560" lon="-3.5379920">
        <ele>344.4</ele>
        <time>2018-06-16T09:41:35Z</time>
      </trkpt>
      <trkpt lat="38.1788040" lon="-3.5380580">
        <ele>344.6</ele>
        <time>2018-06-16T09:41:36Z</time>
      </trkpt>
      <trkpt lat="38.1787500" lon="-3.5381260">
        <ele>344.6</ele>
        <time>2018-06-16T09:41:38Z</time>
      </trkpt>
      <trkpt lat="38.1786940" lon="-3.5381940">
        <ele>344.6</ele>
        <time>2018-06-16T09:41:39Z</time>
      </trkpt>
      <trkpt lat="38.1786400" lon="-3.5382640">
        <ele>344.8</ele>
        <time>2018-06-16T09:41:40Z</time>
      </trkpt>
      <trkpt lat="38.1785860" lon="-3.5383310">
        <ele>345.0</ele>
        <time>2018-06-16T09:41:41Z</time>
      </trkpt>
      <trkpt lat="38.1785320" lon="-3.5383970">
        <ele>345.4</ele>
        <time>2018-06-16T09:41:42Z</time>
      </trkpt>
      <trkpt lat="38.1784790" lon="-3.5384590">
        <ele>345.4</ele>
        <time>2018-06-16T09:41:43Z</time>
      </trkpt>
      <trkpt lat="38.1784260" lon="-3.5385210">
        <ele>345.4</ele>
        <time>2018-06-16T09:41:44Z</time>
      </trkpt>
      <trkpt lat="38.1783730" lon="-3.5385820">
        <ele>345.4</ele>
        <time>2018-06-16T09:41:45Z</time>
      </trkpt>
      <trkpt lat="38.1783210" lon="-3.5386430">
        <ele>345.6</ele>
        <time>2018-06-16T09:41:46Z</time>
      </trkpt>
      <trkpt lat="38.1782680" lon="-3.5387010">
        <ele>345.6</ele>
        <time>2018-06-16T09:41:47Z</time>
      </trkpt>
      <trkpt lat="38.1782150" lon="-3.5387600">
        <ele>345.6</ele>
        <time>2018-06-16T09:41:48Z</time>
      </trkpt>
      <trkpt lat="38.1781040" lon="-3.5388740">
        <ele>345.4</ele>
        <time>2018-06-16T09:41:49Z</time>
      </trkpt>
      <trkpt lat="38.1780480" lon="-3.5389310">
        <ele>345.2</ele>
        <time>2018-06-16T09:41:50Z</time>
      </trkpt>
      <trkpt lat="38.1779900" lon="-3.5389880">
        <ele>345.2</ele>
        <time>2018-06-16T09:41:51Z</time>
      </trkpt>
      <trkpt lat="38.1779320" lon="-3.5390440">
        <ele>345.2</ele>
        <time>2018-06-16T09:41:52Z</time>
      </trkpt>
      <trkpt lat="38.1778730" lon="-3.5390990">
        <ele>345.2</ele>
        <time>2018-06-16T09:41:53Z</time>
      </trkpt>
      <trkpt lat="38.1778140" lon="-3.5391540">
        <ele>345.4</ele>
        <time>2018-06-16T09:41:54Z</time>
      </trkpt>
      <trkpt lat="38.1777540" lon="-3.5392080">
        <ele>345.0</ele>
        <time>2018-06-16T09:41:55Z</time>
      </trkpt>
      <trkpt lat="38.1776930" lon="-3.5392620">
        <ele>345.0</ele>
        <time>2018-06-16T09:41:56Z</time>
      </trkpt>
      <trkpt lat="38.1776310" lon="-3.5393150">
        <ele>344.6</ele>
        <time>2018-06-16T09:41:57Z</time>
      </trkpt>
      <trkpt lat="38.1775690" lon="-3.5393670">
        <ele>344.4</ele>
        <time>2018-06-16T09:41:58Z</time>
      </trkpt>
      <trkpt lat="38.1775060" lon="-3.5394170">
        <ele>344.4</ele>
        <time>2018-06-16T09:41:59Z</time>
      </trkpt>
      <trkpt lat="38.1774440" lon="-3.5394670">
        <ele>344.6</ele>
        <time>2018-06-16T09:42:00Z</time>
      </trkpt>
      <trkpt lat="38.1773810" lon="-3.5395150">
        <ele>344.6</ele>
        <time>2018-06-16T09:42:02Z</time>
      </trkpt>
      <trkpt lat="38.1773190" lon="-3.5395620">
        <ele>344.8</ele>
        <time>2018-06-16T09:42:03Z</time>
      </trkpt>
      <trkpt lat="38.1772550" lon="-3.5396100">
        <ele>344.6</ele>
        <time>2018-06-16T09:42:04Z</time>
      </trkpt>
      <trkpt lat="38.1771910" lon="-3.5396570">
        <ele>344.6</ele>
        <time>2018-06-16T09:42:05Z</time>
      </trkpt>
      <trkpt lat="38.1771250" lon="-3.5397030">
        <ele>344.6</ele>
        <time>2018-06-16T09:42:06Z</time>
      </trkpt>
      <trkpt lat="38.1770580" lon="-3.5397470">
        <ele>344.4</ele>
        <time>2018-06-16T09:42:07Z</time>
      </trkpt>
      <trkpt lat="38.1769900" lon="-3.5397900">
        <ele>343.8</ele>
        <time>2018-06-16T09:42:08Z</time>
      </trkpt>
      <trkpt lat="38.1769220" lon="-3.5398330">
        <ele>344.2</ele>
        <time>2018-06-16T09:42:09Z</time>
      </trkpt>
      <trkpt lat="38.1768530" lon="-3.5398760">
        <ele>344.2</ele>
        <time>2018-06-16T09:42:10Z</time>
      </trkpt>
      <trkpt lat="38.1767830" lon="-3.5399160">
        <ele>344.4</ele>
        <time>2018-06-16T09:42:11Z</time>
      </trkpt>
      <trkpt lat="38.1767140" lon="-3.5399550">
        <ele>343.8</ele>
        <time>2018-06-16T09:42:12Z</time>
      </trkpt>
      <trkpt lat="38.1765980" lon="-3.5400170">
        <ele>343.8</ele>
        <time>2018-06-16T09:42:13Z</time>
      </trkpt>
      <trkpt lat="38.1765510" lon="-3.5400400">
        <ele>343.2</ele>
        <time>2018-06-16T09:42:14Z</time>
      </trkpt>
      <trkpt lat="38.1765050" lon="-3.5400630">
        <ele>343.2</ele>
        <time>2018-06-16T09:42:15Z</time>
      </trkpt>
      <trkpt lat="38.1764360" lon="-3.5400960">
        <ele>343.4</ele>
        <time>2018-06-16T09:42:16Z</time>
      </trkpt>
      <trkpt lat="38.1763690" lon="-3.5401300">
        <ele>342.8</ele>
        <time>2018-06-16T09:42:17Z</time>
      </trkpt>
      <trkpt lat="38.1763010" lon="-3.5401630">
        <ele>343.4</ele>
        <time>2018-06-16T09:42:18Z</time>
      </trkpt>
      <trkpt lat="38.1762340" lon="-3.5401960">
        <ele>342.8</ele>
        <time>2018-06-16T09:42:19Z</time>
      </trkpt>
      <trkpt lat="38.1761000" lon="-3.5402570">
        <ele>343.2</ele>
        <time>2018-06-16T09:42:20Z</time>
      </trkpt>
      <trkpt lat="38.1760330" lon="-3.5402890">
        <ele>342.8</ele>
        <time>2018-06-16T09:42:21Z</time>
      </trkpt>
      <trkpt lat="38.1759680" lon="-3.5403190">
        <ele>342.6</ele>
        <time>2018-06-16T09:42:22Z</time>
      </trkpt>
      <trkpt lat="38.1759030" lon="-3.5403490">
        <ele>342.8</ele>
        <time>2018-06-16T09:42:23Z</time>
      </trkpt>
      <trkpt lat="38.1758370" lon="-3.5403790">
        <ele>342.4</ele>
        <time>2018-06-16T09:42:24Z</time>
      </trkpt>
      <trkpt lat="38.1757720" lon="-3.5404070">
        <ele>342.6</ele>
        <time>2018-06-16T09:42:26Z</time>
      </trkpt>
      <trkpt lat="38.1757070" lon="-3.5404350">
        <ele>342.4</ele>
        <time>2018-06-16T09:42:27Z</time>
      </trkpt>
      <trkpt lat="38.1756410" lon="-3.5404640">
        <ele>342.2</ele>
        <time>2018-06-16T09:42:28Z</time>
      </trkpt>
      <trkpt lat="38.1755760" lon="-3.5404950">
        <ele>342.4</ele>
        <time>2018-06-16T09:42:29Z</time>
      </trkpt>
      <trkpt lat="38.1755110" lon="-3.5405250">
        <ele>341.8</ele>
        <time>2018-06-16T09:42:30Z</time>
      </trkpt>
      <trkpt lat="38.1754460" lon="-3.5405540">
        <ele>341.4</ele>
        <time>2018-06-16T09:42:31Z</time>
      </trkpt>
      <trkpt lat="38.1753800" lon="-3.5405820">
        <ele>341.6</ele>
        <time>2018-06-16T09:42:32Z</time>
      </trkpt>
      <trkpt lat="38.1753150" lon="-3.5406100">
        <ele>342.0</ele>
        <time>2018-06-16T09:42:33Z</time>
      </trkpt>
      <trkpt lat="38.1752500" lon="-3.5406390">
        <ele>341.6</ele>
        <time>2018-06-16T09:42:34Z</time>
      </trkpt>
      <trkpt lat="38.1751840" lon="-3.5406670">
        <ele>341.4</ele>
        <time>2018-06-16T09:42:35Z</time>
      </trkpt>
      <trkpt lat="38.1751190" lon="-3.5406950">
        <ele>341.4</ele>
        <time>2018-06-16T09:42:36Z</time>
      </trkpt>
      <trkpt lat="38.1750530" lon="-3.5407240">
        <ele>341.2</ele>
        <time>2018-06-16T09:42:37Z</time>
      </trkpt>
      <trkpt lat="38.1749870" lon="-3.5407530">
        <ele>341.2</ele>
        <time>2018-06-16T09:42:38Z</time>
      </trkpt>
      <trkpt lat="38.1749220" lon="-3.5407830">
        <ele>340.8</ele>
        <time>2018-06-16T09:42:39Z</time>
      </trkpt>
      <trkpt lat="38.1748570" lon="-3.5408130">
        <ele>340.8</ele>
        <time>2018-06-16T09:42:40Z</time>
      </trkpt>
      <trkpt lat="38.1747910" lon="-3.5408420">
        <ele>341.0</ele>
        <time>2018-06-16T09:42:41Z</time>
      </trkpt>
      <trkpt lat="38.1747250" lon="-3.5408720">
        <ele>341.0</ele>
        <time>2018-06-16T09:42:42Z</time>
      </trkpt>
      <trkpt lat="38.1745920" lon="-3.5409330">
        <ele>340.6</ele>
        <time>2018-06-16T09:42:43Z</time>
      </trkpt>
      <trkpt lat="38.1745240" lon="-3.5409620">
        <ele>340.6</ele>
        <time>2018-06-16T09:42:45Z</time>
      </trkpt>
      <trkpt lat="38.1744570" lon="-3.5409910">
        <ele>340.8</ele>
        <time>2018-06-16T09:42:46Z</time>
      </trkpt>
      <trkpt lat="38.1743890" lon="-3.5410190">
        <ele>340.8</ele>
        <time>2018-06-16T09:42:47Z</time>
      </trkpt>
      <trkpt lat="38.1743210" lon="-3.5410480">
        <ele>340.6</ele>
        <time>2018-06-16T09:42:48Z</time>
      </trkpt>
      <trkpt lat="38.1742540" lon="-3.5410770">
        <ele>340.4</ele>
        <time>2018-06-16T09:42:49Z</time>
      </trkpt>
      <trkpt lat="38.1741870" lon="-3.5411080">
        <ele>340.6</ele>
        <time>2018-06-16T09:42:50Z</time>
      </trkpt>
      <trkpt lat="38.1741200" lon="-3.5411390">
        <ele>340.4</ele>
        <time>2018-06-16T09:42:51Z</time>
      </trkpt>
      <trkpt lat="38.1740520" lon="-3.5411690">
        <ele>340.4</ele>
        <time>2018-06-16T09:42:52Z</time>
      </trkpt>
      <trkpt lat="38.1739850" lon="-3.5412010">
        <ele>340.2</ele>
        <time>2018-06-16T09:42:53Z</time>
      </trkpt>
      <trkpt lat="38.1739160" lon="-3.5412310">
        <ele>340.2</ele>
        <time>2018-06-16T09:42:54Z</time>
      </trkpt>
      <trkpt lat="38.1738480" lon="-3.5412620">
        <ele>340.4</ele>
        <time>2018-06-16T09:42:55Z</time>
      </trkpt>
      <trkpt lat="38.1737790" lon="-3.5412930">
        <ele>340.0</ele>
        <time>2018-06-16T09:42:56Z</time>
      </trkpt>
      <trkpt lat="38.1737110" lon="-3.5413240">
        <ele>340.0</ele>
        <time>2018-06-16T09:42:57Z</time>
      </trkpt>
      <trkpt lat="38.1736430" lon="-3.5413570">
        <ele>339.8</ele>
        <time>2018-06-16T09:42:58Z</time>
      </trkpt>
      <trkpt lat="38.1735740" lon="-3.5413900">
        <ele>339.6</ele>
        <time>2018-06-16T09:42:59Z</time>
      </trkpt>
      <trkpt lat="38.1735060" lon="-3.5414240">
        <ele>339.6</ele>
        <time>2018-06-16T09:43:00Z</time>
      </trkpt>
      <trkpt lat="38.1734390" lon="-3.5414580">
        <ele>339.4</ele>
        <time>2018-06-16T09:43:01Z</time>
      </trkpt>
      <trkpt lat="38.1733720" lon="-3.5414930">
        <ele>339.2</ele>
        <time>2018-06-16T09:43:02Z</time>
      </trkpt>
      <trkpt lat="38.1733060" lon="-3.5415300">
        <ele>339.0</ele>
        <time>2018-06-16T09:43:03Z</time>
      </trkpt>
      <trkpt lat="38.1732410" lon="-3.5415680">
        <ele>339.2</ele>
        <time>2018-06-16T09:43:04Z</time>
      </trkpt>
      <trkpt lat="38.1731450" lon="-3.5416250">
        <ele>338.8</ele>
        <time>2018-06-16T09:43:05Z</time>
      </trkpt>
      <trkpt lat="38.1730490" lon="-3.5416820">
        <ele>339.0</ele>
        <time>2018-06-16T09:43:06Z</time>
      </trkpt>
      <trkpt lat="38.1729850" lon="-3.5417220">
        <ele>339.0</ele>
        <time>2018-06-16T09:43:07Z</time>
      </trkpt>
      <trkpt lat="38.1729220" lon="-3.5417620">
        <ele>339.0</ele>
        <time>2018-06-16T09:43:08Z</time>
      </trkpt>
      <trkpt lat="38.1728590" lon="-3.5418040">
        <ele>338.6</ele>
        <time>2018-06-16T09:43:09Z</time>
      </trkpt>
      <trkpt lat="38.1727960" lon="-3.5418450">
        <ele>338.8</ele>
        <time>2018-06-16T09:43:10Z</time>
      </trkpt>
      <trkpt lat="38.1727330" lon="-3.5418860">
        <ele>338.4</ele>
        <time>2018-06-16T09:43:11Z</time>
      </trkpt>
      <trkpt lat="38.1726400" lon="-3.5419470">
        <ele>338.2</ele>
        <time>2018-06-16T09:43:12Z</time>
      </trkpt>
      <trkpt lat="38.1726090" lon="-3.5419680">
        <ele>338.2</ele>
        <time>2018-06-16T09:43:13Z</time>
      </trkpt>
      <trkpt lat="38.1725460" lon="-3.5420090">
        <ele>338.2</ele>
        <time>2018-06-16T09:43:14Z</time>
      </trkpt>
      <trkpt lat="38.1724840" lon="-3.5420530">
        <ele>338.2</ele>
        <time>2018-06-16T09:43:16Z</time>
      </trkpt>
      <trkpt lat="38.1724200" lon="-3.5420950">
        <ele>338.2</ele>
        <time>2018-06-16T09:43:17Z</time>
      </trkpt>
      <trkpt lat="38.1723560" lon="-3.5421360">
        <ele>338.0</ele>
        <time>2018-06-16T09:43:18Z</time>
      </trkpt>
      <trkpt lat="38.1722920" lon="-3.5421790">
        <ele>337.8</ele>
        <time>2018-06-16T09:43:19Z</time>
      </trkpt>
      <trkpt lat="38.1722290" lon="-3.5422220">
        <ele>337.4</ele>
        <time>2018-06-16T09:43:20Z</time>
      </trkpt>
      <trkpt lat="38.1721660" lon="-3.5422630">
        <ele>337.4</ele>
        <time>2018-06-16T09:43:21Z</time>
      </trkpt>
      <trkpt lat="38.1721040" lon="-3.5423030">
        <ele>337.4</ele>
        <time>2018-06-16T09:43:22Z</time>
      </trkpt>
      <trkpt lat="38.1720430" lon="-3.5423430">
        <ele>337.2</ele>
        <time>2018-06-16T09:43:23Z</time>
      </trkpt>
      <trkpt lat="38.1719820" lon="-3.5423830">
        <ele>337.2</ele>
        <time>2018-06-16T09:43:24Z</time>
      </trkpt>
      <trkpt lat="38.1719210" lon="-3.5424220">
        <ele>337.2</ele>
        <time>2018-06-16T09:43:25Z</time>
      </trkpt>
      <trkpt lat="38.1718620" lon="-3.5424630">
        <ele>337.4</ele>
        <time>2018-06-16T09:43:26Z</time>
      </trkpt>
      <trkpt lat="38.1717720" lon="-3.5425240">
        <ele>337.4</ele>
        <time>2018-06-16T09:43:27Z</time>
      </trkpt>
      <trkpt lat="38.1717420" lon="-3.5425440">
        <ele>337.2</ele>
        <time>2018-06-16T09:43:28Z</time>
      </trkpt>
      <trkpt lat="38.1716820" lon="-3.5425830">
        <ele>337.2</ele>
        <time>2018-06-16T09:43:29Z</time>
      </trkpt>
      <trkpt lat="38.1716220" lon="-3.5426240">
        <ele>337.4</ele>
        <time>2018-06-16T09:43:30Z</time>
      </trkpt>
      <trkpt lat="38.1715620" lon="-3.5426640">
        <ele>337.4</ele>
        <time>2018-06-16T09:43:31Z</time>
      </trkpt>
      <trkpt lat="38.1715020" lon="-3.5427020">
        <ele>337.2</ele>
        <time>2018-06-16T09:43:32Z</time>
      </trkpt>
      <trkpt lat="38.1714420" lon="-3.5427400">
        <ele>337.2</ele>
        <time>2018-06-16T09:43:33Z</time>
      </trkpt>
      <trkpt lat="38.1713560" lon="-3.5427990">
        <ele>337.2</ele>
        <time>2018-06-16T09:43:34Z</time>
      </trkpt>
      <trkpt lat="38.1713280" lon="-3.5428180">
        <ele>337.6</ele>
        <time>2018-06-16T09:43:35Z</time>
      </trkpt>
      <trkpt lat="38.1712720" lon="-3.5428560">
        <ele>337.8</ele>
        <time>2018-06-16T09:43:36Z</time>
      </trkpt>
      <trkpt lat="38.1712180" lon="-3.5428920">
        <ele>338.0</ele>
        <time>2018-06-16T09:43:37Z</time>
      </trkpt>
      <trkpt lat="38.1711670" lon="-3.5429270">
        <ele>338.0</ele>
        <time>2018-06-16T09:43:38Z</time>
      </trkpt>
      <trkpt lat="38.1711180" lon="-3.5429600">
        <ele>338.2</ele>
        <time>2018-06-16T09:43:39Z</time>
      </trkpt>
      <trkpt lat="38.1710700" lon="-3.5429920">
        <ele>338.4</ele>
        <time>2018-06-16T09:43:40Z</time>
      </trkpt>
      <trkpt lat="38.1710230" lon="-3.5430240">
        <ele>338.6</ele>
        <time>2018-06-16T09:43:41Z</time>
      </trkpt>
      <trkpt lat="38.1709740" lon="-3.5430570">
        <ele>338.8</ele>
        <time>2018-06-16T09:43:42Z</time>
      </trkpt>
      <trkpt lat="38.1709280" lon="-3.5430880">
        <ele>338.8</ele>
        <time>2018-06-16T09:43:43Z</time>
      </trkpt>
      <trkpt lat="38.1708840" lon="-3.5431170">
        <ele>339.2</ele>
        <time>2018-06-16T09:43:44Z</time>
      </trkpt>
      <trkpt lat="38.1708410" lon="-3.5431450">
        <ele>339.4</ele>
        <time>2018-06-16T09:43:45Z</time>
      </trkpt>
      <trkpt lat="38.1708000" lon="-3.5431740">
        <ele>339.4</ele>
        <time>2018-06-16T09:43:46Z</time>
      </trkpt>
      <trkpt lat="38.1707590" lon="-3.5432020">
        <ele>339.6</ele>
        <time>2018-06-16T09:43:47Z</time>
      </trkpt>
      <trkpt lat="38.1707180" lon="-3.5432290">
        <ele>339.8</ele>
        <time>2018-06-16T09:43:48Z</time>
      </trkpt>
      <trkpt lat="38.1706790" lon="-3.5432560">
        <ele>340.0</ele>
        <time>2018-06-16T09:43:49Z</time>
      </trkpt>
      <trkpt lat="38.1706400" lon="-3.5432810">
        <ele>340.2</ele>
        <time>2018-06-16T09:43:50Z</time>
      </trkpt>
      <trkpt lat="38.1706020" lon="-3.5433060">
        <ele>340.8</ele>
        <time>2018-06-16T09:43:51Z</time>
      </trkpt>
      <trkpt lat="38.1705640" lon="-3.5433320">
        <ele>340.8</ele>
        <time>2018-06-16T09:43:52Z</time>
      </trkpt>
      <trkpt lat="38.1705260" lon="-3.5433560">
        <ele>340.8</ele>
        <time>2018-06-16T09:43:53Z</time>
      </trkpt>
      <trkpt lat="38.1704870" lon="-3.5433780">
        <ele>341.2</ele>
        <time>2018-06-16T09:43:54Z</time>
      </trkpt>
      <trkpt lat="38.1704480" lon="-3.5434020">
        <ele>341.0</ele>
        <time>2018-06-16T09:43:55Z</time>
      </trkpt>
      <trkpt lat="38.1704110" lon="-3.5434270">
        <ele>341.2</ele>
        <time>2018-06-16T09:43:56Z</time>
      </trkpt>
      <trkpt lat="38.1703730" lon="-3.5434510">
        <ele>341.8</ele>
        <time>2018-06-16T09:43:57Z</time>
      </trkpt>
      <trkpt lat="38.1703350" lon="-3.5434750">
        <ele>341.8</ele>
        <time>2018-06-16T09:43:58Z</time>
      </trkpt>
      <trkpt lat="38.1702970" lon="-3.5434990">
        <ele>342.0</ele>
        <time>2018-06-16T09:43:59Z</time>
      </trkpt>
      <trkpt lat="38.1702580" lon="-3.5435200">
        <ele>342.2</ele>
        <time>2018-06-16T09:44:00Z</time>
      </trkpt>
      <trkpt lat="38.1702200" lon="-3.5435450">
        <ele>342.8</ele>
        <time>2018-06-16T09:44:01Z</time>
      </trkpt>
      <trkpt lat="38.1701840" lon="-3.5435650">
        <ele>342.8</ele>
        <time>2018-06-16T09:44:02Z</time>
      </trkpt>
      <trkpt lat="38.1701490" lon="-3.5435820">
        <ele>342.8</ele>
        <time>2018-06-16T09:44:03Z</time>
      </trkpt>
      <trkpt lat="38.1701110" lon="-3.5435970">
        <ele>343.0</ele>
        <time>2018-06-16T09:44:04Z</time>
      </trkpt>
      <trkpt lat="38.1700740" lon="-3.5436150">
        <ele>343.2</ele>
        <time>2018-06-16T09:44:05Z</time>
      </trkpt>
      <trkpt lat="38.1700370" lon="-3.5436340">
        <ele>343.4</ele>
        <time>2018-06-16T09:44:06Z</time>
      </trkpt>
      <trkpt lat="38.1699990" lon="-3.5436510">
        <ele>343.8</ele>
        <time>2018-06-16T09:44:07Z</time>
      </trkpt>
      <trkpt lat="38.1699630" lon="-3.5436670">
        <ele>343.8</ele>
        <time>2018-06-16T09:44:08Z</time>
      </trkpt>
      <trkpt lat="38.1699270" lon="-3.5436820">
        <ele>343.8</ele>
        <time>2018-06-16T09:44:09Z</time>
      </trkpt>
      <trkpt lat="38.1698900" lon="-3.5436960">
        <ele>344.0</ele>
        <time>2018-06-16T09:44:10Z</time>
      </trkpt>
      <trkpt lat="38.1698540" lon="-3.5437100">
        <ele>344.0</ele>
        <time>2018-06-16T09:44:11Z</time>
      </trkpt>
      <trkpt lat="38.1698170" lon="-3.5437220">
        <ele>344.0</ele>
        <time>2018-06-16T09:44:12Z</time>
      </trkpt>
      <trkpt lat="38.1697800" lon="-3.5437340">
        <ele>344.2</ele>
        <time>2018-06-16T09:44:13Z</time>
      </trkpt>
      <trkpt lat="38.1697410" lon="-3.5437450">
        <ele>344.2</ele>
        <time>2018-06-16T09:44:14Z</time>
      </trkpt>
      <trkpt lat="38.1697030" lon="-3.5437560">
        <ele>344.2</ele>
        <time>2018-06-16T09:44:15Z</time>
      </trkpt>
      <trkpt lat="38.1696640" lon="-3.5437650">
        <ele>344.4</ele>
        <time>2018-06-16T09:44:16Z</time>
      </trkpt>
      <trkpt lat="38.1696250" lon="-3.5437730">
        <ele>344.4</ele>
        <time>2018-06-16T09:44:17Z</time>
      </trkpt>
      <trkpt lat="38.1695870" lon="-3.5437820">
        <ele>344.6</ele>
        <time>2018-06-16T09:44:18Z</time>
      </trkpt>
      <trkpt lat="38.1695480" lon="-3.5437920">
        <ele>344.6</ele>
        <time>2018-06-16T09:44:19Z</time>
      </trkpt>
      <trkpt lat="38.1695090" lon="-3.5438010">
        <ele>344.6</ele>
        <time>2018-06-16T09:44:20Z</time>
      </trkpt>
      <trkpt lat="38.1694720" lon="-3.5438080">
        <ele>344.8</ele>
        <time>2018-06-16T09:44:21Z</time>
      </trkpt>
      <trkpt lat="38.1694350" lon="-3.5438150">
        <ele>345.0</ele>
        <time>2018-06-16T09:44:22Z</time>
      </trkpt>
      <trkpt lat="38.1694000" lon="-3.5438220">
        <ele>344.8</ele>
        <time>2018-06-16T09:44:23Z</time>
      </trkpt>
      <trkpt lat="38.1693690" lon="-3.5438280">
        <ele>344.8</ele>
        <time>2018-06-16T09:44:24Z</time>
      </trkpt>
      <trkpt lat="38.1693360" lon="-3.5438340">
        <ele>345.0</ele>
        <time>2018-06-16T09:44:25Z</time>
      </trkpt>
      <trkpt lat="38.1693040" lon="-3.5438380">
        <ele>345.0</ele>
        <time>2018-06-16T09:44:26Z</time>
      </trkpt>
      <trkpt lat="38.1692690" lon="-3.5438440">
        <ele>345.0</ele>
        <time>2018-06-16T09:44:27Z</time>
      </trkpt>
      <trkpt lat="38.1692360" lon="-3.5438500">
        <ele>344.8</ele>
        <time>2018-06-16T09:44:28Z</time>
      </trkpt>
      <trkpt lat="38.1692050" lon="-3.5438560">
        <ele>344.8</ele>
        <time>2018-06-16T09:44:29Z</time>
      </trkpt>
      <trkpt lat="38.1691740" lon="-3.5438620">
        <ele>345.0</ele>
        <time>2018-06-16T09:44:30Z</time>
      </trkpt>
      <trkpt lat="38.1691450" lon="-3.5438670">
        <ele>344.8</ele>
        <time>2018-06-16T09:44:31Z</time>
      </trkpt>
      <trkpt lat="38.1691160" lon="-3.5438710">
        <ele>344.8</ele>
        <time>2018-06-16T09:44:32Z</time>
      </trkpt>
      <trkpt lat="38.1690870" lon="-3.5438780">
        <ele>344.6</ele>
        <time>2018-06-16T09:44:33Z</time>
      </trkpt>
      <trkpt lat="38.1690600" lon="-3.5438830">
        <ele>344.8</ele>
        <time>2018-06-16T09:44:34Z</time>
      </trkpt>
      <trkpt lat="38.1690320" lon="-3.5438870">
        <ele>344.6</ele>
        <time>2018-06-16T09:44:35Z</time>
      </trkpt>
      <trkpt lat="38.1690030" lon="-3.5438930">
        <ele>344.8</ele>
        <time>2018-06-16T09:44:36Z</time>
      </trkpt>
      <trkpt lat="38.1689740" lon="-3.5438980">
        <ele>344.6</ele>
        <time>2018-06-16T09:44:37Z</time>
      </trkpt>
      <trkpt lat="38.1689470" lon="-3.5439050">
        <ele>344.8</ele>
        <time>2018-06-16T09:44:38Z</time>
      </trkpt>
      <trkpt lat="38.1689200" lon="-3.5439110">
        <ele>344.8</ele>
        <time>2018-06-16T09:44:39Z</time>
      </trkpt>
      <trkpt lat="38.1688930" lon="-3.5439160">
        <ele>344.8</ele>
        <time>2018-06-16T09:44:40Z</time>
      </trkpt>
      <trkpt lat="38.1688650" lon="-3.5439210">
        <ele>344.6</ele>
        <time>2018-06-16T09:44:41Z</time>
      </trkpt>
      <trkpt lat="38.1688370" lon="-3.5439250">
        <ele>344.6</ele>
        <time>2018-06-16T09:44:42Z</time>
      </trkpt>
      <trkpt lat="38.1688090" lon="-3.5439310">
        <ele>344.6</ele>
        <time>2018-06-16T09:44:43Z</time>
      </trkpt>
      <trkpt lat="38.1687800" lon="-3.5439360">
        <ele>344.6</ele>
        <time>2018-06-16T09:44:44Z</time>
      </trkpt>
      <trkpt lat="38.1687520" lon="-3.5439420">
        <ele>344.6</ele>
        <time>2018-06-16T09:44:45Z</time>
      </trkpt>
      <trkpt lat="38.1687220" lon="-3.5439470">
        <ele>344.2</ele>
        <time>2018-06-16T09:44:46Z</time>
      </trkpt>
      <trkpt lat="38.1686930" lon="-3.5439530">
        <ele>344.4</ele>
        <time>2018-06-16T09:44:47Z</time>
      </trkpt>
      <trkpt lat="38.1686620" lon="-3.5439600">
        <ele>344.4</ele>
        <time>2018-06-16T09:44:48Z</time>
      </trkpt>
      <trkpt lat="38.1686310" lon="-3.5439660">
        <ele>344.2</ele>
        <time>2018-06-16T09:44:49Z</time>
      </trkpt>
      <trkpt lat="38.1685990" lon="-3.5439730">
        <ele>344.2</ele>
        <time>2018-06-16T09:44:50Z</time>
      </trkpt>
      <trkpt lat="38.1685660" lon="-3.5439810">
        <ele>344.0</ele>
        <time>2018-06-16T09:44:51Z</time>
      </trkpt>
      <trkpt lat="38.1685330" lon="-3.5439890">
        <ele>343.8</ele>
        <time>2018-06-16T09:44:52Z</time>
      </trkpt>
      <trkpt lat="38.1684970" lon="-3.5439960">
        <ele>343.8</ele>
        <time>2018-06-16T09:44:53Z</time>
      </trkpt>
      <trkpt lat="38.1684590" lon="-3.5440030">
        <ele>343.6</ele>
        <time>2018-06-16T09:44:54Z</time>
      </trkpt>
      <trkpt lat="38.1684210" lon="-3.5440100">
        <ele>343.4</ele>
        <time>2018-06-16T09:44:55Z</time>
      </trkpt>
      <trkpt lat="38.1683820" lon="-3.5440170">
        <ele>343.2</ele>
        <time>2018-06-16T09:44:56Z</time>
      </trkpt>
      <trkpt lat="38.1683430" lon="-3.5440260">
        <ele>343.2</ele>
        <time>2018-06-16T09:44:57Z</time>
      </trkpt>
      <trkpt lat="38.1683000" lon="-3.5440350">
        <ele>343.0</ele>
        <time>2018-06-16T09:44:58Z</time>
      </trkpt>
      <trkpt lat="38.1682550" lon="-3.5440420">
        <ele>343.0</ele>
        <time>2018-06-16T09:44:59Z</time>
      </trkpt>
      <trkpt lat="38.1682080" lon="-3.5440510">
        <ele>342.8</ele>
        <time>2018-06-16T09:45:00Z</time>
      </trkpt>
      <trkpt lat="38.1681590" lon="-3.5440580">
        <ele>342.6</ele>
        <time>2018-06-16T09:45:01Z</time>
      </trkpt>
      <trkpt lat="38.1681080" lon="-3.5440660">
        <ele>342.6</ele>
        <time>2018-06-16T09:45:02Z</time>
      </trkpt>
      <trkpt lat="38.1680540" lon="-3.5440760">
        <ele>342.2</ele>
        <time>2018-06-16T09:45:03Z</time>
      </trkpt>
      <trkpt lat="38.1679960" lon="-3.5440830">
        <ele>341.8</ele>
        <time>2018-06-16T09:45:04Z</time>
      </trkpt>
      <trkpt lat="38.1679370" lon="-3.5440930">
        <ele>341.4</ele>
        <time>2018-06-16T09:45:05Z</time>
      </trkpt>
      <trkpt lat="38.1678760" lon="-3.5441030">
        <ele>341.2</ele>
        <time>2018-06-16T09:45:06Z</time>
      </trkpt>
      <trkpt lat="38.1678130" lon="-3.5441140">
        <ele>340.6</ele>
        <time>2018-06-16T09:45:07Z</time>
      </trkpt>
      <trkpt lat="38.1677470" lon="-3.5441250">
        <ele>340.6</ele>
        <time>2018-06-16T09:45:08Z</time>
      </trkpt>
      <trkpt lat="38.1676790" lon="-3.5441380">
        <ele>340.2</ele>
        <time>2018-06-16T09:45:09Z</time>
      </trkpt>
      <trkpt lat="38.1676100" lon="-3.5441510">
        <ele>340.0</ele>
        <time>2018-06-16T09:45:10Z</time>
      </trkpt>
      <trkpt lat="38.1675360" lon="-3.5441630">
        <ele>339.4</ele>
        <time>2018-06-16T09:45:11Z</time>
      </trkpt>
      <trkpt lat="38.1674610" lon="-3.5441760">
        <ele>339.2</ele>
        <time>2018-06-16T09:45:12Z</time>
      </trkpt>
      <trkpt lat="38.1673840" lon="-3.5441880">
        <ele>339.0</ele>
        <time>2018-06-16T09:45:13Z</time>
      </trkpt>
      <trkpt lat="38.1673080" lon="-3.5442010">
        <ele>338.8</ele>
        <time>2018-06-16T09:45:14Z</time>
      </trkpt>
      <trkpt lat="38.1672330" lon="-3.5442140">
        <ele>338.4</ele>
        <time>2018-06-16T09:45:15Z</time>
      </trkpt>
      <trkpt lat="38.1671560" lon="-3.5442270">
        <ele>338.0</ele>
        <time>2018-06-16T09:45:16Z</time>
      </trkpt>
      <trkpt lat="38.1670770" lon="-3.5442420">
        <ele>337.6</ele>
        <time>2018-06-16T09:45:17Z</time>
      </trkpt>
      <trkpt lat="38.1669970" lon="-3.5442570">
        <ele>337.4</ele>
        <time>2018-06-16T09:45:18Z</time>
      </trkpt>
      <trkpt lat="38.1669150" lon="-3.5442710">
        <ele>337.0</ele>
        <time>2018-06-16T09:45:19Z</time>
      </trkpt>
      <trkpt lat="38.1668320" lon="-3.5442860">
        <ele>336.8</ele>
        <time>2018-06-16T09:45:20Z</time>
      </trkpt>
      <trkpt lat="38.1667480" lon="-3.5443000">
        <ele>336.6</ele>
        <time>2018-06-16T09:45:21Z</time>
      </trkpt>
      <trkpt lat="38.1666650" lon="-3.5443150">
        <ele>336.4</ele>
        <time>2018-06-16T09:45:22Z</time>
      </trkpt>
      <trkpt lat="38.1665820" lon="-3.5443310">
        <ele>336.2</ele>
        <time>2018-06-16T09:45:23Z</time>
      </trkpt>
      <trkpt lat="38.1664990" lon="-3.5443460">
        <ele>336.0</ele>
        <time>2018-06-16T09:45:24Z</time>
      </trkpt>
      <trkpt lat="38.1664200" lon="-3.5443600">
        <ele>335.8</ele>
        <time>2018-06-16T09:45:25Z</time>
      </trkpt>
      <trkpt lat="38.1663410" lon="-3.5443750">
        <ele>335.6</ele>
        <time>2018-06-16T09:45:26Z</time>
      </trkpt>
      <trkpt lat="38.1662620" lon="-3.5443880">
        <ele>335.4</ele>
        <time>2018-06-16T09:45:27Z</time>
      </trkpt>
      <trkpt lat="38.1661860" lon="-3.5444030">
        <ele>335.2</ele>
        <time>2018-06-16T09:45:28Z</time>
      </trkpt>
      <trkpt lat="38.1661090" lon="-3.5444170">
        <ele>335.0</ele>
        <time>2018-06-16T09:45:29Z</time>
      </trkpt>
      <trkpt lat="38.1660310" lon="-3.5444310">
        <ele>334.8</ele>
        <time>2018-06-16T09:45:30Z</time>
      </trkpt>
      <trkpt lat="38.1659530" lon="-3.5444450">
        <ele>334.8</ele>
        <time>2018-06-16T09:45:31Z</time>
      </trkpt>
      <trkpt lat="38.1658760" lon="-3.5444600">
        <ele>334.4</ele>
        <time>2018-06-16T09:45:32Z</time>
      </trkpt>
      <trkpt lat="38.1657970" lon="-3.5444750">
        <ele>334.4</ele>
        <time>2018-06-16T09:45:33Z</time>
      </trkpt>
      <trkpt lat="38.1657190" lon="-3.5444900">
        <ele>334.2</ele>
        <time>2018-06-16T09:45:34Z</time>
      </trkpt>
      <trkpt lat="38.1656410" lon="-3.5445050">
        <ele>333.8</ele>
        <time>2018-06-16T09:45:35Z</time>
      </trkpt>
      <trkpt lat="38.1655600" lon="-3.5445190">
        <ele>333.8</ele>
        <time>2018-06-16T09:45:36Z</time>
      </trkpt>
      <trkpt lat="38.1654800" lon="-3.5445330">
        <ele>333.8</ele>
        <time>2018-06-16T09:45:37Z</time>
      </trkpt>
      <trkpt lat="38.1654000" lon="-3.5445470">
        <ele>333.0</ele>
        <time>2018-06-16T09:45:38Z</time>
      </trkpt>
      <trkpt lat="38.1653200" lon="-3.5445610">
        <ele>333.0</ele>
        <time>2018-06-16T09:45:39Z</time>
      </trkpt>
      <trkpt lat="38.1652400" lon="-3.5445740">
        <ele>332.8</ele>
        <time>2018-06-16T09:45:40Z</time>
      </trkpt>
      <trkpt lat="38.1651600" lon="-3.5445910">
        <ele>332.6</ele>
        <time>2018-06-16T09:45:41Z</time>
      </trkpt>
      <trkpt lat="38.1650780" lon="-3.5446060">
        <ele>332.6</ele>
        <time>2018-06-16T09:45:42Z</time>
      </trkpt>
      <trkpt lat="38.1649950" lon="-3.5446200">
        <ele>332.2</ele>
        <time>2018-06-16T09:45:43Z</time>
      </trkpt>
      <trkpt lat="38.1649110" lon="-3.5446350">
        <ele>332.0</ele>
        <time>2018-06-16T09:45:44Z</time>
      </trkpt>
      <trkpt lat="38.1648260" lon="-3.5446500">
        <ele>331.8</ele>
        <time>2018-06-16T09:45:45Z</time>
      </trkpt>
      <trkpt lat="38.1647410" lon="-3.5446660">
        <ele>332.0</ele>
        <time>2018-06-16T09:45:46Z</time>
      </trkpt>
      <trkpt lat="38.1646550" lon="-3.5446830">
        <ele>331.8</ele>
        <time>2018-06-16T09:45:47Z</time>
      </trkpt>
      <trkpt lat="38.1645680" lon="-3.5447010">
        <ele>331.4</ele>
        <time>2018-06-16T09:45:48Z</time>
      </trkpt>
      <trkpt lat="38.1644780" lon="-3.5447190">
        <ele>331.2</ele>
        <time>2018-06-16T09:45:49Z</time>
      </trkpt>
      <trkpt lat="38.1643880" lon="-3.5447390">
        <ele>331.0</ele>
        <time>2018-06-16T09:45:50Z</time>
      </trkpt>
      <trkpt lat="38.1642960" lon="-3.5447620">
        <ele>330.8</ele>
        <time>2018-06-16T09:45:51Z</time>
      </trkpt>
      <trkpt lat="38.1642050" lon="-3.5447860">
        <ele>330.6</ele>
        <time>2018-06-16T09:45:52Z</time>
      </trkpt>
      <trkpt lat="38.1641150" lon="-3.5448120">
        <ele>330.2</ele>
        <time>2018-06-16T09:45:53Z</time>
      </trkpt>
      <trkpt lat="38.1640250" lon="-3.5448390">
        <ele>330.0</ele>
        <time>2018-06-16T09:45:54Z</time>
      </trkpt>
      <trkpt lat="38.1639350" lon="-3.5448690">
        <ele>329.6</ele>
        <time>2018-06-16T09:45:55Z</time>
      </trkpt>
      <trkpt lat="38.1638480" lon="-3.5449010">
        <ele>329.6</ele>
        <time>2018-06-16T09:45:56Z</time>
      </trkpt>
      <trkpt lat="38.1637600" lon="-3.5449330">
        <ele>329.4</ele>
        <time>2018-06-16T09:45:57Z</time>
      </trkpt>
      <trkpt lat="38.1636780" lon="-3.5449680">
        <ele>328.8</ele>
        <time>2018-06-16T09:45:58Z</time>
      </trkpt>
      <trkpt lat="38.1635920" lon="-3.5450070">
        <ele>328.6</ele>
        <time>2018-06-16T09:45:59Z</time>
      </trkpt>
      <trkpt lat="38.1635100" lon="-3.5450460">
        <ele>328.4</ele>
        <time>2018-06-16T09:46:00Z</time>
      </trkpt>
      <trkpt lat="38.1634290" lon="-3.5450860">
        <ele>328.4</ele>
        <time>2018-06-16T09:46:01Z</time>
      </trkpt>
      <trkpt lat="38.1633500" lon="-3.5451250">
        <ele>328.4</ele>
        <time>2018-06-16T09:46:02Z</time>
      </trkpt>
      <trkpt lat="38.1632700" lon="-3.5451610">
        <ele>327.8</ele>
        <time>2018-06-16T09:46:03Z</time>
      </trkpt>
      <trkpt lat="38.1631920" lon="-3.5451990">
        <ele>327.6</ele>
        <time>2018-06-16T09:46:04Z</time>
      </trkpt>
      <trkpt lat="38.1631160" lon="-3.5452370">
        <ele>327.6</ele>
        <time>2018-06-16T09:46:05Z</time>
      </trkpt>
      <trkpt lat="38.1630400" lon="-3.5452740">
        <ele>327.6</ele>
        <time>2018-06-16T09:46:06Z</time>
      </trkpt>
      <trkpt lat="38.1629650" lon="-3.5453130">
        <ele>327.2</ele>
        <time>2018-06-16T09:46:07Z</time>
      </trkpt>
      <trkpt lat="38.1628890" lon="-3.5453510">
        <ele>327.0</ele>
        <time>2018-06-16T09:46:08Z</time>
      </trkpt>
      <trkpt lat="38.1628120" lon="-3.5453910">
        <ele>326.6</ele>
        <time>2018-06-16T09:46:09Z</time>
      </trkpt>
      <trkpt lat="38.1627340" lon="-3.5454300">
        <ele>326.8</ele>
        <time>2018-06-16T09:46:10Z</time>
      </trkpt>
      <trkpt lat="38.1626550" lon="-3.5454690">
        <ele>326.6</ele>
        <time>2018-06-16T09:46:11Z</time>
      </trkpt>
      <trkpt lat="38.1625750" lon="-3.5455080">
        <ele>326.4</ele>
        <time>2018-06-16T09:46:12Z</time>
      </trkpt>
      <trkpt lat="38.1624940" lon="-3.5455470">
        <ele>326.0</ele>
        <time>2018-06-16T09:46:13Z</time>
      </trkpt>
      <trkpt lat="38.1624120" lon="-3.5455860">
        <ele>325.8</ele>
        <time>2018-06-16T09:46:14Z</time>
      </trkpt>
      <trkpt lat="38.1623290" lon="-3.5456250">
        <ele>325.8</ele>
        <time>2018-06-16T09:46:15Z</time>
      </trkpt>
      <trkpt lat="38.1622450" lon="-3.5456670">
        <ele>325.0</ele>
        <time>2018-06-16T09:46:16Z</time>
      </trkpt>
      <trkpt lat="38.1621620" lon="-3.5457080">
        <ele>325.0</ele>
        <time>2018-06-16T09:46:17Z</time>
      </trkpt>
      <trkpt lat="38.1620780" lon="-3.5457490">
        <ele>325.0</ele>
        <time>2018-06-16T09:46:18Z</time>
      </trkpt>
      <trkpt lat="38.1619930" lon="-3.5457880">
        <ele>324.4</ele>
        <time>2018-06-16T09:46:19Z</time>
      </trkpt>
      <trkpt lat="38.1619080" lon="-3.5458280">
        <ele>323.8</ele>
        <time>2018-06-16T09:46:20Z</time>
      </trkpt>
      <trkpt lat="38.1618220" lon="-3.5458670">
        <ele>323.8</ele>
        <time>2018-06-16T09:46:21Z</time>
      </trkpt>
      <trkpt lat="38.1617370" lon="-3.5459070">
        <ele>323.4</ele>
        <time>2018-06-16T09:46:22Z</time>
      </trkpt>
      <trkpt lat="38.1616530" lon="-3.5459490">
        <ele>323.2</ele>
        <time>2018-06-16T09:46:23Z</time>
      </trkpt>
      <trkpt lat="38.1615680" lon="-3.5459910">
        <ele>322.8</ele>
        <time>2018-06-16T09:46:24Z</time>
      </trkpt>
      <trkpt lat="38.1614820" lon="-3.5460320">
        <ele>322.4</ele>
        <time>2018-06-16T09:46:25Z</time>
      </trkpt>
      <trkpt lat="38.1613960" lon="-3.5460740">
        <ele>322.2</ele>
        <time>2018-06-16T09:46:26Z</time>
      </trkpt>
      <trkpt lat="38.1613090" lon="-3.5461190">
        <ele>321.4</ele>
        <time>2018-06-16T09:46:27Z</time>
      </trkpt>
      <trkpt lat="38.1612220" lon="-3.5461630">
        <ele>321.0</ele>
        <time>2018-06-16T09:46:28Z</time>
      </trkpt>
      <trkpt lat="38.1611340" lon="-3.5462070">
        <ele>320.6</ele>
        <time>2018-06-16T09:46:29Z</time>
      </trkpt>
      <trkpt lat="38.1610460" lon="-3.5462510">
        <ele>320.4</ele>
        <time>2018-06-16T09:46:30Z</time>
      </trkpt>
      <trkpt lat="38.1609580" lon="-3.5462940">
        <ele>320.0</ele>
        <time>2018-06-16T09:46:31Z</time>
      </trkpt>
      <trkpt lat="38.1608700" lon="-3.5463370">
        <ele>319.8</ele>
        <time>2018-06-16T09:46:32Z</time>
      </trkpt>
      <trkpt lat="38.1607800" lon="-3.5463790">
        <ele>319.6</ele>
        <time>2018-06-16T09:46:33Z</time>
      </trkpt>
      <trkpt lat="38.1606920" lon="-3.5464200">
        <ele>319.2</ele>
        <time>2018-06-16T09:46:34Z</time>
      </trkpt>
      <trkpt lat="38.1606010" lon="-3.5464590">
        <ele>318.6</ele>
        <time>2018-06-16T09:46:35Z</time>
      </trkpt>
      <trkpt lat="38.1605090" lon="-3.5464950">
        <ele>318.6</ele>
        <time>2018-06-16T09:46:36Z</time>
      </trkpt>
      <trkpt lat="38.1604160" lon="-3.5465260">
        <ele>318.0</ele>
        <time>2018-06-16T09:46:37Z</time>
      </trkpt>
      <trkpt lat="38.1603210" lon="-3.5465520">
        <ele>318.0</ele>
        <time>2018-06-16T09:46:38Z</time>
      </trkpt>
      <trkpt lat="38.1602240" lon="-3.5465730">
        <ele>317.0</ele>
        <time>2018-06-16T09:46:39Z</time>
      </trkpt>
      <trkpt lat="38.1601260" lon="-3.5465880">
        <ele>316.8</ele>
        <time>2018-06-16T09:46:40Z</time>
      </trkpt>
      <trkpt lat="38.1600270" lon="-3.5466000">
        <ele>316.4</ele>
        <time>2018-06-16T09:46:41Z</time>
      </trkpt>
      <trkpt lat="38.1599270" lon="-3.5466060">
        <ele>316.4</ele>
        <time>2018-06-16T09:46:42Z</time>
      </trkpt>
      <trkpt lat="38.1598260" lon="-3.5466070">
        <ele>315.6</ele>
        <time>2018-06-16T09:46:43Z</time>
      </trkpt>
      <trkpt lat="38.1597270" lon="-3.5466050">
        <ele>315.4</ele>
        <time>2018-06-16T09:46:44Z</time>
      </trkpt>
      <trkpt lat="38.1596270" lon="-3.5465970">
        <ele>315.2</ele>
        <time>2018-06-16T09:46:45Z</time>
      </trkpt>
      <trkpt lat="38.1595270" lon="-3.5465830">
        <ele>315.2</ele>
        <time>2018-06-16T09:46:46Z</time>
      </trkpt>
      <trkpt lat="38.1594290" lon="-3.5465650">
        <ele>314.8</ele>
        <time>2018-06-16T09:46:47Z</time>
      </trkpt>
      <trkpt lat="38.1593330" lon="-3.5465390">
        <ele>314.4</ele>
        <time>2018-06-16T09:46:48Z</time>
      </trkpt>
      <trkpt lat="38.1592380" lon="-3.5465080">
        <ele>314.2</ele>
        <time>2018-06-16T09:46:49Z</time>
      </trkpt>
      <trkpt lat="38.1591450" lon="-3.5464740">
        <ele>314.0</ele>
        <time>2018-06-16T09:46:50Z</time>
      </trkpt>
      <trkpt lat="38.1590540" lon="-3.5464360">
        <ele>314.0</ele>
        <time>2018-06-16T09:46:51Z</time>
      </trkpt>
      <trkpt lat="38.1589670" lon="-3.5463950">
        <ele>314.2</ele>
        <time>2018-06-16T09:46:52Z</time>
      </trkpt>
      <trkpt lat="38.1588820" lon="-3.5463500">
        <ele>314.0</ele>
        <time>2018-06-16T09:46:53Z</time>
      </trkpt>
      <trkpt lat="38.1588000" lon="-3.5463040">
        <ele>314.0</ele>
        <time>2018-06-16T09:46:54Z</time>
      </trkpt>
      <trkpt lat="38.1587190" lon="-3.5462540">
        <ele>314.0</ele>
        <time>2018-06-16T09:46:55Z</time>
      </trkpt>
      <trkpt lat="38.1586410" lon="-3.5462010">
        <ele>313.8</ele>
        <time>2018-06-16T09:46:56Z</time>
      </trkpt>
      <trkpt lat="38.1585670" lon="-3.5461450">
        <ele>313.6</ele>
        <time>2018-06-16T09:46:57Z</time>
      </trkpt>
      <trkpt lat="38.1584960" lon="-3.5460860">
        <ele>313.6</ele>
        <time>2018-06-16T09:46:58Z</time>
      </trkpt>
      <trkpt lat="38.1584260" lon="-3.5460260">
        <ele>313.2</ele>
        <time>2018-06-16T09:46:59Z</time>
      </trkpt>
      <trkpt lat="38.1583570" lon="-3.5459640">
        <ele>313.6</ele>
        <time>2018-06-16T09:47:00Z</time>
      </trkpt>
      <trkpt lat="38.1582890" lon="-3.5459000">
        <ele>313.6</ele>
        <time>2018-06-16T09:47:01Z</time>
      </trkpt>
      <trkpt lat="38.1582230" lon="-3.5458320">
        <ele>313.6</ele>
        <time>2018-06-16T09:47:02Z</time>
      </trkpt>
      <trkpt lat="38.1581590" lon="-3.5457610">
        <ele>313.4</ele>
        <time>2018-06-16T09:47:03Z</time>
      </trkpt>
      <trkpt lat="38.1580960" lon="-3.5456860">
        <ele>313.4</ele>
        <time>2018-06-16T09:47:04Z</time>
      </trkpt>
      <trkpt lat="38.1580330" lon="-3.5456110">
        <ele>313.2</ele>
        <time>2018-06-16T09:47:05Z</time>
      </trkpt>
      <trkpt lat="38.1579700" lon="-3.5455380">
        <ele>313.4</ele>
        <time>2018-06-16T09:47:06Z</time>
      </trkpt>
      <trkpt lat="38.1579060" lon="-3.5454620">
        <ele>313.0</ele>
        <time>2018-06-16T09:47:07Z</time>
      </trkpt>
      <trkpt lat="38.1578410" lon="-3.5453840">
        <ele>313.0</ele>
        <time>2018-06-16T09:47:08Z</time>
      </trkpt>
      <trkpt lat="38.1577740" lon="-3.5453060">
        <ele>312.8</ele>
        <time>2018-06-16T09:47:09Z</time>
      </trkpt>
      <trkpt lat="38.1577060" lon="-3.5452300">
        <ele>312.8</ele>
        <time>2018-06-16T09:47:10Z</time>
      </trkpt>
      <trkpt lat="38.1576380" lon="-3.5451560">
        <ele>312.8</ele>
        <time>2018-06-16T09:47:11Z</time>
      </trkpt>
      <trkpt lat="38.1575690" lon="-3.5450840">
        <ele>313.0</ele>
        <time>2018-06-16T09:47:12Z</time>
      </trkpt>
      <trkpt lat="38.1575000" lon="-3.5450140">
        <ele>313.0</ele>
        <time>2018-06-16T09:47:13Z</time>
      </trkpt>
      <trkpt lat="38.1574320" lon="-3.5449470">
        <ele>313.2</ele>
        <time>2018-06-16T09:47:14Z</time>
      </trkpt>
      <trkpt lat="38.1573640" lon="-3.5448850">
        <ele>313.4</ele>
        <time>2018-06-16T09:47:15Z</time>
      </trkpt>
      <trkpt lat="38.1572970" lon="-3.5448280">
        <ele>313.6</ele>
        <time>2018-06-16T09:47:16Z</time>
      </trkpt>
      <trkpt lat="38.1572290" lon="-3.5447710">
        <ele>313.8</ele>
        <time>2018-06-16T09:47:17Z</time>
      </trkpt>
      <trkpt lat="38.1571640" lon="-3.5447150">
        <ele>314.4</ele>
        <time>2018-06-16T09:47:18Z</time>
      </trkpt>
      <trkpt lat="38.1570990" lon="-3.5446650">
        <ele>314.4</ele>
        <time>2018-06-16T09:47:19Z</time>
      </trkpt>
      <trkpt lat="38.1570340" lon="-3.5446190">
        <ele>314.6</ele>
        <time>2018-06-16T09:47:20Z</time>
      </trkpt>
      <trkpt lat="38.1569680" lon="-3.5445760">
        <ele>314.8</ele>
        <time>2018-06-16T09:47:21Z</time>
      </trkpt>
      <trkpt lat="38.1569030" lon="-3.5445340">
        <ele>315.2</ele>
        <time>2018-06-16T09:47:22Z</time>
      </trkpt>
      <trkpt lat="38.1568370" lon="-3.5444960">
        <ele>315.4</ele>
        <time>2018-06-16T09:47:23Z</time>
      </trkpt>
      <trkpt lat="38.1567720" lon="-3.5444590">
        <ele>315.6</ele>
        <time>2018-06-16T09:47:24Z</time>
      </trkpt>
      <trkpt lat="38.1567080" lon="-3.5444240">
        <ele>315.6</ele>
        <time>2018-06-16T09:47:25Z</time>
      </trkpt>
      <trkpt lat="38.1566440" lon="-3.5443910">
        <ele>315.6</ele>
        <time>2018-06-16T09:47:26Z</time>
      </trkpt>
      <trkpt lat="38.1565790" lon="-3.5443620">
        <ele>316.0</ele>
        <time>2018-06-16T09:47:27Z</time>
      </trkpt>
      <trkpt lat="38.1565140" lon="-3.5443340">
        <ele>316.2</ele>
        <time>2018-06-16T09:47:28Z</time>
      </trkpt>
      <trkpt lat="38.1564500" lon="-3.5443050">
        <ele>316.6</ele>
        <time>2018-06-16T09:47:29Z</time>
      </trkpt>
      <trkpt lat="38.1563860" lon="-3.5442780">
        <ele>316.8</ele>
        <time>2018-06-16T09:47:30Z</time>
      </trkpt>
      <trkpt lat="38.1563220" lon="-3.5442520">
        <ele>317.0</ele>
        <time>2018-06-16T09:47:31Z</time>
      </trkpt>
      <trkpt lat="38.1562590" lon="-3.5442250">
        <ele>317.2</ele>
        <time>2018-06-16T09:47:32Z</time>
      </trkpt>
      <trkpt lat="38.1561960" lon="-3.5442000">
        <ele>317.4</ele>
        <time>2018-06-16T09:47:33Z</time>
      </trkpt>
      <trkpt lat="38.1561340" lon="-3.5441750">
        <ele>317.6</ele>
        <time>2018-06-16T09:47:34Z</time>
      </trkpt>
      <trkpt lat="38.1560720" lon="-3.5441510">
        <ele>317.6</ele>
        <time>2018-06-16T09:47:35Z</time>
      </trkpt>
      <trkpt lat="38.1560110" lon="-3.5441280">
        <ele>318.0</ele>
        <time>2018-06-16T09:47:36Z</time>
      </trkpt>
      <trkpt lat="38.1559500" lon="-3.5441050">
        <ele>318.2</ele>
        <time>2018-06-16T09:47:37Z</time>
      </trkpt>
      <trkpt lat="38.1558900" lon="-3.5440820">
        <ele>318.2</ele>
        <time>2018-06-16T09:47:38Z</time>
      </trkpt>
      <trkpt lat="38.1558290" lon="-3.5440580">
        <ele>318.6</ele>
        <time>2018-06-16T09:47:39Z</time>
      </trkpt>
      <trkpt lat="38.1557700" lon="-3.5440330">
        <ele>318.8</ele>
        <time>2018-06-16T09:47:40Z</time>
      </trkpt>
      <trkpt lat="38.1557100" lon="-3.5440090">
        <ele>318.8</ele>
        <time>2018-06-16T09:47:41Z</time>
      </trkpt>
      <trkpt lat="38.1556500" lon="-3.5439860">
        <ele>319.0</ele>
        <time>2018-06-16T09:47:42Z</time>
      </trkpt>
      <trkpt lat="38.1555900" lon="-3.5439620">
        <ele>318.8</ele>
        <time>2018-06-16T09:47:43Z</time>
      </trkpt>
      <trkpt lat="38.1555300" lon="-3.5439390">
        <ele>319.0</ele>
        <time>2018-06-16T09:47:44Z</time>
      </trkpt>
      <trkpt lat="38.1554720" lon="-3.5439140">
        <ele>319.2</ele>
        <time>2018-06-16T09:47:45Z</time>
      </trkpt>
      <trkpt lat="38.1554140" lon="-3.5438900">
        <ele>319.4</ele>
        <time>2018-06-16T09:47:46Z</time>
      </trkpt>
      <trkpt lat="38.1553550" lon="-3.5438660">
        <ele>319.2</ele>
        <time>2018-06-16T09:47:47Z</time>
      </trkpt>
      <trkpt lat="38.1552970" lon="-3.5438430">
        <ele>319.4</ele>
        <time>2018-06-16T09:47:48Z</time>
      </trkpt>
      <trkpt lat="38.1552390" lon="-3.5438200">
        <ele>319.4</ele>
        <time>2018-06-16T09:47:49Z</time>
      </trkpt>
      <trkpt lat="38.1551790" lon="-3.5437970">
        <ele>319.4</ele>
        <time>2018-06-16T09:47:50Z</time>
      </trkpt>
      <trkpt lat="38.1551200" lon="-3.5437740">
        <ele>319.4</ele>
        <time>2018-06-16T09:47:51Z</time>
      </trkpt>
      <trkpt lat="38.1550590" lon="-3.5437500">
        <ele>319.4</ele>
        <time>2018-06-16T09:47:52Z</time>
      </trkpt>
      <trkpt lat="38.1549990" lon="-3.5437260">
        <ele>319.4</ele>
        <time>2018-06-16T09:47:53Z</time>
      </trkpt>
      <trkpt lat="38.1549380" lon="-3.5437020">
        <ele>319.4</ele>
        <time>2018-06-16T09:47:54Z</time>
      </trkpt>
      <trkpt lat="38.1548760" lon="-3.5436770">
        <ele>319.2</ele>
        <time>2018-06-16T09:47:55Z</time>
      </trkpt>
      <trkpt lat="38.1548130" lon="-3.5436520">
        <ele>319.2</ele>
        <time>2018-06-16T09:47:56Z</time>
      </trkpt>
      <trkpt lat="38.1547490" lon="-3.5436260">
        <ele>319.2</ele>
        <time>2018-06-16T09:47:57Z</time>
      </trkpt>
      <trkpt lat="38.1546850" lon="-3.5436000">
        <ele>319.0</ele>
        <time>2018-06-16T09:47:58Z</time>
      </trkpt>
      <trkpt lat="38.1546200" lon="-3.5435730">
        <ele>318.8</ele>
        <time>2018-06-16T09:47:59Z</time>
      </trkpt>
      <trkpt lat="38.1545530" lon="-3.5435470">
        <ele>318.8</ele>
        <time>2018-06-16T09:48:00Z</time>
      </trkpt>
      <trkpt lat="38.1544860" lon="-3.5435210">
        <ele>318.6</ele>
        <time>2018-06-16T09:48:01Z</time>
      </trkpt>
      <trkpt lat="38.1544180" lon="-3.5434950">
        <ele>318.4</ele>
        <time>2018-06-16T09:48:02Z</time>
      </trkpt>
      <trkpt lat="38.1543480" lon="-3.5434690">
        <ele>318.4</ele>
        <time>2018-06-16T09:48:03Z</time>
      </trkpt>
      <trkpt lat="38.1542780" lon="-3.5434440">
        <ele>318.0</ele>
        <time>2018-06-16T09:48:04Z</time>
      </trkpt>
      <trkpt lat="38.1542080" lon="-3.5434190">
        <ele>318.0</ele>
        <time>2018-06-16T09:48:05Z</time>
      </trkpt>
      <trkpt lat="38.1541360" lon="-3.5433960">
        <ele>317.8</ele>
        <time>2018-06-16T09:48:06Z</time>
      </trkpt>
      <trkpt lat="38.1540630" lon="-3.5433740">
        <ele>317.8</ele>
        <time>2018-06-16T09:48:07Z</time>
      </trkpt>
      <trkpt lat="38.1539910" lon="-3.5433530">
        <ele>317.6</ele>
        <time>2018-06-16T09:48:08Z</time>
      </trkpt>
      <trkpt lat="38.1539180" lon="-3.5433360">
        <ele>317.8</ele>
        <time>2018-06-16T09:48:09Z</time>
      </trkpt>
      <trkpt lat="38.1538450" lon="-3.5433230">
        <ele>317.8</ele>
        <time>2018-06-16T09:48:10Z</time>
      </trkpt>
      <trkpt lat="38.1537730" lon="-3.5433180">
        <ele>317.8</ele>
        <time>2018-06-16T09:48:11Z</time>
      </trkpt>
      <trkpt lat="38.1537000" lon="-3.5433160">
        <ele>317.8</ele>
        <time>2018-06-16T09:48:12Z</time>
      </trkpt>
      <trkpt lat="38.1536280" lon="-3.5433170">
        <ele>318.0</ele>
        <time>2018-06-16T09:48:13Z</time>
      </trkpt>
      <trkpt lat="38.1535570" lon="-3.5433170">
        <ele>318.0</ele>
        <time>2018-06-16T09:48:14Z</time>
      </trkpt>
      <trkpt lat="38.1534870" lon="-3.5433190">
        <ele>318.0</ele>
        <time>2018-06-16T09:48:15Z</time>
      </trkpt>
      <trkpt lat="38.1534180" lon="-3.5433220">
        <ele>318.2</ele>
        <time>2018-06-16T09:48:16Z</time>
      </trkpt>
      <trkpt lat="38.1533500" lon="-3.5433250">
        <ele>318.4</ele>
        <time>2018-06-16T09:48:17Z</time>
      </trkpt>
      <trkpt lat="38.1532820" lon="-3.5433280">
        <ele>318.2</ele>
        <time>2018-06-16T09:48:18Z</time>
      </trkpt>
      <trkpt lat="38.1532150" lon="-3.5433300">
        <ele>318.4</ele>
        <time>2018-06-16T09:48:19Z</time>
      </trkpt>
      <trkpt lat="38.1531480" lon="-3.5433320">
        <ele>318.4</ele>
        <time>2018-06-16T09:48:20Z</time>
      </trkpt>
      <trkpt lat="38.1530810" lon="-3.5433350">
        <ele>318.6</ele>
        <time>2018-06-16T09:48:21Z</time>
      </trkpt>
      <trkpt lat="38.1530150" lon="-3.5433370">
        <ele>318.4</ele>
        <time>2018-06-16T09:48:22Z</time>
      </trkpt>
      <trkpt lat="38.1529490" lon="-3.5433390">
        <ele>318.4</ele>
        <time>2018-06-16T09:48:23Z</time>
      </trkpt>
      <trkpt lat="38.1528820" lon="-3.5433410">
        <ele>318.6</ele>
        <time>2018-06-16T09:48:24Z</time>
      </trkpt>
      <trkpt lat="38.1528150" lon="-3.5433420">
        <ele>318.8</ele>
        <time>2018-06-16T09:48:25Z</time>
      </trkpt>
      <trkpt lat="38.1527490" lon="-3.5433440">
        <ele>318.8</ele>
        <time>2018-06-16T09:48:26Z</time>
      </trkpt>
      <trkpt lat="38.1526820" lon="-3.5433480">
        <ele>318.6</ele>
        <time>2018-06-16T09:48:27Z</time>
      </trkpt>
      <trkpt lat="38.1526150" lon="-3.5433510">
        <ele>318.6</ele>
        <time>2018-06-16T09:48:28Z</time>
      </trkpt>
      <trkpt lat="38.1525490" lon="-3.5433540">
        <ele>319.0</ele>
        <time>2018-06-16T09:48:29Z</time>
      </trkpt>
      <trkpt lat="38.1524820" lon="-3.5433560">
        <ele>318.8</ele>
        <time>2018-06-16T09:48:30Z</time>
      </trkpt>
      <trkpt lat="38.1524150" lon="-3.5433620">
        <ele>318.8</ele>
        <time>2018-06-16T09:48:31Z</time>
      </trkpt>
      <trkpt lat="38.1523490" lon="-3.5433660">
        <ele>319.0</ele>
        <time>2018-06-16T09:48:32Z</time>
      </trkpt>
      <trkpt lat="38.1522830" lon="-3.5433690">
        <ele>319.0</ele>
        <time>2018-06-16T09:48:33Z</time>
      </trkpt>
      <trkpt lat="38.1522170" lon="-3.5433720">
        <ele>319.2</ele>
        <time>2018-06-16T09:48:34Z</time>
      </trkpt>
      <trkpt lat="38.1521510" lon="-3.5433750">
        <ele>319.2</ele>
        <time>2018-06-16T09:48:35Z</time>
      </trkpt>
      <trkpt lat="38.1520840" lon="-3.5433790">
        <ele>319.4</ele>
        <time>2018-06-16T09:48:36Z</time>
      </trkpt>
      <trkpt lat="38.1520190" lon="-3.5433830">
        <ele>319.2</ele>
        <time>2018-06-16T09:48:37Z</time>
      </trkpt>
      <trkpt lat="38.1519530" lon="-3.5433840">
        <ele>319.2</ele>
        <time>2018-06-16T09:48:38Z</time>
      </trkpt>
      <trkpt lat="38.1518880" lon="-3.5433850">
        <ele>319.4</ele>
        <time>2018-06-16T09:48:39Z</time>
      </trkpt>
      <trkpt lat="38.1518210" lon="-3.5433870">
        <ele>319.4</ele>
        <time>2018-06-16T09:48:40Z</time>
      </trkpt>
      <trkpt lat="38.1517540" lon="-3.5433910">
        <ele>319.2</ele>
        <time>2018-06-16T09:48:41Z</time>
      </trkpt>
      <trkpt lat="38.1516880" lon="-3.5433940">
        <ele>319.6</ele>
        <time>2018-06-16T09:48:42Z</time>
      </trkpt>
      <trkpt lat="38.1516220" lon="-3.5433970">
        <ele>319.6</ele>
        <time>2018-06-16T09:48:43Z</time>
      </trkpt>
      <trkpt lat="38.1515570" lon="-3.5433990">
        <ele>319.6</ele>
        <time>2018-06-16T09:48:44Z</time>
      </trkpt>
      <trkpt lat="38.1514920" lon="-3.5434000">
        <ele>319.8</ele>
        <time>2018-06-16T09:48:45Z</time>
      </trkpt>
      <trkpt lat="38.1514260" lon="-3.5434030">
        <ele>319.6</ele>
        <time>2018-06-16T09:48:46Z</time>
      </trkpt>
      <trkpt lat="38.1513610" lon="-3.5434040">
        <ele>319.8</ele>
        <time>2018-06-16T09:48:47Z</time>
      </trkpt>
      <trkpt lat="38.1512950" lon="-3.5434050">
        <ele>319.8</ele>
        <time>2018-06-16T09:48:48Z</time>
      </trkpt>
      <trkpt lat="38.1512300" lon="-3.5434050">
        <ele>319.8</ele>
        <time>2018-06-16T09:48:49Z</time>
      </trkpt>
      <trkpt lat="38.1511640" lon="-3.5434060">
        <ele>319.8</ele>
        <time>2018-06-16T09:48:50Z</time>
      </trkpt>
      <trkpt lat="38.1511000" lon="-3.5434080">
        <ele>319.8</ele>
        <time>2018-06-16T09:48:51Z</time>
      </trkpt>
      <trkpt lat="38.1510370" lon="-3.5434120">
        <ele>320.0</ele>
        <time>2018-06-16T09:48:52Z</time>
      </trkpt>
      <trkpt lat="38.1509750" lon="-3.5434150">
        <ele>320.0</ele>
        <time>2018-06-16T09:48:53Z</time>
      </trkpt>
      <trkpt lat="38.1509130" lon="-3.5434170">
        <ele>320.0</ele>
        <time>2018-06-16T09:48:54Z</time>
      </trkpt>
      <trkpt lat="38.1508510" lon="-3.5434180">
        <ele>320.2</ele>
        <time>2018-06-16T09:48:55Z</time>
      </trkpt>
      <trkpt lat="38.1507900" lon="-3.5434200">
        <ele>320.4</ele>
        <time>2018-06-16T09:48:56Z</time>
      </trkpt>
      <trkpt lat="38.1507300" lon="-3.5434230">
        <ele>320.6</ele>
        <time>2018-06-16T09:48:57Z</time>
      </trkpt>
      <trkpt lat="38.1506700" lon="-3.5434240">
        <ele>320.6</ele>
        <time>2018-06-16T09:48:58Z</time>
      </trkpt>
      <trkpt lat="38.1506110" lon="-3.5434240">
        <ele>320.8</ele>
        <time>2018-06-16T09:48:59Z</time>
      </trkpt>
      <trkpt lat="38.1505530" lon="-3.5434250">
        <ele>320.8</ele>
        <time>2018-06-16T09:49:00Z</time>
      </trkpt>
      <trkpt lat="38.1504950" lon="-3.5434260">
        <ele>321.0</ele>
        <time>2018-06-16T09:49:01Z</time>
      </trkpt>
      <trkpt lat="38.1504360" lon="-3.5434260">
        <ele>320.8</ele>
        <time>2018-06-16T09:49:02Z</time>
      </trkpt>
      <trkpt lat="38.1503790" lon="-3.5434260">
        <ele>320.8</ele>
        <time>2018-06-16T09:49:03Z</time>
      </trkpt>
      <trkpt lat="38.1503210" lon="-3.5434250">
        <ele>320.8</ele>
        <time>2018-06-16T09:49:04Z</time>
      </trkpt>
      <trkpt lat="38.1502620" lon="-3.5434240">
        <ele>320.8</ele>
        <time>2018-06-16T09:49:05Z</time>
      </trkpt>
      <trkpt lat="38.1502040" lon="-3.5434230">
        <ele>321.0</ele>
        <time>2018-06-16T09:49:06Z</time>
      </trkpt>
      <trkpt lat="38.1501440" lon="-3.5434190">
        <ele>320.8</ele>
        <time>2018-06-16T09:49:07Z</time>
      </trkpt>
      <trkpt lat="38.1500830" lon="-3.5434160">
        <ele>320.8</ele>
        <time>2018-06-16T09:49:08Z</time>
      </trkpt>
      <trkpt lat="38.1500230" lon="-3.5434120">
        <ele>320.6</ele>
        <time>2018-06-16T09:49:09Z</time>
      </trkpt>
      <trkpt lat="38.1499610" lon="-3.5434070">
        <ele>320.4</ele>
        <time>2018-06-16T09:49:10Z</time>
      </trkpt>
      <trkpt lat="38.1498990" lon="-3.5434010">
        <ele>320.6</ele>
        <time>2018-06-16T09:49:11Z</time>
      </trkpt>
      <trkpt lat="38.1498360" lon="-3.5433960">
        <ele>320.6</ele>
        <time>2018-06-16T09:49:12Z</time>
      </trkpt>
      <trkpt lat="38.1497730" lon="-3.5433900">
        <ele>320.2</ele>
        <time>2018-06-16T09:49:13Z</time>
      </trkpt>
      <trkpt lat="38.1497100" lon="-3.5433850">
        <ele>320.0</ele>
        <time>2018-06-16T09:49:14Z</time>
      </trkpt>
      <trkpt lat="38.1496470" lon="-3.5433800">
        <ele>320.0</ele>
        <time>2018-06-16T09:49:15Z</time>
      </trkpt>
      <trkpt lat="38.1495850" lon="-3.5433710">
        <ele>319.6</ele>
        <time>2018-06-16T09:49:16Z</time>
      </trkpt>
      <trkpt lat="38.1495210" lon="-3.5433600">
        <ele>319.4</ele>
        <time>2018-06-16T09:49:17Z</time>
      </trkpt>
      <trkpt lat="38.1494570" lon="-3.5433510">
        <ele>319.0</ele>
        <time>2018-06-16T09:49:18Z</time>
      </trkpt>
      <trkpt lat="38.1493910" lon="-3.5433400">
        <ele>318.8</ele>
        <time>2018-06-16T09:49:19Z</time>
      </trkpt>
      <trkpt lat="38.1493230" lon="-3.5433290">
        <ele>318.6</ele>
        <time>2018-06-16T09:49:20Z</time>
      </trkpt>
      <trkpt lat="38.1492540" lon="-3.5433190">
        <ele>318.2</ele>
        <time>2018-06-16T09:49:21Z</time>
      </trkpt>
      <trkpt lat="38.1491840" lon="-3.5433080">
        <ele>318.0</ele>
        <time>2018-06-16T09:49:22Z</time>
      </trkpt>
      <trkpt lat="38.1491120" lon="-3.5432940">
        <ele>317.6</ele>
        <time>2018-06-16T09:49:23Z</time>
      </trkpt>
      <trkpt lat="38.1490370" lon="-3.5432810">
        <ele>317.0</ele>
        <time>2018-06-16T09:49:24Z</time>
      </trkpt>
      <trkpt lat="38.1489610" lon="-3.5432670">
        <ele>316.8</ele>
        <time>2018-06-16T09:49:25Z</time>
      </trkpt>
      <trkpt lat="38.1488820" lon="-3.5432530">
        <ele>316.0</ele>
        <time>2018-06-16T09:49:26Z</time>
      </trkpt>
      <trkpt lat="38.1488000" lon="-3.5432380">
        <ele>316.0</ele>
        <time>2018-06-16T09:49:27Z</time>
      </trkpt>
      <trkpt lat="38.1487150" lon="-3.5432230">
        <ele>315.4</ele>
        <time>2018-06-16T09:49:28Z</time>
      </trkpt>
      <trkpt lat="38.1486280" lon="-3.5432080">
        <ele>315.2</ele>
        <time>2018-06-16T09:49:29Z</time>
      </trkpt>
      <trkpt lat="38.1485380" lon="-3.5431940">
        <ele>314.6</ele>
        <time>2018-06-16T09:49:30Z</time>
      </trkpt>
      <trkpt lat="38.1484460" lon="-3.5431800">
        <ele>313.6</ele>
        <time>2018-06-16T09:49:31Z</time>
      </trkpt>
      <trkpt lat="38.1483530" lon="-3.5431640">
        <ele>313.2</ele>
        <time>2018-06-16T09:49:32Z</time>
      </trkpt>
      <trkpt lat="38.1482600" lon="-3.5431480">
        <ele>312.2</ele>
        <time>2018-06-16T09:49:33Z</time>
      </trkpt>
      <trkpt lat="38.1481650" lon="-3.5431300">
        <ele>311.8</ele>
        <time>2018-06-16T09:49:34Z</time>
      </trkpt>
      <trkpt lat="38.1480700" lon="-3.5431130">
        <ele>311.4</ele>
        <time>2018-06-16T09:49:35Z</time>
      </trkpt>
      <trkpt lat="38.1479750" lon="-3.5430970">
        <ele>310.6</ele>
        <time>2018-06-16T09:49:36Z</time>
      </trkpt>
      <trkpt lat="38.1478790" lon="-3.5430820">
        <ele>310.0</ele>
        <time>2018-06-16T09:49:37Z</time>
      </trkpt>
      <trkpt lat="38.1477820" lon="-3.5430650">
        <ele>309.4</ele>
        <time>2018-06-16T09:49:38Z</time>
      </trkpt>
      <trkpt lat="38.1476840" lon="-3.5430490">
        <ele>308.8</ele>
        <time>2018-06-16T09:49:39Z</time>
      </trkpt>
      <trkpt lat="38.1475860" lon="-3.5430320">
        <ele>308.4</ele>
        <time>2018-06-16T09:49:40Z</time>
      </trkpt>
      <trkpt lat="38.1474880" lon="-3.5430170">
        <ele>307.8</ele>
        <time>2018-06-16T09:49:41Z</time>
      </trkpt>
      <trkpt lat="38.1473880" lon="-3.5430010">
        <ele>306.6</ele>
        <time>2018-06-16T09:49:42Z</time>
      </trkpt>
      <trkpt lat="38.1472880" lon="-3.5429830">
        <ele>306.4</ele>
        <time>2018-06-16T09:49:43Z</time>
      </trkpt>
      <trkpt lat="38.1471880" lon="-3.5429660">
        <ele>305.2</ele>
        <time>2018-06-16T09:49:44Z</time>
      </trkpt>
      <trkpt lat="38.1470870" lon="-3.5429500">
        <ele>304.8</ele>
        <time>2018-06-16T09:49:45Z</time>
      </trkpt>
      <trkpt lat="38.1469860" lon="-3.5429340">
        <ele>304.0</ele>
        <time>2018-06-16T09:49:46Z</time>
      </trkpt>
      <trkpt lat="38.1468840" lon="-3.5429180">
        <ele>303.4</ele>
        <time>2018-06-16T09:49:47Z</time>
      </trkpt>
      <trkpt lat="38.1467800" lon="-3.5429010">
        <ele>303.0</ele>
        <time>2018-06-16T09:49:48Z</time>
      </trkpt>
      <trkpt lat="38.1466750" lon="-3.5428830">
        <ele>302.2</ele>
        <time>2018-06-16T09:49:49Z</time>
      </trkpt>
      <trkpt lat="38.1465670" lon="-3.5428650">
        <ele>301.2</ele>
        <time>2018-06-16T09:49:50Z</time>
      </trkpt>
      <trkpt lat="38.1464570" lon="-3.5428450">
        <ele>300.2</ele>
        <time>2018-06-16T09:49:51Z</time>
      </trkpt>
      <trkpt lat="38.1463460" lon="-3.5428240">
        <ele>299.4</ele>
        <time>2018-06-16T09:49:52Z</time>
      </trkpt>
      <trkpt lat="38.1462340" lon="-3.5428000">
        <ele>298.4</ele>
        <time>2018-06-16T09:49:53Z</time>
      </trkpt>
      <trkpt lat="38.1461200" lon="-3.5427760">
        <ele>297.4</ele>
        <time>2018-06-16T09:49:54Z</time>
      </trkpt>
      <trkpt lat="38.1460030" lon="-3.5427510">
        <ele>296.2</ele>
        <time>2018-06-16T09:49:55Z</time>
      </trkpt>
      <trkpt lat="38.1458850" lon="-3.5427270">
        <ele>295.4</ele>
        <time>2018-06-16T09:49:56Z</time>
      </trkpt>
      <trkpt lat="38.1457680" lon="-3.5427050">
        <ele>294.6</ele>
        <time>2018-06-16T09:49:57Z</time>
      </trkpt>
      <trkpt lat="38.1456500" lon="-3.5426860">
        <ele>293.8</ele>
        <time>2018-06-16T09:49:58Z</time>
      </trkpt>
      <trkpt lat="38.1455310" lon="-3.5426760">
        <ele>293.2</ele>
        <time>2018-06-16T09:49:59Z</time>
      </trkpt>
      <trkpt lat="38.1454140" lon="-3.5426760">
        <ele>292.6</ele>
        <time>2018-06-16T09:50:00Z</time>
      </trkpt>
      <trkpt lat="38.1452970" lon="-3.5426880">
        <ele>291.8</ele>
        <time>2018-06-16T09:50:01Z</time>
      </trkpt>
      <trkpt lat="38.1451800" lon="-3.5427100">
        <ele>290.8</ele>
        <time>2018-06-16T09:50:02Z</time>
      </trkpt>
      <trkpt lat="38.1450660" lon="-3.5427340">
        <ele>290.0</ele>
        <time>2018-06-16T09:50:03Z</time>
      </trkpt>
      <trkpt lat="38.1449580" lon="-3.5427470">
        <ele>289.4</ele>
        <time>2018-06-16T09:50:04Z</time>
      </trkpt>
      <trkpt lat="38.1448560" lon="-3.5427520">
        <ele>288.8</ele>
        <time>2018-06-16T09:50:05Z</time>
      </trkpt>
      <trkpt lat="38.1447600" lon="-3.5427530">
        <ele>288.4</ele>
        <time>2018-06-16T09:50:06Z</time>
      </trkpt>
      <trkpt lat="38.1446690" lon="-3.5427510">
        <ele>287.8</ele>
        <time>2018-06-16T09:50:07Z</time>
      </trkpt>
      <trkpt lat="38.1445820" lon="-3.5427430">
        <ele>287.4</ele>
        <time>2018-06-16T09:50:08Z</time>
      </trkpt>
      <trkpt lat="38.1444970" lon="-3.5427310">
        <ele>287.2</ele>
        <time>2018-06-16T09:50:09Z</time>
      </trkpt>
      <trkpt lat="38.1444150" lon="-3.5427260">
        <ele>286.6</ele>
        <time>2018-06-16T09:50:10Z</time>
      </trkpt>
      <trkpt lat="38.1443400" lon="-3.5427420">
        <ele>286.2</ele>
        <time>2018-06-16T09:50:11Z</time>
      </trkpt>
      <trkpt lat="38.1442720" lon="-3.5427850">
        <ele>285.8</ele>
        <time>2018-06-16T09:50:12Z</time>
      </trkpt>
      <trkpt lat="38.1442200" lon="-3.5428530">
        <ele>285.8</ele>
        <time>2018-06-16T09:50:13Z</time>
      </trkpt>
      <trkpt lat="38.1441770" lon="-3.5429330">
        <ele>285.6</ele>
        <time>2018-06-16T09:50:14Z</time>
      </trkpt>
      <trkpt lat="38.1441410" lon="-3.5430190">
        <ele>285.4</ele>
        <time>2018-06-16T09:50:15Z</time>
      </trkpt>
      <trkpt lat="38.1441060" lon="-3.5431060">
        <ele>285.2</ele>
        <time>2018-06-16T09:50:16Z</time>
      </trkpt>
      <trkpt lat="38.1440740" lon="-3.5431930">
        <ele>285.0</ele>
        <time>2018-06-16T09:50:17Z</time>
      </trkpt>
      <trkpt lat="38.1440380" lon="-3.5432780">
        <ele>284.6</ele>
        <time>2018-06-16T09:50:18Z</time>
      </trkpt>
      <trkpt lat="38.1439990" lon="-3.5433630">
        <ele>284.2</ele>
        <time>2018-06-16T09:50:19Z</time>
      </trkpt>
      <trkpt lat="38.1439590" lon="-3.5434460">
        <ele>284.2</ele>
        <time>2018-06-16T09:50:20Z</time>
      </trkpt>
      <trkpt lat="38.1439190" lon="-3.5435300">
        <ele>283.4</ele>
        <time>2018-06-16T09:50:21Z</time>
      </trkpt>
      <trkpt lat="38.1438780" lon="-3.5436140">
        <ele>283.4</ele>
        <time>2018-06-16T09:50:22Z</time>
      </trkpt>
      <trkpt lat="38.1438370" lon="-3.5437000">
        <ele>283.0</ele>
        <time>2018-06-16T09:50:23Z</time>
      </trkpt>
      <trkpt lat="38.1437960" lon="-3.5437860">
        <ele>282.8</ele>
        <time>2018-06-16T09:50:24Z</time>
      </trkpt>
      <trkpt lat="38.1437570" lon="-3.5438740">
        <ele>282.6</ele>
        <time>2018-06-16T09:50:25Z</time>
      </trkpt>
      <trkpt lat="38.1437190" lon="-3.5439650">
        <ele>282.2</ele>
        <time>2018-06-16T09:50:26Z</time>
      </trkpt>
      <trkpt lat="38.1436800" lon="-3.5440550">
        <ele>282.0</ele>
        <time>2018-06-16T09:50:27Z</time>
      </trkpt>
      <trkpt lat="38.1436360" lon="-3.5441410">
        <ele>281.6</ele>
        <time>2018-06-16T09:50:28Z</time>
      </trkpt>
      <trkpt lat="38.1435840" lon="-3.5442210">
        <ele>281.6</ele>
        <time>2018-06-16T09:50:29Z</time>
      </trkpt>
      <trkpt lat="38.1435250" lon="-3.5442920">
        <ele>281.2</ele>
        <time>2018-06-16T09:50:30Z</time>
      </trkpt>
      <trkpt lat="38.1434590" lon="-3.5443490">
        <ele>281.0</ele>
        <time>2018-06-16T09:50:31Z</time>
      </trkpt>
      <trkpt lat="38.1433870" lon="-3.5443920">
        <ele>281.0</ele>
        <time>2018-06-16T09:50:32Z</time>
      </trkpt>
      <trkpt lat="38.1433140" lon="-3.5444280">
        <ele>281.0</ele>
        <time>2018-06-16T09:50:33Z</time>
      </trkpt>
      <trkpt lat="38.1432410" lon="-3.5444630">
        <ele>281.0</ele>
        <time>2018-06-16T09:50:34Z</time>
      </trkpt>
      <trkpt lat="38.1431710" lon="-3.5444950">
        <ele>281.2</ele>
        <time>2018-06-16T09:50:35Z</time>
      </trkpt>
      <trkpt lat="38.1431040" lon="-3.5445300">
        <ele>281.4</ele>
        <time>2018-06-16T09:50:36Z</time>
      </trkpt>
      <trkpt lat="38.1430440" lon="-3.5445740">
        <ele>281.8</ele>
        <time>2018-06-16T09:50:37Z</time>
      </trkpt>
      <trkpt lat="38.1429970" lon="-3.5446320">
        <ele>282.2</ele>
        <time>2018-06-16T09:50:38Z</time>
      </trkpt>
      <trkpt lat="38.1429650" lon="-3.5446950">
        <ele>282.6</ele>
        <time>2018-06-16T09:50:39Z</time>
      </trkpt>
      <trkpt lat="38.1429500" lon="-3.5447560">
        <ele>283.0</ele>
        <time>2018-06-16T09:50:40Z</time>
      </trkpt>
      <trkpt lat="38.1429440" lon="-3.5448170">
        <ele>283.4</ele>
        <time>2018-06-16T09:50:41Z</time>
      </trkpt>
      <trkpt lat="38.1429460" lon="-3.5448780">
        <ele>283.4</ele>
        <time>2018-06-16T09:50:42Z</time>
      </trkpt>
      <trkpt lat="38.1429550" lon="-3.5449380">
        <ele>283.6</ele>
        <time>2018-06-16T09:50:43Z</time>
      </trkpt>
      <trkpt lat="38.1429730" lon="-3.5449920">
        <ele>283.8</ele>
        <time>2018-06-16T09:50:44Z</time>
      </trkpt>
      <trkpt lat="38.1429980" lon="-3.5450420">
        <ele>284.0</ele>
        <time>2018-06-16T09:50:45Z</time>
      </trkpt>
      <trkpt lat="38.1430270" lon="-3.5450880">
        <ele>284.0</ele>
        <time>2018-06-16T09:50:46Z</time>
      </trkpt>
      <trkpt lat="38.1430560" lon="-3.5451330">
        <ele>284.2</ele>
        <time>2018-06-16T09:50:47Z</time>
      </trkpt>
      <trkpt lat="38.1430880" lon="-3.5451790">
        <ele>284.4</ele>
        <time>2018-06-16T09:50:48Z</time>
      </trkpt>
      <trkpt lat="38.1431200" lon="-3.5452270">
        <ele>284.4</ele>
        <time>2018-06-16T09:50:49Z</time>
      </trkpt>
      <trkpt lat="38.1431510" lon="-3.5452770">
        <ele>284.4</ele>
        <time>2018-06-16T09:50:50Z</time>
      </trkpt>
      <trkpt lat="38.1431810" lon="-3.5453280">
        <ele>284.6</ele>
        <time>2018-06-16T09:50:51Z</time>
      </trkpt>
      <trkpt lat="38.1432100" lon="-3.5453820">
        <ele>284.4</ele>
        <time>2018-06-16T09:50:52Z</time>
      </trkpt>
      <trkpt lat="38.1432360" lon="-3.5454390">
        <ele>284.4</ele>
        <time>2018-06-16T09:50:53Z</time>
      </trkpt>
      <trkpt lat="38.1432590" lon="-3.5454970">
        <ele>284.8</ele>
        <time>2018-06-16T09:50:54Z</time>
      </trkpt>
      <trkpt lat="38.1432790" lon="-3.5455580">
        <ele>285.0</ele>
        <time>2018-06-16T09:50:55Z</time>
      </trkpt>
      <trkpt lat="38.1432960" lon="-3.5456200">
        <ele>285.2</ele>
        <time>2018-06-16T09:50:56Z</time>
      </trkpt>
      <trkpt lat="38.1433080" lon="-3.5456850">
        <ele>285.0</ele>
        <time>2018-06-16T09:50:57Z</time>
      </trkpt>
      <trkpt lat="38.1433170" lon="-3.5457540">
        <ele>285.0</ele>
        <time>2018-06-16T09:50:58Z</time>
      </trkpt>
      <trkpt lat="38.1433220" lon="-3.5458190">
        <ele>285.0</ele>
        <time>2018-06-16T09:50:59Z</time>
      </trkpt>
      <trkpt lat="38.1433240" lon="-3.5458840">
        <ele>285.2</ele>
        <time>2018-06-16T09:51:00Z</time>
      </trkpt>
      <trkpt lat="38.1433230" lon="-3.5459490">
        <ele>285.2</ele>
        <time>2018-06-16T09:51:01Z</time>
      </trkpt>
      <trkpt lat="38.1433180" lon="-3.5460160">
        <ele>285.2</ele>
        <time>2018-06-16T09:51:02Z</time>
      </trkpt>
      <trkpt lat="38.1433110" lon="-3.5460790">
        <ele>285.6</ele>
        <time>2018-06-16T09:51:03Z</time>
      </trkpt>
      <trkpt lat="38.1432990" lon="-3.5461410">
        <ele>285.4</ele>
        <time>2018-06-16T09:51:04Z</time>
      </trkpt>
      <trkpt lat="38.1432830" lon="-3.5462030">
        <ele>285.8</ele>
        <time>2018-06-16T09:51:05Z</time>
      </trkpt>
      <trkpt lat="38.1432640" lon="-3.5462630">
        <ele>285.4</ele>
        <time>2018-06-16T09:51:06Z</time>
      </trkpt>
      <trkpt lat="38.1432430" lon="-3.5463220">
        <ele>285.4</ele>
        <time>2018-06-16T09:51:07Z</time>
      </trkpt>
      <trkpt lat="38.1432170" lon="-3.5463810">
        <ele>285.4</ele>
        <time>2018-06-16T09:51:08Z</time>
      </trkpt>
      <trkpt lat="38.1431900" lon="-3.5464340">
        <ele>285.8</ele>
        <time>2018-06-16T09:51:09Z</time>
      </trkpt>
      <trkpt lat="38.1431650" lon="-3.5464880">
        <ele>285.8</ele>
        <time>2018-06-16T09:51:10Z</time>
      </trkpt>
      <trkpt lat="38.1431370" lon="-3.5465400">
        <ele>286.0</ele>
        <time>2018-06-16T09:51:11Z</time>
      </trkpt>
      <trkpt lat="38.1431090" lon="-3.5465950">
        <ele>286.2</ele>
        <time>2018-06-16T09:51:12Z</time>
      </trkpt>
      <trkpt lat="38.1430830" lon="-3.5466500">
        <ele>286.0</ele>
        <time>2018-06-16T09:51:13Z</time>
      </trkpt>
      <trkpt lat="38.1430560" lon="-3.5467040">
        <ele>286.2</ele>
        <time>2018-06-16T09:51:14Z</time>
      </trkpt>
      <trkpt lat="38.1430280" lon="-3.5467580">
        <ele>286.2</ele>
        <time>2018-06-16T09:51:15Z</time>
      </trkpt>
      <trkpt lat="38.1429980" lon="-3.5468160">
        <ele>286.2</ele>
        <time>2018-06-16T09:51:16Z</time>
      </trkpt>
      <trkpt lat="38.1429710" lon="-3.5468740">
        <ele>286.6</ele>
        <time>2018-06-16T09:51:17Z</time>
      </trkpt>
      <trkpt lat="38.1429420" lon="-3.5469260">
        <ele>286.2</ele>
        <time>2018-06-16T09:51:18Z</time>
      </trkpt>
      <trkpt lat="38.1429150" lon="-3.5469760">
        <ele>286.4</ele>
        <time>2018-06-16T09:51:19Z</time>
      </trkpt>
      <trkpt lat="38.1428840" lon="-3.5470270">
        <ele>286.6</ele>
        <time>2018-06-16T09:51:20Z</time>
      </trkpt>
      <trkpt lat="38.1428540" lon="-3.5470770">
        <ele>286.6</ele>
        <time>2018-06-16T09:51:21Z</time>
      </trkpt>
      <trkpt lat="38.1428240" lon="-3.5471260">
        <ele>286.8</ele>
        <time>2018-06-16T09:51:22Z</time>
      </trkpt>
      <trkpt lat="38.1427910" lon="-3.5471730">
        <ele>286.8</ele>
        <time>2018-06-16T09:51:23Z</time>
      </trkpt>
      <trkpt lat="38.1427580" lon="-3.5472180">
        <ele>286.8</ele>
        <time>2018-06-16T09:51:24Z</time>
      </trkpt>
      <trkpt lat="38.1427240" lon="-3.5472630">
        <ele>287.0</ele>
        <time>2018-06-16T09:51:25Z</time>
      </trkpt>
      <trkpt lat="38.1426870" lon="-3.5473070">
        <ele>286.8</ele>
        <time>2018-06-16T09:51:26Z</time>
      </trkpt>
      <trkpt lat="38.1426500" lon="-3.5473480">
        <ele>287.0</ele>
        <time>2018-06-16T09:51:27Z</time>
      </trkpt>
      <trkpt lat="38.1426120" lon="-3.5473870">
        <ele>287.2</ele>
        <time>2018-06-16T09:51:28Z</time>
      </trkpt>
      <trkpt lat="38.1425730" lon="-3.5474290">
        <ele>287.0</ele>
        <time>2018-06-16T09:51:29Z</time>
      </trkpt>
      <trkpt lat="38.1425350" lon="-3.5474750">
        <ele>287.2</ele>
        <time>2018-06-16T09:51:30Z</time>
      </trkpt>
      <trkpt lat="38.1424950" lon="-3.5475150">
        <ele>287.4</ele>
        <time>2018-06-16T09:51:31Z</time>
      </trkpt>
      <trkpt lat="38.1424550" lon="-3.5475550">
        <ele>287.4</ele>
        <time>2018-06-16T09:51:32Z</time>
      </trkpt>
      <trkpt lat="38.1424160" lon="-3.5475960">
        <ele>287.4</ele>
        <time>2018-06-16T09:51:33Z</time>
      </trkpt>
      <trkpt lat="38.1423810" lon="-3.5476360">
        <ele>287.4</ele>
        <time>2018-06-16T09:51:34Z</time>
      </trkpt>
      <trkpt lat="38.1423420" lon="-3.5476760">
        <ele>287.4</ele>
        <time>2018-06-16T09:51:35Z</time>
      </trkpt>
      <trkpt lat="38.1423040" lon="-3.5477160">
        <ele>287.6</ele>
        <time>2018-06-16T09:51:36Z</time>
      </trkpt>
      <trkpt lat="38.1422650" lon="-3.5477550">
        <ele>287.6</ele>
        <time>2018-06-16T09:51:37Z</time>
      </trkpt>
      <trkpt lat="38.1422260" lon="-3.5477930">
        <ele>287.8</ele>
        <time>2018-06-16T09:51:38Z</time>
      </trkpt>
      <trkpt lat="38.1421880" lon="-3.5478320">
        <ele>287.8</ele>
        <time>2018-06-16T09:51:39Z</time>
      </trkpt>
      <trkpt lat="38.1421500" lon="-3.5478710">
        <ele>287.8</ele>
        <time>2018-06-16T09:51:40Z</time>
      </trkpt>
      <trkpt lat="38.1421130" lon="-3.5479090">
        <ele>287.8</ele>
        <time>2018-06-16T09:51:41Z</time>
      </trkpt>
      <trkpt lat="38.1420750" lon="-3.5479490">
        <ele>288.0</ele>
        <time>2018-06-16T09:51:42Z</time>
      </trkpt>
      <trkpt lat="38.1420370" lon="-3.5479880">
        <ele>288.0</ele>
        <time>2018-06-16T09:51:43Z</time>
      </trkpt>
      <trkpt lat="38.1420010" lon="-3.5480270">
        <ele>288.2</ele>
        <time>2018-06-16T09:51:44Z</time>
      </trkpt>
      <trkpt lat="38.1419650" lon="-3.5480660">
        <ele>288.4</ele>
        <time>2018-06-16T09:51:45Z</time>
      </trkpt>
      <trkpt lat="38.1419280" lon="-3.5481060">
        <ele>288.4</ele>
        <time>2018-06-16T09:51:46Z</time>
      </trkpt>
      <trkpt lat="38.1418930" lon="-3.5481470">
        <ele>288.2</ele>
        <time>2018-06-16T09:51:47Z</time>
      </trkpt>
      <trkpt lat="38.1418560" lon="-3.5481860">
        <ele>288.4</ele>
        <time>2018-06-16T09:51:48Z</time>
      </trkpt>
      <trkpt lat="38.1418170" lon="-3.5482250">
        <ele>288.4</ele>
        <time>2018-06-16T09:51:49Z</time>
      </trkpt>
      <trkpt lat="38.1417790" lon="-3.5482630">
        <ele>288.4</ele>
        <time>2018-06-16T09:51:50Z</time>
      </trkpt>
      <trkpt lat="38.1417410" lon="-3.5483020">
        <ele>288.4</ele>
        <time>2018-06-16T09:51:51Z</time>
      </trkpt>
      <trkpt lat="38.1417030" lon="-3.5483430">
        <ele>288.4</ele>
        <time>2018-06-16T09:51:52Z</time>
      </trkpt>
      <trkpt lat="38.1416640" lon="-3.5483820">
        <ele>288.6</ele>
        <time>2018-06-16T09:51:53Z</time>
      </trkpt>
      <trkpt lat="38.1416250" lon="-3.5484210">
        <ele>288.4</ele>
        <time>2018-06-16T09:51:54Z</time>
      </trkpt>
      <trkpt lat="38.1415880" lon="-3.5484630">
        <ele>288.6</ele>
        <time>2018-06-16T09:51:55Z</time>
      </trkpt>
      <trkpt lat="38.1415500" lon="-3.5485030">
        <ele>288.6</ele>
        <time>2018-06-16T09:51:56Z</time>
      </trkpt>
      <trkpt lat="38.1415120" lon="-3.5485430">
        <ele>288.8</ele>
        <time>2018-06-16T09:51:57Z</time>
      </trkpt>
      <trkpt lat="38.1414750" lon="-3.5485820">
        <ele>289.0</ele>
        <time>2018-06-16T09:51:58Z</time>
      </trkpt>
      <trkpt lat="38.1414380" lon="-3.5486210">
        <ele>289.0</ele>
        <time>2018-06-16T09:51:59Z</time>
      </trkpt>
      <trkpt lat="38.1413990" lon="-3.5486610">
        <ele>289.0</ele>
        <time>2018-06-16T09:52:00Z</time>
      </trkpt>
      <trkpt lat="38.1413600" lon="-3.5487020">
        <ele>289.0</ele>
        <time>2018-06-16T09:52:01Z</time>
      </trkpt>
      <trkpt lat="38.1413200" lon="-3.5487410">
        <ele>289.4</ele>
        <time>2018-06-16T09:52:02Z</time>
      </trkpt>
      <trkpt lat="38.1412790" lon="-3.5487830">
        <ele>289.2</ele>
        <time>2018-06-16T09:52:03Z</time>
      </trkpt>
      <trkpt lat="38.1412410" lon="-3.5488250">
        <ele>289.2</ele>
        <time>2018-06-16T09:52:04Z</time>
      </trkpt>
      <trkpt lat="38.1412010" lon="-3.5488650">
        <ele>289.4</ele>
        <time>2018-06-16T09:52:05Z</time>
      </trkpt>
      <trkpt lat="38.1411610" lon="-3.5489050">
        <ele>289.2</ele>
        <time>2018-06-16T09:52:06Z</time>
      </trkpt>
      <trkpt lat="38.1411220" lon="-3.5489440">
        <ele>289.4</ele>
        <time>2018-06-16T09:52:07Z</time>
      </trkpt>
      <trkpt lat="38.1410820" lon="-3.5489850">
        <ele>289.2</ele>
        <time>2018-06-16T09:52:08Z</time>
      </trkpt>
      <trkpt lat="38.1410430" lon="-3.5490250">
        <ele>289.4</ele>
        <time>2018-06-16T09:52:09Z</time>
      </trkpt>
      <trkpt lat="38.1410050" lon="-3.5490650">
        <ele>289.6</ele>
        <time>2018-06-16T09:52:10Z</time>
      </trkpt>
      <trkpt lat="38.1409670" lon="-3.5491030">
        <ele>289.6</ele>
        <time>2018-06-16T09:52:11Z</time>
      </trkpt>
      <trkpt lat="38.1409280" lon="-3.5491410">
        <ele>289.8</ele>
        <time>2018-06-16T09:52:12Z</time>
      </trkpt>
      <trkpt lat="38.1408890" lon="-3.5491790">
        <ele>289.8</ele>
        <time>2018-06-16T09:52:13Z</time>
      </trkpt>
      <trkpt lat="38.1408510" lon="-3.5492190">
        <ele>289.8</ele>
        <time>2018-06-16T09:52:14Z</time>
      </trkpt>
      <trkpt lat="38.1408130" lon="-3.5492580">
        <ele>289.8</ele>
        <time>2018-06-16T09:52:15Z</time>
      </trkpt>
      <trkpt lat="38.1407750" lon="-3.5492970">
        <ele>289.8</ele>
        <time>2018-06-16T09:52:16Z</time>
      </trkpt>
      <trkpt lat="38.1407360" lon="-3.5493350">
        <ele>289.8</ele>
        <time>2018-06-16T09:52:17Z</time>
      </trkpt>
      <trkpt lat="38.1406970" lon="-3.5493760">
        <ele>290.0</ele>
        <time>2018-06-16T09:52:18Z</time>
      </trkpt>
      <trkpt lat="38.1406590" lon="-3.5494160">
        <ele>290.0</ele>
        <time>2018-06-16T09:52:19Z</time>
      </trkpt>
      <trkpt lat="38.1406210" lon="-3.5494550">
        <ele>290.0</ele>
        <time>2018-06-16T09:52:20Z</time>
      </trkpt>
      <trkpt lat="38.1405840" lon="-3.5494950">
        <ele>290.2</ele>
        <time>2018-06-16T09:52:21Z</time>
      </trkpt>
      <trkpt lat="38.1405470" lon="-3.5495380">
        <ele>290.0</ele>
        <time>2018-06-16T09:52:22Z</time>
      </trkpt>
      <trkpt lat="38.1405090" lon="-3.5495790">
        <ele>290.2</ele>
        <time>2018-06-16T09:52:23Z</time>
      </trkpt>
      <trkpt lat="38.1404720" lon="-3.5496210">
        <ele>290.2</ele>
        <time>2018-06-16T09:52:24Z</time>
      </trkpt>
      <trkpt lat="38.1404360" lon="-3.5496650">
        <ele>290.2</ele>
        <time>2018-06-16T09:52:25Z</time>
      </trkpt>
      <trkpt lat="38.1404010" lon="-3.5497120">
        <ele>290.2</ele>
        <time>2018-06-16T09:52:26Z</time>
      </trkpt>
      <trkpt lat="38.1403680" lon="-3.5497590">
        <ele>290.2</ele>
        <time>2018-06-16T09:52:27Z</time>
      </trkpt>
      <trkpt lat="38.1403370" lon="-3.5498080">
        <ele>290.4</ele>
        <time>2018-06-16T09:52:28Z</time>
      </trkpt>
      <trkpt lat="38.1403060" lon="-3.5498590">
        <ele>290.4</ele>
        <time>2018-06-16T09:52:29Z</time>
      </trkpt>
      <trkpt lat="38.1402770" lon="-3.5499090">
        <ele>290.4</ele>
        <time>2018-06-16T09:52:30Z</time>
      </trkpt>
      <trkpt lat="38.1402470" lon="-3.5499580">
        <ele>290.6</ele>
        <time>2018-06-16T09:52:31Z</time>
      </trkpt>
      <trkpt lat="38.1402180" lon="-3.5500070">
        <ele>290.4</ele>
        <time>2018-06-16T09:52:32Z</time>
      </trkpt>
      <trkpt lat="38.1401900" lon="-3.5500590">
        <ele>290.6</ele>
        <time>2018-06-16T09:52:33Z</time>
      </trkpt>
      <trkpt lat="38.1401620" lon="-3.5501090">
        <ele>290.6</ele>
        <time>2018-06-16T09:52:34Z</time>
      </trkpt>
      <trkpt lat="38.1401340" lon="-3.5501600">
        <ele>290.6</ele>
        <time>2018-06-16T09:52:35Z</time>
      </trkpt>
      <trkpt lat="38.1401050" lon="-3.5502120">
        <ele>290.6</ele>
        <time>2018-06-16T09:52:36Z</time>
      </trkpt>
      <trkpt lat="38.1400760" lon="-3.5502650">
        <ele>290.8</ele>
        <time>2018-06-16T09:52:37Z</time>
      </trkpt>
      <trkpt lat="38.1400480" lon="-3.5503160">
        <ele>290.8</ele>
        <time>2018-06-16T09:52:38Z</time>
      </trkpt>
      <trkpt lat="38.1400190" lon="-3.5503660">
        <ele>290.6</ele>
        <time>2018-06-16T09:52:39Z</time>
      </trkpt>
      <trkpt lat="38.1399910" lon="-3.5504170">
        <ele>290.8</ele>
        <time>2018-06-16T09:52:40Z</time>
      </trkpt>
      <trkpt lat="38.1399620" lon="-3.5504680">
        <ele>290.8</ele>
        <time>2018-06-16T09:52:41Z</time>
      </trkpt>
      <trkpt lat="38.1399330" lon="-3.5505180">
        <ele>291.0</ele>
        <time>2018-06-16T09:52:42Z</time>
      </trkpt>
      <trkpt lat="38.1399050" lon="-3.5505690">
        <ele>291.0</ele>
        <time>2018-06-16T09:52:43Z</time>
      </trkpt>
      <trkpt lat="38.1398760" lon="-3.5506190">
        <ele>291.0</ele>
        <time>2018-06-16T09:52:44Z</time>
      </trkpt>
      <trkpt lat="38.1398460" lon="-3.5506690">
        <ele>291.0</ele>
        <time>2018-06-16T09:52:45Z</time>
      </trkpt>
      <trkpt lat="38.1398190" lon="-3.5507210">
        <ele>291.0</ele>
        <time>2018-06-16T09:52:46Z</time>
      </trkpt>
      <trkpt lat="38.1397910" lon="-3.5507720">
        <ele>291.2</ele>
        <time>2018-06-16T09:52:47Z</time>
      </trkpt>
      <trkpt lat="38.1397640" lon="-3.5508220">
        <ele>291.2</ele>
        <time>2018-06-16T09:52:48Z</time>
      </trkpt>
      <trkpt lat="38.1397350" lon="-3.5508720">
        <ele>291.0</ele>
        <time>2018-06-16T09:52:49Z</time>
      </trkpt>
      <trkpt lat="38.1397080" lon="-3.5509230">
        <ele>291.2</ele>
        <time>2018-06-16T09:52:50Z</time>
      </trkpt>
      <trkpt lat="38.1396820" lon="-3.5509730">
        <ele>291.4</ele>
        <time>2018-06-16T09:52:51Z</time>
      </trkpt>
      <trkpt lat="38.1396540" lon="-3.5510230">
        <ele>291.4</ele>
        <time>2018-06-16T09:52:52Z</time>
      </trkpt>
      <trkpt lat="38.1396270" lon="-3.5510730">
        <ele>291.2</ele>
        <time>2018-06-16T09:52:53Z</time>
      </trkpt>
      <trkpt lat="38.1396010" lon="-3.5511240">
        <ele>291.4</ele>
        <time>2018-06-16T09:52:54Z</time>
      </trkpt>
      <trkpt lat="38.1395740" lon="-3.5511750">
        <ele>291.6</ele>
        <time>2018-06-16T09:52:55Z</time>
      </trkpt>
      <trkpt lat="38.1395470" lon="-3.5512240">
        <ele>291.6</ele>
        <time>2018-06-16T09:52:56Z</time>
      </trkpt>
      <trkpt lat="38.1395200" lon="-3.5512740">
        <ele>291.6</ele>
        <time>2018-06-16T09:52:57Z</time>
      </trkpt>
      <trkpt lat="38.1394930" lon="-3.5513240">
        <ele>291.8</ele>
        <time>2018-06-16T09:52:58Z</time>
      </trkpt>
      <trkpt lat="38.1394650" lon="-3.5513730">
        <ele>292.0</ele>
        <time>2018-06-16T09:52:59Z</time>
      </trkpt>
      <trkpt lat="38.1394360" lon="-3.5514220">
        <ele>292.0</ele>
        <time>2018-06-16T09:53:00Z</time>
      </trkpt>
      <trkpt lat="38.1394070" lon="-3.5514710">
        <ele>292.0</ele>
        <time>2018-06-16T09:53:01Z</time>
      </trkpt>
      <trkpt lat="38.1393810" lon="-3.5515210">
        <ele>292.0</ele>
        <time>2018-06-16T09:53:02Z</time>
      </trkpt>
      <trkpt lat="38.1393550" lon="-3.5515710">
        <ele>292.0</ele>
        <time>2018-06-16T09:53:03Z</time>
      </trkpt>
      <trkpt lat="38.1393280" lon="-3.5516200">
        <ele>292.0</ele>
        <time>2018-06-16T09:53:04Z</time>
      </trkpt>
      <trkpt lat="38.1393000" lon="-3.5516670">
        <ele>292.2</ele>
        <time>2018-06-16T09:53:05Z</time>
      </trkpt>
      <trkpt lat="38.1392720" lon="-3.5517160">
        <ele>292.2</ele>
        <time>2018-06-16T09:53:06Z</time>
      </trkpt>
      <trkpt lat="38.1392470" lon="-3.5517660">
        <ele>292.4</ele>
        <time>2018-06-16T09:53:07Z</time>
      </trkpt>
      <trkpt lat="38.1392210" lon="-3.5518160">
        <ele>292.2</ele>
        <time>2018-06-16T09:53:08Z</time>
      </trkpt>
      <trkpt lat="38.1391930" lon="-3.5518650">
        <ele>292.0</ele>
        <time>2018-06-16T09:53:09Z</time>
      </trkpt>
      <trkpt lat="38.1391670" lon="-3.5519120">
        <ele>292.2</ele>
        <time>2018-06-16T09:53:10Z</time>
      </trkpt>
      <trkpt lat="38.1391420" lon="-3.5519610">
        <ele>292.2</ele>
        <time>2018-06-16T09:53:11Z</time>
      </trkpt>
      <trkpt lat="38.1391150" lon="-3.5520100">
        <ele>292.4</ele>
        <time>2018-06-16T09:53:12Z</time>
      </trkpt>
      <trkpt lat="38.1390860" lon="-3.5520600">
        <ele>292.4</ele>
        <time>2018-06-16T09:53:13Z</time>
      </trkpt>
      <trkpt lat="38.1390580" lon="-3.5521070">
        <ele>292.4</ele>
        <time>2018-06-16T09:53:14Z</time>
      </trkpt>
      <trkpt lat="38.1390300" lon="-3.5521540">
        <ele>292.6</ele>
        <time>2018-06-16T09:53:15Z</time>
      </trkpt>
      <trkpt lat="38.1390010" lon="-3.5522010">
        <ele>292.6</ele>
        <time>2018-06-16T09:53:16Z</time>
      </trkpt>
      <trkpt lat="38.1389750" lon="-3.5522480">
        <ele>292.6</ele>
        <time>2018-06-16T09:53:17Z</time>
      </trkpt>
      <trkpt lat="38.1389470" lon="-3.5522970">
        <ele>292.6</ele>
        <time>2018-06-16T09:53:18Z</time>
      </trkpt>
      <trkpt lat="38.1389210" lon="-3.5523470">
        <ele>292.6</ele>
        <time>2018-06-16T09:53:19Z</time>
      </trkpt>
      <trkpt lat="38.1388940" lon="-3.5523940">
        <ele>292.8</ele>
        <time>2018-06-16T09:53:20Z</time>
      </trkpt>
      <trkpt lat="38.1388650" lon="-3.5524420">
        <ele>292.6</ele>
        <time>2018-06-16T09:53:21Z</time>
      </trkpt>
      <trkpt lat="38.1388370" lon="-3.5524910">
        <ele>292.8</ele>
        <time>2018-06-16T09:53:22Z</time>
      </trkpt>
      <trkpt lat="38.1388090" lon="-3.5525430">
        <ele>292.8</ele>
        <time>2018-06-16T09:53:23Z</time>
      </trkpt>
      <trkpt lat="38.1387820" lon="-3.5525950">
        <ele>292.8</ele>
        <time>2018-06-16T09:53:24Z</time>
      </trkpt>
      <trkpt lat="38.1387540" lon="-3.5526460">
        <ele>292.8</ele>
        <time>2018-06-16T09:53:25Z</time>
      </trkpt>
      <trkpt lat="38.1387270" lon="-3.5526990">
        <ele>293.0</ele>
        <time>2018-06-16T09:53:26Z</time>
      </trkpt>
      <trkpt lat="38.1386990" lon="-3.5527510">
        <ele>293.0</ele>
        <time>2018-06-16T09:53:27Z</time>
      </trkpt>
      <trkpt lat="38.1386730" lon="-3.5528030">
        <ele>293.0</ele>
        <time>2018-06-16T09:53:28Z</time>
      </trkpt>
      <trkpt lat="38.1386450" lon="-3.5528550">
        <ele>293.2</ele>
        <time>2018-06-16T09:53:29Z</time>
      </trkpt>
      <trkpt lat="38.1386160" lon="-3.5529070">
        <ele>293.4</ele>
        <time>2018-06-16T09:53:30Z</time>
      </trkpt>
      <trkpt lat="38.1385890" lon="-3.5529590">
        <ele>293.4</ele>
        <time>2018-06-16T09:53:31Z</time>
      </trkpt>
      <trkpt lat="38.1385610" lon="-3.5530110">
        <ele>293.4</ele>
        <time>2018-06-16T09:53:32Z</time>
      </trkpt>
      <trkpt lat="38.1385340" lon="-3.5530620">
        <ele>293.2</ele>
        <time>2018-06-16T09:53:33Z</time>
      </trkpt>
      <trkpt lat="38.1385070" lon="-3.5531140">
        <ele>293.4</ele>
        <time>2018-06-16T09:53:34Z</time>
      </trkpt>
      <trkpt lat="38.1384810" lon="-3.5531670">
        <ele>293.4</ele>
        <time>2018-06-16T09:53:35Z</time>
      </trkpt>
      <trkpt lat="38.1384560" lon="-3.5532210">
        <ele>293.4</ele>
        <time>2018-06-16T09:53:36Z</time>
      </trkpt>
      <trkpt lat="38.1384300" lon="-3.5532750">
        <ele>293.6</ele>
        <time>2018-06-16T09:53:37Z</time>
      </trkpt>
      <trkpt lat="38.1384030" lon="-3.5533310">
        <ele>293.6</ele>
        <time>2018-06-16T09:53:38Z</time>
      </trkpt>
      <trkpt lat="38.1383770" lon="-3.5533860">
        <ele>293.6</ele>
        <time>2018-06-16T09:53:39Z</time>
      </trkpt>
      <trkpt lat="38.1383520" lon="-3.5534400">
        <ele>293.8</ele>
        <time>2018-06-16T09:53:40Z</time>
      </trkpt>
      <trkpt lat="38.1383270" lon="-3.5534940">
        <ele>293.8</ele>
        <time>2018-06-16T09:53:41Z</time>
      </trkpt>
      <trkpt lat="38.1383030" lon="-3.5535470">
        <ele>293.8</ele>
        <time>2018-06-16T09:53:42Z</time>
      </trkpt>
      <trkpt lat="38.1382800" lon="-3.5536010">
        <ele>294.0</ele>
        <time>2018-06-16T09:53:43Z</time>
      </trkpt>
      <trkpt lat="38.1382570" lon="-3.5536570">
        <ele>294.2</ele>
        <time>2018-06-16T09:53:44Z</time>
      </trkpt>
      <trkpt lat="38.1382350" lon="-3.5537130">
        <ele>294.2</ele>
        <time>2018-06-16T09:53:45Z</time>
      </trkpt>
      <trkpt lat="38.1382140" lon="-3.5537690">
        <ele>294.2</ele>
        <time>2018-06-16T09:53:46Z</time>
      </trkpt>
      <trkpt lat="38.1381930" lon="-3.5538260">
        <ele>294.2</ele>
        <time>2018-06-16T09:53:47Z</time>
      </trkpt>
      <trkpt lat="38.1381730" lon="-3.5538830">
        <ele>294.4</ele>
        <time>2018-06-16T09:53:48Z</time>
      </trkpt>
      <trkpt lat="38.1381530" lon="-3.5539390">
        <ele>294.6</ele>
        <time>2018-06-16T09:53:49Z</time>
      </trkpt>
      <trkpt lat="38.1381330" lon="-3.5539950">
        <ele>294.6</ele>
        <time>2018-06-16T09:53:50Z</time>
      </trkpt>
      <trkpt lat="38.1381120" lon="-3.5540510">
        <ele>294.6</ele>
        <time>2018-06-16T09:53:51Z</time>
      </trkpt>
      <trkpt lat="38.1380900" lon="-3.5541060">
        <ele>294.8</ele>
        <time>2018-06-16T09:53:52Z</time>
      </trkpt>
      <trkpt lat="38.1380700" lon="-3.5541610">
        <ele>295.0</ele>
        <time>2018-06-16T09:53:53Z</time>
      </trkpt>
      <trkpt lat="38.1380490" lon="-3.5542140">
        <ele>295.0</ele>
        <time>2018-06-16T09:53:54Z</time>
      </trkpt>
      <trkpt lat="38.1380280" lon="-3.5542670">
        <ele>295.4</ele>
        <time>2018-06-16T09:53:55Z</time>
      </trkpt>
      <trkpt lat="38.1380060" lon="-3.5543190">
        <ele>295.4</ele>
        <time>2018-06-16T09:53:56Z</time>
      </trkpt>
      <trkpt lat="38.1379840" lon="-3.5543690">
        <ele>295.4</ele>
        <time>2018-06-16T09:53:57Z</time>
      </trkpt>
      <trkpt lat="38.1379590" lon="-3.5544180">
        <ele>295.8</ele>
        <time>2018-06-16T09:53:58Z</time>
      </trkpt>
      <trkpt lat="38.1379340" lon="-3.5544660">
        <ele>295.8</ele>
        <time>2018-06-16T09:53:59Z</time>
      </trkpt>
      <trkpt lat="38.1379140" lon="-3.5545160">
        <ele>296.2</ele>
        <time>2018-06-16T09:54:00Z</time>
      </trkpt>
      <trkpt lat="38.1378910" lon="-3.5545620">
        <ele>296.2</ele>
        <time>2018-06-16T09:54:01Z</time>
      </trkpt>
      <trkpt lat="38.1378660" lon="-3.5546070">
        <ele>296.4</ele>
        <time>2018-06-16T09:54:02Z</time>
      </trkpt>
      <trkpt lat="38.1378420" lon="-3.5546500">
        <ele>296.8</ele>
        <time>2018-06-16T09:54:03Z</time>
      </trkpt>
      <trkpt lat="38.1378190" lon="-3.5546890">
        <ele>297.0</ele>
        <time>2018-06-16T09:54:04Z</time>
      </trkpt>
      <trkpt lat="38.1377950" lon="-3.5547260">
        <ele>297.4</ele>
        <time>2018-06-16T09:54:05Z</time>
      </trkpt>
      <trkpt lat="38.1377710" lon="-3.5547620">
        <ele>297.6</ele>
        <time>2018-06-16T09:54:06Z</time>
      </trkpt>
      <trkpt lat="38.1377480" lon="-3.5547960">
        <ele>297.8</ele>
        <time>2018-06-16T09:54:07Z</time>
      </trkpt>
      <trkpt lat="38.1377250" lon="-3.5548280">
        <ele>298.0</ele>
        <time>2018-06-16T09:54:08Z</time>
      </trkpt>
      <trkpt lat="38.1377010" lon="-3.5548630">
        <ele>298.0</ele>
        <time>2018-06-16T09:54:09Z</time>
      </trkpt>
      <trkpt lat="38.1376780" lon="-3.5548950">
        <ele>298.4</ele>
        <time>2018-06-16T09:54:10Z</time>
      </trkpt>
      <trkpt lat="38.1376550" lon="-3.5549240">
        <ele>298.6</ele>
        <time>2018-06-16T09:54:11Z</time>
      </trkpt>
      <trkpt lat="38.1376320" lon="-3.5549530">
        <ele>298.6</ele>
        <time>2018-06-16T09:54:12Z</time>
      </trkpt>
      <trkpt lat="38.1376100" lon="-3.5549810">
        <ele>299.0</ele>
        <time>2018-06-16T09:54:13Z</time>
      </trkpt>
      <trkpt lat="38.1375880" lon="-3.5550090">
        <ele>299.0</ele>
        <time>2018-06-16T09:54:14Z</time>
      </trkpt>
      <trkpt lat="38.1375650" lon="-3.5550370">
        <ele>299.2</ele>
        <time>2018-06-16T09:54:15Z</time>
      </trkpt>
      <trkpt lat="38.1375430" lon="-3.5550640">
        <ele>299.4</ele>
        <time>2018-06-16T09:54:16Z</time>
      </trkpt>
      <trkpt lat="38.1375200" lon="-3.5550900">
        <ele>299.4</ele>
        <time>2018-06-16T09:54:17Z</time>
      </trkpt>
      <trkpt lat="38.1374970" lon="-3.5551140">
        <ele>299.6</ele>
        <time>2018-06-16T09:54:18Z</time>
      </trkpt>
      <trkpt lat="38.1374720" lon="-3.5551350">
        <ele>299.8</ele>
        <time>2018-06-16T09:54:19Z</time>
      </trkpt>
      <trkpt lat="38.1374460" lon="-3.5551580">
        <ele>300.0</ele>
        <time>2018-06-16T09:54:20Z</time>
      </trkpt>
      <trkpt lat="38.1374210" lon="-3.5551810">
        <ele>300.0</ele>
        <time>2018-06-16T09:54:21Z</time>
      </trkpt>
      <trkpt lat="38.1373950" lon="-3.5552040">
        <ele>300.2</ele>
        <time>2018-06-16T09:54:22Z</time>
      </trkpt>
      <trkpt lat="38.1373700" lon="-3.5552270">
        <ele>300.4</ele>
        <time>2018-06-16T09:54:23Z</time>
      </trkpt>
      <trkpt lat="38.1373460" lon="-3.5552500">
        <ele>300.4</ele>
        <time>2018-06-16T09:54:24Z</time>
      </trkpt>
      <trkpt lat="38.1373230" lon="-3.5552730">
        <ele>300.8</ele>
        <time>2018-06-16T09:54:25Z</time>
      </trkpt>
      <trkpt lat="38.1373000" lon="-3.5552980">
        <ele>300.8</ele>
        <time>2018-06-16T09:54:26Z</time>
      </trkpt>
      <trkpt lat="38.1372760" lon="-3.5553230">
        <ele>300.8</ele>
        <time>2018-06-16T09:54:27Z</time>
      </trkpt>
      <trkpt lat="38.1372510" lon="-3.5553460">
        <ele>301.2</ele>
        <time>2018-06-16T09:54:28Z</time>
      </trkpt>
      <trkpt lat="38.1372270" lon="-3.5553700">
        <ele>301.2</ele>
        <time>2018-06-16T09:54:29Z</time>
      </trkpt>
      <trkpt lat="38.1372030" lon="-3.5553950">
        <ele>301.2</ele>
        <time>2018-06-16T09:54:30Z</time>
      </trkpt>
      <trkpt lat="38.1371790" lon="-3.5554190">
        <ele>301.4</ele>
        <time>2018-06-16T09:54:31Z</time>
      </trkpt>
      <trkpt lat="38.1371550" lon="-3.5554460">
        <ele>301.4</ele>
        <time>2018-06-16T09:54:32Z</time>
      </trkpt>
      <trkpt lat="38.1371320" lon="-3.5554740">
        <ele>301.6</ele>
        <time>2018-06-16T09:54:33Z</time>
      </trkpt>
      <trkpt lat="38.1371090" lon="-3.5555030">
        <ele>301.6</ele>
        <time>2018-06-16T09:54:34Z</time>
      </trkpt>
      <trkpt lat="38.1370870" lon="-3.5555330">
        <ele>301.6</ele>
        <time>2018-06-16T09:54:35Z</time>
      </trkpt>
      <trkpt lat="38.1370680" lon="-3.5555620">
        <ele>301.8</ele>
        <time>2018-06-16T09:54:36Z</time>
      </trkpt>
      <trkpt lat="38.1370490" lon="-3.5555940">
        <ele>301.8</ele>
        <time>2018-06-16T09:54:37Z</time>
      </trkpt>
      <trkpt lat="38.1370310" lon="-3.5556260">
        <ele>302.0</ele>
        <time>2018-06-16T09:54:38Z</time>
      </trkpt>
      <trkpt lat="38.1370150" lon="-3.5556580">
        <ele>302.0</ele>
        <time>2018-06-16T09:54:39Z</time>
      </trkpt>
      <trkpt lat="38.1370020" lon="-3.5556900">
        <ele>302.2</ele>
        <time>2018-06-16T09:54:40Z</time>
      </trkpt>
      <trkpt lat="38.1369910" lon="-3.5557220">
        <ele>302.2</ele>
        <time>2018-06-16T09:54:41Z</time>
      </trkpt>
      <trkpt lat="38.1369810" lon="-3.5557510">
        <ele>302.2</ele>
        <time>2018-06-16T09:54:42Z</time>
      </trkpt>
      <trkpt lat="38.1369720" lon="-3.5557790">
        <ele>302.2</ele>
        <time>2018-06-16T09:54:43Z</time>
      </trkpt>
      <trkpt lat="38.1369660" lon="-3.5558050">
        <ele>302.2</ele>
        <time>2018-06-16T09:54:44Z</time>
      </trkpt>
      <trkpt lat="38.1369620" lon="-3.5558320">
        <ele>302.2</ele>
        <time>2018-06-16T09:54:45Z</time>
      </trkpt>
      <trkpt lat="38.1369570" lon="-3.5558620">
        <ele>302.2</ele>
        <time>2018-06-16T09:54:46Z</time>
      </trkpt>
      <trkpt lat="38.1369520" lon="-3.5558950">
        <ele>302.2</ele>
        <time>2018-06-16T09:54:47Z</time>
      </trkpt>
      <trkpt lat="38.1369470" lon="-3.5559300">
        <ele>302.2</ele>
        <time>2018-06-16T09:54:48Z</time>
      </trkpt>
      <trkpt lat="38.1369430" lon="-3.5559680">
        <ele>302.2</ele>
        <time>2018-06-16T09:54:49Z</time>
      </trkpt>
      <trkpt lat="38.1369400" lon="-3.5560080">
        <ele>302.2</ele>
        <time>2018-06-16T09:54:50Z</time>
      </trkpt>
      <trkpt lat="38.1369390" lon="-3.5560500">
        <ele>302.0</ele>
        <time>2018-06-16T09:54:51Z</time>
      </trkpt>
      <trkpt lat="38.1369390" lon="-3.5560940">
        <ele>302.0</ele>
        <time>2018-06-16T09:54:52Z</time>
      </trkpt>
      <trkpt lat="38.1369390" lon="-3.5561390">
        <ele>302.0</ele>
        <time>2018-06-16T09:54:53Z</time>
      </trkpt>
      <trkpt lat="38.1369410" lon="-3.5561840">
        <ele>302.0</ele>
        <time>2018-06-16T09:54:54Z</time>
      </trkpt>
      <trkpt lat="38.1369440" lon="-3.5562280">
        <ele>301.8</ele>
        <time>2018-06-16T09:54:55Z</time>
      </trkpt>
      <trkpt lat="38.1369480" lon="-3.5562730">
        <ele>301.6</ele>
        <time>2018-06-16T09:54:56Z</time>
      </trkpt>
      <trkpt lat="38.1369540" lon="-3.5563170">
        <ele>301.6</ele>
        <time>2018-06-16T09:54:57Z</time>
      </trkpt>
      <trkpt lat="38.1369630" lon="-3.5563600">
        <ele>301.6</ele>
        <time>2018-06-16T09:54:58Z</time>
      </trkpt>
      <trkpt lat="38.1369740" lon="-3.5564030">
        <ele>301.6</ele>
        <time>2018-06-16T09:54:59Z</time>
      </trkpt>
      <trkpt lat="38.1369880" lon="-3.5564430">
        <ele>301.4</ele>
        <time>2018-06-16T09:55:00Z</time>
      </trkpt>
      <trkpt lat="38.1370050" lon="-3.5564820">
        <ele>301.4</ele>
        <time>2018-06-16T09:55:01Z</time>
      </trkpt>
      <trkpt lat="38.1370250" lon="-3.5565190">
        <ele>301.4</ele>
        <time>2018-06-16T09:55:02Z</time>
      </trkpt>
      <trkpt lat="38.1370480" lon="-3.5565570">
        <ele>301.2</ele>
        <time>2018-06-16T09:55:03Z</time>
      </trkpt>
      <trkpt lat="38.1370720" lon="-3.5565970">
        <ele>301.2</ele>
        <time>2018-06-16T09:55:04Z</time>
      </trkpt>
      <trkpt lat="38.1370960" lon="-3.5566400">
        <ele>301.0</ele>
        <time>2018-06-16T09:55:05Z</time>
      </trkpt>
      <trkpt lat="38.1371220" lon="-3.5566830">
        <ele>301.0</ele>
        <time>2018-06-16T09:55:06Z</time>
      </trkpt>
      <trkpt lat="38.1371490" lon="-3.5567280">
        <ele>301.0</ele>
        <time>2018-06-16T09:55:07Z</time>
      </trkpt>
      <trkpt lat="38.1371760" lon="-3.5567760">
        <ele>301.0</ele>
        <time>2018-06-16T09:55:08Z</time>
      </trkpt>
      <trkpt lat="38.1372050" lon="-3.5568260">
        <ele>301.0</ele>
        <time>2018-06-16T09:55:09Z</time>
      </trkpt>
      <trkpt lat="38.1372330" lon="-3.5568770">
        <ele>300.8</ele>
        <time>2018-06-16T09:55:10Z</time>
      </trkpt>
      <trkpt lat="38.1372630" lon="-3.5569280">
        <ele>300.4</ele>
        <time>2018-06-16T09:55:11Z</time>
      </trkpt>
      <trkpt lat="38.1372950" lon="-3.5569820">
        <ele>300.4</ele>
        <time>2018-06-16T09:55:12Z</time>
      </trkpt>
      <trkpt lat="38.1373270" lon="-3.5570350">
        <ele>300.2</ele>
        <time>2018-06-16T09:55:13Z</time>
      </trkpt>
      <trkpt lat="38.1373590" lon="-3.5570900">
        <ele>300.4</ele>
        <time>2018-06-16T09:55:14Z</time>
      </trkpt>
      <trkpt lat="38.1373910" lon="-3.5571450">
        <ele>300.2</ele>
        <time>2018-06-16T09:55:15Z</time>
      </trkpt>
      <trkpt lat="38.1374190" lon="-3.5572040">
        <ele>300.2</ele>
        <time>2018-06-16T09:55:16Z</time>
      </trkpt>
      <trkpt lat="38.1374490" lon="-3.5572630">
        <ele>300.0</ele>
        <time>2018-06-16T09:55:17Z</time>
      </trkpt>
      <trkpt lat="38.1374800" lon="-3.5573210">
        <ele>300.0</ele>
        <time>2018-06-16T09:55:18Z</time>
      </trkpt>
      <trkpt lat="38.1375100" lon="-3.5573780">
        <ele>300.0</ele>
        <time>2018-06-16T09:55:19Z</time>
      </trkpt>
      <trkpt lat="38.1375420" lon="-3.5574360">
        <ele>300.4</ele>
        <time>2018-06-16T09:55:20Z</time>
      </trkpt>
      <trkpt lat="38.1375730" lon="-3.5574910">
        <ele>300.2</ele>
        <time>2018-06-16T09:55:21Z</time>
      </trkpt>
      <trkpt lat="38.1376030" lon="-3.5575450">
        <ele>300.0</ele>
        <time>2018-06-16T09:55:22Z</time>
      </trkpt>
      <trkpt lat="38.1376320" lon="-3.5575950">
        <ele>299.8</ele>
        <time>2018-06-16T09:55:23Z</time>
      </trkpt>
      <trkpt lat="38.1376620" lon="-3.5576470">
        <ele>300.4</ele>
        <time>2018-06-16T09:55:24Z</time>
      </trkpt>
      <trkpt lat="38.1376910" lon="-3.5576960">
        <ele>300.0</ele>
        <time>2018-06-16T09:55:25Z</time>
      </trkpt>
      <trkpt lat="38.1377200" lon="-3.5577460">
        <ele>300.0</ele>
        <time>2018-06-16T09:55:26Z</time>
      </trkpt>
      <trkpt lat="38.1377490" lon="-3.5577950">
        <ele>300.2</ele>
        <time>2018-06-16T09:55:27Z</time>
      </trkpt>
      <trkpt lat="38.1377770" lon="-3.5578460">
        <ele>300.2</ele>
        <time>2018-06-16T09:55:28Z</time>
      </trkpt>
      <trkpt lat="38.1378060" lon="-3.5578950">
        <ele>300.2</ele>
        <time>2018-06-16T09:55:29Z</time>
      </trkpt>
      <trkpt lat="38.1378350" lon="-3.5579460">
        <ele>300.2</ele>
        <time>2018-06-16T09:55:30Z</time>
      </trkpt>
      <trkpt lat="38.1378640" lon="-3.5579960">
        <ele>300.2</ele>
        <time>2018-06-16T09:55:31Z</time>
      </trkpt>
      <trkpt lat="38.1378930" lon="-3.5580460">
        <ele>300.4</ele>
        <time>2018-06-16T09:55:32Z</time>
      </trkpt>
      <trkpt lat="38.1379220" lon="-3.5580960">
        <ele>300.4</ele>
        <time>2018-06-16T09:55:33Z</time>
      </trkpt>
      <trkpt lat="38.1379510" lon="-3.5581470">
        <ele>300.6</ele>
        <time>2018-06-16T09:55:34Z</time>
      </trkpt>
      <trkpt lat="38.1379800" lon="-3.5581980">
        <ele>300.4</ele>
        <time>2018-06-16T09:55:35Z</time>
      </trkpt>
      <trkpt lat="38.1380080" lon="-3.5582520">
        <ele>300.6</ele>
        <time>2018-06-16T09:55:36Z</time>
      </trkpt>
      <trkpt lat="38.1380370" lon="-3.5583060">
        <ele>300.4</ele>
        <time>2018-06-16T09:55:37Z</time>
      </trkpt>
      <trkpt lat="38.1380650" lon="-3.5583620">
        <ele>300.4</ele>
        <time>2018-06-16T09:55:38Z</time>
      </trkpt>
      <trkpt lat="38.1380920" lon="-3.5584170">
        <ele>300.6</ele>
        <time>2018-06-16T09:55:39Z</time>
      </trkpt>
      <trkpt lat="38.1381170" lon="-3.5584730">
        <ele>300.6</ele>
        <time>2018-06-16T09:55:40Z</time>
      </trkpt>
      <trkpt lat="38.1381400" lon="-3.5585280">
        <ele>300.8</ele>
        <time>2018-06-16T09:55:41Z</time>
      </trkpt>
      <trkpt lat="38.1381630" lon="-3.5585810">
        <ele>301.0</ele>
        <time>2018-06-16T09:55:42Z</time>
      </trkpt>
      <trkpt lat="38.1381870" lon="-3.5586350">
        <ele>301.0</ele>
        <time>2018-06-16T09:55:43Z</time>
      </trkpt>
      <trkpt lat="38.1382090" lon="-3.5586900">
        <ele>300.8</ele>
        <time>2018-06-16T09:55:44Z</time>
      </trkpt>
      <trkpt lat="38.1382310" lon="-3.5587460">
        <ele>301.0</ele>
        <time>2018-06-16T09:55:45Z</time>
      </trkpt>
      <trkpt lat="38.1382520" lon="-3.5588020">
        <ele>301.0</ele>
        <time>2018-06-16T09:55:46Z</time>
      </trkpt>
      <trkpt lat="38.1382710" lon="-3.5588620">
        <ele>301.2</ele>
        <time>2018-06-16T09:55:47Z</time>
      </trkpt>
      <trkpt lat="38.1382890" lon="-3.5589210">
        <ele>301.2</ele>
        <time>2018-06-16T09:55:48Z</time>
      </trkpt>
      <trkpt lat="38.1383080" lon="-3.5589810">
        <ele>301.2</ele>
        <time>2018-06-16T09:55:49Z</time>
      </trkpt>
      <trkpt lat="38.1383250" lon="-3.5590400">
        <ele>301.4</ele>
        <time>2018-06-16T09:55:50Z</time>
      </trkpt>
      <trkpt lat="38.1383400" lon="-3.5590980">
        <ele>301.2</ele>
        <time>2018-06-16T09:55:51Z</time>
      </trkpt>
      <trkpt lat="38.1383550" lon="-3.5591560">
        <ele>301.2</ele>
        <time>2018-06-16T09:55:52Z</time>
      </trkpt>
      <trkpt lat="38.1383700" lon="-3.5592150">
        <ele>301.4</ele>
        <time>2018-06-16T09:55:53Z</time>
      </trkpt>
      <trkpt lat="38.1383840" lon="-3.5592730">
        <ele>301.4</ele>
        <time>2018-06-16T09:55:54Z</time>
      </trkpt>
      <trkpt lat="38.1383970" lon="-3.5593330">
        <ele>301.4</ele>
        <time>2018-06-16T09:55:55Z</time>
      </trkpt>
      <trkpt lat="38.1384100" lon="-3.5593930">
        <ele>301.4</ele>
        <time>2018-06-16T09:55:56Z</time>
      </trkpt>
      <trkpt lat="38.1384220" lon="-3.5594540">
        <ele>301.4</ele>
        <time>2018-06-16T09:55:57Z</time>
      </trkpt>
      <trkpt lat="38.1384320" lon="-3.5595150">
        <ele>301.6</ele>
        <time>2018-06-16T09:55:58Z</time>
      </trkpt>
      <trkpt lat="38.1384410" lon="-3.5595740">
        <ele>301.6</ele>
        <time>2018-06-16T09:55:59Z</time>
      </trkpt>
      <trkpt lat="38.1384510" lon="-3.5596320">
        <ele>301.6</ele>
        <time>2018-06-16T09:56:00Z</time>
      </trkpt>
      <trkpt lat="38.1384600" lon="-3.5596920">
        <ele>301.6</ele>
        <time>2018-06-16T09:56:01Z</time>
      </trkpt>
      <trkpt lat="38.1384680" lon="-3.5597530">
        <ele>302.0</ele>
        <time>2018-06-16T09:56:02Z</time>
      </trkpt>
      <trkpt lat="38.1384740" lon="-3.5598150">
        <ele>301.8</ele>
        <time>2018-06-16T09:56:03Z</time>
      </trkpt>
      <trkpt lat="38.1384790" lon="-3.5598790">
        <ele>301.8</ele>
        <time>2018-06-16T09:56:04Z</time>
      </trkpt>
      <trkpt lat="38.1384830" lon="-3.5599420">
        <ele>301.8</ele>
        <time>2018-06-16T09:56:05Z</time>
      </trkpt>
      <trkpt lat="38.1384860" lon="-3.5600070">
        <ele>301.8</ele>
        <time>2018-06-16T09:56:06Z</time>
      </trkpt>
      <trkpt lat="38.1384890" lon="-3.5600710">
        <ele>302.0</ele>
        <time>2018-06-16T09:56:07Z</time>
      </trkpt>
      <trkpt lat="38.1384910" lon="-3.5601350">
        <ele>302.2</ele>
        <time>2018-06-16T09:56:08Z</time>
      </trkpt>
      <trkpt lat="38.1384920" lon="-3.5601980">
        <ele>302.0</ele>
        <time>2018-06-16T09:56:09Z</time>
      </trkpt>
      <trkpt lat="38.1384920" lon="-3.5602590">
        <ele>302.0</ele>
        <time>2018-06-16T09:56:10Z</time>
      </trkpt>
      <trkpt lat="38.1384930" lon="-3.5603190">
        <ele>302.2</ele>
        <time>2018-06-16T09:56:11Z</time>
      </trkpt>
      <trkpt lat="38.1384900" lon="-3.5603790">
        <ele>302.2</ele>
        <time>2018-06-16T09:56:12Z</time>
      </trkpt>
      <trkpt lat="38.1384880" lon="-3.5604400">
        <ele>302.2</ele>
        <time>2018-06-16T09:56:13Z</time>
      </trkpt>
      <trkpt lat="38.1384850" lon="-3.5605000">
        <ele>302.0</ele>
        <time>2018-06-16T09:56:14Z</time>
      </trkpt>
      <trkpt lat="38.1384820" lon="-3.5605610">
        <ele>302.4</ele>
        <time>2018-06-16T09:56:15Z</time>
      </trkpt>
      <trkpt lat="38.1384770" lon="-3.5606240">
        <ele>302.4</ele>
        <time>2018-06-16T09:56:16Z</time>
      </trkpt>
      <trkpt lat="38.1384710" lon="-3.5606880">
        <ele>302.4</ele>
        <time>2018-06-16T09:56:17Z</time>
      </trkpt>
      <trkpt lat="38.1384630" lon="-3.5607520">
        <ele>302.4</ele>
        <time>2018-06-16T09:56:18Z</time>
      </trkpt>
      <trkpt lat="38.1384550" lon="-3.5608180">
        <ele>302.6</ele>
        <time>2018-06-16T09:56:19Z</time>
      </trkpt>
      <trkpt lat="38.1384480" lon="-3.5608830">
        <ele>302.4</ele>
        <time>2018-06-16T09:56:20Z</time>
      </trkpt>
      <trkpt lat="38.1384380" lon="-3.5609480">
        <ele>302.6</ele>
        <time>2018-06-16T09:56:21Z</time>
      </trkpt>
      <trkpt lat="38.1384270" lon="-3.5610120">
        <ele>302.4</ele>
        <time>2018-06-16T09:56:22Z</time>
      </trkpt>
      <trkpt lat="38.1384150" lon="-3.5610750">
        <ele>302.6</ele>
        <time>2018-06-16T09:56:23Z</time>
      </trkpt>
      <trkpt lat="38.1384030" lon="-3.5611380">
        <ele>302.8</ele>
        <time>2018-06-16T09:56:24Z</time>
      </trkpt>
      <trkpt lat="38.1383890" lon="-3.5611990">
        <ele>302.6</ele>
        <time>2018-06-16T09:56:25Z</time>
      </trkpt>
      <trkpt lat="38.1383740" lon="-3.5612590">
        <ele>302.6</ele>
        <time>2018-06-16T09:56:26Z</time>
      </trkpt>
      <trkpt lat="38.1383600" lon="-3.5613170">
        <ele>302.8</ele>
        <time>2018-06-16T09:56:27Z</time>
      </trkpt>
      <trkpt lat="38.1383450" lon="-3.5613760">
        <ele>302.8</ele>
        <time>2018-06-16T09:56:28Z</time>
      </trkpt>
      <trkpt lat="38.1383290" lon="-3.5614370">
        <ele>302.8</ele>
        <time>2018-06-16T09:56:29Z</time>
      </trkpt>
      <trkpt lat="38.1383120" lon="-3.5614960">
        <ele>303.0</ele>
        <time>2018-06-16T09:56:30Z</time>
      </trkpt>
      <trkpt lat="38.1382940" lon="-3.5615550">
        <ele>303.0</ele>
        <time>2018-06-16T09:56:31Z</time>
      </trkpt>
      <trkpt lat="38.1382740" lon="-3.5616140">
        <ele>303.0</ele>
        <time>2018-06-16T09:56:32Z</time>
      </trkpt>
      <trkpt lat="38.1382540" lon="-3.5616730">
        <ele>303.0</ele>
        <time>2018-06-16T09:56:33Z</time>
      </trkpt>
      <trkpt lat="38.1382330" lon="-3.5617320">
        <ele>303.0</ele>
        <time>2018-06-16T09:56:34Z</time>
      </trkpt>
      <trkpt lat="38.1382110" lon="-3.5617910">
        <ele>302.8</ele>
        <time>2018-06-16T09:56:35Z</time>
      </trkpt>
      <trkpt lat="38.1381870" lon="-3.5618490">
        <ele>302.8</ele>
        <time>2018-06-16T09:56:36Z</time>
      </trkpt>
      <trkpt lat="38.1381620" lon="-3.5619070">
        <ele>302.8</ele>
        <time>2018-06-16T09:56:37Z</time>
      </trkpt>
      <trkpt lat="38.1381360" lon="-3.5619650">
        <ele>303.0</ele>
        <time>2018-06-16T09:56:38Z</time>
      </trkpt>
      <trkpt lat="38.1381100" lon="-3.5620230">
        <ele>303.0</ele>
        <time>2018-06-16T09:56:39Z</time>
      </trkpt>
      <trkpt lat="38.1380830" lon="-3.5620780">
        <ele>303.0</ele>
        <time>2018-06-16T09:56:40Z</time>
      </trkpt>
      <trkpt lat="38.1380570" lon="-3.5621340">
        <ele>303.0</ele>
        <time>2018-06-16T09:56:41Z</time>
      </trkpt>
      <trkpt lat="38.1380280" lon="-3.5621910">
        <ele>303.0</ele>
        <time>2018-06-16T09:56:42Z</time>
      </trkpt>
      <trkpt lat="38.1379960" lon="-3.5622480">
        <ele>302.8</ele>
        <time>2018-06-16T09:56:43Z</time>
      </trkpt>
      <trkpt lat="38.1379650" lon="-3.5623040">
        <ele>302.6</ele>
        <time>2018-06-16T09:56:44Z</time>
      </trkpt>
      <trkpt lat="38.1379320" lon="-3.5623610">
        <ele>302.8</ele>
        <time>2018-06-16T09:56:45Z</time>
      </trkpt>
      <trkpt lat="38.1378990" lon="-3.5624170">
        <ele>302.8</ele>
        <time>2018-06-16T09:56:46Z</time>
      </trkpt>
      <trkpt lat="38.1378660" lon="-3.5624740">
        <ele>303.0</ele>
        <time>2018-06-16T09:56:47Z</time>
      </trkpt>
      <trkpt lat="38.1378330" lon="-3.5625300">
        <ele>302.8</ele>
        <time>2018-06-16T09:56:48Z</time>
      </trkpt>
      <trkpt lat="38.1377990" lon="-3.5625880">
        <ele>302.6</ele>
        <time>2018-06-16T09:56:49Z</time>
      </trkpt>
      <trkpt lat="38.1377640" lon="-3.5626460">
        <ele>302.8</ele>
        <time>2018-06-16T09:56:50Z</time>
      </trkpt>
      <trkpt lat="38.1377280" lon="-3.5627040">
        <ele>302.6</ele>
        <time>2018-06-16T09:56:51Z</time>
      </trkpt>
      <trkpt lat="38.1376940" lon="-3.5627610">
        <ele>302.6</ele>
        <time>2018-06-16T09:56:52Z</time>
      </trkpt>
      <trkpt lat="38.1376580" lon="-3.5628130">
        <ele>302.6</ele>
        <time>2018-06-16T09:56:53Z</time>
      </trkpt>
      <trkpt lat="38.1376230" lon="-3.5628660">
        <ele>302.6</ele>
        <time>2018-06-16T09:56:54Z</time>
      </trkpt>
      <trkpt lat="38.1375930" lon="-3.5629210">
        <ele>302.6</ele>
        <time>2018-06-16T09:56:55Z</time>
      </trkpt>
      <trkpt lat="38.1375800" lon="-3.5629860">
        <ele>302.8</ele>
        <time>2018-06-16T09:56:56Z</time>
      </trkpt>
      <trkpt lat="38.1375490" lon="-3.5630360">
        <ele>302.4</ele>
        <time>2018-06-16T09:56:57Z</time>
      </trkpt>
      <trkpt lat="38.1375170" lon="-3.5630900">
        <ele>302.8</ele>
        <time>2018-06-16T09:56:58Z</time>
      </trkpt>
      <trkpt lat="38.1374800" lon="-3.5631440">
        <ele>302.4</ele>
        <time>2018-06-16T09:56:59Z</time>
      </trkpt>
      <trkpt lat="38.1374410" lon="-3.5632010">
        <ele>302.6</ele>
        <time>2018-06-16T09:57:00Z</time>
      </trkpt>
      <trkpt lat="38.1374050" lon="-3.5632600">
        <ele>302.4</ele>
        <time>2018-06-16T09:57:01Z</time>
      </trkpt>
      <trkpt lat="38.1373650" lon="-3.5633150">
        <ele>302.6</ele>
        <time>2018-06-16T09:57:02Z</time>
      </trkpt>
      <trkpt lat="38.1373200" lon="-3.5633780">
        <ele>302.6</ele>
        <time>2018-06-16T09:57:03Z</time>
      </trkpt>
      <trkpt lat="38.1372790" lon="-3.5634410">
        <ele>302.6</ele>
        <time>2018-06-16T09:57:04Z</time>
      </trkpt>
      <trkpt lat="38.1372400" lon="-3.5635000">
        <ele>302.6</ele>
        <time>2018-06-16T09:57:05Z</time>
      </trkpt>
      <trkpt lat="38.1372000" lon="-3.5635610">
        <ele>302.6</ele>
        <time>2018-06-16T09:57:06Z</time>
      </trkpt>
      <trkpt lat="38.1371590" lon="-3.5636240">
        <ele>302.6</ele>
        <time>2018-06-16T09:57:07Z</time>
      </trkpt>
      <trkpt lat="38.1371200" lon="-3.5636850">
        <ele>302.4</ele>
        <time>2018-06-16T09:57:08Z</time>
      </trkpt>
      <trkpt lat="38.1370820" lon="-3.5637470">
        <ele>302.6</ele>
        <time>2018-06-16T09:57:09Z</time>
      </trkpt>
      <trkpt lat="38.1370420" lon="-3.5638090">
        <ele>302.6</ele>
        <time>2018-06-16T09:57:10Z</time>
      </trkpt>
      <trkpt lat="38.1370030" lon="-3.5638710">
        <ele>302.6</ele>
        <time>2018-06-16T09:57:11Z</time>
      </trkpt>
      <trkpt lat="38.1369650" lon="-3.5639330">
        <ele>302.6</ele>
        <time>2018-06-16T09:57:12Z</time>
      </trkpt>
      <trkpt lat="38.1369280" lon="-3.5639950">
        <ele>302.6</ele>
        <time>2018-06-16T09:57:13Z</time>
      </trkpt>
      <trkpt lat="38.1368910" lon="-3.5640580">
        <ele>302.6</ele>
        <time>2018-06-16T09:57:14Z</time>
      </trkpt>
      <trkpt lat="38.1368550" lon="-3.5641180">
        <ele>302.8</ele>
        <time>2018-06-16T09:57:15Z</time>
      </trkpt>
      <trkpt lat="38.1368200" lon="-3.5641800">
        <ele>302.8</ele>
        <time>2018-06-16T09:57:16Z</time>
      </trkpt>
      <trkpt lat="38.1367860" lon="-3.5642420">
        <ele>302.6</ele>
        <time>2018-06-16T09:57:17Z</time>
      </trkpt>
      <trkpt lat="38.1367570" lon="-3.5643020">
        <ele>302.4</ele>
        <time>2018-06-16T09:57:18Z</time>
      </trkpt>
      <trkpt lat="38.1367290" lon="-3.5643630">
        <ele>302.8</ele>
        <time>2018-06-16T09:57:19Z</time>
      </trkpt>
      <trkpt lat="38.1367020" lon="-3.5644230">
        <ele>303.0</ele>
        <time>2018-06-16T09:57:20Z</time>
      </trkpt>
      <trkpt lat="38.1366760" lon="-3.5644840">
        <ele>302.8</ele>
        <time>2018-06-16T09:57:21Z</time>
      </trkpt>
      <trkpt lat="38.1366490" lon="-3.5645440">
        <ele>302.8</ele>
        <time>2018-06-16T09:57:22Z</time>
      </trkpt>
      <trkpt lat="38.1366240" lon="-3.5646050">
        <ele>302.8</ele>
        <time>2018-06-16T09:57:23Z</time>
      </trkpt>
      <trkpt lat="38.1366010" lon="-3.5646670">
        <ele>303.0</ele>
        <time>2018-06-16T09:57:24Z</time>
      </trkpt>
      <trkpt lat="38.1365790" lon="-3.5647290">
        <ele>303.0</ele>
        <time>2018-06-16T09:57:25Z</time>
      </trkpt>
      <trkpt lat="38.1365580" lon="-3.5647900">
        <ele>303.2</ele>
        <time>2018-06-16T09:57:26Z</time>
      </trkpt>
      <trkpt lat="38.1365380" lon="-3.5648520">
        <ele>303.2</ele>
        <time>2018-06-16T09:57:27Z</time>
      </trkpt>
      <trkpt lat="38.1365200" lon="-3.5649150">
        <ele>303.4</ele>
        <time>2018-06-16T09:57:28Z</time>
      </trkpt>
      <trkpt lat="38.1365030" lon="-3.5649780">
        <ele>303.6</ele>
        <time>2018-06-16T09:57:29Z</time>
      </trkpt>
      <trkpt lat="38.1364880" lon="-3.5650420">
        <ele>303.4</ele>
        <time>2018-06-16T09:57:30Z</time>
      </trkpt>
      <trkpt lat="38.1364740" lon="-3.5651060">
        <ele>303.6</ele>
        <time>2018-06-16T09:57:31Z</time>
      </trkpt>
      <trkpt lat="38.1364610" lon="-3.5651720">
        <ele>303.8</ele>
        <time>2018-06-16T09:57:32Z</time>
      </trkpt>
      <trkpt lat="38.1364470" lon="-3.5652380">
        <ele>303.6</ele>
        <time>2018-06-16T09:57:33Z</time>
      </trkpt>
      <trkpt lat="38.1364360" lon="-3.5653050">
        <ele>303.6</ele>
        <time>2018-06-16T09:57:34Z</time>
      </trkpt>
      <trkpt lat="38.1364270" lon="-3.5653710">
        <ele>303.6</ele>
        <time>2018-06-16T09:57:35Z</time>
      </trkpt>
      <trkpt lat="38.1364180" lon="-3.5654360">
        <ele>304.0</ele>
        <time>2018-06-16T09:57:36Z</time>
      </trkpt>
      <trkpt lat="38.1364090" lon="-3.5655010">
        <ele>304.0</ele>
        <time>2018-06-16T09:57:37Z</time>
      </trkpt>
      <trkpt lat="38.1364020" lon="-3.5655650">
        <ele>304.2</ele>
        <time>2018-06-16T09:57:38Z</time>
      </trkpt>
      <trkpt lat="38.1363970" lon="-3.5656270">
        <ele>304.2</ele>
        <time>2018-06-16T09:57:39Z</time>
      </trkpt>
      <trkpt lat="38.1363930" lon="-3.5656880">
        <ele>304.4</ele>
        <time>2018-06-16T09:57:40Z</time>
      </trkpt>
      <trkpt lat="38.1363870" lon="-3.5657480">
        <ele>304.6</ele>
        <time>2018-06-16T09:57:41Z</time>
      </trkpt>
      <trkpt lat="38.1363830" lon="-3.5658050">
        <ele>304.6</ele>
        <time>2018-06-16T09:57:42Z</time>
      </trkpt>
      <trkpt lat="38.1363810" lon="-3.5658630">
        <ele>304.8</ele>
        <time>2018-06-16T09:57:43Z</time>
      </trkpt>
      <trkpt lat="38.1363780" lon="-3.5659220">
        <ele>304.4</ele>
        <time>2018-06-16T09:57:44Z</time>
      </trkpt>
      <trkpt lat="38.1363750" lon="-3.5659810">
        <ele>304.8</ele>
        <time>2018-06-16T09:57:45Z</time>
      </trkpt>
      <trkpt lat="38.1363710" lon="-3.5660400">
        <ele>304.6</ele>
        <time>2018-06-16T09:57:46Z</time>
      </trkpt>
      <trkpt lat="38.1363680" lon="-3.5661000">
        <ele>304.6</ele>
        <time>2018-06-16T09:57:47Z</time>
      </trkpt>
      <trkpt lat="38.1363660" lon="-3.5661620">
        <ele>305.0</ele>
        <time>2018-06-16T09:57:48Z</time>
      </trkpt>
      <trkpt lat="38.1363640" lon="-3.5662220">
        <ele>305.2</ele>
        <time>2018-06-16T09:57:49Z</time>
      </trkpt>
      <trkpt lat="38.1363630" lon="-3.5662820">
        <ele>305.4</ele>
        <time>2018-06-16T09:57:50Z</time>
      </trkpt>
      <trkpt lat="38.1363600" lon="-3.5663420">
        <ele>305.6</ele>
        <time>2018-06-16T09:57:51Z</time>
      </trkpt>
      <trkpt lat="38.1363580" lon="-3.5664020">
        <ele>306.0</ele>
        <time>2018-06-16T09:57:52Z</time>
      </trkpt>
      <trkpt lat="38.1363560" lon="-3.5664610">
        <ele>306.0</ele>
        <time>2018-06-16T09:57:53Z</time>
      </trkpt>
      <trkpt lat="38.1363550" lon="-3.5665200">
        <ele>306.0</ele>
        <time>2018-06-16T09:57:54Z</time>
      </trkpt>
      <trkpt lat="38.1363530" lon="-3.5665800">
        <ele>306.0</ele>
        <time>2018-06-16T09:57:55Z</time>
      </trkpt>
      <trkpt lat="38.1363510" lon="-3.5666390">
        <ele>306.2</ele>
        <time>2018-06-16T09:57:56Z</time>
      </trkpt>
      <trkpt lat="38.1363480" lon="-3.5666980">
        <ele>306.4</ele>
        <time>2018-06-16T09:57:57Z</time>
      </trkpt>
      <trkpt lat="38.1363440" lon="-3.5667560">
        <ele>306.6</ele>
        <time>2018-06-16T09:57:58Z</time>
      </trkpt>
      <trkpt lat="38.1363390" lon="-3.5668140">
        <ele>306.4</ele>
        <time>2018-06-16T09:57:59Z</time>
      </trkpt>
      <trkpt lat="38.1363350" lon="-3.5668710">
        <ele>306.8</ele>
        <time>2018-06-16T09:58:00Z</time>
      </trkpt>
      <trkpt lat="38.1363300" lon="-3.5669290">
        <ele>307.0</ele>
        <time>2018-06-16T09:58:01Z</time>
      </trkpt>
      <trkpt lat="38.1363240" lon="-3.5669870">
        <ele>307.2</ele>
        <time>2018-06-16T09:58:02Z</time>
      </trkpt>
      <trkpt lat="38.1363170" lon="-3.5670430">
        <ele>307.2</ele>
        <time>2018-06-16T09:58:03Z</time>
      </trkpt>
      <trkpt lat="38.1363090" lon="-3.5671000">
        <ele>307.6</ele>
        <time>2018-06-16T09:58:04Z</time>
      </trkpt>
      <trkpt lat="38.1363000" lon="-3.5671590">
        <ele>307.8</ele>
        <time>2018-06-16T09:58:05Z</time>
      </trkpt>
      <trkpt lat="38.1362910" lon="-3.5672160">
        <ele>307.6</ele>
        <time>2018-06-16T09:58:06Z</time>
      </trkpt>
      <trkpt lat="38.1362810" lon="-3.5672730">
        <ele>307.8</ele>
        <time>2018-06-16T09:58:07Z</time>
      </trkpt>
      <trkpt lat="38.1362710" lon="-3.5673300">
        <ele>308.2</ele>
        <time>2018-06-16T09:58:08Z</time>
      </trkpt>
      <trkpt lat="38.1362610" lon="-3.5673870">
        <ele>308.0</ele>
        <time>2018-06-16T09:58:09Z</time>
      </trkpt>
      <trkpt lat="38.1362500" lon="-3.5674430">
        <ele>308.2</ele>
        <time>2018-06-16T09:58:10Z</time>
      </trkpt>
      <trkpt lat="38.1362400" lon="-3.5674990">
        <ele>308.2</ele>
        <time>2018-06-16T09:58:11Z</time>
      </trkpt>
      <trkpt lat="38.1362300" lon="-3.5675540">
        <ele>308.6</ele>
        <time>2018-06-16T09:58:12Z</time>
      </trkpt>
      <trkpt lat="38.1362200" lon="-3.5676070">
        <ele>308.8</ele>
        <time>2018-06-16T09:58:13Z</time>
      </trkpt>
      <trkpt lat="38.1362100" lon="-3.5676610">
        <ele>308.8</ele>
        <time>2018-06-16T09:58:14Z</time>
      </trkpt>
      <trkpt lat="38.1362000" lon="-3.5677150">
        <ele>309.0</ele>
        <time>2018-06-16T09:58:15Z</time>
      </trkpt>
      <trkpt lat="38.1361880" lon="-3.5677680">
        <ele>309.2</ele>
        <time>2018-06-16T09:58:16Z</time>
      </trkpt>
      <trkpt lat="38.1361780" lon="-3.5678220">
        <ele>309.4</ele>
        <time>2018-06-16T09:58:17Z</time>
      </trkpt>
      <trkpt lat="38.1361660" lon="-3.5678750">
        <ele>309.4</ele>
        <time>2018-06-16T09:58:18Z</time>
      </trkpt>
      <trkpt lat="38.1361540" lon="-3.5679290">
        <ele>309.6</ele>
        <time>2018-06-16T09:58:19Z</time>
      </trkpt>
      <trkpt lat="38.1361410" lon="-3.5679810">
        <ele>309.8</ele>
        <time>2018-06-16T09:58:20Z</time>
      </trkpt>
      <trkpt lat="38.1361290" lon="-3.5680350">
        <ele>309.8</ele>
        <time>2018-06-16T09:58:21Z</time>
      </trkpt>
      <trkpt lat="38.1361170" lon="-3.5680870">
        <ele>310.0</ele>
        <time>2018-06-16T09:58:22Z</time>
      </trkpt>
      <trkpt lat="38.1361060" lon="-3.5681390">
        <ele>310.0</ele>
        <time>2018-06-16T09:58:23Z</time>
      </trkpt>
      <trkpt lat="38.1360950" lon="-3.5681880">
        <ele>310.4</ele>
        <time>2018-06-16T09:58:24Z</time>
      </trkpt>
      <trkpt lat="38.1360830" lon="-3.5682360">
        <ele>310.4</ele>
        <time>2018-06-16T09:58:25Z</time>
      </trkpt>
      <trkpt lat="38.1360710" lon="-3.5682840">
        <ele>310.4</ele>
        <time>2018-06-16T09:58:26Z</time>
      </trkpt>
      <trkpt lat="38.1360610" lon="-3.5683300">
        <ele>310.6</ele>
        <time>2018-06-16T09:58:27Z</time>
      </trkpt>
      <trkpt lat="38.1360500" lon="-3.5683760">
        <ele>310.6</ele>
        <time>2018-06-16T09:58:28Z</time>
      </trkpt>
      <trkpt lat="38.1360400" lon="-3.5684220">
        <ele>310.8</ele>
        <time>2018-06-16T09:58:29Z</time>
      </trkpt>
      <trkpt lat="38.1360300" lon="-3.5684670">
        <ele>310.8</ele>
        <time>2018-06-16T09:58:30Z</time>
      </trkpt>
      <trkpt lat="38.1360210" lon="-3.5685130">
        <ele>310.4</ele>
        <time>2018-06-16T09:58:31Z</time>
      </trkpt>
      <trkpt lat="38.1360120" lon="-3.5685600">
        <ele>310.8</ele>
        <time>2018-06-16T09:58:32Z</time>
      </trkpt>
      <trkpt lat="38.1360030" lon="-3.5686070">
        <ele>311.0</ele>
        <time>2018-06-16T09:58:33Z</time>
      </trkpt>
      <trkpt lat="38.1359950" lon="-3.5686530">
        <ele>311.0</ele>
        <time>2018-06-16T09:58:34Z</time>
      </trkpt>
      <trkpt lat="38.1359840" lon="-3.5687000">
        <ele>311.0</ele>
        <time>2018-06-16T09:58:35Z</time>
      </trkpt>
      <trkpt lat="38.1359730" lon="-3.5687440">
        <ele>311.2</ele>
        <time>2018-06-16T09:58:36Z</time>
      </trkpt>
      <trkpt lat="38.1359630" lon="-3.5687850">
        <ele>311.2</ele>
        <time>2018-06-16T09:58:37Z</time>
      </trkpt>
      <trkpt lat="38.1359500" lon="-3.5688250">
        <ele>311.2</ele>
        <time>2018-06-16T09:58:38Z</time>
      </trkpt>
      <trkpt lat="38.1359400" lon="-3.5688630">
        <ele>311.2</ele>
        <time>2018-06-16T09:58:39Z</time>
      </trkpt>
      <trkpt lat="38.1359330" lon="-3.5689000">
        <ele>311.4</ele>
        <time>2018-06-16T09:58:40Z</time>
      </trkpt>
      <trkpt lat="38.1359240" lon="-3.5689360">
        <ele>311.4</ele>
        <time>2018-06-16T09:58:41Z</time>
      </trkpt>
      <trkpt lat="38.1359140" lon="-3.5689710">
        <ele>311.4</ele>
        <time>2018-06-16T09:58:42Z</time>
      </trkpt>
      <trkpt lat="38.1359040" lon="-3.5690050">
        <ele>311.4</ele>
        <time>2018-06-16T09:58:43Z</time>
      </trkpt>
      <trkpt lat="38.1358960" lon="-3.5690390">
        <ele>311.6</ele>
        <time>2018-06-16T09:58:44Z</time>
      </trkpt>
      <trkpt lat="38.1358900" lon="-3.5690700">
        <ele>311.6</ele>
        <time>2018-06-16T09:58:45Z</time>
      </trkpt>
      <trkpt lat="38.1358860" lon="-3.5690970">
        <ele>311.6</ele>
        <time>2018-06-16T09:58:46Z</time>
      </trkpt>
      <trkpt lat="38.1358850" lon="-3.5691250">
        <ele>311.6</ele>
        <time>2018-06-16T09:58:47Z</time>
      </trkpt>
      <trkpt lat="38.1358850" lon="-3.5691530">
        <ele>311.6</ele>
        <time>2018-06-16T09:58:48Z</time>
      </trkpt>
      <trkpt lat="38.1358850" lon="-3.5691790">
        <ele>311.6</ele>
        <time>2018-06-16T09:58:49Z</time>
      </trkpt>
      <trkpt lat="38.1358830" lon="-3.5692050">
        <ele>311.6</ele>
        <time>2018-06-16T09:58:50Z</time>
      </trkpt>
      <trkpt lat="38.1358790" lon="-3.5692280">
        <ele>311.8</ele>
        <time>2018-06-16T09:58:51Z</time>
      </trkpt>
      <trkpt lat="38.1358730" lon="-3.5692530">
        <ele>311.8</ele>
        <time>2018-06-16T09:58:52Z</time>
      </trkpt>
      <trkpt lat="38.1358650" lon="-3.5692740">
        <ele>311.8</ele>
        <time>2018-06-16T09:58:53Z</time>
      </trkpt>
      <trkpt lat="38.1358590" lon="-3.5692930">
        <ele>312.0</ele>
        <time>2018-06-16T09:58:54Z</time>
      </trkpt>
      <trkpt lat="38.1358490" lon="-3.5693080">
        <ele>312.0</ele>
        <time>2018-06-16T09:58:55Z</time>
      </trkpt>
      <trkpt lat="38.1358430" lon="-3.5693080">
        <ele>312.0</ele>
        <time>2018-06-16T09:58:56Z</time>
      </trkpt>
      <trkpt lat="38.1358360" lon="-3.5693090">
        <ele>312.0</ele>
        <time>2018-06-16T09:58:57Z</time>
      </trkpt>
      <trkpt lat="38.1358300" lon="-3.5693090">
        <ele>312.0</ele>
        <time>2018-06-16T09:58:58Z</time>
      </trkpt>
      <trkpt lat="38.1358230" lon="-3.5693100">
        <ele>312.0</ele>
        <time>2018-06-16T09:58:59Z</time>
      </trkpt>
      <trkpt lat="38.1358160" lon="-3.5693100">
        <ele>312.4</ele>
        <time>2018-06-16T09:59:00Z</time>
      </trkpt>
      <trkpt lat="38.1358100" lon="-3.5693110">
        <ele>311.8</ele>
        <time>2018-06-16T09:59:01Z</time>
      </trkpt>
      <trkpt lat="38.1358030" lon="-3.5693110">
        <ele>311.8</ele>
        <time>2018-06-16T09:59:02Z</time>
      </trkpt>
      <trkpt lat="38.1357960" lon="-3.5693120">
        <ele>312.0</ele>
        <time>2018-06-16T09:59:03Z</time>
      </trkpt>
      <trkpt lat="38.1357900" lon="-3.5693120">
        <ele>312.0</ele>
        <time>2018-06-16T09:59:04Z</time>
      </trkpt>
      <trkpt lat="38.1357830" lon="-3.5693130">
        <ele>312.0</ele>
        <time>2018-06-16T09:59:05Z</time>
      </trkpt>
      <trkpt lat="38.1357770" lon="-3.5693130">
        <ele>311.0</ele>
        <time>2018-06-16T10:02:39Z</time>
      </trkpt>
      <trkpt lat="38.1357700" lon="-3.5693140">
        <ele>310.8</ele>
        <time>2018-06-16T10:02:40Z</time>
      </trkpt>
      <trkpt lat="38.1357550" lon="-3.5693520">
        <ele>310.8</ele>
        <time>2018-06-16T10:02:41Z</time>
      </trkpt>
      <trkpt lat="38.1357500" lon="-3.5693680">
        <ele>311.0</ele>
        <time>2018-06-16T10:02:42Z</time>
      </trkpt>
      <trkpt lat="38.1357420" lon="-3.5693870">
        <ele>311.0</ele>
        <time>2018-06-16T10:02:43Z</time>
      </trkpt>
      <trkpt lat="38.1357370" lon="-3.5694130">
        <ele>310.8</ele>
        <time>2018-06-16T10:02:44Z</time>
      </trkpt>
      <trkpt lat="38.1357350" lon="-3.5694440">
        <ele>310.8</ele>
        <time>2018-06-16T10:02:45Z</time>
      </trkpt>
      <trkpt lat="38.1357340" lon="-3.5694780">
        <ele>311.0</ele>
        <time>2018-06-16T10:02:46Z</time>
      </trkpt>
      <trkpt lat="38.1357290" lon="-3.5695140">
        <ele>311.0</ele>
        <time>2018-06-16T10:02:47Z</time>
      </trkpt>
      <trkpt lat="38.1357290" lon="-3.5695140">
        <ele>311.2</ele>
        <time>2018-06-16T10:02:48Z</time>
      </trkpt>
      <trkpt lat="38.1357220" lon="-3.5695500">
        <ele>311.2</ele>
        <time>2018-06-16T10:02:49Z</time>
      </trkpt>
      <trkpt lat="38.1357130" lon="-3.5695870">
        <ele>311.2</ele>
        <time>2018-06-16T10:02:50Z</time>
      </trkpt>
      <trkpt lat="38.1357040" lon="-3.5696250">
        <ele>311.2</ele>
        <time>2018-06-16T10:02:51Z</time>
      </trkpt>
      <trkpt lat="38.1356940" lon="-3.5696640">
        <ele>311.2</ele>
        <time>2018-06-16T10:02:52Z</time>
      </trkpt>
      <trkpt lat="38.1356720" lon="-3.5697440">
        <ele>311.4</ele>
        <time>2018-06-16T10:02:53Z</time>
      </trkpt>
      <trkpt lat="38.1356590" lon="-3.5697830">
        <ele>311.4</ele>
        <time>2018-06-16T10:02:54Z</time>
      </trkpt>
      <trkpt lat="38.1356440" lon="-3.5698230">
        <ele>311.4</ele>
        <time>2018-06-16T10:02:55Z</time>
      </trkpt>
      <trkpt lat="38.1356300" lon="-3.5698650">
        <ele>311.4</ele>
        <time>2018-06-16T10:02:56Z</time>
      </trkpt>
      <trkpt lat="38.1356150" lon="-3.5699070">
        <ele>311.4</ele>
        <time>2018-06-16T10:02:57Z</time>
      </trkpt>
      <trkpt lat="38.1355990" lon="-3.5699470">
        <ele>311.4</ele>
        <time>2018-06-16T10:02:58Z</time>
      </trkpt>
      <trkpt lat="38.1355990" lon="-3.5699470">
        <ele>311.6</ele>
        <time>2018-06-16T10:02:59Z</time>
      </trkpt>
      <trkpt lat="38.1355840" lon="-3.5699870">
        <ele>311.6</ele>
        <time>2018-06-16T10:03:00Z</time>
      </trkpt>
      <trkpt lat="38.1355670" lon="-3.5700280">
        <ele>311.6</ele>
        <time>2018-06-16T10:03:01Z</time>
      </trkpt>
      <trkpt lat="38.1355490" lon="-3.5700680">
        <ele>311.4</ele>
        <time>2018-06-16T10:03:02Z</time>
      </trkpt>
      <trkpt lat="38.1355320" lon="-3.5701070">
        <ele>311.4</ele>
        <time>2018-06-16T10:03:03Z</time>
      </trkpt>
      <trkpt lat="38.1355150" lon="-3.5701470">
        <ele>311.6</ele>
        <time>2018-06-16T10:03:04Z</time>
      </trkpt>
      <trkpt lat="38.1354980" lon="-3.5701870">
        <ele>311.6</ele>
        <time>2018-06-16T10:03:05Z</time>
      </trkpt>
      <trkpt lat="38.1354810" lon="-3.5702270">
        <ele>311.6</ele>
        <time>2018-06-16T10:03:06Z</time>
      </trkpt>
      <trkpt lat="38.1354630" lon="-3.5702660">
        <ele>311.6</ele>
        <time>2018-06-16T10:03:07Z</time>
      </trkpt>
      <trkpt lat="38.1354440" lon="-3.5703050">
        <ele>311.6</ele>
        <time>2018-06-16T10:03:08Z</time>
      </trkpt>
      <trkpt lat="38.1354260" lon="-3.5703440">
        <ele>311.6</ele>
        <time>2018-06-16T10:03:09Z</time>
      </trkpt>
      <trkpt lat="38.1354070" lon="-3.5703850">
        <ele>311.8</ele>
        <time>2018-06-16T10:03:10Z</time>
      </trkpt>
      <trkpt lat="38.1353870" lon="-3.5704260">
        <ele>311.8</ele>
        <time>2018-06-16T10:03:11Z</time>
      </trkpt>
      <trkpt lat="38.1353670" lon="-3.5704680">
        <ele>311.8</ele>
        <time>2018-06-16T10:03:12Z</time>
      </trkpt>
      <trkpt lat="38.1353470" lon="-3.5705100">
        <ele>311.6</ele>
        <time>2018-06-16T10:03:13Z</time>
      </trkpt>
      <trkpt lat="38.1353260" lon="-3.5705540">
        <ele>311.6</ele>
        <time>2018-06-16T10:03:14Z</time>
      </trkpt>
      <trkpt lat="38.1352830" lon="-3.5706420">
        <ele>311.8</ele>
        <time>2018-06-16T10:03:15Z</time>
      </trkpt>
      <trkpt lat="38.1352620" lon="-3.5706860">
        <ele>311.8</ele>
        <time>2018-06-16T10:03:16Z</time>
      </trkpt>
      <trkpt lat="38.1352410" lon="-3.5707300">
        <ele>311.8</ele>
        <time>2018-06-16T10:03:17Z</time>
      </trkpt>
      <trkpt lat="38.1352200" lon="-3.5707750">
        <ele>312.0</ele>
        <time>2018-06-16T10:03:18Z</time>
      </trkpt>
      <trkpt lat="38.1351980" lon="-3.5708220">
        <ele>312.0</ele>
        <time>2018-06-16T10:03:19Z</time>
      </trkpt>
      <trkpt lat="38.1351760" lon="-3.5708690">
        <ele>312.0</ele>
        <time>2018-06-16T10:03:20Z</time>
      </trkpt>
      <trkpt lat="38.1351530" lon="-3.5709170">
        <ele>312.2</ele>
        <time>2018-06-16T10:03:21Z</time>
      </trkpt>
      <trkpt lat="38.1351280" lon="-3.5709650">
        <ele>312.2</ele>
        <time>2018-06-16T10:03:22Z</time>
      </trkpt>
      <trkpt lat="38.1351040" lon="-3.5710130">
        <ele>312.2</ele>
        <time>2018-06-16T10:03:23Z</time>
      </trkpt>
      <trkpt lat="38.1350810" lon="-3.5710630">
        <ele>312.2</ele>
        <time>2018-06-16T10:03:24Z</time>
      </trkpt>
      <trkpt lat="38.1350580" lon="-3.5711130">
        <ele>312.2</ele>
        <time>2018-06-16T10:03:25Z</time>
      </trkpt>
      <trkpt lat="38.1350330" lon="-3.5711630">
        <ele>312.2</ele>
        <time>2018-06-16T10:03:26Z</time>
      </trkpt>
      <trkpt lat="38.1350090" lon="-3.5712140">
        <ele>312.2</ele>
        <time>2018-06-16T10:03:27Z</time>
      </trkpt>
      <trkpt lat="38.1349850" lon="-3.5712650">
        <ele>312.4</ele>
        <time>2018-06-16T10:03:28Z</time>
      </trkpt>
      <trkpt lat="38.1349610" lon="-3.5713170">
        <ele>312.4</ele>
        <time>2018-06-16T10:03:29Z</time>
      </trkpt>
      <trkpt lat="38.1349350" lon="-3.5713680">
        <ele>312.4</ele>
        <time>2018-06-16T10:03:30Z</time>
      </trkpt>
      <trkpt lat="38.1349110" lon="-3.5714190">
        <ele>312.4</ele>
        <time>2018-06-16T10:03:31Z</time>
      </trkpt>
      <trkpt lat="38.1348860" lon="-3.5714690">
        <ele>312.4</ele>
        <time>2018-06-16T10:03:32Z</time>
      </trkpt>
      <trkpt lat="38.1348860" lon="-3.5714690">
        <ele>312.4</ele>
        <time>2018-06-16T10:03:33Z</time>
      </trkpt>
      <trkpt lat="38.1348640" lon="-3.5715190">
        <ele>312.4</ele>
        <time>2018-06-16T10:03:34Z</time>
      </trkpt>
      <trkpt lat="38.1348410" lon="-3.5715710">
        <ele>312.4</ele>
        <time>2018-06-16T10:03:35Z</time>
      </trkpt>
      <trkpt lat="38.1348190" lon="-3.5716230">
        <ele>312.4</ele>
        <time>2018-06-16T10:03:36Z</time>
      </trkpt>
      <trkpt lat="38.1347930" lon="-3.5716750">
        <ele>312.4</ele>
        <time>2018-06-16T10:03:37Z</time>
      </trkpt>
      <trkpt lat="38.1347690" lon="-3.5717270">
        <ele>312.4</ele>
        <time>2018-06-16T10:03:38Z</time>
      </trkpt>
      <trkpt lat="38.1347460" lon="-3.5717790">
        <ele>312.4</ele>
        <time>2018-06-16T10:03:39Z</time>
      </trkpt>
      <trkpt lat="38.1347220" lon="-3.5718300">
        <ele>312.6</ele>
        <time>2018-06-16T10:03:40Z</time>
      </trkpt>
      <trkpt lat="38.1346980" lon="-3.5718820">
        <ele>312.6</ele>
        <time>2018-06-16T10:03:41Z</time>
      </trkpt>
      <trkpt lat="38.1346740" lon="-3.5719330">
        <ele>312.6</ele>
        <time>2018-06-16T10:03:42Z</time>
      </trkpt>
      <trkpt lat="38.1346500" lon="-3.5719830">
        <ele>312.6</ele>
        <time>2018-06-16T10:03:43Z</time>
      </trkpt>
      <trkpt lat="38.1346280" lon="-3.5720330">
        <ele>313.0</ele>
        <time>2018-06-16T10:03:44Z</time>
      </trkpt>
      <trkpt lat="38.1346040" lon="-3.5720830">
        <ele>313.0</ele>
        <time>2018-06-16T10:03:45Z</time>
      </trkpt>
      <trkpt lat="38.1345800" lon="-3.5721330">
        <ele>312.8</ele>
        <time>2018-06-16T10:03:46Z</time>
      </trkpt>
      <trkpt lat="38.1345330" lon="-3.5722280">
        <ele>313.2</ele>
        <time>2018-06-16T10:03:47Z</time>
      </trkpt>
      <trkpt lat="38.1345330" lon="-3.5722280">
        <ele>313.2</ele>
        <time>2018-06-16T10:03:48Z</time>
      </trkpt>
      <trkpt lat="38.1345090" lon="-3.5722770">
        <ele>313.0</ele>
        <time>2018-06-16T10:03:49Z</time>
      </trkpt>
      <trkpt lat="38.1344850" lon="-3.5723240">
        <ele>313.2</ele>
        <time>2018-06-16T10:03:50Z</time>
      </trkpt>
      <trkpt lat="38.1344390" lon="-3.5724190">
        <ele>313.2</ele>
        <time>2018-06-16T10:03:51Z</time>
      </trkpt>
      <trkpt lat="38.1344170" lon="-3.5724650">
        <ele>313.4</ele>
        <time>2018-06-16T10:03:52Z</time>
      </trkpt>
      <trkpt lat="38.1343950" lon="-3.5725100">
        <ele>313.6</ele>
        <time>2018-06-16T10:03:53Z</time>
      </trkpt>
      <trkpt lat="38.1343720" lon="-3.5725570">
        <ele>313.8</ele>
        <time>2018-06-16T10:03:54Z</time>
      </trkpt>
      <trkpt lat="38.1343500" lon="-3.5726030">
        <ele>313.8</ele>
        <time>2018-06-16T10:03:55Z</time>
      </trkpt>
      <trkpt lat="38.1343280" lon="-3.5726490">
        <ele>314.0</ele>
        <time>2018-06-16T10:03:56Z</time>
      </trkpt>
      <trkpt lat="38.1343070" lon="-3.5726950">
        <ele>313.8</ele>
        <time>2018-06-16T10:03:57Z</time>
      </trkpt>
      <trkpt lat="38.1342840" lon="-3.5727410">
        <ele>314.2</ele>
        <time>2018-06-16T10:03:58Z</time>
      </trkpt>
      <trkpt lat="38.1342640" lon="-3.5727870">
        <ele>314.2</ele>
        <time>2018-06-16T10:03:59Z</time>
      </trkpt>
      <trkpt lat="38.1342420" lon="-3.5728330">
        <ele>314.4</ele>
        <time>2018-06-16T10:04:00Z</time>
      </trkpt>
      <trkpt lat="38.1342180" lon="-3.5728790">
        <ele>314.4</ele>
        <time>2018-06-16T10:04:01Z</time>
      </trkpt>
      <trkpt lat="38.1341950" lon="-3.5729250">
        <ele>314.2</ele>
        <time>2018-06-16T10:04:02Z</time>
      </trkpt>
      <trkpt lat="38.1341710" lon="-3.5729700">
        <ele>314.4</ele>
        <time>2018-06-16T10:04:03Z</time>
      </trkpt>
      <trkpt lat="38.1341480" lon="-3.5730150">
        <ele>314.6</ele>
        <time>2018-06-16T10:04:04Z</time>
      </trkpt>
      <trkpt lat="38.1341250" lon="-3.5730590">
        <ele>314.4</ele>
        <time>2018-06-16T10:04:05Z</time>
      </trkpt>
      <trkpt lat="38.1341020" lon="-3.5731040">
        <ele>314.8</ele>
        <time>2018-06-16T10:04:06Z</time>
      </trkpt>
      <trkpt lat="38.1340780" lon="-3.5731480">
        <ele>314.8</ele>
        <time>2018-06-16T10:04:07Z</time>
      </trkpt>
      <trkpt lat="38.1340550" lon="-3.5731940">
        <ele>314.8</ele>
        <time>2018-06-16T10:04:08Z</time>
      </trkpt>
      <trkpt lat="38.1340310" lon="-3.5732390">
        <ele>314.8</ele>
        <time>2018-06-16T10:04:09Z</time>
      </trkpt>
      <trkpt lat="38.1340060" lon="-3.5732820">
        <ele>315.0</ele>
        <time>2018-06-16T10:04:10Z</time>
      </trkpt>
      <trkpt lat="38.1340060" lon="-3.5732820">
        <ele>314.8</ele>
        <time>2018-06-16T10:04:11Z</time>
      </trkpt>
      <trkpt lat="38.1339570" lon="-3.5733670">
        <ele>314.8</ele>
        <time>2018-06-16T10:04:12Z</time>
      </trkpt>
      <trkpt lat="38.1339570" lon="-3.5733670">
        <ele>315.0</ele>
        <time>2018-06-16T10:04:13Z</time>
      </trkpt>
      <trkpt lat="38.1339070" lon="-3.5734520">
        <ele>315.2</ele>
        <time>2018-06-16T10:04:14Z</time>
      </trkpt>
      <trkpt lat="38.1339070" lon="-3.5734520">
        <ele>315.2</ele>
        <time>2018-06-16T10:04:15Z</time>
      </trkpt>
      <trkpt lat="38.1338580" lon="-3.5735340">
        <ele>315.0</ele>
        <time>2018-06-16T10:04:16Z</time>
      </trkpt>
      <trkpt lat="38.1338580" lon="-3.5735340">
        <ele>315.4</ele>
        <time>2018-06-16T10:04:17Z</time>
      </trkpt>
      <trkpt lat="38.1338050" lon="-3.5736190">
        <ele>315.6</ele>
        <time>2018-06-16T10:04:18Z</time>
      </trkpt>
      <trkpt lat="38.1338050" lon="-3.5736190">
        <ele>315.6</ele>
        <time>2018-06-16T10:04:19Z</time>
      </trkpt>
      <trkpt lat="38.1337460" lon="-3.5737050">
        <ele>315.8</ele>
        <time>2018-06-16T10:04:20Z</time>
      </trkpt>
      <trkpt lat="38.1337460" lon="-3.5737050">
        <ele>316.0</ele>
        <time>2018-06-16T10:04:21Z</time>
      </trkpt>
      <trkpt lat="38.1337160" lon="-3.5737470">
        <ele>315.8</ele>
        <time>2018-06-16T10:04:22Z</time>
      </trkpt>
      <trkpt lat="38.1336590" lon="-3.5738360">
        <ele>315.8</ele>
        <time>2018-06-16T10:04:23Z</time>
      </trkpt>
      <trkpt lat="38.1336300" lon="-3.5738810">
        <ele>315.8</ele>
        <time>2018-06-16T10:04:24Z</time>
      </trkpt>
      <trkpt lat="38.1336010" lon="-3.5739240">
        <ele>316.0</ele>
        <time>2018-06-16T10:04:25Z</time>
      </trkpt>
      <trkpt lat="38.1335710" lon="-3.5739670">
        <ele>316.0</ele>
        <time>2018-06-16T10:04:26Z</time>
      </trkpt>
      <trkpt lat="38.1335410" lon="-3.5740090">
        <ele>316.2</ele>
        <time>2018-06-16T10:04:27Z</time>
      </trkpt>
      <trkpt lat="38.1335110" lon="-3.5740500">
        <ele>316.2</ele>
        <time>2018-06-16T10:04:28Z</time>
      </trkpt>
      <trkpt lat="38.1334820" lon="-3.5740920">
        <ele>316.4</ele>
        <time>2018-06-16T10:04:29Z</time>
      </trkpt>
      <trkpt lat="38.1334520" lon="-3.5741330">
        <ele>316.2</ele>
        <time>2018-06-16T10:04:30Z</time>
      </trkpt>
      <trkpt lat="38.1334220" lon="-3.5741750">
        <ele>316.4</ele>
        <time>2018-06-16T10:04:31Z</time>
      </trkpt>
      <trkpt lat="38.1333920" lon="-3.5742170">
        <ele>316.4</ele>
        <time>2018-06-16T10:04:32Z</time>
      </trkpt>
      <trkpt lat="38.1333630" lon="-3.5742590">
        <ele>316.4</ele>
        <time>2018-06-16T10:04:33Z</time>
      </trkpt>
      <trkpt lat="38.1333320" lon="-3.5743010">
        <ele>316.6</ele>
        <time>2018-06-16T10:04:34Z</time>
      </trkpt>
      <trkpt lat="38.1333320" lon="-3.5743010">
        <ele>316.6</ele>
        <time>2018-06-16T10:04:35Z</time>
      </trkpt>
      <trkpt lat="38.1333020" lon="-3.5743430">
        <ele>316.6</ele>
        <time>2018-06-16T10:04:36Z</time>
      </trkpt>
      <trkpt lat="38.1332710" lon="-3.5743850">
        <ele>316.8</ele>
        <time>2018-06-16T10:04:37Z</time>
      </trkpt>
      <trkpt lat="38.1332100" lon="-3.5744700">
        <ele>316.8</ele>
        <time>2018-06-16T10:04:38Z</time>
      </trkpt>
      <trkpt lat="38.1331810" lon="-3.5745120">
        <ele>317.0</ele>
        <time>2018-06-16T10:04:39Z</time>
      </trkpt>
      <trkpt lat="38.1331810" lon="-3.5745120">
        <ele>317.0</ele>
        <time>2018-06-16T10:04:40Z</time>
      </trkpt>
      <trkpt lat="38.1331210" lon="-3.5745970">
        <ele>317.0</ele>
        <time>2018-06-16T10:04:41Z</time>
      </trkpt>
      <trkpt lat="38.1330920" lon="-3.5746390">
        <ele>317.0</ele>
        <time>2018-06-16T10:04:42Z</time>
      </trkpt>
      <trkpt lat="38.1330640" lon="-3.5746820">
        <ele>317.0</ele>
        <time>2018-06-16T10:04:43Z</time>
      </trkpt>
      <trkpt lat="38.1330370" lon="-3.5747250">
        <ele>317.2</ele>
        <time>2018-06-16T10:04:44Z</time>
      </trkpt>
      <trkpt lat="38.1330100" lon="-3.5747670">
        <ele>317.2</ele>
        <time>2018-06-16T10:04:45Z</time>
      </trkpt>
      <trkpt lat="38.1329820" lon="-3.5748080">
        <ele>317.2</ele>
        <time>2018-06-16T10:04:46Z</time>
      </trkpt>
      <trkpt lat="38.1329550" lon="-3.5748470">
        <ele>317.4</ele>
        <time>2018-06-16T10:04:47Z</time>
      </trkpt>
      <trkpt lat="38.1329300" lon="-3.5748890">
        <ele>317.0</ele>
        <time>2018-06-16T10:04:48Z</time>
      </trkpt>
      <trkpt lat="38.1328900" lon="-3.5749530">
        <ele>317.6</ele>
        <time>2018-06-16T10:04:49Z</time>
      </trkpt>
      <trkpt lat="38.1328770" lon="-3.5749740">
        <ele>317.4</ele>
        <time>2018-06-16T10:04:50Z</time>
      </trkpt>
      <trkpt lat="38.1328510" lon="-3.5750150">
        <ele>317.4</ele>
        <time>2018-06-16T10:04:51Z</time>
      </trkpt>
      <trkpt lat="38.1328240" lon="-3.5750580">
        <ele>317.6</ele>
        <time>2018-06-16T10:04:52Z</time>
      </trkpt>
      <trkpt lat="38.1327970" lon="-3.5751020">
        <ele>317.8</ele>
        <time>2018-06-16T10:04:53Z</time>
      </trkpt>
      <trkpt lat="38.1327700" lon="-3.5751450">
        <ele>317.8</ele>
        <time>2018-06-16T10:04:54Z</time>
      </trkpt>
      <trkpt lat="38.1327450" lon="-3.5751880">
        <ele>317.8</ele>
        <time>2018-06-16T10:04:55Z</time>
      </trkpt>
      <trkpt lat="38.1327210" lon="-3.5752320">
        <ele>318.0</ele>
        <time>2018-06-16T10:04:56Z</time>
      </trkpt>
      <trkpt lat="38.1326950" lon="-3.5752760">
        <ele>318.2</ele>
        <time>2018-06-16T10:04:57Z</time>
      </trkpt>
      <trkpt lat="38.1326700" lon="-3.5753200">
        <ele>318.0</ele>
        <time>2018-06-16T10:04:58Z</time>
      </trkpt>
      <trkpt lat="38.1326450" lon="-3.5753640">
        <ele>318.0</ele>
        <time>2018-06-16T10:04:59Z</time>
      </trkpt>
      <trkpt lat="38.1326200" lon="-3.5754080">
        <ele>318.0</ele>
        <time>2018-06-16T10:05:00Z</time>
      </trkpt>
      <trkpt lat="38.1325970" lon="-3.5754510">
        <ele>318.0</ele>
        <time>2018-06-16T10:05:01Z</time>
      </trkpt>
      <trkpt lat="38.1325730" lon="-3.5754950">
        <ele>318.2</ele>
        <time>2018-06-16T10:05:02Z</time>
      </trkpt>
      <trkpt lat="38.1325490" lon="-3.5755380">
        <ele>318.4</ele>
        <time>2018-06-16T10:05:03Z</time>
      </trkpt>
      <trkpt lat="38.1325240" lon="-3.5755820">
        <ele>318.4</ele>
        <time>2018-06-16T10:05:04Z</time>
      </trkpt>
      <trkpt lat="38.1324990" lon="-3.5756270">
        <ele>318.4</ele>
        <time>2018-06-16T10:05:05Z</time>
      </trkpt>
      <trkpt lat="38.1324740" lon="-3.5756710">
        <ele>318.6</ele>
        <time>2018-06-16T10:05:06Z</time>
      </trkpt>
      <trkpt lat="38.1324500" lon="-3.5757150">
        <ele>318.6</ele>
        <time>2018-06-16T10:05:07Z</time>
      </trkpt>
      <trkpt lat="38.1324270" lon="-3.5757600">
        <ele>318.6</ele>
        <time>2018-06-16T10:05:08Z</time>
      </trkpt>
      <trkpt lat="38.1324050" lon="-3.5758040">
        <ele>318.6</ele>
        <time>2018-06-16T10:05:09Z</time>
      </trkpt>
      <trkpt lat="38.1323810" lon="-3.5758490">
        <ele>318.8</ele>
        <time>2018-06-16T10:05:10Z</time>
      </trkpt>
      <trkpt lat="38.1323810" lon="-3.5758490">
        <ele>318.8</ele>
        <time>2018-06-16T10:05:11Z</time>
      </trkpt>
      <trkpt lat="38.1323570" lon="-3.5758930">
        <ele>319.0</ele>
        <time>2018-06-16T10:05:12Z</time>
      </trkpt>
      <trkpt lat="38.1323320" lon="-3.5759390">
        <ele>319.0</ele>
        <time>2018-06-16T10:05:13Z</time>
      </trkpt>
      <trkpt lat="38.1323080" lon="-3.5759840">
        <ele>319.0</ele>
        <time>2018-06-16T10:05:14Z</time>
      </trkpt>
      <trkpt lat="38.1322840" lon="-3.5760300">
        <ele>319.2</ele>
        <time>2018-06-16T10:05:15Z</time>
      </trkpt>
      <trkpt lat="38.1322340" lon="-3.5761230">
        <ele>319.2</ele>
        <time>2018-06-16T10:05:16Z</time>
      </trkpt>
      <trkpt lat="38.1322340" lon="-3.5761230">
        <ele>319.2</ele>
        <time>2018-06-16T10:05:17Z</time>
      </trkpt>
      <trkpt lat="38.1321860" lon="-3.5762160">
        <ele>319.4</ele>
        <time>2018-06-16T10:05:18Z</time>
      </trkpt>
      <trkpt lat="38.1321860" lon="-3.5762160">
        <ele>319.4</ele>
        <time>2018-06-16T10:05:19Z</time>
      </trkpt>
      <trkpt lat="38.1321380" lon="-3.5763090">
        <ele>319.6</ele>
        <time>2018-06-16T10:05:20Z</time>
      </trkpt>
      <trkpt lat="38.1321150" lon="-3.5763560">
        <ele>319.6</ele>
        <time>2018-06-16T10:05:21Z</time>
      </trkpt>
      <trkpt lat="38.1320910" lon="-3.5764030">
        <ele>319.6</ele>
        <time>2018-06-16T10:05:22Z</time>
      </trkpt>
      <trkpt lat="38.1320670" lon="-3.5764500">
        <ele>319.8</ele>
        <time>2018-06-16T10:05:23Z</time>
      </trkpt>
      <trkpt lat="38.1320440" lon="-3.5764970">
        <ele>319.8</ele>
        <time>2018-06-16T10:05:24Z</time>
      </trkpt>
      <trkpt lat="38.1320210" lon="-3.5765450">
        <ele>319.8</ele>
        <time>2018-06-16T10:05:25Z</time>
      </trkpt>
      <trkpt lat="38.1319970" lon="-3.5765930">
        <ele>319.8</ele>
        <time>2018-06-16T10:05:26Z</time>
      </trkpt>
      <trkpt lat="38.1319740" lon="-3.5766400">
        <ele>320.0</ele>
        <time>2018-06-16T10:05:27Z</time>
      </trkpt>
      <trkpt lat="38.1319500" lon="-3.5766880">
        <ele>320.0</ele>
        <time>2018-06-16T10:05:28Z</time>
      </trkpt>
      <trkpt lat="38.1319260" lon="-3.5767360">
        <ele>320.0</ele>
        <time>2018-06-16T10:05:29Z</time>
      </trkpt>
      <trkpt lat="38.1319020" lon="-3.5767840">
        <ele>320.0</ele>
        <time>2018-06-16T10:05:30Z</time>
      </trkpt>
      <trkpt lat="38.1318800" lon="-3.5768320">
        <ele>320.0</ele>
        <time>2018-06-16T10:05:31Z</time>
      </trkpt>
      <trkpt lat="38.1318580" lon="-3.5768800">
        <ele>320.0</ele>
        <time>2018-06-16T10:05:32Z</time>
      </trkpt>
      <trkpt lat="38.1318580" lon="-3.5768800">
        <ele>320.0</ele>
        <time>2018-06-16T10:05:33Z</time>
      </trkpt>
      <trkpt lat="38.1318130" lon="-3.5769780">
        <ele>320.2</ele>
        <time>2018-06-16T10:05:34Z</time>
      </trkpt>
      <trkpt lat="38.1318130" lon="-3.5769780">
        <ele>320.4</ele>
        <time>2018-06-16T10:05:35Z</time>
      </trkpt>
      <trkpt lat="38.1317670" lon="-3.5770750">
        <ele>320.2</ele>
        <time>2018-06-16T10:05:36Z</time>
      </trkpt>
      <trkpt lat="38.1317450" lon="-3.5771240">
        <ele>320.4</ele>
        <time>2018-06-16T10:05:37Z</time>
      </trkpt>
      <trkpt lat="38.1317230" lon="-3.5771740">
        <ele>320.4</ele>
        <time>2018-06-16T10:05:38Z</time>
      </trkpt>
      <trkpt lat="38.1317010" lon="-3.5772240">
        <ele>320.2</ele>
        <time>2018-06-16T10:05:39Z</time>
      </trkpt>
      <trkpt lat="38.1316790" lon="-3.5772730">
        <ele>320.2</ele>
        <time>2018-06-16T10:05:40Z</time>
      </trkpt>
      <trkpt lat="38.1316580" lon="-3.5773220">
        <ele>320.4</ele>
        <time>2018-06-16T10:05:41Z</time>
      </trkpt>
      <trkpt lat="38.1316380" lon="-3.5773710">
        <ele>320.6</ele>
        <time>2018-06-16T10:05:42Z</time>
      </trkpt>
      <trkpt lat="38.1316180" lon="-3.5774190">
        <ele>320.8</ele>
        <time>2018-06-16T10:05:43Z</time>
      </trkpt>
      <trkpt lat="38.1315970" lon="-3.5774670">
        <ele>320.6</ele>
        <time>2018-06-16T10:05:44Z</time>
      </trkpt>
      <trkpt lat="38.1315760" lon="-3.5775160">
        <ele>320.8</ele>
        <time>2018-06-16T10:05:45Z</time>
      </trkpt>
      <trkpt lat="38.1315550" lon="-3.5775670">
        <ele>320.8</ele>
        <time>2018-06-16T10:05:46Z</time>
      </trkpt>
      <trkpt lat="38.1315340" lon="-3.5776180">
        <ele>320.8</ele>
        <time>2018-06-16T10:05:47Z</time>
      </trkpt>
      <trkpt lat="38.1315130" lon="-3.5776690">
        <ele>320.6</ele>
        <time>2018-06-16T10:05:48Z</time>
      </trkpt>
      <trkpt lat="38.1314910" lon="-3.5777210">
        <ele>320.6</ele>
        <time>2018-06-16T10:05:49Z</time>
      </trkpt>
      <trkpt lat="38.1314690" lon="-3.5777740">
        <ele>320.8</ele>
        <time>2018-06-16T10:05:50Z</time>
      </trkpt>
      <trkpt lat="38.1314480" lon="-3.5778270">
        <ele>320.8</ele>
        <time>2018-06-16T10:05:51Z</time>
      </trkpt>
      <trkpt lat="38.1314270" lon="-3.5778800">
        <ele>321.2</ele>
        <time>2018-06-16T10:05:52Z</time>
      </trkpt>
      <trkpt lat="38.1314040" lon="-3.5779330">
        <ele>321.2</ele>
        <time>2018-06-16T10:05:53Z</time>
      </trkpt>
      <trkpt lat="38.1313820" lon="-3.5779860">
        <ele>321.2</ele>
        <time>2018-06-16T10:05:54Z</time>
      </trkpt>
      <trkpt lat="38.1313620" lon="-3.5780380">
        <ele>321.2</ele>
        <time>2018-06-16T10:05:55Z</time>
      </trkpt>
      <trkpt lat="38.1313410" lon="-3.5780910">
        <ele>321.2</ele>
        <time>2018-06-16T10:05:56Z</time>
      </trkpt>
      <trkpt lat="38.1313200" lon="-3.5781420">
        <ele>321.4</ele>
        <time>2018-06-16T10:05:57Z</time>
      </trkpt>
      <trkpt lat="38.1312980" lon="-3.5781930">
        <ele>321.4</ele>
        <time>2018-06-16T10:05:58Z</time>
      </trkpt>
      <trkpt lat="38.1312760" lon="-3.5782460">
        <ele>321.4</ele>
        <time>2018-06-16T10:05:59Z</time>
      </trkpt>
      <trkpt lat="38.1312530" lon="-3.5783000">
        <ele>321.4</ele>
        <time>2018-06-16T10:06:00Z</time>
      </trkpt>
      <trkpt lat="38.1312310" lon="-3.5783540">
        <ele>321.2</ele>
        <time>2018-06-16T10:06:01Z</time>
      </trkpt>
      <trkpt lat="38.1312080" lon="-3.5784080">
        <ele>321.6</ele>
        <time>2018-06-16T10:06:02Z</time>
      </trkpt>
      <trkpt lat="38.1311870" lon="-3.5784620">
        <ele>321.6</ele>
        <time>2018-06-16T10:06:03Z</time>
      </trkpt>
      <trkpt lat="38.1311650" lon="-3.5785170">
        <ele>321.4</ele>
        <time>2018-06-16T10:06:04Z</time>
      </trkpt>
      <trkpt lat="38.1311430" lon="-3.5785710">
        <ele>321.4</ele>
        <time>2018-06-16T10:06:05Z</time>
      </trkpt>
      <trkpt lat="38.1311200" lon="-3.5786240">
        <ele>321.8</ele>
        <time>2018-06-16T10:06:06Z</time>
      </trkpt>
      <trkpt lat="38.1310980" lon="-3.5786790">
        <ele>321.6</ele>
        <time>2018-06-16T10:06:07Z</time>
      </trkpt>
      <trkpt lat="38.1310760" lon="-3.5787320">
        <ele>321.6</ele>
        <time>2018-06-16T10:06:08Z</time>
      </trkpt>
      <trkpt lat="38.1310540" lon="-3.5787860">
        <ele>321.8</ele>
        <time>2018-06-16T10:06:09Z</time>
      </trkpt>
      <trkpt lat="38.1310320" lon="-3.5788400">
        <ele>321.8</ele>
        <time>2018-06-16T10:06:10Z</time>
      </trkpt>
      <trkpt lat="38.1310110" lon="-3.5788940">
        <ele>321.8</ele>
        <time>2018-06-16T10:06:11Z</time>
      </trkpt>
      <trkpt lat="38.1309890" lon="-3.5789480">
        <ele>322.0</ele>
        <time>2018-06-16T10:06:12Z</time>
      </trkpt>
      <trkpt lat="38.1309670" lon="-3.5790020">
        <ele>322.0</ele>
        <time>2018-06-16T10:06:13Z</time>
      </trkpt>
      <trkpt lat="38.1309460" lon="-3.5790560">
        <ele>322.2</ele>
        <time>2018-06-16T10:06:14Z</time>
      </trkpt>
      <trkpt lat="38.1309240" lon="-3.5791100">
        <ele>322.2</ele>
        <time>2018-06-16T10:06:15Z</time>
      </trkpt>
      <trkpt lat="38.1309010" lon="-3.5791640">
        <ele>322.2</ele>
        <time>2018-06-16T10:06:16Z</time>
      </trkpt>
      <trkpt lat="38.1308790" lon="-3.5792190">
        <ele>322.4</ele>
        <time>2018-06-16T10:06:17Z</time>
      </trkpt>
      <trkpt lat="38.1308560" lon="-3.5792750">
        <ele>322.4</ele>
        <time>2018-06-16T10:06:18Z</time>
      </trkpt>
      <trkpt lat="38.1308320" lon="-3.5793310">
        <ele>322.4</ele>
        <time>2018-06-16T10:06:19Z</time>
      </trkpt>
      <trkpt lat="38.1308060" lon="-3.5793880">
        <ele>322.4</ele>
        <time>2018-06-16T10:06:20Z</time>
      </trkpt>
      <trkpt lat="38.1307810" lon="-3.5794450">
        <ele>322.4</ele>
        <time>2018-06-16T10:06:21Z</time>
      </trkpt>
      <trkpt lat="38.1307550" lon="-3.5795020">
        <ele>322.6</ele>
        <time>2018-06-16T10:06:22Z</time>
      </trkpt>
      <trkpt lat="38.1307280" lon="-3.5795580">
        <ele>322.8</ele>
        <time>2018-06-16T10:06:23Z</time>
      </trkpt>
      <trkpt lat="38.1306990" lon="-3.5796150">
        <ele>322.6</ele>
        <time>2018-06-16T10:06:24Z</time>
      </trkpt>
      <trkpt lat="38.1306720" lon="-3.5796710">
        <ele>322.8</ele>
        <time>2018-06-16T10:06:25Z</time>
      </trkpt>
      <trkpt lat="38.1306720" lon="-3.5796710">
        <ele>322.8</ele>
        <time>2018-06-16T10:06:26Z</time>
      </trkpt>
      <trkpt lat="38.1306140" lon="-3.5797810">
        <ele>322.8</ele>
        <time>2018-06-16T10:06:27Z</time>
      </trkpt>
      <trkpt lat="38.1306140" lon="-3.5797810">
        <ele>322.8</ele>
        <time>2018-06-16T10:06:28Z</time>
      </trkpt>
      <trkpt lat="38.1305540" lon="-3.5798880">
        <ele>323.0</ele>
        <time>2018-06-16T10:06:29Z</time>
      </trkpt>
      <trkpt lat="38.1305230" lon="-3.5799390">
        <ele>323.0</ele>
        <time>2018-06-16T10:06:30Z</time>
      </trkpt>
      <trkpt lat="38.1304910" lon="-3.5799910">
        <ele>323.0</ele>
        <time>2018-06-16T10:06:31Z</time>
      </trkpt>
      <trkpt lat="38.1304580" lon="-3.5800400">
        <ele>323.0</ele>
        <time>2018-06-16T10:06:32Z</time>
      </trkpt>
      <trkpt lat="38.1304580" lon="-3.5800400">
        <ele>323.0</ele>
        <time>2018-06-16T10:06:33Z</time>
      </trkpt>
      <trkpt lat="38.1303900" lon="-3.5801370">
        <ele>323.2</ele>
        <time>2018-06-16T10:06:34Z</time>
      </trkpt>
      <trkpt lat="38.1303570" lon="-3.5801860">
        <ele>323.2</ele>
        <time>2018-06-16T10:06:35Z</time>
      </trkpt>
      <trkpt lat="38.1303220" lon="-3.5802340">
        <ele>323.2</ele>
        <time>2018-06-16T10:06:36Z</time>
      </trkpt>
      <trkpt lat="38.1302860" lon="-3.5802810">
        <ele>323.4</ele>
        <time>2018-06-16T10:06:37Z</time>
      </trkpt>
      <trkpt lat="38.1302520" lon="-3.5803290">
        <ele>323.4</ele>
        <time>2018-06-16T10:06:38Z</time>
      </trkpt>
      <trkpt lat="38.1302160" lon="-3.5803750">
        <ele>323.6</ele>
        <time>2018-06-16T10:06:39Z</time>
      </trkpt>
      <trkpt lat="38.1301800" lon="-3.5804200">
        <ele>323.6</ele>
        <time>2018-06-16T10:06:40Z</time>
      </trkpt>
      <trkpt lat="38.1301430" lon="-3.5804660">
        <ele>323.6</ele>
        <time>2018-06-16T10:06:41Z</time>
      </trkpt>
      <trkpt lat="38.1301060" lon="-3.5805100">
        <ele>323.6</ele>
        <time>2018-06-16T10:06:42Z</time>
      </trkpt>
      <trkpt lat="38.1300680" lon="-3.5805550">
        <ele>323.8</ele>
        <time>2018-06-16T10:06:43Z</time>
      </trkpt>
      <trkpt lat="38.1300310" lon="-3.5806000">
        <ele>323.8</ele>
        <time>2018-06-16T10:06:44Z</time>
      </trkpt>
      <trkpt lat="38.1299930" lon="-3.5806440">
        <ele>324.0</ele>
        <time>2018-06-16T10:06:45Z</time>
      </trkpt>
      <trkpt lat="38.1299560" lon="-3.5806880">
        <ele>324.0</ele>
        <time>2018-06-16T10:06:46Z</time>
      </trkpt>
      <trkpt lat="38.1299180" lon="-3.5807310">
        <ele>324.0</ele>
        <time>2018-06-16T10:06:47Z</time>
      </trkpt>
      <trkpt lat="38.1298810" lon="-3.5807770">
        <ele>324.2</ele>
        <time>2018-06-16T10:06:48Z</time>
      </trkpt>
      <trkpt lat="38.1298450" lon="-3.5808220">
        <ele>324.4</ele>
        <time>2018-06-16T10:06:49Z</time>
      </trkpt>
      <trkpt lat="38.1298080" lon="-3.5808660">
        <ele>324.2</ele>
        <time>2018-06-16T10:06:50Z</time>
      </trkpt>
      <trkpt lat="38.1297710" lon="-3.5809100">
        <ele>324.6</ele>
        <time>2018-06-16T10:06:51Z</time>
      </trkpt>
      <trkpt lat="38.1297350" lon="-3.5809530">
        <ele>324.6</ele>
        <time>2018-06-16T10:06:52Z</time>
      </trkpt>
      <trkpt lat="38.1297010" lon="-3.5809940">
        <ele>323.8</ele>
        <time>2018-06-16T10:06:53Z</time>
      </trkpt>
      <trkpt lat="38.1297010" lon="-3.5809940">
        <ele>327.6</ele>
        <time>2018-06-16T10:06:54Z</time>
      </trkpt>
      <trkpt lat="38.1296340" lon="-3.5810740">
        <ele>324.0</ele>
        <time>2018-06-16T10:06:55Z</time>
      </trkpt>
      <trkpt lat="38.1296000" lon="-3.5811160">
        <ele>325.2</ele>
        <time>2018-06-16T10:06:56Z</time>
      </trkpt>
      <trkpt lat="38.1295670" lon="-3.5811570">
        <ele>325.0</ele>
        <time>2018-06-16T10:06:57Z</time>
      </trkpt>
      <trkpt lat="38.1295340" lon="-3.5811970">
        <ele>331.2</ele>
        <time>2018-06-16T10:06:58Z</time>
      </trkpt>
      <trkpt lat="38.1294990" lon="-3.5812380">
        <ele>325.2</ele>
        <time>2018-06-16T10:06:59Z</time>
      </trkpt>
      <trkpt lat="38.1294620" lon="-3.5812830">
        <ele>325.2</ele>
        <time>2018-06-16T10:07:00Z</time>
      </trkpt>
      <trkpt lat="38.1294270" lon="-3.5813260">
        <ele>325.2</ele>
        <time>2018-06-16T10:07:01Z</time>
      </trkpt>
      <trkpt lat="38.1293920" lon="-3.5813680">
        <ele>325.4</ele>
        <time>2018-06-16T10:07:02Z</time>
      </trkpt>
      <trkpt lat="38.1293600" lon="-3.5814100">
        <ele>325.4</ele>
        <time>2018-06-16T10:07:03Z</time>
      </trkpt>
      <trkpt lat="38.1293270" lon="-3.5814560">
        <ele>325.4</ele>
        <time>2018-06-16T10:07:04Z</time>
      </trkpt>
      <trkpt lat="38.1292930" lon="-3.5815000">
        <ele>325.4</ele>
        <time>2018-06-16T10:07:05Z</time>
      </trkpt>
      <trkpt lat="38.1292590" lon="-3.5815450">
        <ele>325.6</ele>
        <time>2018-06-16T10:07:06Z</time>
      </trkpt>
      <trkpt lat="38.1292250" lon="-3.5815910">
        <ele>325.6</ele>
        <time>2018-06-16T10:07:07Z</time>
      </trkpt>
      <trkpt lat="38.1291910" lon="-3.5816370">
        <ele>325.8</ele>
        <time>2018-06-16T10:07:08Z</time>
      </trkpt>
      <trkpt lat="38.1291570" lon="-3.5816840">
        <ele>325.8</ele>
        <time>2018-06-16T10:07:09Z</time>
      </trkpt>
      <trkpt lat="38.1291250" lon="-3.5817310">
        <ele>326.0</ele>
        <time>2018-06-16T10:07:10Z</time>
      </trkpt>
      <trkpt lat="38.1290920" lon="-3.5817770">
        <ele>326.0</ele>
        <time>2018-06-16T10:07:11Z</time>
      </trkpt>
      <trkpt lat="38.1290610" lon="-3.5818230">
        <ele>326.0</ele>
        <time>2018-06-16T10:07:12Z</time>
      </trkpt>
      <trkpt lat="38.1290300" lon="-3.5818700">
        <ele>326.2</ele>
        <time>2018-06-16T10:07:13Z</time>
      </trkpt>
      <trkpt lat="38.1289970" lon="-3.5819160">
        <ele>326.4</ele>
        <time>2018-06-16T10:07:14Z</time>
      </trkpt>
      <trkpt lat="38.1289680" lon="-3.5819620">
        <ele>326.4</ele>
        <time>2018-06-16T10:07:15Z</time>
      </trkpt>
      <trkpt lat="38.1289390" lon="-3.5820090">
        <ele>326.8</ele>
        <time>2018-06-16T10:07:16Z</time>
      </trkpt>
      <trkpt lat="38.1289090" lon="-3.5820560">
        <ele>326.4</ele>
        <time>2018-06-16T10:07:17Z</time>
      </trkpt>
      <trkpt lat="38.1288790" lon="-3.5821030">
        <ele>326.6</ele>
        <time>2018-06-16T10:07:18Z</time>
      </trkpt>
      <trkpt lat="38.1288500" lon="-3.5821520">
        <ele>326.6</ele>
        <time>2018-06-16T10:07:19Z</time>
      </trkpt>
      <trkpt lat="38.1288200" lon="-3.5822000">
        <ele>326.8</ele>
        <time>2018-06-16T10:07:20Z</time>
      </trkpt>
      <trkpt lat="38.1287900" lon="-3.5822480">
        <ele>326.8</ele>
        <time>2018-06-16T10:07:21Z</time>
      </trkpt>
      <trkpt lat="38.1287600" lon="-3.5822960">
        <ele>327.0</ele>
        <time>2018-06-16T10:07:22Z</time>
      </trkpt>
      <trkpt lat="38.1287310" lon="-3.5823440">
        <ele>326.8</ele>
        <time>2018-06-16T10:07:23Z</time>
      </trkpt>
      <trkpt lat="38.1287030" lon="-3.5823920">
        <ele>327.0</ele>
        <time>2018-06-16T10:07:24Z</time>
      </trkpt>
      <trkpt lat="38.1286760" lon="-3.5824390">
        <ele>327.0</ele>
        <time>2018-06-16T10:07:25Z</time>
      </trkpt>
      <trkpt lat="38.1286480" lon="-3.5824860">
        <ele>327.2</ele>
        <time>2018-06-16T10:07:26Z</time>
      </trkpt>
      <trkpt lat="38.1286220" lon="-3.5825320">
        <ele>327.2</ele>
        <time>2018-06-16T10:07:27Z</time>
      </trkpt>
      <trkpt lat="38.1285940" lon="-3.5825770">
        <ele>327.2</ele>
        <time>2018-06-16T10:07:28Z</time>
      </trkpt>
      <trkpt lat="38.1285670" lon="-3.5826210">
        <ele>327.4</ele>
        <time>2018-06-16T10:07:29Z</time>
      </trkpt>
      <trkpt lat="38.1285400" lon="-3.5826650">
        <ele>327.8</ele>
        <time>2018-06-16T10:07:30Z</time>
      </trkpt>
      <trkpt lat="38.1285140" lon="-3.5827080">
        <ele>327.6</ele>
        <time>2018-06-16T10:07:31Z</time>
      </trkpt>
      <trkpt lat="38.1284890" lon="-3.5827500">
        <ele>327.6</ele>
        <time>2018-06-16T10:07:32Z</time>
      </trkpt>
      <trkpt lat="38.1284650" lon="-3.5827920">
        <ele>327.8</ele>
        <time>2018-06-16T10:07:33Z</time>
      </trkpt>
      <trkpt lat="38.1284400" lon="-3.5828340">
        <ele>328.0</ele>
        <time>2018-06-16T10:07:34Z</time>
      </trkpt>
      <trkpt lat="38.1284140" lon="-3.5828760">
        <ele>328.0</ele>
        <time>2018-06-16T10:07:35Z</time>
      </trkpt>
      <trkpt lat="38.1283880" lon="-3.5829180">
        <ele>328.2</ele>
        <time>2018-06-16T10:07:36Z</time>
      </trkpt>
      <trkpt lat="38.1283630" lon="-3.5829600">
        <ele>328.2</ele>
        <time>2018-06-16T10:07:37Z</time>
      </trkpt>
      <trkpt lat="38.1283380" lon="-3.5830030">
        <ele>328.2</ele>
        <time>2018-06-16T10:07:38Z</time>
      </trkpt>
      <trkpt lat="38.1283130" lon="-3.5830470">
        <ele>328.2</ele>
        <time>2018-06-16T10:07:39Z</time>
      </trkpt>
      <trkpt lat="38.1282870" lon="-3.5830910">
        <ele>328.4</ele>
        <time>2018-06-16T10:07:40Z</time>
      </trkpt>
      <trkpt lat="38.1282600" lon="-3.5831330">
        <ele>328.8</ele>
        <time>2018-06-16T10:07:41Z</time>
      </trkpt>
      <trkpt lat="38.1282340" lon="-3.5831750">
        <ele>328.4</ele>
        <time>2018-06-16T10:07:42Z</time>
      </trkpt>
      <trkpt lat="38.1282080" lon="-3.5832170">
        <ele>328.6</ele>
        <time>2018-06-16T10:07:43Z</time>
      </trkpt>
      <trkpt lat="38.1281830" lon="-3.5832590">
        <ele>328.6</ele>
        <time>2018-06-16T10:07:44Z</time>
      </trkpt>
      <trkpt lat="38.1281570" lon="-3.5833040">
        <ele>328.6</ele>
        <time>2018-06-16T10:07:45Z</time>
      </trkpt>
      <trkpt lat="38.1281310" lon="-3.5833480">
        <ele>328.8</ele>
        <time>2018-06-16T10:07:46Z</time>
      </trkpt>
      <trkpt lat="38.1281040" lon="-3.5833930">
        <ele>328.8</ele>
        <time>2018-06-16T10:07:47Z</time>
      </trkpt>
      <trkpt lat="38.1280770" lon="-3.5834370">
        <ele>328.6</ele>
        <time>2018-06-16T10:07:48Z</time>
      </trkpt>
      <trkpt lat="38.1280520" lon="-3.5834820">
        <ele>329.2</ele>
        <time>2018-06-16T10:07:49Z</time>
      </trkpt>
      <trkpt lat="38.1280280" lon="-3.5835280">
        <ele>329.2</ele>
        <time>2018-06-16T10:07:50Z</time>
      </trkpt>
      <trkpt lat="38.1280020" lon="-3.5835730">
        <ele>329.2</ele>
        <time>2018-06-16T10:07:51Z</time>
      </trkpt>
      <trkpt lat="38.1279760" lon="-3.5836190">
        <ele>329.4</ele>
        <time>2018-06-16T10:07:52Z</time>
      </trkpt>
      <trkpt lat="38.1279500" lon="-3.5836660">
        <ele>329.4</ele>
        <time>2018-06-16T10:07:53Z</time>
      </trkpt>
      <trkpt lat="38.1279250" lon="-3.5837120">
        <ele>329.4</ele>
        <time>2018-06-16T10:07:54Z</time>
      </trkpt>
      <trkpt lat="38.1278990" lon="-3.5837590">
        <ele>329.6</ele>
        <time>2018-06-16T10:07:55Z</time>
      </trkpt>
      <trkpt lat="38.1278730" lon="-3.5838070">
        <ele>329.4</ele>
        <time>2018-06-16T10:07:56Z</time>
      </trkpt>
      <trkpt lat="38.1278470" lon="-3.5838550">
        <ele>329.6</ele>
        <time>2018-06-16T10:07:57Z</time>
      </trkpt>
      <trkpt lat="38.1278200" lon="-3.5839040">
        <ele>329.8</ele>
        <time>2018-06-16T10:07:58Z</time>
      </trkpt>
      <trkpt lat="38.1277940" lon="-3.5839520">
        <ele>329.8</ele>
        <time>2018-06-16T10:07:59Z</time>
      </trkpt>
      <trkpt lat="38.1277710" lon="-3.5839990">
        <ele>330.0</ele>
        <time>2018-06-16T10:08:00Z</time>
      </trkpt>
      <trkpt lat="38.1277460" lon="-3.5840460">
        <ele>329.8</ele>
        <time>2018-06-16T10:08:01Z</time>
      </trkpt>
      <trkpt lat="38.1277220" lon="-3.5840930">
        <ele>330.2</ele>
        <time>2018-06-16T10:08:02Z</time>
      </trkpt>
      <trkpt lat="38.1276970" lon="-3.5841410">
        <ele>330.2</ele>
        <time>2018-06-16T10:08:03Z</time>
      </trkpt>
      <trkpt lat="38.1276740" lon="-3.5841890">
        <ele>330.2</ele>
        <time>2018-06-16T10:08:04Z</time>
      </trkpt>
      <trkpt lat="38.1276520" lon="-3.5842370">
        <ele>330.4</ele>
        <time>2018-06-16T10:08:05Z</time>
      </trkpt>
      <trkpt lat="38.1276280" lon="-3.5842840">
        <ele>330.4</ele>
        <time>2018-06-16T10:08:06Z</time>
      </trkpt>
      <trkpt lat="38.1276040" lon="-3.5843310">
        <ele>330.4</ele>
        <time>2018-06-16T10:08:07Z</time>
      </trkpt>
      <trkpt lat="38.1275830" lon="-3.5843780">
        <ele>330.6</ele>
        <time>2018-06-16T10:08:08Z</time>
      </trkpt>
      <trkpt lat="38.1275610" lon="-3.5844250">
        <ele>330.6</ele>
        <time>2018-06-16T10:08:09Z</time>
      </trkpt>
      <trkpt lat="38.1275390" lon="-3.5844730">
        <ele>330.4</ele>
        <time>2018-06-16T10:08:10Z</time>
      </trkpt>
      <trkpt lat="38.1275190" lon="-3.5845200">
        <ele>330.8</ele>
        <time>2018-06-16T10:08:11Z</time>
      </trkpt>
      <trkpt lat="38.1274980" lon="-3.5845690">
        <ele>331.0</ele>
        <time>2018-06-16T10:08:12Z</time>
      </trkpt>
      <trkpt lat="38.1274760" lon="-3.5846180">
        <ele>331.0</ele>
        <time>2018-06-16T10:08:13Z</time>
      </trkpt>
      <trkpt lat="38.1274560" lon="-3.5846680">
        <ele>331.0</ele>
        <time>2018-06-16T10:08:14Z</time>
      </trkpt>
      <trkpt lat="38.1274350" lon="-3.5847180">
        <ele>331.2</ele>
        <time>2018-06-16T10:08:15Z</time>
      </trkpt>
      <trkpt lat="38.1274140" lon="-3.5847690">
        <ele>331.0</ele>
        <time>2018-06-16T10:08:16Z</time>
      </trkpt>
      <trkpt lat="38.1273920" lon="-3.5848200">
        <ele>331.2</ele>
        <time>2018-06-16T10:08:17Z</time>
      </trkpt>
      <trkpt lat="38.1273700" lon="-3.5848720">
        <ele>331.2</ele>
        <time>2018-06-16T10:08:18Z</time>
      </trkpt>
      <trkpt lat="38.1273480" lon="-3.5849250">
        <ele>331.2</ele>
        <time>2018-06-16T10:08:19Z</time>
      </trkpt>
      <trkpt lat="38.1273270" lon="-3.5849790">
        <ele>331.4</ele>
        <time>2018-06-16T10:08:20Z</time>
      </trkpt>
      <trkpt lat="38.1273060" lon="-3.5850320">
        <ele>331.2</ele>
        <time>2018-06-16T10:08:21Z</time>
      </trkpt>
      <trkpt lat="38.1272850" lon="-3.5850860">
        <ele>331.2</ele>
        <time>2018-06-16T10:08:22Z</time>
      </trkpt>
      <trkpt lat="38.1272660" lon="-3.5851400">
        <ele>331.2</ele>
        <time>2018-06-16T10:08:23Z</time>
      </trkpt>
      <trkpt lat="38.1272460" lon="-3.5851950">
        <ele>331.4</ele>
        <time>2018-06-16T10:08:24Z</time>
      </trkpt>
      <trkpt lat="38.1272260" lon="-3.5852510">
        <ele>331.0</ele>
        <time>2018-06-16T10:08:25Z</time>
      </trkpt>
      <trkpt lat="38.1272080" lon="-3.5853070">
        <ele>331.0</ele>
        <time>2018-06-16T10:08:26Z</time>
      </trkpt>
      <trkpt lat="38.1271900" lon="-3.5853640">
        <ele>331.4</ele>
        <time>2018-06-16T10:08:27Z</time>
      </trkpt>
      <trkpt lat="38.1271710" lon="-3.5854210">
        <ele>331.4</ele>
        <time>2018-06-16T10:08:28Z</time>
      </trkpt>
      <trkpt lat="38.1271520" lon="-3.5854760">
        <ele>331.2</ele>
        <time>2018-06-16T10:08:29Z</time>
      </trkpt>
      <trkpt lat="38.1271350" lon="-3.5855310">
        <ele>331.2</ele>
        <time>2018-06-16T10:08:30Z</time>
      </trkpt>
      <trkpt lat="38.1271190" lon="-3.5855870">
        <ele>331.2</ele>
        <time>2018-06-16T10:08:31Z</time>
      </trkpt>
      <trkpt lat="38.1271030" lon="-3.5856430">
        <ele>331.4</ele>
        <time>2018-06-16T10:08:32Z</time>
      </trkpt>
      <trkpt lat="38.1270860" lon="-3.5857000">
        <ele>331.4</ele>
        <time>2018-06-16T10:08:33Z</time>
      </trkpt>
      <trkpt lat="38.1270690" lon="-3.5857550">
        <ele>331.4</ele>
        <time>2018-06-16T10:08:34Z</time>
      </trkpt>
      <trkpt lat="38.1270520" lon="-3.5858110">
        <ele>331.4</ele>
        <time>2018-06-16T10:08:35Z</time>
      </trkpt>
      <trkpt lat="38.1270350" lon="-3.5858680">
        <ele>331.4</ele>
        <time>2018-06-16T10:08:36Z</time>
      </trkpt>
      <trkpt lat="38.1270190" lon="-3.5859260">
        <ele>331.6</ele>
        <time>2018-06-16T10:08:37Z</time>
      </trkpt>
      <trkpt lat="38.1270030" lon="-3.5859840">
        <ele>331.6</ele>
        <time>2018-06-16T10:08:38Z</time>
      </trkpt>
      <trkpt lat="38.1269890" lon="-3.5860410">
        <ele>331.4</ele>
        <time>2018-06-16T10:08:39Z</time>
      </trkpt>
      <trkpt lat="38.1269720" lon="-3.5860980">
        <ele>331.6</ele>
        <time>2018-06-16T10:08:40Z</time>
      </trkpt>
      <trkpt lat="38.1269560" lon="-3.5861570">
        <ele>331.8</ele>
        <time>2018-06-16T10:08:41Z</time>
      </trkpt>
      <trkpt lat="38.1269410" lon="-3.5862140">
        <ele>332.0</ele>
        <time>2018-06-16T10:08:42Z</time>
      </trkpt>
      <trkpt lat="38.1269270" lon="-3.5862700">
        <ele>332.0</ele>
        <time>2018-06-16T10:08:43Z</time>
      </trkpt>
      <trkpt lat="38.1269120" lon="-3.5863260">
        <ele>332.0</ele>
        <time>2018-06-16T10:08:44Z</time>
      </trkpt>
      <trkpt lat="38.1268970" lon="-3.5863800">
        <ele>332.2</ele>
        <time>2018-06-16T10:08:45Z</time>
      </trkpt>
      <trkpt lat="38.1268820" lon="-3.5864350">
        <ele>332.2</ele>
        <time>2018-06-16T10:08:46Z</time>
      </trkpt>
      <trkpt lat="38.1268670" lon="-3.5864880">
        <ele>332.4</ele>
        <time>2018-06-16T10:08:47Z</time>
      </trkpt>
      <trkpt lat="38.1268520" lon="-3.5865420">
        <ele>332.4</ele>
        <time>2018-06-16T10:08:48Z</time>
      </trkpt>
      <trkpt lat="38.1268360" lon="-3.5865960">
        <ele>332.4</ele>
        <time>2018-06-16T10:08:49Z</time>
      </trkpt>
      <trkpt lat="38.1268220" lon="-3.5866510">
        <ele>332.4</ele>
        <time>2018-06-16T10:08:50Z</time>
      </trkpt>
      <trkpt lat="38.1268070" lon="-3.5867050">
        <ele>332.6</ele>
        <time>2018-06-16T10:08:51Z</time>
      </trkpt>
      <trkpt lat="38.1267910" lon="-3.5867590">
        <ele>332.6</ele>
        <time>2018-06-16T10:08:52Z</time>
      </trkpt>
      <trkpt lat="38.1267750" lon="-3.5868130">
        <ele>332.6</ele>
        <time>2018-06-16T10:08:53Z</time>
      </trkpt>
      <trkpt lat="38.1267600" lon="-3.5868660">
        <ele>332.8</ele>
        <time>2018-06-16T10:08:54Z</time>
      </trkpt>
      <trkpt lat="38.1267440" lon="-3.5869180">
        <ele>332.8</ele>
        <time>2018-06-16T10:08:55Z</time>
      </trkpt>
      <trkpt lat="38.1267290" lon="-3.5869690">
        <ele>332.8</ele>
        <time>2018-06-16T10:08:56Z</time>
      </trkpt>
      <trkpt lat="38.1267130" lon="-3.5870200">
        <ele>332.8</ele>
        <time>2018-06-16T10:08:57Z</time>
      </trkpt>
      <trkpt lat="38.1266960" lon="-3.5870700">
        <ele>333.0</ele>
        <time>2018-06-16T10:08:58Z</time>
      </trkpt>
      <trkpt lat="38.1266810" lon="-3.5871210">
        <ele>332.8</ele>
        <time>2018-06-16T10:08:59Z</time>
      </trkpt>
      <trkpt lat="38.1266660" lon="-3.5871700">
        <ele>332.8</ele>
        <time>2018-06-16T10:09:00Z</time>
      </trkpt>
      <trkpt lat="38.1266510" lon="-3.5872190">
        <ele>333.4</ele>
        <time>2018-06-16T10:09:01Z</time>
      </trkpt>
      <trkpt lat="38.1266350" lon="-3.5872670">
        <ele>333.2</ele>
        <time>2018-06-16T10:09:02Z</time>
      </trkpt>
      <trkpt lat="38.1266200" lon="-3.5873150">
        <ele>333.2</ele>
        <time>2018-06-16T10:09:03Z</time>
      </trkpt>
      <trkpt lat="38.1266030" lon="-3.5873620">
        <ele>333.6</ele>
        <time>2018-06-16T10:09:04Z</time>
      </trkpt>
      <trkpt lat="38.1265860" lon="-3.5874090">
        <ele>333.8</ele>
        <time>2018-06-16T10:09:05Z</time>
      </trkpt>
      <trkpt lat="38.1265710" lon="-3.5874560">
        <ele>333.4</ele>
        <time>2018-06-16T10:09:06Z</time>
      </trkpt>
      <trkpt lat="38.1265550" lon="-3.5875050">
        <ele>333.6</ele>
        <time>2018-06-16T10:09:07Z</time>
      </trkpt>
      <trkpt lat="38.1265360" lon="-3.5875540">
        <ele>333.8</ele>
        <time>2018-06-16T10:09:08Z</time>
      </trkpt>
      <trkpt lat="38.1265190" lon="-3.5876030">
        <ele>334.0</ele>
        <time>2018-06-16T10:09:09Z</time>
      </trkpt>
      <trkpt lat="38.1265050" lon="-3.5876490">
        <ele>334.0</ele>
        <time>2018-06-16T10:09:10Z</time>
      </trkpt>
      <trkpt lat="38.1264890" lon="-3.5876940">
        <ele>334.2</ele>
        <time>2018-06-16T10:09:11Z</time>
      </trkpt>
      <trkpt lat="38.1264740" lon="-3.5877380">
        <ele>334.4</ele>
        <time>2018-06-16T10:09:12Z</time>
      </trkpt>
      <trkpt lat="38.1264610" lon="-3.5877840">
        <ele>334.4</ele>
        <time>2018-06-16T10:09:13Z</time>
      </trkpt>
      <trkpt lat="38.1264430" lon="-3.5878290">
        <ele>334.6</ele>
        <time>2018-06-16T10:09:14Z</time>
      </trkpt>
      <trkpt lat="38.1264270" lon="-3.5878730">
        <ele>334.8</ele>
        <time>2018-06-16T10:09:15Z</time>
      </trkpt>
      <trkpt lat="38.1264100" lon="-3.5879180">
        <ele>334.8</ele>
        <time>2018-06-16T10:09:16Z</time>
      </trkpt>
      <trkpt lat="38.1263940" lon="-3.5879630">
        <ele>334.8</ele>
        <time>2018-06-16T10:09:17Z</time>
      </trkpt>
      <trkpt lat="38.1263780" lon="-3.5880080">
        <ele>335.0</ele>
        <time>2018-06-16T10:09:18Z</time>
      </trkpt>
      <trkpt lat="38.1263610" lon="-3.5880530">
        <ele>335.2</ele>
        <time>2018-06-16T10:09:19Z</time>
      </trkpt>
      <trkpt lat="38.1263450" lon="-3.5880990">
        <ele>335.2</ele>
        <time>2018-06-16T10:09:20Z</time>
      </trkpt>
      <trkpt lat="38.1263270" lon="-3.5881440">
        <ele>335.4</ele>
        <time>2018-06-16T10:09:21Z</time>
      </trkpt>
      <trkpt lat="38.1263080" lon="-3.5881880">
        <ele>335.4</ele>
        <time>2018-06-16T10:09:22Z</time>
      </trkpt>
      <trkpt lat="38.1262900" lon="-3.5882320">
        <ele>335.6</ele>
        <time>2018-06-16T10:09:23Z</time>
      </trkpt>
      <trkpt lat="38.1262720" lon="-3.5882770">
        <ele>335.6</ele>
        <time>2018-06-16T10:09:24Z</time>
      </trkpt>
      <trkpt lat="38.1262540" lon="-3.5883220">
        <ele>335.8</ele>
        <time>2018-06-16T10:09:25Z</time>
      </trkpt>
      <trkpt lat="38.1262370" lon="-3.5883650">
        <ele>336.0</ele>
        <time>2018-06-16T10:09:26Z</time>
      </trkpt>
      <trkpt lat="38.1262210" lon="-3.5884070">
        <ele>336.2</ele>
        <time>2018-06-16T10:09:27Z</time>
      </trkpt>
      <trkpt lat="38.1262060" lon="-3.5884490">
        <ele>336.4</ele>
        <time>2018-06-16T10:09:28Z</time>
      </trkpt>
      <trkpt lat="38.1261900" lon="-3.5884930">
        <ele>336.6</ele>
        <time>2018-06-16T10:09:29Z</time>
      </trkpt>
      <trkpt lat="38.1261720" lon="-3.5885370">
        <ele>336.6</ele>
        <time>2018-06-16T10:09:30Z</time>
      </trkpt>
      <trkpt lat="38.1261500" lon="-3.5885790">
        <ele>336.8</ele>
        <time>2018-06-16T10:09:31Z</time>
      </trkpt>
      <trkpt lat="38.1261300" lon="-3.5886180">
        <ele>337.0</ele>
        <time>2018-06-16T10:09:32Z</time>
      </trkpt>
      <trkpt lat="38.1261100" lon="-3.5886580">
        <ele>337.2</ele>
        <time>2018-06-16T10:09:33Z</time>
      </trkpt>
      <trkpt lat="38.1260900" lon="-3.5886990">
        <ele>337.4</ele>
        <time>2018-06-16T10:09:34Z</time>
      </trkpt>
      <trkpt lat="38.1260720" lon="-3.5887420">
        <ele>337.4</ele>
        <time>2018-06-16T10:09:35Z</time>
      </trkpt>
      <trkpt lat="38.1260540" lon="-3.5887870">
        <ele>337.6</ele>
        <time>2018-06-16T10:09:36Z</time>
      </trkpt>
      <trkpt lat="38.1260400" lon="-3.5888280">
        <ele>337.8</ele>
        <time>2018-06-16T10:09:37Z</time>
      </trkpt>
      <trkpt lat="38.1260230" lon="-3.5888700">
        <ele>338.0</ele>
        <time>2018-06-16T10:09:38Z</time>
      </trkpt>
      <trkpt lat="38.1260070" lon="-3.5889100">
        <ele>338.2</ele>
        <time>2018-06-16T10:09:39Z</time>
      </trkpt>
      <trkpt lat="38.1259910" lon="-3.5889480">
        <ele>338.4</ele>
        <time>2018-06-16T10:09:40Z</time>
      </trkpt>
      <trkpt lat="38.1259740" lon="-3.5889850">
        <ele>338.6</ele>
        <time>2018-06-16T10:09:41Z</time>
      </trkpt>
      <trkpt lat="38.1259600" lon="-3.5890210">
        <ele>338.8</ele>
        <time>2018-06-16T10:09:42Z</time>
      </trkpt>
      <trkpt lat="38.1259450" lon="-3.5890540">
        <ele>339.0</ele>
        <time>2018-06-16T10:09:43Z</time>
      </trkpt>
      <trkpt lat="38.1259310" lon="-3.5890870">
        <ele>339.0</ele>
        <time>2018-06-16T10:09:44Z</time>
      </trkpt>
      <trkpt lat="38.1259180" lon="-3.5891180">
        <ele>339.2</ele>
        <time>2018-06-16T10:09:45Z</time>
      </trkpt>
      <trkpt lat="38.1259050" lon="-3.5891510">
        <ele>339.2</ele>
        <time>2018-06-16T10:09:46Z</time>
      </trkpt>
      <trkpt lat="38.1258920" lon="-3.5891830">
        <ele>339.4</ele>
        <time>2018-06-16T10:09:47Z</time>
      </trkpt>
      <trkpt lat="38.1258790" lon="-3.5892150">
        <ele>339.6</ele>
        <time>2018-06-16T10:09:48Z</time>
      </trkpt>
      <trkpt lat="38.1258660" lon="-3.5892460">
        <ele>339.6</ele>
        <time>2018-06-16T10:09:49Z</time>
      </trkpt>
      <trkpt lat="38.1258530" lon="-3.5892760">
        <ele>339.8</ele>
        <time>2018-06-16T10:09:50Z</time>
      </trkpt>
      <trkpt lat="38.1258420" lon="-3.5893070">
        <ele>340.0</ele>
        <time>2018-06-16T10:09:51Z</time>
      </trkpt>
      <trkpt lat="38.1258270" lon="-3.5893380">
        <ele>340.0</ele>
        <time>2018-06-16T10:09:52Z</time>
      </trkpt>
      <trkpt lat="38.1258150" lon="-3.5893680">
        <ele>339.8</ele>
        <time>2018-06-16T10:09:53Z</time>
      </trkpt>
      <trkpt lat="38.1258050" lon="-3.5893950">
        <ele>340.2</ele>
        <time>2018-06-16T10:09:54Z</time>
      </trkpt>
      <trkpt lat="38.1257960" lon="-3.5894220">
        <ele>340.4</ele>
        <time>2018-06-16T10:09:55Z</time>
      </trkpt>
      <trkpt lat="38.1257870" lon="-3.5894490">
        <ele>340.8</ele>
        <time>2018-06-16T10:09:56Z</time>
      </trkpt>
      <trkpt lat="38.1257770" lon="-3.5894750">
        <ele>340.8</ele>
        <time>2018-06-16T10:09:57Z</time>
      </trkpt>
      <trkpt lat="38.1257660" lon="-3.5895000">
        <ele>341.2</ele>
        <time>2018-06-16T10:09:58Z</time>
      </trkpt>
      <trkpt lat="38.1257550" lon="-3.5895240">
        <ele>341.2</ele>
        <time>2018-06-16T10:09:59Z</time>
      </trkpt>
      <trkpt lat="38.1257450" lon="-3.5895490">
        <ele>341.2</ele>
        <time>2018-06-16T10:10:00Z</time>
      </trkpt>
      <trkpt lat="38.1257340" lon="-3.5895750">
        <ele>341.4</ele>
        <time>2018-06-16T10:10:01Z</time>
      </trkpt>
      <trkpt lat="38.1257240" lon="-3.5896010">
        <ele>341.4</ele>
        <time>2018-06-16T10:10:02Z</time>
      </trkpt>
      <trkpt lat="38.1257140" lon="-3.5896260">
        <ele>341.6</ele>
        <time>2018-06-16T10:10:03Z</time>
      </trkpt>
      <trkpt lat="38.1257030" lon="-3.5896500">
        <ele>341.8</ele>
        <time>2018-06-16T10:10:04Z</time>
      </trkpt>
      <trkpt lat="38.1256920" lon="-3.5896740">
        <ele>342.0</ele>
        <time>2018-06-16T10:10:05Z</time>
      </trkpt>
      <trkpt lat="38.1256810" lon="-3.5896990">
        <ele>342.0</ele>
        <time>2018-06-16T10:10:06Z</time>
      </trkpt>
      <trkpt lat="38.1256700" lon="-3.5897230">
        <ele>342.2</ele>
        <time>2018-06-16T10:10:07Z</time>
      </trkpt>
      <trkpt lat="38.1256590" lon="-3.5897480">
        <ele>342.2</ele>
        <time>2018-06-16T10:10:08Z</time>
      </trkpt>
      <trkpt lat="38.1256490" lon="-3.5897730">
        <ele>342.4</ele>
        <time>2018-06-16T10:10:09Z</time>
      </trkpt>
      <trkpt lat="38.1256370" lon="-3.5897970">
        <ele>342.6</ele>
        <time>2018-06-16T10:10:10Z</time>
      </trkpt>
      <trkpt lat="38.1256270" lon="-3.5898220">
        <ele>342.6</ele>
        <time>2018-06-16T10:10:11Z</time>
      </trkpt>
      <trkpt lat="38.1256150" lon="-3.5898460">
        <ele>342.6</ele>
        <time>2018-06-16T10:10:12Z</time>
      </trkpt>
      <trkpt lat="38.1256050" lon="-3.5898680">
        <ele>342.8</ele>
        <time>2018-06-16T10:10:13Z</time>
      </trkpt>
      <trkpt lat="38.1255970" lon="-3.5898860">
        <ele>342.8</ele>
        <time>2018-06-16T10:10:14Z</time>
      </trkpt>
      <trkpt lat="38.1255930" lon="-3.5898940">
        <ele>343.0</ele>
        <time>2018-06-16T10:10:15Z</time>
      </trkpt>
      <trkpt lat="38.1255910" lon="-3.5899010">
        <ele>343.2</ele>
        <time>2018-06-16T10:10:16Z</time>
      </trkpt>
      <trkpt lat="38.1255880" lon="-3.5899060">
        <ele>343.2</ele>
        <time>2018-06-16T10:10:17Z</time>
      </trkpt>
      <trkpt lat="38.1255870" lon="-3.5899080">
        <ele>343.2</ele>
        <time>2018-06-16T10:10:18Z</time>
      </trkpt>
      <trkpt lat="38.1255890" lon="-3.5899120">
        <ele>343.2</ele>
        <time>2018-06-16T10:10:19Z</time>
      </trkpt>
      <trkpt lat="38.1255870" lon="-3.5899160">
        <ele>343.2</ele>
        <time>2018-06-16T10:10:20Z</time>
      </trkpt>
      <trkpt lat="38.1255880" lon="-3.5899150">
        <ele>343.2</ele>
        <time>2018-06-16T10:10:21Z</time>
      </trkpt>
      <trkpt lat="38.1255870" lon="-3.5899180">
        <ele>332.4</ele>
        <time>2018-06-16T10:10:22Z</time>
      </trkpt>
      <trkpt lat="38.1255900" lon="-3.5899150">
        <ele>342.4</ele>
        <time>2018-06-16T10:10:23Z</time>
      </trkpt>
      <trkpt lat="38.1255820" lon="-3.5899120">
        <ele>343.2</ele>
        <time>2018-06-16T10:10:24Z</time>
      </trkpt>
      <trkpt lat="38.1255800" lon="-3.5899100">
        <ele>340.6</ele>
        <time>2018-06-16T10:10:25Z</time>
      </trkpt>
      <trkpt lat="38.1255820" lon="-3.5899080">
        <ele>346.6</ele>
        <time>2018-06-16T10:10:26Z</time>
      </trkpt>
      <trkpt lat="38.1255810" lon="-3.5899170">
        <ele>343.4</ele>
        <time>2018-06-16T10:10:27Z</time>
      </trkpt>
      <trkpt lat="38.1255780" lon="-3.5899390">
        <ele>343.4</ele>
        <time>2018-06-16T10:10:28Z</time>
      </trkpt>
      <trkpt lat="38.1250140" lon="-3.5912410">
        <ele>349.4</ele>
        <time>2018-06-16T10:14:58Z</time>
      </trkpt>
      <trkpt lat="38.1250170" lon="-3.5912550">
        <ele>354.2</ele>
        <time>2018-06-16T10:14:59Z</time>
      </trkpt>
      <trkpt lat="38.1250000" lon="-3.5912670">
        <ele>349.6</ele>
        <time>2018-06-16T10:15:00Z</time>
      </trkpt>
      <trkpt lat="38.1249840" lon="-3.5912860">
        <ele>349.6</ele>
        <time>2018-06-16T10:15:01Z</time>
      </trkpt>
      <trkpt lat="38.1249860" lon="-3.5913070">
        <ele>349.4</ele>
        <time>2018-06-16T10:15:02Z</time>
      </trkpt>
      <trkpt lat="38.1249770" lon="-3.5913180">
        <ele>349.6</ele>
        <time>2018-06-16T10:15:03Z</time>
      </trkpt>
      <trkpt lat="38.1249920" lon="-3.5913300">
        <ele>349.8</ele>
        <time>2018-06-16T10:15:04Z</time>
      </trkpt>
      <trkpt lat="38.1249870" lon="-3.5913370">
        <ele>349.8</ele>
        <time>2018-06-16T10:15:05Z</time>
      </trkpt>
      <trkpt lat="38.1249950" lon="-3.5913390">
        <ele>349.8</ele>
        <time>2018-06-16T10:15:06Z</time>
      </trkpt>
      <trkpt lat="38.1249780" lon="-3.5913550">
        <ele>349.8</ele>
        <time>2018-06-16T10:15:07Z</time>
      </trkpt>
      <trkpt lat="38.1249750" lon="-3.5913700">
        <ele>350.0</ele>
        <time>2018-06-16T10:15:08Z</time>
      </trkpt>
      <trkpt lat="38.1249740" lon="-3.5913930">
        <ele>350.0</ele>
        <time>2018-06-16T10:15:09Z</time>
      </trkpt>
      <trkpt lat="38.1249570" lon="-3.5914040">
        <ele>350.2</ele>
        <time>2018-06-16T10:15:10Z</time>
      </trkpt>
      <trkpt lat="38.1249630" lon="-3.5914200">
        <ele>350.2</ele>
        <time>2018-06-16T10:15:11Z</time>
      </trkpt>
      <trkpt lat="38.1249510" lon="-3.5914430">
        <ele>350.2</ele>
        <time>2018-06-16T10:15:12Z</time>
      </trkpt>
      <trkpt lat="38.1249410" lon="-3.5914500">
        <ele>350.4</ele>
        <time>2018-06-16T10:15:13Z</time>
      </trkpt>
      <trkpt lat="38.1249460" lon="-3.5914590">
        <ele>350.4</ele>
        <time>2018-06-16T10:15:14Z</time>
      </trkpt>
      <trkpt lat="38.1249350" lon="-3.5914630">
        <ele>350.6</ele>
        <time>2018-06-16T10:15:15Z</time>
      </trkpt>
      <trkpt lat="38.1249380" lon="-3.5914820">
        <ele>350.6</ele>
        <time>2018-06-16T10:15:16Z</time>
      </trkpt>
      <trkpt lat="38.1249200" lon="-3.5914970">
        <ele>350.6</ele>
        <time>2018-06-16T10:15:17Z</time>
      </trkpt>
      <trkpt lat="38.1249210" lon="-3.5915110">
        <ele>350.6</ele>
        <time>2018-06-16T10:15:18Z</time>
      </trkpt>
      <trkpt lat="38.1249190" lon="-3.5915230">
        <ele>350.6</ele>
        <time>2018-06-16T10:15:19Z</time>
      </trkpt>
      <trkpt lat="38.1249140" lon="-3.5915470">
        <ele>351.0</ele>
        <time>2018-06-16T10:15:20Z</time>
      </trkpt>
      <trkpt lat="38.1249180" lon="-3.5915570">
        <ele>350.8</ele>
        <time>2018-06-16T10:15:21Z</time>
      </trkpt>
      <trkpt lat="38.1249060" lon="-3.5915630">
        <ele>350.8</ele>
        <time>2018-06-16T10:15:22Z</time>
      </trkpt>
      <trkpt lat="38.1248950" lon="-3.5915790">
        <ele>350.8</ele>
        <time>2018-06-16T10:15:23Z</time>
      </trkpt>
      <trkpt lat="38.1248880" lon="-3.5915930">
        <ele>351.0</ele>
        <time>2018-06-16T10:15:24Z</time>
      </trkpt>
      <trkpt lat="38.1248690" lon="-3.5916080">
        <ele>351.2</ele>
        <time>2018-06-16T10:15:25Z</time>
      </trkpt>
      <trkpt lat="38.1248560" lon="-3.5916190">
        <ele>351.2</ele>
        <time>2018-06-16T10:15:26Z</time>
      </trkpt>
      <trkpt lat="38.1248570" lon="-3.5916350">
        <ele>351.2</ele>
        <time>2018-06-16T10:15:27Z</time>
      </trkpt>
      <trkpt lat="38.1248500" lon="-3.5916570">
        <ele>351.4</ele>
        <time>2018-06-16T10:15:28Z</time>
      </trkpt>
      <trkpt lat="38.1248390" lon="-3.5916640">
        <ele>351.4</ele>
        <time>2018-06-16T10:15:29Z</time>
      </trkpt>
      <trkpt lat="38.1248290" lon="-3.5916820">
        <ele>351.4</ele>
        <time>2018-06-16T10:15:30Z</time>
      </trkpt>
      <trkpt lat="38.1248360" lon="-3.5916960">
        <ele>351.6</ele>
        <time>2018-06-16T10:15:31Z</time>
      </trkpt>
      <trkpt lat="38.1248240" lon="-3.5917060">
        <ele>351.6</ele>
        <time>2018-06-16T10:15:32Z</time>
      </trkpt>
      <trkpt lat="38.1248160" lon="-3.5917190">
        <ele>351.8</ele>
        <time>2018-06-16T10:15:33Z</time>
      </trkpt>
      <trkpt lat="38.1248310" lon="-3.5917270">
        <ele>351.8</ele>
        <time>2018-06-16T10:15:34Z</time>
      </trkpt>
      <trkpt lat="38.1248230" lon="-3.5917300">
        <ele>352.0</ele>
        <time>2018-06-16T10:15:35Z</time>
      </trkpt>
      <trkpt lat="38.1248130" lon="-3.5917410">
        <ele>352.0</ele>
        <time>2018-06-16T10:15:36Z</time>
      </trkpt>
      <trkpt lat="38.1247930" lon="-3.5917630">
        <ele>352.0</ele>
        <time>2018-06-16T10:15:37Z</time>
      </trkpt>
      <trkpt lat="38.1247810" lon="-3.5917720">
        <ele>352.2</ele>
        <time>2018-06-16T10:15:38Z</time>
      </trkpt>
      <trkpt lat="38.1247700" lon="-3.5917840">
        <ele>352.2</ele>
        <time>2018-06-16T10:15:39Z</time>
      </trkpt>
      <trkpt lat="38.1247590" lon="-3.5918030">
        <ele>352.4</ele>
        <time>2018-06-16T10:15:40Z</time>
      </trkpt>
      <trkpt lat="38.1247540" lon="-3.5918160">
        <ele>352.4</ele>
        <time>2018-06-16T10:15:41Z</time>
      </trkpt>
      <trkpt lat="38.1247610" lon="-3.5918290">
        <ele>352.6</ele>
        <time>2018-06-16T10:15:42Z</time>
      </trkpt>
      <trkpt lat="38.1247560" lon="-3.5918410">
        <ele>352.4</ele>
        <time>2018-06-16T10:15:43Z</time>
      </trkpt>
      <trkpt lat="38.1247530" lon="-3.5918610">
        <ele>352.6</ele>
        <time>2018-06-16T10:15:44Z</time>
      </trkpt>
      <trkpt lat="38.1247400" lon="-3.5918690">
        <ele>352.6</ele>
        <time>2018-06-16T10:15:45Z</time>
      </trkpt>
      <trkpt lat="38.1247380" lon="-3.5918810">
        <ele>352.6</ele>
        <time>2018-06-16T10:15:46Z</time>
      </trkpt>
      <trkpt lat="38.1247240" lon="-3.5919020">
        <ele>352.8</ele>
        <time>2018-06-16T10:15:47Z</time>
      </trkpt>
      <trkpt lat="38.1247380" lon="-3.5919290">
        <ele>352.8</ele>
        <time>2018-06-16T10:15:48Z</time>
      </trkpt>
      <trkpt lat="38.1247480" lon="-3.5919400">
        <ele>352.4</ele>
        <time>2018-06-16T10:15:49Z</time>
      </trkpt>
      <trkpt lat="38.1247310" lon="-3.5919500">
        <ele>352.8</ele>
        <time>2018-06-16T10:15:50Z</time>
      </trkpt>
      <trkpt lat="38.1247280" lon="-3.5919670">
        <ele>353.0</ele>
        <time>2018-06-16T10:15:51Z</time>
      </trkpt>
      <trkpt lat="38.1247300" lon="-3.5919910">
        <ele>353.0</ele>
        <time>2018-06-16T10:15:52Z</time>
      </trkpt>
      <trkpt lat="38.1247250" lon="-3.5920120">
        <ele>353.2</ele>
        <time>2018-06-16T10:15:53Z</time>
      </trkpt>
      <trkpt lat="38.1247190" lon="-3.5920230">
        <ele>353.2</ele>
        <time>2018-06-16T10:15:54Z</time>
      </trkpt>
      <trkpt lat="38.1247160" lon="-3.5920380">
        <ele>353.2</ele>
        <time>2018-06-16T10:15:55Z</time>
      </trkpt>
      <trkpt lat="38.1246960" lon="-3.5920480">
        <ele>353.4</ele>
        <time>2018-06-16T10:15:56Z</time>
      </trkpt>
      <trkpt lat="38.1246810" lon="-3.5920600">
        <ele>353.6</ele>
        <time>2018-06-16T10:15:57Z</time>
      </trkpt>
      <trkpt lat="38.1246750" lon="-3.5920780">
        <ele>353.6</ele>
        <time>2018-06-16T10:15:58Z</time>
      </trkpt>
      <trkpt lat="38.1246670" lon="-3.5920950">
        <ele>353.8</ele>
        <time>2018-06-16T10:15:59Z</time>
      </trkpt>
      <trkpt lat="38.1246550" lon="-3.5921040">
        <ele>353.8</ele>
        <time>2018-06-16T10:16:00Z</time>
      </trkpt>
      <trkpt lat="38.1246410" lon="-3.5921160">
        <ele>353.8</ele>
        <time>2018-06-16T10:16:01Z</time>
      </trkpt>
      <trkpt lat="38.1246350" lon="-3.5921250">
        <ele>353.8</ele>
        <time>2018-06-16T10:16:02Z</time>
      </trkpt>
      <trkpt lat="38.1246180" lon="-3.5921310">
        <ele>353.8</ele>
        <time>2018-06-16T10:16:03Z</time>
      </trkpt>
      <trkpt lat="38.1246250" lon="-3.5921440">
        <ele>354.0</ele>
        <time>2018-06-16T10:16:04Z</time>
      </trkpt>
      <trkpt lat="38.1246210" lon="-3.5921580">
        <ele>354.0</ele>
        <time>2018-06-16T10:16:05Z</time>
      </trkpt>
      <trkpt lat="38.1246110" lon="-3.5921740">
        <ele>354.2</ele>
        <time>2018-06-16T10:16:06Z</time>
      </trkpt>
      <trkpt lat="38.1246100" lon="-3.5921930">
        <ele>354.2</ele>
        <time>2018-06-16T10:16:07Z</time>
      </trkpt>
      <trkpt lat="38.1246130" lon="-3.5922170">
        <ele>354.2</ele>
        <time>2018-06-16T10:16:08Z</time>
      </trkpt>
      <trkpt lat="38.1246120" lon="-3.5922320">
        <ele>354.4</ele>
        <time>2018-06-16T10:16:09Z</time>
      </trkpt>
      <trkpt lat="38.1246180" lon="-3.5922550">
        <ele>354.4</ele>
        <time>2018-06-16T10:16:10Z</time>
      </trkpt>
      <trkpt lat="38.1246100" lon="-3.5922730">
        <ele>354.6</ele>
        <time>2018-06-16T10:16:11Z</time>
      </trkpt>
      <trkpt lat="38.1246160" lon="-3.5922920">
        <ele>354.6</ele>
        <time>2018-06-16T10:16:12Z</time>
      </trkpt>
      <trkpt lat="38.1246100" lon="-3.5923030">
        <ele>354.6</ele>
        <time>2018-06-16T10:16:13Z</time>
      </trkpt>
      <trkpt lat="38.1245850" lon="-3.5923090">
        <ele>354.6</ele>
        <time>2018-06-16T10:16:14Z</time>
      </trkpt>
      <trkpt lat="38.1245770" lon="-3.5923210">
        <ele>354.8</ele>
        <time>2018-06-16T10:16:15Z</time>
      </trkpt>
      <trkpt lat="38.1245680" lon="-3.5923340">
        <ele>354.8</ele>
        <time>2018-06-16T10:16:16Z</time>
      </trkpt>
      <trkpt lat="38.1245660" lon="-3.5923530">
        <ele>355.0</ele>
        <time>2018-06-16T10:16:17Z</time>
      </trkpt>
      <trkpt lat="38.1245620" lon="-3.5923580">
        <ele>355.0</ele>
        <time>2018-06-16T10:16:18Z</time>
      </trkpt>
      <trkpt lat="38.1245540" lon="-3.5923750">
        <ele>355.0</ele>
        <time>2018-06-16T10:16:19Z</time>
      </trkpt>
      <trkpt lat="38.1245450" lon="-3.5923860">
        <ele>355.2</ele>
        <time>2018-06-16T10:16:20Z</time>
      </trkpt>
      <trkpt lat="38.1245380" lon="-3.5923980">
        <ele>355.2</ele>
        <time>2018-06-16T10:16:21Z</time>
      </trkpt>
      <trkpt lat="38.1245330" lon="-3.5924150">
        <ele>355.2</ele>
        <time>2018-06-16T10:16:22Z</time>
      </trkpt>
      <trkpt lat="38.1245200" lon="-3.5924230">
        <ele>355.4</ele>
        <time>2018-06-16T10:16:23Z</time>
      </trkpt>
      <trkpt lat="38.1245090" lon="-3.5924400">
        <ele>355.4</ele>
        <time>2018-06-16T10:16:24Z</time>
      </trkpt>
      <trkpt lat="38.1244960" lon="-3.5924540">
        <ele>355.4</ele>
        <time>2018-06-16T10:16:25Z</time>
      </trkpt>
      <trkpt lat="38.1244920" lon="-3.5924700">
        <ele>355.4</ele>
        <time>2018-06-16T10:16:26Z</time>
      </trkpt>
      <trkpt lat="38.1244900" lon="-3.5924900">
        <ele>355.4</ele>
        <time>2018-06-16T10:16:27Z</time>
      </trkpt>
      <trkpt lat="38.1244840" lon="-3.5924990">
        <ele>355.4</ele>
        <time>2018-06-16T10:16:28Z</time>
      </trkpt>
      <trkpt lat="38.1244800" lon="-3.5925120">
        <ele>355.6</ele>
        <time>2018-06-16T10:16:29Z</time>
      </trkpt>
      <trkpt lat="38.1244670" lon="-3.5925210">
        <ele>355.6</ele>
        <time>2018-06-16T10:16:30Z</time>
      </trkpt>
      <trkpt lat="38.1244720" lon="-3.5925380">
        <ele>355.8</ele>
        <time>2018-06-16T10:16:31Z</time>
      </trkpt>
      <trkpt lat="38.1244670" lon="-3.5925650">
        <ele>355.8</ele>
        <time>2018-06-16T10:16:32Z</time>
      </trkpt>
      <trkpt lat="38.1244610" lon="-3.5925840">
        <ele>355.8</ele>
        <time>2018-06-16T10:16:33Z</time>
      </trkpt>
      <trkpt lat="38.1244500" lon="-3.5925910">
        <ele>356.0</ele>
        <time>2018-06-16T10:16:34Z</time>
      </trkpt>
      <trkpt lat="38.1244410" lon="-3.5926040">
        <ele>356.0</ele>
        <time>2018-06-16T10:16:35Z</time>
      </trkpt>
      <trkpt lat="38.1244340" lon="-3.5926210">
        <ele>356.0</ele>
        <time>2018-06-16T10:16:36Z</time>
      </trkpt>
      <trkpt lat="38.1244370" lon="-3.5926320">
        <ele>356.0</ele>
        <time>2018-06-16T10:16:37Z</time>
      </trkpt>
      <trkpt lat="38.1244380" lon="-3.5926490">
        <ele>356.0</ele>
        <time>2018-06-16T10:16:38Z</time>
      </trkpt>
      <trkpt lat="38.1244270" lon="-3.5926580">
        <ele>356.0</ele>
        <time>2018-06-16T10:16:39Z</time>
      </trkpt>
      <trkpt lat="38.1244260" lon="-3.5926760">
        <ele>356.2</ele>
        <time>2018-06-16T10:16:40Z</time>
      </trkpt>
      <trkpt lat="38.1244100" lon="-3.5926840">
        <ele>356.4</ele>
        <time>2018-06-16T10:16:41Z</time>
      </trkpt>
      <trkpt lat="38.1244000" lon="-3.5926920">
        <ele>356.4</ele>
        <time>2018-06-16T10:16:42Z</time>
      </trkpt>
      <trkpt lat="38.1243910" lon="-3.5927120">
        <ele>356.4</ele>
        <time>2018-06-16T10:16:43Z</time>
      </trkpt>
      <trkpt lat="38.1243760" lon="-3.5927200">
        <ele>356.6</ele>
        <time>2018-06-16T10:16:44Z</time>
      </trkpt>
      <trkpt lat="38.1243730" lon="-3.5927310">
        <ele>356.6</ele>
        <time>2018-06-16T10:16:45Z</time>
      </trkpt>
      <trkpt lat="38.1243480" lon="-3.5927490">
        <ele>356.6</ele>
        <time>2018-06-16T10:16:46Z</time>
      </trkpt>
      <trkpt lat="38.1243370" lon="-3.5927740">
        <ele>356.6</ele>
        <time>2018-06-16T10:16:47Z</time>
      </trkpt>
      <trkpt lat="38.1243290" lon="-3.5927900">
        <ele>357.0</ele>
        <time>2018-06-16T10:16:48Z</time>
      </trkpt>
      <trkpt lat="38.1243350" lon="-3.5928060">
        <ele>356.6</ele>
        <time>2018-06-16T10:16:49Z</time>
      </trkpt>
      <trkpt lat="38.1243350" lon="-3.5928120">
        <ele>356.6</ele>
        <time>2018-06-16T10:16:50Z</time>
      </trkpt>
      <trkpt lat="38.1243310" lon="-3.5928170">
        <ele>356.8</ele>
        <time>2018-06-16T10:16:51Z</time>
      </trkpt>
      <trkpt lat="38.1243140" lon="-3.5928120">
        <ele>356.8</ele>
        <time>2018-06-16T10:16:52Z</time>
      </trkpt>
      <trkpt lat="38.1243120" lon="-3.5928050">
        <ele>356.8</ele>
        <time>2018-06-16T10:16:53Z</time>
      </trkpt>
      <trkpt lat="38.1243230" lon="-3.5928110">
        <ele>356.6</ele>
        <time>2018-06-16T10:16:54Z</time>
      </trkpt>
      <trkpt lat="38.1243140" lon="-3.5928130">
        <ele>356.8</ele>
        <time>2018-06-16T10:16:55Z</time>
      </trkpt>
      <trkpt lat="38.1243070" lon="-3.5928170">
        <ele>356.6</ele>
        <time>2018-06-16T10:16:56Z</time>
      </trkpt>
      <trkpt lat="38.1243190" lon="-3.5928140">
        <ele>356.8</ele>
        <time>2018-06-16T10:16:57Z</time>
      </trkpt>
      <trkpt lat="38.1243350" lon="-3.5928090">
        <ele>356.8</ele>
        <time>2018-06-16T10:16:58Z</time>
      </trkpt>
      <trkpt lat="38.1243330" lon="-3.5928050">
        <ele>356.6</ele>
        <time>2018-06-16T10:16:59Z</time>
      </trkpt>
      <trkpt lat="38.1243290" lon="-3.5928180">
        <ele>356.6</ele>
        <time>2018-06-16T10:17:00Z</time>
      </trkpt>
      <trkpt lat="38.1243280" lon="-3.5928480">
        <ele>356.8</ele>
        <time>2018-06-16T10:17:01Z</time>
      </trkpt>
      <trkpt lat="38.1243220" lon="-3.5928660">
        <ele>356.6</ele>
        <time>2018-06-16T10:17:02Z</time>
      </trkpt>
      <trkpt lat="38.1243090" lon="-3.5928890">
        <ele>356.8</ele>
        <time>2018-06-16T10:17:03Z</time>
      </trkpt>
      <trkpt lat="38.1243010" lon="-3.5929090">
        <ele>356.6</ele>
        <time>2018-06-16T10:17:04Z</time>
      </trkpt>
      <trkpt lat="38.1242930" lon="-3.5929220">
        <ele>356.8</ele>
        <time>2018-06-16T10:17:05Z</time>
      </trkpt>
      <trkpt lat="38.1242730" lon="-3.5929460">
        <ele>357.0</ele>
        <time>2018-06-16T10:17:06Z</time>
      </trkpt>
      <trkpt lat="38.1242630" lon="-3.5929620">
        <ele>356.8</ele>
        <time>2018-06-16T10:17:07Z</time>
      </trkpt>
      <trkpt lat="38.1242510" lon="-3.5929800">
        <ele>356.8</ele>
        <time>2018-06-16T10:17:08Z</time>
      </trkpt>
      <trkpt lat="38.1242410" lon="-3.5930110">
        <ele>356.8</ele>
        <time>2018-06-16T10:17:09Z</time>
      </trkpt>
      <trkpt lat="38.1242340" lon="-3.5930400">
        <ele>357.0</ele>
        <time>2018-06-16T10:17:10Z</time>
      </trkpt>
      <trkpt lat="38.1242280" lon="-3.5930570">
        <ele>357.2</ele>
        <time>2018-06-16T10:17:11Z</time>
      </trkpt>
      <trkpt lat="38.1242190" lon="-3.5930850">
        <ele>357.2</ele>
        <time>2018-06-16T10:17:12Z</time>
      </trkpt>
      <trkpt lat="38.1242170" lon="-3.5931000">
        <ele>357.0</ele>
        <time>2018-06-16T10:17:13Z</time>
      </trkpt>
      <trkpt lat="38.1241970" lon="-3.5931310">
        <ele>357.0</ele>
        <time>2018-06-16T10:17:14Z</time>
      </trkpt>
      <trkpt lat="38.1241850" lon="-3.5931590">
        <ele>357.2</ele>
        <time>2018-06-16T10:17:15Z</time>
      </trkpt>
      <trkpt lat="38.1241850" lon="-3.5931780">
        <ele>357.2</ele>
        <time>2018-06-16T10:17:16Z</time>
      </trkpt>
      <trkpt lat="38.1241720" lon="-3.5931970">
        <ele>357.2</ele>
        <time>2018-06-16T10:17:17Z</time>
      </trkpt>
      <trkpt lat="38.1241530" lon="-3.5932260">
        <ele>357.2</ele>
        <time>2018-06-16T10:17:18Z</time>
      </trkpt>
      <trkpt lat="38.1241430" lon="-3.5932530">
        <ele>357.4</ele>
        <time>2018-06-16T10:17:19Z</time>
      </trkpt>
      <trkpt lat="38.1241420" lon="-3.5932680">
        <ele>357.4</ele>
        <time>2018-06-16T10:17:20Z</time>
      </trkpt>
      <trkpt lat="38.1241290" lon="-3.5932930">
        <ele>357.2</ele>
        <time>2018-06-16T10:17:21Z</time>
      </trkpt>
      <trkpt lat="38.1241110" lon="-3.5933140">
        <ele>357.6</ele>
        <time>2018-06-16T10:17:22Z</time>
      </trkpt>
      <trkpt lat="38.1240940" lon="-3.5933470">
        <ele>357.4</ele>
        <time>2018-06-16T10:17:23Z</time>
      </trkpt>
      <trkpt lat="38.1240750" lon="-3.5933850">
        <ele>357.4</ele>
        <time>2018-06-16T10:17:24Z</time>
      </trkpt>
      <trkpt lat="38.1240700" lon="-3.5933950">
        <ele>357.4</ele>
        <time>2018-06-16T10:17:25Z</time>
      </trkpt>
      <trkpt lat="38.1240520" lon="-3.5934320">
        <ele>357.4</ele>
        <time>2018-06-16T10:17:26Z</time>
      </trkpt>
      <trkpt lat="38.1240450" lon="-3.5934620">
        <ele>357.6</ele>
        <time>2018-06-16T10:17:27Z</time>
      </trkpt>
      <trkpt lat="38.1240390" lon="-3.5934970">
        <ele>357.6</ele>
        <time>2018-06-16T10:17:28Z</time>
      </trkpt>
      <trkpt lat="38.1240170" lon="-3.5935360">
        <ele>357.6</ele>
        <time>2018-06-16T10:17:29Z</time>
      </trkpt>
      <trkpt lat="38.1240150" lon="-3.5935660">
        <ele>357.6</ele>
        <time>2018-06-16T10:17:30Z</time>
      </trkpt>
      <trkpt lat="38.1240130" lon="-3.5935900">
        <ele>357.6</ele>
        <time>2018-06-16T10:17:31Z</time>
      </trkpt>
      <trkpt lat="38.1239970" lon="-3.5936270">
        <ele>357.8</ele>
        <time>2018-06-16T10:17:32Z</time>
      </trkpt>
      <trkpt lat="38.1239940" lon="-3.5936570">
        <ele>357.6</ele>
        <time>2018-06-16T10:17:33Z</time>
      </trkpt>
      <trkpt lat="38.1239710" lon="-3.5936860">
        <ele>357.6</ele>
        <time>2018-06-16T10:17:34Z</time>
      </trkpt>
      <trkpt lat="38.1239580" lon="-3.5937280">
        <ele>357.6</ele>
        <time>2018-06-16T10:17:35Z</time>
      </trkpt>
      <trkpt lat="38.1239480" lon="-3.5937640">
        <ele>357.6</ele>
        <time>2018-06-16T10:17:36Z</time>
      </trkpt>
      <trkpt lat="38.1239350" lon="-3.5937850">
        <ele>357.6</ele>
        <time>2018-06-16T10:17:37Z</time>
      </trkpt>
      <trkpt lat="38.1239150" lon="-3.5938260">
        <ele>357.6</ele>
        <time>2018-06-16T10:17:38Z</time>
      </trkpt>
      <trkpt lat="38.1239000" lon="-3.5938610">
        <ele>357.6</ele>
        <time>2018-06-16T10:17:39Z</time>
      </trkpt>
      <trkpt lat="38.1238760" lon="-3.5938870">
        <ele>357.4</ele>
        <time>2018-06-16T10:17:40Z</time>
      </trkpt>
      <trkpt lat="38.1238590" lon="-3.5939230">
        <ele>357.4</ele>
        <time>2018-06-16T10:17:41Z</time>
      </trkpt>
      <trkpt lat="38.1238470" lon="-3.5939580">
        <ele>357.4</ele>
        <time>2018-06-16T10:17:42Z</time>
      </trkpt>
      <trkpt lat="38.1238140" lon="-3.5940160">
        <ele>357.4</ele>
        <time>2018-06-16T10:17:43Z</time>
      </trkpt>
      <trkpt lat="38.1238060" lon="-3.5940610">
        <ele>357.2</ele>
        <time>2018-06-16T10:17:44Z</time>
      </trkpt>
      <trkpt lat="38.1237810" lon="-3.5941040">
        <ele>357.2</ele>
        <time>2018-06-16T10:17:45Z</time>
      </trkpt>
      <trkpt lat="38.1237760" lon="-3.5941400">
        <ele>357.2</ele>
        <time>2018-06-16T10:17:46Z</time>
      </trkpt>
      <trkpt lat="38.1237460" lon="-3.5941810">
        <ele>357.2</ele>
        <time>2018-06-16T10:17:47Z</time>
      </trkpt>
      <trkpt lat="38.1237350" lon="-3.5942180">
        <ele>357.0</ele>
        <time>2018-06-16T10:17:48Z</time>
      </trkpt>
      <trkpt lat="38.1237120" lon="-3.5942700">
        <ele>357.2</ele>
        <time>2018-06-16T10:17:49Z</time>
      </trkpt>
      <trkpt lat="38.1236870" lon="-3.5943150">
        <ele>357.0</ele>
        <time>2018-06-16T10:17:50Z</time>
      </trkpt>
      <trkpt lat="38.1236700" lon="-3.5943590">
        <ele>356.8</ele>
        <time>2018-06-16T10:17:51Z</time>
      </trkpt>
      <trkpt lat="38.1236470" lon="-3.5944020">
        <ele>356.8</ele>
        <time>2018-06-16T10:17:52Z</time>
      </trkpt>
      <trkpt lat="38.1236300" lon="-3.5944470">
        <ele>356.8</ele>
        <time>2018-06-16T10:17:53Z</time>
      </trkpt>
      <trkpt lat="38.1236010" lon="-3.5944970">
        <ele>356.8</ele>
        <time>2018-06-16T10:17:54Z</time>
      </trkpt>
      <trkpt lat="38.1235870" lon="-3.5945400">
        <ele>356.4</ele>
        <time>2018-06-16T10:17:55Z</time>
      </trkpt>
      <trkpt lat="38.1235630" lon="-3.5945830">
        <ele>356.4</ele>
        <time>2018-06-16T10:17:56Z</time>
      </trkpt>
      <trkpt lat="38.1235400" lon="-3.5946380">
        <ele>356.4</ele>
        <time>2018-06-16T10:17:57Z</time>
      </trkpt>
      <trkpt lat="38.1235050" lon="-3.5946980">
        <ele>356.2</ele>
        <time>2018-06-16T10:17:58Z</time>
      </trkpt>
      <trkpt lat="38.1234710" lon="-3.5947380">
        <ele>356.2</ele>
        <time>2018-06-16T10:17:59Z</time>
      </trkpt>
      <trkpt lat="38.1234510" lon="-3.5947910">
        <ele>356.4</ele>
        <time>2018-06-16T10:18:00Z</time>
      </trkpt>
      <trkpt lat="38.1234080" lon="-3.5948520">
        <ele>356.0</ele>
        <time>2018-06-16T10:18:01Z</time>
      </trkpt>
      <trkpt lat="38.1233560" lon="-3.5949130">
        <ele>355.8</ele>
        <time>2018-06-16T10:18:02Z</time>
      </trkpt>
      <trkpt lat="38.1233200" lon="-3.5949760">
        <ele>355.8</ele>
        <time>2018-06-16T10:18:03Z</time>
      </trkpt>
      <trkpt lat="38.1232790" lon="-3.5950400">
        <ele>355.6</ele>
        <time>2018-06-16T10:18:04Z</time>
      </trkpt>
      <trkpt lat="38.1232570" lon="-3.5951020">
        <ele>355.8</ele>
        <time>2018-06-16T10:18:05Z</time>
      </trkpt>
      <trkpt lat="38.1232200" lon="-3.5951680">
        <ele>355.6</ele>
        <time>2018-06-16T10:18:06Z</time>
      </trkpt>
      <trkpt lat="38.1231820" lon="-3.5952300">
        <ele>355.6</ele>
        <time>2018-06-16T10:18:07Z</time>
      </trkpt>
      <trkpt lat="38.1231510" lon="-3.5952860">
        <ele>355.6</ele>
        <time>2018-06-16T10:18:08Z</time>
      </trkpt>
      <trkpt lat="38.1231200" lon="-3.5953390">
        <ele>355.6</ele>
        <time>2018-06-16T10:18:09Z</time>
      </trkpt>
      <trkpt lat="38.1230860" lon="-3.5953910">
        <ele>355.8</ele>
        <time>2018-06-16T10:18:10Z</time>
      </trkpt>
      <trkpt lat="38.1230440" lon="-3.5954350">
        <ele>355.8</ele>
        <time>2018-06-16T10:18:11Z</time>
      </trkpt>
      <trkpt lat="38.1230230" lon="-3.5954750">
        <ele>355.6</ele>
        <time>2018-06-16T10:18:12Z</time>
      </trkpt>
      <trkpt lat="38.1230010" lon="-3.5955300">
        <ele>355.8</ele>
        <time>2018-06-16T10:18:13Z</time>
      </trkpt>
      <trkpt lat="38.1229680" lon="-3.5955730">
        <ele>356.0</ele>
        <time>2018-06-16T10:18:14Z</time>
      </trkpt>
      <trkpt lat="38.1229330" lon="-3.5956190">
        <ele>356.2</ele>
        <time>2018-06-16T10:18:15Z</time>
      </trkpt>
      <trkpt lat="38.1228940" lon="-3.5956730">
        <ele>356.4</ele>
        <time>2018-06-16T10:18:16Z</time>
      </trkpt>
      <trkpt lat="38.1228650" lon="-3.5957220">
        <ele>356.6</ele>
        <time>2018-06-16T10:18:17Z</time>
      </trkpt>
      <trkpt lat="38.1228380" lon="-3.5957690">
        <ele>356.8</ele>
        <time>2018-06-16T10:18:18Z</time>
      </trkpt>
      <trkpt lat="38.1228100" lon="-3.5958070">
        <ele>356.8</ele>
        <time>2018-06-16T10:18:19Z</time>
      </trkpt>
      <trkpt lat="38.1227590" lon="-3.5958470">
        <ele>357.0</ele>
        <time>2018-06-16T10:18:20Z</time>
      </trkpt>
      <trkpt lat="38.1227380" lon="-3.5958840">
        <ele>357.0</ele>
        <time>2018-06-16T10:18:21Z</time>
      </trkpt>
      <trkpt lat="38.1227070" lon="-3.5959170">
        <ele>357.0</ele>
        <time>2018-06-16T10:18:22Z</time>
      </trkpt>
      <trkpt lat="38.1226760" lon="-3.5959600">
        <ele>357.2</ele>
        <time>2018-06-16T10:18:23Z</time>
      </trkpt>
      <trkpt lat="38.1226620" lon="-3.5959990">
        <ele>357.2</ele>
        <time>2018-06-16T10:18:24Z</time>
      </trkpt>
      <trkpt lat="38.1226220" lon="-3.5960380">
        <ele>357.4</ele>
        <time>2018-06-16T10:18:25Z</time>
      </trkpt>
      <trkpt lat="38.1225990" lon="-3.5960840">
        <ele>357.6</ele>
        <time>2018-06-16T10:18:26Z</time>
      </trkpt>
      <trkpt lat="38.1225680" lon="-3.5961110">
        <ele>357.8</ele>
        <time>2018-06-16T10:18:27Z</time>
      </trkpt>
      <trkpt lat="38.1225580" lon="-3.5961480">
        <ele>358.0</ele>
        <time>2018-06-16T10:18:28Z</time>
      </trkpt>
      <trkpt lat="38.1225300" lon="-3.5961810">
        <ele>358.0</ele>
        <time>2018-06-16T10:18:29Z</time>
      </trkpt>
      <trkpt lat="38.1225110" lon="-3.5962170">
        <ele>358.0</ele>
        <time>2018-06-16T10:18:30Z</time>
      </trkpt>
      <trkpt lat="38.1224940" lon="-3.5962510">
        <ele>358.2</ele>
        <time>2018-06-16T10:18:31Z</time>
      </trkpt>
      <trkpt lat="38.1224740" lon="-3.5962840">
        <ele>358.2</ele>
        <time>2018-06-16T10:18:32Z</time>
      </trkpt>
      <trkpt lat="38.1224590" lon="-3.5963130">
        <ele>358.4</ele>
        <time>2018-06-16T10:18:33Z</time>
      </trkpt>
      <trkpt lat="38.1224290" lon="-3.5963480">
        <ele>358.6</ele>
        <time>2018-06-16T10:18:34Z</time>
      </trkpt>
      <trkpt lat="38.1224060" lon="-3.5963890">
        <ele>358.8</ele>
        <time>2018-06-16T10:18:35Z</time>
      </trkpt>
      <trkpt lat="38.1223890" lon="-3.5964260">
        <ele>358.6</ele>
        <time>2018-06-16T10:18:36Z</time>
      </trkpt>
      <trkpt lat="38.1223690" lon="-3.5964600">
        <ele>358.8</ele>
        <time>2018-06-16T10:18:37Z</time>
      </trkpt>
      <trkpt lat="38.1223290" lon="-3.5964810">
        <ele>359.0</ele>
        <time>2018-06-16T10:18:38Z</time>
      </trkpt>
      <trkpt lat="38.1223050" lon="-3.5965120">
        <ele>359.0</ele>
        <time>2018-06-16T10:18:39Z</time>
      </trkpt>
      <trkpt lat="38.1222920" lon="-3.5965390">
        <ele>359.4</ele>
        <time>2018-06-16T10:18:40Z</time>
      </trkpt>
      <trkpt lat="38.1222770" lon="-3.5965810">
        <ele>359.0</ele>
        <time>2018-06-16T10:18:41Z</time>
      </trkpt>
      <trkpt lat="38.1222570" lon="-3.5966140">
        <ele>359.4</ele>
        <time>2018-06-16T10:18:42Z</time>
      </trkpt>
      <trkpt lat="38.1222370" lon="-3.5966490">
        <ele>359.6</ele>
        <time>2018-06-16T10:18:43Z</time>
      </trkpt>
      <trkpt lat="38.1222110" lon="-3.5966950">
        <ele>359.6</ele>
        <time>2018-06-16T10:18:44Z</time>
      </trkpt>
      <trkpt lat="38.1221840" lon="-3.5967070">
        <ele>359.8</ele>
        <time>2018-06-16T10:18:45Z</time>
      </trkpt>
      <trkpt lat="38.1221530" lon="-3.5967260">
        <ele>360.0</ele>
        <time>2018-06-16T10:18:46Z</time>
      </trkpt>
      <trkpt lat="38.1221290" lon="-3.5967570">
        <ele>360.0</ele>
        <time>2018-06-16T10:18:47Z</time>
      </trkpt>
      <trkpt lat="38.1221150" lon="-3.5967870">
        <ele>360.2</ele>
        <time>2018-06-16T10:18:48Z</time>
      </trkpt>
      <trkpt lat="38.1220720" lon="-3.5968040">
        <ele>360.2</ele>
        <time>2018-06-16T10:18:49Z</time>
      </trkpt>
      <trkpt lat="38.1220510" lon="-3.5968290">
        <ele>360.2</ele>
        <time>2018-06-16T10:18:50Z</time>
      </trkpt>
      <trkpt lat="38.1220310" lon="-3.5968490">
        <ele>360.4</ele>
        <time>2018-06-16T10:18:51Z</time>
      </trkpt>
      <trkpt lat="38.1220210" lon="-3.5968770">
        <ele>360.6</ele>
        <time>2018-06-16T10:18:52Z</time>
      </trkpt>
      <trkpt lat="38.1220030" lon="-3.5969130">
        <ele>360.8</ele>
        <time>2018-06-16T10:18:53Z</time>
      </trkpt>
      <trkpt lat="38.1219980" lon="-3.5969520">
        <ele>360.8</ele>
        <time>2018-06-16T10:18:54Z</time>
      </trkpt>
      <trkpt lat="38.1219850" lon="-3.5969710">
        <ele>361.0</ele>
        <time>2018-06-16T10:18:55Z</time>
      </trkpt>
      <trkpt lat="38.1219680" lon="-3.5969990">
        <ele>361.2</ele>
        <time>2018-06-16T10:18:56Z</time>
      </trkpt>
      <trkpt lat="38.1219530" lon="-3.5970240">
        <ele>361.2</ele>
        <time>2018-06-16T10:18:57Z</time>
      </trkpt>
      <trkpt lat="38.1219260" lon="-3.5970420">
        <ele>361.2</ele>
        <time>2018-06-16T10:18:58Z</time>
      </trkpt>
      <trkpt lat="38.1218870" lon="-3.5970550">
        <ele>361.4</ele>
        <time>2018-06-16T10:18:59Z</time>
      </trkpt>
      <trkpt lat="38.1218720" lon="-3.5970790">
        <ele>361.6</ele>
        <time>2018-06-16T10:19:00Z</time>
      </trkpt>
      <trkpt lat="38.1218580" lon="-3.5971070">
        <ele>361.6</ele>
        <time>2018-06-16T10:19:01Z</time>
      </trkpt>
      <trkpt lat="38.1218480" lon="-3.5971340">
        <ele>361.8</ele>
        <time>2018-06-16T10:19:02Z</time>
      </trkpt>
      <trkpt lat="38.1218340" lon="-3.5971530">
        <ele>361.8</ele>
        <time>2018-06-16T10:19:03Z</time>
      </trkpt>
      <trkpt lat="38.1218250" lon="-3.5971820">
        <ele>361.8</ele>
        <time>2018-06-16T10:19:04Z</time>
      </trkpt>
      <trkpt lat="38.1218020" lon="-3.5972120">
        <ele>362.0</ele>
        <time>2018-06-16T10:19:05Z</time>
      </trkpt>
      <trkpt lat="38.1217740" lon="-3.5972340">
        <ele>362.2</ele>
        <time>2018-06-16T10:19:06Z</time>
      </trkpt>
      <trkpt lat="38.1217680" lon="-3.5972800">
        <ele>362.4</ele>
        <time>2018-06-16T10:19:07Z</time>
      </trkpt>
      <trkpt lat="38.1217320" lon="-3.5972890">
        <ele>362.4</ele>
        <time>2018-06-16T10:19:08Z</time>
      </trkpt>
      <trkpt lat="38.1217090" lon="-3.5973140">
        <ele>362.6</ele>
        <time>2018-06-16T10:19:09Z</time>
      </trkpt>
      <trkpt lat="38.1216890" lon="-3.5973270">
        <ele>362.6</ele>
        <time>2018-06-16T10:19:10Z</time>
      </trkpt>
      <trkpt lat="38.1216610" lon="-3.5973480">
        <ele>362.8</ele>
        <time>2018-06-16T10:19:11Z</time>
      </trkpt>
      <trkpt lat="38.1216170" lon="-3.5973670">
        <ele>363.0</ele>
        <time>2018-06-16T10:19:12Z</time>
      </trkpt>
      <trkpt lat="38.1215860" lon="-3.5973820">
        <ele>363.0</ele>
        <time>2018-06-16T10:19:13Z</time>
      </trkpt>
      <trkpt lat="38.1215540" lon="-3.5973940">
        <ele>363.2</ele>
        <time>2018-06-16T10:19:14Z</time>
      </trkpt>
      <trkpt lat="38.1215480" lon="-3.5974160">
        <ele>363.4</ele>
        <time>2018-06-16T10:19:15Z</time>
      </trkpt>
      <trkpt lat="38.1215210" lon="-3.5974400">
        <ele>363.4</ele>
        <time>2018-06-16T10:19:16Z</time>
      </trkpt>
      <trkpt lat="38.1214920" lon="-3.5974570">
        <ele>363.6</ele>
        <time>2018-06-16T10:19:17Z</time>
      </trkpt>
      <trkpt lat="38.1214700" lon="-3.5974740">
        <ele>363.6</ele>
        <time>2018-06-16T10:19:18Z</time>
      </trkpt>
      <trkpt lat="38.1214480" lon="-3.5974810">
        <ele>363.8</ele>
        <time>2018-06-16T10:19:19Z</time>
      </trkpt>
      <trkpt lat="38.1214380" lon="-3.5975020">
        <ele>363.8</ele>
        <time>2018-06-16T10:19:20Z</time>
      </trkpt>
      <trkpt lat="38.1214160" lon="-3.5975250">
        <ele>364.0</ele>
        <time>2018-06-16T10:19:21Z</time>
      </trkpt>
      <trkpt lat="38.1213950" lon="-3.5975550">
        <ele>364.0</ele>
        <time>2018-06-16T10:19:22Z</time>
      </trkpt>
      <trkpt lat="38.1213580" lon="-3.5975660">
        <ele>364.2</ele>
        <time>2018-06-16T10:19:23Z</time>
      </trkpt>
      <trkpt lat="38.1213320" lon="-3.5975820">
        <ele>364.2</ele>
        <time>2018-06-16T10:19:24Z</time>
      </trkpt>
      <trkpt lat="38.1213240" lon="-3.5976000">
        <ele>364.4</ele>
        <time>2018-06-16T10:19:25Z</time>
      </trkpt>
      <trkpt lat="38.1213110" lon="-3.5976210">
        <ele>364.6</ele>
        <time>2018-06-16T10:19:26Z</time>
      </trkpt>
      <trkpt lat="38.1212900" lon="-3.5976390">
        <ele>364.6</ele>
        <time>2018-06-16T10:19:27Z</time>
      </trkpt>
      <trkpt lat="38.1212640" lon="-3.5976610">
        <ele>364.8</ele>
        <time>2018-06-16T10:19:28Z</time>
      </trkpt>
      <trkpt lat="38.1212630" lon="-3.5976760">
        <ele>365.0</ele>
        <time>2018-06-16T10:19:29Z</time>
      </trkpt>
      <trkpt lat="38.1212440" lon="-3.5976920">
        <ele>365.0</ele>
        <time>2018-06-16T10:19:30Z</time>
      </trkpt>
      <trkpt lat="38.1212410" lon="-3.5977160">
        <ele>365.2</ele>
        <time>2018-06-16T10:19:31Z</time>
      </trkpt>
      <trkpt lat="38.1212060" lon="-3.5977340">
        <ele>365.4</ele>
        <time>2018-06-16T10:19:32Z</time>
      </trkpt>
      <trkpt lat="38.1211920" lon="-3.5977480">
        <ele>365.4</ele>
        <time>2018-06-16T10:19:33Z</time>
      </trkpt>
      <trkpt lat="38.1211650" lon="-3.5977710">
        <ele>365.6</ele>
        <time>2018-06-16T10:19:34Z</time>
      </trkpt>
      <trkpt lat="38.1211460" lon="-3.5977960">
        <ele>365.6</ele>
        <time>2018-06-16T10:19:35Z</time>
      </trkpt>
      <trkpt lat="38.1211130" lon="-3.5978070">
        <ele>365.6</ele>
        <time>2018-06-16T10:19:36Z</time>
      </trkpt>
      <trkpt lat="38.1211050" lon="-3.5978280">
        <ele>365.8</ele>
        <time>2018-06-16T10:19:37Z</time>
      </trkpt>
      <trkpt lat="38.1210750" lon="-3.5978370">
        <ele>366.0</ele>
        <time>2018-06-16T10:19:38Z</time>
      </trkpt>
      <trkpt lat="38.1210460" lon="-3.5978560">
        <ele>366.2</ele>
        <time>2018-06-16T10:19:39Z</time>
      </trkpt>
      <trkpt lat="38.1210350" lon="-3.5978620">
        <ele>366.2</ele>
        <time>2018-06-16T10:19:40Z</time>
      </trkpt>
      <trkpt lat="38.1210390" lon="-3.5978750">
        <ele>366.2</ele>
        <time>2018-06-16T10:19:41Z</time>
      </trkpt>
      <trkpt lat="38.1210130" lon="-3.5978900">
        <ele>366.4</ele>
        <time>2018-06-16T10:19:42Z</time>
      </trkpt>
      <trkpt lat="38.1209880" lon="-3.5979160">
        <ele>366.4</ele>
        <time>2018-06-16T10:19:43Z</time>
      </trkpt>
      <trkpt lat="38.1209580" lon="-3.5979330">
        <ele>366.4</ele>
        <time>2018-06-16T10:19:44Z</time>
      </trkpt>
      <trkpt lat="38.1209520" lon="-3.5979630">
        <ele>366.6</ele>
        <time>2018-06-16T10:19:45Z</time>
      </trkpt>
      <trkpt lat="38.1209380" lon="-3.5979900">
        <ele>366.8</ele>
        <time>2018-06-16T10:19:46Z</time>
      </trkpt>
      <trkpt lat="38.1209270" lon="-3.5980020">
        <ele>367.0</ele>
        <time>2018-06-16T10:19:47Z</time>
      </trkpt>
      <trkpt lat="38.1209220" lon="-3.5980150">
        <ele>367.2</ele>
        <time>2018-06-16T10:19:48Z</time>
      </trkpt>
      <trkpt lat="38.1209090" lon="-3.5980220">
        <ele>367.2</ele>
        <time>2018-06-16T10:19:49Z</time>
      </trkpt>
      <trkpt lat="38.1208870" lon="-3.5980220">
        <ele>367.2</ele>
        <time>2018-06-16T10:19:50Z</time>
      </trkpt>
      <trkpt lat="38.1208730" lon="-3.5980330">
        <ele>367.4</ele>
        <time>2018-06-16T10:19:51Z</time>
      </trkpt>
      <trkpt lat="38.1208750" lon="-3.5980390">
        <ele>367.4</ele>
        <time>2018-06-16T10:19:52Z</time>
      </trkpt>
      <trkpt lat="38.1208770" lon="-3.5980470">
        <ele>367.4</ele>
        <time>2018-06-16T10:19:53Z</time>
      </trkpt>
      <trkpt lat="38.1208570" lon="-3.5980510">
        <ele>367.6</ele>
        <time>2018-06-16T10:19:54Z</time>
      </trkpt>
      <trkpt lat="38.1208430" lon="-3.5980570">
        <ele>367.6</ele>
        <time>2018-06-16T10:19:55Z</time>
      </trkpt>
      <trkpt lat="38.1208390" lon="-3.5980690">
        <ele>367.6</ele>
        <time>2018-06-16T10:19:56Z</time>
      </trkpt>
      <trkpt lat="38.1208360" lon="-3.5980760">
        <ele>367.8</ele>
        <time>2018-06-16T10:19:57Z</time>
      </trkpt>
      <trkpt lat="38.1208200" lon="-3.5980920">
        <ele>367.8</ele>
        <time>2018-06-16T10:19:58Z</time>
      </trkpt>
      <trkpt lat="38.1208050" lon="-3.5980980">
        <ele>368.0</ele>
        <time>2018-06-16T10:19:59Z</time>
      </trkpt>
      <trkpt lat="38.1207990" lon="-3.5981030">
        <ele>368.0</ele>
        <time>2018-06-16T10:20:00Z</time>
      </trkpt>
      <trkpt lat="38.1207880" lon="-3.5981140">
        <ele>368.0</ele>
        <time>2018-06-16T10:20:01Z</time>
      </trkpt>
      <trkpt lat="38.1207800" lon="-3.5981220">
        <ele>368.0</ele>
        <time>2018-06-16T10:20:02Z</time>
      </trkpt>
      <trkpt lat="38.1207730" lon="-3.5981340">
        <ele>368.2</ele>
        <time>2018-06-16T10:20:03Z</time>
      </trkpt>
      <trkpt lat="38.1207610" lon="-3.5981500">
        <ele>368.4</ele>
        <time>2018-06-16T10:20:04Z</time>
      </trkpt>
      <trkpt lat="38.1207500" lon="-3.5981630">
        <ele>368.4</ele>
        <time>2018-06-16T10:20:05Z</time>
      </trkpt>
      <trkpt lat="38.1207470" lon="-3.5981750">
        <ele>368.4</ele>
        <time>2018-06-16T10:20:06Z</time>
      </trkpt>
      <trkpt lat="38.1207380" lon="-3.5981810">
        <ele>368.6</ele>
        <time>2018-06-16T10:20:07Z</time>
      </trkpt>
      <trkpt lat="38.1207080" lon="-3.5981860">
        <ele>368.6</ele>
        <time>2018-06-16T10:20:08Z</time>
      </trkpt>
      <trkpt lat="38.1207060" lon="-3.5981930">
        <ele>368.8</ele>
        <time>2018-06-16T10:20:09Z</time>
      </trkpt>
      <trkpt lat="38.1207010" lon="-3.5981920">
        <ele>368.8</ele>
        <time>2018-06-16T10:20:10Z</time>
      </trkpt>
      <trkpt lat="38.1206960" lon="-3.5981940">
        <ele>368.8</ele>
        <time>2018-06-16T10:20:11Z</time>
      </trkpt>
      <trkpt lat="38.1206890" lon="-3.5981930">
        <ele>368.8</ele>
        <time>2018-06-16T10:20:12Z</time>
      </trkpt>
      <trkpt lat="38.1207010" lon="-3.5981910">
        <ele>368.8</ele>
        <time>2018-06-16T10:20:13Z</time>
      </trkpt>
      <trkpt lat="38.1207070" lon="-3.5981840">
        <ele>368.6</ele>
        <time>2018-06-16T10:20:14Z</time>
      </trkpt>
      <trkpt lat="38.1207230" lon="-3.5981800">
        <ele>368.8</ele>
        <time>2018-06-16T10:20:15Z</time>
      </trkpt>
      <trkpt lat="38.1207130" lon="-3.5982000">
        <ele>368.6</ele>
        <time>2018-06-16T10:20:16Z</time>
      </trkpt>
      <trkpt lat="38.1207140" lon="-3.5982130">
        <ele>368.8</ele>
        <time>2018-06-16T10:20:17Z</time>
      </trkpt>
      <trkpt lat="38.1207060" lon="-3.5982220">
        <ele>368.8</ele>
        <time>2018-06-16T10:20:18Z</time>
      </trkpt>
      <trkpt lat="38.1206960" lon="-3.5982280">
        <ele>368.8</ele>
        <time>2018-06-16T10:20:19Z</time>
      </trkpt>
      <trkpt lat="38.1206840" lon="-3.5982410">
        <ele>368.8</ele>
        <time>2018-06-16T10:20:20Z</time>
      </trkpt>
      <trkpt lat="38.1206760" lon="-3.5982510">
        <ele>368.8</ele>
        <time>2018-06-16T10:20:21Z</time>
      </trkpt>
      <trkpt lat="38.1206660" lon="-3.5982440">
        <ele>369.0</ele>
        <time>2018-06-16T10:20:22Z</time>
      </trkpt>
      <trkpt lat="38.1206600" lon="-3.5982530">
        <ele>369.0</ele>
        <time>2018-06-16T10:20:23Z</time>
      </trkpt>
      <trkpt lat="38.1206490" lon="-3.5982650">
        <ele>369.0</ele>
        <time>2018-06-16T10:20:24Z</time>
      </trkpt>
      <trkpt lat="38.1206430" lon="-3.5982760">
        <ele>369.0</ele>
        <time>2018-06-16T10:20:25Z</time>
      </trkpt>
      <trkpt lat="38.1206370" lon="-3.5982830">
        <ele>369.2</ele>
        <time>2018-06-16T10:20:26Z</time>
      </trkpt>
      <trkpt lat="38.1206270" lon="-3.5982910">
        <ele>369.2</ele>
        <time>2018-06-16T10:20:27Z</time>
      </trkpt>
      <trkpt lat="38.1206260" lon="-3.5983020">
        <ele>369.2</ele>
        <time>2018-06-16T10:20:28Z</time>
      </trkpt>
      <trkpt lat="38.1206150" lon="-3.5983070">
        <ele>369.4</ele>
        <time>2018-06-16T10:20:29Z</time>
      </trkpt>
      <trkpt lat="38.1206070" lon="-3.5983080">
        <ele>369.4</ele>
        <time>2018-06-16T10:20:30Z</time>
      </trkpt>
      <trkpt lat="38.1206020" lon="-3.5983230">
        <ele>369.6</ele>
        <time>2018-06-16T10:20:31Z</time>
      </trkpt>
      <trkpt lat="38.1206020" lon="-3.5983280">
        <ele>369.6</ele>
        <time>2018-06-16T10:20:32Z</time>
      </trkpt>
      <trkpt lat="38.1205930" lon="-3.5983350">
        <ele>369.6</ele>
        <time>2018-06-16T10:20:33Z</time>
      </trkpt>
      <trkpt lat="38.1205700" lon="-3.5983550">
        <ele>369.6</ele>
        <time>2018-06-16T10:20:34Z</time>
      </trkpt>
      <trkpt lat="38.1205630" lon="-3.5983590">
        <ele>369.8</ele>
        <time>2018-06-16T10:20:35Z</time>
      </trkpt>
      <trkpt lat="38.1205410" lon="-3.5983740">
        <ele>369.8</ele>
        <time>2018-06-16T10:20:36Z</time>
      </trkpt>
      <trkpt lat="38.1205280" lon="-3.5983800">
        <ele>369.8</ele>
        <time>2018-06-16T10:20:37Z</time>
      </trkpt>
      <trkpt lat="38.1205080" lon="-3.5983850">
        <ele>370.0</ele>
        <time>2018-06-16T10:20:38Z</time>
      </trkpt>
      <trkpt lat="38.1204960" lon="-3.5983960">
        <ele>370.0</ele>
        <time>2018-06-16T10:20:39Z</time>
      </trkpt>
      <trkpt lat="38.1205000" lon="-3.5983920">
        <ele>370.0</ele>
        <time>2018-06-16T10:20:40Z</time>
      </trkpt>
      <trkpt lat="38.1204870" lon="-3.5984000">
        <ele>370.2</ele>
        <time>2018-06-16T10:20:41Z</time>
      </trkpt>
      <trkpt lat="38.1204870" lon="-3.5984140">
        <ele>370.2</ele>
        <time>2018-06-16T10:20:42Z</time>
      </trkpt>
      <trkpt lat="38.1204770" lon="-3.5984180">
        <ele>370.2</ele>
        <time>2018-06-16T10:20:43Z</time>
      </trkpt>
      <trkpt lat="38.1204680" lon="-3.5984270">
        <ele>370.4</ele>
        <time>2018-06-16T10:20:44Z</time>
      </trkpt>
      <trkpt lat="38.1204630" lon="-3.5984340">
        <ele>370.4</ele>
        <time>2018-06-16T10:20:45Z</time>
      </trkpt>
      <trkpt lat="38.1204580" lon="-3.5984440">
        <ele>370.4</ele>
        <time>2018-06-16T10:20:46Z</time>
      </trkpt>
      <trkpt lat="38.1204510" lon="-3.5984480">
        <ele>370.6</ele>
        <time>2018-06-16T10:20:47Z</time>
      </trkpt>
      <trkpt lat="38.1204350" lon="-3.5984710">
        <ele>370.6</ele>
        <time>2018-06-16T10:20:48Z</time>
      </trkpt>
      <trkpt lat="38.1204410" lon="-3.5984700">
        <ele>370.6</ele>
        <time>2018-06-16T10:20:49Z</time>
      </trkpt>
      <trkpt lat="38.1204260" lon="-3.5984830">
        <ele>370.8</ele>
        <time>2018-06-16T10:20:50Z</time>
      </trkpt>
      <trkpt lat="38.1204070" lon="-3.5984940">
        <ele>371.0</ele>
        <time>2018-06-16T10:20:51Z</time>
      </trkpt>
      <trkpt lat="38.1204000" lon="-3.5984990">
        <ele>371.0</ele>
        <time>2018-06-16T10:20:52Z</time>
      </trkpt>
      <trkpt lat="38.1203960" lon="-3.5985090">
        <ele>371.0</ele>
        <time>2018-06-16T10:20:53Z</time>
      </trkpt>
      <trkpt lat="38.1203870" lon="-3.5985120">
        <ele>371.0</ele>
        <time>2018-06-16T10:20:54Z</time>
      </trkpt>
      <trkpt lat="38.1203820" lon="-3.5985200">
        <ele>371.0</ele>
        <time>2018-06-16T10:20:55Z</time>
      </trkpt>
      <trkpt lat="38.1203910" lon="-3.5985320">
        <ele>371.0</ele>
        <time>2018-06-16T10:20:56Z</time>
      </trkpt>
      <trkpt lat="38.1203720" lon="-3.5985420">
        <ele>371.2</ele>
        <time>2018-06-16T10:20:57Z</time>
      </trkpt>
      <trkpt lat="38.1203740" lon="-3.5985590">
        <ele>371.2</ele>
        <time>2018-06-16T10:20:58Z</time>
      </trkpt>
      <trkpt lat="38.1203620" lon="-3.5985590">
        <ele>371.2</ele>
        <time>2018-06-16T10:20:59Z</time>
      </trkpt>
      <trkpt lat="38.1203660" lon="-3.5985720">
        <ele>371.2</ele>
        <time>2018-06-16T10:21:00Z</time>
      </trkpt>
      <trkpt lat="38.1203620" lon="-3.5985870">
        <ele>371.2</ele>
        <time>2018-06-16T10:21:01Z</time>
      </trkpt>
      <trkpt lat="38.1203470" lon="-3.5985890">
        <ele>371.4</ele>
        <time>2018-06-16T10:21:02Z</time>
      </trkpt>
      <trkpt lat="38.1203300" lon="-3.5985950">
        <ele>371.6</ele>
        <time>2018-06-16T10:21:03Z</time>
      </trkpt>
      <trkpt lat="38.1203160" lon="-3.5986030">
        <ele>371.6</ele>
        <time>2018-06-16T10:21:04Z</time>
      </trkpt>
      <trkpt lat="38.1203100" lon="-3.5986310">
        <ele>371.6</ele>
        <time>2018-06-16T10:21:05Z</time>
      </trkpt>
      <trkpt lat="38.1203030" lon="-3.5986290">
        <ele>371.6</ele>
        <time>2018-06-16T10:21:06Z</time>
      </trkpt>
      <trkpt lat="38.1202910" lon="-3.5986290">
        <ele>371.6</ele>
        <time>2018-06-16T10:21:07Z</time>
      </trkpt>
      <trkpt lat="38.1202750" lon="-3.5986470">
        <ele>371.8</ele>
        <time>2018-06-16T10:21:08Z</time>
      </trkpt>
      <trkpt lat="38.1202690" lon="-3.5986530">
        <ele>372.0</ele>
        <time>2018-06-16T10:21:09Z</time>
      </trkpt>
      <trkpt lat="38.1202610" lon="-3.5986630">
        <ele>372.0</ele>
        <time>2018-06-16T10:21:10Z</time>
      </trkpt>
      <trkpt lat="38.1202470" lon="-3.5986760">
        <ele>372.0</ele>
        <time>2018-06-16T10:21:11Z</time>
      </trkpt>
      <trkpt lat="38.1202390" lon="-3.5986810">
        <ele>372.0</ele>
        <time>2018-06-16T10:21:12Z</time>
      </trkpt>
      <trkpt lat="38.1202280" lon="-3.5986820">
        <ele>372.2</ele>
        <time>2018-06-16T10:21:13Z</time>
      </trkpt>
      <trkpt lat="38.1202090" lon="-3.5986880">
        <ele>372.2</ele>
        <time>2018-06-16T10:21:14Z</time>
      </trkpt>
      <trkpt lat="38.1202070" lon="-3.5986980">
        <ele>372.0</ele>
        <time>2018-06-16T10:21:15Z</time>
      </trkpt>
      <trkpt lat="38.1202110" lon="-3.5987120">
        <ele>372.4</ele>
        <time>2018-06-16T10:21:16Z</time>
      </trkpt>
      <trkpt lat="38.1201940" lon="-3.5987440">
        <ele>372.4</ele>
        <time>2018-06-16T10:21:17Z</time>
      </trkpt>
      <trkpt lat="38.1201800" lon="-3.5987620">
        <ele>372.6</ele>
        <time>2018-06-16T10:21:18Z</time>
      </trkpt>
      <trkpt lat="38.1201720" lon="-3.5987670">
        <ele>372.8</ele>
        <time>2018-06-16T10:21:19Z</time>
      </trkpt>
      <trkpt lat="38.1201710" lon="-3.5987850">
        <ele>372.8</ele>
        <time>2018-06-16T10:21:20Z</time>
      </trkpt>
      <trkpt lat="38.1201640" lon="-3.5987980">
        <ele>372.8</ele>
        <time>2018-06-16T10:21:21Z</time>
      </trkpt>
      <trkpt lat="38.1201530" lon="-3.5988060">
        <ele>372.8</ele>
        <time>2018-06-16T10:21:22Z</time>
      </trkpt>
      <trkpt lat="38.1201440" lon="-3.5988040">
        <ele>373.0</ele>
        <time>2018-06-16T10:21:23Z</time>
      </trkpt>
      <trkpt lat="38.1201460" lon="-3.5988010">
        <ele>373.2</ele>
        <time>2018-06-16T10:21:24Z</time>
      </trkpt>
      <trkpt lat="38.1201300" lon="-3.5988200">
        <ele>373.2</ele>
        <time>2018-06-16T10:21:25Z</time>
      </trkpt>
      <trkpt lat="38.1201270" lon="-3.5988260">
        <ele>373.2</ele>
        <time>2018-06-16T10:21:26Z</time>
      </trkpt>
      <trkpt lat="38.1201250" lon="-3.5988320">
        <ele>373.4</ele>
        <time>2018-06-16T10:21:27Z</time>
      </trkpt>
      <trkpt lat="38.1201090" lon="-3.5988380">
        <ele>373.4</ele>
        <time>2018-06-16T10:21:28Z</time>
      </trkpt>
      <trkpt lat="38.1201080" lon="-3.5988460">
        <ele>373.4</ele>
        <time>2018-06-16T10:21:29Z</time>
      </trkpt>
      <trkpt lat="38.1201070" lon="-3.5988480">
        <ele>373.4</ele>
        <time>2018-06-16T10:21:30Z</time>
      </trkpt>
      <trkpt lat="38.1200900" lon="-3.5988730">
        <ele>373.6</ele>
        <time>2018-06-16T10:21:31Z</time>
      </trkpt>
      <trkpt lat="38.1200800" lon="-3.5988780">
        <ele>373.6</ele>
        <time>2018-06-16T10:21:32Z</time>
      </trkpt>
      <trkpt lat="38.1200710" lon="-3.5988880">
        <ele>373.6</ele>
        <time>2018-06-16T10:21:33Z</time>
      </trkpt>
      <trkpt lat="38.1200730" lon="-3.5989000">
        <ele>373.8</ele>
        <time>2018-06-16T10:21:34Z</time>
      </trkpt>
      <trkpt lat="38.1200640" lon="-3.5989170">
        <ele>373.8</ele>
        <time>2018-06-16T10:21:35Z</time>
      </trkpt>
      <trkpt lat="38.1200530" lon="-3.5989300">
        <ele>374.0</ele>
        <time>2018-06-16T10:21:36Z</time>
      </trkpt>
      <trkpt lat="38.1200450" lon="-3.5989390">
        <ele>374.0</ele>
        <time>2018-06-16T10:21:37Z</time>
      </trkpt>
      <trkpt lat="38.1200390" lon="-3.5989510">
        <ele>374.0</ele>
        <time>2018-06-16T10:21:38Z</time>
      </trkpt>
      <trkpt lat="38.1200300" lon="-3.5989670">
        <ele>374.2</ele>
        <time>2018-06-16T10:21:39Z</time>
      </trkpt>
      <trkpt lat="38.1200210" lon="-3.5989740">
        <ele>374.2</ele>
        <time>2018-06-16T10:21:40Z</time>
      </trkpt>
      <trkpt lat="38.1200170" lon="-3.5989770">
        <ele>374.2</ele>
        <time>2018-06-16T10:21:41Z</time>
      </trkpt>
      <trkpt lat="38.1200100" lon="-3.5989860">
        <ele>374.4</ele>
        <time>2018-06-16T10:21:42Z</time>
      </trkpt>
      <trkpt lat="38.1200090" lon="-3.5989960">
        <ele>374.6</ele>
        <time>2018-06-16T10:21:43Z</time>
      </trkpt>
      <trkpt lat="38.1199910" lon="-3.5990000">
        <ele>374.6</ele>
        <time>2018-06-16T10:21:44Z</time>
      </trkpt>
      <trkpt lat="38.1199740" lon="-3.5990030">
        <ele>374.6</ele>
        <time>2018-06-16T10:21:45Z</time>
      </trkpt>
      <trkpt lat="38.1199680" lon="-3.5990160">
        <ele>374.6</ele>
        <time>2018-06-16T10:21:46Z</time>
      </trkpt>
      <trkpt lat="38.1199590" lon="-3.5990380">
        <ele>374.8</ele>
        <time>2018-06-16T10:21:47Z</time>
      </trkpt>
      <trkpt lat="38.1199480" lon="-3.5990520">
        <ele>374.8</ele>
        <time>2018-06-16T10:21:48Z</time>
      </trkpt>
      <trkpt lat="38.1199450" lon="-3.5990620">
        <ele>374.8</ele>
        <time>2018-06-16T10:21:49Z</time>
      </trkpt>
      <trkpt lat="38.1199320" lon="-3.5990670">
        <ele>375.0</ele>
        <time>2018-06-16T10:21:50Z</time>
      </trkpt>
      <trkpt lat="38.1199250" lon="-3.5990760">
        <ele>375.0</ele>
        <time>2018-06-16T10:21:51Z</time>
      </trkpt>
      <trkpt lat="38.1199220" lon="-3.5990900">
        <ele>375.0</ele>
        <time>2018-06-16T10:21:52Z</time>
      </trkpt>
      <trkpt lat="38.1199120" lon="-3.5991090">
        <ele>375.2</ele>
        <time>2018-06-16T10:21:53Z</time>
      </trkpt>
      <trkpt lat="38.1199040" lon="-3.5991240">
        <ele>375.2</ele>
        <time>2018-06-16T10:21:54Z</time>
      </trkpt>
      <trkpt lat="38.1198930" lon="-3.5991300">
        <ele>375.4</ele>
        <time>2018-06-16T10:21:55Z</time>
      </trkpt>
      <trkpt lat="38.1198900" lon="-3.5991490">
        <ele>375.4</ele>
        <time>2018-06-16T10:21:56Z</time>
      </trkpt>
      <trkpt lat="38.1198800" lon="-3.5991510">
        <ele>375.6</ele>
        <time>2018-06-16T10:21:57Z</time>
      </trkpt>
      <trkpt lat="38.1198700" lon="-3.5991580">
        <ele>375.6</ele>
        <time>2018-06-16T10:21:58Z</time>
      </trkpt>
      <trkpt lat="38.1198620" lon="-3.5991770">
        <ele>375.6</ele>
        <time>2018-06-16T10:21:59Z</time>
      </trkpt>
      <trkpt lat="38.1198520" lon="-3.5991850">
        <ele>375.6</ele>
        <time>2018-06-16T10:22:00Z</time>
      </trkpt>
      <trkpt lat="38.1198410" lon="-3.5992030">
        <ele>375.6</ele>
        <time>2018-06-16T10:22:01Z</time>
      </trkpt>
      <trkpt lat="38.1198330" lon="-3.5992060">
        <ele>375.8</ele>
        <time>2018-06-16T10:22:02Z</time>
      </trkpt>
      <trkpt lat="38.1198170" lon="-3.5992180">
        <ele>375.8</ele>
        <time>2018-06-16T10:22:03Z</time>
      </trkpt>
      <trkpt lat="38.1198270" lon="-3.5992260">
        <ele>376.0</ele>
        <time>2018-06-16T10:22:04Z</time>
      </trkpt>
      <trkpt lat="38.1198230" lon="-3.5992400">
        <ele>376.0</ele>
        <time>2018-06-16T10:22:05Z</time>
      </trkpt>
      <trkpt lat="38.1198070" lon="-3.5992480">
        <ele>376.2</ele>
        <time>2018-06-16T10:22:06Z</time>
      </trkpt>
      <trkpt lat="38.1197980" lon="-3.5992660">
        <ele>376.0</ele>
        <time>2018-06-16T10:22:07Z</time>
      </trkpt>
      <trkpt lat="38.1197830" lon="-3.5992730">
        <ele>376.0</ele>
        <time>2018-06-16T10:22:08Z</time>
      </trkpt>
      <trkpt lat="38.1197740" lon="-3.5992850">
        <ele>376.2</ele>
        <time>2018-06-16T10:22:09Z</time>
      </trkpt>
      <trkpt lat="38.1197690" lon="-3.5993100">
        <ele>376.4</ele>
        <time>2018-06-16T10:22:10Z</time>
      </trkpt>
      <trkpt lat="38.1197690" lon="-3.5993260">
        <ele>376.4</ele>
        <time>2018-06-16T10:22:11Z</time>
      </trkpt>
      <trkpt lat="38.1197570" lon="-3.5993280">
        <ele>376.4</ele>
        <time>2018-06-16T10:22:12Z</time>
      </trkpt>
      <trkpt lat="38.1197670" lon="-3.5993380">
        <ele>376.4</ele>
        <time>2018-06-16T10:22:13Z</time>
      </trkpt>
      <trkpt lat="38.1197630" lon="-3.5993460">
        <ele>376.6</ele>
        <time>2018-06-16T10:22:14Z</time>
      </trkpt>
      <trkpt lat="38.1197510" lon="-3.5993530">
        <ele>376.6</ele>
        <time>2018-06-16T10:22:15Z</time>
      </trkpt>
      <trkpt lat="38.1197430" lon="-3.5993460">
        <ele>376.6</ele>
        <time>2018-06-16T10:22:16Z</time>
      </trkpt>
      <trkpt lat="38.1197280" lon="-3.5993550">
        <ele>376.6</ele>
        <time>2018-06-16T10:22:17Z</time>
      </trkpt>
      <trkpt lat="38.1197270" lon="-3.5993670">
        <ele>376.6</ele>
        <time>2018-06-16T10:22:18Z</time>
      </trkpt>
      <trkpt lat="38.1197300" lon="-3.5993760">
        <ele>376.6</ele>
        <time>2018-06-16T10:22:19Z</time>
      </trkpt>
      <trkpt lat="38.1197310" lon="-3.5993830">
        <ele>376.6</ele>
        <time>2018-06-16T10:22:20Z</time>
      </trkpt>
      <trkpt lat="38.1197250" lon="-3.5993840">
        <ele>376.6</ele>
        <time>2018-06-16T10:22:21Z</time>
      </trkpt>
      <trkpt lat="38.1197200" lon="-3.5994120">
        <ele>376.6</ele>
        <time>2018-06-16T10:22:22Z</time>
      </trkpt>
      <trkpt lat="38.1197070" lon="-3.5994230">
        <ele>376.6</ele>
        <time>2018-06-16T10:22:23Z</time>
      </trkpt>
      <trkpt lat="38.1196900" lon="-3.5994350">
        <ele>376.6</ele>
        <time>2018-06-16T10:22:24Z</time>
      </trkpt>
      <trkpt lat="38.1196760" lon="-3.5994510">
        <ele>376.6</ele>
        <time>2018-06-16T10:22:25Z</time>
      </trkpt>
      <trkpt lat="38.1196690" lon="-3.5994650">
        <ele>376.8</ele>
        <time>2018-06-16T10:22:26Z</time>
      </trkpt>
      <trkpt lat="38.1196630" lon="-3.5994700">
        <ele>376.8</ele>
        <time>2018-06-16T10:22:27Z</time>
      </trkpt>
      <trkpt lat="38.1196540" lon="-3.5994760">
        <ele>376.8</ele>
        <time>2018-06-16T10:22:28Z</time>
      </trkpt>
      <trkpt lat="38.1196380" lon="-3.5994920">
        <ele>377.2</ele>
        <time>2018-06-16T10:22:29Z</time>
      </trkpt>
      <trkpt lat="38.1196330" lon="-3.5995140">
        <ele>377.2</ele>
        <time>2018-06-16T10:22:30Z</time>
      </trkpt>
      <trkpt lat="38.1196270" lon="-3.5995330">
        <ele>377.2</ele>
        <time>2018-06-16T10:22:31Z</time>
      </trkpt>
      <trkpt lat="38.1196330" lon="-3.5995490">
        <ele>377.2</ele>
        <time>2018-06-16T10:22:32Z</time>
      </trkpt>
      <trkpt lat="38.1196160" lon="-3.5995720">
        <ele>377.4</ele>
        <time>2018-06-16T10:22:33Z</time>
      </trkpt>
      <trkpt lat="38.1195890" lon="-3.5995890">
        <ele>377.6</ele>
        <time>2018-06-16T10:22:34Z</time>
      </trkpt>
      <trkpt lat="38.1195730" lon="-3.5996090">
        <ele>380.4</ele>
        <time>2018-06-16T10:22:35Z</time>
      </trkpt>
      <trkpt lat="38.1195640" lon="-3.5996330">
        <ele>370.6</ele>
        <time>2018-06-16T10:22:36Z</time>
      </trkpt>
      <trkpt lat="38.1195450" lon="-3.5996610">
        <ele>378.0</ele>
        <time>2018-06-16T10:22:37Z</time>
      </trkpt>
      <trkpt lat="38.1195390" lon="-3.5996770">
        <ele>377.8</ele>
        <time>2018-06-16T10:22:38Z</time>
      </trkpt>
      <trkpt lat="38.1195260" lon="-3.5996930">
        <ele>377.8</ele>
        <time>2018-06-16T10:22:39Z</time>
      </trkpt>
      <trkpt lat="38.1195270" lon="-3.5997100">
        <ele>378.0</ele>
        <time>2018-06-16T10:22:40Z</time>
      </trkpt>
      <trkpt lat="38.1195210" lon="-3.5997200">
        <ele>378.0</ele>
        <time>2018-06-16T10:22:41Z</time>
      </trkpt>
      <trkpt lat="38.1195140" lon="-3.5997320">
        <ele>378.2</ele>
        <time>2018-06-16T10:22:42Z</time>
      </trkpt>
      <trkpt lat="38.1195070" lon="-3.5997430">
        <ele>378.2</ele>
        <time>2018-06-16T10:22:43Z</time>
      </trkpt>
      <trkpt lat="38.1194890" lon="-3.5997690">
        <ele>378.2</ele>
        <time>2018-06-16T10:22:44Z</time>
      </trkpt>
      <trkpt lat="38.1194850" lon="-3.5997920">
        <ele>378.2</ele>
        <time>2018-06-16T10:22:45Z</time>
      </trkpt>
      <trkpt lat="38.1194740" lon="-3.5998060">
        <ele>378.4</ele>
        <time>2018-06-16T10:22:46Z</time>
      </trkpt>
      <trkpt lat="38.1194530" lon="-3.5998250">
        <ele>378.4</ele>
        <time>2018-06-16T10:22:47Z</time>
      </trkpt>
      <trkpt lat="38.1194350" lon="-3.5998390">
        <ele>378.6</ele>
        <time>2018-06-16T10:22:48Z</time>
      </trkpt>
      <trkpt lat="38.1194170" lon="-3.5998670">
        <ele>378.6</ele>
        <time>2018-06-16T10:22:49Z</time>
      </trkpt>
      <trkpt lat="38.1194030" lon="-3.5998980">
        <ele>378.8</ele>
        <time>2018-06-16T10:22:50Z</time>
      </trkpt>
      <trkpt lat="38.1194150" lon="-3.5999190">
        <ele>378.8</ele>
        <time>2018-06-16T10:22:51Z</time>
      </trkpt>
      <trkpt lat="38.1194000" lon="-3.5999360">
        <ele>379.0</ele>
        <time>2018-06-16T10:22:52Z</time>
      </trkpt>
      <trkpt lat="38.1193970" lon="-3.5999510">
        <ele>379.0</ele>
        <time>2018-06-16T10:22:53Z</time>
      </trkpt>
      <trkpt lat="38.1193950" lon="-3.5999700">
        <ele>379.0</ele>
        <time>2018-06-16T10:22:54Z</time>
      </trkpt>
      <trkpt lat="38.1193900" lon="-3.5999860">
        <ele>379.0</ele>
        <time>2018-06-16T10:22:55Z</time>
      </trkpt>
      <trkpt lat="38.1193870" lon="-3.5999900">
        <ele>379.2</ele>
        <time>2018-06-16T10:22:56Z</time>
      </trkpt>
      <trkpt lat="38.1193670" lon="-3.6000080">
        <ele>379.4</ele>
        <time>2018-06-16T10:22:57Z</time>
      </trkpt>
      <trkpt lat="38.1193540" lon="-3.6000240">
        <ele>379.6</ele>
        <time>2018-06-16T10:22:58Z</time>
      </trkpt>
      <trkpt lat="38.1193440" lon="-3.6000480">
        <ele>379.6</ele>
        <time>2018-06-16T10:22:59Z</time>
      </trkpt>
      <trkpt lat="38.1193460" lon="-3.6000780">
        <ele>379.4</ele>
        <time>2018-06-16T10:23:00Z</time>
      </trkpt>
      <trkpt lat="38.1193220" lon="-3.6001010">
        <ele>379.6</ele>
        <time>2018-06-16T10:23:01Z</time>
      </trkpt>
      <trkpt lat="38.1193100" lon="-3.6001220">
        <ele>379.6</ele>
        <time>2018-06-16T10:23:02Z</time>
      </trkpt>
      <trkpt lat="38.1192950" lon="-3.6001380">
        <ele>379.8</ele>
        <time>2018-06-16T10:23:03Z</time>
      </trkpt>
      <trkpt lat="38.1192850" lon="-3.6001620">
        <ele>379.8</ele>
        <time>2018-06-16T10:23:04Z</time>
      </trkpt>
      <trkpt lat="38.1192760" lon="-3.6001830">
        <ele>380.0</ele>
        <time>2018-06-16T10:23:05Z</time>
      </trkpt>
      <trkpt lat="38.1192590" lon="-3.6002010">
        <ele>380.0</ele>
        <time>2018-06-16T10:23:06Z</time>
      </trkpt>
      <trkpt lat="38.1192490" lon="-3.6002210">
        <ele>380.2</ele>
        <time>2018-06-16T10:23:07Z</time>
      </trkpt>
      <trkpt lat="38.1192470" lon="-3.6002380">
        <ele>380.2</ele>
        <time>2018-06-16T10:23:08Z</time>
      </trkpt>
      <trkpt lat="38.1192370" lon="-3.6002510">
        <ele>380.2</ele>
        <time>2018-06-16T10:23:09Z</time>
      </trkpt>
      <trkpt lat="38.1192270" lon="-3.6002810">
        <ele>380.4</ele>
        <time>2018-06-16T10:23:10Z</time>
      </trkpt>
      <trkpt lat="38.1192290" lon="-3.6003010">
        <ele>380.4</ele>
        <time>2018-06-16T10:23:11Z</time>
      </trkpt>
      <trkpt lat="38.1192180" lon="-3.6003170">
        <ele>380.4</ele>
        <time>2018-06-16T10:23:12Z</time>
      </trkpt>
      <trkpt lat="38.1192150" lon="-3.6003410">
        <ele>380.6</ele>
        <time>2018-06-16T10:23:13Z</time>
      </trkpt>
      <trkpt lat="38.1192080" lon="-3.6003750">
        <ele>380.8</ele>
        <time>2018-06-16T10:23:14Z</time>
      </trkpt>
      <trkpt lat="38.1191980" lon="-3.6003970">
        <ele>380.8</ele>
        <time>2018-06-16T10:23:15Z</time>
      </trkpt>
      <trkpt lat="38.1191830" lon="-3.6004040">
        <ele>381.0</ele>
        <time>2018-06-16T10:23:16Z</time>
      </trkpt>
      <trkpt lat="38.1191600" lon="-3.6004180">
        <ele>381.0</ele>
        <time>2018-06-16T10:23:17Z</time>
      </trkpt>
      <trkpt lat="38.1191570" lon="-3.6004340">
        <ele>381.0</ele>
        <time>2018-06-16T10:23:18Z</time>
      </trkpt>
      <trkpt lat="38.1191550" lon="-3.6004580">
        <ele>381.2</ele>
        <time>2018-06-16T10:23:19Z</time>
      </trkpt>
      <trkpt lat="38.1191420" lon="-3.6004750">
        <ele>381.4</ele>
        <time>2018-06-16T10:23:20Z</time>
      </trkpt>
      <trkpt lat="38.1191340" lon="-3.6005030">
        <ele>381.4</ele>
        <time>2018-06-16T10:23:21Z</time>
      </trkpt>
      <trkpt lat="38.1191270" lon="-3.6005090">
        <ele>381.4</ele>
        <time>2018-06-16T10:23:22Z</time>
      </trkpt>
      <trkpt lat="38.1191270" lon="-3.6005300">
        <ele>381.6</ele>
        <time>2018-06-16T10:23:23Z</time>
      </trkpt>
      <trkpt lat="38.1191120" lon="-3.6005680">
        <ele>381.6</ele>
        <time>2018-06-16T10:23:24Z</time>
      </trkpt>
      <trkpt lat="38.1190960" lon="-3.6006050">
        <ele>381.8</ele>
        <time>2018-06-16T10:23:25Z</time>
      </trkpt>
      <trkpt lat="38.1190900" lon="-3.6006320">
        <ele>381.8</ele>
        <time>2018-06-16T10:23:26Z</time>
      </trkpt>
      <trkpt lat="38.1190830" lon="-3.6006590">
        <ele>381.8</ele>
        <time>2018-06-16T10:23:27Z</time>
      </trkpt>
      <trkpt lat="38.1190720" lon="-3.6006650">
        <ele>382.0</ele>
        <time>2018-06-16T10:23:28Z</time>
      </trkpt>
      <trkpt lat="38.1190550" lon="-3.6006910">
        <ele>382.0</ele>
        <time>2018-06-16T10:23:29Z</time>
      </trkpt>
      <trkpt lat="38.1190410" lon="-3.6007030">
        <ele>382.2</ele>
        <time>2018-06-16T10:23:30Z</time>
      </trkpt>
      <trkpt lat="38.1190290" lon="-3.6007360">
        <ele>382.2</ele>
        <time>2018-06-16T10:23:31Z</time>
      </trkpt>
      <trkpt lat="38.1190210" lon="-3.6007470">
        <ele>382.2</ele>
        <time>2018-06-16T10:23:32Z</time>
      </trkpt>
      <trkpt lat="38.1190210" lon="-3.6007720">
        <ele>382.2</ele>
        <time>2018-06-16T10:23:33Z</time>
      </trkpt>
      <trkpt lat="38.1190100" lon="-3.6008140">
        <ele>382.4</ele>
        <time>2018-06-16T10:23:34Z</time>
      </trkpt>
      <trkpt lat="38.1190070" lon="-3.6008470">
        <ele>382.6</ele>
        <time>2018-06-16T10:23:35Z</time>
      </trkpt>
      <trkpt lat="38.1189960" lon="-3.6008380">
        <ele>382.6</ele>
        <time>2018-06-16T10:23:36Z</time>
      </trkpt>
      <trkpt lat="38.1189980" lon="-3.6008570">
        <ele>382.6</ele>
        <time>2018-06-16T10:23:37Z</time>
      </trkpt>
      <trkpt lat="38.1189910" lon="-3.6008720">
        <ele>382.6</ele>
        <time>2018-06-16T10:23:38Z</time>
      </trkpt>
      <trkpt lat="38.1189860" lon="-3.6008940">
        <ele>382.8</ele>
        <time>2018-06-16T10:23:39Z</time>
      </trkpt>
      <trkpt lat="38.1189760" lon="-3.6009130">
        <ele>382.8</ele>
        <time>2018-06-16T10:23:40Z</time>
      </trkpt>
      <trkpt lat="38.1189640" lon="-3.6009290">
        <ele>382.8</ele>
        <time>2018-06-16T10:23:41Z</time>
      </trkpt>
      <trkpt lat="38.1189520" lon="-3.6009500">
        <ele>383.0</ele>
        <time>2018-06-16T10:23:42Z</time>
      </trkpt>
      <trkpt lat="38.1189410" lon="-3.6009720">
        <ele>383.0</ele>
        <time>2018-06-16T10:23:43Z</time>
      </trkpt>
      <trkpt lat="38.1189280" lon="-3.6009890">
        <ele>383.0</ele>
        <time>2018-06-16T10:23:44Z</time>
      </trkpt>
      <trkpt lat="38.1189240" lon="-3.6010140">
        <ele>383.4</ele>
        <time>2018-06-16T10:23:45Z</time>
      </trkpt>
      <trkpt lat="38.1189110" lon="-3.6010330">
        <ele>383.4</ele>
        <time>2018-06-16T10:23:46Z</time>
      </trkpt>
      <trkpt lat="38.1189100" lon="-3.6010690">
        <ele>383.4</ele>
        <time>2018-06-16T10:23:47Z</time>
      </trkpt>
      <trkpt lat="38.1189060" lon="-3.6010960">
        <ele>383.6</ele>
        <time>2018-06-16T10:23:48Z</time>
      </trkpt>
      <trkpt lat="38.1189100" lon="-3.6011230">
        <ele>383.6</ele>
        <time>2018-06-16T10:23:49Z</time>
      </trkpt>
      <trkpt lat="38.1189090" lon="-3.6011480">
        <ele>383.6</ele>
        <time>2018-06-16T10:23:50Z</time>
      </trkpt>
      <trkpt lat="38.1188880" lon="-3.6011570">
        <ele>383.8</ele>
        <time>2018-06-16T10:23:51Z</time>
      </trkpt>
      <trkpt lat="38.1188720" lon="-3.6011740">
        <ele>384.0</ele>
        <time>2018-06-16T10:23:52Z</time>
      </trkpt>
      <trkpt lat="38.1188640" lon="-3.6011920">
        <ele>384.0</ele>
        <time>2018-06-16T10:23:53Z</time>
      </trkpt>
      <trkpt lat="38.1188390" lon="-3.6012240">
        <ele>384.2</ele>
        <time>2018-06-16T10:23:54Z</time>
      </trkpt>
      <trkpt lat="38.1188350" lon="-3.6012550">
        <ele>384.2</ele>
        <time>2018-06-16T10:23:55Z</time>
      </trkpt>
      <trkpt lat="38.1188310" lon="-3.6012800">
        <ele>384.2</ele>
        <time>2018-06-16T10:23:56Z</time>
      </trkpt>
      <trkpt lat="38.1188290" lon="-3.6013230">
        <ele>384.4</ele>
        <time>2018-06-16T10:23:57Z</time>
      </trkpt>
      <trkpt lat="38.1188240" lon="-3.6013340">
        <ele>384.4</ele>
        <time>2018-06-16T10:23:58Z</time>
      </trkpt>
      <trkpt lat="38.1188020" lon="-3.6013420">
        <ele>384.6</ele>
        <time>2018-06-16T10:23:59Z</time>
      </trkpt>
      <trkpt lat="38.1188140" lon="-3.6013730">
        <ele>384.6</ele>
        <time>2018-06-16T10:24:00Z</time>
      </trkpt>
      <trkpt lat="38.1188020" lon="-3.6013830">
        <ele>384.8</ele>
        <time>2018-06-16T10:24:01Z</time>
      </trkpt>
      <trkpt lat="38.1187960" lon="-3.6014270">
        <ele>385.0</ele>
        <time>2018-06-16T10:24:02Z</time>
      </trkpt>
      <trkpt lat="38.1188050" lon="-3.6014640">
        <ele>384.8</ele>
        <time>2018-06-16T10:24:03Z</time>
      </trkpt>
      <trkpt lat="38.1188110" lon="-3.6014860">
        <ele>384.8</ele>
        <time>2018-06-16T10:24:04Z</time>
      </trkpt>
      <trkpt lat="38.1188050" lon="-3.6015170">
        <ele>385.0</ele>
        <time>2018-06-16T10:24:05Z</time>
      </trkpt>
      <trkpt lat="38.1187870" lon="-3.6015410">
        <ele>385.2</ele>
        <time>2018-06-16T10:24:06Z</time>
      </trkpt>
      <trkpt lat="38.1187740" lon="-3.6015600">
        <ele>385.2</ele>
        <time>2018-06-16T10:24:07Z</time>
      </trkpt>
      <trkpt lat="38.1187590" lon="-3.6015950">
        <ele>385.4</ele>
        <time>2018-06-16T10:24:08Z</time>
      </trkpt>
      <trkpt lat="38.1187470" lon="-3.6016110">
        <ele>385.4</ele>
        <time>2018-06-16T10:24:09Z</time>
      </trkpt>
      <trkpt lat="38.1187430" lon="-3.6016230">
        <ele>385.4</ele>
        <time>2018-06-16T10:24:10Z</time>
      </trkpt>
      <trkpt lat="38.1187360" lon="-3.6016490">
        <ele>385.6</ele>
        <time>2018-06-16T10:24:11Z</time>
      </trkpt>
      <trkpt lat="38.1187280" lon="-3.6016690">
        <ele>385.6</ele>
        <time>2018-06-16T10:24:12Z</time>
      </trkpt>
      <trkpt lat="38.1187140" lon="-3.6016910">
        <ele>385.8</ele>
        <time>2018-06-16T10:24:13Z</time>
      </trkpt>
      <trkpt lat="38.1186970" lon="-3.6017170">
        <ele>385.8</ele>
        <time>2018-06-16T10:24:14Z</time>
      </trkpt>
      <trkpt lat="38.1186940" lon="-3.6017380">
        <ele>385.8</ele>
        <time>2018-06-16T10:24:15Z</time>
      </trkpt>
      <trkpt lat="38.1186800" lon="-3.6017610">
        <ele>386.0</ele>
        <time>2018-06-16T10:24:16Z</time>
      </trkpt>
      <trkpt lat="38.1186930" lon="-3.6017930">
        <ele>386.0</ele>
        <time>2018-06-16T10:24:17Z</time>
      </trkpt>
      <trkpt lat="38.1187030" lon="-3.6018280">
        <ele>386.2</ele>
        <time>2018-06-16T10:24:18Z</time>
      </trkpt>
      <trkpt lat="38.1187110" lon="-3.6018620">
        <ele>386.2</ele>
        <time>2018-06-16T10:24:19Z</time>
      </trkpt>
      <trkpt lat="38.1187020" lon="-3.6018910">
        <ele>386.4</ele>
        <time>2018-06-16T10:24:20Z</time>
      </trkpt>
      <trkpt lat="38.1186980" lon="-3.6019110">
        <ele>386.4</ele>
        <time>2018-06-16T10:24:21Z</time>
      </trkpt>
      <trkpt lat="38.1186880" lon="-3.6019330">
        <ele>386.4</ele>
        <time>2018-06-16T10:24:22Z</time>
      </trkpt>
      <trkpt lat="38.1186980" lon="-3.6019630">
        <ele>386.4</ele>
        <time>2018-06-16T10:24:23Z</time>
      </trkpt>
      <trkpt lat="38.1187110" lon="-3.6019930">
        <ele>386.4</ele>
        <time>2018-06-16T10:24:24Z</time>
      </trkpt>
      <trkpt lat="38.1187140" lon="-3.6020320">
        <ele>386.4</ele>
        <time>2018-06-16T10:24:25Z</time>
      </trkpt>
      <trkpt lat="38.1187210" lon="-3.6020730">
        <ele>386.6</ele>
        <time>2018-06-16T10:24:26Z</time>
      </trkpt>
      <trkpt lat="38.1187350" lon="-3.6020930">
        <ele>386.6</ele>
        <time>2018-06-16T10:24:27Z</time>
      </trkpt>
      <trkpt lat="38.1187390" lon="-3.6021250">
        <ele>386.8</ele>
        <time>2018-06-16T10:24:28Z</time>
      </trkpt>
      <trkpt lat="38.1187340" lon="-3.6021610">
        <ele>386.8</ele>
        <time>2018-06-16T10:24:29Z</time>
      </trkpt>
      <trkpt lat="38.1187350" lon="-3.6021740">
        <ele>386.8</ele>
        <time>2018-06-16T10:24:30Z</time>
      </trkpt>
      <trkpt lat="38.1187270" lon="-3.6021940">
        <ele>387.0</ele>
        <time>2018-06-16T10:24:31Z</time>
      </trkpt>
      <trkpt lat="38.1187290" lon="-3.6022060">
        <ele>387.0</ele>
        <time>2018-06-16T10:24:32Z</time>
      </trkpt>
      <trkpt lat="38.1187270" lon="-3.6022320">
        <ele>387.2</ele>
        <time>2018-06-16T10:24:33Z</time>
      </trkpt>
      <trkpt lat="38.1187210" lon="-3.6022730">
        <ele>387.2</ele>
        <time>2018-06-16T10:24:34Z</time>
      </trkpt>
      <trkpt lat="38.1187380" lon="-3.6022930">
        <ele>387.2</ele>
        <time>2018-06-16T10:24:35Z</time>
      </trkpt>
      <trkpt lat="38.1187450" lon="-3.6023310">
        <ele>387.2</ele>
        <time>2018-06-16T10:24:36Z</time>
      </trkpt>
      <trkpt lat="38.1187440" lon="-3.6023520">
        <ele>387.4</ele>
        <time>2018-06-16T10:24:37Z</time>
      </trkpt>
      <trkpt lat="38.1187500" lon="-3.6023870">
        <ele>387.4</ele>
        <time>2018-06-16T10:24:38Z</time>
      </trkpt>
      <trkpt lat="38.1187450" lon="-3.6024290">
        <ele>387.4</ele>
        <time>2018-06-16T10:24:39Z</time>
      </trkpt>
      <trkpt lat="38.1187470" lon="-3.6024450">
        <ele>387.4</ele>
        <time>2018-06-16T10:24:40Z</time>
      </trkpt>
      <trkpt lat="38.1187550" lon="-3.6024780">
        <ele>387.6</ele>
        <time>2018-06-16T10:24:41Z</time>
      </trkpt>
      <trkpt lat="38.1187420" lon="-3.6025040">
        <ele>387.6</ele>
        <time>2018-06-16T10:24:42Z</time>
      </trkpt>
      <trkpt lat="38.1187250" lon="-3.6025360">
        <ele>387.6</ele>
        <time>2018-06-16T10:24:43Z</time>
      </trkpt>
      <trkpt lat="38.1187160" lon="-3.6025840">
        <ele>387.6</ele>
        <time>2018-06-16T10:24:44Z</time>
      </trkpt>
      <trkpt lat="38.1187100" lon="-3.6025990">
        <ele>387.8</ele>
        <time>2018-06-16T10:24:45Z</time>
      </trkpt>
      <trkpt lat="38.1187060" lon="-3.6026340">
        <ele>387.8</ele>
        <time>2018-06-16T10:24:46Z</time>
      </trkpt>
      <trkpt lat="38.1186940" lon="-3.6026590">
        <ele>387.8</ele>
        <time>2018-06-16T10:24:47Z</time>
      </trkpt>
      <trkpt lat="38.1186770" lon="-3.6026790">
        <ele>387.8</ele>
        <time>2018-06-16T10:24:48Z</time>
      </trkpt>
      <trkpt lat="38.1186620" lon="-3.6026950">
        <ele>388.0</ele>
        <time>2018-06-16T10:24:49Z</time>
      </trkpt>
      <trkpt lat="38.1186410" lon="-3.6027240">
        <ele>388.0</ele>
        <time>2018-06-16T10:24:50Z</time>
      </trkpt>
      <trkpt lat="38.1186320" lon="-3.6027340">
        <ele>388.0</ele>
        <time>2018-06-16T10:24:51Z</time>
      </trkpt>
      <trkpt lat="38.1186000" lon="-3.6027480">
        <ele>388.0</ele>
        <time>2018-06-16T10:24:52Z</time>
      </trkpt>
      <trkpt lat="38.1185780" lon="-3.6027640">
        <ele>388.2</ele>
        <time>2018-06-16T10:24:53Z</time>
      </trkpt>
      <trkpt lat="38.1185570" lon="-3.6027760">
        <ele>388.2</ele>
        <time>2018-06-16T10:24:54Z</time>
      </trkpt>
      <trkpt lat="38.1185480" lon="-3.6027810">
        <ele>388.2</ele>
        <time>2018-06-16T10:24:55Z</time>
      </trkpt>
      <trkpt lat="38.1185280" lon="-3.6027880">
        <ele>388.2</ele>
        <time>2018-06-16T10:24:56Z</time>
      </trkpt>
      <trkpt lat="38.1185230" lon="-3.6027970">
        <ele>388.4</ele>
        <time>2018-06-16T10:24:57Z</time>
      </trkpt>
      <trkpt lat="38.1184990" lon="-3.6028090">
        <ele>388.4</ele>
        <time>2018-06-16T10:24:58Z</time>
      </trkpt>
      <trkpt lat="38.1184870" lon="-3.6028140">
        <ele>388.4</ele>
        <time>2018-06-16T10:24:59Z</time>
      </trkpt>
      <trkpt lat="38.1184700" lon="-3.6028280">
        <ele>388.4</ele>
        <time>2018-06-16T10:25:00Z</time>
      </trkpt>
      <trkpt lat="38.1184340" lon="-3.6028430">
        <ele>388.4</ele>
        <time>2018-06-16T10:25:01Z</time>
      </trkpt>
      <trkpt lat="38.1183970" lon="-3.6028500">
        <ele>388.4</ele>
        <time>2018-06-16T10:25:02Z</time>
      </trkpt>
      <trkpt lat="38.1183890" lon="-3.6028510">
        <ele>388.6</ele>
        <time>2018-06-16T10:25:03Z</time>
      </trkpt>
      <trkpt lat="38.1183690" lon="-3.6028550">
        <ele>388.4</ele>
        <time>2018-06-16T10:25:04Z</time>
      </trkpt>
      <trkpt lat="38.1183500" lon="-3.6028620">
        <ele>388.4</ele>
        <time>2018-06-16T10:25:05Z</time>
      </trkpt>
      <trkpt lat="38.1183280" lon="-3.6028570">
        <ele>388.6</ele>
        <time>2018-06-16T10:25:06Z</time>
      </trkpt>
      <trkpt lat="38.1183070" lon="-3.6028490">
        <ele>388.6</ele>
        <time>2018-06-16T10:25:07Z</time>
      </trkpt>
      <trkpt lat="38.1182860" lon="-3.6028490">
        <ele>388.6</ele>
        <time>2018-06-16T10:25:08Z</time>
      </trkpt>
      <trkpt lat="38.1182690" lon="-3.6028460">
        <ele>388.6</ele>
        <time>2018-06-16T10:25:09Z</time>
      </trkpt>
      <trkpt lat="38.1182580" lon="-3.6028310">
        <ele>388.4</ele>
        <time>2018-06-16T10:25:10Z</time>
      </trkpt>
      <trkpt lat="38.1182560" lon="-3.6028110">
        <ele>388.2</ele>
        <time>2018-06-16T10:25:11Z</time>
      </trkpt>
      <trkpt lat="38.1182400" lon="-3.6028070">
        <ele>388.4</ele>
        <time>2018-06-16T10:25:12Z</time>
      </trkpt>
      <trkpt lat="38.1182140" lon="-3.6027940">
        <ele>388.4</ele>
        <time>2018-06-16T10:25:13Z</time>
      </trkpt>
      <trkpt lat="38.1181920" lon="-3.6027720">
        <ele>388.4</ele>
        <time>2018-06-16T10:25:14Z</time>
      </trkpt>
      <trkpt lat="38.1181550" lon="-3.6027520">
        <ele>388.2</ele>
        <time>2018-06-16T10:25:15Z</time>
      </trkpt>
      <trkpt lat="38.1181470" lon="-3.6027250">
        <ele>388.0</ele>
        <time>2018-06-16T10:25:16Z</time>
      </trkpt>
      <trkpt lat="38.1181200" lon="-3.6026870">
        <ele>388.0</ele>
        <time>2018-06-16T10:25:17Z</time>
      </trkpt>
      <trkpt lat="38.1180900" lon="-3.6026570">
        <ele>388.0</ele>
        <time>2018-06-16T10:25:18Z</time>
      </trkpt>
      <trkpt lat="38.1180600" lon="-3.6026090">
        <ele>387.6</ele>
        <time>2018-06-16T10:25:19Z</time>
      </trkpt>
      <trkpt lat="38.1180260" lon="-3.6025680">
        <ele>387.8</ele>
        <time>2018-06-16T10:25:20Z</time>
      </trkpt>
      <trkpt lat="38.1180040" lon="-3.6025280">
        <ele>387.6</ele>
        <time>2018-06-16T10:25:21Z</time>
      </trkpt>
      <trkpt lat="38.1179640" lon="-3.6024700">
        <ele>387.4</ele>
        <time>2018-06-16T10:25:22Z</time>
      </trkpt>
      <trkpt lat="38.1179350" lon="-3.6024350">
        <ele>387.2</ele>
        <time>2018-06-16T10:25:23Z</time>
      </trkpt>
      <trkpt lat="38.1178910" lon="-3.6023910">
        <ele>386.8</ele>
        <time>2018-06-16T10:25:24Z</time>
      </trkpt>
      <trkpt lat="38.1178340" lon="-3.6023650">
        <ele>386.4</ele>
        <time>2018-06-16T10:25:25Z</time>
      </trkpt>
      <trkpt lat="38.1177610" lon="-3.6023420">
        <ele>386.0</ele>
        <time>2018-06-16T10:25:26Z</time>
      </trkpt>
      <trkpt lat="38.1176870" lon="-3.6023010">
        <ele>385.4</ele>
        <time>2018-06-16T10:25:27Z</time>
      </trkpt>
      <trkpt lat="38.1176250" lon="-3.6022870">
        <ele>384.8</ele>
        <time>2018-06-16T10:25:28Z</time>
      </trkpt>
      <trkpt lat="38.1175540" lon="-3.6022880">
        <ele>384.4</ele>
        <time>2018-06-16T10:25:29Z</time>
      </trkpt>
      <trkpt lat="38.1174860" lon="-3.6023090">
        <ele>383.8</ele>
        <time>2018-06-16T10:25:30Z</time>
      </trkpt>
      <trkpt lat="38.1174150" lon="-3.6023190">
        <ele>383.4</ele>
        <time>2018-06-16T10:25:31Z</time>
      </trkpt>
      <trkpt lat="38.1173410" lon="-3.6023480">
        <ele>383.0</ele>
        <time>2018-06-16T10:25:32Z</time>
      </trkpt>
      <trkpt lat="38.1172670" lon="-3.6023790">
        <ele>382.8</ele>
        <time>2018-06-16T10:25:33Z</time>
      </trkpt>
      <trkpt lat="38.1171950" lon="-3.6024290">
        <ele>382.6</ele>
        <time>2018-06-16T10:25:34Z</time>
      </trkpt>
      <trkpt lat="38.1171240" lon="-3.6024680">
        <ele>382.2</ele>
        <time>2018-06-16T10:25:35Z</time>
      </trkpt>
      <trkpt lat="38.1170440" lon="-3.6025220">
        <ele>382.0</ele>
        <time>2018-06-16T10:25:36Z</time>
      </trkpt>
      <trkpt lat="38.1169880" lon="-3.6025890">
        <ele>382.0</ele>
        <time>2018-06-16T10:25:37Z</time>
      </trkpt>
      <trkpt lat="38.1169210" lon="-3.6026390">
        <ele>381.6</ele>
        <time>2018-06-16T10:25:38Z</time>
      </trkpt>
      <trkpt lat="38.1168660" lon="-3.6026910">
        <ele>381.6</ele>
        <time>2018-06-16T10:25:39Z</time>
      </trkpt>
      <trkpt lat="38.1167900" lon="-3.6027360">
        <ele>381.4</ele>
        <time>2018-06-16T10:25:40Z</time>
      </trkpt>
      <trkpt lat="38.1167230" lon="-3.6027950">
        <ele>380.8</ele>
        <time>2018-06-16T10:25:41Z</time>
      </trkpt>
      <trkpt lat="38.1166550" lon="-3.6028440">
        <ele>380.6</ele>
        <time>2018-06-16T10:25:42Z</time>
      </trkpt>
      <trkpt lat="38.1165830" lon="-3.6029020">
        <ele>380.2</ele>
        <time>2018-06-16T10:25:43Z</time>
      </trkpt>
      <trkpt lat="38.1165080" lon="-3.6029390">
        <ele>379.8</ele>
        <time>2018-06-16T10:25:44Z</time>
      </trkpt>
      <trkpt lat="38.1164300" lon="-3.6029850">
        <ele>379.4</ele>
        <time>2018-06-16T10:25:45Z</time>
      </trkpt>
      <trkpt lat="38.1163500" lon="-3.6030250">
        <ele>378.8</ele>
        <time>2018-06-16T10:25:46Z</time>
      </trkpt>
      <trkpt lat="38.1162770" lon="-3.6030660">
        <ele>378.8</ele>
        <time>2018-06-16T10:25:47Z</time>
      </trkpt>
      <trkpt lat="38.1161960" lon="-3.6031050">
        <ele>378.4</ele>
        <time>2018-06-16T10:25:48Z</time>
      </trkpt>
      <trkpt lat="38.1161160" lon="-3.6031430">
        <ele>378.2</ele>
        <time>2018-06-16T10:25:49Z</time>
      </trkpt>
      <trkpt lat="38.1160240" lon="-3.6031890">
        <ele>378.0</ele>
        <time>2018-06-16T10:25:50Z</time>
      </trkpt>
      <trkpt lat="38.1159670" lon="-3.6032370">
        <ele>377.6</ele>
        <time>2018-06-16T10:25:51Z</time>
      </trkpt>
      <trkpt lat="38.1159100" lon="-3.6032710">
        <ele>377.8</ele>
        <time>2018-06-16T10:25:52Z</time>
      </trkpt>
      <trkpt lat="38.1158330" lon="-3.6033060">
        <ele>377.6</ele>
        <time>2018-06-16T10:25:53Z</time>
      </trkpt>
      <trkpt lat="38.1157780" lon="-3.6033480">
        <ele>377.4</ele>
        <time>2018-06-16T10:25:54Z</time>
      </trkpt>
      <trkpt lat="38.1157120" lon="-3.6033700">
        <ele>377.4</ele>
        <time>2018-06-16T10:25:55Z</time>
      </trkpt>
      <trkpt lat="38.1156310" lon="-3.6033860">
        <ele>377.6</ele>
        <time>2018-06-16T10:25:56Z</time>
      </trkpt>
      <trkpt lat="38.1155500" lon="-3.6034110">
        <ele>377.2</ele>
        <time>2018-06-16T10:25:57Z</time>
      </trkpt>
      <trkpt lat="38.1154690" lon="-3.6034330">
        <ele>377.4</ele>
        <time>2018-06-16T10:25:58Z</time>
      </trkpt>
      <trkpt lat="38.1154050" lon="-3.6034570">
        <ele>377.0</ele>
        <time>2018-06-16T10:25:59Z</time>
      </trkpt>
      <trkpt lat="38.1153320" lon="-3.6034800">
        <ele>377.0</ele>
        <time>2018-06-16T10:26:00Z</time>
      </trkpt>
      <trkpt lat="38.1152490" lon="-3.6034970">
        <ele>377.0</ele>
        <time>2018-06-16T10:26:01Z</time>
      </trkpt>
      <trkpt lat="38.1151690" lon="-3.6035300">
        <ele>377.2</ele>
        <time>2018-06-16T10:26:02Z</time>
      </trkpt>
      <trkpt lat="38.1150890" lon="-3.6035520">
        <ele>377.2</ele>
        <time>2018-06-16T10:26:03Z</time>
      </trkpt>
      <trkpt lat="38.1150240" lon="-3.6035890">
        <ele>377.4</ele>
        <time>2018-06-16T10:26:04Z</time>
      </trkpt>
      <trkpt lat="38.1149590" lon="-3.6036390">
        <ele>377.6</ele>
        <time>2018-06-16T10:26:05Z</time>
      </trkpt>
      <trkpt lat="38.1148960" lon="-3.6036910">
        <ele>377.6</ele>
        <time>2018-06-16T10:26:06Z</time>
      </trkpt>
      <trkpt lat="38.1148350" lon="-3.6037470">
        <ele>377.8</ele>
        <time>2018-06-16T10:26:07Z</time>
      </trkpt>
      <trkpt lat="38.1147850" lon="-3.6037950">
        <ele>377.8</ele>
        <time>2018-06-16T10:26:08Z</time>
      </trkpt>
      <trkpt lat="38.1147440" lon="-3.6038400">
        <ele>378.0</ele>
        <time>2018-06-16T10:26:09Z</time>
      </trkpt>
      <trkpt lat="38.1147130" lon="-3.6038900">
        <ele>378.2</ele>
        <time>2018-06-16T10:26:10Z</time>
      </trkpt>
      <trkpt lat="38.1146800" lon="-3.6039470">
        <ele>378.6</ele>
        <time>2018-06-16T10:26:11Z</time>
      </trkpt>
      <trkpt lat="38.1146380" lon="-3.6039940">
        <ele>378.8</ele>
        <time>2018-06-16T10:26:12Z</time>
      </trkpt>
      <trkpt lat="38.1146080" lon="-3.6040390">
        <ele>378.8</ele>
        <time>2018-06-16T10:26:13Z</time>
      </trkpt>
      <trkpt lat="38.1145840" lon="-3.6040880">
        <ele>379.0</ele>
        <time>2018-06-16T10:26:14Z</time>
      </trkpt>
      <trkpt lat="38.1145570" lon="-3.6041260">
        <ele>379.2</ele>
        <time>2018-06-16T10:26:15Z</time>
      </trkpt>
      <trkpt lat="38.1145490" lon="-3.6041750">
        <ele>379.2</ele>
        <time>2018-06-16T10:26:16Z</time>
      </trkpt>
      <trkpt lat="38.1145370" lon="-3.6042170">
        <ele>379.4</ele>
        <time>2018-06-16T10:26:17Z</time>
      </trkpt>
      <trkpt lat="38.1145240" lon="-3.6042560">
        <ele>379.6</ele>
        <time>2018-06-16T10:26:18Z</time>
      </trkpt>
      <trkpt lat="38.1145080" lon="-3.6043160">
        <ele>379.8</ele>
        <time>2018-06-16T10:26:19Z</time>
      </trkpt>
      <trkpt lat="38.1144890" lon="-3.6043430">
        <ele>380.0</ele>
        <time>2018-06-16T10:26:20Z</time>
      </trkpt>
      <trkpt lat="38.1144760" lon="-3.6043850">
        <ele>380.2</ele>
        <time>2018-06-16T10:26:21Z</time>
      </trkpt>
      <trkpt lat="38.1144630" lon="-3.6044290">
        <ele>380.2</ele>
        <time>2018-06-16T10:26:22Z</time>
      </trkpt>
      <trkpt lat="38.1144590" lon="-3.6044670">
        <ele>380.4</ele>
        <time>2018-06-16T10:26:23Z</time>
      </trkpt>
      <trkpt lat="38.1144480" lon="-3.6045070">
        <ele>380.6</ele>
        <time>2018-06-16T10:26:24Z</time>
      </trkpt>
      <trkpt lat="38.1144320" lon="-3.6045520">
        <ele>380.6</ele>
        <time>2018-06-16T10:26:25Z</time>
      </trkpt>
      <trkpt lat="38.1144180" lon="-3.6045950">
        <ele>380.6</ele>
        <time>2018-06-16T10:26:26Z</time>
      </trkpt>
      <trkpt lat="38.1144060" lon="-3.6046390">
        <ele>380.8</ele>
        <time>2018-06-16T10:26:27Z</time>
      </trkpt>
      <trkpt lat="38.1143910" lon="-3.6046720">
        <ele>381.0</ele>
        <time>2018-06-16T10:26:28Z</time>
      </trkpt>
      <trkpt lat="38.1143690" lon="-3.6046940">
        <ele>381.0</ele>
        <time>2018-06-16T10:26:29Z</time>
      </trkpt>
      <trkpt lat="38.1143520" lon="-3.6047330">
        <ele>381.6</ele>
        <time>2018-06-16T10:26:30Z</time>
      </trkpt>
      <trkpt lat="38.1143320" lon="-3.6047730">
        <ele>381.4</ele>
        <time>2018-06-16T10:26:31Z</time>
      </trkpt>
      <trkpt lat="38.1143240" lon="-3.6047980">
        <ele>381.2</ele>
        <time>2018-06-16T10:26:32Z</time>
      </trkpt>
      <trkpt lat="38.1143070" lon="-3.6048550">
        <ele>381.8</ele>
        <time>2018-06-16T10:26:33Z</time>
      </trkpt>
      <trkpt lat="38.1142880" lon="-3.6048970">
        <ele>381.8</ele>
        <time>2018-06-16T10:26:34Z</time>
      </trkpt>
      <trkpt lat="38.1142720" lon="-3.6049280">
        <ele>381.8</ele>
        <time>2018-06-16T10:26:35Z</time>
      </trkpt>
      <trkpt lat="38.1142560" lon="-3.6049530">
        <ele>382.0</ele>
        <time>2018-06-16T10:26:36Z</time>
      </trkpt>
      <trkpt lat="38.1142530" lon="-3.6049950">
        <ele>382.0</ele>
        <time>2018-06-16T10:26:37Z</time>
      </trkpt>
      <trkpt lat="38.1142240" lon="-3.6050510">
        <ele>382.4</ele>
        <time>2018-06-16T10:26:38Z</time>
      </trkpt>
      <trkpt lat="38.1142230" lon="-3.6050830">
        <ele>382.4</ele>
        <time>2018-06-16T10:26:39Z</time>
      </trkpt>
      <trkpt lat="38.1142060" lon="-3.6051360">
        <ele>382.6</ele>
        <time>2018-06-16T10:26:40Z</time>
      </trkpt>
      <trkpt lat="38.1141860" lon="-3.6051730">
        <ele>382.8</ele>
        <time>2018-06-16T10:26:41Z</time>
      </trkpt>
      <trkpt lat="38.1141780" lon="-3.6052050">
        <ele>382.8</ele>
        <time>2018-06-16T10:26:42Z</time>
      </trkpt>
      <trkpt lat="38.1141590" lon="-3.6052410">
        <ele>383.0</ele>
        <time>2018-06-16T10:26:43Z</time>
      </trkpt>
      <trkpt lat="38.1141390" lon="-3.6052800">
        <ele>383.2</ele>
        <time>2018-06-16T10:26:44Z</time>
      </trkpt>
      <trkpt lat="38.1141220" lon="-3.6053120">
        <ele>383.2</ele>
        <time>2018-06-16T10:26:45Z</time>
      </trkpt>
      <trkpt lat="38.1141080" lon="-3.6053390">
        <ele>383.2</ele>
        <time>2018-06-16T10:26:46Z</time>
      </trkpt>
      <trkpt lat="38.1140980" lon="-3.6053680">
        <ele>383.2</ele>
        <time>2018-06-16T10:26:47Z</time>
      </trkpt>
      <trkpt lat="38.1140860" lon="-3.6053960">
        <ele>383.4</ele>
        <time>2018-06-16T10:26:48Z</time>
      </trkpt>
      <trkpt lat="38.1140740" lon="-3.6054220">
        <ele>383.6</ele>
        <time>2018-06-16T10:26:49Z</time>
      </trkpt>
      <trkpt lat="38.1140660" lon="-3.6054410">
        <ele>383.6</ele>
        <time>2018-06-16T10:26:50Z</time>
      </trkpt>
      <trkpt lat="38.1140530" lon="-3.6054890">
        <ele>383.8</ele>
        <time>2018-06-16T10:26:51Z</time>
      </trkpt>
      <trkpt lat="38.1140450" lon="-3.6055300">
        <ele>384.0</ele>
        <time>2018-06-16T10:26:52Z</time>
      </trkpt>
      <trkpt lat="38.1140360" lon="-3.6055570">
        <ele>384.2</ele>
        <time>2018-06-16T10:26:53Z</time>
      </trkpt>
      <trkpt lat="38.1140220" lon="-3.6055870">
        <ele>384.0</ele>
        <time>2018-06-16T10:26:54Z</time>
      </trkpt>
      <trkpt lat="38.1140150" lon="-3.6056210">
        <ele>384.2</ele>
        <time>2018-06-16T10:26:55Z</time>
      </trkpt>
      <trkpt lat="38.1140190" lon="-3.6056550">
        <ele>384.2</ele>
        <time>2018-06-16T10:26:56Z</time>
      </trkpt>
      <trkpt lat="38.1140140" lon="-3.6056870">
        <ele>384.2</ele>
        <time>2018-06-16T10:26:57Z</time>
      </trkpt>
      <trkpt lat="38.1139940" lon="-3.6057090">
        <ele>384.4</ele>
        <time>2018-06-16T10:26:58Z</time>
      </trkpt>
      <trkpt lat="38.1139720" lon="-3.6057460">
        <ele>384.4</ele>
        <time>2018-06-16T10:26:59Z</time>
      </trkpt>
      <trkpt lat="38.1139490" lon="-3.6057680">
        <ele>384.6</ele>
        <time>2018-06-16T10:27:00Z</time>
      </trkpt>
      <trkpt lat="38.1139330" lon="-3.6057970">
        <ele>384.8</ele>
        <time>2018-06-16T10:27:01Z</time>
      </trkpt>
      <trkpt lat="38.1139290" lon="-3.6058260">
        <ele>384.6</ele>
        <time>2018-06-16T10:27:02Z</time>
      </trkpt>
      <trkpt lat="38.1138970" lon="-3.6058530">
        <ele>384.8</ele>
        <time>2018-06-16T10:27:03Z</time>
      </trkpt>
      <trkpt lat="38.1138750" lon="-3.6058830">
        <ele>384.8</ele>
        <time>2018-06-16T10:27:04Z</time>
      </trkpt>
      <trkpt lat="38.1138570" lon="-3.6059150">
        <ele>385.0</ele>
        <time>2018-06-16T10:27:05Z</time>
      </trkpt>
      <trkpt lat="38.1138440" lon="-3.6059520">
        <ele>385.0</ele>
        <time>2018-06-16T10:27:06Z</time>
      </trkpt>
      <trkpt lat="38.1138500" lon="-3.6059770">
        <ele>385.2</ele>
        <time>2018-06-16T10:27:07Z</time>
      </trkpt>
      <trkpt lat="38.1138410" lon="-3.6060080">
        <ele>385.2</ele>
        <time>2018-06-16T10:27:08Z</time>
      </trkpt>
      <trkpt lat="38.1138020" lon="-3.6060340">
        <ele>385.4</ele>
        <time>2018-06-16T10:27:09Z</time>
      </trkpt>
      <trkpt lat="38.1137780" lon="-3.6060720">
        <ele>385.4</ele>
        <time>2018-06-16T10:27:10Z</time>
      </trkpt>
      <trkpt lat="38.1137640" lon="-3.6060890">
        <ele>385.6</ele>
        <time>2018-06-16T10:27:11Z</time>
      </trkpt>
      <trkpt lat="38.1137500" lon="-3.6061070">
        <ele>385.6</ele>
        <time>2018-06-16T10:27:12Z</time>
      </trkpt>
      <trkpt lat="38.1137360" lon="-3.6061240">
        <ele>385.6</ele>
        <time>2018-06-16T10:27:13Z</time>
      </trkpt>
      <trkpt lat="38.1137150" lon="-3.6061550">
        <ele>385.6</ele>
        <time>2018-06-16T10:27:14Z</time>
      </trkpt>
      <trkpt lat="38.1136890" lon="-3.6061890">
        <ele>385.8</ele>
        <time>2018-06-16T10:27:15Z</time>
      </trkpt>
      <trkpt lat="38.1136630" lon="-3.6062150">
        <ele>385.8</ele>
        <time>2018-06-16T10:27:16Z</time>
      </trkpt>
      <trkpt lat="38.1136600" lon="-3.6062580">
        <ele>385.6</ele>
        <time>2018-06-16T10:27:17Z</time>
      </trkpt>
      <trkpt lat="38.1136340" lon="-3.6062960">
        <ele>385.8</ele>
        <time>2018-06-16T10:27:18Z</time>
      </trkpt>
      <trkpt lat="38.1136070" lon="-3.6063310">
        <ele>385.8</ele>
        <time>2018-06-16T10:27:19Z</time>
      </trkpt>
      <trkpt lat="38.1135900" lon="-3.6063630">
        <ele>385.6</ele>
        <time>2018-06-16T10:27:20Z</time>
      </trkpt>
      <trkpt lat="38.1135770" lon="-3.6063880">
        <ele>385.8</ele>
        <time>2018-06-16T10:27:21Z</time>
      </trkpt>
      <trkpt lat="38.1135390" lon="-3.6064260">
        <ele>385.8</ele>
        <time>2018-06-16T10:27:22Z</time>
      </trkpt>
      <trkpt lat="38.1135160" lon="-3.6064550">
        <ele>385.6</ele>
        <time>2018-06-16T10:27:23Z</time>
      </trkpt>
      <trkpt lat="38.1134770" lon="-3.6065040">
        <ele>385.8</ele>
        <time>2018-06-16T10:27:24Z</time>
      </trkpt>
      <trkpt lat="38.1134450" lon="-3.6065360">
        <ele>385.8</ele>
        <time>2018-06-16T10:27:25Z</time>
      </trkpt>
      <trkpt lat="38.1134360" lon="-3.6065880">
        <ele>385.6</ele>
        <time>2018-06-16T10:27:26Z</time>
      </trkpt>
      <trkpt lat="38.1134040" lon="-3.6066210">
        <ele>385.8</ele>
        <time>2018-06-16T10:27:27Z</time>
      </trkpt>
      <trkpt lat="38.1133710" lon="-3.6066550">
        <ele>385.6</ele>
        <time>2018-06-16T10:27:28Z</time>
      </trkpt>
      <trkpt lat="38.1133320" lon="-3.6066800">
        <ele>385.8</ele>
        <time>2018-06-16T10:27:29Z</time>
      </trkpt>
      <trkpt lat="38.1133030" lon="-3.6067190">
        <ele>385.6</ele>
        <time>2018-06-16T10:27:30Z</time>
      </trkpt>
      <trkpt lat="38.1132840" lon="-3.6067710">
        <ele>385.8</ele>
        <time>2018-06-16T10:27:31Z</time>
      </trkpt>
      <trkpt lat="38.1132550" lon="-3.6068130">
        <ele>385.8</ele>
        <time>2018-06-16T10:27:32Z</time>
      </trkpt>
      <trkpt lat="38.1132250" lon="-3.6068600">
        <ele>385.8</ele>
        <time>2018-06-16T10:27:33Z</time>
      </trkpt>
      <trkpt lat="38.1132010" lon="-3.6069130">
        <ele>386.0</ele>
        <time>2018-06-16T10:27:34Z</time>
      </trkpt>
      <trkpt lat="38.1131700" lon="-3.6069650">
        <ele>386.0</ele>
        <time>2018-06-16T10:27:35Z</time>
      </trkpt>
      <trkpt lat="38.1131350" lon="-3.6070100">
        <ele>386.2</ele>
        <time>2018-06-16T10:27:36Z</time>
      </trkpt>
      <trkpt lat="38.1131090" lon="-3.6070520">
        <ele>386.2</ele>
        <time>2018-06-16T10:27:37Z</time>
      </trkpt>
      <trkpt lat="38.1130890" lon="-3.6070980">
        <ele>386.2</ele>
        <time>2018-06-16T10:27:38Z</time>
      </trkpt>
      <trkpt lat="38.1130650" lon="-3.6071340">
        <ele>386.4</ele>
        <time>2018-06-16T10:27:39Z</time>
      </trkpt>
      <trkpt lat="38.1130380" lon="-3.6071680">
        <ele>386.2</ele>
        <time>2018-06-16T10:27:40Z</time>
      </trkpt>
      <trkpt lat="38.1130150" lon="-3.6071990">
        <ele>386.4</ele>
        <time>2018-06-16T10:27:41Z</time>
      </trkpt>
      <trkpt lat="38.1130030" lon="-3.6072580">
        <ele>386.4</ele>
        <time>2018-06-16T10:27:42Z</time>
      </trkpt>
      <trkpt lat="38.1129700" lon="-3.6073040">
        <ele>386.6</ele>
        <time>2018-06-16T10:27:43Z</time>
      </trkpt>
      <trkpt lat="38.1129480" lon="-3.6073480">
        <ele>386.4</ele>
        <time>2018-06-16T10:27:44Z</time>
      </trkpt>
      <trkpt lat="38.1129010" lon="-3.6073800">
        <ele>386.8</ele>
        <time>2018-06-16T10:27:45Z</time>
      </trkpt>
      <trkpt lat="38.1128750" lon="-3.6074290">
        <ele>386.4</ele>
        <time>2018-06-16T10:27:46Z</time>
      </trkpt>
      <trkpt lat="38.1128680" lon="-3.6074520">
        <ele>386.8</ele>
        <time>2018-06-16T10:27:47Z</time>
      </trkpt>
      <trkpt lat="38.1128530" lon="-3.6074980">
        <ele>386.8</ele>
        <time>2018-06-16T10:27:48Z</time>
      </trkpt>
      <trkpt lat="38.1128390" lon="-3.6075420">
        <ele>386.8</ele>
        <time>2018-06-16T10:27:49Z</time>
      </trkpt>
      <trkpt lat="38.1128180" lon="-3.6075850">
        <ele>387.0</ele>
        <time>2018-06-16T10:27:50Z</time>
      </trkpt>
      <trkpt lat="38.1128070" lon="-3.6076240">
        <ele>387.0</ele>
        <time>2018-06-16T10:27:51Z</time>
      </trkpt>
      <trkpt lat="38.1127940" lon="-3.6076590">
        <ele>387.0</ele>
        <time>2018-06-16T10:27:52Z</time>
      </trkpt>
      <trkpt lat="38.1127690" lon="-3.6076940">
        <ele>387.2</ele>
        <time>2018-06-16T10:27:53Z</time>
      </trkpt>
      <trkpt lat="38.1127420" lon="-3.6077290">
        <ele>387.2</ele>
        <time>2018-06-16T10:27:54Z</time>
      </trkpt>
      <trkpt lat="38.1127390" lon="-3.6077740">
        <ele>387.2</ele>
        <time>2018-06-16T10:27:55Z</time>
      </trkpt>
      <trkpt lat="38.1127150" lon="-3.6078160">
        <ele>387.4</ele>
        <time>2018-06-16T10:27:56Z</time>
      </trkpt>
      <trkpt lat="38.1126950" lon="-3.6078430">
        <ele>388.0</ele>
        <time>2018-06-16T10:27:57Z</time>
      </trkpt>
      <trkpt lat="38.1126750" lon="-3.6078840">
        <ele>387.6</ele>
        <time>2018-06-16T10:27:58Z</time>
      </trkpt>
      <trkpt lat="38.1126490" lon="-3.6079210">
        <ele>387.8</ele>
        <time>2018-06-16T10:27:59Z</time>
      </trkpt>
      <trkpt lat="38.1126180" lon="-3.6079540">
        <ele>387.8</ele>
        <time>2018-06-16T10:28:00Z</time>
      </trkpt>
      <trkpt lat="38.1126030" lon="-3.6079900">
        <ele>387.6</ele>
        <time>2018-06-16T10:28:01Z</time>
      </trkpt>
      <trkpt lat="38.1125850" lon="-3.6080360">
        <ele>387.6</ele>
        <time>2018-06-16T10:28:02Z</time>
      </trkpt>
      <trkpt lat="38.1125600" lon="-3.6080770">
        <ele>387.6</ele>
        <time>2018-06-16T10:28:03Z</time>
      </trkpt>
      <trkpt lat="38.1125140" lon="-3.6081130">
        <ele>387.8</ele>
        <time>2018-06-16T10:28:04Z</time>
      </trkpt>
      <trkpt lat="38.1124770" lon="-3.6081480">
        <ele>387.8</ele>
        <time>2018-06-16T10:28:05Z</time>
      </trkpt>
      <trkpt lat="38.1124560" lon="-3.6081720">
        <ele>387.8</ele>
        <time>2018-06-16T10:28:06Z</time>
      </trkpt>
      <trkpt lat="38.1124350" lon="-3.6082090">
        <ele>387.8</ele>
        <time>2018-06-16T10:28:07Z</time>
      </trkpt>
      <trkpt lat="38.1124010" lon="-3.6082440">
        <ele>388.0</ele>
        <time>2018-06-16T10:28:08Z</time>
      </trkpt>
      <trkpt lat="38.1123780" lon="-3.6082850">
        <ele>387.8</ele>
        <time>2018-06-16T10:28:09Z</time>
      </trkpt>
      <trkpt lat="38.1123540" lon="-3.6083080">
        <ele>388.0</ele>
        <time>2018-06-16T10:28:10Z</time>
      </trkpt>
      <trkpt lat="38.1123370" lon="-3.6083410">
        <ele>388.0</ele>
        <time>2018-06-16T10:28:11Z</time>
      </trkpt>
      <trkpt lat="38.1123020" lon="-3.6083770">
        <ele>388.2</ele>
        <time>2018-06-16T10:28:12Z</time>
      </trkpt>
      <trkpt lat="38.1122670" lon="-3.6084080">
        <ele>388.2</ele>
        <time>2018-06-16T10:28:13Z</time>
      </trkpt>
      <trkpt lat="38.1122460" lon="-3.6084410">
        <ele>388.2</ele>
        <time>2018-06-16T10:28:14Z</time>
      </trkpt>
      <trkpt lat="38.1122300" lon="-3.6084770">
        <ele>388.4</ele>
        <time>2018-06-16T10:28:15Z</time>
      </trkpt>
      <trkpt lat="38.1121990" lon="-3.6084970">
        <ele>388.2</ele>
        <time>2018-06-16T10:28:16Z</time>
      </trkpt>
      <trkpt lat="38.1121680" lon="-3.6085310">
        <ele>388.2</ele>
        <time>2018-06-16T10:28:17Z</time>
      </trkpt>
      <trkpt lat="38.1121450" lon="-3.6085510">
        <ele>388.4</ele>
        <time>2018-06-16T10:28:18Z</time>
      </trkpt>
      <trkpt lat="38.1121200" lon="-3.6085890">
        <ele>388.4</ele>
        <time>2018-06-16T10:28:19Z</time>
      </trkpt>
      <trkpt lat="38.1120830" lon="-3.6086060">
        <ele>388.2</ele>
        <time>2018-06-16T10:28:20Z</time>
      </trkpt>
      <trkpt lat="38.1120370" lon="-3.6086300">
        <ele>388.4</ele>
        <time>2018-06-16T10:28:21Z</time>
      </trkpt>
      <trkpt lat="38.1119990" lon="-3.6086570">
        <ele>388.6</ele>
        <time>2018-06-16T10:28:22Z</time>
      </trkpt>
      <trkpt lat="38.1119690" lon="-3.6086850">
        <ele>388.6</ele>
        <time>2018-06-16T10:28:23Z</time>
      </trkpt>
      <trkpt lat="38.1119280" lon="-3.6087120">
        <ele>388.6</ele>
        <time>2018-06-16T10:28:24Z</time>
      </trkpt>
      <trkpt lat="38.1118980" lon="-3.6087420">
        <ele>388.8</ele>
        <time>2018-06-16T10:28:25Z</time>
      </trkpt>
      <trkpt lat="38.1118530" lon="-3.6087590">
        <ele>388.6</ele>
        <time>2018-06-16T10:28:26Z</time>
      </trkpt>
      <trkpt lat="38.1118230" lon="-3.6087840">
        <ele>388.8</ele>
        <time>2018-06-16T10:28:27Z</time>
      </trkpt>
      <trkpt lat="38.1117910" lon="-3.6088160">
        <ele>388.8</ele>
        <time>2018-06-16T10:28:28Z</time>
      </trkpt>
      <trkpt lat="38.1117380" lon="-3.6088390">
        <ele>389.0</ele>
        <time>2018-06-16T10:28:29Z</time>
      </trkpt>
      <trkpt lat="38.1116970" lon="-3.6088650">
        <ele>389.0</ele>
        <time>2018-06-16T10:28:30Z</time>
      </trkpt>
      <trkpt lat="38.1116470" lon="-3.6088940">
        <ele>389.0</ele>
        <time>2018-06-16T10:28:31Z</time>
      </trkpt>
      <trkpt lat="38.1116060" lon="-3.6089150">
        <ele>389.0</ele>
        <time>2018-06-16T10:28:32Z</time>
      </trkpt>
      <trkpt lat="38.1115780" lon="-3.6089270">
        <ele>389.0</ele>
        <time>2018-06-16T10:28:33Z</time>
      </trkpt>
      <trkpt lat="38.1115230" lon="-3.6089500">
        <ele>388.8</ele>
        <time>2018-06-16T10:28:34Z</time>
      </trkpt>
      <trkpt lat="38.1114820" lon="-3.6089780">
        <ele>389.0</ele>
        <time>2018-06-16T10:28:35Z</time>
      </trkpt>
      <trkpt lat="38.1114470" lon="-3.6089960">
        <ele>389.0</ele>
        <time>2018-06-16T10:28:36Z</time>
      </trkpt>
      <trkpt lat="38.1114010" lon="-3.6090110">
        <ele>389.0</ele>
        <time>2018-06-16T10:28:37Z</time>
      </trkpt>
      <trkpt lat="38.1113620" lon="-3.6090400">
        <ele>389.2</ele>
        <time>2018-06-16T10:28:38Z</time>
      </trkpt>
      <trkpt lat="38.1113210" lon="-3.6090460">
        <ele>389.2</ele>
        <time>2018-06-16T10:28:39Z</time>
      </trkpt>
      <trkpt lat="38.1112810" lon="-3.6090740">
        <ele>389.2</ele>
        <time>2018-06-16T10:28:40Z</time>
      </trkpt>
      <trkpt lat="38.1112550" lon="-3.6090870">
        <ele>389.0</ele>
        <time>2018-06-16T10:28:41Z</time>
      </trkpt>
      <trkpt lat="38.1112170" lon="-3.6091100">
        <ele>389.0</ele>
        <time>2018-06-16T10:28:42Z</time>
      </trkpt>
      <trkpt lat="38.1111660" lon="-3.6091440">
        <ele>388.8</ele>
        <time>2018-06-16T10:28:43Z</time>
      </trkpt>
      <trkpt lat="38.1111290" lon="-3.6091680">
        <ele>388.8</ele>
        <time>2018-06-16T10:28:44Z</time>
      </trkpt>
      <trkpt lat="38.1110890" lon="-3.6091880">
        <ele>389.0</ele>
        <time>2018-06-16T10:28:45Z</time>
      </trkpt>
      <trkpt lat="38.1110300" lon="-3.6092020">
        <ele>389.4</ele>
        <time>2018-06-16T10:28:46Z</time>
      </trkpt>
      <trkpt lat="38.1109850" lon="-3.6092230">
        <ele>389.2</ele>
        <time>2018-06-16T10:28:47Z</time>
      </trkpt>
      <trkpt lat="38.1109530" lon="-3.6092430">
        <ele>389.2</ele>
        <time>2018-06-16T10:28:48Z</time>
      </trkpt>
      <trkpt lat="38.1109210" lon="-3.6092610">
        <ele>389.2</ele>
        <time>2018-06-16T10:28:49Z</time>
      </trkpt>
      <trkpt lat="38.1108860" lon="-3.6092820">
        <ele>389.4</ele>
        <time>2018-06-16T10:28:50Z</time>
      </trkpt>
      <trkpt lat="38.1108540" lon="-3.6093060">
        <ele>389.4</ele>
        <time>2018-06-16T10:28:51Z</time>
      </trkpt>
      <trkpt lat="38.1108300" lon="-3.6093450">
        <ele>389.4</ele>
        <time>2018-06-16T10:28:52Z</time>
      </trkpt>
      <trkpt lat="38.1107760" lon="-3.6093560">
        <ele>389.6</ele>
        <time>2018-06-16T10:28:53Z</time>
      </trkpt>
      <trkpt lat="38.1107390" lon="-3.6093810">
        <ele>389.6</ele>
        <time>2018-06-16T10:28:54Z</time>
      </trkpt>
      <trkpt lat="38.1106980" lon="-3.6093970">
        <ele>389.6</ele>
        <time>2018-06-16T10:28:55Z</time>
      </trkpt>
      <trkpt lat="38.1106670" lon="-3.6094240">
        <ele>389.8</ele>
        <time>2018-06-16T10:28:56Z</time>
      </trkpt>
      <trkpt lat="38.1106260" lon="-3.6094390">
        <ele>389.8</ele>
        <time>2018-06-16T10:28:57Z</time>
      </trkpt>
      <trkpt lat="38.1105900" lon="-3.6094650">
        <ele>389.8</ele>
        <time>2018-06-16T10:28:58Z</time>
      </trkpt>
      <trkpt lat="38.1105640" lon="-3.6094910">
        <ele>389.8</ele>
        <time>2018-06-16T10:28:59Z</time>
      </trkpt>
      <trkpt lat="38.1105240" lon="-3.6095220">
        <ele>390.0</ele>
        <time>2018-06-16T10:29:00Z</time>
      </trkpt>
      <trkpt lat="38.1104840" lon="-3.6095470">
        <ele>389.8</ele>
        <time>2018-06-16T10:29:01Z</time>
      </trkpt>
      <trkpt lat="38.1104350" lon="-3.6095760">
        <ele>390.0</ele>
        <time>2018-06-16T10:29:02Z</time>
      </trkpt>
      <trkpt lat="38.1104030" lon="-3.6095980">
        <ele>390.0</ele>
        <time>2018-06-16T10:29:03Z</time>
      </trkpt>
      <trkpt lat="38.1103650" lon="-3.6096290">
        <ele>390.0</ele>
        <time>2018-06-16T10:29:04Z</time>
      </trkpt>
      <trkpt lat="38.1103220" lon="-3.6096550">
        <ele>390.0</ele>
        <time>2018-06-16T10:29:05Z</time>
      </trkpt>
      <trkpt lat="38.1102860" lon="-3.6096950">
        <ele>390.0</ele>
        <time>2018-06-16T10:29:06Z</time>
      </trkpt>
      <trkpt lat="38.1102560" lon="-3.6097280">
        <ele>390.2</ele>
        <time>2018-06-16T10:29:07Z</time>
      </trkpt>
      <trkpt lat="38.1102260" lon="-3.6097590">
        <ele>390.2</ele>
        <time>2018-06-16T10:29:08Z</time>
      </trkpt>
      <trkpt lat="38.1102010" lon="-3.6097980">
        <ele>390.4</ele>
        <time>2018-06-16T10:29:09Z</time>
      </trkpt>
      <trkpt lat="38.1101680" lon="-3.6098320">
        <ele>390.2</ele>
        <time>2018-06-16T10:29:10Z</time>
      </trkpt>
      <trkpt lat="38.1101360" lon="-3.6098700">
        <ele>390.4</ele>
        <time>2018-06-16T10:29:11Z</time>
      </trkpt>
      <trkpt lat="38.1100940" lon="-3.6099100">
        <ele>390.4</ele>
        <time>2018-06-16T10:29:12Z</time>
      </trkpt>
      <trkpt lat="38.1100570" lon="-3.6099440">
        <ele>390.4</ele>
        <time>2018-06-16T10:29:13Z</time>
      </trkpt>
      <trkpt lat="38.1100370" lon="-3.6099740">
        <ele>390.4</ele>
        <time>2018-06-16T10:29:14Z</time>
      </trkpt>
      <trkpt lat="38.1099990" lon="-3.6100040">
        <ele>390.6</ele>
        <time>2018-06-16T10:29:15Z</time>
      </trkpt>
      <trkpt lat="38.1099750" lon="-3.6100410">
        <ele>390.6</ele>
        <time>2018-06-16T10:29:16Z</time>
      </trkpt>
      <trkpt lat="38.1099490" lon="-3.6100710">
        <ele>390.4</ele>
        <time>2018-06-16T10:29:17Z</time>
      </trkpt>
      <trkpt lat="38.1099200" lon="-3.6101100">
        <ele>390.6</ele>
        <time>2018-06-16T10:29:18Z</time>
      </trkpt>
      <trkpt lat="38.1098950" lon="-3.6101350">
        <ele>390.4</ele>
        <time>2018-06-16T10:29:19Z</time>
      </trkpt>
      <trkpt lat="38.1098690" lon="-3.6101670">
        <ele>390.6</ele>
        <time>2018-06-16T10:29:20Z</time>
      </trkpt>
      <trkpt lat="38.1098440" lon="-3.6102150">
        <ele>390.4</ele>
        <time>2018-06-16T10:29:21Z</time>
      </trkpt>
      <trkpt lat="38.1098160" lon="-3.6102500">
        <ele>390.6</ele>
        <time>2018-06-16T10:29:22Z</time>
      </trkpt>
      <trkpt lat="38.1097940" lon="-3.6102850">
        <ele>390.6</ele>
        <time>2018-06-16T10:29:23Z</time>
      </trkpt>
      <trkpt lat="38.1097560" lon="-3.6103250">
        <ele>391.0</ele>
        <time>2018-06-16T10:29:24Z</time>
      </trkpt>
      <trkpt lat="38.1097210" lon="-3.6103630">
        <ele>390.8</ele>
        <time>2018-06-16T10:29:25Z</time>
      </trkpt>
      <trkpt lat="38.1096970" lon="-3.6103980">
        <ele>390.8</ele>
        <time>2018-06-16T10:29:26Z</time>
      </trkpt>
      <trkpt lat="38.1096720" lon="-3.6104400">
        <ele>391.0</ele>
        <time>2018-06-16T10:29:27Z</time>
      </trkpt>
      <trkpt lat="38.1096530" lon="-3.6104840">
        <ele>390.8</ele>
        <time>2018-06-16T10:29:28Z</time>
      </trkpt>
      <trkpt lat="38.1096200" lon="-3.6105220">
        <ele>390.8</ele>
        <time>2018-06-16T10:29:29Z</time>
      </trkpt>
      <trkpt lat="38.1096100" lon="-3.6105680">
        <ele>391.0</ele>
        <time>2018-06-16T10:29:30Z</time>
      </trkpt>
      <trkpt lat="38.1095850" lon="-3.6106030">
        <ele>391.0</ele>
        <time>2018-06-16T10:29:31Z</time>
      </trkpt>
      <trkpt lat="38.1095550" lon="-3.6106500">
        <ele>391.0</ele>
        <time>2018-06-16T10:29:32Z</time>
      </trkpt>
      <trkpt lat="38.1095250" lon="-3.6106890">
        <ele>391.0</ele>
        <time>2018-06-16T10:29:33Z</time>
      </trkpt>
      <trkpt lat="38.1095010" lon="-3.6107330">
        <ele>391.0</ele>
        <time>2018-06-16T10:29:34Z</time>
      </trkpt>
      <trkpt lat="38.1094720" lon="-3.6107770">
        <ele>391.2</ele>
        <time>2018-06-16T10:29:35Z</time>
      </trkpt>
      <trkpt lat="38.1094490" lon="-3.6108170">
        <ele>391.0</ele>
        <time>2018-06-16T10:29:36Z</time>
      </trkpt>
      <trkpt lat="38.1094230" lon="-3.6108510">
        <ele>391.2</ele>
        <time>2018-06-16T10:29:37Z</time>
      </trkpt>
      <trkpt lat="38.1094140" lon="-3.6108980">
        <ele>391.4</ele>
        <time>2018-06-16T10:29:38Z</time>
      </trkpt>
      <trkpt lat="38.1093960" lon="-3.6109460">
        <ele>391.4</ele>
        <time>2018-06-16T10:29:39Z</time>
      </trkpt>
      <trkpt lat="38.1093770" lon="-3.6109820">
        <ele>391.6</ele>
        <time>2018-06-16T10:29:40Z</time>
      </trkpt>
      <trkpt lat="38.1093510" lon="-3.6110240">
        <ele>391.6</ele>
        <time>2018-06-16T10:29:41Z</time>
      </trkpt>
      <trkpt lat="38.1093340" lon="-3.6110710">
        <ele>391.8</ele>
        <time>2018-06-16T10:29:42Z</time>
      </trkpt>
      <trkpt lat="38.1093200" lon="-3.6111170">
        <ele>391.8</ele>
        <time>2018-06-16T10:29:43Z</time>
      </trkpt>
      <trkpt lat="38.1093100" lon="-3.6111620">
        <ele>391.8</ele>
        <time>2018-06-16T10:29:44Z</time>
      </trkpt>
      <trkpt lat="38.1092950" lon="-3.6112080">
        <ele>392.0</ele>
        <time>2018-06-16T10:29:45Z</time>
      </trkpt>
      <trkpt lat="38.1092800" lon="-3.6112550">
        <ele>392.0</ele>
        <time>2018-06-16T10:29:46Z</time>
      </trkpt>
      <trkpt lat="38.1092660" lon="-3.6113030">
        <ele>392.2</ele>
        <time>2018-06-16T10:29:47Z</time>
      </trkpt>
      <trkpt lat="38.1092420" lon="-3.6113450">
        <ele>392.2</ele>
        <time>2018-06-16T10:29:48Z</time>
      </trkpt>
      <trkpt lat="38.1092300" lon="-3.6113840">
        <ele>392.4</ele>
        <time>2018-06-16T10:29:49Z</time>
      </trkpt>
      <trkpt lat="38.1092130" lon="-3.6114350">
        <ele>392.4</ele>
        <time>2018-06-16T10:29:50Z</time>
      </trkpt>
      <trkpt lat="38.1092110" lon="-3.6114750">
        <ele>392.4</ele>
        <time>2018-06-16T10:29:51Z</time>
      </trkpt>
      <trkpt lat="38.1091920" lon="-3.6115240">
        <ele>392.6</ele>
        <time>2018-06-16T10:29:52Z</time>
      </trkpt>
      <trkpt lat="38.1091790" lon="-3.6115660">
        <ele>392.6</ele>
        <time>2018-06-16T10:29:53Z</time>
      </trkpt>
      <trkpt lat="38.1091680" lon="-3.6116030">
        <ele>392.8</ele>
        <time>2018-06-16T10:29:54Z</time>
      </trkpt>
      <trkpt lat="38.1091550" lon="-3.6116590">
        <ele>392.8</ele>
        <time>2018-06-16T10:29:55Z</time>
      </trkpt>
      <trkpt lat="38.1091430" lon="-3.6117120">
        <ele>392.8</ele>
        <time>2018-06-16T10:29:56Z</time>
      </trkpt>
      <trkpt lat="38.1091360" lon="-3.6117530">
        <ele>393.0</ele>
        <time>2018-06-16T10:29:57Z</time>
      </trkpt>
      <trkpt lat="38.1091280" lon="-3.6118010">
        <ele>393.2</ele>
        <time>2018-06-16T10:29:58Z</time>
      </trkpt>
      <trkpt lat="38.1091060" lon="-3.6118590">
        <ele>393.4</ele>
        <time>2018-06-16T10:29:59Z</time>
      </trkpt>
      <trkpt lat="38.1090960" lon="-3.6119090">
        <ele>393.4</ele>
        <time>2018-06-16T10:30:00Z</time>
      </trkpt>
      <trkpt lat="38.1090770" lon="-3.6119580">
        <ele>393.4</ele>
        <time>2018-06-16T10:30:01Z</time>
      </trkpt>
      <trkpt lat="38.1090600" lon="-3.6120050">
        <ele>393.8</ele>
        <time>2018-06-16T10:30:02Z</time>
      </trkpt>
      <trkpt lat="38.1090460" lon="-3.6120470">
        <ele>393.6</ele>
        <time>2018-06-16T10:30:03Z</time>
      </trkpt>
      <trkpt lat="38.1090360" lon="-3.6120850">
        <ele>394.4</ele>
        <time>2018-06-16T10:30:04Z</time>
      </trkpt>
      <trkpt lat="38.1090220" lon="-3.6121270">
        <ele>394.0</ele>
        <time>2018-06-16T10:30:05Z</time>
      </trkpt>
      <trkpt lat="38.1090100" lon="-3.6121690">
        <ele>394.2</ele>
        <time>2018-06-16T10:30:06Z</time>
      </trkpt>
      <trkpt lat="38.1089980" lon="-3.6122080">
        <ele>394.4</ele>
        <time>2018-06-16T10:30:07Z</time>
      </trkpt>
      <trkpt lat="38.1089820" lon="-3.6122550">
        <ele>394.4</ele>
        <time>2018-06-16T10:30:08Z</time>
      </trkpt>
      <trkpt lat="38.1089690" lon="-3.6123030">
        <ele>394.8</ele>
        <time>2018-06-16T10:30:09Z</time>
      </trkpt>
      <trkpt lat="38.1089580" lon="-3.6123460">
        <ele>395.2</ele>
        <time>2018-06-16T10:30:10Z</time>
      </trkpt>
      <trkpt lat="38.1089450" lon="-3.6123860">
        <ele>395.0</ele>
        <time>2018-06-16T10:30:11Z</time>
      </trkpt>
      <trkpt lat="38.1089320" lon="-3.6124310">
        <ele>395.4</ele>
        <time>2018-06-16T10:30:12Z</time>
      </trkpt>
      <trkpt lat="38.1089200" lon="-3.6124750">
        <ele>395.8</ele>
        <time>2018-06-16T10:30:13Z</time>
      </trkpt>
      <trkpt lat="38.1089080" lon="-3.6125160">
        <ele>395.8</ele>
        <time>2018-06-16T10:30:14Z</time>
      </trkpt>
      <trkpt lat="38.1088950" lon="-3.6125580">
        <ele>396.0</ele>
        <time>2018-06-16T10:30:15Z</time>
      </trkpt>
      <trkpt lat="38.1088830" lon="-3.6125990">
        <ele>396.0</ele>
        <time>2018-06-16T10:30:16Z</time>
      </trkpt>
      <trkpt lat="38.1088710" lon="-3.6126410">
        <ele>396.2</ele>
        <time>2018-06-16T10:30:17Z</time>
      </trkpt>
      <trkpt lat="38.1088600" lon="-3.6126820">
        <ele>396.2</ele>
        <time>2018-06-16T10:30:18Z</time>
      </trkpt>
      <trkpt lat="38.1088480" lon="-3.6127240">
        <ele>396.6</ele>
        <time>2018-06-16T10:30:19Z</time>
      </trkpt>
      <trkpt lat="38.1088370" lon="-3.6127640">
        <ele>396.6</ele>
        <time>2018-06-16T10:30:20Z</time>
      </trkpt>
      <trkpt lat="38.1088240" lon="-3.6128080">
        <ele>396.6</ele>
        <time>2018-06-16T10:30:21Z</time>
      </trkpt>
      <trkpt lat="38.1088130" lon="-3.6128520">
        <ele>397.0</ele>
        <time>2018-06-16T10:30:22Z</time>
      </trkpt>
      <trkpt lat="38.1088020" lon="-3.6128970">
        <ele>397.2</ele>
        <time>2018-06-16T10:30:23Z</time>
      </trkpt>
      <trkpt lat="38.1087910" lon="-3.6129390">
        <ele>397.4</ele>
        <time>2018-06-16T10:30:24Z</time>
      </trkpt>
      <trkpt lat="38.1087800" lon="-3.6129810">
        <ele>397.4</ele>
        <time>2018-06-16T10:30:25Z</time>
      </trkpt>
      <trkpt lat="38.1087700" lon="-3.6130160">
        <ele>397.6</ele>
        <time>2018-06-16T10:30:26Z</time>
      </trkpt>
      <trkpt lat="38.1087590" lon="-3.6130550">
        <ele>397.6</ele>
        <time>2018-06-16T10:30:27Z</time>
      </trkpt>
      <trkpt lat="38.1087470" lon="-3.6130960">
        <ele>398.0</ele>
        <time>2018-06-16T10:30:28Z</time>
      </trkpt>
      <trkpt lat="38.1087370" lon="-3.6131330">
        <ele>398.2</ele>
        <time>2018-06-16T10:30:29Z</time>
      </trkpt>
      <trkpt lat="38.1087260" lon="-3.6131710">
        <ele>398.4</ele>
        <time>2018-06-16T10:30:30Z</time>
      </trkpt>
      <trkpt lat="38.1087150" lon="-3.6132150">
        <ele>398.4</ele>
        <time>2018-06-16T10:30:31Z</time>
      </trkpt>
      <trkpt lat="38.1087040" lon="-3.6132540">
        <ele>398.8</ele>
        <time>2018-06-16T10:30:32Z</time>
      </trkpt>
      <trkpt lat="38.1086950" lon="-3.6132930">
        <ele>398.8</ele>
        <time>2018-06-16T10:30:33Z</time>
      </trkpt>
      <trkpt lat="38.1086840" lon="-3.6133350">
        <ele>398.8</ele>
        <time>2018-06-16T10:30:34Z</time>
      </trkpt>
      <trkpt lat="38.1086680" lon="-3.6133760">
        <ele>399.2</ele>
        <time>2018-06-16T10:30:35Z</time>
      </trkpt>
      <trkpt lat="38.1086530" lon="-3.6134200">
        <ele>399.6</ele>
        <time>2018-06-16T10:30:36Z</time>
      </trkpt>
      <trkpt lat="38.1086410" lon="-3.6134630">
        <ele>399.8</ele>
        <time>2018-06-16T10:30:37Z</time>
      </trkpt>
      <trkpt lat="38.1086290" lon="-3.6135040">
        <ele>399.8</ele>
        <time>2018-06-16T10:30:38Z</time>
      </trkpt>
      <trkpt lat="38.1086150" lon="-3.6135520">
        <ele>400.0</ele>
        <time>2018-06-16T10:30:39Z</time>
      </trkpt>
      <trkpt lat="38.1086050" lon="-3.6135890">
        <ele>400.2</ele>
        <time>2018-06-16T10:30:40Z</time>
      </trkpt>
      <trkpt lat="38.1085960" lon="-3.6136340">
        <ele>400.4</ele>
        <time>2018-06-16T10:30:41Z</time>
      </trkpt>
      <trkpt lat="38.1085840" lon="-3.6136800">
        <ele>400.6</ele>
        <time>2018-06-16T10:30:42Z</time>
      </trkpt>
      <trkpt lat="38.1085740" lon="-3.6137130">
        <ele>400.6</ele>
        <time>2018-06-16T10:30:43Z</time>
      </trkpt>
      <trkpt lat="38.1085570" lon="-3.6137510">
        <ele>400.8</ele>
        <time>2018-06-16T10:30:44Z</time>
      </trkpt>
      <trkpt lat="38.1085530" lon="-3.6137940">
        <ele>400.8</ele>
        <time>2018-06-16T10:30:45Z</time>
      </trkpt>
      <trkpt lat="38.1085440" lon="-3.6138290">
        <ele>401.2</ele>
        <time>2018-06-16T10:30:46Z</time>
      </trkpt>
      <trkpt lat="38.1085290" lon="-3.6138740">
        <ele>401.2</ele>
        <time>2018-06-16T10:30:47Z</time>
      </trkpt>
      <trkpt lat="38.1085170" lon="-3.6139100">
        <ele>401.4</ele>
        <time>2018-06-16T10:30:48Z</time>
      </trkpt>
      <trkpt lat="38.1085080" lon="-3.6139450">
        <ele>401.4</ele>
        <time>2018-06-16T10:30:49Z</time>
      </trkpt>
      <trkpt lat="38.1085000" lon="-3.6139920">
        <ele>401.6</ele>
        <time>2018-06-16T10:30:50Z</time>
      </trkpt>
      <trkpt lat="38.1084900" lon="-3.6140200">
        <ele>401.8</ele>
        <time>2018-06-16T10:30:51Z</time>
      </trkpt>
      <trkpt lat="38.1084760" lon="-3.6140560">
        <ele>401.8</ele>
        <time>2018-06-16T10:30:52Z</time>
      </trkpt>
      <trkpt lat="38.1084540" lon="-3.6141060">
        <ele>401.8</ele>
        <time>2018-06-16T10:30:53Z</time>
      </trkpt>
      <trkpt lat="38.1084500" lon="-3.6141470">
        <ele>402.2</ele>
        <time>2018-06-16T10:30:54Z</time>
      </trkpt>
      <trkpt lat="38.1084460" lon="-3.6141840">
        <ele>402.0</ele>
        <time>2018-06-16T10:30:55Z</time>
      </trkpt>
      <trkpt lat="38.1084430" lon="-3.6142280">
        <ele>402.2</ele>
        <time>2018-06-16T10:30:56Z</time>
      </trkpt>
      <trkpt lat="38.1084360" lon="-3.6142690">
        <ele>402.2</ele>
        <time>2018-06-16T10:30:57Z</time>
      </trkpt>
      <trkpt lat="38.1084280" lon="-3.6143130">
        <ele>402.6</ele>
        <time>2018-06-16T10:30:58Z</time>
      </trkpt>
      <trkpt lat="38.1084230" lon="-3.6143380">
        <ele>402.6</ele>
        <time>2018-06-16T10:30:59Z</time>
      </trkpt>
      <trkpt lat="38.1084100" lon="-3.6143690">
        <ele>402.6</ele>
        <time>2018-06-16T10:31:00Z</time>
      </trkpt>
      <trkpt lat="38.1084110" lon="-3.6144020">
        <ele>402.8</ele>
        <time>2018-06-16T10:31:01Z</time>
      </trkpt>
      <trkpt lat="38.1083930" lon="-3.6144250">
        <ele>402.8</ele>
        <time>2018-06-16T10:31:02Z</time>
      </trkpt>
      <trkpt lat="38.1083870" lon="-3.6144440">
        <ele>402.8</ele>
        <time>2018-06-16T10:31:03Z</time>
      </trkpt>
      <trkpt lat="38.1083770" lon="-3.6144830">
        <ele>402.8</ele>
        <time>2018-06-16T10:31:04Z</time>
      </trkpt>
      <trkpt lat="38.1083690" lon="-3.6145190">
        <ele>402.8</ele>
        <time>2018-06-16T10:31:05Z</time>
      </trkpt>
      <trkpt lat="38.1083650" lon="-3.6145480">
        <ele>403.0</ele>
        <time>2018-06-16T10:31:06Z</time>
      </trkpt>
      <trkpt lat="38.1083630" lon="-3.6145840">
        <ele>403.2</ele>
        <time>2018-06-16T10:31:07Z</time>
      </trkpt>
      <trkpt lat="38.1083530" lon="-3.6146160">
        <ele>403.0</ele>
        <time>2018-06-16T10:31:08Z</time>
      </trkpt>
      <trkpt lat="38.1083560" lon="-3.6146460">
        <ele>403.0</ele>
        <time>2018-06-16T10:31:09Z</time>
      </trkpt>
      <trkpt lat="38.1083410" lon="-3.6146790">
        <ele>403.0</ele>
        <time>2018-06-16T10:31:10Z</time>
      </trkpt>
      <trkpt lat="38.1083280" lon="-3.6147170">
        <ele>403.4</ele>
        <time>2018-06-16T10:31:11Z</time>
      </trkpt>
      <trkpt lat="38.1083110" lon="-3.6147500">
        <ele>403.4</ele>
        <time>2018-06-16T10:31:12Z</time>
      </trkpt>
      <trkpt lat="38.1083060" lon="-3.6147620">
        <ele>403.6</ele>
        <time>2018-06-16T10:31:13Z</time>
      </trkpt>
      <trkpt lat="38.1083110" lon="-3.6147960">
        <ele>403.6</ele>
        <time>2018-06-16T10:31:14Z</time>
      </trkpt>
      <trkpt lat="38.1083100" lon="-3.6148220">
        <ele>403.8</ele>
        <time>2018-06-16T10:31:15Z</time>
      </trkpt>
      <trkpt lat="38.1083040" lon="-3.6148500">
        <ele>403.6</ele>
        <time>2018-06-16T10:31:16Z</time>
      </trkpt>
      <trkpt lat="38.1082940" lon="-3.6148770">
        <ele>403.8</ele>
        <time>2018-06-16T10:31:17Z</time>
      </trkpt>
      <trkpt lat="38.1082900" lon="-3.6148870">
        <ele>404.0</ele>
        <time>2018-06-16T10:31:18Z</time>
      </trkpt>
      <trkpt lat="38.1082780" lon="-3.6148970">
        <ele>404.0</ele>
        <time>2018-06-16T10:31:19Z</time>
      </trkpt>
      <trkpt lat="38.1082610" lon="-3.6149200">
        <ele>404.0</ele>
        <time>2018-06-16T10:31:20Z</time>
      </trkpt>
      <trkpt lat="38.1082500" lon="-3.6149460">
        <ele>404.2</ele>
        <time>2018-06-16T10:31:21Z</time>
      </trkpt>
      <trkpt lat="38.1082430" lon="-3.6149740">
        <ele>404.4</ele>
        <time>2018-06-16T10:31:22Z</time>
      </trkpt>
      <trkpt lat="38.1082380" lon="-3.6150090">
        <ele>404.4</ele>
        <time>2018-06-16T10:31:23Z</time>
      </trkpt>
      <trkpt lat="38.1082430" lon="-3.6150480">
        <ele>404.4</ele>
        <time>2018-06-16T10:31:24Z</time>
      </trkpt>
      <trkpt lat="38.1082300" lon="-3.6150690">
        <ele>404.6</ele>
        <time>2018-06-16T10:31:25Z</time>
      </trkpt>
      <trkpt lat="38.1082240" lon="-3.6151090">
        <ele>404.6</ele>
        <time>2018-06-16T10:31:26Z</time>
      </trkpt>
      <trkpt lat="38.1082180" lon="-3.6151390">
        <ele>404.6</ele>
        <time>2018-06-16T10:31:27Z</time>
      </trkpt>
      <trkpt lat="38.1082050" lon="-3.6151740">
        <ele>405.0</ele>
        <time>2018-06-16T10:31:28Z</time>
      </trkpt>
      <trkpt lat="38.1081890" lon="-3.6152080">
        <ele>405.0</ele>
        <time>2018-06-16T10:31:29Z</time>
      </trkpt>
      <trkpt lat="38.1081780" lon="-3.6152500">
        <ele>405.0</ele>
        <time>2018-06-16T10:31:30Z</time>
      </trkpt>
      <trkpt lat="38.1081620" lon="-3.6152940">
        <ele>405.2</ele>
        <time>2018-06-16T10:31:31Z</time>
      </trkpt>
      <trkpt lat="38.1081560" lon="-3.6153450">
        <ele>405.2</ele>
        <time>2018-06-16T10:31:32Z</time>
      </trkpt>
      <trkpt lat="38.1081480" lon="-3.6154000">
        <ele>405.2</ele>
        <time>2018-06-16T10:31:33Z</time>
      </trkpt>
      <trkpt lat="38.1081280" lon="-3.6154200">
        <ele>405.4</ele>
        <time>2018-06-16T10:31:34Z</time>
      </trkpt>
      <trkpt lat="38.1081170" lon="-3.6154580">
        <ele>405.6</ele>
        <time>2018-06-16T10:31:35Z</time>
      </trkpt>
      <trkpt lat="38.1081150" lon="-3.6154990">
        <ele>405.8</ele>
        <time>2018-06-16T10:31:36Z</time>
      </trkpt>
      <trkpt lat="38.1081000" lon="-3.6155420">
        <ele>405.6</ele>
        <time>2018-06-16T10:31:37Z</time>
      </trkpt>
      <trkpt lat="38.1080790" lon="-3.6155760">
        <ele>405.8</ele>
        <time>2018-06-16T10:31:38Z</time>
      </trkpt>
      <trkpt lat="38.1080570" lon="-3.6156110">
        <ele>405.6</ele>
        <time>2018-06-16T10:31:39Z</time>
      </trkpt>
      <trkpt lat="38.1080480" lon="-3.6156470">
        <ele>405.6</ele>
        <time>2018-06-16T10:31:40Z</time>
      </trkpt>
      <trkpt lat="38.1080320" lon="-3.6156880">
        <ele>405.8</ele>
        <time>2018-06-16T10:31:41Z</time>
      </trkpt>
      <trkpt lat="38.1080300" lon="-3.6157380">
        <ele>405.8</ele>
        <time>2018-06-16T10:31:42Z</time>
      </trkpt>
      <trkpt lat="38.1080180" lon="-3.6157800">
        <ele>405.8</ele>
        <time>2018-06-16T10:31:43Z</time>
      </trkpt>
      <trkpt lat="38.1080210" lon="-3.6158360">
        <ele>405.8</ele>
        <time>2018-06-16T10:31:44Z</time>
      </trkpt>
      <trkpt lat="38.1080070" lon="-3.6158800">
        <ele>405.8</ele>
        <time>2018-06-16T10:31:45Z</time>
      </trkpt>
      <trkpt lat="38.1079900" lon="-3.6159190">
        <ele>406.0</ele>
        <time>2018-06-16T10:31:46Z</time>
      </trkpt>
      <trkpt lat="38.1079800" lon="-3.6159570">
        <ele>405.8</ele>
        <time>2018-06-16T10:31:47Z</time>
      </trkpt>
      <trkpt lat="38.1079660" lon="-3.6160160">
        <ele>406.0</ele>
        <time>2018-06-16T10:31:48Z</time>
      </trkpt>
      <trkpt lat="38.1079490" lon="-3.6160560">
        <ele>406.0</ele>
        <time>2018-06-16T10:31:49Z</time>
      </trkpt>
      <trkpt lat="38.1079410" lon="-3.6160980">
        <ele>406.0</ele>
        <time>2018-06-16T10:31:50Z</time>
      </trkpt>
      <trkpt lat="38.1079090" lon="-3.6161260">
        <ele>406.0</ele>
        <time>2018-06-16T10:31:51Z</time>
      </trkpt>
      <trkpt lat="38.1078980" lon="-3.6161700">
        <ele>405.8</ele>
        <time>2018-06-16T10:31:52Z</time>
      </trkpt>
      <trkpt lat="38.1078800" lon="-3.6162190">
        <ele>405.8</ele>
        <time>2018-06-16T10:31:53Z</time>
      </trkpt>
      <trkpt lat="38.1078580" lon="-3.6162710">
        <ele>406.0</ele>
        <time>2018-06-16T10:31:54Z</time>
      </trkpt>
      <trkpt lat="38.1078530" lon="-3.6163090">
        <ele>406.0</ele>
        <time>2018-06-16T10:31:55Z</time>
      </trkpt>
      <trkpt lat="38.1078620" lon="-3.6163670">
        <ele>406.0</ele>
        <time>2018-06-16T10:31:56Z</time>
      </trkpt>
      <trkpt lat="38.1078350" lon="-3.6164150">
        <ele>405.8</ele>
        <time>2018-06-16T10:31:57Z</time>
      </trkpt>
      <trkpt lat="38.1078140" lon="-3.6164650">
        <ele>405.6</ele>
        <time>2018-06-16T10:31:58Z</time>
      </trkpt>
      <trkpt lat="38.1078020" lon="-3.6165310">
        <ele>405.6</ele>
        <time>2018-06-16T10:31:59Z</time>
      </trkpt>
      <trkpt lat="38.1077710" lon="-3.6165890">
        <ele>405.6</ele>
        <time>2018-06-16T10:32:00Z</time>
      </trkpt>
      <trkpt lat="38.1077530" lon="-3.6166580">
        <ele>405.4</ele>
        <time>2018-06-16T10:32:01Z</time>
      </trkpt>
      <trkpt lat="38.1077340" lon="-3.6167090">
        <ele>405.2</ele>
        <time>2018-06-16T10:32:02Z</time>
      </trkpt>
      <trkpt lat="38.1077040" lon="-3.6167610">
        <ele>405.0</ele>
        <time>2018-06-16T10:32:03Z</time>
      </trkpt>
      <trkpt lat="38.1076670" lon="-3.6168100">
        <ele>405.2</ele>
        <time>2018-06-16T10:32:04Z</time>
      </trkpt>
      <trkpt lat="38.1076180" lon="-3.6168690">
        <ele>405.2</ele>
        <time>2018-06-16T10:32:05Z</time>
      </trkpt>
      <trkpt lat="38.1075900" lon="-3.6169250">
        <ele>405.0</ele>
        <time>2018-06-16T10:32:06Z</time>
      </trkpt>
      <trkpt lat="38.1075650" lon="-3.6169620">
        <ele>404.8</ele>
        <time>2018-06-16T10:32:07Z</time>
      </trkpt>
      <trkpt lat="38.1075410" lon="-3.6170300">
        <ele>404.6</ele>
        <time>2018-06-16T10:32:08Z</time>
      </trkpt>
      <trkpt lat="38.1075180" lon="-3.6170760">
        <ele>404.6</ele>
        <time>2018-06-16T10:32:09Z</time>
      </trkpt>
      <trkpt lat="38.1074980" lon="-3.6171240">
        <ele>404.6</ele>
        <time>2018-06-16T10:32:10Z</time>
      </trkpt>
      <trkpt lat="38.1074460" lon="-3.6171580">
        <ele>404.6</ele>
        <time>2018-06-16T10:32:11Z</time>
      </trkpt>
      <trkpt lat="38.1074150" lon="-3.6172050">
        <ele>404.2</ele>
        <time>2018-06-16T10:32:12Z</time>
      </trkpt>
      <trkpt lat="38.1074040" lon="-3.6172440">
        <ele>404.4</ele>
        <time>2018-06-16T10:32:13Z</time>
      </trkpt>
      <trkpt lat="38.1073630" lon="-3.6172990">
        <ele>404.2</ele>
        <time>2018-06-16T10:32:14Z</time>
      </trkpt>
      <trkpt lat="38.1073320" lon="-3.6173590">
        <ele>404.2</ele>
        <time>2018-06-16T10:32:15Z</time>
      </trkpt>
      <trkpt lat="38.1073100" lon="-3.6174120">
        <ele>404.2</ele>
        <time>2018-06-16T10:32:16Z</time>
      </trkpt>
      <trkpt lat="38.1072710" lon="-3.6174650">
        <ele>404.0</ele>
        <time>2018-06-16T10:32:17Z</time>
      </trkpt>
      <trkpt lat="38.1072430" lon="-3.6175220">
        <ele>404.2</ele>
        <time>2018-06-16T10:32:18Z</time>
      </trkpt>
      <trkpt lat="38.1072110" lon="-3.6175700">
        <ele>404.2</ele>
        <time>2018-06-16T10:32:19Z</time>
      </trkpt>
      <trkpt lat="38.1071790" lon="-3.6176310">
        <ele>404.2</ele>
        <time>2018-06-16T10:32:20Z</time>
      </trkpt>
      <trkpt lat="38.1071390" lon="-3.6176860">
        <ele>404.2</ele>
        <time>2018-06-16T10:32:21Z</time>
      </trkpt>
      <trkpt lat="38.1071050" lon="-3.6177430">
        <ele>404.0</ele>
        <time>2018-06-16T10:32:22Z</time>
      </trkpt>
      <trkpt lat="38.1070760" lon="-3.6177920">
        <ele>404.2</ele>
        <time>2018-06-16T10:32:23Z</time>
      </trkpt>
      <trkpt lat="38.1070410" lon="-3.6178640">
        <ele>404.2</ele>
        <time>2018-06-16T10:32:24Z</time>
      </trkpt>
      <trkpt lat="38.1070140" lon="-3.6179330">
        <ele>403.8</ele>
        <time>2018-06-16T10:32:25Z</time>
      </trkpt>
      <trkpt lat="38.1069780" lon="-3.6180000">
        <ele>404.0</ele>
        <time>2018-06-16T10:32:26Z</time>
      </trkpt>
      <trkpt lat="38.1069600" lon="-3.6180750">
        <ele>403.6</ele>
        <time>2018-06-16T10:32:27Z</time>
      </trkpt>
      <trkpt lat="38.1069350" lon="-3.6181270">
        <ele>403.8</ele>
        <time>2018-06-16T10:32:28Z</time>
      </trkpt>
      <trkpt lat="38.1069000" lon="-3.6181930">
        <ele>403.8</ele>
        <time>2018-06-16T10:32:29Z</time>
      </trkpt>
      <trkpt lat="38.1068600" lon="-3.6182470">
        <ele>403.8</ele>
        <time>2018-06-16T10:32:30Z</time>
      </trkpt>
      <trkpt lat="38.1068260" lon="-3.6183050">
        <ele>403.4</ele>
        <time>2018-06-16T10:32:31Z</time>
      </trkpt>
      <trkpt lat="38.1067810" lon="-3.6183560">
        <ele>403.6</ele>
        <time>2018-06-16T10:32:32Z</time>
      </trkpt>
      <trkpt lat="38.1067540" lon="-3.6184440">
        <ele>403.2</ele>
        <time>2018-06-16T10:32:33Z</time>
      </trkpt>
      <trkpt lat="38.1067290" lon="-3.6185180">
        <ele>403.4</ele>
        <time>2018-06-16T10:32:34Z</time>
      </trkpt>
      <trkpt lat="38.1066740" lon="-3.6185820">
        <ele>403.0</ele>
        <time>2018-06-16T10:32:35Z</time>
      </trkpt>
      <trkpt lat="38.1066410" lon="-3.6186550">
        <ele>403.2</ele>
        <time>2018-06-16T10:32:36Z</time>
      </trkpt>
      <trkpt lat="38.1065940" lon="-3.6187040">
        <ele>403.0</ele>
        <time>2018-06-16T10:32:37Z</time>
      </trkpt>
      <trkpt lat="38.1065780" lon="-3.6187600">
        <ele>403.0</ele>
        <time>2018-06-16T10:32:38Z</time>
      </trkpt>
      <trkpt lat="38.1065380" lon="-3.6188040">
        <ele>402.8</ele>
        <time>2018-06-16T10:32:39Z</time>
      </trkpt>
      <trkpt lat="38.1065110" lon="-3.6188430">
        <ele>403.0</ele>
        <time>2018-06-16T10:32:40Z</time>
      </trkpt>
      <trkpt lat="38.1064720" lon="-3.6188990">
        <ele>402.6</ele>
        <time>2018-06-16T10:32:41Z</time>
      </trkpt>
      <trkpt lat="38.1064270" lon="-3.6189670">
        <ele>403.0</ele>
        <time>2018-06-16T10:32:42Z</time>
      </trkpt>
      <trkpt lat="38.1063880" lon="-3.6190370">
        <ele>402.8</ele>
        <time>2018-06-16T10:32:43Z</time>
      </trkpt>
      <trkpt lat="38.1063380" lon="-3.6191230">
        <ele>402.8</ele>
        <time>2018-06-16T10:32:44Z</time>
      </trkpt>
      <trkpt lat="38.1062960" lon="-3.6192020">
        <ele>402.6</ele>
        <time>2018-06-16T10:32:45Z</time>
      </trkpt>
      <trkpt lat="38.1062620" lon="-3.6192620">
        <ele>402.8</ele>
        <time>2018-06-16T10:32:46Z</time>
      </trkpt>
      <trkpt lat="38.1062300" lon="-3.6193210">
        <ele>402.6</ele>
        <time>2018-06-16T10:32:47Z</time>
      </trkpt>
      <trkpt lat="38.1061820" lon="-3.6193780">
        <ele>402.6</ele>
        <time>2018-06-16T10:32:48Z</time>
      </trkpt>
      <trkpt lat="38.1061340" lon="-3.6194200">
        <ele>402.6</ele>
        <time>2018-06-16T10:32:49Z</time>
      </trkpt>
      <trkpt lat="38.1060850" lon="-3.6194750">
        <ele>402.8</ele>
        <time>2018-06-16T10:32:50Z</time>
      </trkpt>
      <trkpt lat="38.1060480" lon="-3.6195200">
        <ele>402.6</ele>
        <time>2018-06-16T10:32:51Z</time>
      </trkpt>
      <trkpt lat="38.1060230" lon="-3.6195600">
        <ele>402.6</ele>
        <time>2018-06-16T10:32:52Z</time>
      </trkpt>
      <trkpt lat="38.1060050" lon="-3.6196100">
        <ele>402.4</ele>
        <time>2018-06-16T10:32:53Z</time>
      </trkpt>
      <trkpt lat="38.1059930" lon="-3.6196570">
        <ele>402.4</ele>
        <time>2018-06-16T10:32:54Z</time>
      </trkpt>
      <trkpt lat="38.1059500" lon="-3.6196810">
        <ele>402.4</ele>
        <time>2018-06-16T10:32:55Z</time>
      </trkpt>
      <trkpt lat="38.1059390" lon="-3.6197050">
        <ele>402.4</ele>
        <time>2018-06-16T10:32:56Z</time>
      </trkpt>
      <trkpt lat="38.1059300" lon="-3.6197390">
        <ele>402.4</ele>
        <time>2018-06-16T10:32:57Z</time>
      </trkpt>
      <trkpt lat="38.1059270" lon="-3.6197400">
        <ele>402.4</ele>
        <time>2018-06-16T10:32:58Z</time>
      </trkpt>
      <trkpt lat="38.1059310" lon="-3.6197360">
        <ele>402.4</ele>
        <time>2018-06-16T10:32:59Z</time>
      </trkpt>
      <trkpt lat="38.1059370" lon="-3.6197430">
        <ele>402.4</ele>
        <time>2018-06-16T10:33:00Z</time>
      </trkpt>
      <trkpt lat="38.1059390" lon="-3.6197480">
        <ele>402.4</ele>
        <time>2018-06-16T10:33:01Z</time>
      </trkpt>
      <trkpt lat="38.1059440" lon="-3.6197530">
        <ele>402.4</ele>
        <time>2018-06-16T10:33:02Z</time>
      </trkpt>
      <trkpt lat="38.1059460" lon="-3.6197660">
        <ele>402.4</ele>
        <time>2018-06-16T10:33:03Z</time>
      </trkpt>
      <trkpt lat="38.1059340" lon="-3.6197640">
        <ele>402.4</ele>
        <time>2018-06-16T10:33:04Z</time>
      </trkpt>
      <trkpt lat="38.1059090" lon="-3.6197600">
        <ele>402.4</ele>
        <time>2018-06-16T10:33:05Z</time>
      </trkpt>
      <trkpt lat="38.1058950" lon="-3.6197580">
        <ele>402.4</ele>
        <time>2018-06-16T10:33:06Z</time>
      </trkpt>
      <trkpt lat="38.1058770" lon="-3.6197670">
        <ele>402.4</ele>
        <time>2018-06-16T10:33:07Z</time>
      </trkpt>
      <trkpt lat="38.1058710" lon="-3.6197880">
        <ele>402.4</ele>
        <time>2018-06-16T10:33:08Z</time>
      </trkpt>
      <trkpt lat="38.1058420" lon="-3.6198090">
        <ele>402.4</ele>
        <time>2018-06-16T10:33:09Z</time>
      </trkpt>
      <trkpt lat="38.1058350" lon="-3.6198400">
        <ele>402.4</ele>
        <time>2018-06-16T10:33:10Z</time>
      </trkpt>
      <trkpt lat="38.1058270" lon="-3.6198700">
        <ele>402.2</ele>
        <time>2018-06-16T10:33:11Z</time>
      </trkpt>
      <trkpt lat="38.1058250" lon="-3.6198940">
        <ele>402.2</ele>
        <time>2018-06-16T10:33:12Z</time>
      </trkpt>
      <trkpt lat="38.1057940" lon="-3.6199230">
        <ele>402.2</ele>
        <time>2018-06-16T10:33:13Z</time>
      </trkpt>
      <trkpt lat="38.1057810" lon="-3.6199680">
        <ele>402.0</ele>
        <time>2018-06-16T10:33:14Z</time>
      </trkpt>
      <trkpt lat="38.1057480" lon="-3.6199970">
        <ele>402.2</ele>
        <time>2018-06-16T10:33:15Z</time>
      </trkpt>
      <trkpt lat="38.1057130" lon="-3.6200280">
        <ele>402.2</ele>
        <time>2018-06-16T10:33:16Z</time>
      </trkpt>
      <trkpt lat="38.1056950" lon="-3.6200560">
        <ele>402.0</ele>
        <time>2018-06-16T10:33:17Z</time>
      </trkpt>
      <trkpt lat="38.1056740" lon="-3.6200940">
        <ele>402.0</ele>
        <time>2018-06-16T10:33:18Z</time>
      </trkpt>
      <trkpt lat="38.1056470" lon="-3.6201260">
        <ele>402.0</ele>
        <time>2018-06-16T10:33:19Z</time>
      </trkpt>
      <trkpt lat="38.1056290" lon="-3.6201630">
        <ele>402.0</ele>
        <time>2018-06-16T10:33:20Z</time>
      </trkpt>
      <trkpt lat="38.1056210" lon="-3.6201990">
        <ele>402.0</ele>
        <time>2018-06-16T10:33:21Z</time>
      </trkpt>
      <trkpt lat="38.1055960" lon="-3.6202320">
        <ele>402.0</ele>
        <time>2018-06-16T10:33:22Z</time>
      </trkpt>
      <trkpt lat="38.1055850" lon="-3.6202730">
        <ele>402.0</ele>
        <time>2018-06-16T10:33:23Z</time>
      </trkpt>
      <trkpt lat="38.1055740" lon="-3.6203260">
        <ele>402.0</ele>
        <time>2018-06-16T10:33:24Z</time>
      </trkpt>
      <trkpt lat="38.1055550" lon="-3.6203980">
        <ele>402.0</ele>
        <time>2018-06-16T10:33:25Z</time>
      </trkpt>
      <trkpt lat="38.1055260" lon="-3.6204460">
        <ele>402.0</ele>
        <time>2018-06-16T10:33:26Z</time>
      </trkpt>
      <trkpt lat="38.1054930" lon="-3.6204800">
        <ele>402.0</ele>
        <time>2018-06-16T10:33:27Z</time>
      </trkpt>
      <trkpt lat="38.1054670" lon="-3.6205280">
        <ele>401.8</ele>
        <time>2018-06-16T10:33:28Z</time>
      </trkpt>
      <trkpt lat="38.1054450" lon="-3.6205770">
        <ele>402.0</ele>
        <time>2018-06-16T10:33:29Z</time>
      </trkpt>
      <trkpt lat="38.1054190" lon="-3.6206300">
        <ele>402.0</ele>
        <time>2018-06-16T10:33:30Z</time>
      </trkpt>
      <trkpt lat="38.1053720" lon="-3.6206720">
        <ele>402.0</ele>
        <time>2018-06-16T10:33:31Z</time>
      </trkpt>
      <trkpt lat="38.1053600" lon="-3.6207260">
        <ele>402.0</ele>
        <time>2018-06-16T10:33:32Z</time>
      </trkpt>
      <trkpt lat="38.1053450" lon="-3.6207710">
        <ele>402.0</ele>
        <time>2018-06-16T10:33:33Z</time>
      </trkpt>
      <trkpt lat="38.1053280" lon="-3.6208140">
        <ele>402.0</ele>
        <time>2018-06-16T10:33:34Z</time>
      </trkpt>
      <trkpt lat="38.1053060" lon="-3.6208640">
        <ele>402.0</ele>
        <time>2018-06-16T10:33:35Z</time>
      </trkpt>
      <trkpt lat="38.1052700" lon="-3.6209000">
        <ele>402.0</ele>
        <time>2018-06-16T10:33:36Z</time>
      </trkpt>
      <trkpt lat="38.1052380" lon="-3.6209330">
        <ele>402.2</ele>
        <time>2018-06-16T10:33:37Z</time>
      </trkpt>
      <trkpt lat="38.1052120" lon="-3.6209810">
        <ele>402.0</ele>
        <time>2018-06-16T10:33:38Z</time>
      </trkpt>
      <trkpt lat="38.1051860" lon="-3.6210330">
        <ele>402.0</ele>
        <time>2018-06-16T10:33:39Z</time>
      </trkpt>
      <trkpt lat="38.1051570" lon="-3.6210820">
        <ele>402.4</ele>
        <time>2018-06-16T10:33:40Z</time>
      </trkpt>
      <trkpt lat="38.1051350" lon="-3.6211300">
        <ele>402.0</ele>
        <time>2018-06-16T10:33:41Z</time>
      </trkpt>
      <trkpt lat="38.1051010" lon="-3.6211860">
        <ele>401.8</ele>
        <time>2018-06-16T10:33:42Z</time>
      </trkpt>
      <trkpt lat="38.1050810" lon="-3.6212140">
        <ele>401.8</ele>
        <time>2018-06-16T10:33:43Z</time>
      </trkpt>
      <trkpt lat="38.1050710" lon="-3.6212300">
        <ele>401.8</ele>
        <time>2018-06-16T10:33:44Z</time>
      </trkpt>
      <trkpt lat="38.1050450" lon="-3.6212750">
        <ele>401.8</ele>
        <time>2018-06-16T10:33:45Z</time>
      </trkpt>
      <trkpt lat="38.1050240" lon="-3.6213400">
        <ele>402.0</ele>
        <time>2018-06-16T10:33:46Z</time>
      </trkpt>
      <trkpt lat="38.1050030" lon="-3.6213980">
        <ele>402.0</ele>
        <time>2018-06-16T10:33:47Z</time>
      </trkpt>
      <trkpt lat="38.1049800" lon="-3.6214500">
        <ele>401.8</ele>
        <time>2018-06-16T10:33:48Z</time>
      </trkpt>
      <trkpt lat="38.1049580" lon="-3.6215140">
        <ele>401.6</ele>
        <time>2018-06-16T10:33:49Z</time>
      </trkpt>
      <trkpt lat="38.1049240" lon="-3.6215780">
        <ele>401.6</ele>
        <time>2018-06-16T10:33:50Z</time>
      </trkpt>
      <trkpt lat="38.1049000" lon="-3.6216250">
        <ele>401.6</ele>
        <time>2018-06-16T10:33:51Z</time>
      </trkpt>
      <trkpt lat="38.1048680" lon="-3.6216580">
        <ele>401.4</ele>
        <time>2018-06-16T10:33:52Z</time>
      </trkpt>
      <trkpt lat="38.1048550" lon="-3.6217140">
        <ele>401.6</ele>
        <time>2018-06-16T10:33:53Z</time>
      </trkpt>
      <trkpt lat="38.1048360" lon="-3.6217590">
        <ele>401.4</ele>
        <time>2018-06-16T10:33:54Z</time>
      </trkpt>
      <trkpt lat="38.1048110" lon="-3.6218120">
        <ele>401.6</ele>
        <time>2018-06-16T10:33:55Z</time>
      </trkpt>
      <trkpt lat="38.1048020" lon="-3.6218710">
        <ele>401.6</ele>
        <time>2018-06-16T10:33:56Z</time>
      </trkpt>
      <trkpt lat="38.1047970" lon="-3.6218990">
        <ele>401.6</ele>
        <time>2018-06-16T10:33:57Z</time>
      </trkpt>
      <trkpt lat="38.1047910" lon="-3.6219130">
        <ele>401.4</ele>
        <time>2018-06-16T10:33:58Z</time>
      </trkpt>
      <trkpt lat="38.1047790" lon="-3.6219660">
        <ele>401.4</ele>
        <time>2018-06-16T10:33:59Z</time>
      </trkpt>
      <trkpt lat="38.1047610" lon="-3.6220170">
        <ele>401.2</ele>
        <time>2018-06-16T10:34:00Z</time>
      </trkpt>
      <trkpt lat="38.1047490" lon="-3.6220520">
        <ele>401.2</ele>
        <time>2018-06-16T10:34:01Z</time>
      </trkpt>
      <trkpt lat="38.1047320" lon="-3.6221060">
        <ele>401.2</ele>
        <time>2018-06-16T10:34:02Z</time>
      </trkpt>
      <trkpt lat="38.1047110" lon="-3.6221690">
        <ele>401.2</ele>
        <time>2018-06-16T10:34:03Z</time>
      </trkpt>
      <trkpt lat="38.1046800" lon="-3.6222170">
        <ele>401.0</ele>
        <time>2018-06-16T10:34:04Z</time>
      </trkpt>
      <trkpt lat="38.1046510" lon="-3.6222970">
        <ele>401.0</ele>
        <time>2018-06-16T10:34:05Z</time>
      </trkpt>
      <trkpt lat="38.1046330" lon="-3.6223370">
        <ele>400.8</ele>
        <time>2018-06-16T10:34:06Z</time>
      </trkpt>
      <trkpt lat="38.1046070" lon="-3.6223760">
        <ele>401.0</ele>
        <time>2018-06-16T10:34:07Z</time>
      </trkpt>
      <trkpt lat="38.1045970" lon="-3.6224280">
        <ele>401.0</ele>
        <time>2018-06-16T10:34:08Z</time>
      </trkpt>
      <trkpt lat="38.1045740" lon="-3.6224860">
        <ele>401.0</ele>
        <time>2018-06-16T10:34:09Z</time>
      </trkpt>
      <trkpt lat="38.1045560" lon="-3.6225310">
        <ele>400.8</ele>
        <time>2018-06-16T10:34:10Z</time>
      </trkpt>
      <trkpt lat="38.1045420" lon="-3.6225910">
        <ele>401.0</ele>
        <time>2018-06-16T10:34:11Z</time>
      </trkpt>
      <trkpt lat="38.1045120" lon="-3.6226430">
        <ele>400.8</ele>
        <time>2018-06-16T10:34:12Z</time>
      </trkpt>
      <trkpt lat="38.1045000" lon="-3.6227010">
        <ele>400.6</ele>
        <time>2018-06-16T10:34:13Z</time>
      </trkpt>
      <trkpt lat="38.1044760" lon="-3.6227660">
        <ele>400.8</ele>
        <time>2018-06-16T10:34:14Z</time>
      </trkpt>
      <trkpt lat="38.1044450" lon="-3.6228350">
        <ele>400.6</ele>
        <time>2018-06-16T10:34:15Z</time>
      </trkpt>
      <trkpt lat="38.1044350" lon="-3.6228930">
        <ele>400.6</ele>
        <time>2018-06-16T10:34:16Z</time>
      </trkpt>
      <trkpt lat="38.1044090" lon="-3.6229300">
        <ele>400.6</ele>
        <time>2018-06-16T10:34:17Z</time>
      </trkpt>
      <trkpt lat="38.1043850" lon="-3.6229820">
        <ele>400.6</ele>
        <time>2018-06-16T10:34:18Z</time>
      </trkpt>
      <trkpt lat="38.1043530" lon="-3.6230370">
        <ele>400.6</ele>
        <time>2018-06-16T10:34:19Z</time>
      </trkpt>
      <trkpt lat="38.1043360" lon="-3.6231000">
        <ele>400.4</ele>
        <time>2018-06-16T10:34:20Z</time>
      </trkpt>
      <trkpt lat="38.1043050" lon="-3.6231410">
        <ele>400.4</ele>
        <time>2018-06-16T10:34:21Z</time>
      </trkpt>
      <trkpt lat="38.1042970" lon="-3.6231860">
        <ele>400.4</ele>
        <time>2018-06-16T10:34:22Z</time>
      </trkpt>
      <trkpt lat="38.1042830" lon="-3.6232520">
        <ele>400.2</ele>
        <time>2018-06-16T10:34:23Z</time>
      </trkpt>
      <trkpt lat="38.1042700" lon="-3.6233150">
        <ele>400.2</ele>
        <time>2018-06-16T10:34:24Z</time>
      </trkpt>
      <trkpt lat="38.1042490" lon="-3.6233750">
        <ele>400.2</ele>
        <time>2018-06-16T10:34:25Z</time>
      </trkpt>
      <trkpt lat="38.1042140" lon="-3.6234320">
        <ele>400.0</ele>
        <time>2018-06-16T10:34:26Z</time>
      </trkpt>
      <trkpt lat="38.1041970" lon="-3.6235020">
        <ele>400.0</ele>
        <time>2018-06-16T10:34:27Z</time>
      </trkpt>
      <trkpt lat="38.1041730" lon="-3.6235690">
        <ele>400.2</ele>
        <time>2018-06-16T10:34:28Z</time>
      </trkpt>
      <trkpt lat="38.1041510" lon="-3.6236430">
        <ele>399.8</ele>
        <time>2018-06-16T10:34:29Z</time>
      </trkpt>
      <trkpt lat="38.1041260" lon="-3.6237000">
        <ele>400.0</ele>
        <time>2018-06-16T10:34:30Z</time>
      </trkpt>
      <trkpt lat="38.1041080" lon="-3.6237510">
        <ele>399.8</ele>
        <time>2018-06-16T10:34:31Z</time>
      </trkpt>
      <trkpt lat="38.1040820" lon="-3.6238080">
        <ele>399.6</ele>
        <time>2018-06-16T10:34:32Z</time>
      </trkpt>
      <trkpt lat="38.1040640" lon="-3.6238650">
        <ele>399.8</ele>
        <time>2018-06-16T10:34:33Z</time>
      </trkpt>
      <trkpt lat="38.1040500" lon="-3.6239230">
        <ele>399.8</ele>
        <time>2018-06-16T10:34:34Z</time>
      </trkpt>
      <trkpt lat="38.1040410" lon="-3.6239860">
        <ele>399.8</ele>
        <time>2018-06-16T10:34:35Z</time>
      </trkpt>
      <trkpt lat="38.1040290" lon="-3.6240470">
        <ele>399.8</ele>
        <time>2018-06-16T10:34:36Z</time>
      </trkpt>
      <trkpt lat="38.1039970" lon="-3.6240930">
        <ele>399.8</ele>
        <time>2018-06-16T10:34:37Z</time>
      </trkpt>
      <trkpt lat="38.1039800" lon="-3.6241450">
        <ele>399.8</ele>
        <time>2018-06-16T10:34:38Z</time>
      </trkpt>
      <trkpt lat="38.1039650" lon="-3.6242030">
        <ele>399.8</ele>
        <time>2018-06-16T10:34:39Z</time>
      </trkpt>
      <trkpt lat="38.1039470" lon="-3.6242720">
        <ele>399.8</ele>
        <time>2018-06-16T10:34:40Z</time>
      </trkpt>
      <trkpt lat="38.1039350" lon="-3.6243340">
        <ele>399.6</ele>
        <time>2018-06-16T10:34:41Z</time>
      </trkpt>
      <trkpt lat="38.1039190" lon="-3.6243910">
        <ele>399.6</ele>
        <time>2018-06-16T10:34:42Z</time>
      </trkpt>
      <trkpt lat="38.1038910" lon="-3.6244530">
        <ele>399.6</ele>
        <time>2018-06-16T10:34:43Z</time>
      </trkpt>
      <trkpt lat="38.1038600" lon="-3.6245150">
        <ele>399.6</ele>
        <time>2018-06-16T10:34:44Z</time>
      </trkpt>
      <trkpt lat="38.1038300" lon="-3.6245720">
        <ele>399.6</ele>
        <time>2018-06-16T10:34:45Z</time>
      </trkpt>
      <trkpt lat="38.1038140" lon="-3.6246340">
        <ele>399.6</ele>
        <time>2018-06-16T10:34:46Z</time>
      </trkpt>
      <trkpt lat="38.1037980" lon="-3.6246910">
        <ele>399.6</ele>
        <time>2018-06-16T10:34:47Z</time>
      </trkpt>
      <trkpt lat="38.1037760" lon="-3.6247430">
        <ele>399.6</ele>
        <time>2018-06-16T10:34:48Z</time>
      </trkpt>
      <trkpt lat="38.1037540" lon="-3.6247950">
        <ele>399.8</ele>
        <time>2018-06-16T10:34:49Z</time>
      </trkpt>
      <trkpt lat="38.1037410" lon="-3.6248590">
        <ele>399.8</ele>
        <time>2018-06-16T10:34:50Z</time>
      </trkpt>
      <trkpt lat="38.1037210" lon="-3.6249340">
        <ele>399.6</ele>
        <time>2018-06-16T10:34:51Z</time>
      </trkpt>
      <trkpt lat="38.1036990" lon="-3.6249920">
        <ele>399.8</ele>
        <time>2018-06-16T10:34:52Z</time>
      </trkpt>
      <trkpt lat="38.1036820" lon="-3.6250630">
        <ele>399.6</ele>
        <time>2018-06-16T10:34:53Z</time>
      </trkpt>
      <trkpt lat="38.1036840" lon="-3.6251310">
        <ele>399.6</ele>
        <time>2018-06-16T10:34:54Z</time>
      </trkpt>
      <trkpt lat="38.1036690" lon="-3.6251930">
        <ele>399.6</ele>
        <time>2018-06-16T10:34:55Z</time>
      </trkpt>
      <trkpt lat="38.1036570" lon="-3.6252300">
        <ele>399.6</ele>
        <time>2018-06-16T10:34:56Z</time>
      </trkpt>
      <trkpt lat="38.1036470" lon="-3.6252870">
        <ele>399.4</ele>
        <time>2018-06-16T10:34:57Z</time>
      </trkpt>
      <trkpt lat="38.1036280" lon="-3.6253400">
        <ele>399.4</ele>
        <time>2018-06-16T10:34:58Z</time>
      </trkpt>
      <trkpt lat="38.1036160" lon="-3.6253910">
        <ele>399.6</ele>
        <time>2018-06-16T10:34:59Z</time>
      </trkpt>
      <trkpt lat="38.1036000" lon="-3.6254760">
        <ele>399.6</ele>
        <time>2018-06-16T10:35:00Z</time>
      </trkpt>
      <trkpt lat="38.1035930" lon="-3.6255020">
        <ele>399.6</ele>
        <time>2018-06-16T10:35:01Z</time>
      </trkpt>
      <trkpt lat="38.1035800" lon="-3.6255590">
        <ele>399.6</ele>
        <time>2018-06-16T10:35:02Z</time>
      </trkpt>
      <trkpt lat="38.1035600" lon="-3.6256300">
        <ele>399.8</ele>
        <time>2018-06-16T10:35:03Z</time>
      </trkpt>
      <trkpt lat="38.1035390" lon="-3.6256890">
        <ele>399.6</ele>
        <time>2018-06-16T10:35:04Z</time>
      </trkpt>
      <trkpt lat="38.1035110" lon="-3.6257560">
        <ele>399.8</ele>
        <time>2018-06-16T10:35:05Z</time>
      </trkpt>
      <trkpt lat="38.1034890" lon="-3.6258170">
        <ele>399.8</ele>
        <time>2018-06-16T10:35:06Z</time>
      </trkpt>
      <trkpt lat="38.1034770" lon="-3.6258760">
        <ele>399.8</ele>
        <time>2018-06-16T10:35:07Z</time>
      </trkpt>
      <trkpt lat="38.1034600" lon="-3.6259170">
        <ele>399.8</ele>
        <time>2018-06-16T10:35:08Z</time>
      </trkpt>
      <trkpt lat="38.1034380" lon="-3.6259660">
        <ele>399.8</ele>
        <time>2018-06-16T10:35:09Z</time>
      </trkpt>
      <trkpt lat="38.1034160" lon="-3.6260290">
        <ele>399.8</ele>
        <time>2018-06-16T10:35:10Z</time>
      </trkpt>
      <trkpt lat="38.1034050" lon="-3.6260770">
        <ele>399.6</ele>
        <time>2018-06-16T10:35:11Z</time>
      </trkpt>
      <trkpt lat="38.1034020" lon="-3.6261280">
        <ele>399.8</ele>
        <time>2018-06-16T10:35:12Z</time>
      </trkpt>
      <trkpt lat="38.1033820" lon="-3.6261710">
        <ele>399.8</ele>
        <time>2018-06-16T10:35:13Z</time>
      </trkpt>
      <trkpt lat="38.1033550" lon="-3.6262250">
        <ele>399.8</ele>
        <time>2018-06-16T10:35:14Z</time>
      </trkpt>
      <trkpt lat="38.1033450" lon="-3.6262860">
        <ele>399.8</ele>
        <time>2018-06-16T10:35:15Z</time>
      </trkpt>
      <trkpt lat="38.1033330" lon="-3.6263450">
        <ele>399.8</ele>
        <time>2018-06-16T10:35:16Z</time>
      </trkpt>
      <trkpt lat="38.1033270" lon="-3.6264070">
        <ele>399.8</ele>
        <time>2018-06-16T10:35:17Z</time>
      </trkpt>
      <trkpt lat="38.1033130" lon="-3.6264580">
        <ele>400.0</ele>
        <time>2018-06-16T10:35:18Z</time>
      </trkpt>
      <trkpt lat="38.1032920" lon="-3.6265170">
        <ele>400.0</ele>
        <time>2018-06-16T10:35:19Z</time>
      </trkpt>
      <trkpt lat="38.1032950" lon="-3.6265850">
        <ele>400.0</ele>
        <time>2018-06-16T10:35:20Z</time>
      </trkpt>
      <trkpt lat="38.1032710" lon="-3.6266320">
        <ele>400.0</ele>
        <time>2018-06-16T10:35:21Z</time>
      </trkpt>
      <trkpt lat="38.1032450" lon="-3.6266750">
        <ele>399.8</ele>
        <time>2018-06-16T10:35:22Z</time>
      </trkpt>
      <trkpt lat="38.1032250" lon="-3.6267180">
        <ele>400.0</ele>
        <time>2018-06-16T10:35:23Z</time>
      </trkpt>
      <trkpt lat="38.1032000" lon="-3.6267650">
        <ele>399.8</ele>
        <time>2018-06-16T10:35:24Z</time>
      </trkpt>
      <trkpt lat="38.1031790" lon="-3.6268170">
        <ele>399.8</ele>
        <time>2018-06-16T10:35:25Z</time>
      </trkpt>
      <trkpt lat="38.1031610" lon="-3.6268670">
        <ele>400.0</ele>
        <time>2018-06-16T10:35:26Z</time>
      </trkpt>
      <trkpt lat="38.1031510" lon="-3.6269200">
        <ele>400.0</ele>
        <time>2018-06-16T10:35:27Z</time>
      </trkpt>
      <trkpt lat="38.1031300" lon="-3.6269610">
        <ele>400.0</ele>
        <time>2018-06-16T10:35:28Z</time>
      </trkpt>
      <trkpt lat="38.1031100" lon="-3.6270080">
        <ele>400.0</ele>
        <time>2018-06-16T10:35:29Z</time>
      </trkpt>
      <trkpt lat="38.1031070" lon="-3.6270560">
        <ele>400.0</ele>
        <time>2018-06-16T10:35:30Z</time>
      </trkpt>
      <trkpt lat="38.1030870" lon="-3.6271280">
        <ele>400.2</ele>
        <time>2018-06-16T10:35:31Z</time>
      </trkpt>
      <trkpt lat="38.1030810" lon="-3.6271750">
        <ele>400.0</ele>
        <time>2018-06-16T10:35:32Z</time>
      </trkpt>
      <trkpt lat="38.1030750" lon="-3.6272270">
        <ele>400.0</ele>
        <time>2018-06-16T10:35:33Z</time>
      </trkpt>
      <trkpt lat="38.1030660" lon="-3.6272830">
        <ele>400.2</ele>
        <time>2018-06-16T10:35:34Z</time>
      </trkpt>
      <trkpt lat="38.1030570" lon="-3.6273460">
        <ele>400.2</ele>
        <time>2018-06-16T10:35:35Z</time>
      </trkpt>
      <trkpt lat="38.1030360" lon="-3.6273760">
        <ele>400.2</ele>
        <time>2018-06-16T10:35:36Z</time>
      </trkpt>
      <trkpt lat="38.1030250" lon="-3.6274370">
        <ele>400.2</ele>
        <time>2018-06-16T10:35:37Z</time>
      </trkpt>
      <trkpt lat="38.1030160" lon="-3.6274810">
        <ele>400.4</ele>
        <time>2018-06-16T10:35:38Z</time>
      </trkpt>
      <trkpt lat="38.1030020" lon="-3.6275330">
        <ele>400.2</ele>
        <time>2018-06-16T10:35:39Z</time>
      </trkpt>
      <trkpt lat="38.1029840" lon="-3.6275750">
        <ele>400.0</ele>
        <time>2018-06-16T10:35:40Z</time>
      </trkpt>
      <trkpt lat="38.1029610" lon="-3.6276120">
        <ele>400.0</ele>
        <time>2018-06-16T10:35:41Z</time>
      </trkpt>
      <trkpt lat="38.1029600" lon="-3.6276650">
        <ele>400.0</ele>
        <time>2018-06-16T10:35:42Z</time>
      </trkpt>
      <trkpt lat="38.1029550" lon="-3.6277080">
        <ele>400.0</ele>
        <time>2018-06-16T10:35:43Z</time>
      </trkpt>
      <trkpt lat="38.1029560" lon="-3.6277750">
        <ele>400.0</ele>
        <time>2018-06-16T10:35:44Z</time>
      </trkpt>
      <trkpt lat="38.1029650" lon="-3.6278300">
        <ele>400.0</ele>
        <time>2018-06-16T10:35:45Z</time>
      </trkpt>
      <trkpt lat="38.1029650" lon="-3.6278800">
        <ele>399.8</ele>
        <time>2018-06-16T10:35:46Z</time>
      </trkpt>
      <trkpt lat="38.1029650" lon="-3.6279300">
        <ele>399.8</ele>
        <time>2018-06-16T10:35:47Z</time>
      </trkpt>
      <trkpt lat="38.1029680" lon="-3.6279930">
        <ele>399.8</ele>
        <time>2018-06-16T10:35:48Z</time>
      </trkpt>
      <trkpt lat="38.1029670" lon="-3.6280440">
        <ele>399.8</ele>
        <time>2018-06-16T10:35:49Z</time>
      </trkpt>
      <trkpt lat="38.1029690" lon="-3.6281000">
        <ele>399.8</ele>
        <time>2018-06-16T10:35:50Z</time>
      </trkpt>
      <trkpt lat="38.1029560" lon="-3.6281450">
        <ele>399.8</ele>
        <time>2018-06-16T10:35:51Z</time>
      </trkpt>
      <trkpt lat="38.1029410" lon="-3.6281710">
        <ele>399.8</ele>
        <time>2018-06-16T10:35:52Z</time>
      </trkpt>
      <trkpt lat="38.1029170" lon="-3.6281920">
        <ele>399.8</ele>
        <time>2018-06-16T10:35:53Z</time>
      </trkpt>
      <trkpt lat="38.1029060" lon="-3.6282210">
        <ele>399.8</ele>
        <time>2018-06-16T10:35:54Z</time>
      </trkpt>
      <trkpt lat="38.1028960" lon="-3.6282540">
        <ele>399.8</ele>
        <time>2018-06-16T10:35:55Z</time>
      </trkpt>
      <trkpt lat="38.1028890" lon="-3.6283050">
        <ele>399.6</ele>
        <time>2018-06-16T10:35:56Z</time>
      </trkpt>
      <trkpt lat="38.1028890" lon="-3.6283440">
        <ele>399.8</ele>
        <time>2018-06-16T10:35:57Z</time>
      </trkpt>
      <trkpt lat="38.1028680" lon="-3.6283750">
        <ele>399.6</ele>
        <time>2018-06-16T10:35:58Z</time>
      </trkpt>
      <trkpt lat="38.1028560" lon="-3.6284240">
        <ele>399.6</ele>
        <time>2018-06-16T10:35:59Z</time>
      </trkpt>
      <trkpt lat="38.1028430" lon="-3.6284630">
        <ele>399.6</ele>
        <time>2018-06-16T10:36:00Z</time>
      </trkpt>
      <trkpt lat="38.1028260" lon="-3.6284790">
        <ele>399.6</ele>
        <time>2018-06-16T10:36:01Z</time>
      </trkpt>
      <trkpt lat="38.1028040" lon="-3.6284880">
        <ele>399.6</ele>
        <time>2018-06-16T10:36:02Z</time>
      </trkpt>
      <trkpt lat="38.1027960" lon="-3.6285010">
        <ele>399.8</ele>
        <time>2018-06-16T10:36:03Z</time>
      </trkpt>
      <trkpt lat="38.1027920" lon="-3.6285250">
        <ele>399.8</ele>
        <time>2018-06-16T10:36:04Z</time>
      </trkpt>
      <trkpt lat="38.1027850" lon="-3.6285160">
        <ele>399.6</ele>
        <time>2018-06-16T10:36:05Z</time>
      </trkpt>
      <trkpt lat="38.1028000" lon="-3.6285300">
        <ele>399.8</ele>
        <time>2018-06-16T10:36:06Z</time>
      </trkpt>
      <trkpt lat="38.1027880" lon="-3.6285490">
        <ele>399.8</ele>
        <time>2018-06-16T10:36:07Z</time>
      </trkpt>
      <trkpt lat="38.1027770" lon="-3.6285650">
        <ele>399.8</ele>
        <time>2018-06-16T10:36:08Z</time>
      </trkpt>
      <trkpt lat="38.1027830" lon="-3.6285780">
        <ele>399.8</ele>
        <time>2018-06-16T10:36:09Z</time>
      </trkpt>
      <trkpt lat="38.1027890" lon="-3.6285920">
        <ele>399.8</ele>
        <time>2018-06-16T10:36:10Z</time>
      </trkpt>
      <trkpt lat="38.1027930" lon="-3.6286030">
        <ele>399.8</ele>
        <time>2018-06-16T10:36:11Z</time>
      </trkpt>
      <trkpt lat="38.1027770" lon="-3.6285900">
        <ele>399.8</ele>
        <time>2018-06-16T10:36:12Z</time>
      </trkpt>
      <trkpt lat="38.1027480" lon="-3.6285750">
        <ele>399.8</ele>
        <time>2018-06-16T10:36:13Z</time>
      </trkpt>
      <trkpt lat="38.1027360" lon="-3.6285560">
        <ele>399.8</ele>
        <time>2018-06-16T10:36:14Z</time>
      </trkpt>
    </trkseg>
  </trk>
</gpx>
